<?xml version='1.0' encoding='UTF-8'?><gpx version="1.1" creator="JPX - https://github.com/jenetics/jpx" xmlns="http://www.topografix.com/GPX/1/1"><trk><trkseg><trkpt lat="38.1747896" lon="15.670715"><ele>103.0</ele><time>2026-04-04T07:45:06.581Z</time></trkpt><trkpt lat="38.17448" lon="15.6706934"><ele>103.0</ele><time>2026-04-04T07:45:08.582Z</time></trkpt><trkpt lat="38.1743138" lon="15.6707135"><ele>103.0</ele><time>2026-04-04T07:45:09.633Z</time></trkpt><trkpt lat="38.1747003" lon="15.6706061"><ele>103.0</ele><time>2026-04-04T07:45:22.661Z</time></trkpt><trkpt lat="38.1743837" lon="15.6709008"><ele>103.0</ele><time>2026-04-04T07:45:25.58Z</time></trkpt><trkpt lat="38.1743063" lon="15.670915"><ele>103.0</ele><time>2026-04-04T07:45:37.58Z</time></trkpt><trkpt lat="38.1741967" lon="15.6710083"><ele>103.0</ele><time>2026-04-04T07:47:13.58Z</time></trkpt><trkpt lat="38.174115" lon="15.6710633"><ele>103.0</ele><time>2026-04-04T07:47:49.58Z</time></trkpt><trkpt lat="38.17415" lon="15.67097"><ele>103.0</ele><time>2026-04-04T07:48:21.579Z</time></trkpt><trkpt lat="38.1741967" lon="15.67091"><ele>103.00000000000001</ele><time>2026-04-04T07:48:34.579Z</time></trkpt><trkpt lat="38.1741117" lon="15.6709183"><ele>103.0</ele><time>2026-04-04T07:50:05.579Z</time></trkpt><trkpt lat="38.1740383" lon="15.67087"><ele>103.0</ele><time>2026-04-04T07:50:08.579Z</time></trkpt><trkpt lat="38.1739517" lon="15.6708367"><ele>103.0</ele><time>2026-04-04T07:50:11.58Z</time></trkpt><trkpt lat="38.1738617" lon="15.6708033"><ele>103.00000000000001</ele><time>2026-04-04T07:50:13.579Z</time></trkpt><trkpt lat="38.1738067" lon="15.6707567"><ele>103.0</ele><time>2026-04-04T07:50:16.579Z</time></trkpt><trkpt lat="38.1738033" lon="15.6706583"><ele>103.00000000000001</ele><time>2026-04-04T07:50:18.579Z</time></trkpt><trkpt lat="38.1738283" lon="15.6705083"><ele>103.0</ele><time>2026-04-04T07:50:20.58Z</time></trkpt><trkpt lat="38.1738517" lon="15.67042"><ele>103.0</ele><time>2026-04-04T07:50:21.58Z</time></trkpt><trkpt lat="38.1739133" lon="15.6703417"><ele>103.0</ele><time>2026-04-04T07:50:23.58Z</time></trkpt><trkpt lat="38.1739983" lon="15.670305"><ele>103.00000000000001</ele><time>2026-04-04T07:50:25.579Z</time></trkpt><trkpt lat="38.174065" lon="15.6703117"><ele>103.0</ele><time>2026-04-04T07:50:26.579Z</time></trkpt><trkpt lat="38.1741367" lon="15.6703317"><ele>103.00000000000001</ele><time>2026-04-04T07:50:27.58Z</time></trkpt><trkpt lat="38.1742133" lon="15.6703483"><ele>103.0</ele><time>2026-04-04T07:50:28.579Z</time></trkpt><trkpt lat="38.1742817" lon="15.6703683"><ele>103.0</ele><time>2026-04-04T07:50:29.579Z</time></trkpt><trkpt lat="38.1743933" lon="15.6703617"><ele>103.0</ele><time>2026-04-04T07:50:31.58Z</time></trkpt><trkpt lat="38.1744583" lon="15.6702683"><ele>103.00000000000001</ele><time>2026-04-04T07:50:33.579Z</time></trkpt><trkpt lat="38.174485" lon="15.670185"><ele>103.0</ele><time>2026-04-04T07:50:34.579Z</time></trkpt><trkpt lat="38.174495" lon="15.6700867"><ele>102.0</ele><time>2026-04-04T07:50:35.58Z</time></trkpt><trkpt lat="38.1744933" lon="15.669955"><ele>101.0</ele><time>2026-04-04T07:50:36.58Z</time></trkpt><trkpt lat="38.1744933" lon="15.6698333"><ele>100.0</ele><time>2026-04-04T07:50:37.579Z</time></trkpt><trkpt lat="38.174505" lon="15.6697117"><ele>99.0</ele><time>2026-04-04T07:50:38.579Z</time></trkpt><trkpt lat="38.17453" lon="15.66961"><ele>98.0</ele><time>2026-04-04T07:50:39.58Z</time></trkpt><trkpt lat="38.174555" lon="15.6695"><ele>97.2</ele><time>2026-04-04T07:50:40.579Z</time></trkpt><trkpt lat="38.1745767" lon="15.6694033"><ele>96.4</ele><time>2026-04-04T07:50:41.579Z</time></trkpt><trkpt lat="38.174595" lon="15.6692833"><ele>95.60000000000001</ele><time>2026-04-04T07:50:42.579Z</time></trkpt><trkpt lat="38.1746133" lon="15.669165"><ele>94.80000000000001</ele><time>2026-04-04T07:50:43.58Z</time></trkpt><trkpt lat="38.174625" lon="15.6690367"><ele>94.0</ele><time>2026-04-04T07:50:44.579Z</time></trkpt><trkpt lat="38.1746433" lon="15.6689017"><ele>94.0</ele><time>2026-04-04T07:50:45.579Z</time></trkpt><trkpt lat="38.1746633" lon="15.6687683"><ele>94.0</ele><time>2026-04-04T07:50:46.58Z</time></trkpt><trkpt lat="38.1746783" lon="15.6686433"><ele>94.0</ele><time>2026-04-04T07:50:47.579Z</time></trkpt><trkpt lat="38.1746933" lon="15.6685283"><ele>94.0</ele><time>2026-04-04T07:50:48.579Z</time></trkpt><trkpt lat="38.17471" lon="15.668415"><ele>94.0</ele><time>2026-04-04T07:50:49.579Z</time></trkpt><trkpt lat="38.1747183" lon="15.6683083"><ele>93.16666666666666</ele><time>2026-04-04T07:50:50.579Z</time></trkpt><trkpt lat="38.17472" lon="15.6682017"><ele>92.33333333333333</ele><time>2026-04-04T07:50:51.579Z</time></trkpt><trkpt lat="38.17472" lon="15.6680983"><ele>91.5</ele><time>2026-04-04T07:50:52.579Z</time></trkpt><trkpt lat="38.1747183" lon="15.668005"><ele>90.66666666666667</ele><time>2026-04-04T07:50:53.58Z</time></trkpt><trkpt lat="38.1747083" lon="15.66791"><ele>89.83333333333334</ele><time>2026-04-04T07:50:54.579Z</time></trkpt><trkpt lat="38.17469" lon="15.667815"><ele>89.0</ele><time>2026-04-04T07:50:55.579Z</time></trkpt><trkpt lat="38.1746767" lon="15.6677233"><ele>87.83333333333334</ele><time>2026-04-04T07:50:56.579Z</time></trkpt><trkpt lat="38.1746817" lon="15.6676433"><ele>86.66666666666667</ele><time>2026-04-04T07:50:57.579Z</time></trkpt><trkpt lat="38.1747" lon="15.667555"><ele>85.5</ele><time>2026-04-04T07:50:58.579Z</time></trkpt><trkpt lat="38.17474" lon="15.667475"><ele>84.33333333333333</ele><time>2026-04-04T07:50:59.579Z</time></trkpt><trkpt lat="38.17479" lon="15.6673917"><ele>83.16666666666666</ele><time>2026-04-04T07:51:00.579Z</time></trkpt><trkpt lat="38.174845" lon="15.6673133"><ele>82.0</ele><time>2026-04-04T07:51:01.579Z</time></trkpt><trkpt lat="38.174895" lon="15.6672383"><ele>81.83333333333333</ele><time>2026-04-04T07:51:02.579Z</time></trkpt><trkpt lat="38.17494" lon="15.6671633"><ele>81.66666666666666</ele><time>2026-04-04T07:51:03.579Z</time></trkpt><trkpt lat="38.1749767" lon="15.667075"><ele>81.5</ele><time>2026-04-04T07:51:04.58Z</time></trkpt><trkpt lat="38.175005" lon="15.6669933"><ele>81.33333333333333</ele><time>2026-04-04T07:51:05.579Z</time></trkpt><trkpt lat="38.175035" lon="15.6669117"><ele>81.16666666666667</ele><time>2026-04-04T07:51:06.579Z</time></trkpt><trkpt lat="38.175095" lon="15.666795"><ele>81.0</ele><time>2026-04-04T07:51:08.58Z</time></trkpt><trkpt lat="38.1751733" lon="15.66679"><ele>81.0</ele><time>2026-04-04T07:51:11.579Z</time></trkpt><trkpt lat="38.17529" lon="15.666875"><ele>81.0</ele><time>2026-04-04T07:51:13.579Z</time></trkpt><trkpt lat="38.1753767" lon="15.666935"><ele>81.0</ele><time>2026-04-04T07:51:14.579Z</time></trkpt><trkpt lat="38.175475" lon="15.666995"><ele>81.0</ele><time>2026-04-04T07:51:15.58Z</time></trkpt><trkpt lat="38.1755733" lon="15.6670583"><ele>81.0</ele><time>2026-04-04T07:51:16.579Z</time></trkpt><trkpt lat="38.1756717" lon="15.6671383"><ele>81.0</ele><time>2026-04-04T07:51:17.579Z</time></trkpt><trkpt lat="38.175775" lon="15.66721"><ele>81.0</ele><time>2026-04-04T07:51:18.579Z</time></trkpt><trkpt lat="38.175875" lon="15.6672817"><ele>81.0</ele><time>2026-04-04T07:51:19.579Z</time></trkpt><trkpt lat="38.17597" lon="15.66734"><ele>81.4</ele><time>2026-04-04T07:51:20.579Z</time></trkpt><trkpt lat="38.17605" lon="15.6674067"><ele>81.8</ele><time>2026-04-04T07:51:21.58Z</time></trkpt><trkpt lat="38.17611" lon="15.667445"><ele>82.2</ele><time>2026-04-04T07:51:22.58Z</time></trkpt><trkpt lat="38.176225" lon="15.6674633"><ele>82.60000000000001</ele><time>2026-04-04T07:51:24.579Z</time></trkpt><trkpt lat="38.176315" lon="15.6673883"><ele>83.0</ele><time>2026-04-04T07:51:26.579Z</time></trkpt><trkpt lat="38.1763567" lon="15.6673233"><ele>83.0</ele><time>2026-04-04T07:51:27.579Z</time></trkpt><trkpt lat="38.1763867" lon="15.667235"><ele>83.0</ele><time>2026-04-04T07:51:28.579Z</time></trkpt><trkpt lat="38.176415" lon="15.6671533"><ele>83.0</ele><time>2026-04-04T07:51:29.58Z</time></trkpt><trkpt lat="38.1764383" lon="15.6670383"><ele>83.0</ele><time>2026-04-04T07:51:30.579Z</time></trkpt><trkpt lat="38.1764567" lon="15.666945"><ele>83.0</ele><time>2026-04-04T07:51:31.579Z</time></trkpt><trkpt lat="38.1764733" lon="15.666855"><ele>83.0</ele><time>2026-04-04T07:51:32.579Z</time></trkpt><trkpt lat="38.1765017" lon="15.66677"><ele>83.0</ele><time>2026-04-04T07:51:33.579Z</time></trkpt><trkpt lat="38.17652" lon="15.6666183"><ele>83.0</ele><time>2026-04-04T07:51:35.579Z</time></trkpt><trkpt lat="38.17657" lon="15.6664867"><ele>83.0</ele><time>2026-04-04T07:51:37.579Z</time></trkpt><trkpt lat="38.17666" lon="15.6663917"><ele>83.0</ele><time>2026-04-04T07:51:39.58Z</time></trkpt><trkpt lat="38.1767317" lon="15.6664017"><ele>83.0</ele><time>2026-04-04T07:51:40.579Z</time></trkpt><trkpt lat="38.1768067" lon="15.6664117"><ele>83.0</ele><time>2026-04-04T07:51:41.579Z</time></trkpt><trkpt lat="38.1768817" lon="15.6664517"><ele>83.0</ele><time>2026-04-04T07:51:42.579Z</time></trkpt><trkpt lat="38.176965" lon="15.6665417"><ele>83.0</ele><time>2026-04-04T07:51:43.579Z</time></trkpt><trkpt lat="38.1770467" lon="15.666645"><ele>83.0</ele><time>2026-04-04T07:51:44.579Z</time></trkpt><trkpt lat="38.1771533" lon="15.6668033"><ele>83.0</ele><time>2026-04-04T07:51:45.58Z</time></trkpt><trkpt lat="38.1772633" lon="15.6669417"><ele>83.0</ele><time>2026-04-04T07:51:46.579Z</time></trkpt><trkpt lat="38.1773717" lon="15.6670517"><ele>83.0</ele><time>2026-04-04T07:51:47.579Z</time></trkpt><trkpt lat="38.1774667" lon="15.6671283"><ele>83.0</ele><time>2026-04-04T07:51:48.58Z</time></trkpt><trkpt lat="38.17755" lon="15.6671933"><ele>83.33333333333334</ele><time>2026-04-04T07:51:49.579Z</time></trkpt><trkpt lat="38.1776167" lon="15.6672533"><ele>83.66666666666667</ele><time>2026-04-04T07:51:50.579Z</time></trkpt><trkpt lat="38.1776917" lon="15.6673617"><ele>84.0</ele><time>2026-04-04T07:51:52.579Z</time></trkpt><trkpt lat="38.1777133" lon="15.6674717"><ele>84.33333333333333</ele><time>2026-04-04T07:51:54.579Z</time></trkpt><trkpt lat="38.1776767" lon="15.667575"><ele>84.66666666666666</ele><time>2026-04-04T07:51:56.579Z</time></trkpt><trkpt lat="38.177635" lon="15.6676417"><ele>85.0</ele><time>2026-04-04T07:51:57.579Z</time></trkpt><trkpt lat="38.1776017" lon="15.66773"><ele>85.33333333333333</ele><time>2026-04-04T07:51:58.579Z</time></trkpt><trkpt lat="38.17757" lon="15.667825"><ele>85.66666666666666</ele><time>2026-04-04T07:51:59.579Z</time></trkpt><trkpt lat="38.1775617" lon="15.6679167"><ele>86.0</ele><time>2026-04-04T07:52:00.579Z</time></trkpt><trkpt lat="38.1775717" lon="15.6680033"><ele>86.33333333333333</ele><time>2026-04-04T07:52:01.579Z</time></trkpt><trkpt lat="38.17762" lon="15.6680767"><ele>86.66666666666667</ele><time>2026-04-04T07:52:02.579Z</time></trkpt><trkpt lat="38.1776867" lon="15.6681333"><ele>87.0</ele><time>2026-04-04T07:52:03.58Z</time></trkpt><trkpt lat="38.177755" lon="15.6681867"><ele>87.0</ele><time>2026-04-04T07:52:04.579Z</time></trkpt><trkpt lat="38.1778167" lon="15.6682583"><ele>87.0</ele><time>2026-04-04T07:52:05.579Z</time></trkpt><trkpt lat="38.1778783" lon="15.66833"><ele>87.0</ele><time>2026-04-04T07:52:06.579Z</time></trkpt><trkpt lat="38.1779367" lon="15.6684133"><ele>87.0</ele><time>2026-04-04T07:52:07.58Z</time></trkpt><trkpt lat="38.1780067" lon="15.668505"><ele>87.0</ele><time>2026-04-04T07:52:08.58Z</time></trkpt><trkpt lat="38.1780967" lon="15.6686017"><ele>86.25</ele><time>2026-04-04T07:52:09.579Z</time></trkpt><trkpt lat="38.1781967" lon="15.6686983"><ele>85.5</ele><time>2026-04-04T07:52:10.579Z</time></trkpt><trkpt lat="38.1782817" lon="15.6688"><ele>84.75</ele><time>2026-04-04T07:52:11.58Z</time></trkpt><trkpt lat="38.178375" lon="15.6689083"><ele>84.0</ele><time>2026-04-04T07:52:12.579Z</time></trkpt><trkpt lat="38.178475" lon="15.66898"><ele>84.0</ele><time>2026-04-04T07:52:13.58Z</time></trkpt><trkpt lat="38.178575" lon="15.6690233"><ele>84.0</ele><time>2026-04-04T07:52:14.579Z</time></trkpt><trkpt lat="38.178685" lon="15.6690583"><ele>84.0</ele><time>2026-04-04T07:52:15.579Z</time></trkpt><trkpt lat="38.1788" lon="15.6690933"><ele>84.0</ele><time>2026-04-04T07:52:16.579Z</time></trkpt><trkpt lat="38.1789117" lon="15.6691333"><ele>84.0</ele><time>2026-04-04T07:52:17.58Z</time></trkpt><trkpt lat="38.1790117" lon="15.6691833"><ele>84.0</ele><time>2026-04-04T07:52:18.579Z</time></trkpt><trkpt lat="38.1791067" lon="15.669205"><ele>84.0</ele><time>2026-04-04T07:52:19.579Z</time></trkpt><trkpt lat="38.1792067" lon="15.6692083"><ele>84.0</ele><time>2026-04-04T07:52:20.579Z</time></trkpt><trkpt lat="38.1793033" lon="15.6692033"><ele>84.0</ele><time>2026-04-04T07:52:21.58Z</time></trkpt><trkpt lat="38.1793967" lon="15.669185"><ele>83.6</ele><time>2026-04-04T07:52:22.579Z</time></trkpt><trkpt lat="38.17948" lon="15.6691733"><ele>83.2</ele><time>2026-04-04T07:52:23.58Z</time></trkpt><trkpt lat="38.1795683" lon="15.669185"><ele>82.8</ele><time>2026-04-04T07:52:24.579Z</time></trkpt><trkpt lat="38.1796617" lon="15.6691967"><ele>82.39999999999999</ele><time>2026-04-04T07:52:25.579Z</time></trkpt><trkpt lat="38.1797617" lon="15.66921"><ele>82.0</ele><time>2026-04-04T07:52:26.579Z</time></trkpt><trkpt lat="38.179855" lon="15.6692217"><ele>81.5</ele><time>2026-04-04T07:52:27.579Z</time></trkpt><trkpt lat="38.1799283" lon="15.6692317"><ele>81.0</ele><time>2026-04-04T07:52:28.579Z</time></trkpt><trkpt lat="38.1800317" lon="15.6692367"><ele>80.5</ele><time>2026-04-04T07:52:30.579Z</time></trkpt><trkpt lat="38.1801133" lon="15.669255"><ele>80.0</ele><time>2026-04-04T07:52:32.579Z</time></trkpt><trkpt lat="38.1802233" lon="15.6692833"><ele>79.5</ele><time>2026-04-04T07:52:34.579Z</time></trkpt><trkpt lat="38.1802867" lon="15.66928"><ele>79.0</ele><time>2026-04-04T07:52:35.579Z</time></trkpt><trkpt lat="38.1803533" lon="15.6692933"><ele>79.0</ele><time>2026-04-04T07:52:36.579Z</time></trkpt><trkpt lat="38.1804417" lon="15.6693"><ele>79.0</ele><time>2026-04-04T07:52:37.579Z</time></trkpt><trkpt lat="38.1805433" lon="15.6693167"><ele>79.0</ele><time>2026-04-04T07:52:38.579Z</time></trkpt><trkpt lat="38.1806583" lon="15.669345"><ele>79.0</ele><time>2026-04-04T07:52:39.579Z</time></trkpt><trkpt lat="38.180785" lon="15.669375"><ele>79.0</ele><time>2026-04-04T07:52:40.579Z</time></trkpt><trkpt lat="38.18092" lon="15.6694117"><ele>79.66666666666666</ele><time>2026-04-04T07:52:41.579Z</time></trkpt><trkpt lat="38.1810617" lon="15.66947"><ele>80.33333333333333</ele><time>2026-04-04T07:52:42.58Z</time></trkpt><trkpt lat="38.1812117" lon="15.6695167"><ele>81.0</ele><time>2026-04-04T07:52:43.579Z</time></trkpt><trkpt lat="38.18136" lon="15.6695517"><ele>81.0</ele><time>2026-04-04T07:52:44.58Z</time></trkpt><trkpt lat="38.181505" lon="15.6695733"><ele>81.0</ele><time>2026-04-04T07:52:45.58Z</time></trkpt><trkpt lat="38.18163" lon="15.6695717"><ele>81.0</ele><time>2026-04-04T07:52:46.579Z</time></trkpt><trkpt lat="38.1817217" lon="15.6695533"><ele>81.0</ele><time>2026-04-04T07:52:47.579Z</time></trkpt><trkpt lat="38.1818267" lon="15.6695367"><ele>81.16666666666667</ele><time>2026-04-04T07:52:49.579Z</time></trkpt><trkpt lat="38.1819233" lon="15.6695417"><ele>81.33333333333333</ele><time>2026-04-04T07:52:51.579Z</time></trkpt><trkpt lat="38.1819883" lon="15.6695717"><ele>81.5</ele><time>2026-04-04T07:52:52.579Z</time></trkpt><trkpt lat="38.182045" lon="15.6696167"><ele>81.66666666666666</ele><time>2026-04-04T07:52:53.579Z</time></trkpt><trkpt lat="38.1821317" lon="15.6696117"><ele>81.83333333333333</ele><time>2026-04-04T07:52:55.579Z</time></trkpt><trkpt lat="38.1821067" lon="15.6694983"><ele>82.0</ele><time>2026-04-04T07:52:57.579Z</time></trkpt><trkpt lat="38.1820567" lon="15.6694067"><ele>82.0</ele><time>2026-04-04T07:52:58.579Z</time></trkpt><trkpt lat="38.1819867" lon="15.66929"><ele>82.0</ele><time>2026-04-04T07:52:59.579Z</time></trkpt><trkpt lat="38.1818867" lon="15.66912"><ele>82.0</ele><time>2026-04-04T07:53:00.579Z</time></trkpt><trkpt lat="38.1817733" lon="15.6689083"><ele>82.0</ele><time>2026-04-04T07:53:01.58Z</time></trkpt><trkpt lat="38.1816467" lon="15.66867"><ele>82.0</ele><time>2026-04-04T07:53:02.579Z</time></trkpt><trkpt lat="38.18152" lon="15.6684367"><ele>82.0</ele><time>2026-04-04T07:53:03.58Z</time></trkpt><trkpt lat="38.1813883" lon="15.66817"><ele>80.0</ele><time>2026-04-04T07:53:04.579Z</time></trkpt><trkpt lat="38.181255" lon="15.6679067"><ele>78.0</ele><time>2026-04-04T07:53:05.579Z</time></trkpt><trkpt lat="38.18112" lon="15.6676367"><ele>77.0</ele><time>2026-04-04T07:53:06.579Z</time></trkpt><trkpt lat="38.1809683" lon="15.6673533"><ele>76.0</ele><time>2026-04-04T07:53:07.579Z</time></trkpt><trkpt lat="38.1808117" lon="15.66706"><ele>74.5</ele><time>2026-04-04T07:53:08.58Z</time></trkpt><trkpt lat="38.1806617" lon="15.6667583"><ele>73.0</ele><time>2026-04-04T07:53:09.579Z</time></trkpt><trkpt lat="38.1805233" lon="15.666465"><ele>73.0</ele><time>2026-04-04T07:53:10.579Z</time></trkpt><trkpt lat="38.180375" lon="15.66617"><ele>73.0</ele><time>2026-04-04T07:53:11.579Z</time></trkpt><trkpt lat="38.18024" lon="15.6658867"><ele>73.5</ele><time>2026-04-04T07:53:12.579Z</time></trkpt><trkpt lat="38.18011" lon="15.6656217"><ele>74.0</ele><time>2026-04-04T07:53:13.579Z</time></trkpt><trkpt lat="38.1799867" lon="15.6653667"><ele>71.0</ele><time>2026-04-04T07:53:14.58Z</time></trkpt><trkpt lat="38.1798417" lon="15.6650983"><ele>68.0</ele><time>2026-04-04T07:53:15.579Z</time></trkpt><trkpt lat="38.1797017" lon="15.6648233"><ele>68.0</ele><time>2026-04-04T07:53:16.579Z</time></trkpt><trkpt lat="38.1795717" lon="15.66455"><ele>68.0</ele><time>2026-04-04T07:53:17.579Z</time></trkpt><trkpt lat="38.1794367" lon="15.6642817"><ele>68.0</ele><time>2026-04-04T07:53:18.579Z</time></trkpt><trkpt lat="38.179305" lon="15.6640167"><ele>68.0</ele><time>2026-04-04T07:53:19.579Z</time></trkpt><trkpt lat="38.1791617" lon="15.6637467"><ele>68.0</ele><time>2026-04-04T07:53:20.579Z</time></trkpt><trkpt lat="38.179015" lon="15.66349"><ele>68.0</ele><time>2026-04-04T07:53:21.58Z</time></trkpt><trkpt lat="38.1788567" lon="15.6632417"><ele>68.0</ele><time>2026-04-04T07:53:22.579Z</time></trkpt><trkpt lat="38.1787067" lon="15.6629983"><ele>68.0</ele><time>2026-04-04T07:53:23.579Z</time></trkpt><trkpt lat="38.1785583" lon="15.6627467"><ele>66.5</ele><time>2026-04-04T07:53:24.579Z</time></trkpt><trkpt lat="38.1783933" lon="15.6624983"><ele>65.0</ele><time>2026-04-04T07:53:25.579Z</time></trkpt><trkpt lat="38.1782217" lon="15.6622667"><ele>62.5</ele><time>2026-04-04T07:53:26.579Z</time></trkpt><trkpt lat="38.1780583" lon="15.662005"><ele>60.0</ele><time>2026-04-04T07:53:27.579Z</time></trkpt><trkpt lat="38.177895" lon="15.6617467"><ele>59.0</ele><time>2026-04-04T07:53:28.579Z</time></trkpt><trkpt lat="38.17772" lon="15.6614883"><ele>58.0</ele><time>2026-04-04T07:53:29.579Z</time></trkpt><trkpt lat="38.177545" lon="15.66123"><ele>57.5</ele><time>2026-04-04T07:53:30.58Z</time></trkpt><trkpt lat="38.1773683" lon="15.66097"><ele>57.0</ele><time>2026-04-04T07:53:31.579Z</time></trkpt><trkpt lat="38.1771867" lon="15.6607233"><ele>56.5</ele><time>2026-04-04T07:53:32.579Z</time></trkpt><trkpt lat="38.1770217" lon="15.6604717"><ele>56.0</ele><time>2026-04-04T07:53:33.579Z</time></trkpt><trkpt lat="38.1768467" lon="15.6602117"><ele>55.0</ele><time>2026-04-04T07:53:34.58Z</time></trkpt><trkpt lat="38.176685" lon="15.659955"><ele>54.0</ele><time>2026-04-04T07:53:35.579Z</time></trkpt><trkpt lat="38.17652" lon="15.659715"><ele>52.0</ele><time>2026-04-04T07:53:36.579Z</time></trkpt><trkpt lat="38.1763683" lon="15.6594883"><ele>50.0</ele><time>2026-04-04T07:53:37.579Z</time></trkpt><trkpt lat="38.1762183" lon="15.6592767"><ele>50.0</ele><time>2026-04-04T07:53:38.579Z</time></trkpt><trkpt lat="38.17608" lon="15.6590667"><ele>50.0</ele><time>2026-04-04T07:53:39.58Z</time></trkpt><trkpt lat="38.17595" lon="15.6588733"><ele>50.0</ele><time>2026-04-04T07:53:40.579Z</time></trkpt><trkpt lat="38.1758233" lon="15.6586867"><ele>49.66666666666667</ele><time>2026-04-04T07:53:41.58Z</time></trkpt><trkpt lat="38.1757033" lon="15.65851"><ele>49.33333333333333</ele><time>2026-04-04T07:53:42.579Z</time></trkpt><trkpt lat="38.1755833" lon="15.6583467"><ele>49.0</ele><time>2026-04-04T07:53:43.579Z</time></trkpt><trkpt lat="38.1754667" lon="15.658195"><ele>48.33333333333333</ele><time>2026-04-04T07:53:44.579Z</time></trkpt><trkpt lat="38.175345" lon="15.6580617"><ele>47.666666666666664</ele><time>2026-04-04T07:53:45.58Z</time></trkpt><trkpt lat="38.175215" lon="15.6579233"><ele>47.0</ele><time>2026-04-04T07:53:46.58Z</time></trkpt><trkpt lat="38.175075" lon="15.6577917"><ele>46.666666666666664</ele><time>2026-04-04T07:53:47.579Z</time></trkpt><trkpt lat="38.174925" lon="15.65767"><ele>46.333333333333336</ele><time>2026-04-04T07:53:48.579Z</time></trkpt><trkpt lat="38.1747683" lon="15.6575617"><ele>46.0</ele><time>2026-04-04T07:53:49.579Z</time></trkpt><trkpt lat="38.1746" lon="15.65746"><ele>45.0</ele><time>2026-04-04T07:53:50.579Z</time></trkpt><trkpt lat="38.1744383" lon="15.657375"><ele>44.0</ele><time>2026-04-04T07:53:51.579Z</time></trkpt><trkpt lat="38.1742617" lon="15.6572983"><ele>43.0</ele><time>2026-04-04T07:53:52.579Z</time></trkpt><trkpt lat="38.1740767" lon="15.6572283"><ele>42.66666666666667</ele><time>2026-04-04T07:53:53.579Z</time></trkpt><trkpt lat="38.173895" lon="15.6571717"><ele>42.333333333333336</ele><time>2026-04-04T07:53:54.579Z</time></trkpt><trkpt lat="38.1737183" lon="15.6571133"><ele>42.0</ele><time>2026-04-04T07:53:55.579Z</time></trkpt><trkpt lat="38.17355" lon="15.6570533"><ele>42.0</ele><time>2026-04-04T07:53:56.579Z</time></trkpt><trkpt lat="38.1733917" lon="15.657005"><ele>42.0</ele><time>2026-04-04T07:53:57.58Z</time></trkpt><trkpt lat="38.1732317" lon="15.6569617"><ele>42.0</ele><time>2026-04-04T07:53:58.579Z</time></trkpt><trkpt lat="38.17309" lon="15.6569083"><ele>40.75</ele><time>2026-04-04T07:53:59.579Z</time></trkpt><trkpt lat="38.172945" lon="15.6568567"><ele>39.5</ele><time>2026-04-04T07:54:00.579Z</time></trkpt><trkpt lat="38.172815" lon="15.6568033"><ele>38.25</ele><time>2026-04-04T07:54:01.579Z</time></trkpt><trkpt lat="38.1726833" lon="15.6567567"><ele>37.0</ele><time>2026-04-04T07:54:02.579Z</time></trkpt><trkpt lat="38.1725567" lon="15.65671"><ele>37.0</ele><time>2026-04-04T07:54:03.579Z</time></trkpt><trkpt lat="38.172435" lon="15.6566583"><ele>37.0</ele><time>2026-04-04T07:54:04.579Z</time></trkpt><trkpt lat="38.1723167" lon="15.6566"><ele>37.0</ele><time>2026-04-04T07:54:05.58Z</time></trkpt><trkpt lat="38.1722017" lon="15.6565333"><ele>37.0</ele><time>2026-04-04T07:54:06.579Z</time></trkpt><trkpt lat="38.1720933" lon="15.6564667"><ele>36.75</ele><time>2026-04-04T07:54:07.58Z</time></trkpt><trkpt lat="38.1719867" lon="15.6563883"><ele>36.5</ele><time>2026-04-04T07:54:08.58Z</time></trkpt><trkpt lat="38.1718867" lon="15.6563"><ele>36.25</ele><time>2026-04-04T07:54:09.579Z</time></trkpt><trkpt lat="38.1717933" lon="15.65621"><ele>36.0</ele><time>2026-04-04T07:54:10.579Z</time></trkpt><trkpt lat="38.1716983" lon="15.65611"><ele>36.0</ele><time>2026-04-04T07:54:11.58Z</time></trkpt><trkpt lat="38.1716083" lon="15.6559983"><ele>36.0</ele><time>2026-04-04T07:54:12.579Z</time></trkpt><trkpt lat="38.1715267" lon="15.6558733"><ele>36.0</ele><time>2026-04-04T07:54:13.579Z</time></trkpt><trkpt lat="38.1714467" lon="15.65572"><ele>36.0</ele><time>2026-04-04T07:54:14.579Z</time></trkpt><trkpt lat="38.17137" lon="15.6555483"><ele>35.666666666666664</ele><time>2026-04-04T07:54:15.579Z</time></trkpt><trkpt lat="38.1713" lon="15.65536"><ele>35.33333333333333</ele><time>2026-04-04T07:54:16.579Z</time></trkpt><trkpt lat="38.1712317" lon="15.6551417"><ele>35.0</ele><time>2026-04-04T07:54:17.579Z</time></trkpt><trkpt lat="38.1711567" lon="15.6549017"><ele>34.0</ele><time>2026-04-04T07:54:18.579Z</time></trkpt><trkpt lat="38.171075" lon="15.6546633"><ele>33.0</ele><time>2026-04-04T07:54:19.579Z</time></trkpt><trkpt lat="38.171015" lon="15.654385"><ele>32.0</ele><time>2026-04-04T07:54:20.579Z</time></trkpt><trkpt lat="38.17095" lon="15.6540833"><ele>30.5</ele><time>2026-04-04T07:54:21.579Z</time></trkpt><trkpt lat="38.1708817" lon="15.6537667"><ele>29.0</ele><time>2026-04-04T07:54:22.579Z</time></trkpt><trkpt lat="38.1708117" lon="15.65348"><ele>28.666666666666664</ele><time>2026-04-04T07:54:23.579Z</time></trkpt><trkpt lat="38.17076" lon="15.653215"><ele>28.333333333333336</ele><time>2026-04-04T07:54:24.579Z</time></trkpt><trkpt lat="38.1707033" lon="15.6529833"><ele>28.0</ele><time>2026-04-04T07:54:25.579Z</time></trkpt><trkpt lat="38.1706667" lon="15.65279"><ele>27.5</ele><time>2026-04-04T07:54:26.579Z</time></trkpt><trkpt lat="38.1706617" lon="15.6525967"><ele>27.0</ele><time>2026-04-04T07:54:27.579Z</time></trkpt><trkpt lat="38.1706683" lon="15.65244"><ele>26.5</ele><time>2026-04-04T07:54:28.579Z</time></trkpt><trkpt lat="38.1706867" lon="15.6523"><ele>26.0</ele><time>2026-04-04T07:54:29.579Z</time></trkpt><trkpt lat="38.17072" lon="15.6521633"><ele>25.999999999999996</ele><time>2026-04-04T07:54:30.579Z</time></trkpt><trkpt lat="38.1707667" lon="15.65206"><ele>26.0</ele><time>2026-04-04T07:54:31.579Z</time></trkpt><trkpt lat="38.1708283" lon="15.6519883"><ele>26.0</ele><time>2026-04-04T07:54:32.579Z</time></trkpt><trkpt lat="38.1709017" lon="15.6519467"><ele>26.0</ele><time>2026-04-04T07:54:33.579Z</time></trkpt><trkpt lat="38.170985" lon="15.651925"><ele>25.999999999999996</ele><time>2026-04-04T07:54:34.579Z</time></trkpt><trkpt lat="38.1710833" lon="15.651935"><ele>26.0</ele><time>2026-04-04T07:54:35.579Z</time></trkpt><trkpt lat="38.1711883" lon="15.65196"><ele>26.0</ele><time>2026-04-04T07:54:36.579Z</time></trkpt><trkpt lat="38.1712817" lon="15.65202"><ele>26.0</ele><time>2026-04-04T07:54:37.58Z</time></trkpt><trkpt lat="38.171375" lon="15.6520917"><ele>26.0</ele><time>2026-04-04T07:54:38.579Z</time></trkpt><trkpt lat="38.171465" lon="15.6521783"><ele>26.0</ele><time>2026-04-04T07:54:39.579Z</time></trkpt><trkpt lat="38.1715367" lon="15.65229"><ele>26.0</ele><time>2026-04-04T07:54:40.579Z</time></trkpt><trkpt lat="38.1715933" lon="15.6524133"><ele>26.5</ele><time>2026-04-04T07:54:41.579Z</time></trkpt><trkpt lat="38.171645" lon="15.6525367"><ele>27.0</ele><time>2026-04-04T07:54:42.579Z</time></trkpt><trkpt lat="38.171695" lon="15.6526683"><ele>27.5</ele><time>2026-04-04T07:54:43.579Z</time></trkpt><trkpt lat="38.1717333" lon="15.6528117"><ele>28.0</ele><time>2026-04-04T07:54:44.579Z</time></trkpt><trkpt lat="38.171765" lon="15.6529467"><ele>28.166666666666668</ele><time>2026-04-04T07:54:45.579Z</time></trkpt><trkpt lat="38.1718017" lon="15.6530483"><ele>28.333333333333336</ele><time>2026-04-04T07:54:46.579Z</time></trkpt><trkpt lat="38.171835" lon="15.6531383"><ele>28.5</ele><time>2026-04-04T07:54:47.579Z</time></trkpt><trkpt lat="38.1718583" lon="15.6532267"><ele>28.666666666666664</ele><time>2026-04-04T07:54:48.579Z</time></trkpt><trkpt lat="38.1718817" lon="15.6533233"><ele>28.833333333333332</ele><time>2026-04-04T07:54:49.579Z</time></trkpt><trkpt lat="38.1719117" lon="15.6534333"><ele>29.0</ele><time>2026-04-04T07:54:50.58Z</time></trkpt><trkpt lat="38.1719483" lon="15.65356"><ele>29.2</ele><time>2026-04-04T07:54:51.58Z</time></trkpt><trkpt lat="38.17198" lon="15.6537"><ele>29.4</ele><time>2026-04-04T07:54:52.579Z</time></trkpt><trkpt lat="38.1720017" lon="15.6538383"><ele>29.6</ele><time>2026-04-04T07:54:53.58Z</time></trkpt><trkpt lat="38.172" lon="15.6539817"><ele>29.8</ele><time>2026-04-04T07:54:54.579Z</time></trkpt><trkpt lat="38.171975" lon="15.6541183"><ele>30.0</ele><time>2026-04-04T07:54:55.579Z</time></trkpt><trkpt lat="38.1719283" lon="15.6542533"><ele>30.0</ele><time>2026-04-04T07:54:56.58Z</time></trkpt><trkpt lat="38.1718633" lon="15.6544017"><ele>30.0</ele><time>2026-04-04T07:54:57.579Z</time></trkpt><trkpt lat="38.171775" lon="15.6545367"><ele>30.0</ele><time>2026-04-04T07:54:58.579Z</time></trkpt><trkpt lat="38.171675" lon="15.6546467"><ele>30.0</ele><time>2026-04-04T07:54:59.579Z</time></trkpt><trkpt lat="38.17156" lon="15.65473"><ele>30.666666666666664</ele><time>2026-04-04T07:55:00.579Z</time></trkpt><trkpt lat="38.1714317" lon="15.6547967"><ele>31.333333333333332</ele><time>2026-04-04T07:55:01.579Z</time></trkpt><trkpt lat="38.1712717" lon="15.6548767"><ele>32.0</ele><time>2026-04-04T07:55:02.579Z</time></trkpt><trkpt lat="38.1711017" lon="15.6549633"><ele>32.0</ele><time>2026-04-04T07:55:03.579Z</time></trkpt><trkpt lat="38.1709183" lon="15.6550583"><ele>32.0</ele><time>2026-04-04T07:55:04.579Z</time></trkpt><trkpt lat="38.1707267" lon="15.655165"><ele>32.0</ele><time>2026-04-04T07:55:05.579Z</time></trkpt><trkpt lat="38.1705217" lon="15.6552717"><ele>33.5</ele><time>2026-04-04T07:55:06.579Z</time></trkpt><trkpt lat="38.170305" lon="15.6553917"><ele>35.0</ele><time>2026-04-04T07:55:07.579Z</time></trkpt><trkpt lat="38.1700733" lon="15.655525"><ele>33.0</ele><time>2026-04-04T07:55:08.579Z</time></trkpt><trkpt lat="38.1698217" lon="15.65566"><ele>31.0</ele><time>2026-04-04T07:55:09.579Z</time></trkpt><trkpt lat="38.1695633" lon="15.655805"><ele>31.0</ele><time>2026-04-04T07:55:10.579Z</time></trkpt><trkpt lat="38.1693033" lon="15.655945"><ele>31.0</ele><time>2026-04-04T07:55:11.579Z</time></trkpt><trkpt lat="38.1690433" lon="15.65609"><ele>31.5</ele><time>2026-04-04T07:55:12.579Z</time></trkpt><trkpt lat="38.168775" lon="15.656245"><ele>32.0</ele><time>2026-04-04T07:55:13.58Z</time></trkpt><trkpt lat="38.1685067" lon="15.65641"><ele>32.0</ele><time>2026-04-04T07:55:14.58Z</time></trkpt><trkpt lat="38.1682367" lon="15.656595"><ele>32.0</ele><time>2026-04-04T07:55:15.579Z</time></trkpt><trkpt lat="38.16797" lon="15.6567883"><ele>31.5</ele><time>2026-04-04T07:55:16.579Z</time></trkpt><trkpt lat="38.167715" lon="15.656985"><ele>31.0</ele><time>2026-04-04T07:55:17.579Z</time></trkpt><trkpt lat="38.1674767" lon="15.65719"><ele>29.5</ele><time>2026-04-04T07:55:18.58Z</time></trkpt><trkpt lat="38.16725" lon="15.6573883"><ele>28.0</ele><time>2026-04-04T07:55:19.58Z</time></trkpt><trkpt lat="38.16704" lon="15.65759"><ele>29.5</ele><time>2026-04-04T07:55:20.579Z</time></trkpt><trkpt lat="38.1668267" lon="15.6578"><ele>31.0</ele><time>2026-04-04T07:55:21.58Z</time></trkpt><trkpt lat="38.16661" lon="15.6580233"><ele>30.0</ele><time>2026-04-04T07:55:22.579Z</time></trkpt><trkpt lat="38.16638" lon="15.65824"><ele>29.0</ele><time>2026-04-04T07:55:23.579Z</time></trkpt><trkpt lat="38.1661483" lon="15.65846"><ele>29.0</ele><time>2026-04-04T07:55:24.579Z</time></trkpt><trkpt lat="38.16591" lon="15.6586817"><ele>29.0</ele><time>2026-04-04T07:55:25.58Z</time></trkpt><trkpt lat="38.1656667" lon="15.6589133"><ele>29.0</ele><time>2026-04-04T07:55:26.579Z</time></trkpt><trkpt lat="38.1654317" lon="15.659135"><ele>29.0</ele><time>2026-04-04T07:55:27.58Z</time></trkpt><trkpt lat="38.1651967" lon="15.6593583"><ele>30.0</ele><time>2026-04-04T07:55:28.579Z</time></trkpt><trkpt lat="38.1649633" lon="15.65959"><ele>31.0</ele><time>2026-04-04T07:55:29.58Z</time></trkpt><trkpt lat="38.164725" lon="15.659815"><ele>31.0</ele><time>2026-04-04T07:55:30.579Z</time></trkpt><trkpt lat="38.16448" lon="15.6600433"><ele>31.0</ele><time>2026-04-04T07:55:31.579Z</time></trkpt><trkpt lat="38.1642317" lon="15.66028"><ele>34.5</ele><time>2026-04-04T07:55:32.579Z</time></trkpt><trkpt lat="38.1639783" lon="15.660515"><ele>38.0</ele><time>2026-04-04T07:55:33.579Z</time></trkpt><trkpt lat="38.163735" lon="15.6607483"><ele>38.0</ele><time>2026-04-04T07:55:34.579Z</time></trkpt><trkpt lat="38.1634883" lon="15.6609917"><ele>38.0</ele><time>2026-04-04T07:55:35.579Z</time></trkpt><trkpt lat="38.163245" lon="15.6612233"><ele>40.5</ele><time>2026-04-04T07:55:36.579Z</time></trkpt><trkpt lat="38.1629967" lon="15.66146"><ele>43.0</ele><time>2026-04-04T07:55:37.579Z</time></trkpt><trkpt lat="38.1627533" lon="15.6616883"><ele>43.0</ele><time>2026-04-04T07:55:38.579Z</time></trkpt><trkpt lat="38.162515" lon="15.6619083"><ele>43.0</ele><time>2026-04-04T07:55:39.579Z</time></trkpt><trkpt lat="38.16228" lon="15.6621483"><ele>45.5</ele><time>2026-04-04T07:55:40.58Z</time></trkpt><trkpt lat="38.1620383" lon="15.6623783"><ele>48.0</ele><time>2026-04-04T07:55:41.579Z</time></trkpt><trkpt lat="38.1618017" lon="15.6626117"><ele>49.5</ele><time>2026-04-04T07:55:42.579Z</time></trkpt><trkpt lat="38.1615733" lon="15.6628283"><ele>51.0</ele><time>2026-04-04T07:55:43.579Z</time></trkpt><trkpt lat="38.16134" lon="15.66305"><ele>51.0</ele><time>2026-04-04T07:55:44.579Z</time></trkpt><trkpt lat="38.1611233" lon="15.66325"><ele>51.0</ele><time>2026-04-04T07:55:45.579Z</time></trkpt><trkpt lat="38.1609233" lon="15.66344"><ele>52.5</ele><time>2026-04-04T07:55:46.579Z</time></trkpt><trkpt lat="38.1607167" lon="15.6636383"><ele>54.0</ele><time>2026-04-04T07:55:47.579Z</time></trkpt><trkpt lat="38.160505" lon="15.66384"><ele>54.0</ele><time>2026-04-04T07:55:48.579Z</time></trkpt><trkpt lat="38.160285" lon="15.6640617"><ele>54.0</ele><time>2026-04-04T07:55:49.579Z</time></trkpt><trkpt lat="38.1600517" lon="15.6642967"><ele>53.0</ele><time>2026-04-04T07:55:50.579Z</time></trkpt><trkpt lat="38.15982" lon="15.66452"><ele>52.0</ele><time>2026-04-04T07:55:51.579Z</time></trkpt><trkpt lat="38.1595867" lon="15.6647433"><ele>52.0</ele><time>2026-04-04T07:55:52.579Z</time></trkpt><trkpt lat="38.1593433" lon="15.6649767"><ele>52.0</ele><time>2026-04-04T07:55:53.58Z</time></trkpt><trkpt lat="38.1590817" lon="15.665215"><ele>53.5</ele><time>2026-04-04T07:55:54.579Z</time></trkpt><trkpt lat="38.1588133" lon="15.66546"><ele>55.0</ele><time>2026-04-04T07:55:55.579Z</time></trkpt><trkpt lat="38.1585583" lon="15.6656883"><ele>55.0</ele><time>2026-04-04T07:55:56.579Z</time></trkpt><trkpt lat="38.158295" lon="15.6659067"><ele>55.0</ele><time>2026-04-04T07:55:57.579Z</time></trkpt><trkpt lat="38.1580167" lon="15.6661083"><ele>57.0</ele><time>2026-04-04T07:55:58.579Z</time></trkpt><trkpt lat="38.1577333" lon="15.666275"><ele>59.0</ele><time>2026-04-04T07:55:59.579Z</time></trkpt><trkpt lat="38.1574567" lon="15.6664233"><ele>58.5</ele><time>2026-04-04T07:56:00.58Z</time></trkpt><trkpt lat="38.1571767" lon="15.666555"><ele>58.0</ele><time>2026-04-04T07:56:01.579Z</time></trkpt><trkpt lat="38.1568833" lon="15.6666633"><ele>58.0</ele><time>2026-04-04T07:56:02.579Z</time></trkpt><trkpt lat="38.15658" lon="15.6667717"><ele>58.0</ele><time>2026-04-04T07:56:03.579Z</time></trkpt><trkpt lat="38.1562783" lon="15.666865"><ele>59.5</ele><time>2026-04-04T07:56:04.58Z</time></trkpt><trkpt lat="38.1559683" lon="15.66696"><ele>61.0</ele><time>2026-04-04T07:56:05.579Z</time></trkpt><trkpt lat="38.1556633" lon="15.6670617"><ele>63.0</ele><time>2026-04-04T07:56:06.579Z</time></trkpt><trkpt lat="38.1553533" lon="15.6671633"><ele>65.0</ele><time>2026-04-04T07:56:07.579Z</time></trkpt><trkpt lat="38.15504" lon="15.6672633"><ele>64.0</ele><time>2026-04-04T07:56:08.579Z</time></trkpt><trkpt lat="38.1547367" lon="15.6673667"><ele>63.0</ele><time>2026-04-04T07:56:09.579Z</time></trkpt><trkpt lat="38.1544367" lon="15.6674667"><ele>63.0</ele><time>2026-04-04T07:56:10.579Z</time></trkpt><trkpt lat="38.1541333" lon="15.6675617"><ele>63.0</ele><time>2026-04-04T07:56:11.579Z</time></trkpt><trkpt lat="38.1538267" lon="15.6676617"><ele>63.5</ele><time>2026-04-04T07:56:12.579Z</time></trkpt><trkpt lat="38.1535133" lon="15.6677533"><ele>64.0</ele><time>2026-04-04T07:56:13.579Z</time></trkpt><trkpt lat="38.1532117" lon="15.66785"><ele>71.0</ele><time>2026-04-04T07:56:14.58Z</time></trkpt><trkpt lat="38.1529117" lon="15.6679483"><ele>78.0</ele><time>2026-04-04T07:56:15.579Z</time></trkpt><trkpt lat="38.1526117" lon="15.668035"><ele>77.5</ele><time>2026-04-04T07:56:16.579Z</time></trkpt><trkpt lat="38.1523017" lon="15.668125"><ele>77.0</ele><time>2026-04-04T07:56:17.579Z</time></trkpt><trkpt lat="38.1519917" lon="15.66819"><ele>77.0</ele><time>2026-04-04T07:56:18.579Z</time></trkpt><trkpt lat="38.1516767" lon="15.668245"><ele>77.0</ele><time>2026-04-04T07:56:19.579Z</time></trkpt><trkpt lat="38.1513617" lon="15.6682883"><ele>77.0</ele><time>2026-04-04T07:56:20.579Z</time></trkpt><trkpt lat="38.1510483" lon="15.6683167"><ele>77.0</ele><time>2026-04-04T07:56:21.579Z</time></trkpt><trkpt lat="38.1507317" lon="15.6683317"><ele>76.0</ele><time>2026-04-04T07:56:22.579Z</time></trkpt><trkpt lat="38.15042" lon="15.6683233"><ele>75.0</ele><time>2026-04-04T07:56:23.579Z</time></trkpt><trkpt lat="38.15012" lon="15.66831"><ele>80.0</ele><time>2026-04-04T07:56:24.579Z</time></trkpt><trkpt lat="38.14982" lon="15.668285"><ele>85.0</ele><time>2026-04-04T07:56:25.579Z</time></trkpt><trkpt lat="38.1495133" lon="15.6682467"><ele>85.0</ele><time>2026-04-04T07:56:26.579Z</time></trkpt><trkpt lat="38.1492017" lon="15.6682067"><ele>85.0</ele><time>2026-04-04T07:56:27.579Z</time></trkpt><trkpt lat="38.1488917" lon="15.6681717"><ele>88.0</ele><time>2026-04-04T07:56:28.58Z</time></trkpt><trkpt lat="38.1485817" lon="15.6681233"><ele>91.0</ele><time>2026-04-04T07:56:29.58Z</time></trkpt><trkpt lat="38.1482683" lon="15.6680717"><ele>94.5</ele><time>2026-04-04T07:56:30.579Z</time></trkpt><trkpt lat="38.1479533" lon="15.668025"><ele>98.0</ele><time>2026-04-04T07:56:31.579Z</time></trkpt><trkpt lat="38.147645" lon="15.667985"><ele>103.5</ele><time>2026-04-04T07:56:32.579Z</time></trkpt><trkpt lat="38.14734" lon="15.66795"><ele>109.0</ele><time>2026-04-04T07:56:33.579Z</time></trkpt><trkpt lat="38.1470467" lon="15.6679183"><ele>109.0</ele><time>2026-04-04T07:56:34.579Z</time></trkpt><trkpt lat="38.1467583" lon="15.66789"><ele>109.0</ele><time>2026-04-04T07:56:35.579Z</time></trkpt><trkpt lat="38.1464817" lon="15.6678583"><ele>111.5</ele><time>2026-04-04T07:56:36.579Z</time></trkpt><trkpt lat="38.1462" lon="15.6678233"><ele>114.0</ele><time>2026-04-04T07:56:37.579Z</time></trkpt><trkpt lat="38.14592" lon="15.6677917"><ele>88.0</ele><time>2026-04-04T07:56:38.579Z</time></trkpt><trkpt lat="38.1451333" lon="15.667625"><ele>88.0</ele><time>2026-04-04T07:56:41.579Z</time></trkpt><trkpt lat="38.1450217" lon="15.6674367"><ele>88.0</ele><time>2026-04-04T07:56:42.579Z</time></trkpt><trkpt lat="38.14487" lon="15.66728"><ele>88.0</ele><time>2026-04-04T07:56:43.579Z</time></trkpt><trkpt lat="38.1446833" lon="15.6670767"><ele>78.5</ele><time>2026-04-04T07:56:44.579Z</time></trkpt><trkpt lat="38.144485" lon="15.6668483"><ele>69.0</ele><time>2026-04-04T07:56:45.58Z</time></trkpt><trkpt lat="38.144295" lon="15.6666"><ele>69.0</ele><time>2026-04-04T07:56:46.579Z</time></trkpt><trkpt lat="38.1441183" lon="15.666335"><ele>69.0</ele><time>2026-04-04T07:56:47.579Z</time></trkpt><trkpt lat="38.1439483" lon="15.6660517"><ele>64.5</ele><time>2026-04-04T07:56:48.579Z</time></trkpt><trkpt lat="38.1437867" lon="15.6657583"><ele>60.0</ele><time>2026-04-04T07:56:49.579Z</time></trkpt><trkpt lat="38.1436183" lon="15.66545"><ele>62.5</ele><time>2026-04-04T07:56:50.579Z</time></trkpt><trkpt lat="38.1434483" lon="15.6651483"><ele>65.0</ele><time>2026-04-04T07:56:51.579Z</time></trkpt><trkpt lat="38.14327" lon="15.6648433"><ele>70.5</ele><time>2026-04-04T07:56:52.58Z</time></trkpt><trkpt lat="38.143095" lon="15.6645617"><ele>76.0</ele><time>2026-04-04T07:56:53.579Z</time></trkpt><trkpt lat="38.142915" lon="15.66428"><ele>78.0</ele><time>2026-04-04T07:56:54.579Z</time></trkpt><trkpt lat="38.142725" lon="15.6640033"><ele>80.0</ele><time>2026-04-04T07:56:55.579Z</time></trkpt><trkpt lat="38.1425283" lon="15.6637383"><ele>82.0</ele><time>2026-04-04T07:56:56.579Z</time></trkpt><trkpt lat="38.1423283" lon="15.6634733"><ele>84.0</ele><time>2026-04-04T07:56:57.579Z</time></trkpt><trkpt lat="38.1421083" lon="15.6632083"><ele>84.0</ele><time>2026-04-04T07:56:58.58Z</time></trkpt><trkpt lat="38.1418683" lon="15.6629667"><ele>84.0</ele><time>2026-04-04T07:56:59.58Z</time></trkpt><trkpt lat="38.14162" lon="15.66272"><ele>79.5</ele><time>2026-04-04T07:57:00.579Z</time></trkpt><trkpt lat="38.141365" lon="15.6625067"><ele>75.0</ele><time>2026-04-04T07:57:01.579Z</time></trkpt><trkpt lat="38.1410917" lon="15.6622933"><ele>75.0</ele><time>2026-04-04T07:57:02.579Z</time></trkpt><trkpt lat="38.1407983" lon="15.6620917"><ele>75.0</ele><time>2026-04-04T07:57:03.579Z</time></trkpt><trkpt lat="38.1404917" lon="15.6619133"><ele>74.5</ele><time>2026-04-04T07:57:04.58Z</time></trkpt><trkpt lat="38.140185" lon="15.6617367"><ele>74.0</ele><time>2026-04-04T07:57:05.579Z</time></trkpt><trkpt lat="38.1398767" lon="15.66156"><ele>72.0</ele><time>2026-04-04T07:57:06.579Z</time></trkpt><trkpt lat="38.1395567" lon="15.6613833"><ele>70.0</ele><time>2026-04-04T07:57:07.579Z</time></trkpt><trkpt lat="38.139235" lon="15.661215"><ele>68.0</ele><time>2026-04-04T07:57:08.58Z</time></trkpt><trkpt lat="38.1389183" lon="15.6610533"><ele>66.0</ele><time>2026-04-04T07:57:09.58Z</time></trkpt><trkpt lat="38.13861" lon="15.660885"><ele>66.0</ele><time>2026-04-04T07:57:10.58Z</time></trkpt><trkpt lat="38.1382967" lon="15.6607217"><ele>66.0</ele><time>2026-04-04T07:57:11.579Z</time></trkpt><trkpt lat="38.138" lon="15.6605483"><ele>63.5</ele><time>2026-04-04T07:57:12.58Z</time></trkpt><trkpt lat="38.1377233" lon="15.6603917"><ele>61.0</ele><time>2026-04-04T07:57:13.579Z</time></trkpt><trkpt lat="38.13745" lon="15.6602467"><ele>64.5</ele><time>2026-04-04T07:57:14.579Z</time></trkpt><trkpt lat="38.137175" lon="15.6600983"><ele>68.0</ele><time>2026-04-04T07:57:15.58Z</time></trkpt><trkpt lat="38.1368983" lon="15.6599517"><ele>68.0</ele><time>2026-04-04T07:57:16.58Z</time></trkpt><trkpt lat="38.1366183" lon="15.6597983"><ele>68.0</ele><time>2026-04-04T07:57:17.579Z</time></trkpt><trkpt lat="38.13635" lon="15.6596533"><ele>69.0</ele><time>2026-04-04T07:57:18.579Z</time></trkpt><trkpt lat="38.1360983" lon="15.65952"><ele>70.0</ele><time>2026-04-04T07:57:19.58Z</time></trkpt><trkpt lat="38.135855" lon="15.6593917"><ele>60.0</ele><time>2026-04-04T07:57:20.58Z</time></trkpt><trkpt lat="38.135615" lon="15.65927"><ele>50.0</ele><time>2026-04-04T07:57:21.579Z</time></trkpt><trkpt lat="38.1353517" lon="15.6591433"><ele>50.0</ele><time>2026-04-04T07:57:22.579Z</time></trkpt><trkpt lat="38.1350483" lon="15.658955"><ele>50.0</ele><time>2026-04-04T07:57:23.579Z</time></trkpt><trkpt lat="38.134745" lon="15.6587683"><ele>41.0</ele><time>2026-04-04T07:57:24.579Z</time></trkpt><trkpt lat="38.1344383" lon="15.6586083"><ele>32.0</ele><time>2026-04-04T07:57:25.579Z</time></trkpt><trkpt lat="38.1341383" lon="15.6584383"><ele>46.0</ele><time>2026-04-04T07:57:26.58Z</time></trkpt><trkpt lat="38.1338567" lon="15.65829"><ele>60.0</ele><time>2026-04-04T07:57:27.579Z</time></trkpt><trkpt lat="38.1336" lon="15.65814"><ele>60.0</ele><time>2026-04-04T07:57:28.579Z</time></trkpt><trkpt lat="38.133365" lon="15.6579967"><ele>60.0</ele><time>2026-04-04T07:57:29.58Z</time></trkpt><trkpt lat="38.1331583" lon="15.6578433"><ele>56.33333333333333</ele><time>2026-04-04T07:57:30.579Z</time></trkpt><trkpt lat="38.1329667" lon="15.657695"><ele>52.666666666666664</ele><time>2026-04-04T07:57:31.579Z</time></trkpt><trkpt lat="38.132795" lon="15.65754"><ele>49.0</ele><time>2026-04-04T07:57:32.579Z</time></trkpt><trkpt lat="38.1326417" lon="15.65738"><ele>49.0</ele><time>2026-04-04T07:57:33.579Z</time></trkpt><trkpt lat="38.132505" lon="15.657225"><ele>49.0</ele><time>2026-04-04T07:57:34.579Z</time></trkpt><trkpt lat="38.1323667" lon="15.6570917"><ele>49.0</ele><time>2026-04-04T07:57:35.579Z</time></trkpt><trkpt lat="38.1322267" lon="15.6570117"><ele>49.75</ele><time>2026-04-04T07:57:36.579Z</time></trkpt><trkpt lat="38.132085" lon="15.6570033"><ele>50.5</ele><time>2026-04-04T07:57:37.58Z</time></trkpt><trkpt lat="38.131935" lon="15.6570383"><ele>51.25</ele><time>2026-04-04T07:57:38.58Z</time></trkpt><trkpt lat="38.1317967" lon="15.6571183"><ele>52.0</ele><time>2026-04-04T07:57:39.579Z</time></trkpt><trkpt lat="38.13165" lon="15.6572217"><ele>55.666666666666664</ele><time>2026-04-04T07:57:40.579Z</time></trkpt><trkpt lat="38.1314767" lon="15.65735"><ele>59.33333333333333</ele><time>2026-04-04T07:57:41.579Z</time></trkpt><trkpt lat="38.1312983" lon="15.6574733"><ele>63.0</ele><time>2026-04-04T07:57:42.579Z</time></trkpt><trkpt lat="38.1311267" lon="15.6575833"><ele>63.0</ele><time>2026-04-04T07:57:43.579Z</time></trkpt><trkpt lat="38.13095" lon="15.6576933"><ele>63.0</ele><time>2026-04-04T07:57:44.579Z</time></trkpt><trkpt lat="38.13076" lon="15.6578133"><ele>63.0</ele><time>2026-04-04T07:57:45.579Z</time></trkpt><trkpt lat="38.1305533" lon="15.6579417"><ele>68.0</ele><time>2026-04-04T07:57:46.579Z</time></trkpt><trkpt lat="38.1303217" lon="15.6580917"><ele>73.0</ele><time>2026-04-04T07:57:47.579Z</time></trkpt><trkpt lat="38.130065" lon="15.6582433"><ele>71.0</ele><time>2026-04-04T07:57:48.579Z</time></trkpt><trkpt lat="38.1298133" lon="15.6584033"><ele>69.0</ele><time>2026-04-04T07:57:49.58Z</time></trkpt><trkpt lat="38.12956" lon="15.658585"><ele>72.5</ele><time>2026-04-04T07:57:50.579Z</time></trkpt><trkpt lat="38.1292967" lon="15.6587817"><ele>76.0</ele><time>2026-04-04T07:57:51.579Z</time></trkpt><trkpt lat="38.1290183" lon="15.6589667"><ele>76.0</ele><time>2026-04-04T07:57:52.579Z</time></trkpt><trkpt lat="38.1287317" lon="15.6591633"><ele>76.0</ele><time>2026-04-04T07:57:53.579Z</time></trkpt><trkpt lat="38.1284467" lon="15.6593567"><ele>79.0</ele><time>2026-04-04T07:57:54.579Z</time></trkpt><trkpt lat="38.1281483" lon="15.6595433"><ele>82.0</ele><time>2026-04-04T07:57:55.579Z</time></trkpt><trkpt lat="38.1278583" lon="15.6597333"><ele>82.0</ele><time>2026-04-04T07:57:56.58Z</time></trkpt><trkpt lat="38.1275667" lon="15.6599183"><ele>82.0</ele><time>2026-04-04T07:57:57.579Z</time></trkpt><trkpt lat="38.127275" lon="15.660115"><ele>80.0</ele><time>2026-04-04T07:57:58.579Z</time></trkpt><trkpt lat="38.1269917" lon="15.6603033"><ele>78.0</ele><time>2026-04-04T07:57:59.579Z</time></trkpt><trkpt lat="38.1267067" lon="15.6604967"><ele>75.0</ele><time>2026-04-04T07:58:00.579Z</time></trkpt><trkpt lat="38.1264233" lon="15.6607217"><ele>72.0</ele><time>2026-04-04T07:58:01.579Z</time></trkpt><trkpt lat="38.1261633" lon="15.66098"><ele>68.5</ele><time>2026-04-04T07:58:02.579Z</time></trkpt><trkpt lat="38.125925" lon="15.6612617"><ele>65.0</ele><time>2026-04-04T07:58:03.579Z</time></trkpt><trkpt lat="38.1257017" lon="15.661565"><ele>65.0</ele><time>2026-04-04T07:58:04.579Z</time></trkpt><trkpt lat="38.125505" lon="15.6618833"><ele>65.0</ele><time>2026-04-04T07:58:05.579Z</time></trkpt><trkpt lat="38.125315" lon="15.6621983"><ele>69.5</ele><time>2026-04-04T07:58:06.579Z</time></trkpt><trkpt lat="38.12513" lon="15.662495"><ele>74.0</ele><time>2026-04-04T07:58:07.58Z</time></trkpt><trkpt lat="38.1249433" lon="15.6627667"><ele>74.0</ele><time>2026-04-04T07:58:08.579Z</time></trkpt><trkpt lat="38.124745" lon="15.663"><ele>74.0</ele><time>2026-04-04T07:58:09.579Z</time></trkpt><trkpt lat="38.124525" lon="15.6632083"><ele>74.0</ele><time>2026-04-04T07:58:10.579Z</time></trkpt><trkpt lat="38.12429" lon="15.6633917"><ele>74.0</ele><time>2026-04-04T07:58:11.58Z</time></trkpt><trkpt lat="38.1240467" lon="15.6635467"><ele>67.5</ele><time>2026-04-04T07:58:12.579Z</time></trkpt><trkpt lat="38.123795" lon="15.6636717"><ele>61.0</ele><time>2026-04-04T07:58:13.579Z</time></trkpt><trkpt lat="38.1235283" lon="15.6637783"><ele>61.0</ele><time>2026-04-04T07:58:14.579Z</time></trkpt><trkpt lat="38.1232533" lon="15.6638583"><ele>61.0</ele><time>2026-04-04T07:58:15.579Z</time></trkpt><trkpt lat="38.1229817" lon="15.6639033"><ele>61.0</ele><time>2026-04-04T07:58:16.579Z</time></trkpt><trkpt lat="38.1227067" lon="15.663925"><ele>61.0</ele><time>2026-04-04T07:58:17.579Z</time></trkpt><trkpt lat="38.1224367" lon="15.6639083"><ele>68.5</ele><time>2026-04-04T07:58:18.579Z</time></trkpt><trkpt lat="38.1221683" lon="15.6638633"><ele>76.0</ele><time>2026-04-04T07:58:19.579Z</time></trkpt><trkpt lat="38.1219083" lon="15.6637883"><ele>76.0</ele><time>2026-04-04T07:58:20.579Z</time></trkpt><trkpt lat="38.1216433" lon="15.6636783"><ele>76.0</ele><time>2026-04-04T07:58:21.579Z</time></trkpt><trkpt lat="38.1213767" lon="15.663535"><ele>86.0</ele><time>2026-04-04T07:58:22.579Z</time></trkpt><trkpt lat="38.1211133" lon="15.6633933"><ele>96.0</ele><time>2026-04-04T07:58:23.58Z</time></trkpt><trkpt lat="38.1208683" lon="15.663265"><ele>95.5</ele><time>2026-04-04T07:58:24.579Z</time></trkpt><trkpt lat="38.1206417" lon="15.663135"><ele>95.0</ele><time>2026-04-04T07:58:25.579Z</time></trkpt><trkpt lat="38.1204067" lon="15.6630283"><ele>95.0</ele><time>2026-04-04T07:58:26.579Z</time></trkpt><trkpt lat="38.1201717" lon="15.662925"><ele>95.0</ele><time>2026-04-04T07:58:27.579Z</time></trkpt><trkpt lat="38.1199317" lon="15.6628383"><ele>90.0</ele><time>2026-04-04T07:58:28.579Z</time></trkpt><trkpt lat="38.1196883" lon="15.6627617"><ele>85.0</ele><time>2026-04-04T07:58:29.58Z</time></trkpt><trkpt lat="38.1194283" lon="15.6627"><ele>85.0</ele><time>2026-04-04T07:58:30.579Z</time></trkpt><trkpt lat="38.1191617" lon="15.6626567"><ele>85.0</ele><time>2026-04-04T07:58:31.58Z</time></trkpt><trkpt lat="38.1188833" lon="15.6626283"><ele>86.0</ele><time>2026-04-04T07:58:32.579Z</time></trkpt><trkpt lat="38.118605" lon="15.6626067"><ele>87.0</ele><time>2026-04-04T07:58:33.579Z</time></trkpt><trkpt lat="38.118345" lon="15.6626117"><ele>86.0</ele><time>2026-04-04T07:58:34.58Z</time></trkpt><trkpt lat="38.11809" lon="15.66263"><ele>85.0</ele><time>2026-04-04T07:58:35.579Z</time></trkpt><trkpt lat="38.11783" lon="15.66265"><ele>85.0</ele><time>2026-04-04T07:58:36.579Z</time></trkpt><trkpt lat="38.1175717" lon="15.6626817"><ele>85.0</ele><time>2026-04-04T07:58:37.58Z</time></trkpt><trkpt lat="38.1173117" lon="15.6626967"><ele>86.0</ele><time>2026-04-04T07:58:38.579Z</time></trkpt><trkpt lat="38.1170433" lon="15.6627233"><ele>87.0</ele><time>2026-04-04T07:58:39.58Z</time></trkpt><trkpt lat="38.116765" lon="15.6627333"><ele>87.0</ele><time>2026-04-04T07:58:40.579Z</time></trkpt><trkpt lat="38.1164583" lon="15.6627183"><ele>87.0</ele><time>2026-04-04T07:58:41.579Z</time></trkpt><trkpt lat="38.116155" lon="15.6627"><ele>87.0</ele><time>2026-04-04T07:58:42.579Z</time></trkpt><trkpt lat="38.1158417" lon="15.6626483"><ele>87.0</ele><time>2026-04-04T07:58:43.579Z</time></trkpt><trkpt lat="38.115525" lon="15.662585"><ele>85.5</ele><time>2026-04-04T07:58:44.579Z</time></trkpt><trkpt lat="38.1151967" lon="15.6625133"><ele>84.0</ele><time>2026-04-04T07:58:45.579Z</time></trkpt><trkpt lat="38.1148633" lon="15.662435"><ele>88.5</ele><time>2026-04-04T07:58:46.579Z</time></trkpt><trkpt lat="38.1145267" lon="15.6623617"><ele>93.0</ele><time>2026-04-04T07:58:47.579Z</time></trkpt><trkpt lat="38.1141883" lon="15.6622867"><ele>93.5</ele><time>2026-04-04T07:58:48.579Z</time></trkpt><trkpt lat="38.113845" lon="15.6622067"><ele>94.0</ele><time>2026-04-04T07:58:49.579Z</time></trkpt><trkpt lat="38.1134833" lon="15.6621283"><ele>94.5</ele><time>2026-04-04T07:58:50.579Z</time></trkpt><trkpt lat="38.1131283" lon="15.6620383"><ele>95.0</ele><time>2026-04-04T07:58:51.579Z</time></trkpt><trkpt lat="38.1127717" lon="15.6619283"><ele>96.5</ele><time>2026-04-04T07:58:52.579Z</time></trkpt><trkpt lat="38.1124117" lon="15.6618267"><ele>98.0</ele><time>2026-04-04T07:58:53.579Z</time></trkpt><trkpt lat="38.112055" lon="15.6617217"><ele>101.5</ele><time>2026-04-04T07:58:54.58Z</time></trkpt><trkpt lat="38.11169" lon="15.6616183"><ele>105.0</ele><time>2026-04-04T07:58:55.579Z</time></trkpt><trkpt lat="38.1113467" lon="15.6615183"><ele>107.5</ele><time>2026-04-04T07:58:56.58Z</time></trkpt><trkpt lat="38.1110267" lon="15.6614217"><ele>110.0</ele><time>2026-04-04T07:58:57.579Z</time></trkpt><trkpt lat="38.11073" lon="15.6613283"><ele>112.5</ele><time>2026-04-04T07:58:58.579Z</time></trkpt><trkpt lat="38.1104583" lon="15.661235"><ele>115.0</ele><time>2026-04-04T07:58:59.579Z</time></trkpt><trkpt lat="38.1101733" lon="15.6611417"><ele>113.5</ele><time>2026-04-04T07:59:00.579Z</time></trkpt><trkpt lat="38.109885" lon="15.66105"><ele>112.0</ele><time>2026-04-04T07:59:01.579Z</time></trkpt><trkpt lat="38.1095833" lon="15.6609517"><ele>112.0</ele><time>2026-04-04T07:59:02.579Z</time></trkpt><trkpt lat="38.1092833" lon="15.6608533"><ele>112.0</ele><time>2026-04-04T07:59:03.579Z</time></trkpt><trkpt lat="38.1089767" lon="15.6607583"><ele>118.0</ele><time>2026-04-04T07:59:04.58Z</time></trkpt><trkpt lat="38.1086783" lon="15.6606583"><ele>124.0</ele><time>2026-04-04T07:59:05.579Z</time></trkpt><trkpt lat="38.1083833" lon="15.6605567"><ele>85.0</ele><time>2026-04-04T07:59:06.579Z</time></trkpt><trkpt lat="38.1053233" lon="15.6597367"><ele>85.0</ele><time>2026-04-04T07:59:16.58Z</time></trkpt><trkpt lat="38.105065" lon="15.6596633"><ele>85.0</ele><time>2026-04-04T07:59:17.58Z</time></trkpt><trkpt lat="38.1047967" lon="15.659635"><ele>79.5</ele><time>2026-04-04T07:59:18.58Z</time></trkpt><trkpt lat="38.104525" lon="15.659635"><ele>74.0</ele><time>2026-04-04T07:59:19.58Z</time></trkpt><trkpt lat="38.1042633" lon="15.6596433"><ele>70.0</ele><time>2026-04-04T07:59:20.58Z</time></trkpt><trkpt lat="38.1040033" lon="15.6596433"><ele>66.0</ele><time>2026-04-04T07:59:21.58Z</time></trkpt><trkpt lat="38.1037317" lon="15.6596483"><ele>66.0</ele><time>2026-04-04T07:59:22.58Z</time></trkpt><trkpt lat="38.10346" lon="15.6596567"><ele>66.0</ele><time>2026-04-04T07:59:23.58Z</time></trkpt><trkpt lat="38.103175" lon="15.6596567"><ele>64.5</ele><time>2026-04-04T07:59:24.58Z</time></trkpt><trkpt lat="38.1028867" lon="15.659645"><ele>63.0</ele><time>2026-04-04T07:59:25.58Z</time></trkpt><trkpt lat="38.1025967" lon="15.6596383"><ele>64.0</ele><time>2026-04-04T07:59:26.581Z</time></trkpt><trkpt lat="38.10231" lon="15.6596333"><ele>65.0</ele><time>2026-04-04T07:59:27.581Z</time></trkpt><trkpt lat="38.1020167" lon="15.659635"><ele>65.0</ele><time>2026-04-04T07:59:28.581Z</time></trkpt><trkpt lat="38.1017117" lon="15.659635"><ele>65.0</ele><time>2026-04-04T07:59:29.58Z</time></trkpt><trkpt lat="38.1014033" lon="15.6596333"><ele>65.5</ele><time>2026-04-04T07:59:30.58Z</time></trkpt><trkpt lat="38.1010867" lon="15.659635"><ele>66.0</ele><time>2026-04-04T07:59:31.58Z</time></trkpt><trkpt lat="38.1007683" lon="15.6596333"><ele>68.0</ele><time>2026-04-04T07:59:32.58Z</time></trkpt><trkpt lat="38.1004433" lon="15.65963"><ele>70.0</ele><time>2026-04-04T07:59:33.58Z</time></trkpt><trkpt lat="38.1001167" lon="15.6596267"><ele>75.0</ele><time>2026-04-04T07:59:34.581Z</time></trkpt><trkpt lat="38.0997883" lon="15.659615"><ele>80.0</ele><time>2026-04-04T07:59:35.58Z</time></trkpt><trkpt lat="38.0994617" lon="15.6596067"><ele>80.0</ele><time>2026-04-04T07:59:36.58Z</time></trkpt><trkpt lat="38.0991267" lon="15.6596"><ele>80.0</ele><time>2026-04-04T07:59:37.58Z</time></trkpt><trkpt lat="38.098785" lon="15.6595867"><ele>83.5</ele><time>2026-04-04T07:59:38.581Z</time></trkpt><trkpt lat="38.0984433" lon="15.6595533"><ele>87.0</ele><time>2026-04-04T07:59:39.581Z</time></trkpt><trkpt lat="38.0981067" lon="15.659505"><ele>87.0</ele><time>2026-04-04T07:59:40.58Z</time></trkpt><trkpt lat="38.0977633" lon="15.6594317"><ele>87.0</ele><time>2026-04-04T07:59:41.58Z</time></trkpt><trkpt lat="38.097405" lon="15.6593483"><ele>91.5</ele><time>2026-04-04T07:59:42.58Z</time></trkpt><trkpt lat="38.0970517" lon="15.6592633"><ele>96.0</ele><time>2026-04-04T07:59:43.58Z</time></trkpt><trkpt lat="38.0967117" lon="15.65919"><ele>97.5</ele><time>2026-04-04T07:59:44.581Z</time></trkpt><trkpt lat="38.0963867" lon="15.659115"><ele>99.0</ele><time>2026-04-04T07:59:45.58Z</time></trkpt><trkpt lat="38.096085" lon="15.6590417"><ele>99.0</ele><time>2026-04-04T07:59:46.58Z</time></trkpt><trkpt lat="38.0957867" lon="15.6589783"><ele>99.0</ele><time>2026-04-04T07:59:47.58Z</time></trkpt><trkpt lat="38.09549" lon="15.6589483"><ele>99.5</ele><time>2026-04-04T07:59:48.58Z</time></trkpt><trkpt lat="38.0951933" lon="15.658945"><ele>100.0</ele><time>2026-04-04T07:59:49.58Z</time></trkpt><trkpt lat="38.0948917" lon="15.658965"><ele>100.0</ele><time>2026-04-04T07:59:50.581Z</time></trkpt><trkpt lat="38.0945883" lon="15.659005"><ele>100.0</ele><time>2026-04-04T07:59:51.581Z</time></trkpt><trkpt lat="38.0942867" lon="15.65907"><ele>99.5</ele><time>2026-04-04T07:59:52.58Z</time></trkpt><trkpt lat="38.093995" lon="15.659145"><ele>99.0</ele><time>2026-04-04T07:59:53.58Z</time></trkpt><trkpt lat="38.093725" lon="15.6592317"><ele>99.0</ele><time>2026-04-04T07:59:54.58Z</time></trkpt><trkpt lat="38.0934433" lon="15.6593333"><ele>99.0</ele><time>2026-04-04T07:59:55.58Z</time></trkpt><trkpt lat="38.0931683" lon="15.6594383"><ele>98.5</ele><time>2026-04-04T07:59:56.58Z</time></trkpt><trkpt lat="38.09287" lon="15.65954"><ele>98.0</ele><time>2026-04-04T07:59:57.58Z</time></trkpt><trkpt lat="38.0925633" lon="15.659645"><ele>96.5</ele><time>2026-04-04T07:59:58.581Z</time></trkpt><trkpt lat="38.0922483" lon="15.6597617"><ele>95.0</ele><time>2026-04-04T07:59:59.58Z</time></trkpt><trkpt lat="38.0919367" lon="15.6598967"><ele>95.0</ele><time>2026-04-04T08:00:00.58Z</time></trkpt><trkpt lat="38.0916233" lon="15.6600467"><ele>95.0</ele><time>2026-04-04T08:00:01.58Z</time></trkpt><trkpt lat="38.09131" lon="15.6602167"><ele>89.0</ele><time>2026-04-04T08:00:02.581Z</time></trkpt><trkpt lat="38.0910033" lon="15.6604083"><ele>83.0</ele><time>2026-04-04T08:00:03.581Z</time></trkpt><trkpt lat="38.0906867" lon="15.6606017"><ele>80.5</ele><time>2026-04-04T08:00:04.58Z</time></trkpt><trkpt lat="38.0903783" lon="15.6607967"><ele>78.0</ele><time>2026-04-04T08:00:05.58Z</time></trkpt><trkpt lat="38.0900583" lon="15.6610117"><ele>78.0</ele><time>2026-04-04T08:00:06.58Z</time></trkpt><trkpt lat="38.0897433" lon="15.6612217"><ele>78.0</ele><time>2026-04-04T08:00:07.58Z</time></trkpt><trkpt lat="38.0894267" lon="15.6614283"><ele>78.0</ele><time>2026-04-04T08:00:08.58Z</time></trkpt><trkpt lat="38.0891133" lon="15.6616267"><ele>78.0</ele><time>2026-04-04T08:00:09.58Z</time></trkpt><trkpt lat="38.08881" lon="15.6618233"><ele>75.0</ele><time>2026-04-04T08:00:10.581Z</time></trkpt><trkpt lat="38.08852" lon="15.6620133"><ele>72.0</ele><time>2026-04-04T08:00:11.58Z</time></trkpt><trkpt lat="38.0882383" lon="15.66219"><ele>71.0</ele><time>2026-04-04T08:00:12.581Z</time></trkpt><trkpt lat="38.087985" lon="15.6623517"><ele>70.0</ele><time>2026-04-04T08:00:13.58Z</time></trkpt><trkpt lat="38.08774" lon="15.66251"><ele>70.0</ele><time>2026-04-04T08:00:14.58Z</time></trkpt><trkpt lat="38.08751" lon="15.6626667"><ele>70.0</ele><time>2026-04-04T08:00:15.58Z</time></trkpt><trkpt lat="38.0872933" lon="15.6628033"><ele>70.5</ele><time>2026-04-04T08:00:16.58Z</time></trkpt><trkpt lat="38.0870783" lon="15.6629317"><ele>71.0</ele><time>2026-04-04T08:00:17.58Z</time></trkpt><trkpt lat="38.0868617" lon="15.66307"><ele>71.0</ele><time>2026-04-04T08:00:18.581Z</time></trkpt><trkpt lat="38.08664" lon="15.6632133"><ele>71.0</ele><time>2026-04-04T08:00:19.58Z</time></trkpt><trkpt lat="38.0864" lon="15.6633567"><ele>71.5</ele><time>2026-04-04T08:00:20.58Z</time></trkpt><trkpt lat="38.0861583" lon="15.66351"><ele>72.0</ele><time>2026-04-04T08:00:21.58Z</time></trkpt><trkpt lat="38.0859067" lon="15.6636633"><ele>76.5</ele><time>2026-04-04T08:00:22.58Z</time></trkpt><trkpt lat="38.0856483" lon="15.6638083"><ele>81.0</ele><time>2026-04-04T08:00:23.58Z</time></trkpt><trkpt lat="38.0853617" lon="15.6639483"><ele>81.0</ele><time>2026-04-04T08:00:24.58Z</time></trkpt><trkpt lat="38.085065" lon="15.6640717"><ele>81.0</ele><time>2026-04-04T08:00:25.581Z</time></trkpt><trkpt lat="38.0847667" lon="15.66416"><ele>79.5</ele><time>2026-04-04T08:00:26.58Z</time></trkpt><trkpt lat="38.084455" lon="15.664225"><ele>78.0</ele><time>2026-04-04T08:00:27.58Z</time></trkpt><trkpt lat="38.0841433" lon="15.6642767"><ele>76.5</ele><time>2026-04-04T08:00:28.58Z</time></trkpt><trkpt lat="38.0838183" lon="15.6643017"><ele>75.0</ele><time>2026-04-04T08:00:29.58Z</time></trkpt><trkpt lat="38.0834867" lon="15.6643167"><ele>73.0</ele><time>2026-04-04T08:00:30.58Z</time></trkpt><trkpt lat="38.0831533" lon="15.66433"><ele>71.0</ele><time>2026-04-04T08:00:31.581Z</time></trkpt><trkpt lat="38.0828267" lon="15.6643333"><ele>71.0</ele><time>2026-04-04T08:00:32.581Z</time></trkpt><trkpt lat="38.0825117" lon="15.66434"><ele>71.0</ele><time>2026-04-04T08:00:33.58Z</time></trkpt><trkpt lat="38.0821983" lon="15.6643517"><ele>70.5</ele><time>2026-04-04T08:00:34.58Z</time></trkpt><trkpt lat="38.0819117" lon="15.6643567"><ele>70.0</ele><time>2026-04-04T08:00:35.58Z</time></trkpt><trkpt lat="38.08163" lon="15.6643583"><ele>69.5</ele><time>2026-04-04T08:00:36.58Z</time></trkpt><trkpt lat="38.0813583" lon="15.6643767"><ele>69.0</ele><time>2026-04-04T08:00:37.58Z</time></trkpt><trkpt lat="38.0810933" lon="15.6644"><ele>69.0</ele><time>2026-04-04T08:00:38.581Z</time></trkpt><trkpt lat="38.0808417" lon="15.66441"><ele>69.0</ele><time>2026-04-04T08:00:39.58Z</time></trkpt><trkpt lat="38.0806" lon="15.6644233"><ele>67.0</ele><time>2026-04-04T08:00:40.58Z</time></trkpt><trkpt lat="38.0803583" lon="15.66443"><ele>65.0</ele><time>2026-04-04T08:00:41.58Z</time></trkpt><trkpt lat="38.0801" lon="15.66443"><ele>63.5</ele><time>2026-04-04T08:00:42.581Z</time></trkpt><trkpt lat="38.07984" lon="15.664445"><ele>62.0</ele><time>2026-04-04T08:00:43.58Z</time></trkpt><trkpt lat="38.079565" lon="15.6644483"><ele>62.0</ele><time>2026-04-04T08:00:44.58Z</time></trkpt><trkpt lat="38.07928" lon="15.66445"><ele>62.0</ele><time>2026-04-04T08:00:45.581Z</time></trkpt><trkpt lat="38.078985" lon="15.6644567"><ele>63.0</ele><time>2026-04-04T08:00:46.58Z</time></trkpt><trkpt lat="38.078695" lon="15.664475"><ele>64.0</ele><time>2026-04-04T08:00:47.58Z</time></trkpt><trkpt lat="38.0783933" lon="15.664485"><ele>61.5</ele><time>2026-04-04T08:00:48.58Z</time></trkpt><trkpt lat="38.0780883" lon="15.66449"><ele>59.0</ele><time>2026-04-04T08:00:49.58Z</time></trkpt><trkpt lat="38.0777667" lon="15.6644983"><ele>59.0</ele><time>2026-04-04T08:00:50.58Z</time></trkpt><trkpt lat="38.077445" lon="15.664505"><ele>59.0</ele><time>2026-04-04T08:00:51.58Z</time></trkpt><trkpt lat="38.0771317" lon="15.664505"><ele>54.5</ele><time>2026-04-04T08:00:52.58Z</time></trkpt><trkpt lat="38.0768183" lon="15.6644967"><ele>50.0</ele><time>2026-04-04T08:00:53.58Z</time></trkpt><trkpt lat="38.0765133" lon="15.6644767"><ele>51.0</ele><time>2026-04-04T08:00:54.581Z</time></trkpt><trkpt lat="38.0762" lon="15.6644283"><ele>52.0</ele><time>2026-04-04T08:00:55.581Z</time></trkpt><trkpt lat="38.075895" lon="15.66437"><ele>47.0</ele><time>2026-04-04T08:00:56.58Z</time></trkpt><trkpt lat="38.0755983" lon="15.664295"><ele>42.0</ele><time>2026-04-04T08:00:57.58Z</time></trkpt><trkpt lat="38.07532" lon="15.66423"><ele>42.0</ele><time>2026-04-04T08:00:58.58Z</time></trkpt><trkpt lat="38.07506" lon="15.664135"><ele>42.0</ele><time>2026-04-04T08:00:59.58Z</time></trkpt><trkpt lat="38.0748117" lon="15.6640517"><ele>39.0</ele><time>2026-04-04T08:01:00.58Z</time></trkpt><trkpt lat="38.0745533" lon="15.66397"><ele>36.0</ele><time>2026-04-04T08:01:01.581Z</time></trkpt><trkpt lat="38.074295" lon="15.6638783"><ele>36.0</ele><time>2026-04-04T08:01:02.581Z</time></trkpt><trkpt lat="38.0740283" lon="15.6637783"><ele>36.0</ele><time>2026-04-04T08:01:03.58Z</time></trkpt><trkpt lat="38.0737717" lon="15.6636867"><ele>34.0</ele><time>2026-04-04T08:01:04.581Z</time></trkpt><trkpt lat="38.0735133" lon="15.6636017"><ele>32.0</ele><time>2026-04-04T08:01:05.58Z</time></trkpt><trkpt lat="38.0732783" lon="15.6635217"><ele>32.5</ele><time>2026-04-04T08:01:06.58Z</time></trkpt><trkpt lat="38.0730467" lon="15.6634433"><ele>33.0</ele><time>2026-04-04T08:01:07.58Z</time></trkpt><trkpt lat="38.0728083" lon="15.6633867"><ele>33.0</ele><time>2026-04-04T08:01:08.58Z</time></trkpt><trkpt lat="38.072565" lon="15.6633317"><ele>33.0</ele><time>2026-04-04T08:01:09.58Z</time></trkpt><trkpt lat="38.07232" lon="15.6632917"><ele>33.0</ele><time>2026-04-04T08:01:10.58Z</time></trkpt><trkpt lat="38.07208" lon="15.6632633"><ele>33.0</ele><time>2026-04-04T08:01:11.58Z</time></trkpt><trkpt lat="38.0718417" lon="15.6632467"><ele>34.5</ele><time>2026-04-04T08:01:12.58Z</time></trkpt><trkpt lat="38.0716067" lon="15.6632367"><ele>36.0</ele><time>2026-04-04T08:01:13.58Z</time></trkpt><trkpt lat="38.0713833" lon="15.6632317"><ele>36.0</ele><time>2026-04-04T08:01:14.58Z</time></trkpt><trkpt lat="38.071165" lon="15.6632367"><ele>36.0</ele><time>2026-04-04T08:01:15.58Z</time></trkpt><trkpt lat="38.070945" lon="15.6632283"><ele>36.0</ele><time>2026-04-04T08:01:16.58Z</time></trkpt><trkpt lat="38.070725" lon="15.6632183"><ele>36.0</ele><time>2026-04-04T08:01:17.581Z</time></trkpt><trkpt lat="38.0705117" lon="15.6632183"><ele>36.0</ele><time>2026-04-04T08:01:18.58Z</time></trkpt><trkpt lat="38.070305" lon="15.6632217"><ele>36.0</ele><time>2026-04-04T08:01:19.58Z</time></trkpt><trkpt lat="38.0701167" lon="15.663215"><ele>36.333333333333336</ele><time>2026-04-04T08:01:20.581Z</time></trkpt><trkpt lat="38.0699367" lon="15.663205"><ele>36.66666666666667</ele><time>2026-04-04T08:01:21.58Z</time></trkpt><trkpt lat="38.0697717" lon="15.6632067"><ele>37.0</ele><time>2026-04-04T08:01:22.58Z</time></trkpt><trkpt lat="38.069605" lon="15.663205"><ele>37.0</ele><time>2026-04-04T08:01:23.581Z</time></trkpt><trkpt lat="38.069435" lon="15.663205"><ele>37.0</ele><time>2026-04-04T08:01:24.58Z</time></trkpt><trkpt lat="38.0692783" lon="15.663195"><ele>37.0</ele><time>2026-04-04T08:01:25.58Z</time></trkpt><trkpt lat="38.069135" lon="15.6631783"><ele>37.25</ele><time>2026-04-04T08:01:26.58Z</time></trkpt><trkpt lat="38.0689883" lon="15.6631733"><ele>37.5</ele><time>2026-04-04T08:01:27.58Z</time></trkpt><trkpt lat="38.0688483" lon="15.6631517"><ele>37.75</ele><time>2026-04-04T08:01:28.58Z</time></trkpt><trkpt lat="38.068715" lon="15.663135"><ele>38.0</ele><time>2026-04-04T08:01:29.581Z</time></trkpt><trkpt lat="38.0685933" lon="15.66312"><ele>38.0</ele><time>2026-04-04T08:01:30.58Z</time></trkpt><trkpt lat="38.0684733" lon="15.6631033"><ele>38.0</ele><time>2026-04-04T08:01:31.58Z</time></trkpt><trkpt lat="38.0683533" lon="15.6630867"><ele>38.0</ele><time>2026-04-04T08:01:32.58Z</time></trkpt><trkpt lat="38.06824" lon="15.663075"><ele>38.0</ele><time>2026-04-04T08:01:33.58Z</time></trkpt><trkpt lat="38.0681133" lon="15.6630483"><ele>38.75</ele><time>2026-04-04T08:01:34.58Z</time></trkpt><trkpt lat="38.06798" lon="15.6630283"><ele>39.5</ele><time>2026-04-04T08:01:35.58Z</time></trkpt><trkpt lat="38.0678467" lon="15.663015"><ele>40.25</ele><time>2026-04-04T08:01:36.58Z</time></trkpt><trkpt lat="38.0677033" lon="15.66299"><ele>41.0</ele><time>2026-04-04T08:01:37.58Z</time></trkpt><trkpt lat="38.0675617" lon="15.662975"><ele>41.25</ele><time>2026-04-04T08:01:38.58Z</time></trkpt><trkpt lat="38.0674183" lon="15.6629533"><ele>41.5</ele><time>2026-04-04T08:01:39.581Z</time></trkpt><trkpt lat="38.06727" lon="15.6629383"><ele>41.75</ele><time>2026-04-04T08:01:40.58Z</time></trkpt><trkpt lat="38.06712" lon="15.6629133"><ele>42.0</ele><time>2026-04-04T08:01:41.58Z</time></trkpt><trkpt lat="38.0669683" lon="15.6628967"><ele>42.0</ele><time>2026-04-04T08:01:42.58Z</time></trkpt><trkpt lat="38.06681" lon="15.6628767"><ele>42.0</ele><time>2026-04-04T08:01:43.581Z</time></trkpt><trkpt lat="38.0666433" lon="15.662855"><ele>42.0</ele><time>2026-04-04T08:01:44.58Z</time></trkpt><trkpt lat="38.0664717" lon="15.6628333"><ele>42.333333333333336</ele><time>2026-04-04T08:01:45.58Z</time></trkpt><trkpt lat="38.0662983" lon="15.6628133"><ele>42.66666666666667</ele><time>2026-04-04T08:01:46.58Z</time></trkpt><trkpt lat="38.0661217" lon="15.66279"><ele>43.0</ele><time>2026-04-04T08:01:47.581Z</time></trkpt><trkpt lat="38.06594" lon="15.6627617"><ele>42.0</ele><time>2026-04-04T08:01:48.581Z</time></trkpt><trkpt lat="38.065735" lon="15.6627467"><ele>41.0</ele><time>2026-04-04T08:01:49.58Z</time></trkpt><trkpt lat="38.065515" lon="15.6627317"><ele>40.0</ele><time>2026-04-04T08:01:50.58Z</time></trkpt><trkpt lat="38.06531" lon="15.6627"><ele>40.0</ele><time>2026-04-04T08:01:51.58Z</time></trkpt><trkpt lat="38.0651217" lon="15.6626517"><ele>40.0</ele><time>2026-04-04T08:01:52.58Z</time></trkpt><trkpt lat="38.0649633" lon="15.6626283"><ele>40.0</ele><time>2026-04-04T08:01:53.58Z</time></trkpt><trkpt lat="38.0648367" lon="15.66259"><ele>40.16666666666667</ele><time>2026-04-04T08:01:54.581Z</time></trkpt><trkpt lat="38.0647467" lon="15.6625533"><ele>40.333333333333336</ele><time>2026-04-04T08:01:55.58Z</time></trkpt><trkpt lat="38.0646783" lon="15.6625067"><ele>40.5</ele><time>2026-04-04T08:01:56.581Z</time></trkpt><trkpt lat="38.0646067" lon="15.662465"><ele>40.666666666666664</ele><time>2026-04-04T08:01:57.58Z</time></trkpt><trkpt lat="38.0645283" lon="15.6624467"><ele>40.83333333333333</ele><time>2026-04-04T08:01:58.58Z</time></trkpt><trkpt lat="38.064455" lon="15.6624317"><ele>41.0</ele><time>2026-04-04T08:01:59.58Z</time></trkpt><trkpt lat="38.064395" lon="15.6624017"><ele>41.0</ele><time>2026-04-04T08:02:00.58Z</time></trkpt><trkpt lat="38.0643183" lon="15.6623283"><ele>41.0</ele><time>2026-04-04T08:02:02.58Z</time></trkpt><trkpt lat="38.0643267" lon="15.6622367"><ele>41.0</ele><time>2026-04-04T08:18:41.58Z</time></trkpt><trkpt lat="38.0643683" lon="15.662325"><ele>41.0</ele><time>2026-04-04T08:18:45.579Z</time></trkpt><trkpt lat="38.0642967" lon="15.6624333"><ele>41.0</ele><time>2026-04-04T08:18:47.579Z</time></trkpt><trkpt lat="38.0642267" lon="15.6624683"><ele>41.0</ele><time>2026-04-04T08:18:48.579Z</time></trkpt><trkpt lat="38.0641267" lon="15.6625067"><ele>40.25</ele><time>2026-04-04T08:18:49.579Z</time></trkpt><trkpt lat="38.0640117" lon="15.662525"><ele>39.5</ele><time>2026-04-04T08:18:50.58Z</time></trkpt><trkpt lat="38.063895" lon="15.6624967"><ele>38.75</ele><time>2026-04-04T08:18:51.579Z</time></trkpt><trkpt lat="38.0637617" lon="15.6624767"><ele>38.0</ele><time>2026-04-04T08:18:52.579Z</time></trkpt><trkpt lat="38.0636167" lon="15.6624517"><ele>38.0</ele><time>2026-04-04T08:18:53.579Z</time></trkpt><trkpt lat="38.0634717" lon="15.662435"><ele>38.0</ele><time>2026-04-04T08:18:54.579Z</time></trkpt><trkpt lat="38.0633267" lon="15.6624133"><ele>38.0</ele><time>2026-04-04T08:18:55.58Z</time></trkpt><trkpt lat="38.063175" lon="15.66239"><ele>38.0</ele><time>2026-04-04T08:18:56.58Z</time></trkpt><trkpt lat="38.063025" lon="15.662365"><ele>39.33333333333333</ele><time>2026-04-04T08:18:57.58Z</time></trkpt><trkpt lat="38.0628717" lon="15.6623417"><ele>40.666666666666664</ele><time>2026-04-04T08:18:58.579Z</time></trkpt><trkpt lat="38.0627117" lon="15.6623217"><ele>42.0</ele><time>2026-04-04T08:18:59.579Z</time></trkpt><trkpt lat="38.0625467" lon="15.6623083"><ele>42.666666666666664</ele><time>2026-04-04T08:19:00.58Z</time></trkpt><trkpt lat="38.06237" lon="15.66228"><ele>43.33333333333333</ele><time>2026-04-04T08:19:01.58Z</time></trkpt><trkpt lat="38.06219" lon="15.6622417"><ele>44.0</ele><time>2026-04-04T08:19:02.579Z</time></trkpt><trkpt lat="38.06201" lon="15.6621967"><ele>44.0</ele><time>2026-04-04T08:19:03.58Z</time></trkpt><trkpt lat="38.061815" lon="15.662145"><ele>44.0</ele><time>2026-04-04T08:19:04.579Z</time></trkpt><trkpt lat="38.0616267" lon="15.662085"><ele>44.0</ele><time>2026-04-04T08:19:05.58Z</time></trkpt><trkpt lat="38.061425" lon="15.6620117"><ele>42.33333333333333</ele><time>2026-04-04T08:19:06.579Z</time></trkpt><trkpt lat="38.0612167" lon="15.6619333"><ele>40.666666666666664</ele><time>2026-04-04T08:19:07.579Z</time></trkpt><trkpt lat="38.06101" lon="15.6618333"><ele>39.0</ele><time>2026-04-04T08:19:08.58Z</time></trkpt><trkpt lat="38.0607983" lon="15.6617383"><ele>41.0</ele><time>2026-04-04T08:19:09.58Z</time></trkpt><trkpt lat="38.0605767" lon="15.6616467"><ele>43.0</ele><time>2026-04-04T08:19:10.579Z</time></trkpt><trkpt lat="38.060345" lon="15.66156"><ele>43.0</ele><time>2026-04-04T08:19:11.579Z</time></trkpt><trkpt lat="38.06012" lon="15.6614683"><ele>43.0</ele><time>2026-04-04T08:19:12.579Z</time></trkpt><trkpt lat="38.05989" lon="15.6613633"><ele>43.0</ele><time>2026-04-04T08:19:13.579Z</time></trkpt><trkpt lat="38.059655" lon="15.6612483"><ele>43.0</ele><time>2026-04-04T08:19:14.579Z</time></trkpt><trkpt lat="38.0594283" lon="15.661175"><ele>40.0</ele><time>2026-04-04T08:19:15.579Z</time></trkpt><trkpt lat="38.0591933" lon="15.6610983"><ele>37.0</ele><time>2026-04-04T08:19:16.579Z</time></trkpt><trkpt lat="38.0589317" lon="15.6610217"><ele>36.5</ele><time>2026-04-04T08:19:17.58Z</time></trkpt><trkpt lat="38.0586833" lon="15.6609383"><ele>36.0</ele><time>2026-04-04T08:19:18.579Z</time></trkpt><trkpt lat="38.0584433" lon="15.6608183"><ele>37.0</ele><time>2026-04-04T08:19:19.579Z</time></trkpt><trkpt lat="38.05821" lon="15.6606933"><ele>38.0</ele><time>2026-04-04T08:19:20.579Z</time></trkpt><trkpt lat="38.0579733" lon="15.6605767"><ele>38.0</ele><time>2026-04-04T08:19:21.579Z</time></trkpt><trkpt lat="38.05774" lon="15.660455"><ele>38.0</ele><time>2026-04-04T08:19:22.579Z</time></trkpt><trkpt lat="38.0575067" lon="15.66033"><ele>36.5</ele><time>2026-04-04T08:19:23.58Z</time></trkpt><trkpt lat="38.0572683" lon="15.6601983"><ele>35.0</ele><time>2026-04-04T08:19:24.579Z</time></trkpt><trkpt lat="38.0570317" lon="15.6600567"><ele>38.0</ele><time>2026-04-04T08:19:25.579Z</time></trkpt><trkpt lat="38.0565833" lon="15.6597617"><ele>38.0</ele><time>2026-04-04T08:19:27.58Z</time></trkpt><trkpt lat="38.0563667" lon="15.659615"><ele>38.0</ele><time>2026-04-04T08:19:28.581Z</time></trkpt><trkpt lat="38.0561333" lon="15.6594617"><ele>36.0</ele><time>2026-04-04T08:19:29.58Z</time></trkpt><trkpt lat="38.0559" lon="15.65931"><ele>34.0</ele><time>2026-04-04T08:19:30.58Z</time></trkpt><trkpt lat="38.0556683" lon="15.659175"><ele>34.0</ele><time>2026-04-04T08:19:31.581Z</time></trkpt><trkpt lat="38.0554467" lon="15.6590333"><ele>34.0</ele><time>2026-04-04T08:19:32.58Z</time></trkpt><trkpt lat="38.055205" lon="15.65891"><ele>34.0</ele><time>2026-04-04T08:19:33.58Z</time></trkpt><trkpt lat="38.05496" lon="15.65877"><ele>34.0</ele><time>2026-04-04T08:19:34.58Z</time></trkpt><trkpt lat="38.0547267" lon="15.6586367"><ele>34.5</ele><time>2026-04-04T08:19:35.58Z</time></trkpt><trkpt lat="38.054495" lon="15.6585017"><ele>35.0</ele><time>2026-04-04T08:19:36.58Z</time></trkpt><trkpt lat="38.0542567" lon="15.65838"><ele>34.5</ele><time>2026-04-04T08:19:37.58Z</time></trkpt><trkpt lat="38.05402" lon="15.658245"><ele>34.0</ele><time>2026-04-04T08:19:38.581Z</time></trkpt><trkpt lat="38.0537783" lon="15.658115"><ele>34.0</ele><time>2026-04-04T08:19:39.581Z</time></trkpt><trkpt lat="38.0535567" lon="15.6579917"><ele>34.0</ele><time>2026-04-04T08:19:40.58Z</time></trkpt><trkpt lat="38.0533317" lon="15.6578267"><ele>32.5</ele><time>2026-04-04T08:19:41.58Z</time></trkpt><trkpt lat="38.0531267" lon="15.6577083"><ele>31.0</ele><time>2026-04-04T08:19:42.58Z</time></trkpt><trkpt lat="38.052905" lon="15.6575933"><ele>31.0</ele><time>2026-04-04T08:19:43.58Z</time></trkpt><trkpt lat="38.05269" lon="15.657475"><ele>31.0</ele><time>2026-04-04T08:19:44.581Z</time></trkpt><trkpt lat="38.0524733" lon="15.6573467"><ele>31.5</ele><time>2026-04-04T08:19:45.58Z</time></trkpt><trkpt lat="38.052245" lon="15.6572167"><ele>32.0</ele><time>2026-04-04T08:19:46.58Z</time></trkpt><trkpt lat="38.0520283" lon="15.6570717"><ele>30.5</ele><time>2026-04-04T08:19:47.58Z</time></trkpt><trkpt lat="38.0518133" lon="15.65691"><ele>29.0</ele><time>2026-04-04T08:19:48.581Z</time></trkpt><trkpt lat="38.0516" lon="15.656755"><ele>29.0</ele><time>2026-04-04T08:19:49.581Z</time></trkpt><trkpt lat="38.05138" lon="15.6565967"><ele>29.0</ele><time>2026-04-04T08:19:50.58Z</time></trkpt><trkpt lat="38.05115" lon="15.6564467"><ele>29.0</ele><time>2026-04-04T08:19:51.581Z</time></trkpt><trkpt lat="38.0509117" lon="15.6563"><ele>29.0</ele><time>2026-04-04T08:19:52.581Z</time></trkpt><trkpt lat="38.0506683" lon="15.65617"><ele>27.0</ele><time>2026-04-04T08:19:53.58Z</time></trkpt><trkpt lat="38.050415" lon="15.6560483"><ele>25.0</ele><time>2026-04-04T08:19:54.58Z</time></trkpt><trkpt lat="38.050155" lon="15.6559383"><ele>23.5</ele><time>2026-04-04T08:19:55.58Z</time></trkpt><trkpt lat="38.049885" lon="15.6558383"><ele>22.0</ele><time>2026-04-04T08:19:56.58Z</time></trkpt><trkpt lat="38.0496167" lon="15.6557633"><ele>22.0</ele><time>2026-04-04T08:19:57.58Z</time></trkpt><trkpt lat="38.04935" lon="15.6557133"><ele>22.0</ele><time>2026-04-04T08:19:58.58Z</time></trkpt><trkpt lat="38.04908" lon="15.6556767"><ele>20.5</ele><time>2026-04-04T08:19:59.58Z</time></trkpt><trkpt lat="38.0488083" lon="15.6556533"><ele>19.0</ele><time>2026-04-04T08:20:00.58Z</time></trkpt><trkpt lat="38.04854" lon="15.65565"><ele>18.5</ele><time>2026-04-04T08:20:01.58Z</time></trkpt><trkpt lat="38.04828" lon="15.6556617"><ele>18.0</ele><time>2026-04-04T08:20:02.58Z</time></trkpt><trkpt lat="38.0480233" lon="15.6556967"><ele>18.0</ele><time>2026-04-04T08:20:03.581Z</time></trkpt><trkpt lat="38.0477717" lon="15.6557417"><ele>18.0</ele><time>2026-04-04T08:20:04.58Z</time></trkpt><trkpt lat="38.0475233" lon="15.655795"><ele>17.0</ele><time>2026-04-04T08:20:05.58Z</time></trkpt><trkpt lat="38.0472667" lon="15.65586"><ele>16.0</ele><time>2026-04-04T08:20:06.58Z</time></trkpt><trkpt lat="38.0470267" lon="15.6559133"><ele>16.0</ele><time>2026-04-04T08:20:07.581Z</time></trkpt><trkpt lat="38.0467983" lon="15.655965"><ele>16.0</ele><time>2026-04-04T08:20:08.58Z</time></trkpt><trkpt lat="38.04657" lon="15.6560133"><ele>16.0</ele><time>2026-04-04T08:20:09.58Z</time></trkpt><trkpt lat="38.0463517" lon="15.6560583"><ele>16.0</ele><time>2026-04-04T08:20:10.58Z</time></trkpt><trkpt lat="38.0461433" lon="15.65611"><ele>16.0</ele><time>2026-04-04T08:20:11.58Z</time></trkpt><trkpt lat="38.0459483" lon="15.656165"><ele>15.333333333333332</ele><time>2026-04-04T08:20:12.58Z</time></trkpt><trkpt lat="38.04576" lon="15.6562133"><ele>14.666666666666668</ele><time>2026-04-04T08:20:13.581Z</time></trkpt><trkpt lat="38.0455817" lon="15.6562733"><ele>14.0</ele><time>2026-04-04T08:20:14.58Z</time></trkpt><trkpt lat="38.0454083" lon="15.6563317"><ele>14.0</ele><time>2026-04-04T08:20:15.58Z</time></trkpt><trkpt lat="38.04524" lon="15.6564"><ele>14.0</ele><time>2026-04-04T08:20:16.58Z</time></trkpt><trkpt lat="38.04508" lon="15.6564833"><ele>14.0</ele><time>2026-04-04T08:20:17.58Z</time></trkpt><trkpt lat="38.0449133" lon="15.6565717"><ele>13.333333333333334</ele><time>2026-04-04T08:20:18.58Z</time></trkpt><trkpt lat="38.0447367" lon="15.6566817"><ele>12.666666666666668</ele><time>2026-04-04T08:20:19.58Z</time></trkpt><trkpt lat="38.0445617" lon="15.6567883"><ele>12.0</ele><time>2026-04-04T08:20:20.581Z</time></trkpt><trkpt lat="38.0443767" lon="15.65689"><ele>12.333333333333332</ele><time>2026-04-04T08:20:21.58Z</time></trkpt><trkpt lat="38.0441767" lon="15.6569917"><ele>12.666666666666666</ele><time>2026-04-04T08:20:22.58Z</time></trkpt><trkpt lat="38.0439717" lon="15.6570867"><ele>13.0</ele><time>2026-04-04T08:20:23.579Z</time></trkpt><trkpt lat="38.04378" lon="15.65719"><ele>13.0</ele><time>2026-04-04T08:20:24.579Z</time></trkpt><trkpt lat="38.04361" lon="15.6572767"><ele>13.0</ele><time>2026-04-04T08:20:25.579Z</time></trkpt><trkpt lat="38.0434567" lon="15.65736"><ele>13.0</ele><time>2026-04-04T08:20:26.58Z</time></trkpt><trkpt lat="38.0432983" lon="15.657435"><ele>11.666666666666666</ele><time>2026-04-04T08:20:27.579Z</time></trkpt><trkpt lat="38.0431433" lon="15.657515"><ele>10.333333333333332</ele><time>2026-04-04T08:20:28.579Z</time></trkpt><trkpt lat="38.04299" lon="15.657595"><ele>9.0</ele><time>2026-04-04T08:20:29.58Z</time></trkpt><trkpt lat="38.0428367" lon="15.657675"><ele>9.0</ele><time>2026-04-04T08:20:30.579Z</time></trkpt><trkpt lat="38.0426833" lon="15.6577583"><ele>9.0</ele><time>2026-04-04T08:20:31.579Z</time></trkpt><trkpt lat="38.04252" lon="15.6578467"><ele>9.0</ele><time>2026-04-04T08:20:32.579Z</time></trkpt><trkpt lat="38.042345" lon="15.657955"><ele>9.666666666666666</ele><time>2026-04-04T08:20:33.58Z</time></trkpt><trkpt lat="38.0421933" lon="15.6580317"><ele>10.333333333333332</ele><time>2026-04-04T08:20:34.579Z</time></trkpt><trkpt lat="38.042025" lon="15.6581183"><ele>11.0</ele><time>2026-04-04T08:20:35.579Z</time></trkpt><trkpt lat="38.0418567" lon="15.65821"><ele>11.0</ele><time>2026-04-04T08:20:36.579Z</time></trkpt><trkpt lat="38.0416883" lon="15.6582933"><ele>11.0</ele><time>2026-04-04T08:20:37.58Z</time></trkpt><trkpt lat="38.0415233" lon="15.6583833"><ele>11.0</ele><time>2026-04-04T08:20:38.579Z</time></trkpt><trkpt lat="38.0413517" lon="15.6584833"><ele>10.333333333333332</ele><time>2026-04-04T08:20:39.579Z</time></trkpt><trkpt lat="38.0411783" lon="15.658575"><ele>9.666666666666666</ele><time>2026-04-04T08:20:40.579Z</time></trkpt><trkpt lat="38.0410067" lon="15.6586683"><ele>9.0</ele><time>2026-04-04T08:20:41.58Z</time></trkpt><trkpt lat="38.0408367" lon="15.65877"><ele>10.666666666666668</ele><time>2026-04-04T08:20:42.579Z</time></trkpt><trkpt lat="38.0406667" lon="15.658855"><ele>12.333333333333334</ele><time>2026-04-04T08:20:43.579Z</time></trkpt><trkpt lat="38.04049" lon="15.6589483"><ele>14.0</ele><time>2026-04-04T08:20:44.579Z</time></trkpt><trkpt lat="38.04032" lon="15.659045"><ele>14.0</ele><time>2026-04-04T08:20:45.579Z</time></trkpt><trkpt lat="38.0401583" lon="15.659135"><ele>14.0</ele><time>2026-04-04T08:20:46.579Z</time></trkpt><trkpt lat="38.0399867" lon="15.6592183"><ele>14.0</ele><time>2026-04-04T08:20:47.58Z</time></trkpt><trkpt lat="38.0398267" lon="15.6593033"><ele>13.0</ele><time>2026-04-04T08:20:48.579Z</time></trkpt><trkpt lat="38.039675" lon="15.6593767"><ele>12.0</ele><time>2026-04-04T08:20:49.58Z</time></trkpt><trkpt lat="38.039525" lon="15.6594483"><ele>11.0</ele><time>2026-04-04T08:20:50.58Z</time></trkpt><trkpt lat="38.03937" lon="15.6595133"><ele>13.333333333333332</ele><time>2026-04-04T08:20:51.58Z</time></trkpt><trkpt lat="38.0392167" lon="15.6595533"><ele>15.666666666666666</ele><time>2026-04-04T08:20:52.579Z</time></trkpt><trkpt lat="38.0390617" lon="15.6595917"><ele>18.0</ele><time>2026-04-04T08:20:53.579Z</time></trkpt><trkpt lat="38.03891" lon="15.6596333"><ele>18.0</ele><time>2026-04-04T08:20:54.579Z</time></trkpt><trkpt lat="38.0387483" lon="15.6596583"><ele>18.0</ele><time>2026-04-04T08:20:55.579Z</time></trkpt><trkpt lat="38.038585" lon="15.6596783"><ele>18.0</ele><time>2026-04-04T08:20:56.579Z</time></trkpt><trkpt lat="38.0384183" lon="15.6596883"><ele>17.0</ele><time>2026-04-04T08:20:57.58Z</time></trkpt><trkpt lat="38.0382417" lon="15.6596917"><ele>16.0</ele><time>2026-04-04T08:20:58.579Z</time></trkpt><trkpt lat="38.0380683" lon="15.6596633"><ele>15.0</ele><time>2026-04-04T08:20:59.579Z</time></trkpt><trkpt lat="38.0379" lon="15.65964"><ele>15.0</ele><time>2026-04-04T08:21:00.579Z</time></trkpt><trkpt lat="38.03774" lon="15.6596183"><ele>15.0</ele><time>2026-04-04T08:21:01.579Z</time></trkpt><trkpt lat="38.0375767" lon="15.6595867"><ele>15.0</ele><time>2026-04-04T08:21:02.579Z</time></trkpt><trkpt lat="38.0374217" lon="15.6595367"><ele>14.333333333333332</ele><time>2026-04-04T08:21:03.579Z</time></trkpt><trkpt lat="38.037255" lon="15.6594767"><ele>13.666666666666666</ele><time>2026-04-04T08:21:04.579Z</time></trkpt><trkpt lat="38.0370833" lon="15.65941"><ele>13.0</ele><time>2026-04-04T08:21:05.579Z</time></trkpt><trkpt lat="38.036905" lon="15.6593333"><ele>12.333333333333332</ele><time>2026-04-04T08:21:06.579Z</time></trkpt><trkpt lat="38.03672" lon="15.6592467"><ele>11.666666666666666</ele><time>2026-04-04T08:21:07.579Z</time></trkpt><trkpt lat="38.0365383" lon="15.6591683"><ele>11.0</ele><time>2026-04-04T08:21:08.579Z</time></trkpt><trkpt lat="38.0363567" lon="15.6590983"><ele>11.0</ele><time>2026-04-04T08:21:09.579Z</time></trkpt><trkpt lat="38.036175" lon="15.6590267"><ele>11.0</ele><time>2026-04-04T08:21:10.58Z</time></trkpt><trkpt lat="38.0359967" lon="15.6589567"><ele>11.0</ele><time>2026-04-04T08:21:11.579Z</time></trkpt><trkpt lat="38.0358233" lon="15.658885"><ele>11.666666666666666</ele><time>2026-04-04T08:21:12.579Z</time></trkpt><trkpt lat="38.035655" lon="15.658815"><ele>12.333333333333332</ele><time>2026-04-04T08:21:13.579Z</time></trkpt><trkpt lat="38.0354867" lon="15.6587517"><ele>13.0</ele><time>2026-04-04T08:21:14.579Z</time></trkpt><trkpt lat="38.03532" lon="15.6586883"><ele>12.666666666666666</ele><time>2026-04-04T08:21:15.579Z</time></trkpt><trkpt lat="38.0351567" lon="15.6586167"><ele>12.333333333333332</ele><time>2026-04-04T08:21:16.58Z</time></trkpt><trkpt lat="38.0349833" lon="15.6585533"><ele>12.0</ele><time>2026-04-04T08:21:17.579Z</time></trkpt><trkpt lat="38.034815" lon="15.6584817"><ele>12.0</ele><time>2026-04-04T08:21:18.58Z</time></trkpt><trkpt lat="38.0346383" lon="15.65841"><ele>12.0</ele><time>2026-04-04T08:21:19.579Z</time></trkpt><trkpt lat="38.034465" lon="15.65834"><ele>12.0</ele><time>2026-04-04T08:21:20.579Z</time></trkpt><trkpt lat="38.03429" lon="15.65827"><ele>11.666666666666666</ele><time>2026-04-04T08:21:21.58Z</time></trkpt><trkpt lat="38.0341133" lon="15.6582033"><ele>11.333333333333332</ele><time>2026-04-04T08:21:22.579Z</time></trkpt><trkpt lat="38.0339367" lon="15.6581333"><ele>11.0</ele><time>2026-04-04T08:21:23.579Z</time></trkpt><trkpt lat="38.03377" lon="15.6580683"><ele>11.0</ele><time>2026-04-04T08:21:24.579Z</time></trkpt><trkpt lat="38.0335983" lon="15.658"><ele>11.0</ele><time>2026-04-04T08:21:25.579Z</time></trkpt><trkpt lat="38.0334333" lon="15.657935"><ele>11.0</ele><time>2026-04-04T08:21:26.58Z</time></trkpt><trkpt lat="38.0332667" lon="15.65787"><ele>11.666666666666666</ele><time>2026-04-04T08:21:27.579Z</time></trkpt><trkpt lat="38.0331117" lon="15.6578167"><ele>12.333333333333332</ele><time>2026-04-04T08:21:28.579Z</time></trkpt><trkpt lat="38.03295" lon="15.65776"><ele>13.0</ele><time>2026-04-04T08:21:29.58Z</time></trkpt><trkpt lat="38.032785" lon="15.6577033"><ele>13.0</ele><time>2026-04-04T08:21:30.58Z</time></trkpt><trkpt lat="38.0326183" lon="15.65763"><ele>13.0</ele><time>2026-04-04T08:21:31.579Z</time></trkpt><trkpt lat="38.0324517" lon="15.6575633"><ele>13.0</ele><time>2026-04-04T08:21:32.58Z</time></trkpt><trkpt lat="38.0322733" lon="15.6574883"><ele>13.333333333333332</ele><time>2026-04-04T08:21:33.579Z</time></trkpt><trkpt lat="38.032105" lon="15.657425"><ele>13.666666666666668</ele><time>2026-04-04T08:21:34.579Z</time></trkpt><trkpt lat="38.031935" lon="15.6573517"><ele>14.0</ele><time>2026-04-04T08:21:35.579Z</time></trkpt><trkpt lat="38.0317617" lon="15.6572783"><ele>14.333333333333334</ele><time>2026-04-04T08:21:36.58Z</time></trkpt><trkpt lat="38.0315883" lon="15.6572133"><ele>14.666666666666668</ele><time>2026-04-04T08:21:37.579Z</time></trkpt><trkpt lat="38.031425" lon="15.6571417"><ele>15.0</ele><time>2026-04-04T08:21:38.58Z</time></trkpt><trkpt lat="38.03125" lon="15.657075"><ele>15.0</ele><time>2026-04-04T08:21:39.579Z</time></trkpt><trkpt lat="38.0310817" lon="15.6570067"><ele>15.0</ele><time>2026-04-04T08:21:40.579Z</time></trkpt><trkpt lat="38.0309067" lon="15.6569383"><ele>15.0</ele><time>2026-04-04T08:21:41.579Z</time></trkpt><trkpt lat="38.0307333" lon="15.6568683"><ele>13.666666666666666</ele><time>2026-04-04T08:21:42.579Z</time></trkpt><trkpt lat="38.0305567" lon="15.6567983"><ele>12.333333333333332</ele><time>2026-04-04T08:21:43.579Z</time></trkpt><trkpt lat="38.0303767" lon="15.6567283"><ele>11.0</ele><time>2026-04-04T08:21:44.579Z</time></trkpt><trkpt lat="38.0301883" lon="15.6566567"><ele>11.0</ele><time>2026-04-04T08:21:45.579Z</time></trkpt><trkpt lat="38.0299967" lon="15.6565867"><ele>11.0</ele><time>2026-04-04T08:21:46.579Z</time></trkpt><trkpt lat="38.029805" lon="15.6565167"><ele>11.0</ele><time>2026-04-04T08:21:47.58Z</time></trkpt><trkpt lat="38.02961" lon="15.6564417"><ele>12.0</ele><time>2026-04-04T08:21:48.579Z</time></trkpt><trkpt lat="38.02941" lon="15.65636"><ele>13.0</ele><time>2026-04-04T08:21:49.58Z</time></trkpt><trkpt lat="38.02921" lon="15.6562817"><ele>14.0</ele><time>2026-04-04T08:21:50.58Z</time></trkpt><trkpt lat="38.02901" lon="15.6562033"><ele>13.666666666666668</ele><time>2026-04-04T08:21:51.579Z</time></trkpt><trkpt lat="38.0288233" lon="15.6561283"><ele>13.333333333333332</ele><time>2026-04-04T08:21:52.579Z</time></trkpt><trkpt lat="38.028645" lon="15.6560533"><ele>13.0</ele><time>2026-04-04T08:21:53.579Z</time></trkpt><trkpt lat="38.028465" lon="15.6559817"><ele>13.666666666666666</ele><time>2026-04-04T08:21:54.579Z</time></trkpt><trkpt lat="38.02828" lon="15.6559117"><ele>14.333333333333332</ele><time>2026-04-04T08:21:55.579Z</time></trkpt><trkpt lat="38.0281" lon="15.6558433"><ele>15.0</ele><time>2026-04-04T08:21:56.579Z</time></trkpt><trkpt lat="38.0279217" lon="15.6557767"><ele>15.0</ele><time>2026-04-04T08:21:57.579Z</time></trkpt><trkpt lat="38.0277467" lon="15.6557067"><ele>15.0</ele><time>2026-04-04T08:21:58.579Z</time></trkpt><trkpt lat="38.0275733" lon="15.6556433"><ele>15.0</ele><time>2026-04-04T08:21:59.579Z</time></trkpt><trkpt lat="38.0273967" lon="15.6555717"><ele>15.333333333333332</ele><time>2026-04-04T08:22:00.58Z</time></trkpt><trkpt lat="38.027225" lon="15.65551"><ele>15.666666666666666</ele><time>2026-04-04T08:22:01.58Z</time></trkpt><trkpt lat="38.0270517" lon="15.65545"><ele>16.0</ele><time>2026-04-04T08:22:02.579Z</time></trkpt><trkpt lat="38.02688" lon="15.6553833"><ele>16.0</ele><time>2026-04-04T08:22:03.579Z</time></trkpt><trkpt lat="38.0267067" lon="15.65532"><ele>16.0</ele><time>2026-04-04T08:22:04.579Z</time></trkpt><trkpt lat="38.0265383" lon="15.6552583"><ele>16.0</ele><time>2026-04-04T08:22:05.579Z</time></trkpt><trkpt lat="38.0263817" lon="15.6552033"><ele>15.0</ele><time>2026-04-04T08:22:06.58Z</time></trkpt><trkpt lat="38.0262333" lon="15.655155"><ele>14.0</ele><time>2026-04-04T08:22:07.579Z</time></trkpt><trkpt lat="38.0260833" lon="15.6551033"><ele>13.0</ele><time>2026-04-04T08:22:08.579Z</time></trkpt><trkpt lat="38.02594" lon="15.6550533"><ele>13.0</ele><time>2026-04-04T08:22:09.579Z</time></trkpt><trkpt lat="38.0258" lon="15.6550033"><ele>13.0</ele><time>2026-04-04T08:22:10.579Z</time></trkpt><trkpt lat="38.0256667" lon="15.6549567"><ele>13.0</ele><time>2026-04-04T08:22:11.579Z</time></trkpt><trkpt lat="38.02554" lon="15.65491"><ele>13.0</ele><time>2026-04-04T08:22:12.58Z</time></trkpt><trkpt lat="38.02542" lon="15.6548683"><ele>13.0</ele><time>2026-04-04T08:22:13.579Z</time></trkpt><trkpt lat="38.0252983" lon="15.6548267"><ele>13.0</ele><time>2026-04-04T08:22:14.579Z</time></trkpt><trkpt lat="38.02519" lon="15.6547717"><ele>13.0</ele><time>2026-04-04T08:22:15.579Z</time></trkpt><trkpt lat="38.02508" lon="15.654725"><ele>13.0</ele><time>2026-04-04T08:22:16.579Z</time></trkpt><trkpt lat="38.024975" lon="15.6546783"><ele>13.166666666666666</ele><time>2026-04-04T08:22:17.579Z</time></trkpt><trkpt lat="38.0248817" lon="15.654635"><ele>13.333333333333332</ele><time>2026-04-04T08:22:18.579Z</time></trkpt><trkpt lat="38.0247967" lon="15.6545983"><ele>13.5</ele><time>2026-04-04T08:22:19.579Z</time></trkpt><trkpt lat="38.0247183" lon="15.6545567"><ele>13.666666666666668</ele><time>2026-04-04T08:22:20.579Z</time></trkpt><trkpt lat="38.0246533" lon="15.6545283"><ele>13.833333333333334</ele><time>2026-04-04T08:22:21.579Z</time></trkpt><trkpt lat="38.0245683" lon="15.6544817"><ele>14.0</ele><time>2026-04-04T08:22:23.579Z</time></trkpt><trkpt lat="38.0245117" lon="15.6544367"><ele>14.0</ele><time>2026-04-04T08:22:25.579Z</time></trkpt><trkpt lat="38.0244267" lon="15.6543717"><ele>13.999999999999998</ele><time>2026-04-04T08:22:39.579Z</time></trkpt><trkpt lat="38.0243767" lon="15.65432"><ele>13.999999999999998</ele><time>2026-04-04T08:22:40.579Z</time></trkpt><trkpt lat="38.0243133" lon="15.6542433"><ele>14.0</ele><time>2026-04-04T08:22:41.579Z</time></trkpt><trkpt lat="38.0242317" lon="15.65415"><ele>14.0</ele><time>2026-04-04T08:22:42.58Z</time></trkpt><trkpt lat="38.02414" lon="15.6540467"><ele>14.5</ele><time>2026-04-04T08:22:43.579Z</time></trkpt><trkpt lat="38.0240467" lon="15.653935"><ele>15.0</ele><time>2026-04-04T08:22:44.579Z</time></trkpt><trkpt lat="38.0239517" lon="15.6538083"><ele>15.5</ele><time>2026-04-04T08:22:45.579Z</time></trkpt><trkpt lat="38.0238583" lon="15.6536817"><ele>16.0</ele><time>2026-04-04T08:22:46.579Z</time></trkpt><trkpt lat="38.0237667" lon="15.6535467"><ele>16.0</ele><time>2026-04-04T08:22:47.579Z</time></trkpt><trkpt lat="38.0236717" lon="15.6534117"><ele>16.0</ele><time>2026-04-04T08:22:48.58Z</time></trkpt><trkpt lat="38.0235767" lon="15.6532717"><ele>16.0</ele><time>2026-04-04T08:22:49.579Z</time></trkpt><trkpt lat="38.0234883" lon="15.6531317"><ele>16.0</ele><time>2026-04-04T08:22:50.579Z</time></trkpt><trkpt lat="38.0233917" lon="15.6529983"><ele>16.75</ele><time>2026-04-04T08:22:51.579Z</time></trkpt><trkpt lat="38.0233033" lon="15.6528633"><ele>17.5</ele><time>2026-04-04T08:22:52.579Z</time></trkpt><trkpt lat="38.02322" lon="15.65272"><ele>18.25</ele><time>2026-04-04T08:22:53.58Z</time></trkpt><trkpt lat="38.0231267" lon="15.6525833"><ele>19.0</ele><time>2026-04-04T08:22:54.58Z</time></trkpt><trkpt lat="38.023035" lon="15.6524483"><ele>19.0</ele><time>2026-04-04T08:22:55.579Z</time></trkpt><trkpt lat="38.02295" lon="15.652305"><ele>19.0</ele><time>2026-04-04T08:22:56.579Z</time></trkpt><trkpt lat="38.022865" lon="15.6521683"><ele>19.0</ele><time>2026-04-04T08:22:57.579Z</time></trkpt><trkpt lat="38.02277" lon="15.6520183"><ele>19.0</ele><time>2026-04-04T08:22:58.579Z</time></trkpt><trkpt lat="38.02268" lon="15.6518717"><ele>18.333333333333332</ele><time>2026-04-04T08:22:59.579Z</time></trkpt><trkpt lat="38.0225817" lon="15.6517217"><ele>17.666666666666668</ele><time>2026-04-04T08:23:00.579Z</time></trkpt><trkpt lat="38.022485" lon="15.651575"><ele>17.0</ele><time>2026-04-04T08:23:01.579Z</time></trkpt><trkpt lat="38.0223917" lon="15.65143"><ele>19.0</ele><time>2026-04-04T08:23:02.579Z</time></trkpt><trkpt lat="38.0223017" lon="15.65128"><ele>21.0</ele><time>2026-04-04T08:23:03.579Z</time></trkpt><trkpt lat="38.02222" lon="15.6511483"><ele>23.0</ele><time>2026-04-04T08:23:04.58Z</time></trkpt><trkpt lat="38.0221317" lon="15.6510117"><ele>25.0</ele><time>2026-04-04T08:23:05.579Z</time></trkpt><trkpt lat="38.0220467" lon="15.650875"><ele>25.0</ele><time>2026-04-04T08:23:06.579Z</time></trkpt><trkpt lat="38.0219583" lon="15.6507467"><ele>25.0</ele><time>2026-04-04T08:23:07.579Z</time></trkpt><trkpt lat="38.02187" lon="15.6506033"><ele>25.0</ele><time>2026-04-04T08:23:08.579Z</time></trkpt><trkpt lat="38.0217817" lon="15.650465"><ele>25.0</ele><time>2026-04-04T08:23:09.579Z</time></trkpt><trkpt lat="38.0216917" lon="15.6503283"><ele>24.25</ele><time>2026-04-04T08:23:10.579Z</time></trkpt><trkpt lat="38.0216" lon="15.6501967"><ele>23.5</ele><time>2026-04-04T08:23:11.579Z</time></trkpt><trkpt lat="38.0215267" lon="15.6500617"><ele>22.75</ele><time>2026-04-04T08:23:12.58Z</time></trkpt><trkpt lat="38.02146" lon="15.64996"><ele>22.0</ele><time>2026-04-04T08:23:13.579Z</time></trkpt><trkpt lat="38.02141" lon="15.6498717"><ele>22.0</ele><time>2026-04-04T08:23:14.579Z</time></trkpt><trkpt lat="38.0213633" lon="15.649785"><ele>22.0</ele><time>2026-04-04T08:23:15.58Z</time></trkpt><trkpt lat="38.0213333" lon="15.6497017"><ele>22.0</ele><time>2026-04-04T08:23:16.58Z</time></trkpt><trkpt lat="38.021315" lon="15.649625"><ele>22.0</ele><time>2026-04-04T08:23:17.579Z</time></trkpt><trkpt lat="38.021315" lon="15.649485"><ele>22.0</ele><time>2026-04-04T08:23:19.579Z</time></trkpt><trkpt lat="38.0212933" lon="15.6493383"><ele>22.0</ele><time>2026-04-04T08:23:21.579Z</time></trkpt><trkpt lat="38.0212" lon="15.6492333"><ele>21.833333333333332</ele><time>2026-04-04T08:23:23.579Z</time></trkpt><trkpt lat="38.0211283" lon="15.6492083"><ele>21.666666666666664</ele><time>2026-04-04T08:23:24.579Z</time></trkpt><trkpt lat="38.0210517" lon="15.64918"><ele>21.5</ele><time>2026-04-04T08:23:25.579Z</time></trkpt><trkpt lat="38.0209733" lon="15.64913"><ele>21.333333333333332</ele><time>2026-04-04T08:23:26.58Z</time></trkpt><trkpt lat="38.0209017" lon="15.64906"><ele>21.166666666666668</ele><time>2026-04-04T08:23:27.579Z</time></trkpt><trkpt lat="38.0208267" lon="15.6489617"><ele>21.0</ele><time>2026-04-04T08:23:28.579Z</time></trkpt><trkpt lat="38.0207467" lon="15.64885"><ele>21.5</ele><time>2026-04-04T08:23:29.579Z</time></trkpt><trkpt lat="38.0206683" lon="15.6487267"><ele>22.0</ele><time>2026-04-04T08:23:30.579Z</time></trkpt><trkpt lat="38.020595" lon="15.6485967"><ele>22.5</ele><time>2026-04-04T08:23:31.579Z</time></trkpt><trkpt lat="38.0205167" lon="15.6484667"><ele>23.0</ele><time>2026-04-04T08:23:32.58Z</time></trkpt><trkpt lat="38.0204333" lon="15.64834"><ele>22.0</ele><time>2026-04-04T08:23:33.58Z</time></trkpt><trkpt lat="38.02034" lon="15.64821"><ele>21.0</ele><time>2026-04-04T08:23:34.58Z</time></trkpt><trkpt lat="38.02025" lon="15.6480717"><ele>20.0</ele><time>2026-04-04T08:23:35.579Z</time></trkpt><trkpt lat="38.0201533" lon="15.6479233"><ele>19.0</ele><time>2026-04-04T08:23:36.579Z</time></trkpt><trkpt lat="38.020055" lon="15.6477767"><ele>18.75</ele><time>2026-04-04T08:23:37.579Z</time></trkpt><trkpt lat="38.01996" lon="15.6476367"><ele>18.5</ele><time>2026-04-04T08:23:38.579Z</time></trkpt><trkpt lat="38.0198683" lon="15.6474933"><ele>18.25</ele><time>2026-04-04T08:23:39.579Z</time></trkpt><trkpt lat="38.0197617" lon="15.647345"><ele>18.0</ele><time>2026-04-04T08:23:40.579Z</time></trkpt><trkpt lat="38.0196667" lon="15.6471833"><ele>18.0</ele><time>2026-04-04T08:23:41.58Z</time></trkpt><trkpt lat="38.0195667" lon="15.6470233"><ele>18.0</ele><time>2026-04-04T08:23:42.579Z</time></trkpt><trkpt lat="38.0194633" lon="15.6468517"><ele>18.0</ele><time>2026-04-04T08:23:43.579Z</time></trkpt><trkpt lat="38.01936" lon="15.6466767"><ele>17.666666666666668</ele><time>2026-04-04T08:23:44.579Z</time></trkpt><trkpt lat="38.01924" lon="15.6464917"><ele>17.333333333333336</ele><time>2026-04-04T08:23:45.579Z</time></trkpt><trkpt lat="38.0191133" lon="15.6463067"><ele>17.0</ele><time>2026-04-04T08:23:46.58Z</time></trkpt><trkpt lat="38.01899" lon="15.6461133"><ele>18.333333333333336</ele><time>2026-04-04T08:23:47.579Z</time></trkpt><trkpt lat="38.018865" lon="15.645915"><ele>19.666666666666668</ele><time>2026-04-04T08:23:48.579Z</time></trkpt><trkpt lat="38.01875" lon="15.6456983"><ele>21.0</ele><time>2026-04-04T08:23:49.579Z</time></trkpt><trkpt lat="38.01864" lon="15.64546"><ele>21.5</ele><time>2026-04-04T08:23:50.579Z</time></trkpt><trkpt lat="38.0185433" lon="15.645195"><ele>22.0</ele><time>2026-04-04T08:23:51.579Z</time></trkpt><trkpt lat="38.0184583" lon="15.6449333"><ele>22.0</ele><time>2026-04-04T08:23:52.579Z</time></trkpt><trkpt lat="38.0183667" lon="15.644675"><ele>22.0</ele><time>2026-04-04T08:23:53.579Z</time></trkpt><trkpt lat="38.018275" lon="15.6444183"><ele>22.0</ele><time>2026-04-04T08:23:54.579Z</time></trkpt><trkpt lat="38.0181917" lon="15.6441667"><ele>21.666666666666664</ele><time>2026-04-04T08:23:55.579Z</time></trkpt><trkpt lat="38.0181017" lon="15.64391"><ele>21.333333333333332</ele><time>2026-04-04T08:23:56.58Z</time></trkpt><trkpt lat="38.0180167" lon="15.6436617"><ele>21.0</ele><time>2026-04-04T08:23:57.579Z</time></trkpt><trkpt lat="38.01793" lon="15.6434133"><ele>19.0</ele><time>2026-04-04T08:23:58.579Z</time></trkpt><trkpt lat="38.0178467" lon="15.64317"><ele>17.0</ele><time>2026-04-04T08:23:59.579Z</time></trkpt><trkpt lat="38.0177567" lon="15.6429267"><ele>15.0</ele><time>2026-04-04T08:24:00.58Z</time></trkpt><trkpt lat="38.017675" lon="15.642675"><ele>15.666666666666668</ele><time>2026-04-04T08:24:01.579Z</time></trkpt><trkpt lat="38.01758" lon="15.6424283"><ele>16.333333333333336</ele><time>2026-04-04T08:24:02.579Z</time></trkpt><trkpt lat="38.01749" lon="15.6421783"><ele>17.0</ele><time>2026-04-04T08:24:03.579Z</time></trkpt><trkpt lat="38.0174183" lon="15.6419333"><ele>17.0</ele><time>2026-04-04T08:24:04.579Z</time></trkpt><trkpt lat="38.0173283" lon="15.6416967"><ele>17.0</ele><time>2026-04-04T08:24:05.58Z</time></trkpt><trkpt lat="38.01724" lon="15.6414533"><ele>17.0</ele><time>2026-04-04T08:24:06.579Z</time></trkpt><trkpt lat="38.0171633" lon="15.641205"><ele>16.333333333333336</ele><time>2026-04-04T08:24:07.58Z</time></trkpt><trkpt lat="38.017075" lon="15.6409517"><ele>15.666666666666668</ele><time>2026-04-04T08:24:08.579Z</time></trkpt><trkpt lat="38.0169883" lon="15.6407033"><ele>15.0</ele><time>2026-04-04T08:24:09.579Z</time></trkpt><trkpt lat="38.0169" lon="15.6404567"><ele>13.0</ele><time>2026-04-04T08:24:10.579Z</time></trkpt><trkpt lat="38.01681" lon="15.6402117"><ele>11.0</ele><time>2026-04-04T08:24:11.58Z</time></trkpt><trkpt lat="38.016715" lon="15.6399717"><ele>9.0</ele><time>2026-04-04T08:24:12.579Z</time></trkpt><trkpt lat="38.0166167" lon="15.6397333"><ele>12.0</ele><time>2026-04-04T08:24:13.579Z</time></trkpt><trkpt lat="38.0165133" lon="15.6395117"><ele>15.0</ele><time>2026-04-04T08:24:14.579Z</time></trkpt><trkpt lat="38.0163867" lon="15.639295"><ele>18.0</ele><time>2026-04-04T08:24:15.58Z</time></trkpt><trkpt lat="38.01624" lon="15.6391"><ele>18.0</ele><time>2026-04-04T08:24:16.579Z</time></trkpt><trkpt lat="38.0160983" lon="15.6389283"><ele>18.0</ele><time>2026-04-04T08:24:17.579Z</time></trkpt><trkpt lat="38.0159567" lon="15.6387817"><ele>18.0</ele><time>2026-04-04T08:24:18.579Z</time></trkpt><trkpt lat="38.0158117" lon="15.638665"><ele>17.75</ele><time>2026-04-04T08:24:19.579Z</time></trkpt><trkpt lat="38.0156867" lon="15.63856"><ele>17.5</ele><time>2026-04-04T08:24:20.579Z</time></trkpt><trkpt lat="38.015575" lon="15.6384683"><ele>17.25</ele><time>2026-04-04T08:24:21.579Z</time></trkpt><trkpt lat="38.01548" lon="15.6383733"><ele>17.0</ele><time>2026-04-04T08:24:22.58Z</time></trkpt><trkpt lat="38.015405" lon="15.6382783"><ele>17.0</ele><time>2026-04-04T08:24:23.579Z</time></trkpt><trkpt lat="38.015345" lon="15.6381667"><ele>17.0</ele><time>2026-04-04T08:24:24.579Z</time></trkpt><trkpt lat="38.0152783" lon="15.6380933"><ele>17.0</ele><time>2026-04-04T08:24:25.579Z</time></trkpt><trkpt lat="38.015205" lon="15.638055"><ele>17.0</ele><time>2026-04-04T08:24:26.579Z</time></trkpt><trkpt lat="38.0151283" lon="15.6380617"><ele>17.0</ele><time>2026-04-04T08:24:27.58Z</time></trkpt><trkpt lat="38.0150533" lon="15.638105"><ele>17.0</ele><time>2026-04-04T08:24:28.579Z</time></trkpt><trkpt lat="38.01496" lon="15.6381783"><ele>17.5</ele><time>2026-04-04T08:24:29.579Z</time></trkpt><trkpt lat="38.0148517" lon="15.638245"><ele>18.0</ele><time>2026-04-04T08:24:30.579Z</time></trkpt><trkpt lat="38.0147333" lon="15.6382817"><ele>18.5</ele><time>2026-04-04T08:24:31.579Z</time></trkpt><trkpt lat="38.0146067" lon="15.6383183"><ele>19.0</ele><time>2026-04-04T08:24:32.579Z</time></trkpt><trkpt lat="38.014465" lon="15.638355"><ele>19.0</ele><time>2026-04-04T08:24:33.579Z</time></trkpt><trkpt lat="38.0143117" lon="15.6383933"><ele>19.0</ele><time>2026-04-04T08:24:34.579Z</time></trkpt><trkpt lat="38.014145" lon="15.6384317"><ele>19.0</ele><time>2026-04-04T08:24:35.58Z</time></trkpt><trkpt lat="38.0139767" lon="15.638485"><ele>18.0</ele><time>2026-04-04T08:24:36.579Z</time></trkpt><trkpt lat="38.0137933" lon="15.638545"><ele>17.0</ele><time>2026-04-04T08:24:37.58Z</time></trkpt><trkpt lat="38.0136067" lon="15.6386083"><ele>16.0</ele><time>2026-04-04T08:24:38.579Z</time></trkpt><trkpt lat="38.0134167" lon="15.6386733"><ele>16.0</ele><time>2026-04-04T08:24:39.579Z</time></trkpt><trkpt lat="38.0132217" lon="15.6387433"><ele>16.0</ele><time>2026-04-04T08:24:40.58Z</time></trkpt><trkpt lat="38.01301" lon="15.6388217"><ele>16.0</ele><time>2026-04-04T08:24:41.579Z</time></trkpt><trkpt lat="38.012795" lon="15.6389"><ele>16.0</ele><time>2026-04-04T08:24:42.579Z</time></trkpt><trkpt lat="38.01258" lon="15.6389717"><ele>16.0</ele><time>2026-04-04T08:24:43.579Z</time></trkpt><trkpt lat="38.0123483" lon="15.6390483"><ele>17.0</ele><time>2026-04-04T08:24:44.579Z</time></trkpt><trkpt lat="38.01212" lon="15.63913"><ele>18.0</ele><time>2026-04-04T08:24:45.579Z</time></trkpt><trkpt lat="38.0118883" lon="15.6392117"><ele>18.5</ele><time>2026-04-04T08:24:46.579Z</time></trkpt><trkpt lat="38.0116383" lon="15.63929"><ele>19.0</ele><time>2026-04-04T08:24:47.579Z</time></trkpt><trkpt lat="38.0113833" lon="15.6393767"><ele>19.0</ele><time>2026-04-04T08:24:48.579Z</time></trkpt><trkpt lat="38.0111233" lon="15.6394667"><ele>19.0</ele><time>2026-04-04T08:24:49.58Z</time></trkpt><trkpt lat="38.0108517" lon="15.639555"><ele>23.5</ele><time>2026-04-04T08:24:50.579Z</time></trkpt><trkpt lat="38.01057" lon="15.6396567"><ele>28.0</ele><time>2026-04-04T08:24:51.579Z</time></trkpt><trkpt lat="38.0102933" lon="15.6397533"><ele>28.0</ele><time>2026-04-04T08:24:52.579Z</time></trkpt><trkpt lat="38.010025" lon="15.6398433"><ele>28.0</ele><time>2026-04-04T08:24:53.579Z</time></trkpt><trkpt lat="38.0097667" lon="15.6399267"><ele>26.0</ele><time>2026-04-04T08:24:54.579Z</time></trkpt><trkpt lat="38.0095133" lon="15.64001"><ele>24.0</ele><time>2026-04-04T08:24:55.579Z</time></trkpt><trkpt lat="38.0092667" lon="15.64009"><ele>20.5</ele><time>2026-04-04T08:24:56.58Z</time></trkpt><trkpt lat="38.0090233" lon="15.6401733"><ele>17.0</ele><time>2026-04-04T08:24:57.579Z</time></trkpt><trkpt lat="38.008795" lon="15.6402633"><ele>20.5</ele><time>2026-04-04T08:24:58.579Z</time></trkpt><trkpt lat="38.0085533" lon="15.64034"><ele>24.0</ele><time>2026-04-04T08:24:59.579Z</time></trkpt><trkpt lat="38.0083067" lon="15.6404183"><ele>24.0</ele><time>2026-04-04T08:25:00.579Z</time></trkpt><trkpt lat="38.0080717" lon="15.6405017"><ele>24.0</ele><time>2026-04-04T08:25:01.579Z</time></trkpt><trkpt lat="38.0078417" lon="15.64059"><ele>24.0</ele><time>2026-04-04T08:25:02.579Z</time></trkpt><trkpt lat="38.007615" lon="15.64066"><ele>24.0</ele><time>2026-04-04T08:25:03.58Z</time></trkpt><trkpt lat="38.0073867" lon="15.6407283"><ele>22.5</ele><time>2026-04-04T08:25:04.579Z</time></trkpt><trkpt lat="38.0071667" lon="15.640805"><ele>21.0</ele><time>2026-04-04T08:25:05.579Z</time></trkpt><trkpt lat="38.0069433" lon="15.6408833"><ele>21.0</ele><time>2026-04-04T08:25:06.579Z</time></trkpt><trkpt lat="38.0067267" lon="15.640955"><ele>21.0</ele><time>2026-04-04T08:25:07.58Z</time></trkpt><trkpt lat="38.006515" lon="15.6410217"><ele>21.0</ele><time>2026-04-04T08:25:08.579Z</time></trkpt><trkpt lat="38.0063017" lon="15.64109"><ele>22.666666666666664</ele><time>2026-04-04T08:25:09.579Z</time></trkpt><trkpt lat="38.0060817" lon="15.6411633"><ele>24.333333333333332</ele><time>2026-04-04T08:25:10.579Z</time></trkpt><trkpt lat="38.005875" lon="15.6412267"><ele>26.0</ele><time>2026-04-04T08:25:11.579Z</time></trkpt><trkpt lat="38.0056633" lon="15.6413033"><ele>26.0</ele><time>2026-04-04T08:25:12.579Z</time></trkpt><trkpt lat="38.005455" lon="15.6413817"><ele>26.0</ele><time>2026-04-04T08:25:13.579Z</time></trkpt><trkpt lat="38.0052417" lon="15.6414517"><ele>26.0</ele><time>2026-04-04T08:25:14.579Z</time></trkpt><trkpt lat="38.0050167" lon="15.641535"><ele>26.0</ele><time>2026-04-04T08:25:15.579Z</time></trkpt><trkpt lat="38.0048" lon="15.6416117"><ele>26.0</ele><time>2026-04-04T08:25:16.579Z</time></trkpt><trkpt lat="38.0045933" lon="15.6416867"><ele>26.0</ele><time>2026-04-04T08:25:17.58Z</time></trkpt><trkpt lat="38.004385" lon="15.6417533"><ele>26.0</ele><time>2026-04-04T08:25:18.579Z</time></trkpt><trkpt lat="38.0041733" lon="15.64182"><ele>26.0</ele><time>2026-04-04T08:25:19.579Z</time></trkpt><trkpt lat="38.0039617" lon="15.6418917"><ele>26.0</ele><time>2026-04-04T08:25:20.579Z</time></trkpt><trkpt lat="38.003755" lon="15.64197"><ele>25.333333333333332</ele><time>2026-04-04T08:25:21.579Z</time></trkpt><trkpt lat="38.003545" lon="15.6420467"><ele>24.666666666666664</ele><time>2026-04-04T08:25:22.579Z</time></trkpt><trkpt lat="38.0033317" lon="15.642115"><ele>24.0</ele><time>2026-04-04T08:25:23.579Z</time></trkpt><trkpt lat="38.0031233" lon="15.6421883"><ele>24.0</ele><time>2026-04-04T08:25:24.58Z</time></trkpt><trkpt lat="38.0029083" lon="15.642265"><ele>24.0</ele><time>2026-04-04T08:25:25.58Z</time></trkpt><trkpt lat="38.0026917" lon="15.6423333"><ele>24.0</ele><time>2026-04-04T08:25:26.579Z</time></trkpt><trkpt lat="38.0024717" lon="15.64241"><ele>22.0</ele><time>2026-04-04T08:25:27.579Z</time></trkpt><trkpt lat="38.0022533" lon="15.6424867"><ele>20.0</ele><time>2026-04-04T08:25:28.58Z</time></trkpt><trkpt lat="38.0020317" lon="15.6425633"><ele>20.0</ele><time>2026-04-04T08:25:29.579Z</time></trkpt><trkpt lat="38.00181" lon="15.6426283"><ele>20.0</ele><time>2026-04-04T08:25:30.579Z</time></trkpt><trkpt lat="38.0016017" lon="15.6427017"><ele>20.0</ele><time>2026-04-04T08:25:31.58Z</time></trkpt><trkpt lat="38.0013883" lon="15.6427733"><ele>20.333333333333336</ele><time>2026-04-04T08:25:32.579Z</time></trkpt><trkpt lat="38.0011767" lon="15.6428433"><ele>20.666666666666668</ele><time>2026-04-04T08:25:33.58Z</time></trkpt><trkpt lat="38.0009683" lon="15.64291"><ele>21.0</ele><time>2026-04-04T08:25:34.579Z</time></trkpt><trkpt lat="38.00076" lon="15.6429767"><ele>20.333333333333332</ele><time>2026-04-04T08:25:35.58Z</time></trkpt><trkpt lat="38.000555" lon="15.6430483"><ele>19.666666666666664</ele><time>2026-04-04T08:25:36.579Z</time></trkpt><trkpt lat="38.000345" lon="15.6431183"><ele>19.0</ele><time>2026-04-04T08:25:37.58Z</time></trkpt><trkpt lat="38.0001433" lon="15.643195"><ele>19.0</ele><time>2026-04-04T08:25:38.58Z</time></trkpt><trkpt lat="37.9999433" lon="15.6432733"><ele>19.0</ele><time>2026-04-04T08:25:39.58Z</time></trkpt><trkpt lat="37.9997467" lon="15.6433617"><ele>19.0</ele><time>2026-04-04T08:25:40.579Z</time></trkpt><trkpt lat="37.9995517" lon="15.6434567"><ele>19.0</ele><time>2026-04-04T08:25:41.579Z</time></trkpt><trkpt lat="37.9993633" lon="15.6435633"><ele>19.0</ele><time>2026-04-04T08:25:42.579Z</time></trkpt><trkpt lat="37.9991683" lon="15.643675"><ele>19.0</ele><time>2026-04-04T08:25:43.579Z</time></trkpt><trkpt lat="37.9989717" lon="15.6438033"><ele>20.666666666666664</ele><time>2026-04-04T08:25:44.579Z</time></trkpt><trkpt lat="37.9987767" lon="15.64393"><ele>22.333333333333332</ele><time>2026-04-04T08:25:45.579Z</time></trkpt><trkpt lat="37.99858" lon="15.6440583"><ele>24.0</ele><time>2026-04-04T08:25:46.579Z</time></trkpt><trkpt lat="37.9983917" lon="15.6442"><ele>24.0</ele><time>2026-04-04T08:25:47.579Z</time></trkpt><trkpt lat="37.9982017" lon="15.6443383"><ele>24.0</ele><time>2026-04-04T08:25:48.579Z</time></trkpt><trkpt lat="37.9980183" lon="15.6444683"><ele>24.0</ele><time>2026-04-04T08:25:49.58Z</time></trkpt><trkpt lat="37.9978333" lon="15.6446033"><ele>24.0</ele><time>2026-04-04T08:25:50.579Z</time></trkpt><trkpt lat="37.9976483" lon="15.6447417"><ele>24.0</ele><time>2026-04-04T08:25:51.579Z</time></trkpt><trkpt lat="37.9974567" lon="15.64487"><ele>24.0</ele><time>2026-04-04T08:25:52.58Z</time></trkpt><trkpt lat="37.9972633" lon="15.6450033"><ele>23.666666666666668</ele><time>2026-04-04T08:25:53.579Z</time></trkpt><trkpt lat="37.9970767" lon="15.6451433"><ele>23.333333333333336</ele><time>2026-04-04T08:25:54.58Z</time></trkpt><trkpt lat="37.9968833" lon="15.645285"><ele>23.0</ele><time>2026-04-04T08:25:55.579Z</time></trkpt><trkpt lat="37.99668" lon="15.6454233"><ele>21.0</ele><time>2026-04-04T08:25:56.579Z</time></trkpt><trkpt lat="37.9964783" lon="15.6455533"><ele>19.0</ele><time>2026-04-04T08:25:57.579Z</time></trkpt><trkpt lat="37.996275" lon="15.6456917"><ele>19.0</ele><time>2026-04-04T08:25:58.579Z</time></trkpt><trkpt lat="37.996065" lon="15.6458383"><ele>19.0</ele><time>2026-04-04T08:25:59.579Z</time></trkpt><trkpt lat="37.9958517" lon="15.6459817"><ele>19.5</ele><time>2026-04-04T08:26:00.58Z</time></trkpt><trkpt lat="37.9956533" lon="15.6461167"><ele>20.0</ele><time>2026-04-04T08:26:01.58Z</time></trkpt><trkpt lat="37.9954533" lon="15.6462617"><ele>20.0</ele><time>2026-04-04T08:26:02.579Z</time></trkpt><trkpt lat="37.9952533" lon="15.6463983"><ele>20.0</ele><time>2026-04-04T08:26:03.58Z</time></trkpt><trkpt lat="37.99505" lon="15.6465367"><ele>19.0</ele><time>2026-04-04T08:26:04.579Z</time></trkpt><trkpt lat="37.9948567" lon="15.6466667"><ele>18.0</ele><time>2026-04-04T08:26:05.579Z</time></trkpt><trkpt lat="37.994665" lon="15.6467983"><ele>17.0</ele><time>2026-04-04T08:26:06.579Z</time></trkpt><trkpt lat="37.9944683" lon="15.64694"><ele>18.666666666666668</ele><time>2026-04-04T08:26:07.579Z</time></trkpt><trkpt lat="37.9942717" lon="15.6470717"><ele>20.333333333333332</ele><time>2026-04-04T08:26:08.58Z</time></trkpt><trkpt lat="37.9940783" lon="15.6472083"><ele>22.0</ele><time>2026-04-04T08:26:09.58Z</time></trkpt><trkpt lat="37.9938917" lon="15.6473467"><ele>22.0</ele><time>2026-04-04T08:26:10.58Z</time></trkpt><trkpt lat="37.993695" lon="15.6474683"><ele>22.0</ele><time>2026-04-04T08:26:11.579Z</time></trkpt><trkpt lat="37.9935067" lon="15.647595"><ele>22.0</ele><time>2026-04-04T08:26:12.579Z</time></trkpt><trkpt lat="37.9933133" lon="15.6477217"><ele>23.666666666666664</ele><time>2026-04-04T08:26:13.579Z</time></trkpt><trkpt lat="37.99312" lon="15.6478517"><ele>25.333333333333332</ele><time>2026-04-04T08:26:14.58Z</time></trkpt><trkpt lat="37.9929283" lon="15.6479833"><ele>27.0</ele><time>2026-04-04T08:26:15.579Z</time></trkpt><trkpt lat="37.9927333" lon="15.6481233"><ele>27.0</ele><time>2026-04-04T08:26:16.579Z</time></trkpt><trkpt lat="37.99254" lon="15.6482617"><ele>27.0</ele><time>2026-04-04T08:26:17.579Z</time></trkpt><trkpt lat="37.9923533" lon="15.6483833"><ele>27.0</ele><time>2026-04-04T08:26:18.579Z</time></trkpt><trkpt lat="37.9921667" lon="15.6485233"><ele>26.666666666666664</ele><time>2026-04-04T08:26:19.579Z</time></trkpt><trkpt lat="37.9919783" lon="15.648675"><ele>26.333333333333332</ele><time>2026-04-04T08:26:20.579Z</time></trkpt><trkpt lat="37.9917917" lon="15.6488"><ele>26.0</ele><time>2026-04-04T08:26:21.579Z</time></trkpt><trkpt lat="37.9916083" lon="15.6489183"><ele>26.0</ele><time>2026-04-04T08:26:22.579Z</time></trkpt><trkpt lat="37.9914333" lon="15.6490433"><ele>26.0</ele><time>2026-04-04T08:26:23.58Z</time></trkpt><trkpt lat="37.9912483" lon="15.64917"><ele>26.0</ele><time>2026-04-04T08:26:24.58Z</time></trkpt><trkpt lat="37.9910683" lon="15.64929"><ele>26.0</ele><time>2026-04-04T08:26:25.579Z</time></trkpt><trkpt lat="37.9908967" lon="15.6494133"><ele>26.0</ele><time>2026-04-04T08:26:26.579Z</time></trkpt><trkpt lat="37.9907217" lon="15.6495283"><ele>26.0</ele><time>2026-04-04T08:26:27.579Z</time></trkpt><trkpt lat="37.9905483" lon="15.649635"><ele>26.0</ele><time>2026-04-04T08:26:28.579Z</time></trkpt><trkpt lat="37.9903767" lon="15.6497567"><ele>26.0</ele><time>2026-04-04T08:26:29.579Z</time></trkpt><trkpt lat="37.9902117" lon="15.6498783"><ele>26.0</ele><time>2026-04-04T08:26:30.58Z</time></trkpt><trkpt lat="37.9900417" lon="15.64999"><ele>23.333333333333332</ele><time>2026-04-04T08:26:31.579Z</time></trkpt><trkpt lat="37.9898883" lon="15.65009"><ele>20.666666666666664</ele><time>2026-04-04T08:26:32.579Z</time></trkpt><trkpt lat="37.9897417" lon="15.6501917"><ele>18.0</ele><time>2026-04-04T08:26:33.579Z</time></trkpt><trkpt lat="37.989605" lon="15.65029"><ele>17.666666666666668</ele><time>2026-04-04T08:26:34.579Z</time></trkpt><trkpt lat="37.989465" lon="15.6503783"><ele>17.333333333333336</ele><time>2026-04-04T08:26:35.579Z</time></trkpt><trkpt lat="37.9893233" lon="15.6504717"><ele>17.0</ele><time>2026-04-04T08:26:36.58Z</time></trkpt><trkpt lat="37.98917" lon="15.6505817"><ele>17.0</ele><time>2026-04-04T08:26:37.58Z</time></trkpt><trkpt lat="37.9890117" lon="15.6506783"><ele>17.0</ele><time>2026-04-04T08:26:38.579Z</time></trkpt><trkpt lat="37.9888567" lon="15.6507883"><ele>17.0</ele><time>2026-04-04T08:26:39.58Z</time></trkpt><trkpt lat="37.9887083" lon="15.6509067"><ele>17.0</ele><time>2026-04-04T08:26:40.579Z</time></trkpt><trkpt lat="37.988555" lon="15.6510133"><ele>17.0</ele><time>2026-04-04T08:26:41.58Z</time></trkpt><trkpt lat="37.988405" lon="15.6511267"><ele>17.0</ele><time>2026-04-04T08:26:42.579Z</time></trkpt><trkpt lat="37.98826" lon="15.6512283"><ele>18.0</ele><time>2026-04-04T08:26:43.579Z</time></trkpt><trkpt lat="37.9881133" lon="15.65133"><ele>19.0</ele><time>2026-04-04T08:26:44.579Z</time></trkpt><trkpt lat="37.9879667" lon="15.6514367"><ele>20.0</ele><time>2026-04-04T08:26:45.579Z</time></trkpt><trkpt lat="37.9878083" lon="15.6515367"><ele>20.0</ele><time>2026-04-04T08:26:46.579Z</time></trkpt><trkpt lat="37.9876517" lon="15.6516333"><ele>20.0</ele><time>2026-04-04T08:26:47.58Z</time></trkpt><trkpt lat="37.9874983" lon="15.651745"><ele>20.0</ele><time>2026-04-04T08:26:48.579Z</time></trkpt><trkpt lat="37.987345" lon="15.6518433"><ele>19.333333333333336</ele><time>2026-04-04T08:26:49.579Z</time></trkpt><trkpt lat="37.987195" lon="15.6519483"><ele>18.666666666666668</ele><time>2026-04-04T08:26:50.579Z</time></trkpt><trkpt lat="37.98705" lon="15.6520433"><ele>18.0</ele><time>2026-04-04T08:26:51.579Z</time></trkpt><trkpt lat="37.9869083" lon="15.6521367"><ele>18.0</ele><time>2026-04-04T08:26:52.579Z</time></trkpt><trkpt lat="37.9867583" lon="15.6522367"><ele>18.0</ele><time>2026-04-04T08:26:53.579Z</time></trkpt><trkpt lat="37.9866167" lon="15.6523517"><ele>18.0</ele><time>2026-04-04T08:26:54.579Z</time></trkpt><trkpt lat="37.9864783" lon="15.6524833"><ele>18.666666666666668</ele><time>2026-04-04T08:26:55.579Z</time></trkpt><trkpt lat="37.98635" lon="15.6526117"><ele>19.333333333333336</ele><time>2026-04-04T08:26:56.579Z</time></trkpt><trkpt lat="37.9862333" lon="15.652725"><ele>20.0</ele><time>2026-04-04T08:26:57.58Z</time></trkpt><trkpt lat="37.986115" lon="15.6528267"><ele>20.0</ele><time>2026-04-04T08:26:58.579Z</time></trkpt><trkpt lat="37.9860017" lon="15.6529333"><ele>20.0</ele><time>2026-04-04T08:26:59.579Z</time></trkpt><trkpt lat="37.9858933" lon="15.6530433"><ele>20.0</ele><time>2026-04-04T08:27:00.579Z</time></trkpt><trkpt lat="37.9857817" lon="15.6531517"><ele>20.0</ele><time>2026-04-04T08:27:01.579Z</time></trkpt><trkpt lat="37.98567" lon="15.653255"><ele>19.75</ele><time>2026-04-04T08:27:02.579Z</time></trkpt><trkpt lat="37.9855567" lon="15.6533583"><ele>19.5</ele><time>2026-04-04T08:27:03.579Z</time></trkpt><trkpt lat="37.9854317" lon="15.65347"><ele>19.25</ele><time>2026-04-04T08:27:04.579Z</time></trkpt><trkpt lat="37.9853283" lon="15.6535817"><ele>19.0</ele><time>2026-04-04T08:27:05.579Z</time></trkpt><trkpt lat="37.9852183" lon="15.6536933"><ele>19.0</ele><time>2026-04-04T08:27:06.58Z</time></trkpt><trkpt lat="37.98509" lon="15.6538067"><ele>19.0</ele><time>2026-04-04T08:27:07.579Z</time></trkpt><trkpt lat="37.984975" lon="15.6539117"><ele>19.0</ele><time>2026-04-04T08:27:08.579Z</time></trkpt><trkpt lat="37.9848517" lon="15.6540083"><ele>19.0</ele><time>2026-04-04T08:27:09.58Z</time></trkpt><trkpt lat="37.9847133" lon="15.6541083"><ele>17.333333333333332</ele><time>2026-04-04T08:27:10.579Z</time></trkpt><trkpt lat="37.9845833" lon="15.6542217"><ele>15.666666666666668</ele><time>2026-04-04T08:27:11.579Z</time></trkpt><trkpt lat="37.9844567" lon="15.6543133"><ele>14.0</ele><time>2026-04-04T08:27:12.579Z</time></trkpt><trkpt lat="37.984325" lon="15.6544"><ele>14.75</ele><time>2026-04-04T08:27:13.579Z</time></trkpt><trkpt lat="37.9842033" lon="15.6544783"><ele>15.5</ele><time>2026-04-04T08:27:14.58Z</time></trkpt><trkpt lat="37.9840733" lon="15.6545467"><ele>16.25</ele><time>2026-04-04T08:27:15.579Z</time></trkpt><trkpt lat="37.9839517" lon="15.6546183"><ele>17.0</ele><time>2026-04-04T08:27:16.579Z</time></trkpt><trkpt lat="37.9838217" lon="15.6547"><ele>17.0</ele><time>2026-04-04T08:27:17.58Z</time></trkpt><trkpt lat="37.983685" lon="15.6547867"><ele>17.0</ele><time>2026-04-04T08:27:18.579Z</time></trkpt><trkpt lat="37.9835717" lon="15.6548917"><ele>17.0</ele><time>2026-04-04T08:27:19.579Z</time></trkpt><trkpt lat="37.98344" lon="15.654995"><ele>17.0</ele><time>2026-04-04T08:27:20.579Z</time></trkpt><trkpt lat="37.9833117" lon="15.6551"><ele>16.75</ele><time>2026-04-04T08:27:21.579Z</time></trkpt><trkpt lat="37.9831983" lon="15.6552067"><ele>16.5</ele><time>2026-04-04T08:27:22.579Z</time></trkpt><trkpt lat="37.98309" lon="15.6553233"><ele>16.25</ele><time>2026-04-04T08:27:23.579Z</time></trkpt><trkpt lat="37.9829883" lon="15.6554433"><ele>16.0</ele><time>2026-04-04T08:27:24.579Z</time></trkpt><trkpt lat="37.9828883" lon="15.65555"><ele>16.0</ele><time>2026-04-04T08:27:25.58Z</time></trkpt><trkpt lat="37.9827867" lon="15.6556467"><ele>16.0</ele><time>2026-04-04T08:27:26.579Z</time></trkpt><trkpt lat="37.9826933" lon="15.6557367"><ele>16.0</ele><time>2026-04-04T08:27:27.58Z</time></trkpt><trkpt lat="37.9826067" lon="15.655825"><ele>16.0</ele><time>2026-04-04T08:27:28.579Z</time></trkpt><trkpt lat="37.9825283" lon="15.6559083"><ele>16.0</ele><time>2026-04-04T08:27:29.579Z</time></trkpt><trkpt lat="37.9824433" lon="15.6559833"><ele>16.0</ele><time>2026-04-04T08:27:30.58Z</time></trkpt><trkpt lat="37.982355" lon="15.6560433"><ele>16.0</ele><time>2026-04-04T08:27:31.579Z</time></trkpt><trkpt lat="37.9822717" lon="15.6561033"><ele>16.0</ele><time>2026-04-04T08:27:32.579Z</time></trkpt><trkpt lat="37.9821867" lon="15.6561733"><ele>16.0</ele><time>2026-04-04T08:27:33.579Z</time></trkpt><trkpt lat="37.98211" lon="15.6562483"><ele>16.0</ele><time>2026-04-04T08:27:34.579Z</time></trkpt><trkpt lat="37.9820417" lon="15.6563417"><ele>16.0</ele><time>2026-04-04T08:27:35.579Z</time></trkpt><trkpt lat="37.98197" lon="15.6564567"><ele>16.0</ele><time>2026-04-04T08:27:36.579Z</time></trkpt><trkpt lat="37.9818833" lon="15.65657"><ele>16.0</ele><time>2026-04-04T08:27:37.58Z</time></trkpt><trkpt lat="37.9817883" lon="15.656685"><ele>16.0</ele><time>2026-04-04T08:27:38.579Z</time></trkpt><trkpt lat="37.981685" lon="15.6568"><ele>16.0</ele><time>2026-04-04T08:27:39.58Z</time></trkpt><trkpt lat="37.9815667" lon="15.6569133"><ele>16.0</ele><time>2026-04-04T08:27:40.58Z</time></trkpt><trkpt lat="37.981455" lon="15.65705"><ele>16.0</ele><time>2026-04-04T08:27:41.579Z</time></trkpt><trkpt lat="37.9813433" lon="15.6571767"><ele>15.666666666666666</ele><time>2026-04-04T08:27:42.579Z</time></trkpt><trkpt lat="37.981225" lon="15.6573033"><ele>15.333333333333332</ele><time>2026-04-04T08:27:43.579Z</time></trkpt><trkpt lat="37.9811083" lon="15.657425"><ele>15.0</ele><time>2026-04-04T08:27:44.579Z</time></trkpt><trkpt lat="37.98099" lon="15.6575633"><ele>15.0</ele><time>2026-04-04T08:27:45.58Z</time></trkpt><trkpt lat="37.9808683" lon="15.657705"><ele>15.0</ele><time>2026-04-04T08:27:46.579Z</time></trkpt><trkpt lat="37.9807433" lon="15.6578367"><ele>15.0</ele><time>2026-04-04T08:27:47.579Z</time></trkpt><trkpt lat="37.9806183" lon="15.6579767"><ele>14.666666666666668</ele><time>2026-04-04T08:27:48.579Z</time></trkpt><trkpt lat="37.9804917" lon="15.6581117"><ele>14.333333333333334</ele><time>2026-04-04T08:27:49.579Z</time></trkpt><trkpt lat="37.9803683" lon="15.6582567"><ele>14.0</ele><time>2026-04-04T08:27:50.579Z</time></trkpt><trkpt lat="37.980255" lon="15.6583933"><ele>14.0</ele><time>2026-04-04T08:27:51.579Z</time></trkpt><trkpt lat="37.9801467" lon="15.6585483"><ele>14.0</ele><time>2026-04-04T08:27:52.579Z</time></trkpt><trkpt lat="37.9800417" lon="15.65871"><ele>14.0</ele><time>2026-04-04T08:27:53.58Z</time></trkpt><trkpt lat="37.9799233" lon="15.6588867"><ele>12.666666666666668</ele><time>2026-04-04T08:27:54.58Z</time></trkpt><trkpt lat="37.9798267" lon="15.65906"><ele>11.333333333333334</ele><time>2026-04-04T08:27:55.579Z</time></trkpt><trkpt lat="37.9797233" lon="15.6592267"><ele>10.0</ele><time>2026-04-04T08:27:56.579Z</time></trkpt><trkpt lat="37.97962" lon="15.6593817"><ele>10.666666666666668</ele><time>2026-04-04T08:27:57.579Z</time></trkpt><trkpt lat="37.9795117" lon="15.6595367"><ele>11.333333333333334</ele><time>2026-04-04T08:27:58.58Z</time></trkpt><trkpt lat="37.9793967" lon="15.6596867"><ele>12.0</ele><time>2026-04-04T08:27:59.58Z</time></trkpt><trkpt lat="37.9792683" lon="15.6598283"><ele>12.333333333333332</ele><time>2026-04-04T08:28:00.579Z</time></trkpt><trkpt lat="37.979135" lon="15.6599583"><ele>12.666666666666666</ele><time>2026-04-04T08:28:01.579Z</time></trkpt><trkpt lat="37.9789967" lon="15.6600767"><ele>13.0</ele><time>2026-04-04T08:28:02.579Z</time></trkpt><trkpt lat="37.9788567" lon="15.6601767"><ele>13.0</ele><time>2026-04-04T08:28:03.579Z</time></trkpt><trkpt lat="37.978715" lon="15.6602867"><ele>13.0</ele><time>2026-04-04T08:28:04.58Z</time></trkpt><trkpt lat="37.978565" lon="15.6603917"><ele>13.0</ele><time>2026-04-04T08:28:05.579Z</time></trkpt><trkpt lat="37.9784183" lon="15.66049"><ele>13.0</ele><time>2026-04-04T08:28:06.58Z</time></trkpt><trkpt lat="37.9782733" lon="15.6605867"><ele>13.0</ele><time>2026-04-04T08:28:07.579Z</time></trkpt><trkpt lat="37.9781317" lon="15.6606717"><ele>13.0</ele><time>2026-04-04T08:28:08.579Z</time></trkpt><trkpt lat="37.97801" lon="15.66075"><ele>13.0</ele><time>2026-04-04T08:28:09.579Z</time></trkpt><trkpt lat="37.9778767" lon="15.6608417"><ele>13.0</ele><time>2026-04-04T08:28:10.579Z</time></trkpt><trkpt lat="37.9777567" lon="15.6609133"><ele>13.0</ele><time>2026-04-04T08:28:11.579Z</time></trkpt><trkpt lat="37.9776383" lon="15.6609783"><ele>13.0</ele><time>2026-04-04T08:28:12.58Z</time></trkpt><trkpt lat="37.977525" lon="15.6610617"><ele>13.25</ele><time>2026-04-04T08:28:13.579Z</time></trkpt><trkpt lat="37.9773917" lon="15.66114"><ele>13.5</ele><time>2026-04-04T08:28:14.58Z</time></trkpt><trkpt lat="37.977265" lon="15.6612217"><ele>13.75</ele><time>2026-04-04T08:28:15.579Z</time></trkpt><trkpt lat="37.9771433" lon="15.6612983"><ele>14.0</ele><time>2026-04-04T08:28:16.579Z</time></trkpt><trkpt lat="37.97701" lon="15.6613883"><ele>14.0</ele><time>2026-04-04T08:28:17.579Z</time></trkpt><trkpt lat="37.976895" lon="15.6614583"><ele>14.0</ele><time>2026-04-04T08:28:18.579Z</time></trkpt><trkpt lat="37.9767783" lon="15.661535"><ele>14.0</ele><time>2026-04-04T08:28:19.58Z</time></trkpt><trkpt lat="37.976665" lon="15.66161"><ele>14.0</ele><time>2026-04-04T08:28:20.579Z</time></trkpt><trkpt lat="37.97655" lon="15.6616883"><ele>14.0</ele><time>2026-04-04T08:28:21.579Z</time></trkpt><trkpt lat="37.9764417" lon="15.661765"><ele>14.0</ele><time>2026-04-04T08:28:22.579Z</time></trkpt><trkpt lat="37.9763283" lon="15.66183"><ele>14.0</ele><time>2026-04-04T08:28:23.579Z</time></trkpt><trkpt lat="37.9762233" lon="15.661905"><ele>14.0</ele><time>2026-04-04T08:28:24.579Z</time></trkpt><trkpt lat="37.9761317" lon="15.6619783"><ele>14.2</ele><time>2026-04-04T08:28:25.579Z</time></trkpt><trkpt lat="37.976045" lon="15.6620383"><ele>14.399999999999999</ele><time>2026-04-04T08:28:26.579Z</time></trkpt><trkpt lat="37.9759567" lon="15.6620917"><ele>14.6</ele><time>2026-04-04T08:28:27.579Z</time></trkpt><trkpt lat="37.9758617" lon="15.6621417"><ele>14.8</ele><time>2026-04-04T08:28:28.579Z</time></trkpt><trkpt lat="37.9757667" lon="15.662185"><ele>15.0</ele><time>2026-04-04T08:28:29.579Z</time></trkpt><trkpt lat="37.9756817" lon="15.66221"><ele>15.0</ele><time>2026-04-04T08:28:30.579Z</time></trkpt><trkpt lat="37.975595" lon="15.6622167"><ele>15.0</ele><time>2026-04-04T08:28:31.579Z</time></trkpt><trkpt lat="37.975505" lon="15.6622083"><ele>15.0</ele><time>2026-04-04T08:28:32.579Z</time></trkpt><trkpt lat="37.9754317" lon="15.66216"><ele>15.0</ele><time>2026-04-04T08:28:33.579Z</time></trkpt><trkpt lat="37.9753567" lon="15.6621183"><ele>15.0</ele><time>2026-04-04T08:28:34.579Z</time></trkpt><trkpt lat="37.9752883" lon="15.6620983"><ele>15.0</ele><time>2026-04-04T08:28:35.579Z</time></trkpt><trkpt lat="37.97522" lon="15.6621133"><ele>15.0</ele><time>2026-04-04T08:28:36.579Z</time></trkpt><trkpt lat="37.9751533" lon="15.6621717"><ele>15.0</ele><time>2026-04-04T08:28:37.579Z</time></trkpt><trkpt lat="37.9750833" lon="15.66225"><ele>15.0</ele><time>2026-04-04T08:28:38.579Z</time></trkpt><trkpt lat="37.975005" lon="15.6623167"><ele>15.0</ele><time>2026-04-04T08:28:39.58Z</time></trkpt><trkpt lat="37.97492" lon="15.6623583"><ele>15.0</ele><time>2026-04-04T08:28:40.579Z</time></trkpt><trkpt lat="37.9748167" lon="15.6623833"><ele>15.0</ele><time>2026-04-04T08:28:41.579Z</time></trkpt><trkpt lat="37.97471" lon="15.6624117"><ele>15.0</ele><time>2026-04-04T08:28:42.579Z</time></trkpt><trkpt lat="37.974595" lon="15.6624283"><ele>15.0</ele><time>2026-04-04T08:28:43.579Z</time></trkpt><trkpt lat="37.9744683" lon="15.6624617"><ele>15.0</ele><time>2026-04-04T08:28:44.579Z</time></trkpt><trkpt lat="37.9743233" lon="15.662495"><ele>14.25</ele><time>2026-04-04T08:28:45.579Z</time></trkpt><trkpt lat="37.9741817" lon="15.66254"><ele>13.5</ele><time>2026-04-04T08:28:46.58Z</time></trkpt><trkpt lat="37.9740333" lon="15.66259"><ele>12.75</ele><time>2026-04-04T08:28:47.579Z</time></trkpt><trkpt lat="37.97389" lon="15.6626333"><ele>12.0</ele><time>2026-04-04T08:28:48.579Z</time></trkpt><trkpt lat="37.9737567" lon="15.6626917"><ele>12.0</ele><time>2026-04-04T08:28:49.579Z</time></trkpt><trkpt lat="37.9736283" lon="15.662765"><ele>12.0</ele><time>2026-04-04T08:28:50.579Z</time></trkpt><trkpt lat="37.9734983" lon="15.66285"><ele>12.0</ele><time>2026-04-04T08:28:51.579Z</time></trkpt><trkpt lat="37.9733783" lon="15.6629417"><ele>12.0</ele><time>2026-04-04T08:28:52.58Z</time></trkpt><trkpt lat="37.9732517" lon="15.6630483"><ele>12.666666666666668</ele><time>2026-04-04T08:28:53.579Z</time></trkpt><trkpt lat="37.9731317" lon="15.6631667"><ele>13.333333333333334</ele><time>2026-04-04T08:28:54.58Z</time></trkpt><trkpt lat="37.9730167" lon="15.6632883"><ele>14.0</ele><time>2026-04-04T08:28:55.58Z</time></trkpt><trkpt lat="37.9729017" lon="15.66341"><ele>14.0</ele><time>2026-04-04T08:28:56.58Z</time></trkpt><trkpt lat="37.9727817" lon="15.663535"><ele>14.0</ele><time>2026-04-04T08:28:57.579Z</time></trkpt><trkpt lat="37.97266" lon="15.6636667"><ele>14.0</ele><time>2026-04-04T08:28:58.579Z</time></trkpt><trkpt lat="37.9725233" lon="15.663815"><ele>13.0</ele><time>2026-04-04T08:28:59.579Z</time></trkpt><trkpt lat="37.9724" lon="15.663955"><ele>12.0</ele><time>2026-04-04T08:29:00.58Z</time></trkpt><trkpt lat="37.9722667" lon="15.6641017"><ele>11.0</ele><time>2026-04-04T08:29:01.579Z</time></trkpt><trkpt lat="37.9721333" lon="15.6642633"><ele>11.0</ele><time>2026-04-04T08:29:02.579Z</time></trkpt><trkpt lat="37.972" lon="15.664425"><ele>11.0</ele><time>2026-04-04T08:29:03.579Z</time></trkpt><trkpt lat="37.97186" lon="15.664565"><ele>11.0</ele><time>2026-04-04T08:29:04.579Z</time></trkpt><trkpt lat="37.971725" lon="15.6647183"><ele>12.0</ele><time>2026-04-04T08:29:05.579Z</time></trkpt><trkpt lat="37.9715917" lon="15.664875"><ele>13.0</ele><time>2026-04-04T08:29:06.579Z</time></trkpt><trkpt lat="37.9714533" lon="15.6650217"><ele>14.0</ele><time>2026-04-04T08:29:07.58Z</time></trkpt><trkpt lat="37.9713117" lon="15.6651833"><ele>15.666666666666668</ele><time>2026-04-04T08:29:08.579Z</time></trkpt><trkpt lat="37.9711633" lon="15.6653483"><ele>17.333333333333332</ele><time>2026-04-04T08:29:09.58Z</time></trkpt><trkpt lat="37.9710183" lon="15.6655"><ele>19.0</ele><time>2026-04-04T08:29:10.58Z</time></trkpt><trkpt lat="37.9708817" lon="15.665655"><ele>18.666666666666664</ele><time>2026-04-04T08:29:11.579Z</time></trkpt><trkpt lat="37.97075" lon="15.6658083"><ele>18.333333333333332</ele><time>2026-04-04T08:29:12.58Z</time></trkpt><trkpt lat="37.9706067" lon="15.665975"><ele>18.0</ele><time>2026-04-04T08:29:13.579Z</time></trkpt><trkpt lat="37.970455" lon="15.6661333"><ele>18.0</ele><time>2026-04-04T08:29:14.579Z</time></trkpt><trkpt lat="37.9703217" lon="15.6662883"><ele>18.0</ele><time>2026-04-04T08:29:15.579Z</time></trkpt><trkpt lat="37.9701783" lon="15.6664533"><ele>18.0</ele><time>2026-04-04T08:29:16.579Z</time></trkpt><trkpt lat="37.970025" lon="15.66662"><ele>17.0</ele><time>2026-04-04T08:29:17.579Z</time></trkpt><trkpt lat="37.9698817" lon="15.6667883"><ele>16.0</ele><time>2026-04-04T08:29:18.579Z</time></trkpt><trkpt lat="37.9697333" lon="15.6669583"><ele>15.0</ele><time>2026-04-04T08:29:19.58Z</time></trkpt><trkpt lat="37.9695817" lon="15.667125"><ele>15.0</ele><time>2026-04-04T08:29:20.579Z</time></trkpt><trkpt lat="37.9694333" lon="15.6673017"><ele>15.0</ele><time>2026-04-04T08:29:21.579Z</time></trkpt><trkpt lat="37.969285" lon="15.6674717"><ele>15.0</ele><time>2026-04-04T08:29:22.58Z</time></trkpt><trkpt lat="37.96913" lon="15.6676517"><ele>16.0</ele><time>2026-04-04T08:29:23.58Z</time></trkpt><trkpt lat="37.9689733" lon="15.6678367"><ele>17.0</ele><time>2026-04-04T08:29:24.579Z</time></trkpt><trkpt lat="37.96882" lon="15.6680183"><ele>18.0</ele><time>2026-04-04T08:29:25.579Z</time></trkpt><trkpt lat="37.9686567" lon="15.6682"><ele>18.0</ele><time>2026-04-04T08:29:26.579Z</time></trkpt><trkpt lat="37.9684983" lon="15.6683883"><ele>18.0</ele><time>2026-04-04T08:29:27.579Z</time></trkpt><trkpt lat="37.96833" lon="15.668585"><ele>18.0</ele><time>2026-04-04T08:29:28.579Z</time></trkpt><trkpt lat="37.9681733" lon="15.6687633"><ele>18.0</ele><time>2026-04-04T08:29:29.58Z</time></trkpt><trkpt lat="37.9680217" lon="15.6689333"><ele>18.0</ele><time>2026-04-04T08:29:30.579Z</time></trkpt><trkpt lat="37.9678683" lon="15.6690883"><ele>18.0</ele><time>2026-04-04T08:29:31.579Z</time></trkpt><trkpt lat="37.9677083" lon="15.6692317"><ele>18.0</ele><time>2026-04-04T08:29:32.58Z</time></trkpt><trkpt lat="37.9675533" lon="15.6693733"><ele>18.0</ele><time>2026-04-04T08:29:33.579Z</time></trkpt><trkpt lat="37.96739" lon="15.6695083"><ele>18.0</ele><time>2026-04-04T08:29:34.58Z</time></trkpt><trkpt lat="37.9672217" lon="15.6696383"><ele>18.333333333333332</ele><time>2026-04-04T08:29:35.58Z</time></trkpt><trkpt lat="37.9670367" lon="15.6697617"><ele>18.666666666666664</ele><time>2026-04-04T08:29:36.58Z</time></trkpt><trkpt lat="37.9668583" lon="15.66989"><ele>19.0</ele><time>2026-04-04T08:29:37.579Z</time></trkpt><trkpt lat="37.966675" lon="15.670025"><ele>18.0</ele><time>2026-04-04T08:29:38.579Z</time></trkpt><trkpt lat="37.9664883" lon="15.6701667"><ele>17.0</ele><time>2026-04-04T08:29:39.58Z</time></trkpt><trkpt lat="37.9662983" lon="15.6702883"><ele>16.0</ele><time>2026-04-04T08:29:40.579Z</time></trkpt><trkpt lat="37.96611" lon="15.6704183"><ele>16.0</ele><time>2026-04-04T08:29:41.579Z</time></trkpt><trkpt lat="37.96593" lon="15.67053"><ele>16.0</ele><time>2026-04-04T08:29:42.579Z</time></trkpt><trkpt lat="37.96575" lon="15.670655"><ele>16.0</ele><time>2026-04-04T08:29:43.58Z</time></trkpt><trkpt lat="37.9655717" lon="15.67077"><ele>17.0</ele><time>2026-04-04T08:29:44.58Z</time></trkpt><trkpt lat="37.9654" lon="15.670895"><ele>18.0</ele><time>2026-04-04T08:29:45.58Z</time></trkpt><trkpt lat="37.9652383" lon="15.67102"><ele>19.0</ele><time>2026-04-04T08:29:46.579Z</time></trkpt><trkpt lat="37.96508" lon="15.67113"><ele>17.666666666666664</ele><time>2026-04-04T08:29:47.579Z</time></trkpt><trkpt lat="37.9649167" lon="15.671245"><ele>16.333333333333332</ele><time>2026-04-04T08:29:48.579Z</time></trkpt><trkpt lat="37.9647633" lon="15.6713417"><ele>15.0</ele><time>2026-04-04T08:29:49.58Z</time></trkpt><trkpt lat="37.9646083" lon="15.6714483"><ele>15.0</ele><time>2026-04-04T08:29:50.579Z</time></trkpt><trkpt lat="37.9644433" lon="15.6715633"><ele>15.0</ele><time>2026-04-04T08:29:51.579Z</time></trkpt><trkpt lat="37.96429" lon="15.6716717"><ele>15.0</ele><time>2026-04-04T08:29:52.579Z</time></trkpt><trkpt lat="37.9641317" lon="15.671775"><ele>14.666666666666668</ele><time>2026-04-04T08:29:53.579Z</time></trkpt><trkpt lat="37.9639817" lon="15.6718683"><ele>14.333333333333334</ele><time>2026-04-04T08:29:54.579Z</time></trkpt><trkpt lat="37.9638167" lon="15.6719833"><ele>14.0</ele><time>2026-04-04T08:29:55.58Z</time></trkpt><trkpt lat="37.9636517" lon="15.672105"><ele>14.0</ele><time>2026-04-04T08:29:56.579Z</time></trkpt><trkpt lat="37.9634917" lon="15.6722067"><ele>14.0</ele><time>2026-04-04T08:29:57.579Z</time></trkpt><trkpt lat="37.9633333" lon="15.6723233"><ele>14.0</ele><time>2026-04-04T08:29:58.579Z</time></trkpt><trkpt lat="37.9631667" lon="15.672445"><ele>13.666666666666668</ele><time>2026-04-04T08:29:59.579Z</time></trkpt><trkpt lat="37.9629983" lon="15.6725667"><ele>13.333333333333332</ele><time>2026-04-04T08:30:00.579Z</time></trkpt><trkpt lat="37.9628433" lon="15.6726667"><ele>13.0</ele><time>2026-04-04T08:30:01.579Z</time></trkpt><trkpt lat="37.9626933" lon="15.672765"><ele>13.666666666666666</ele><time>2026-04-04T08:30:02.58Z</time></trkpt><trkpt lat="37.96253" lon="15.6728667"><ele>14.333333333333332</ele><time>2026-04-04T08:30:03.579Z</time></trkpt><trkpt lat="37.9623633" lon="15.6729683"><ele>15.0</ele><time>2026-04-04T08:30:04.579Z</time></trkpt><trkpt lat="37.9622" lon="15.6730633"><ele>15.0</ele><time>2026-04-04T08:30:05.579Z</time></trkpt><trkpt lat="37.9620283" lon="15.6731633"><ele>15.0</ele><time>2026-04-04T08:30:06.579Z</time></trkpt><trkpt lat="37.961855" lon="15.6732633"><ele>15.0</ele><time>2026-04-04T08:30:07.579Z</time></trkpt><trkpt lat="37.961675" lon="15.6733783"><ele>15.0</ele><time>2026-04-04T08:30:08.58Z</time></trkpt><trkpt lat="37.9614933" lon="15.6735"><ele>15.0</ele><time>2026-04-04T08:30:09.58Z</time></trkpt><trkpt lat="37.9613017" lon="15.6736217"><ele>15.0</ele><time>2026-04-04T08:30:10.579Z</time></trkpt><trkpt lat="37.9611" lon="15.6737333"><ele>15.666666666666668</ele><time>2026-04-04T08:30:11.58Z</time></trkpt><trkpt lat="37.9608917" lon="15.67385"><ele>16.333333333333336</ele><time>2026-04-04T08:30:12.579Z</time></trkpt><trkpt lat="37.96069" lon="15.673965"><ele>17.0</ele><time>2026-04-04T08:30:13.579Z</time></trkpt><trkpt lat="37.960485" lon="15.6740817"><ele>17.0</ele><time>2026-04-04T08:30:14.579Z</time></trkpt><trkpt lat="37.9602867" lon="15.674195"><ele>17.0</ele><time>2026-04-04T08:30:15.579Z</time></trkpt><trkpt lat="37.96009" lon="15.6743217"><ele>17.0</ele><time>2026-04-04T08:30:16.579Z</time></trkpt><trkpt lat="37.959905" lon="15.6744333"><ele>18.333333333333336</ele><time>2026-04-04T08:30:17.579Z</time></trkpt><trkpt lat="37.95971" lon="15.67456"><ele>19.666666666666668</ele><time>2026-04-04T08:30:18.579Z</time></trkpt><trkpt lat="37.959515" lon="15.6747017"><ele>21.0</ele><time>2026-04-04T08:30:19.579Z</time></trkpt><trkpt lat="37.9593133" lon="15.674845"><ele>19.0</ele><time>2026-04-04T08:30:20.579Z</time></trkpt><trkpt lat="37.9591217" lon="15.6749833"><ele>17.0</ele><time>2026-04-04T08:30:21.58Z</time></trkpt><trkpt lat="37.9589417" lon="15.6751233"><ele>15.0</ele><time>2026-04-04T08:30:22.58Z</time></trkpt><trkpt lat="37.95876" lon="15.6752633"><ele>16.0</ele><time>2026-04-04T08:30:23.579Z</time></trkpt><trkpt lat="37.9585817" lon="15.6754117"><ele>17.0</ele><time>2026-04-04T08:30:24.579Z</time></trkpt><trkpt lat="37.9584017" lon="15.6755567"><ele>18.0</ele><time>2026-04-04T08:30:25.58Z</time></trkpt><trkpt lat="37.9582183" lon="15.67571"><ele>18.0</ele><time>2026-04-04T08:30:26.58Z</time></trkpt><trkpt lat="37.9580367" lon="15.6758483"><ele>18.0</ele><time>2026-04-04T08:30:27.579Z</time></trkpt><trkpt lat="37.9578583" lon="15.675995"><ele>18.0</ele><time>2026-04-04T08:30:28.579Z</time></trkpt><trkpt lat="37.9576833" lon="15.6761483"><ele>18.666666666666668</ele><time>2026-04-04T08:30:29.579Z</time></trkpt><trkpt lat="37.9575133" lon="15.6762967"><ele>19.333333333333336</ele><time>2026-04-04T08:30:30.58Z</time></trkpt><trkpt lat="37.95734" lon="15.6764467"><ele>20.0</ele><time>2026-04-04T08:30:31.579Z</time></trkpt><trkpt lat="37.9571667" lon="15.67658"><ele>20.0</ele><time>2026-04-04T08:30:32.579Z</time></trkpt><trkpt lat="37.9569967" lon="15.6767217"><ele>20.0</ele><time>2026-04-04T08:30:33.58Z</time></trkpt><trkpt lat="37.956825" lon="15.6768567"><ele>20.0</ele><time>2026-04-04T08:30:34.58Z</time></trkpt><trkpt lat="37.9566567" lon="15.6769933"><ele>22.333333333333336</ele><time>2026-04-04T08:30:35.579Z</time></trkpt><trkpt lat="37.9564833" lon="15.6771233"><ele>24.666666666666668</ele><time>2026-04-04T08:30:36.579Z</time></trkpt><trkpt lat="37.9563183" lon="15.6772417"><ele>27.0</ele><time>2026-04-04T08:30:37.579Z</time></trkpt><trkpt lat="37.956155" lon="15.6773533"><ele>27.0</ele><time>2026-04-04T08:30:38.579Z</time></trkpt><trkpt lat="37.9559917" lon="15.677465"><ele>27.0</ele><time>2026-04-04T08:30:39.579Z</time></trkpt><trkpt lat="37.9558317" lon="15.6775567"><ele>27.0</ele><time>2026-04-04T08:30:40.579Z</time></trkpt><trkpt lat="37.9556717" lon="15.6776367"><ele>27.0</ele><time>2026-04-04T08:30:41.579Z</time></trkpt><trkpt lat="37.9554917" lon="15.677685"><ele>27.0</ele><time>2026-04-04T08:30:42.579Z</time></trkpt><trkpt lat="37.9552983" lon="15.677705"><ele>27.0</ele><time>2026-04-04T08:30:43.579Z</time></trkpt><trkpt lat="37.9551117" lon="15.6777533"><ele>33.666666666666664</ele><time>2026-04-04T08:30:44.579Z</time></trkpt><trkpt lat="37.95493" lon="15.6778533"><ele>40.33333333333333</ele><time>2026-04-04T08:30:45.579Z</time></trkpt><trkpt lat="37.954765" lon="15.6779833"><ele>47.0</ele><time>2026-04-04T08:30:46.579Z</time></trkpt><trkpt lat="37.9546183" lon="15.6781267"><ele>47.0</ele><time>2026-04-04T08:30:47.58Z</time></trkpt><trkpt lat="37.9544917" lon="15.678265"><ele>47.0</ele><time>2026-04-04T08:30:48.579Z</time></trkpt><trkpt lat="37.9543717" lon="15.6784133"><ele>47.0</ele><time>2026-04-04T08:30:49.579Z</time></trkpt><trkpt lat="37.9542583" lon="15.6785783"><ele>47.33333333333333</ele><time>2026-04-04T08:30:50.579Z</time></trkpt><trkpt lat="37.954155" lon="15.67875"><ele>47.666666666666664</ele><time>2026-04-04T08:30:51.579Z</time></trkpt><trkpt lat="37.9540617" lon="15.67894"><ele>48.0</ele><time>2026-04-04T08:30:52.58Z</time></trkpt><trkpt lat="37.9539717" lon="15.6791283"><ele>48.0</ele><time>2026-04-04T08:30:53.579Z</time></trkpt><trkpt lat="37.9538867" lon="15.6793267"><ele>48.0</ele><time>2026-04-04T08:30:54.579Z</time></trkpt><trkpt lat="37.9538117" lon="15.6795167"><ele>48.0</ele><time>2026-04-04T08:30:55.58Z</time></trkpt><trkpt lat="37.953745" lon="15.6796933"><ele>52.75</ele><time>2026-04-04T08:30:56.579Z</time></trkpt><trkpt lat="37.9536933" lon="15.6798517"><ele>57.5</ele><time>2026-04-04T08:30:57.58Z</time></trkpt><trkpt lat="37.9536533" lon="15.6800117"><ele>62.25</ele><time>2026-04-04T08:30:58.579Z</time></trkpt><trkpt lat="37.9536217" lon="15.6801617"><ele>67.0</ele><time>2026-04-04T08:30:59.579Z</time></trkpt><trkpt lat="37.9535967" lon="15.6803067"><ele>67.4</ele><time>2026-04-04T08:31:00.58Z</time></trkpt><trkpt lat="37.953575" lon="15.68044"><ele>67.80000000000001</ele><time>2026-04-04T08:31:01.579Z</time></trkpt><trkpt lat="37.9535583" lon="15.6805767"><ele>68.2</ele><time>2026-04-04T08:31:02.579Z</time></trkpt><trkpt lat="37.9535483" lon="15.6807133"><ele>68.60000000000001</ele><time>2026-04-04T08:31:03.579Z</time></trkpt><trkpt lat="37.9535467" lon="15.6808617"><ele>69.0</ele><time>2026-04-04T08:31:04.58Z</time></trkpt><trkpt lat="37.9535633" lon="15.6810117"><ele>68.0</ele><time>2026-04-04T08:31:05.58Z</time></trkpt><trkpt lat="37.9535833" lon="15.6811467"><ele>67.0</ele><time>2026-04-04T08:31:06.579Z</time></trkpt><trkpt lat="37.9536033" lon="15.6812717"><ele>66.0</ele><time>2026-04-04T08:31:07.579Z</time></trkpt><trkpt lat="37.95361" lon="15.6814"><ele>65.0</ele><time>2026-04-04T08:31:08.579Z</time></trkpt><trkpt lat="37.9535783" lon="15.6815383"><ele>64.0</ele><time>2026-04-04T08:31:09.579Z</time></trkpt><trkpt lat="37.9535133" lon="15.6816833"><ele>64.0</ele><time>2026-04-04T08:31:10.579Z</time></trkpt><trkpt lat="37.9534367" lon="15.68184"><ele>64.0</ele><time>2026-04-04T08:31:11.579Z</time></trkpt><trkpt lat="37.953355" lon="15.682005"><ele>64.0</ele><time>2026-04-04T08:31:12.579Z</time></trkpt><trkpt lat="37.9532717" lon="15.6821617"><ele>64.0</ele><time>2026-04-04T08:31:13.579Z</time></trkpt><trkpt lat="37.953195" lon="15.6823133"><ele>60.0</ele><time>2026-04-04T08:31:14.579Z</time></trkpt><trkpt lat="37.9531233" lon="15.68247"><ele>56.0</ele><time>2026-04-04T08:31:15.579Z</time></trkpt><trkpt lat="37.953045" lon="15.6826317"><ele>52.0</ele><time>2026-04-04T08:31:16.579Z</time></trkpt><trkpt lat="37.9529617" lon="15.6827983"><ele>48.0</ele><time>2026-04-04T08:31:17.579Z</time></trkpt><trkpt lat="37.9528883" lon="15.682965"><ele>48.0</ele><time>2026-04-04T08:31:18.579Z</time></trkpt><trkpt lat="37.9528133" lon="15.68314"><ele>48.0</ele><time>2026-04-04T08:31:19.58Z</time></trkpt><trkpt lat="37.9527233" lon="15.6833167"><ele>48.0</ele><time>2026-04-04T08:31:20.579Z</time></trkpt><trkpt lat="37.95264" lon="15.6835033"><ele>48.0</ele><time>2026-04-04T08:31:21.579Z</time></trkpt><trkpt lat="37.9525483" lon="15.6836867"><ele>48.0</ele><time>2026-04-04T08:31:22.579Z</time></trkpt><trkpt lat="37.95247" lon="15.6838783"><ele>48.0</ele><time>2026-04-04T08:31:23.579Z</time></trkpt><trkpt lat="37.9523933" lon="15.6840733"><ele>46.666666666666664</ele><time>2026-04-04T08:31:24.579Z</time></trkpt><trkpt lat="37.9523283" lon="15.6842683"><ele>45.33333333333333</ele><time>2026-04-04T08:31:25.579Z</time></trkpt><trkpt lat="37.95229" lon="15.6844767"><ele>44.0</ele><time>2026-04-04T08:31:26.579Z</time></trkpt><trkpt lat="37.952265" lon="15.6846733"><ele>44.0</ele><time>2026-04-04T08:31:27.579Z</time></trkpt><trkpt lat="37.9522317" lon="15.6848767"><ele>44.0</ele><time>2026-04-04T08:31:28.579Z</time></trkpt><trkpt lat="37.9522" lon="15.6850817"><ele>44.0</ele><time>2026-04-04T08:31:29.58Z</time></trkpt><trkpt lat="37.9521667" lon="15.6852867"><ele>47.0</ele><time>2026-04-04T08:31:30.579Z</time></trkpt><trkpt lat="37.9520617" lon="15.6859233"><ele>42.0</ele><time>2026-04-04T08:31:33.579Z</time></trkpt><trkpt lat="37.9522267" lon="15.686135"><ele>37.0</ele><time>2026-04-04T08:31:34.579Z</time></trkpt><trkpt lat="37.9522933" lon="15.686365"><ele>32.0</ele><time>2026-04-04T08:31:35.58Z</time></trkpt><trkpt lat="37.952325" lon="15.6866133"><ele>32.0</ele><time>2026-04-04T08:31:36.58Z</time></trkpt><trkpt lat="37.95235" lon="15.6868633"><ele>32.0</ele><time>2026-04-04T08:31:37.58Z</time></trkpt><trkpt lat="37.95237" lon="15.6871183"><ele>32.0</ele><time>2026-04-04T08:31:38.579Z</time></trkpt><trkpt lat="37.9523867" lon="15.6873917"><ele>27.0</ele><time>2026-04-04T08:31:39.579Z</time></trkpt><trkpt lat="37.952405" lon="15.6876767"><ele>22.0</ele><time>2026-04-04T08:31:40.579Z</time></trkpt><trkpt lat="37.95242" lon="15.6879783"><ele>20.5</ele><time>2026-04-04T08:31:41.579Z</time></trkpt><trkpt lat="37.952425" lon="15.6882683"><ele>19.0</ele><time>2026-04-04T08:31:42.579Z</time></trkpt><trkpt lat="37.9524383" lon="15.6885533"><ele>17.0</ele><time>2026-04-04T08:31:43.579Z</time></trkpt><trkpt lat="37.95244" lon="15.6888267"><ele>15.0</ele><time>2026-04-04T08:31:44.579Z</time></trkpt><trkpt lat="37.9524317" lon="15.68909"><ele>13.0</ele><time>2026-04-04T08:31:45.579Z</time></trkpt><trkpt lat="37.9524083" lon="15.689355"><ele>12.333333333333332</ele><time>2026-04-04T08:31:46.579Z</time></trkpt><trkpt lat="37.95237" lon="15.6896183"><ele>11.666666666666666</ele><time>2026-04-04T08:31:47.58Z</time></trkpt><trkpt lat="37.95232" lon="15.6898883"><ele>11.0</ele><time>2026-04-04T08:31:48.579Z</time></trkpt><trkpt lat="37.9522567" lon="15.6901467"><ele>11.0</ele><time>2026-04-04T08:31:49.579Z</time></trkpt><trkpt lat="37.9521817" lon="15.6904033"><ele>11.0</ele><time>2026-04-04T08:31:50.579Z</time></trkpt><trkpt lat="37.952105" lon="15.6906533"><ele>11.0</ele><time>2026-04-04T08:31:51.58Z</time></trkpt><trkpt lat="37.95202" lon="15.690895"><ele>12.666666666666666</ele><time>2026-04-04T08:31:52.58Z</time></trkpt><trkpt lat="37.9519317" lon="15.6911417"><ele>14.333333333333332</ele><time>2026-04-04T08:31:53.579Z</time></trkpt><trkpt lat="37.9518533" lon="15.6913883"><ele>16.0</ele><time>2026-04-04T08:31:54.58Z</time></trkpt><trkpt lat="37.951775" lon="15.6916333"><ele>14.333333333333332</ele><time>2026-04-04T08:31:55.58Z</time></trkpt><trkpt lat="37.951705" lon="15.6918883"><ele>12.666666666666666</ele><time>2026-04-04T08:31:56.579Z</time></trkpt><trkpt lat="37.9516233" lon="15.6921367"><ele>11.0</ele><time>2026-04-04T08:31:57.579Z</time></trkpt><trkpt lat="37.95154" lon="15.6923867"><ele>11.0</ele><time>2026-04-04T08:31:58.579Z</time></trkpt><trkpt lat="37.951455" lon="15.6926233"><ele>11.0</ele><time>2026-04-04T08:31:59.579Z</time></trkpt><trkpt lat="37.95138" lon="15.692865"><ele>11.0</ele><time>2026-04-04T08:32:00.579Z</time></trkpt><trkpt lat="37.9513" lon="15.6930983"><ele>10.333333333333332</ele><time>2026-04-04T08:32:01.579Z</time></trkpt><trkpt lat="37.9512217" lon="15.6933417"><ele>9.666666666666666</ele><time>2026-04-04T08:32:02.579Z</time></trkpt><trkpt lat="37.9511433" lon="15.6935833"><ele>9.0</ele><time>2026-04-04T08:32:03.58Z</time></trkpt><trkpt lat="37.9510583" lon="15.693815"><ele>8.666666666666666</ele><time>2026-04-04T08:32:04.579Z</time></trkpt><trkpt lat="37.9509817" lon="15.6940417"><ele>8.333333333333332</ele><time>2026-04-04T08:32:05.579Z</time></trkpt><trkpt lat="37.9509083" lon="15.6942733"><ele>8.0</ele><time>2026-04-04T08:32:06.579Z</time></trkpt><trkpt lat="37.9508333" lon="15.6944967"><ele>7.666666666666666</ele><time>2026-04-04T08:32:07.579Z</time></trkpt><trkpt lat="37.9507617" lon="15.6947167"><ele>7.333333333333334</ele><time>2026-04-04T08:32:08.579Z</time></trkpt><trkpt lat="37.95069" lon="15.69494"><ele>7.0</ele><time>2026-04-04T08:32:09.579Z</time></trkpt><trkpt lat="37.95062" lon="15.69515"><ele>8.0</ele><time>2026-04-04T08:32:10.579Z</time></trkpt><trkpt lat="37.9505517" lon="15.69536"><ele>9.0</ele><time>2026-04-04T08:32:11.579Z</time></trkpt><trkpt lat="37.9504667" lon="15.6955667"><ele>10.0</ele><time>2026-04-04T08:32:12.579Z</time></trkpt><trkpt lat="37.95039" lon="15.6957783"><ele>10.0</ele><time>2026-04-04T08:32:13.579Z</time></trkpt><trkpt lat="37.9503017" lon="15.6959783"><ele>10.0</ele><time>2026-04-04T08:32:14.58Z</time></trkpt><trkpt lat="37.9501967" lon="15.69618"><ele>10.0</ele><time>2026-04-04T08:32:15.579Z</time></trkpt><trkpt lat="37.9500883" lon="15.69637"><ele>9.666666666666668</ele><time>2026-04-04T08:32:16.579Z</time></trkpt><trkpt lat="37.9499817" lon="15.69655"><ele>9.333333333333334</ele><time>2026-04-04T08:32:17.579Z</time></trkpt><trkpt lat="37.9498667" lon="15.69672"><ele>9.0</ele><time>2026-04-04T08:32:18.579Z</time></trkpt><trkpt lat="37.949735" lon="15.6968883"><ele>9.0</ele><time>2026-04-04T08:32:19.579Z</time></trkpt><trkpt lat="37.9496017" lon="15.6970633"><ele>9.0</ele><time>2026-04-04T08:32:20.579Z</time></trkpt><trkpt lat="37.9494633" lon="15.69724"><ele>9.0</ele><time>2026-04-04T08:32:21.579Z</time></trkpt><trkpt lat="37.9493283" lon="15.6974133"><ele>9.0</ele><time>2026-04-04T08:32:22.579Z</time></trkpt><trkpt lat="37.9491933" lon="15.6975783"><ele>9.0</ele><time>2026-04-04T08:32:23.579Z</time></trkpt><trkpt lat="37.94906" lon="15.697745"><ele>9.0</ele><time>2026-04-04T08:32:24.579Z</time></trkpt><trkpt lat="37.9489267" lon="15.697915"><ele>9.0</ele><time>2026-04-04T08:32:25.58Z</time></trkpt><trkpt lat="37.9488033" lon="15.69808"><ele>9.0</ele><time>2026-04-04T08:32:26.579Z</time></trkpt><trkpt lat="37.9486783" lon="15.6982267"><ele>9.0</ele><time>2026-04-04T08:32:27.579Z</time></trkpt><trkpt lat="37.94856" lon="15.6983867"><ele>9.0</ele><time>2026-04-04T08:32:28.579Z</time></trkpt><trkpt lat="37.9484367" lon="15.6985417"><ele>9.0</ele><time>2026-04-04T08:32:29.58Z</time></trkpt><trkpt lat="37.94831" lon="15.6987"><ele>9.0</ele><time>2026-04-04T08:32:30.579Z</time></trkpt><trkpt lat="37.94818" lon="15.698865"><ele>8.333333333333334</ele><time>2026-04-04T08:32:31.58Z</time></trkpt><trkpt lat="37.9480517" lon="15.6990367"><ele>7.666666666666667</ele><time>2026-04-04T08:32:32.579Z</time></trkpt><trkpt lat="37.94792" lon="15.6992083"><ele>7.0</ele><time>2026-04-04T08:32:33.579Z</time></trkpt><trkpt lat="37.9477817" lon="15.6993867"><ele>7.666666666666667</ele><time>2026-04-04T08:32:34.579Z</time></trkpt><trkpt lat="37.9476467" lon="15.69957"><ele>8.333333333333334</ele><time>2026-04-04T08:32:35.579Z</time></trkpt><trkpt lat="37.947505" lon="15.6997533"><ele>9.0</ele><time>2026-04-04T08:32:36.58Z</time></trkpt><trkpt lat="37.9473533" lon="15.6999417"><ele>9.0</ele><time>2026-04-04T08:32:37.579Z</time></trkpt><trkpt lat="37.9472" lon="15.7001433"><ele>9.0</ele><time>2026-04-04T08:32:38.58Z</time></trkpt><trkpt lat="37.947045" lon="15.7003367"><ele>9.0</ele><time>2026-04-04T08:32:39.58Z</time></trkpt><trkpt lat="37.9468967" lon="15.7005233"><ele>9.666666666666666</ele><time>2026-04-04T08:32:40.579Z</time></trkpt><trkpt lat="37.9467433" lon="15.700705"><ele>10.333333333333332</ele><time>2026-04-04T08:32:41.579Z</time></trkpt><trkpt lat="37.9466033" lon="15.700895"><ele>11.0</ele><time>2026-04-04T08:32:42.579Z</time></trkpt><trkpt lat="37.9464567" lon="15.7010683"><ele>12.333333333333332</ele><time>2026-04-04T08:32:43.579Z</time></trkpt><trkpt lat="37.9463233" lon="15.701255"><ele>13.666666666666666</ele><time>2026-04-04T08:32:44.58Z</time></trkpt><trkpt lat="37.9461867" lon="15.7014383"><ele>15.0</ele><time>2026-04-04T08:32:45.579Z</time></trkpt><trkpt lat="37.9460517" lon="15.7016217"><ele>15.0</ele><time>2026-04-04T08:32:46.58Z</time></trkpt><trkpt lat="37.94591" lon="15.7017933"><ele>15.0</ele><time>2026-04-04T08:32:47.579Z</time></trkpt><trkpt lat="37.94578" lon="15.701955"><ele>15.0</ele><time>2026-04-04T08:32:48.579Z</time></trkpt><trkpt lat="37.945655" lon="15.7021183"><ele>15.333333333333332</ele><time>2026-04-04T08:32:49.579Z</time></trkpt><trkpt lat="37.9455317" lon="15.7022817"><ele>15.666666666666666</ele><time>2026-04-04T08:32:50.58Z</time></trkpt><trkpt lat="37.9454167" lon="15.702445"><ele>16.0</ele><time>2026-04-04T08:32:51.579Z</time></trkpt><trkpt lat="37.945305" lon="15.702605"><ele>16.0</ele><time>2026-04-04T08:32:52.58Z</time></trkpt><trkpt lat="37.9451917" lon="15.702755"><ele>16.0</ele><time>2026-04-04T08:32:53.579Z</time></trkpt><trkpt lat="37.9450817" lon="15.7028967"><ele>16.0</ele><time>2026-04-04T08:32:54.579Z</time></trkpt><trkpt lat="37.9449717" lon="15.7030367"><ele>16.0</ele><time>2026-04-04T08:32:55.579Z</time></trkpt><trkpt lat="37.944855" lon="15.70318"><ele>16.0</ele><time>2026-04-04T08:32:56.579Z</time></trkpt><trkpt lat="37.9447517" lon="15.7033117"><ele>16.0</ele><time>2026-04-04T08:32:57.579Z</time></trkpt><trkpt lat="37.9446483" lon="15.7034317"><ele>16.0</ele><time>2026-04-04T08:32:58.579Z</time></trkpt><trkpt lat="37.944545" lon="15.7035567"><ele>16.0</ele><time>2026-04-04T08:32:59.579Z</time></trkpt><trkpt lat="37.9444433" lon="15.7036767"><ele>16.0</ele><time>2026-04-04T08:33:00.579Z</time></trkpt><trkpt lat="37.9443483" lon="15.7037833"><ele>16.0</ele><time>2026-04-04T08:33:01.579Z</time></trkpt><trkpt lat="37.9442633" lon="15.703885"><ele>16.0</ele><time>2026-04-04T08:33:02.58Z</time></trkpt><trkpt lat="37.9441883" lon="15.7040017"><ele>16.0</ele><time>2026-04-04T08:33:03.579Z</time></trkpt><trkpt lat="37.9441183" lon="15.7041217"><ele>16.0</ele><time>2026-04-04T08:33:04.579Z</time></trkpt><trkpt lat="37.9440467" lon="15.704245"><ele>16.0</ele><time>2026-04-04T08:33:05.579Z</time></trkpt><trkpt lat="37.9439633" lon="15.7043667"><ele>16.0</ele><time>2026-04-04T08:33:06.579Z</time></trkpt><trkpt lat="37.9438617" lon="15.7044967"><ele>15.333333333333332</ele><time>2026-04-04T08:33:07.579Z</time></trkpt><trkpt lat="37.943765" lon="15.7046283"><ele>14.666666666666668</ele><time>2026-04-04T08:33:08.58Z</time></trkpt><trkpt lat="37.9436633" lon="15.7047667"><ele>14.0</ele><time>2026-04-04T08:33:09.579Z</time></trkpt><trkpt lat="37.94355" lon="15.70491"><ele>14.0</ele><time>2026-04-04T08:33:10.579Z</time></trkpt><trkpt lat="37.94343" lon="15.7050583"><ele>14.0</ele><time>2026-04-04T08:33:11.579Z</time></trkpt><trkpt lat="37.9433133" lon="15.7052117"><ele>14.0</ele><time>2026-04-04T08:33:12.579Z</time></trkpt><trkpt lat="37.94319" lon="15.70535"><ele>13.0</ele><time>2026-04-04T08:33:13.579Z</time></trkpt><trkpt lat="37.9430783" lon="15.7054883"><ele>12.0</ele><time>2026-04-04T08:33:14.579Z</time></trkpt><trkpt lat="37.9429633" lon="15.70564"><ele>11.0</ele><time>2026-04-04T08:33:15.579Z</time></trkpt><trkpt lat="37.9428483" lon="15.7057867"><ele>11.0</ele><time>2026-04-04T08:33:16.58Z</time></trkpt><trkpt lat="37.9427283" lon="15.7059383"><ele>11.0</ele><time>2026-04-04T08:33:17.58Z</time></trkpt><trkpt lat="37.9426" lon="15.7060967"><ele>11.0</ele><time>2026-04-04T08:33:18.58Z</time></trkpt><trkpt lat="37.9424717" lon="15.7062617"><ele>11.333333333333332</ele><time>2026-04-04T08:33:19.579Z</time></trkpt><trkpt lat="37.942335" lon="15.7064283"><ele>11.666666666666666</ele><time>2026-04-04T08:33:20.579Z</time></trkpt><trkpt lat="37.9421983" lon="15.706605"><ele>12.0</ele><time>2026-04-04T08:33:21.579Z</time></trkpt><trkpt lat="37.9420567" lon="15.7067883"><ele>12.0</ele><time>2026-04-04T08:33:22.579Z</time></trkpt><trkpt lat="37.9419133" lon="15.70697"><ele>12.0</ele><time>2026-04-04T08:33:23.58Z</time></trkpt><trkpt lat="37.94178" lon="15.7071417"><ele>12.0</ele><time>2026-04-04T08:33:24.579Z</time></trkpt><trkpt lat="37.9416383" lon="15.70732"><ele>12.0</ele><time>2026-04-04T08:33:25.579Z</time></trkpt><trkpt lat="37.9414917" lon="15.7074883"><ele>12.0</ele><time>2026-04-04T08:33:26.579Z</time></trkpt><trkpt lat="37.9413467" lon="15.7076533"><ele>12.0</ele><time>2026-04-04T08:33:27.579Z</time></trkpt><trkpt lat="37.941205" lon="15.70782"><ele>11.666666666666666</ele><time>2026-04-04T08:33:28.579Z</time></trkpt><trkpt lat="37.9410683" lon="15.7079817"><ele>11.333333333333332</ele><time>2026-04-04T08:33:29.579Z</time></trkpt><trkpt lat="37.9409333" lon="15.70815"><ele>11.0</ele><time>2026-04-04T08:33:30.579Z</time></trkpt><trkpt lat="37.9408033" lon="15.7083217"><ele>10.666666666666666</ele><time>2026-04-04T08:33:31.579Z</time></trkpt><trkpt lat="37.940685" lon="15.7085033"><ele>10.333333333333334</ele><time>2026-04-04T08:33:32.579Z</time></trkpt><trkpt lat="37.94058" lon="15.7086817"><ele>10.0</ele><time>2026-04-04T08:33:33.579Z</time></trkpt><trkpt lat="37.9404767" lon="15.7088767"><ele>10.0</ele><time>2026-04-04T08:33:34.579Z</time></trkpt><trkpt lat="37.9403883" lon="15.7090783"><ele>10.0</ele><time>2026-04-04T08:33:35.579Z</time></trkpt><trkpt lat="37.940305" lon="15.7092733"><ele>10.0</ele><time>2026-04-04T08:33:36.579Z</time></trkpt><trkpt lat="37.940225" lon="15.7094817"><ele>10.666666666666668</ele><time>2026-04-04T08:33:37.579Z</time></trkpt><trkpt lat="37.940155" lon="15.7096917"><ele>11.333333333333334</ele><time>2026-04-04T08:33:38.579Z</time></trkpt><trkpt lat="37.9400867" lon="15.7099017"><ele>12.0</ele><time>2026-04-04T08:33:39.579Z</time></trkpt><trkpt lat="37.9400217" lon="15.7101083"><ele>12.0</ele><time>2026-04-04T08:33:40.579Z</time></trkpt><trkpt lat="37.9399633" lon="15.710315"><ele>12.0</ele><time>2026-04-04T08:33:41.579Z</time></trkpt><trkpt lat="37.9398967" lon="15.7105217"><ele>12.0</ele><time>2026-04-04T08:33:42.58Z</time></trkpt><trkpt lat="37.9398367" lon="15.7107267"><ele>12.0</ele><time>2026-04-04T08:33:43.579Z</time></trkpt><trkpt lat="37.93977" lon="15.71093"><ele>12.0</ele><time>2026-04-04T08:33:44.579Z</time></trkpt><trkpt lat="37.93971" lon="15.7111283"><ele>12.0</ele><time>2026-04-04T08:33:45.579Z</time></trkpt><trkpt lat="37.9396483" lon="15.7113267"><ele>12.333333333333332</ele><time>2026-04-04T08:33:46.579Z</time></trkpt><trkpt lat="37.9395883" lon="15.7115233"><ele>12.666666666666666</ele><time>2026-04-04T08:33:47.579Z</time></trkpt><trkpt lat="37.939525" lon="15.7117217"><ele>13.0</ele><time>2026-04-04T08:33:48.579Z</time></trkpt><trkpt lat="37.9394617" lon="15.7119183"><ele>14.333333333333332</ele><time>2026-04-04T08:33:49.58Z</time></trkpt><trkpt lat="37.9394" lon="15.7121217"><ele>15.666666666666668</ele><time>2026-04-04T08:33:50.579Z</time></trkpt><trkpt lat="37.939335" lon="15.7123333"><ele>17.0</ele><time>2026-04-04T08:33:51.579Z</time></trkpt><trkpt lat="37.939265" lon="15.7125417"><ele>16.333333333333336</ele><time>2026-04-04T08:33:52.58Z</time></trkpt><trkpt lat="37.93919" lon="15.71277"><ele>15.666666666666668</ele><time>2026-04-04T08:33:53.58Z</time></trkpt><trkpt lat="37.9391217" lon="15.713"><ele>15.0</ele><time>2026-04-04T08:33:54.579Z</time></trkpt><trkpt lat="37.9390517" lon="15.713235"><ele>15.0</ele><time>2026-04-04T08:33:55.579Z</time></trkpt><trkpt lat="37.9389767" lon="15.713485"><ele>15.0</ele><time>2026-04-04T08:33:56.579Z</time></trkpt><trkpt lat="37.938895" lon="15.7137417"><ele>15.0</ele><time>2026-04-04T08:33:57.579Z</time></trkpt><trkpt lat="37.9388183" lon="15.7139983"><ele>14.333333333333332</ele><time>2026-04-04T08:33:58.579Z</time></trkpt><trkpt lat="37.93874" lon="15.71426"><ele>13.666666666666666</ele><time>2026-04-04T08:33:59.58Z</time></trkpt><trkpt lat="37.9386533" lon="15.7145133"><ele>13.0</ele><time>2026-04-04T08:34:00.579Z</time></trkpt><trkpt lat="37.9385683" lon="15.7147617"><ele>12.666666666666666</ele><time>2026-04-04T08:34:01.58Z</time></trkpt><trkpt lat="37.9384817" lon="15.71501"><ele>12.333333333333332</ele><time>2026-04-04T08:34:02.579Z</time></trkpt><trkpt lat="37.9384" lon="15.71526"><ele>12.0</ele><time>2026-04-04T08:34:03.579Z</time></trkpt><trkpt lat="37.9383167" lon="15.715515"><ele>11.333333333333334</ele><time>2026-04-04T08:34:04.579Z</time></trkpt><trkpt lat="37.93824" lon="15.7157717"><ele>10.666666666666668</ele><time>2026-04-04T08:34:05.58Z</time></trkpt><trkpt lat="37.9381683" lon="15.7160367"><ele>10.0</ele><time>2026-04-04T08:34:06.579Z</time></trkpt><trkpt lat="37.9381083" lon="15.7163067"><ele>9.5</ele><time>2026-04-04T08:34:07.579Z</time></trkpt><trkpt lat="37.93806" lon="15.7165917"><ele>9.0</ele><time>2026-04-04T08:34:08.579Z</time></trkpt><trkpt lat="37.9380283" lon="15.7168733"><ele>8.0</ele><time>2026-04-04T08:34:09.579Z</time></trkpt><trkpt lat="37.9379933" lon="15.7171517"><ele>7.0</ele><time>2026-04-04T08:34:10.579Z</time></trkpt><trkpt lat="37.937965" lon="15.7174217"><ele>6.0</ele><time>2026-04-04T08:34:11.579Z</time></trkpt><trkpt lat="37.9379333" lon="15.7176967"><ele>5.666666666666667</ele><time>2026-04-04T08:34:12.58Z</time></trkpt><trkpt lat="37.937895" lon="15.7179733"><ele>5.333333333333334</ele><time>2026-04-04T08:34:13.579Z</time></trkpt><trkpt lat="37.9378583" lon="15.7182383"><ele>5.0</ele><time>2026-04-04T08:34:14.579Z</time></trkpt><trkpt lat="37.9378183" lon="15.718505"><ele>5.666666666666667</ele><time>2026-04-04T08:34:15.58Z</time></trkpt><trkpt lat="37.9377783" lon="15.71877"><ele>6.333333333333334</ele><time>2026-04-04T08:34:16.579Z</time></trkpt><trkpt lat="37.937745" lon="15.71903"><ele>7.0</ele><time>2026-04-04T08:34:17.579Z</time></trkpt><trkpt lat="37.9377117" lon="15.7192867"><ele>7.0</ele><time>2026-04-04T08:34:18.58Z</time></trkpt><trkpt lat="37.9376883" lon="15.7195317"><ele>7.0</ele><time>2026-04-04T08:34:19.579Z</time></trkpt><trkpt lat="37.9376617" lon="15.7197783"><ele>7.0</ele><time>2026-04-04T08:34:20.579Z</time></trkpt><trkpt lat="37.9376367" lon="15.720035"><ele>8.0</ele><time>2026-04-04T08:34:21.579Z</time></trkpt><trkpt lat="37.9376117" lon="15.7202967"><ele>9.0</ele><time>2026-04-04T08:34:22.579Z</time></trkpt><trkpt lat="37.93759" lon="15.720555"><ele>10.0</ele><time>2026-04-04T08:34:23.579Z</time></trkpt><trkpt lat="37.93756" lon="15.7208133"><ele>9.0</ele><time>2026-04-04T08:34:24.579Z</time></trkpt><trkpt lat="37.9375283" lon="15.7210717"><ele>8.0</ele><time>2026-04-04T08:34:25.579Z</time></trkpt><trkpt lat="37.9374967" lon="15.721325"><ele>7.0</ele><time>2026-04-04T08:34:26.58Z</time></trkpt><trkpt lat="37.937465" lon="15.721585"><ele>7.0</ele><time>2026-04-04T08:34:27.579Z</time></trkpt><trkpt lat="37.9374367" lon="15.7218383"><ele>7.0</ele><time>2026-04-04T08:34:28.579Z</time></trkpt><trkpt lat="37.9374017" lon="15.7221"><ele>7.0</ele><time>2026-04-04T08:34:29.579Z</time></trkpt><trkpt lat="37.9373733" lon="15.72236"><ele>7.0</ele><time>2026-04-04T08:34:30.58Z</time></trkpt><trkpt lat="37.93734" lon="15.7226217"><ele>7.0</ele><time>2026-04-04T08:34:31.579Z</time></trkpt><trkpt lat="37.937285" lon="15.7228667"><ele>7.0</ele><time>2026-04-04T08:34:32.579Z</time></trkpt><trkpt lat="37.9372183" lon="15.72311"><ele>7.666666666666667</ele><time>2026-04-04T08:34:33.58Z</time></trkpt><trkpt lat="37.9371367" lon="15.72334"><ele>8.333333333333334</ele><time>2026-04-04T08:34:34.579Z</time></trkpt><trkpt lat="37.9370517" lon="15.7235533"><ele>9.0</ele><time>2026-04-04T08:34:35.579Z</time></trkpt><trkpt lat="37.9369583" lon="15.7237667"><ele>9.333333333333334</ele><time>2026-04-04T08:34:36.58Z</time></trkpt><trkpt lat="37.93687" lon="15.7239883"><ele>9.666666666666668</ele><time>2026-04-04T08:34:37.579Z</time></trkpt><trkpt lat="37.9367733" lon="15.724215"><ele>10.0</ele><time>2026-04-04T08:34:38.579Z</time></trkpt><trkpt lat="37.93668" lon="15.7244417"><ele>10.0</ele><time>2026-04-04T08:34:39.58Z</time></trkpt><trkpt lat="37.93659" lon="15.72467"><ele>10.0</ele><time>2026-04-04T08:34:40.579Z</time></trkpt><trkpt lat="37.9364967" lon="15.7249033"><ele>10.0</ele><time>2026-04-04T08:34:41.579Z</time></trkpt><trkpt lat="37.936395" lon="15.7251383"><ele>11.0</ele><time>2026-04-04T08:34:42.579Z</time></trkpt><trkpt lat="37.936295" lon="15.7253583"><ele>12.0</ele><time>2026-04-04T08:34:43.579Z</time></trkpt><trkpt lat="37.9361933" lon="15.7255867"><ele>13.0</ele><time>2026-04-04T08:34:44.579Z</time></trkpt><trkpt lat="37.9360933" lon="15.7258183"><ele>13.0</ele><time>2026-04-04T08:34:45.579Z</time></trkpt><trkpt lat="37.9359983" lon="15.7260483"><ele>13.0</ele><time>2026-04-04T08:34:46.579Z</time></trkpt><trkpt lat="37.9359083" lon="15.7262733"><ele>13.0</ele><time>2026-04-04T08:34:47.579Z</time></trkpt><trkpt lat="37.9358067" lon="15.726495"><ele>12.666666666666666</ele><time>2026-04-04T08:34:48.58Z</time></trkpt><trkpt lat="37.9357117" lon="15.7267117"><ele>12.333333333333332</ele><time>2026-04-04T08:34:49.579Z</time></trkpt><trkpt lat="37.9356267" lon="15.7269283"><ele>12.0</ele><time>2026-04-04T08:34:50.58Z</time></trkpt><trkpt lat="37.9355367" lon="15.72714"><ele>12.666666666666668</ele><time>2026-04-04T08:34:51.579Z</time></trkpt><trkpt lat="37.93545" lon="15.727355"><ele>13.333333333333334</ele><time>2026-04-04T08:34:52.58Z</time></trkpt><trkpt lat="37.9353517" lon="15.7275683"><ele>14.0</ele><time>2026-04-04T08:34:53.579Z</time></trkpt><trkpt lat="37.93527" lon="15.72779"><ele>14.666666666666668</ele><time>2026-04-04T08:34:54.579Z</time></trkpt><trkpt lat="37.9351783" lon="15.72801"><ele>15.333333333333332</ele><time>2026-04-04T08:34:55.579Z</time></trkpt><trkpt lat="37.93509" lon="15.7282333"><ele>16.0</ele><time>2026-04-04T08:34:56.579Z</time></trkpt><trkpt lat="37.9349983" lon="15.7284517"><ele>16.333333333333332</ele><time>2026-04-04T08:34:57.579Z</time></trkpt><trkpt lat="37.934895" lon="15.7286867"><ele>16.666666666666668</ele><time>2026-04-04T08:34:58.579Z</time></trkpt><trkpt lat="37.9347983" lon="15.72893"><ele>17.0</ele><time>2026-04-04T08:34:59.579Z</time></trkpt><trkpt lat="37.9347083" lon="15.7291717"><ele>17.666666666666668</ele><time>2026-04-04T08:35:00.579Z</time></trkpt><trkpt lat="37.9346267" lon="15.7294133"><ele>18.333333333333332</ele><time>2026-04-04T08:35:01.579Z</time></trkpt><trkpt lat="37.9345483" lon="15.729665"><ele>19.0</ele><time>2026-04-04T08:35:02.579Z</time></trkpt><trkpt lat="37.93447" lon="15.7299233"><ele>19.0</ele><time>2026-04-04T08:35:03.579Z</time></trkpt><trkpt lat="37.934395" lon="15.7301817"><ele>19.0</ele><time>2026-04-04T08:35:04.579Z</time></trkpt><trkpt lat="37.9343283" lon="15.73044"><ele>19.0</ele><time>2026-04-04T08:35:05.579Z</time></trkpt><trkpt lat="37.9342667" lon="15.730695"><ele>19.0</ele><time>2026-04-04T08:35:06.579Z</time></trkpt><trkpt lat="37.9342133" lon="15.7309483"><ele>19.0</ele><time>2026-04-04T08:35:07.579Z</time></trkpt><trkpt lat="37.93416" lon="15.731205"><ele>19.0</ele><time>2026-04-04T08:35:08.579Z</time></trkpt><trkpt lat="37.9340967" lon="15.7314583"><ele>20.666666666666664</ele><time>2026-04-04T08:35:09.579Z</time></trkpt><trkpt lat="37.93404" lon="15.7317083"><ele>22.333333333333332</ele><time>2026-04-04T08:35:10.58Z</time></trkpt><trkpt lat="37.933985" lon="15.7319567"><ele>24.0</ele><time>2026-04-04T08:35:11.579Z</time></trkpt><trkpt lat="37.9339217" lon="15.732205"><ele>25.0</ele><time>2026-04-04T08:35:12.58Z</time></trkpt><trkpt lat="37.9338633" lon="15.73246"><ele>26.0</ele><time>2026-04-04T08:35:13.579Z</time></trkpt><trkpt lat="37.9338" lon="15.7327033"><ele>27.0</ele><time>2026-04-04T08:35:14.579Z</time></trkpt><trkpt lat="37.9337417" lon="15.7329567"><ele>28.0</ele><time>2026-04-04T08:35:15.579Z</time></trkpt><trkpt lat="37.933685" lon="15.7331967"><ele>29.0</ele><time>2026-04-04T08:35:16.58Z</time></trkpt><trkpt lat="37.9336317" lon="15.7334333"><ele>30.0</ele><time>2026-04-04T08:35:17.579Z</time></trkpt><trkpt lat="37.9335767" lon="15.7336733"><ele>32.666666666666664</ele><time>2026-04-04T08:35:18.579Z</time></trkpt><trkpt lat="37.9335217" lon="15.7339083"><ele>35.33333333333333</ele><time>2026-04-04T08:35:19.579Z</time></trkpt><trkpt lat="37.933465" lon="15.7341433"><ele>38.0</ele><time>2026-04-04T08:35:20.579Z</time></trkpt><trkpt lat="37.9334083" lon="15.73438"><ele>35.666666666666664</ele><time>2026-04-04T08:35:21.579Z</time></trkpt><trkpt lat="37.9333483" lon="15.7346117"><ele>33.333333333333336</ele><time>2026-04-04T08:35:22.58Z</time></trkpt><trkpt lat="37.9332967" lon="15.73484"><ele>31.0</ele><time>2026-04-04T08:35:23.579Z</time></trkpt><trkpt lat="37.933245" lon="15.7350633"><ele>31.666666666666668</ele><time>2026-04-04T08:35:24.579Z</time></trkpt><trkpt lat="37.9332017" lon="15.73529"><ele>32.333333333333336</ele><time>2026-04-04T08:35:25.58Z</time></trkpt><trkpt lat="37.9331617" lon="15.7355267"><ele>33.0</ele><time>2026-04-04T08:35:26.58Z</time></trkpt><trkpt lat="37.93311" lon="15.7357567"><ele>33.0</ele><time>2026-04-04T08:35:27.58Z</time></trkpt><trkpt lat="37.9330533" lon="15.735995"><ele>33.0</ele><time>2026-04-04T08:35:28.579Z</time></trkpt><trkpt lat="37.9329883" lon="15.73624"><ele>33.0</ele><time>2026-04-04T08:35:29.579Z</time></trkpt><trkpt lat="37.9329317" lon="15.7364883"><ele>35.0</ele><time>2026-04-04T08:35:30.579Z</time></trkpt><trkpt lat="37.9328717" lon="15.7367383"><ele>37.0</ele><time>2026-04-04T08:35:31.579Z</time></trkpt><trkpt lat="37.9328083" lon="15.7369883"><ele>39.0</ele><time>2026-04-04T08:35:32.58Z</time></trkpt><trkpt lat="37.932755" lon="15.73723"><ele>39.333333333333336</ele><time>2026-04-04T08:35:33.579Z</time></trkpt><trkpt lat="37.932695" lon="15.7374733"><ele>39.66666666666667</ele><time>2026-04-04T08:35:34.579Z</time></trkpt><trkpt lat="37.9326417" lon="15.7377183"><ele>40.0</ele><time>2026-04-04T08:35:35.579Z</time></trkpt><trkpt lat="37.932585" lon="15.7379683"><ele>37.0</ele><time>2026-04-04T08:35:36.579Z</time></trkpt><trkpt lat="37.9325267" lon="15.7382283"><ele>34.0</ele><time>2026-04-04T08:35:37.579Z</time></trkpt><trkpt lat="37.93247" lon="15.7384833"><ele>31.0</ele><time>2026-04-04T08:35:38.579Z</time></trkpt><trkpt lat="37.93241" lon="15.73875"><ele>31.0</ele><time>2026-04-04T08:35:39.579Z</time></trkpt><trkpt lat="37.9323467" lon="15.7390217"><ele>31.0</ele><time>2026-04-04T08:35:40.579Z</time></trkpt><trkpt lat="37.932285" lon="15.7392883"><ele>31.0</ele><time>2026-04-04T08:35:41.579Z</time></trkpt><trkpt lat="37.9322183" lon="15.7395517"><ele>31.0</ele><time>2026-04-04T08:35:42.58Z</time></trkpt><trkpt lat="37.9321633" lon="15.7397967"><ele>31.0</ele><time>2026-04-04T08:35:43.579Z</time></trkpt><trkpt lat="37.9321067" lon="15.7400383"><ele>31.0</ele><time>2026-04-04T08:35:44.579Z</time></trkpt><trkpt lat="37.93205" lon="15.7402867"><ele>31.333333333333336</ele><time>2026-04-04T08:35:45.579Z</time></trkpt><trkpt lat="37.931995" lon="15.7405383"><ele>31.666666666666664</ele><time>2026-04-04T08:35:46.579Z</time></trkpt><trkpt lat="37.931935" lon="15.74079"><ele>32.0</ele><time>2026-04-04T08:35:47.579Z</time></trkpt><trkpt lat="37.9318733" lon="15.7410467"><ele>32.666666666666664</ele><time>2026-04-04T08:35:48.579Z</time></trkpt><trkpt lat="37.9318133" lon="15.7412983"><ele>33.333333333333336</ele><time>2026-04-04T08:35:49.579Z</time></trkpt><trkpt lat="37.9317533" lon="15.74155"><ele>34.0</ele><time>2026-04-04T08:35:50.579Z</time></trkpt><trkpt lat="37.9317017" lon="15.7418033"><ele>33.0</ele><time>2026-04-04T08:35:51.579Z</time></trkpt><trkpt lat="37.9316483" lon="15.7420517"><ele>32.0</ele><time>2026-04-04T08:35:52.579Z</time></trkpt><trkpt lat="37.9315917" lon="15.7423017"><ele>31.0</ele><time>2026-04-04T08:35:53.579Z</time></trkpt><trkpt lat="37.9315333" lon="15.742545"><ele>30.666666666666668</ele><time>2026-04-04T08:35:54.579Z</time></trkpt><trkpt lat="37.93148" lon="15.742795"><ele>30.333333333333336</ele><time>2026-04-04T08:35:55.579Z</time></trkpt><trkpt lat="37.9314183" lon="15.7430383"><ele>30.0</ele><time>2026-04-04T08:35:56.579Z</time></trkpt><trkpt lat="37.93136" lon="15.7433"><ele>29.0</ele><time>2026-04-04T08:35:57.579Z</time></trkpt><trkpt lat="37.9313" lon="15.7435483"><ele>28.0</ele><time>2026-04-04T08:35:58.579Z</time></trkpt><trkpt lat="37.9312417" lon="15.7437917"><ele>27.0</ele><time>2026-04-04T08:35:59.579Z</time></trkpt><trkpt lat="37.9311883" lon="15.7440383"><ele>27.0</ele><time>2026-04-04T08:36:00.579Z</time></trkpt><trkpt lat="37.9311383" lon="15.7442833"><ele>27.0</ele><time>2026-04-04T08:36:01.58Z</time></trkpt><trkpt lat="37.9310833" lon="15.7445283"><ele>27.0</ele><time>2026-04-04T08:36:02.579Z</time></trkpt><trkpt lat="37.931025" lon="15.7447733"><ele>27.0</ele><time>2026-04-04T08:36:03.58Z</time></trkpt><trkpt lat="37.9309667" lon="15.7450217"><ele>27.0</ele><time>2026-04-04T08:36:04.58Z</time></trkpt><trkpt lat="37.9309067" lon="15.7452717"><ele>27.0</ele><time>2026-04-04T08:36:05.58Z</time></trkpt><trkpt lat="37.93085" lon="15.7455233"><ele>28.0</ele><time>2026-04-04T08:36:06.579Z</time></trkpt><trkpt lat="37.9308017" lon="15.7457733"><ele>29.0</ele><time>2026-04-04T08:36:07.58Z</time></trkpt><trkpt lat="37.9307483" lon="15.74602"><ele>30.0</ele><time>2026-04-04T08:36:08.58Z</time></trkpt><trkpt lat="37.9306833" lon="15.74627"><ele>30.0</ele><time>2026-04-04T08:36:09.579Z</time></trkpt><trkpt lat="37.9306183" lon="15.7465133"><ele>30.0</ele><time>2026-04-04T08:36:10.579Z</time></trkpt><trkpt lat="37.9305617" lon="15.7467567"><ele>30.0</ele><time>2026-04-04T08:36:11.58Z</time></trkpt><trkpt lat="37.9305067" lon="15.747"><ele>30.333333333333336</ele><time>2026-04-04T08:36:12.579Z</time></trkpt><trkpt lat="37.9304517" lon="15.7472333"><ele>30.666666666666668</ele><time>2026-04-04T08:36:13.58Z</time></trkpt><trkpt lat="37.9303967" lon="15.747465"><ele>31.0</ele><time>2026-04-04T08:36:14.579Z</time></trkpt><trkpt lat="37.93034" lon="15.747695"><ele>32.0</ele><time>2026-04-04T08:36:15.58Z</time></trkpt><trkpt lat="37.930285" lon="15.7479267"><ele>33.0</ele><time>2026-04-04T08:36:16.579Z</time></trkpt><trkpt lat="37.9302367" lon="15.74815"><ele>34.0</ele><time>2026-04-04T08:36:17.579Z</time></trkpt><trkpt lat="37.9301783" lon="15.7483783"><ele>34.333333333333336</ele><time>2026-04-04T08:36:18.579Z</time></trkpt><trkpt lat="37.930125" lon="15.7486033"><ele>34.666666666666664</ele><time>2026-04-04T08:36:19.579Z</time></trkpt><trkpt lat="37.93007" lon="15.7488433"><ele>35.0</ele><time>2026-04-04T08:36:20.579Z</time></trkpt><trkpt lat="37.9300133" lon="15.7490783"><ele>33.666666666666664</ele><time>2026-04-04T08:36:21.579Z</time></trkpt><trkpt lat="37.9299533" lon="15.74931"><ele>32.333333333333336</ele><time>2026-04-04T08:36:22.579Z</time></trkpt><trkpt lat="37.9298983" lon="15.7495467"><ele>31.0</ele><time>2026-04-04T08:36:23.58Z</time></trkpt><trkpt lat="37.9298367" lon="15.74978"><ele>31.0</ele><time>2026-04-04T08:36:24.579Z</time></trkpt><trkpt lat="37.9297733" lon="15.7500267"><ele>31.0</ele><time>2026-04-04T08:36:25.58Z</time></trkpt><trkpt lat="37.929705" lon="15.7502717"><ele>31.0</ele><time>2026-04-04T08:36:26.579Z</time></trkpt><trkpt lat="37.9296283" lon="15.7505217"><ele>31.333333333333336</ele><time>2026-04-04T08:36:27.579Z</time></trkpt><trkpt lat="37.9295433" lon="15.75077"><ele>31.666666666666664</ele><time>2026-04-04T08:36:28.579Z</time></trkpt><trkpt lat="37.9294583" lon="15.7510133"><ele>32.0</ele><time>2026-04-04T08:36:29.579Z</time></trkpt><trkpt lat="37.929365" lon="15.7512467"><ele>31.666666666666664</ele><time>2026-04-04T08:36:30.579Z</time></trkpt><trkpt lat="37.9292717" lon="15.7514733"><ele>31.333333333333336</ele><time>2026-04-04T08:36:31.579Z</time></trkpt><trkpt lat="37.92918" lon="15.751695"><ele>31.0</ele><time>2026-04-04T08:36:32.579Z</time></trkpt><trkpt lat="37.929085" lon="15.751915"><ele>32.66666666666667</ele><time>2026-04-04T08:36:33.58Z</time></trkpt><trkpt lat="37.928995" lon="15.75213"><ele>34.333333333333336</ele><time>2026-04-04T08:36:34.58Z</time></trkpt><trkpt lat="37.9289017" lon="15.7523433"><ele>36.0</ele><time>2026-04-04T08:36:35.579Z</time></trkpt><trkpt lat="37.92881" lon="15.752565"><ele>37.666666666666664</ele><time>2026-04-04T08:36:36.58Z</time></trkpt><trkpt lat="37.92871" lon="15.7527833"><ele>39.33333333333333</ele><time>2026-04-04T08:36:37.579Z</time></trkpt><trkpt lat="37.928615" lon="15.7530033"><ele>41.0</ele><time>2026-04-04T08:36:38.58Z</time></trkpt><trkpt lat="37.9285133" lon="15.753225"><ele>41.0</ele><time>2026-04-04T08:36:39.579Z</time></trkpt><trkpt lat="37.9284183" lon="15.75345"><ele>41.0</ele><time>2026-04-04T08:36:40.579Z</time></trkpt><trkpt lat="37.928325" lon="15.75367"><ele>41.0</ele><time>2026-04-04T08:36:41.58Z</time></trkpt><trkpt lat="37.9282283" lon="15.7538983"><ele>39.33333333333333</ele><time>2026-04-04T08:36:42.58Z</time></trkpt><trkpt lat="37.9281333" lon="15.7541283"><ele>37.666666666666664</ele><time>2026-04-04T08:36:43.58Z</time></trkpt><trkpt lat="37.9280367" lon="15.7543583"><ele>36.0</ele><time>2026-04-04T08:36:44.579Z</time></trkpt><trkpt lat="37.927945" lon="15.7545933"><ele>36.0</ele><time>2026-04-04T08:36:45.579Z</time></trkpt><trkpt lat="37.9278533" lon="15.754815"><ele>36.0</ele><time>2026-04-04T08:36:46.58Z</time></trkpt><trkpt lat="37.9277633" lon="15.755035"><ele>36.0</ele><time>2026-04-04T08:36:47.579Z</time></trkpt><trkpt lat="37.9276683" lon="15.75526"><ele>36.333333333333336</ele><time>2026-04-04T08:36:48.58Z</time></trkpt><trkpt lat="37.9275767" lon="15.7554833"><ele>36.66666666666667</ele><time>2026-04-04T08:36:49.58Z</time></trkpt><trkpt lat="37.9274783" lon="15.75571"><ele>37.0</ele><time>2026-04-04T08:36:50.58Z</time></trkpt><trkpt lat="37.9273733" lon="15.7559267"><ele>36.0</ele><time>2026-04-04T08:36:51.579Z</time></trkpt><trkpt lat="37.927265" lon="15.7561367"><ele>35.0</ele><time>2026-04-04T08:36:52.579Z</time></trkpt><trkpt lat="37.927165" lon="15.756345"><ele>34.0</ele><time>2026-04-04T08:36:53.579Z</time></trkpt><trkpt lat="37.9270617" lon="15.756555"><ele>34.0</ele><time>2026-04-04T08:36:54.579Z</time></trkpt><trkpt lat="37.9269517" lon="15.756765"><ele>34.0</ele><time>2026-04-04T08:36:55.579Z</time></trkpt><trkpt lat="37.9268367" lon="15.7569717"><ele>34.0</ele><time>2026-04-04T08:36:56.579Z</time></trkpt><trkpt lat="37.9267217" lon="15.7571833"><ele>33.66666666666667</ele><time>2026-04-04T08:36:57.579Z</time></trkpt><trkpt lat="37.92661" lon="15.7573917"><ele>33.333333333333336</ele><time>2026-04-04T08:36:58.58Z</time></trkpt><trkpt lat="37.9265" lon="15.7575967"><ele>33.0</ele><time>2026-04-04T08:36:59.579Z</time></trkpt><trkpt lat="37.92639" lon="15.7577983"><ele>33.666666666666664</ele><time>2026-04-04T08:37:00.579Z</time></trkpt><trkpt lat="37.9262817" lon="15.758"><ele>34.33333333333333</ele><time>2026-04-04T08:37:01.579Z</time></trkpt><trkpt lat="37.9261817" lon="15.7582"><ele>35.0</ele><time>2026-04-04T08:37:02.58Z</time></trkpt><trkpt lat="37.9260767" lon="15.7584067"><ele>35.33333333333333</ele><time>2026-04-04T08:37:03.579Z</time></trkpt><trkpt lat="37.9259717" lon="15.7585917"><ele>35.666666666666664</ele><time>2026-04-04T08:37:04.579Z</time></trkpt><trkpt lat="37.9258667" lon="15.7587933"><ele>36.0</ele><time>2026-04-04T08:37:05.579Z</time></trkpt><trkpt lat="37.9257583" lon="15.7589833"><ele>35.0</ele><time>2026-04-04T08:37:06.579Z</time></trkpt><trkpt lat="37.9256517" lon="15.7591783"><ele>34.0</ele><time>2026-04-04T08:37:07.579Z</time></trkpt><trkpt lat="37.9255467" lon="15.7593733"><ele>33.0</ele><time>2026-04-04T08:37:08.58Z</time></trkpt><trkpt lat="37.9254367" lon="15.75957"><ele>33.0</ele><time>2026-04-04T08:37:09.579Z</time></trkpt><trkpt lat="37.9253267" lon="15.75977"><ele>33.0</ele><time>2026-04-04T08:37:10.579Z</time></trkpt><trkpt lat="37.9252133" lon="15.7599733"><ele>33.0</ele><time>2026-04-04T08:37:11.579Z</time></trkpt><trkpt lat="37.9251067" lon="15.7601867"><ele>32.0</ele><time>2026-04-04T08:37:12.579Z</time></trkpt><trkpt lat="37.9250067" lon="15.7603883"><ele>31.0</ele><time>2026-04-04T08:37:13.579Z</time></trkpt><trkpt lat="37.9248967" lon="15.760595"><ele>30.0</ele><time>2026-04-04T08:37:14.579Z</time></trkpt><trkpt lat="37.92479" lon="15.76079"><ele>30.0</ele><time>2026-04-04T08:37:15.58Z</time></trkpt><trkpt lat="37.9246833" lon="15.76099"><ele>30.0</ele><time>2026-04-04T08:37:16.58Z</time></trkpt><trkpt lat="37.9245767" lon="15.7611933"><ele>30.0</ele><time>2026-04-04T08:37:17.58Z</time></trkpt><trkpt lat="37.9244683" lon="15.7613983"><ele>30.666666666666664</ele><time>2026-04-04T08:37:18.579Z</time></trkpt><trkpt lat="37.9243633" lon="15.7616083"><ele>31.333333333333332</ele><time>2026-04-04T08:37:19.58Z</time></trkpt><trkpt lat="37.9242567" lon="15.7618117"><ele>32.0</ele><time>2026-04-04T08:37:20.58Z</time></trkpt><trkpt lat="37.9241517" lon="15.7620133"><ele>32.0</ele><time>2026-04-04T08:37:21.579Z</time></trkpt><trkpt lat="37.9240483" lon="15.76222"><ele>32.0</ele><time>2026-04-04T08:37:22.579Z</time></trkpt><trkpt lat="37.923935" lon="15.7624317"><ele>32.0</ele><time>2026-04-04T08:37:23.579Z</time></trkpt><trkpt lat="37.9238333" lon="15.762635"><ele>34.666666666666664</ele><time>2026-04-04T08:37:24.579Z</time></trkpt><trkpt lat="37.923725" lon="15.7628467"><ele>37.333333333333336</ele><time>2026-04-04T08:37:25.579Z</time></trkpt><trkpt lat="37.92362" lon="15.7630667"><ele>40.0</ele><time>2026-04-04T08:37:26.579Z</time></trkpt><trkpt lat="37.923515" lon="15.7632783"><ele>40.0</ele><time>2026-04-04T08:37:27.579Z</time></trkpt><trkpt lat="37.92343" lon="15.7635083"><ele>40.0</ele><time>2026-04-04T08:37:28.579Z</time></trkpt><trkpt lat="37.92335" lon="15.76375"><ele>40.0</ele><time>2026-04-04T08:37:29.579Z</time></trkpt><trkpt lat="37.9232733" lon="15.76399"><ele>37.66666666666667</ele><time>2026-04-04T08:37:30.579Z</time></trkpt><trkpt lat="37.9231983" lon="15.76424"><ele>35.333333333333336</ele><time>2026-04-04T08:37:31.579Z</time></trkpt><trkpt lat="37.9231317" lon="15.7644817"><ele>33.0</ele><time>2026-04-04T08:37:32.579Z</time></trkpt><trkpt lat="37.92306" lon="15.7647233"><ele>33.0</ele><time>2026-04-04T08:37:33.579Z</time></trkpt><trkpt lat="37.9229883" lon="15.7649533"><ele>33.0</ele><time>2026-04-04T08:37:34.58Z</time></trkpt><trkpt lat="37.9229233" lon="15.7651917"><ele>33.0</ele><time>2026-04-04T08:37:35.579Z</time></trkpt><trkpt lat="37.9228633" lon="15.7654133"><ele>34.0</ele><time>2026-04-04T08:37:36.58Z</time></trkpt><trkpt lat="37.9228" lon="15.7656433"><ele>35.0</ele><time>2026-04-04T08:37:37.58Z</time></trkpt><trkpt lat="37.9227417" lon="15.7658817"><ele>36.0</ele><time>2026-04-04T08:37:38.58Z</time></trkpt><trkpt lat="37.92268" lon="15.7661083"><ele>37.333333333333336</ele><time>2026-04-04T08:37:39.579Z</time></trkpt><trkpt lat="37.9226167" lon="15.7663367"><ele>38.66666666666667</ele><time>2026-04-04T08:37:40.58Z</time></trkpt><trkpt lat="37.9225567" lon="15.766565"><ele>40.0</ele><time>2026-04-04T08:37:41.579Z</time></trkpt><trkpt lat="37.9224933" lon="15.766795"><ele>37.66666666666667</ele><time>2026-04-04T08:37:42.58Z</time></trkpt><trkpt lat="37.9224267" lon="15.7670183"><ele>35.333333333333336</ele><time>2026-04-04T08:37:43.579Z</time></trkpt><trkpt lat="37.922385" lon="15.76726"><ele>33.0</ele><time>2026-04-04T08:37:44.579Z</time></trkpt><trkpt lat="37.9223517" lon="15.7674967"><ele>33.666666666666664</ele><time>2026-04-04T08:37:45.579Z</time></trkpt><trkpt lat="37.922315" lon="15.767735"><ele>34.33333333333333</ele><time>2026-04-04T08:37:46.579Z</time></trkpt><trkpt lat="37.922275" lon="15.7679817"><ele>35.0</ele><time>2026-04-04T08:37:47.579Z</time></trkpt><trkpt lat="37.92227" lon="15.7682267"><ele>35.0</ele><time>2026-04-04T08:37:48.579Z</time></trkpt><trkpt lat="37.9222833" lon="15.7684717"><ele>35.0</ele><time>2026-04-04T08:37:49.579Z</time></trkpt><trkpt lat="37.9222983" lon="15.7687217"><ele>35.0</ele><time>2026-04-04T08:37:50.58Z</time></trkpt><trkpt lat="37.9223133" lon="15.768975"><ele>32.33333333333333</ele><time>2026-04-04T08:37:51.579Z</time></trkpt><trkpt lat="37.9223283" lon="15.7692283"><ele>29.666666666666664</ele><time>2026-04-04T08:37:52.579Z</time></trkpt><trkpt lat="37.9223433" lon="15.7694817"><ele>27.0</ele><time>2026-04-04T08:37:53.579Z</time></trkpt><trkpt lat="37.922355" lon="15.7697417"><ele>25.333333333333332</ele><time>2026-04-04T08:37:54.579Z</time></trkpt><trkpt lat="37.9223767" lon="15.7699983"><ele>23.666666666666664</ele><time>2026-04-04T08:37:55.579Z</time></trkpt><trkpt lat="37.9223967" lon="15.7702533"><ele>22.0</ele><time>2026-04-04T08:37:56.58Z</time></trkpt><trkpt lat="37.9224133" lon="15.7705067"><ele>21.666666666666664</ele><time>2026-04-04T08:37:57.58Z</time></trkpt><trkpt lat="37.92243" lon="15.77076"><ele>21.333333333333332</ele><time>2026-04-04T08:37:58.58Z</time></trkpt><trkpt lat="37.9224467" lon="15.771015"><ele>21.0</ele><time>2026-04-04T08:37:59.58Z</time></trkpt><trkpt lat="37.9224717" lon="15.7712717"><ele>22.333333333333336</ele><time>2026-04-04T08:38:00.58Z</time></trkpt><trkpt lat="37.9224867" lon="15.771525"><ele>23.666666666666668</ele><time>2026-04-04T08:38:01.579Z</time></trkpt><trkpt lat="37.9225033" lon="15.7717817"><ele>25.0</ele><time>2026-04-04T08:38:02.579Z</time></trkpt><trkpt lat="37.9225033" lon="15.7720283"><ele>26.333333333333336</ele><time>2026-04-04T08:38:03.58Z</time></trkpt><trkpt lat="37.9224967" lon="15.7722717"><ele>27.666666666666664</ele><time>2026-04-04T08:38:04.579Z</time></trkpt><trkpt lat="37.9224833" lon="15.77252"><ele>29.0</ele><time>2026-04-04T08:38:05.579Z</time></trkpt><trkpt lat="37.922465" lon="15.7727767"><ele>29.333333333333332</ele><time>2026-04-04T08:38:06.58Z</time></trkpt><trkpt lat="37.922445" lon="15.7730217"><ele>29.666666666666664</ele><time>2026-04-04T08:38:07.579Z</time></trkpt><trkpt lat="37.9224233" lon="15.7732783"><ele>30.0</ele><time>2026-04-04T08:38:08.579Z</time></trkpt><trkpt lat="37.9223983" lon="15.773535"><ele>30.666666666666664</ele><time>2026-04-04T08:38:09.58Z</time></trkpt><trkpt lat="37.92237" lon="15.7737917"><ele>31.333333333333332</ele><time>2026-04-04T08:38:10.579Z</time></trkpt><trkpt lat="37.9223467" lon="15.7740483"><ele>32.0</ele><time>2026-04-04T08:38:11.579Z</time></trkpt><trkpt lat="37.922335" lon="15.7743033"><ele>33.33333333333333</ele><time>2026-04-04T08:38:12.58Z</time></trkpt><trkpt lat="37.922335" lon="15.7745567"><ele>34.666666666666664</ele><time>2026-04-04T08:38:13.579Z</time></trkpt><trkpt lat="37.9223483" lon="15.7748033"><ele>36.0</ele><time>2026-04-04T08:38:14.58Z</time></trkpt><trkpt lat="37.9223733" lon="15.7750467"><ele>34.333333333333336</ele><time>2026-04-04T08:38:15.579Z</time></trkpt><trkpt lat="37.92241" lon="15.775275"><ele>32.66666666666667</ele><time>2026-04-04T08:38:16.579Z</time></trkpt><trkpt lat="37.9224567" lon="15.77551"><ele>31.0</ele><time>2026-04-04T08:38:17.579Z</time></trkpt><trkpt lat="37.9225167" lon="15.7757417"><ele>30.666666666666668</ele><time>2026-04-04T08:38:18.579Z</time></trkpt><trkpt lat="37.922585" lon="15.7759733"><ele>30.333333333333336</ele><time>2026-04-04T08:38:19.579Z</time></trkpt><trkpt lat="37.9226733" lon="15.776195"><ele>30.0</ele><time>2026-04-04T08:38:20.579Z</time></trkpt><trkpt lat="37.9227667" lon="15.7764117"><ele>30.0</ele><time>2026-04-04T08:38:21.579Z</time></trkpt><trkpt lat="37.9228767" lon="15.7766133"><ele>30.0</ele><time>2026-04-04T08:38:22.58Z</time></trkpt><trkpt lat="37.9229833" lon="15.7768283"><ele>30.0</ele><time>2026-04-04T08:38:23.579Z</time></trkpt><trkpt lat="37.923095" lon="15.7770317"><ele>30.333333333333336</ele><time>2026-04-04T08:38:24.579Z</time></trkpt><trkpt lat="37.923205" lon="15.77724"><ele>30.666666666666668</ele><time>2026-04-04T08:38:25.58Z</time></trkpt><trkpt lat="37.9233183" lon="15.7774367"><ele>31.0</ele><time>2026-04-04T08:38:26.579Z</time></trkpt><trkpt lat="37.923425" lon="15.77763"><ele>34.333333333333336</ele><time>2026-04-04T08:38:27.579Z</time></trkpt><trkpt lat="37.9235267" lon="15.77782"><ele>37.666666666666664</ele><time>2026-04-04T08:38:28.579Z</time></trkpt><trkpt lat="37.9236267" lon="15.7780083"><ele>41.0</ele><time>2026-04-04T08:38:29.58Z</time></trkpt><trkpt lat="37.92373" lon="15.7782"><ele>41.0</ele><time>2026-04-04T08:38:30.58Z</time></trkpt><trkpt lat="37.9238217" lon="15.7783833"><ele>41.0</ele><time>2026-04-04T08:38:31.58Z</time></trkpt><trkpt lat="37.9239083" lon="15.7785583"><ele>41.0</ele><time>2026-04-04T08:38:32.579Z</time></trkpt><trkpt lat="37.9239783" lon="15.7787383"><ele>39.666666666666664</ele><time>2026-04-04T08:38:33.579Z</time></trkpt><trkpt lat="37.9240467" lon="15.7789133"><ele>38.333333333333336</ele><time>2026-04-04T08:38:34.579Z</time></trkpt><trkpt lat="37.9241083" lon="15.7790967"><ele>37.0</ele><time>2026-04-04T08:38:35.579Z</time></trkpt><trkpt lat="37.9241783" lon="15.7792717"><ele>36.75</ele><time>2026-04-04T08:38:36.58Z</time></trkpt><trkpt lat="37.9242267" lon="15.7794433"><ele>36.5</ele><time>2026-04-04T08:38:37.579Z</time></trkpt><trkpt lat="37.9242683" lon="15.7796117"><ele>36.25</ele><time>2026-04-04T08:38:38.579Z</time></trkpt><trkpt lat="37.9242983" lon="15.7797833"><ele>36.0</ele><time>2026-04-04T08:38:39.58Z</time></trkpt><trkpt lat="37.9243183" lon="15.7799467"><ele>36.0</ele><time>2026-04-04T08:38:40.579Z</time></trkpt><trkpt lat="37.9243367" lon="15.7801017"><ele>36.0</ele><time>2026-04-04T08:38:41.579Z</time></trkpt><trkpt lat="37.9243517" lon="15.7802483"><ele>36.0</ele><time>2026-04-04T08:38:42.579Z</time></trkpt><trkpt lat="37.9243667" lon="15.7803867"><ele>36.0</ele><time>2026-04-04T08:38:43.579Z</time></trkpt><trkpt lat="37.9243717" lon="15.7805183"><ele>36.4</ele><time>2026-04-04T08:38:44.579Z</time></trkpt><trkpt lat="37.9243617" lon="15.78064"><ele>36.8</ele><time>2026-04-04T08:38:45.58Z</time></trkpt><trkpt lat="37.9243533" lon="15.78075"><ele>37.199999999999996</ele><time>2026-04-04T08:38:46.579Z</time></trkpt><trkpt lat="37.9243317" lon="15.7808567"><ele>37.6</ele><time>2026-04-04T08:38:47.58Z</time></trkpt><trkpt lat="37.92432" lon="15.7809733"><ele>38.0</ele><time>2026-04-04T08:38:48.58Z</time></trkpt><trkpt lat="37.9243117" lon="15.7810983"><ele>40.2</ele><time>2026-04-04T08:38:49.58Z</time></trkpt><trkpt lat="37.9243083" lon="15.781235"><ele>42.4</ele><time>2026-04-04T08:38:50.579Z</time></trkpt><trkpt lat="37.9243083" lon="15.781375"><ele>44.6</ele><time>2026-04-04T08:38:51.579Z</time></trkpt><trkpt lat="37.9242883" lon="15.78152"><ele>46.800000000000004</ele><time>2026-04-04T08:38:52.58Z</time></trkpt><trkpt lat="37.9242667" lon="15.7816583"><ele>49.0</ele><time>2026-04-04T08:38:53.579Z</time></trkpt><trkpt lat="37.9242383" lon="15.7818183"><ele>51.0</ele><time>2026-04-04T08:38:54.579Z</time></trkpt><trkpt lat="37.9242133" lon="15.7819867"><ele>53.0</ele><time>2026-04-04T08:38:55.579Z</time></trkpt><trkpt lat="37.9241867" lon="15.7821583"><ele>55.0</ele><time>2026-04-04T08:38:56.579Z</time></trkpt><trkpt lat="37.92416" lon="15.7823567"><ele>57.0</ele><time>2026-04-04T08:38:57.58Z</time></trkpt><trkpt lat="37.9241133" lon="15.7825483"><ele>60.75</ele><time>2026-04-04T08:38:58.58Z</time></trkpt><trkpt lat="37.92407" lon="15.7827133"><ele>64.5</ele><time>2026-04-04T08:38:59.579Z</time></trkpt><trkpt lat="37.92403" lon="15.7828967"><ele>68.25</ele><time>2026-04-04T08:39:00.579Z</time></trkpt><trkpt lat="37.9239883" lon="15.7830767"><ele>72.0</ele><time>2026-04-04T08:39:01.579Z</time></trkpt><trkpt lat="37.9239483" lon="15.7832583"><ele>33.0</ele><time>2026-04-04T08:39:02.579Z</time></trkpt><trkpt lat="37.9230717" lon="15.787565"><ele>30.666666666666664</ele><time>2026-04-04T08:39:22.579Z</time></trkpt><trkpt lat="37.922925" lon="15.787755"><ele>28.333333333333332</ele><time>2026-04-04T08:39:23.58Z</time></trkpt><trkpt lat="37.9228483" lon="15.787935"><ele>26.0</ele><time>2026-04-04T08:39:24.579Z</time></trkpt><trkpt lat="37.9227783" lon="15.7881183"><ele>26.0</ele><time>2026-04-04T08:39:25.58Z</time></trkpt><trkpt lat="37.9227" lon="15.7883283"><ele>26.0</ele><time>2026-04-04T08:39:26.58Z</time></trkpt><trkpt lat="37.92262" lon="15.7885367"><ele>26.0</ele><time>2026-04-04T08:39:27.58Z</time></trkpt><trkpt lat="37.9225267" lon="15.7887433"><ele>24.333333333333332</ele><time>2026-04-04T08:39:28.579Z</time></trkpt><trkpt lat="37.9224467" lon="15.78896"><ele>22.666666666666664</ele><time>2026-04-04T08:39:29.579Z</time></trkpt><trkpt lat="37.922365" lon="15.7891783"><ele>21.0</ele><time>2026-04-04T08:39:30.58Z</time></trkpt><trkpt lat="37.922275" lon="15.7893967"><ele>21.0</ele><time>2026-04-04T08:39:31.579Z</time></trkpt><trkpt lat="37.92219" lon="15.7896117"><ele>21.0</ele><time>2026-04-04T08:39:32.579Z</time></trkpt><trkpt lat="37.9221033" lon="15.78983"><ele>21.0</ele><time>2026-04-04T08:39:33.579Z</time></trkpt><trkpt lat="37.922015" lon="15.79004"><ele>20.333333333333332</ele><time>2026-04-04T08:39:34.579Z</time></trkpt><trkpt lat="37.9219267" lon="15.7902483"><ele>19.666666666666664</ele><time>2026-04-04T08:39:35.579Z</time></trkpt><trkpt lat="37.9218417" lon="15.7904633"><ele>19.0</ele><time>2026-04-04T08:39:36.579Z</time></trkpt><trkpt lat="37.921765" lon="15.7906683"><ele>18.666666666666664</ele><time>2026-04-04T08:39:37.579Z</time></trkpt><trkpt lat="37.92169" lon="15.7908717"><ele>18.333333333333332</ele><time>2026-04-04T08:39:38.58Z</time></trkpt><trkpt lat="37.92161" lon="15.791065"><ele>18.0</ele><time>2026-04-04T08:39:39.579Z</time></trkpt><trkpt lat="37.92153" lon="15.7912583"><ele>17.666666666666668</ele><time>2026-04-04T08:39:40.579Z</time></trkpt><trkpt lat="37.9214483" lon="15.7914533"><ele>17.333333333333336</ele><time>2026-04-04T08:39:41.579Z</time></trkpt><trkpt lat="37.92137" lon="15.7916483"><ele>17.0</ele><time>2026-04-04T08:39:42.579Z</time></trkpt><trkpt lat="37.9212933" lon="15.7918417"><ele>20.0</ele><time>2026-04-04T08:39:43.579Z</time></trkpt><trkpt lat="37.9212183" lon="15.79202"><ele>23.0</ele><time>2026-04-04T08:39:44.579Z</time></trkpt><trkpt lat="37.9211483" lon="15.79219"><ele>26.0</ele><time>2026-04-04T08:39:45.579Z</time></trkpt><trkpt lat="37.921075" lon="15.79236"><ele>26.0</ele><time>2026-04-04T08:39:46.579Z</time></trkpt><trkpt lat="37.9210133" lon="15.792515"><ele>26.0</ele><time>2026-04-04T08:39:47.579Z</time></trkpt><trkpt lat="37.9209567" lon="15.7926583"><ele>26.0</ele><time>2026-04-04T08:39:48.58Z</time></trkpt><trkpt lat="37.9209017" lon="15.7928"><ele>26.0</ele><time>2026-04-04T08:39:49.579Z</time></trkpt><trkpt lat="37.9208533" lon="15.7929283"><ele>27.5</ele><time>2026-04-04T08:39:50.579Z</time></trkpt><trkpt lat="37.9208117" lon="15.7930517"><ele>29.0</ele><time>2026-04-04T08:39:51.579Z</time></trkpt><trkpt lat="37.92077" lon="15.7931767"><ele>30.5</ele><time>2026-04-04T08:39:52.58Z</time></trkpt><trkpt lat="37.9207267" lon="15.7933333"><ele>32.0</ele><time>2026-04-04T08:39:53.579Z</time></trkpt><trkpt lat="37.9206817" lon="15.7935017"><ele>31.0</ele><time>2026-04-04T08:39:54.58Z</time></trkpt><trkpt lat="37.9206183" lon="15.7937033"><ele>30.0</ele><time>2026-04-04T08:39:55.579Z</time></trkpt><trkpt lat="37.9205667" lon="15.7939083"><ele>29.0</ele><time>2026-04-04T08:39:56.58Z</time></trkpt><trkpt lat="37.9205317" lon="15.7941183"><ele>29.0</ele><time>2026-04-04T08:39:57.579Z</time></trkpt><trkpt lat="37.9204933" lon="15.7943283"><ele>29.0</ele><time>2026-04-04T08:39:58.579Z</time></trkpt><trkpt lat="37.920465" lon="15.794545"><ele>29.0</ele><time>2026-04-04T08:39:59.579Z</time></trkpt><trkpt lat="37.9204433" lon="15.7947567"><ele>29.0</ele><time>2026-04-04T08:40:00.579Z</time></trkpt><trkpt lat="37.920435" lon="15.7949783"><ele>29.0</ele><time>2026-04-04T08:40:01.579Z</time></trkpt><trkpt lat="37.9204383" lon="15.7952167"><ele>29.0</ele><time>2026-04-04T08:40:02.579Z</time></trkpt><trkpt lat="37.9204567" lon="15.7954683"><ele>29.333333333333332</ele><time>2026-04-04T08:40:03.58Z</time></trkpt><trkpt lat="37.9204767" lon="15.7957233"><ele>29.666666666666664</ele><time>2026-04-04T08:40:04.579Z</time></trkpt><trkpt lat="37.9204917" lon="15.7959883"><ele>30.0</ele><time>2026-04-04T08:40:05.579Z</time></trkpt><trkpt lat="37.9205133" lon="15.796265"><ele>28.333333333333336</ele><time>2026-04-04T08:40:06.579Z</time></trkpt><trkpt lat="37.9205267" lon="15.7965317"><ele>26.666666666666668</ele><time>2026-04-04T08:40:07.579Z</time></trkpt><trkpt lat="37.9205333" lon="15.796805"><ele>25.0</ele><time>2026-04-04T08:40:08.579Z</time></trkpt><trkpt lat="37.9205467" lon="15.7970867"><ele>23.666666666666668</ele><time>2026-04-04T08:40:09.579Z</time></trkpt><trkpt lat="37.9205667" lon="15.7973717"><ele>22.333333333333336</ele><time>2026-04-04T08:40:10.579Z</time></trkpt><trkpt lat="37.92058" lon="15.7976433"><ele>21.0</ele><time>2026-04-04T08:40:11.579Z</time></trkpt><trkpt lat="37.9205933" lon="15.7979217"><ele>20.333333333333332</ele><time>2026-04-04T08:40:12.579Z</time></trkpt><trkpt lat="37.9206117" lon="15.7981933"><ele>19.666666666666664</ele><time>2026-04-04T08:40:13.579Z</time></trkpt><trkpt lat="37.9206217" lon="15.7984667"><ele>19.0</ele><time>2026-04-04T08:40:14.579Z</time></trkpt><trkpt lat="37.920635" lon="15.7987467"><ele>19.0</ele><time>2026-04-04T08:40:15.579Z</time></trkpt><trkpt lat="37.9206517" lon="15.7990233"><ele>19.0</ele><time>2026-04-04T08:40:16.58Z</time></trkpt><trkpt lat="37.9206767" lon="15.799295"><ele>19.0</ele><time>2026-04-04T08:40:17.579Z</time></trkpt><trkpt lat="37.9206983" lon="15.7995733"><ele>19.0</ele><time>2026-04-04T08:40:18.579Z</time></trkpt><trkpt lat="37.9207133" lon="15.7998467"><ele>19.0</ele><time>2026-04-04T08:40:19.579Z</time></trkpt><trkpt lat="37.9207217" lon="15.80013"><ele>19.0</ele><time>2026-04-04T08:40:20.579Z</time></trkpt><trkpt lat="37.9207383" lon="15.8004017"><ele>18.666666666666664</ele><time>2026-04-04T08:40:21.58Z</time></trkpt><trkpt lat="37.92075" lon="15.800675"><ele>18.333333333333332</ele><time>2026-04-04T08:40:22.579Z</time></trkpt><trkpt lat="37.92076" lon="15.8009383"><ele>18.0</ele><time>2026-04-04T08:40:23.579Z</time></trkpt><trkpt lat="37.92077" lon="15.801175"><ele>17.333333333333332</ele><time>2026-04-04T08:40:24.579Z</time></trkpt><trkpt lat="37.9207767" lon="15.8013917"><ele>16.666666666666664</ele><time>2026-04-04T08:40:25.579Z</time></trkpt><trkpt lat="37.92078" lon="15.801595"><ele>16.0</ele><time>2026-04-04T08:40:26.579Z</time></trkpt><trkpt lat="37.9207817" lon="15.80177"><ele>15.5</ele><time>2026-04-04T08:40:27.579Z</time></trkpt><trkpt lat="37.92078" lon="15.8019367"><ele>15.0</ele><time>2026-04-04T08:40:28.579Z</time></trkpt><trkpt lat="37.9207817" lon="15.8020933"><ele>14.5</ele><time>2026-04-04T08:40:29.579Z</time></trkpt><trkpt lat="37.9207883" lon="15.8022417"><ele>14.0</ele><time>2026-04-04T08:40:30.579Z</time></trkpt><trkpt lat="37.92079" lon="15.8023867"><ele>14.0</ele><time>2026-04-04T08:40:31.579Z</time></trkpt><trkpt lat="37.9207883" lon="15.80253"><ele>13.999999999999998</ele><time>2026-04-04T08:40:32.579Z</time></trkpt><trkpt lat="37.9207867" lon="15.80266"><ele>13.999999999999998</ele><time>2026-04-04T08:40:33.579Z</time></trkpt><trkpt lat="37.9207783" lon="15.8027817"><ele>14.0</ele><time>2026-04-04T08:40:34.58Z</time></trkpt><trkpt lat="37.9207617" lon="15.8028767"><ele>14.0</ele><time>2026-04-04T08:40:35.579Z</time></trkpt><trkpt lat="37.920735" lon="15.8029767"><ele>13.799999999999999</ele><time>2026-04-04T08:40:36.579Z</time></trkpt><trkpt lat="37.9207267" lon="15.8030817"><ele>13.599999999999998</ele><time>2026-04-04T08:40:37.579Z</time></trkpt><trkpt lat="37.920735" lon="15.8031933"><ele>13.4</ele><time>2026-04-04T08:40:38.579Z</time></trkpt><trkpt lat="37.9207617" lon="15.8033233"><ele>13.2</ele><time>2026-04-04T08:40:39.579Z</time></trkpt><trkpt lat="37.9207867" lon="15.80346"><ele>13.0</ele><time>2026-04-04T08:40:40.58Z</time></trkpt><trkpt lat="37.9208" lon="15.8036233"><ele>11.75</ele><time>2026-04-04T08:40:41.58Z</time></trkpt><trkpt lat="37.9208033" lon="15.8037783"><ele>10.5</ele><time>2026-04-04T08:40:42.579Z</time></trkpt><trkpt lat="37.9208083" lon="15.80395"><ele>9.25</ele><time>2026-04-04T08:40:43.579Z</time></trkpt><trkpt lat="37.920805" lon="15.8041267"><ele>8.0</ele><time>2026-04-04T08:40:44.579Z</time></trkpt><trkpt lat="37.920805" lon="15.8042867"><ele>8.25</ele><time>2026-04-04T08:40:45.579Z</time></trkpt><trkpt lat="37.9208083" lon="15.8044483"><ele>8.5</ele><time>2026-04-04T08:40:46.579Z</time></trkpt><trkpt lat="37.9208167" lon="15.8046283"><ele>8.75</ele><time>2026-04-04T08:40:47.58Z</time></trkpt><trkpt lat="37.92082" lon="15.8048233"><ele>9.0</ele><time>2026-04-04T08:40:48.58Z</time></trkpt><trkpt lat="37.9208217" lon="15.805025"><ele>9.333333333333334</ele><time>2026-04-04T08:40:49.579Z</time></trkpt><trkpt lat="37.9208233" lon="15.805235"><ele>9.666666666666668</ele><time>2026-04-04T08:40:50.579Z</time></trkpt><trkpt lat="37.92083" lon="15.8054567"><ele>10.0</ele><time>2026-04-04T08:40:51.579Z</time></trkpt><trkpt lat="37.9208367" lon="15.8056833"><ele>10.0</ele><time>2026-04-04T08:40:52.579Z</time></trkpt><trkpt lat="37.92085" lon="15.8059133"><ele>10.0</ele><time>2026-04-04T08:40:53.579Z</time></trkpt><trkpt lat="37.9208583" lon="15.8061567"><ele>10.0</ele><time>2026-04-04T08:40:54.579Z</time></trkpt><trkpt lat="37.920865" lon="15.8064133"><ele>10.333333333333334</ele><time>2026-04-04T08:40:55.58Z</time></trkpt><trkpt lat="37.9208667" lon="15.80666"><ele>10.666666666666666</ele><time>2026-04-04T08:40:56.58Z</time></trkpt><trkpt lat="37.9208583" lon="15.8069033"><ele>11.0</ele><time>2026-04-04T08:40:57.579Z</time></trkpt><trkpt lat="37.9208467" lon="15.807165"><ele>11.333333333333332</ele><time>2026-04-04T08:40:58.58Z</time></trkpt><trkpt lat="37.9208267" lon="15.8074317"><ele>11.666666666666666</ele><time>2026-04-04T08:40:59.579Z</time></trkpt><trkpt lat="37.9208217" lon="15.8076883"><ele>12.0</ele><time>2026-04-04T08:41:00.579Z</time></trkpt><trkpt lat="37.92081" lon="15.80795"><ele>12.0</ele><time>2026-04-04T08:41:01.58Z</time></trkpt><trkpt lat="37.9208067" lon="15.8082083"><ele>12.0</ele><time>2026-04-04T08:41:02.579Z</time></trkpt><trkpt lat="37.9208033" lon="15.8084733"><ele>12.0</ele><time>2026-04-04T08:41:03.579Z</time></trkpt><trkpt lat="37.9207883" lon="15.8087317"><ele>11.666666666666666</ele><time>2026-04-04T08:41:04.579Z</time></trkpt><trkpt lat="37.920785" lon="15.8089767"><ele>11.333333333333332</ele><time>2026-04-04T08:41:05.579Z</time></trkpt><trkpt lat="37.92078" lon="15.8092133"><ele>11.0</ele><time>2026-04-04T08:41:06.579Z</time></trkpt><trkpt lat="37.9207767" lon="15.80944"><ele>10.666666666666666</ele><time>2026-04-04T08:41:07.579Z</time></trkpt><trkpt lat="37.9207783" lon="15.8096817"><ele>10.333333333333334</ele><time>2026-04-04T08:41:08.579Z</time></trkpt><trkpt lat="37.920775" lon="15.8099267"><ele>10.0</ele><time>2026-04-04T08:41:09.579Z</time></trkpt><trkpt lat="37.9207683" lon="15.8101667"><ele>9.666666666666668</ele><time>2026-04-04T08:41:10.579Z</time></trkpt><trkpt lat="37.9207633" lon="15.8104067"><ele>9.333333333333334</ele><time>2026-04-04T08:41:11.579Z</time></trkpt><trkpt lat="37.920765" lon="15.8106483"><ele>9.0</ele><time>2026-04-04T08:41:12.58Z</time></trkpt><trkpt lat="37.920765" lon="15.810885"><ele>9.333333333333334</ele><time>2026-04-04T08:41:13.579Z</time></trkpt><trkpt lat="37.9207617" lon="15.8111283"><ele>9.666666666666668</ele><time>2026-04-04T08:41:14.579Z</time></trkpt><trkpt lat="37.9207567" lon="15.8113767"><ele>10.0</ele><time>2026-04-04T08:41:15.58Z</time></trkpt><trkpt lat="37.9207533" lon="15.8116283"><ele>10.666666666666668</ele><time>2026-04-04T08:41:16.579Z</time></trkpt><trkpt lat="37.9207617" lon="15.8118783"><ele>11.333333333333334</ele><time>2026-04-04T08:41:17.579Z</time></trkpt><trkpt lat="37.9207617" lon="15.8121183"><ele>12.0</ele><time>2026-04-04T08:41:18.579Z</time></trkpt><trkpt lat="37.9207583" lon="15.8123633"><ele>12.0</ele><time>2026-04-04T08:41:19.579Z</time></trkpt><trkpt lat="37.920755" lon="15.8126033"><ele>12.0</ele><time>2026-04-04T08:41:20.579Z</time></trkpt><trkpt lat="37.9207483" lon="15.8128383"><ele>12.0</ele><time>2026-04-04T08:41:21.579Z</time></trkpt><trkpt lat="37.9207433" lon="15.8130767"><ele>11.666666666666666</ele><time>2026-04-04T08:41:22.579Z</time></trkpt><trkpt lat="37.920735" lon="15.8133133"><ele>11.333333333333332</ele><time>2026-04-04T08:41:23.579Z</time></trkpt><trkpt lat="37.9207167" lon="15.81356"><ele>11.0</ele><time>2026-04-04T08:41:24.579Z</time></trkpt><trkpt lat="37.9207083" lon="15.8138033"><ele>11.0</ele><time>2026-04-04T08:41:25.579Z</time></trkpt><trkpt lat="37.920705" lon="15.8140433"><ele>11.0</ele><time>2026-04-04T08:41:26.579Z</time></trkpt><trkpt lat="37.920695" lon="15.8142883"><ele>11.0</ele><time>2026-04-04T08:41:27.579Z</time></trkpt><trkpt lat="37.92068" lon="15.81453"><ele>10.666666666666666</ele><time>2026-04-04T08:41:28.579Z</time></trkpt><trkpt lat="37.920665" lon="15.81477"><ele>10.333333333333334</ele><time>2026-04-04T08:41:29.579Z</time></trkpt><trkpt lat="37.92065" lon="15.8150083"><ele>10.0</ele><time>2026-04-04T08:41:30.579Z</time></trkpt><trkpt lat="37.92064" lon="15.8152483"><ele>11.666666666666668</ele><time>2026-04-04T08:41:31.58Z</time></trkpt><trkpt lat="37.92063" lon="15.8154917"><ele>13.333333333333334</ele><time>2026-04-04T08:41:32.579Z</time></trkpt><trkpt lat="37.9206217" lon="15.81574"><ele>15.0</ele><time>2026-04-04T08:41:33.58Z</time></trkpt><trkpt lat="37.9206067" lon="15.81599"><ele>18.0</ele><time>2026-04-04T08:41:34.579Z</time></trkpt><trkpt lat="37.920595" lon="15.8162317"><ele>21.0</ele><time>2026-04-04T08:41:35.579Z</time></trkpt><trkpt lat="37.92059" lon="15.8164767"><ele>24.0</ele><time>2026-04-04T08:41:36.579Z</time></trkpt><trkpt lat="37.9205783" lon="15.8167267"><ele>22.0</ele><time>2026-04-04T08:41:37.579Z</time></trkpt><trkpt lat="37.9205683" lon="15.8169767"><ele>20.0</ele><time>2026-04-04T08:41:38.58Z</time></trkpt><trkpt lat="37.9205533" lon="15.8172383"><ele>18.0</ele><time>2026-04-04T08:41:39.579Z</time></trkpt><trkpt lat="37.9205383" lon="15.81749"><ele>18.666666666666668</ele><time>2026-04-04T08:41:40.58Z</time></trkpt><trkpt lat="37.92052" lon="15.81775"><ele>19.333333333333336</ele><time>2026-04-04T08:41:41.579Z</time></trkpt><trkpt lat="37.92051" lon="15.818005"><ele>20.0</ele><time>2026-04-04T08:41:42.58Z</time></trkpt><trkpt lat="37.9205" lon="15.8182583"><ele>24.0</ele><time>2026-04-04T08:41:43.58Z</time></trkpt><trkpt lat="37.9204883" lon="15.81851"><ele>28.0</ele><time>2026-04-04T08:41:44.579Z</time></trkpt><trkpt lat="37.920475" lon="15.81876"><ele>32.0</ele><time>2026-04-04T08:41:45.579Z</time></trkpt><trkpt lat="37.92047" lon="15.8190133"><ele>32.0</ele><time>2026-04-04T08:41:46.58Z</time></trkpt><trkpt lat="37.9204533" lon="15.8192617"><ele>32.0</ele><time>2026-04-04T08:41:47.579Z</time></trkpt><trkpt lat="37.9204417" lon="15.8195133"><ele>32.0</ele><time>2026-04-04T08:41:48.579Z</time></trkpt><trkpt lat="37.9204317" lon="15.8197583"><ele>33.33333333333333</ele><time>2026-04-04T08:41:49.579Z</time></trkpt><trkpt lat="37.9204167" lon="15.82001"><ele>34.666666666666664</ele><time>2026-04-04T08:41:50.58Z</time></trkpt><trkpt lat="37.9204033" lon="15.8202583"><ele>36.0</ele><time>2026-04-04T08:41:51.58Z</time></trkpt><trkpt lat="37.9203917" lon="15.820505"><ele>35.666666666666664</ele><time>2026-04-04T08:41:52.579Z</time></trkpt><trkpt lat="37.9203817" lon="15.8207567"><ele>35.33333333333333</ele><time>2026-04-04T08:41:53.579Z</time></trkpt><trkpt lat="37.920375" lon="15.82101"><ele>35.0</ele><time>2026-04-04T08:41:54.579Z</time></trkpt><trkpt lat="37.9203683" lon="15.8212567"><ele>35.0</ele><time>2026-04-04T08:41:55.579Z</time></trkpt><trkpt lat="37.9203717" lon="15.8214983"><ele>35.0</ele><time>2026-04-04T08:41:56.579Z</time></trkpt><trkpt lat="37.9203783" lon="15.821745"><ele>35.0</ele><time>2026-04-04T08:41:57.579Z</time></trkpt><trkpt lat="37.9203867" lon="15.82198"><ele>30.333333333333332</ele><time>2026-04-04T08:41:58.579Z</time></trkpt><trkpt lat="37.92041" lon="15.8222183"><ele>25.666666666666664</ele><time>2026-04-04T08:41:59.579Z</time></trkpt><trkpt lat="37.9204167" lon="15.822445"><ele>21.0</ele><time>2026-04-04T08:42:00.58Z</time></trkpt><trkpt lat="37.92043" lon="15.8226783"><ele>19.666666666666668</ele><time>2026-04-04T08:42:01.58Z</time></trkpt><trkpt lat="37.92044" lon="15.82291"><ele>18.333333333333336</ele><time>2026-04-04T08:42:02.579Z</time></trkpt><trkpt lat="37.920455" lon="15.823145"><ele>17.0</ele><time>2026-04-04T08:42:03.58Z</time></trkpt><trkpt lat="37.9204817" lon="15.8233683"><ele>18.0</ele><time>2026-04-04T08:42:04.579Z</time></trkpt><trkpt lat="37.9205183" lon="15.8235917"><ele>19.0</ele><time>2026-04-04T08:42:05.58Z</time></trkpt><trkpt lat="37.9205683" lon="15.8238133"><ele>20.0</ele><time>2026-04-04T08:42:06.579Z</time></trkpt><trkpt lat="37.9206367" lon="15.82404"><ele>20.0</ele><time>2026-04-04T08:42:07.579Z</time></trkpt><trkpt lat="37.920715" lon="15.8242717"><ele>20.0</ele><time>2026-04-04T08:42:08.579Z</time></trkpt><trkpt lat="37.9207983" lon="15.824505"><ele>20.0</ele><time>2026-04-04T08:42:09.579Z</time></trkpt><trkpt lat="37.92089" lon="15.824735"><ele>24.0</ele><time>2026-04-04T08:42:10.58Z</time></trkpt><trkpt lat="37.9209933" lon="15.8249517"><ele>28.0</ele><time>2026-04-04T08:42:11.579Z</time></trkpt><trkpt lat="37.9210933" lon="15.825175"><ele>32.0</ele><time>2026-04-04T08:42:12.579Z</time></trkpt><trkpt lat="37.9212017" lon="15.8253933"><ele>32.0</ele><time>2026-04-04T08:42:13.579Z</time></trkpt><trkpt lat="37.921305" lon="15.8256317"><ele>32.0</ele><time>2026-04-04T08:42:14.58Z</time></trkpt><trkpt lat="37.921405" lon="15.8258583"><ele>32.0</ele><time>2026-04-04T08:42:15.579Z</time></trkpt><trkpt lat="37.9215083" lon="15.8260817"><ele>29.0</ele><time>2026-04-04T08:42:16.579Z</time></trkpt><trkpt lat="37.9216" lon="15.8263067"><ele>26.0</ele><time>2026-04-04T08:42:17.579Z</time></trkpt><trkpt lat="37.9216867" lon="15.82654"><ele>23.0</ele><time>2026-04-04T08:42:18.579Z</time></trkpt><trkpt lat="37.9217683" lon="15.8267717"><ele>26.333333333333336</ele><time>2026-04-04T08:42:19.579Z</time></trkpt><trkpt lat="37.9218383" lon="15.827"><ele>29.666666666666668</ele><time>2026-04-04T08:42:20.579Z</time></trkpt><trkpt lat="37.9218917" lon="15.8272433"><ele>33.0</ele><time>2026-04-04T08:42:21.579Z</time></trkpt><trkpt lat="37.9219333" lon="15.827485"><ele>31.0</ele><time>2026-04-04T08:42:22.579Z</time></trkpt><trkpt lat="37.9219633" lon="15.8277283"><ele>29.0</ele><time>2026-04-04T08:42:23.58Z</time></trkpt><trkpt lat="37.921985" lon="15.8279717"><ele>27.0</ele><time>2026-04-04T08:42:24.58Z</time></trkpt><trkpt lat="37.922" lon="15.8282133"><ele>27.0</ele><time>2026-04-04T08:42:25.579Z</time></trkpt><trkpt lat="37.9220133" lon="15.8284617"><ele>27.0</ele><time>2026-04-04T08:42:26.579Z</time></trkpt><trkpt lat="37.9220167" lon="15.828715"><ele>27.0</ele><time>2026-04-04T08:42:27.579Z</time></trkpt><trkpt lat="37.9220217" lon="15.8289633"><ele>28.0</ele><time>2026-04-04T08:42:28.58Z</time></trkpt><trkpt lat="37.922025" lon="15.8292233"><ele>29.0</ele><time>2026-04-04T08:42:29.58Z</time></trkpt><trkpt lat="37.9220333" lon="15.8294867"><ele>30.0</ele><time>2026-04-04T08:42:30.579Z</time></trkpt><trkpt lat="37.92204" lon="15.829745"><ele>31.0</ele><time>2026-04-04T08:42:31.579Z</time></trkpt><trkpt lat="37.922045" lon="15.830015"><ele>32.0</ele><time>2026-04-04T08:42:32.579Z</time></trkpt><trkpt lat="37.9220483" lon="15.8302783"><ele>33.0</ele><time>2026-04-04T08:42:33.579Z</time></trkpt><trkpt lat="37.9220517" lon="15.8305467"><ele>33.666666666666664</ele><time>2026-04-04T08:42:34.579Z</time></trkpt><trkpt lat="37.92206" lon="15.8308083"><ele>34.33333333333333</ele><time>2026-04-04T08:42:35.579Z</time></trkpt><trkpt lat="37.9220633" lon="15.8310717"><ele>35.0</ele><time>2026-04-04T08:42:36.579Z</time></trkpt><trkpt lat="37.92207" lon="15.8313467"><ele>35.666666666666664</ele><time>2026-04-04T08:42:37.58Z</time></trkpt><trkpt lat="37.92208" lon="15.8316233"><ele>36.333333333333336</ele><time>2026-04-04T08:42:38.579Z</time></trkpt><trkpt lat="37.92211" lon="15.8319117"><ele>37.0</ele><time>2026-04-04T08:42:39.579Z</time></trkpt><trkpt lat="37.922155" lon="15.8322267"><ele>37.0</ele><time>2026-04-04T08:42:40.58Z</time></trkpt><trkpt lat="37.92222" lon="15.8325467"><ele>37.0</ele><time>2026-04-04T08:42:41.579Z</time></trkpt><trkpt lat="37.9223033" lon="15.8328683"><ele>33.0</ele><time>2026-04-04T08:42:42.579Z</time></trkpt><trkpt lat="37.9223967" lon="15.833175"><ele>29.0</ele><time>2026-04-04T08:42:43.579Z</time></trkpt><trkpt lat="37.9224867" lon="15.8334633"><ele>30.666666666666664</ele><time>2026-04-04T08:42:44.579Z</time></trkpt><trkpt lat="37.9225717" lon="15.83373"><ele>32.333333333333336</ele><time>2026-04-04T08:42:45.579Z</time></trkpt><trkpt lat="37.92265" lon="15.8339917"><ele>34.0</ele><time>2026-04-04T08:42:46.579Z</time></trkpt><trkpt lat="37.9227267" lon="15.8342283"><ele>32.66666666666667</ele><time>2026-04-04T08:42:47.579Z</time></trkpt><trkpt lat="37.9227817" lon="15.8344783"><ele>31.333333333333336</ele><time>2026-04-04T08:42:48.58Z</time></trkpt><trkpt lat="37.9228317" lon="15.8347383"><ele>30.0</ele><time>2026-04-04T08:42:49.58Z</time></trkpt><trkpt lat="37.922875" lon="15.835"><ele>28.0</ele><time>2026-04-04T08:42:50.58Z</time></trkpt><trkpt lat="37.9228983" lon="15.8352717"><ele>26.0</ele><time>2026-04-04T08:42:51.58Z</time></trkpt><trkpt lat="37.9229133" lon="15.8355333"><ele>24.0</ele><time>2026-04-04T08:42:52.58Z</time></trkpt><trkpt lat="37.922915" lon="15.8358"><ele>22.666666666666668</ele><time>2026-04-04T08:42:53.579Z</time></trkpt><trkpt lat="37.922905" lon="15.836065"><ele>21.333333333333336</ele><time>2026-04-04T08:42:54.58Z</time></trkpt><trkpt lat="37.9228983" lon="15.836335"><ele>20.0</ele><time>2026-04-04T08:42:55.58Z</time></trkpt><trkpt lat="37.922875" lon="15.836595"><ele>18.333333333333336</ele><time>2026-04-04T08:42:56.579Z</time></trkpt><trkpt lat="37.9228617" lon="15.8368667"><ele>16.666666666666668</ele><time>2026-04-04T08:42:57.579Z</time></trkpt><trkpt lat="37.9228533" lon="15.837155"><ele>15.0</ele><time>2026-04-04T08:42:58.579Z</time></trkpt><trkpt lat="37.9228383" lon="15.837445"><ele>14.5</ele><time>2026-04-04T08:42:59.579Z</time></trkpt><trkpt lat="37.92283" lon="15.8377267"><ele>14.0</ele><time>2026-04-04T08:43:00.579Z</time></trkpt><trkpt lat="37.92282" lon="15.838015"><ele>14.0</ele><time>2026-04-04T08:43:01.579Z</time></trkpt><trkpt lat="37.92281" lon="15.8383"><ele>14.0</ele><time>2026-04-04T08:43:02.579Z</time></trkpt><trkpt lat="37.9228017" lon="15.838575"><ele>14.0</ele><time>2026-04-04T08:43:03.579Z</time></trkpt><trkpt lat="37.9227933" lon="15.8388433"><ele>13.666666666666668</ele><time>2026-04-04T08:43:04.579Z</time></trkpt><trkpt lat="37.9227867" lon="15.8391117"><ele>13.333333333333332</ele><time>2026-04-04T08:43:05.579Z</time></trkpt><trkpt lat="37.9227833" lon="15.839365"><ele>13.0</ele><time>2026-04-04T08:43:06.579Z</time></trkpt><trkpt lat="37.9227817" lon="15.83962"><ele>13.0</ele><time>2026-04-04T08:43:07.579Z</time></trkpt><trkpt lat="37.922785" lon="15.839875"><ele>13.0</ele><time>2026-04-04T08:43:08.579Z</time></trkpt><trkpt lat="37.9227833" lon="15.8401367"><ele>13.0</ele><time>2026-04-04T08:43:09.579Z</time></trkpt><trkpt lat="37.9227783" lon="15.8404017"><ele>16.333333333333332</ele><time>2026-04-04T08:43:10.579Z</time></trkpt><trkpt lat="37.9227817" lon="15.8406733"><ele>19.666666666666668</ele><time>2026-04-04T08:43:11.58Z</time></trkpt><trkpt lat="37.9228017" lon="15.8409517"><ele>23.0</ele><time>2026-04-04T08:43:12.579Z</time></trkpt><trkpt lat="37.922825" lon="15.84123"><ele>23.0</ele><time>2026-04-04T08:43:13.579Z</time></trkpt><trkpt lat="37.9228717" lon="15.84151"><ele>23.0</ele><time>2026-04-04T08:43:14.579Z</time></trkpt><trkpt lat="37.9229267" lon="15.8417933"><ele>22.5</ele><time>2026-04-04T08:43:15.579Z</time></trkpt><trkpt lat="37.9229783" lon="15.8420733"><ele>22.0</ele><time>2026-04-04T08:43:16.579Z</time></trkpt><trkpt lat="37.9230367" lon="15.8423567"><ele>19.5</ele><time>2026-04-04T08:43:17.58Z</time></trkpt><trkpt lat="37.9230917" lon="15.8426383"><ele>17.0</ele><time>2026-04-04T08:43:18.579Z</time></trkpt><trkpt lat="37.9231467" lon="15.842925"><ele>17.0</ele><time>2026-04-04T08:43:19.579Z</time></trkpt><trkpt lat="37.9231967" lon="15.8432"><ele>17.0</ele><time>2026-04-04T08:43:20.579Z</time></trkpt><trkpt lat="37.9232417" lon="15.8434767"><ele>17.0</ele><time>2026-04-04T08:43:21.579Z</time></trkpt><trkpt lat="37.9232867" lon="15.8437417"><ele>17.0</ele><time>2026-04-04T08:43:22.579Z</time></trkpt><trkpt lat="37.923325" lon="15.844015"><ele>17.0</ele><time>2026-04-04T08:43:23.579Z</time></trkpt><trkpt lat="37.9233567" lon="15.8443017"><ele>17.0</ele><time>2026-04-04T08:43:24.579Z</time></trkpt><trkpt lat="37.9233817" lon="15.8445733"><ele>23.333333333333336</ele><time>2026-04-04T08:43:25.58Z</time></trkpt><trkpt lat="37.9234033" lon="15.8448467"><ele>29.666666666666668</ele><time>2026-04-04T08:43:26.579Z</time></trkpt><trkpt lat="37.923425" lon="15.8451233"><ele>36.0</ele><time>2026-04-04T08:43:27.579Z</time></trkpt><trkpt lat="37.92344" lon="15.8453917"><ele>38.0</ele><time>2026-04-04T08:43:28.58Z</time></trkpt><trkpt lat="37.92346" lon="15.8456567"><ele>40.0</ele><time>2026-04-04T08:43:29.579Z</time></trkpt><trkpt lat="37.923485" lon="15.8459233"><ele>42.0</ele><time>2026-04-04T08:43:30.579Z</time></trkpt><trkpt lat="37.9235133" lon="15.84619"><ele>42.0</ele><time>2026-04-04T08:43:31.579Z</time></trkpt><trkpt lat="37.9235383" lon="15.84646"><ele>42.0</ele><time>2026-04-04T08:43:32.579Z</time></trkpt><trkpt lat="37.9235633" lon="15.8467233"><ele>42.0</ele><time>2026-04-04T08:43:33.58Z</time></trkpt><trkpt lat="37.923595" lon="15.8469933"><ele>38.333333333333336</ele><time>2026-04-04T08:43:34.579Z</time></trkpt><trkpt lat="37.9236417" lon="15.8472617"><ele>34.66666666666667</ele><time>2026-04-04T08:43:35.579Z</time></trkpt><trkpt lat="37.92369" lon="15.8475317"><ele>31.0</ele><time>2026-04-04T08:43:36.58Z</time></trkpt><trkpt lat="37.9237417" lon="15.8477967"><ele>29.666666666666668</ele><time>2026-04-04T08:43:37.579Z</time></trkpt><trkpt lat="37.9237883" lon="15.8480733"><ele>28.333333333333336</ele><time>2026-04-04T08:43:38.579Z</time></trkpt><trkpt lat="37.92384" lon="15.8483433"><ele>27.0</ele><time>2026-04-04T08:43:39.579Z</time></trkpt><trkpt lat="37.923885" lon="15.848605"><ele>25.333333333333332</ele><time>2026-04-04T08:43:40.579Z</time></trkpt><trkpt lat="37.9239333" lon="15.8488567"><ele>23.666666666666664</ele><time>2026-04-04T08:43:41.579Z</time></trkpt><trkpt lat="37.923985" lon="15.84911"><ele>22.0</ele><time>2026-04-04T08:43:42.579Z</time></trkpt><trkpt lat="37.9240383" lon="15.84937"><ele>20.666666666666664</ele><time>2026-04-04T08:43:43.579Z</time></trkpt><trkpt lat="37.9240983" lon="15.849625"><ele>19.333333333333332</ele><time>2026-04-04T08:43:44.579Z</time></trkpt><trkpt lat="37.92415" lon="15.8498783"><ele>18.0</ele><time>2026-04-04T08:43:45.579Z</time></trkpt><trkpt lat="37.924205" lon="15.85013"><ele>20.666666666666664</ele><time>2026-04-04T08:43:46.579Z</time></trkpt><trkpt lat="37.9242567" lon="15.8503817"><ele>23.333333333333332</ele><time>2026-04-04T08:43:47.58Z</time></trkpt><trkpt lat="37.9243067" lon="15.8506233"><ele>26.0</ele><time>2026-04-04T08:43:48.579Z</time></trkpt><trkpt lat="37.9243617" lon="15.8508733"><ele>25.333333333333332</ele><time>2026-04-04T08:43:49.579Z</time></trkpt><trkpt lat="37.9244133" lon="15.851105"><ele>24.666666666666664</ele><time>2026-04-04T08:43:50.579Z</time></trkpt><trkpt lat="37.924475" lon="15.8513367"><ele>24.0</ele><time>2026-04-04T08:43:51.579Z</time></trkpt><trkpt lat="37.924545" lon="15.8515567"><ele>24.0</ele><time>2026-04-04T08:43:52.579Z</time></trkpt><trkpt lat="37.924625" lon="15.8517883"><ele>24.0</ele><time>2026-04-04T08:43:53.579Z</time></trkpt><trkpt lat="37.924715" lon="15.8520183"><ele>24.0</ele><time>2026-04-04T08:43:54.579Z</time></trkpt><trkpt lat="37.924815" lon="15.8522417"><ele>24.0</ele><time>2026-04-04T08:43:55.579Z</time></trkpt><trkpt lat="37.9249317" lon="15.8524617"><ele>24.0</ele><time>2026-04-04T08:43:56.579Z</time></trkpt><trkpt lat="37.9250533" lon="15.8526767"><ele>24.0</ele><time>2026-04-04T08:43:57.579Z</time></trkpt><trkpt lat="37.9251833" lon="15.8528933"><ele>24.0</ele><time>2026-04-04T08:43:58.579Z</time></trkpt><trkpt lat="37.9253117" lon="15.8531067"><ele>24.0</ele><time>2026-04-04T08:43:59.579Z</time></trkpt><trkpt lat="37.9254617" lon="15.8533067"><ele>24.0</ele><time>2026-04-04T08:44:00.579Z</time></trkpt><trkpt lat="37.925595" lon="15.8535283"><ele>24.666666666666664</ele><time>2026-04-04T08:44:01.579Z</time></trkpt><trkpt lat="37.9257283" lon="15.8537383"><ele>25.333333333333332</ele><time>2026-04-04T08:44:02.579Z</time></trkpt><trkpt lat="37.92586" lon="15.8539417"><ele>26.0</ele><time>2026-04-04T08:44:03.579Z</time></trkpt><trkpt lat="37.925995" lon="15.8541383"><ele>25.333333333333332</ele><time>2026-04-04T08:44:04.579Z</time></trkpt><trkpt lat="37.9261217" lon="15.854335"><ele>24.666666666666664</ele><time>2026-04-04T08:44:05.579Z</time></trkpt><trkpt lat="37.9262517" lon="15.8545283"><ele>24.0</ele><time>2026-04-04T08:44:06.579Z</time></trkpt><trkpt lat="37.926375" lon="15.8547333"><ele>24.0</ele><time>2026-04-04T08:44:07.58Z</time></trkpt><trkpt lat="37.9264967" lon="15.854935"><ele>24.0</ele><time>2026-04-04T08:44:08.579Z</time></trkpt><trkpt lat="37.9266217" lon="15.8551367"><ele>24.0</ele><time>2026-04-04T08:44:09.579Z</time></trkpt><trkpt lat="37.92674" lon="15.8553333"><ele>25.333333333333336</ele><time>2026-04-04T08:44:10.579Z</time></trkpt><trkpt lat="37.9268633" lon="15.8555317"><ele>26.666666666666668</ele><time>2026-04-04T08:44:11.58Z</time></trkpt><trkpt lat="37.92699" lon="15.8557333"><ele>28.0</ele><time>2026-04-04T08:44:12.58Z</time></trkpt><trkpt lat="37.9271167" lon="15.8559283"><ele>26.666666666666668</ele><time>2026-04-04T08:44:13.579Z</time></trkpt><trkpt lat="37.9272383" lon="15.8561367"><ele>25.333333333333336</ele><time>2026-04-04T08:44:14.58Z</time></trkpt><trkpt lat="37.927345" lon="15.8563517"><ele>24.0</ele><time>2026-04-04T08:44:15.579Z</time></trkpt><trkpt lat="37.9274433" lon="15.8565733"><ele>23.0</ele><time>2026-04-04T08:44:16.579Z</time></trkpt><trkpt lat="37.9275367" lon="15.8568067"><ele>22.0</ele><time>2026-04-04T08:44:17.579Z</time></trkpt><trkpt lat="37.9276133" lon="15.8570367"><ele>21.0</ele><time>2026-04-04T08:44:18.579Z</time></trkpt><trkpt lat="37.9276817" lon="15.8572767"><ele>21.0</ele><time>2026-04-04T08:44:19.579Z</time></trkpt><trkpt lat="37.9277433" lon="15.8575183"><ele>21.0</ele><time>2026-04-04T08:44:20.579Z</time></trkpt><trkpt lat="37.9278133" lon="15.8577733"><ele>21.0</ele><time>2026-04-04T08:44:21.579Z</time></trkpt><trkpt lat="37.9278733" lon="15.8580267"><ele>20.666666666666668</ele><time>2026-04-04T08:44:22.579Z</time></trkpt><trkpt lat="37.9279267" lon="15.8582883"><ele>20.333333333333336</ele><time>2026-04-04T08:44:23.579Z</time></trkpt><trkpt lat="37.9279767" lon="15.8585533"><ele>20.0</ele><time>2026-04-04T08:44:24.579Z</time></trkpt><trkpt lat="37.92803" lon="15.8588233"><ele>19.5</ele><time>2026-04-04T08:44:25.58Z</time></trkpt><trkpt lat="37.9280883" lon="15.859105"><ele>19.0</ele><time>2026-04-04T08:44:26.579Z</time></trkpt><trkpt lat="37.92815" lon="15.8593917"><ele>17.0</ele><time>2026-04-04T08:44:27.58Z</time></trkpt><trkpt lat="37.92821" lon="15.85968"><ele>15.0</ele><time>2026-04-04T08:44:28.58Z</time></trkpt><trkpt lat="37.92827" lon="15.85996"><ele>13.5</ele><time>2026-04-04T08:44:29.579Z</time></trkpt><trkpt lat="37.928325" lon="15.8602433"><ele>12.0</ele><time>2026-04-04T08:44:30.579Z</time></trkpt><trkpt lat="37.9283817" lon="15.8605167"><ele>12.333333333333332</ele><time>2026-04-04T08:44:31.579Z</time></trkpt><trkpt lat="37.928435" lon="15.8607817"><ele>12.666666666666666</ele><time>2026-04-04T08:44:32.58Z</time></trkpt><trkpt lat="37.9284883" lon="15.8610483"><ele>13.0</ele><time>2026-04-04T08:44:33.579Z</time></trkpt><trkpt lat="37.9285433" lon="15.8613183"><ele>13.0</ele><time>2026-04-04T08:44:34.579Z</time></trkpt><trkpt lat="37.928595" lon="15.861585"><ele>13.0</ele><time>2026-04-04T08:44:35.579Z</time></trkpt><trkpt lat="37.9286467" lon="15.8618483"><ele>13.0</ele><time>2026-04-04T08:44:36.579Z</time></trkpt><trkpt lat="37.9287117" lon="15.862115"><ele>14.0</ele><time>2026-04-04T08:44:37.579Z</time></trkpt><trkpt lat="37.9287617" lon="15.8623767"><ele>15.0</ele><time>2026-04-04T08:44:38.579Z</time></trkpt><trkpt lat="37.9288117" lon="15.8626333"><ele>16.0</ele><time>2026-04-04T08:44:39.579Z</time></trkpt><trkpt lat="37.9288567" lon="15.8628933"><ele>16.0</ele><time>2026-04-04T08:44:40.579Z</time></trkpt><trkpt lat="37.9289067" lon="15.8631417"><ele>16.0</ele><time>2026-04-04T08:44:41.579Z</time></trkpt><trkpt lat="37.9289617" lon="15.863395"><ele>16.0</ele><time>2026-04-04T08:44:42.579Z</time></trkpt><trkpt lat="37.9290133" lon="15.8636383"><ele>16.0</ele><time>2026-04-04T08:44:43.579Z</time></trkpt><trkpt lat="37.9290667" lon="15.8638733"><ele>16.0</ele><time>2026-04-04T08:44:44.579Z</time></trkpt><trkpt lat="37.9291117" lon="15.8640983"><ele>16.0</ele><time>2026-04-04T08:44:45.579Z</time></trkpt><trkpt lat="37.9291617" lon="15.8643217"><ele>16.0</ele><time>2026-04-04T08:44:46.58Z</time></trkpt><trkpt lat="37.9292083" lon="15.8645517"><ele>16.0</ele><time>2026-04-04T08:44:47.579Z</time></trkpt><trkpt lat="37.92926" lon="15.8647817"><ele>16.0</ele><time>2026-04-04T08:44:48.579Z</time></trkpt><trkpt lat="37.92931" lon="15.8650117"><ele>16.333333333333332</ele><time>2026-04-04T08:44:49.579Z</time></trkpt><trkpt lat="37.9293567" lon="15.8652483"><ele>16.666666666666668</ele><time>2026-04-04T08:44:50.58Z</time></trkpt><trkpt lat="37.9294083" lon="15.8654817"><ele>17.0</ele><time>2026-04-04T08:44:51.579Z</time></trkpt><trkpt lat="37.929455" lon="15.8657133"><ele>17.333333333333336</ele><time>2026-04-04T08:44:52.579Z</time></trkpt><trkpt lat="37.9295" lon="15.8659467"><ele>17.666666666666668</ele><time>2026-04-04T08:44:53.579Z</time></trkpt><trkpt lat="37.929545" lon="15.8661783"><ele>18.0</ele><time>2026-04-04T08:44:54.579Z</time></trkpt><trkpt lat="37.92959" lon="15.866405"><ele>18.0</ele><time>2026-04-04T08:44:55.579Z</time></trkpt><trkpt lat="37.92964" lon="15.8666333"><ele>18.0</ele><time>2026-04-04T08:44:56.579Z</time></trkpt><trkpt lat="37.92969" lon="15.8668667"><ele>18.0</ele><time>2026-04-04T08:44:57.579Z</time></trkpt><trkpt lat="37.9297333" lon="15.867105"><ele>18.333333333333332</ele><time>2026-04-04T08:44:58.58Z</time></trkpt><trkpt lat="37.929785" lon="15.867345"><ele>18.666666666666664</ele><time>2026-04-04T08:44:59.58Z</time></trkpt><trkpt lat="37.9298417" lon="15.8675817"><ele>19.0</ele><time>2026-04-04T08:45:00.579Z</time></trkpt><trkpt lat="37.9299017" lon="15.8678367"><ele>19.0</ele><time>2026-04-04T08:45:01.58Z</time></trkpt><trkpt lat="37.9299567" lon="15.8680917"><ele>19.0</ele><time>2026-04-04T08:45:02.579Z</time></trkpt><trkpt lat="37.93001" lon="15.8683583"><ele>19.0</ele><time>2026-04-04T08:45:03.579Z</time></trkpt><trkpt lat="37.930045" lon="15.8686233"><ele>18.0</ele><time>2026-04-04T08:45:04.58Z</time></trkpt><trkpt lat="37.9300617" lon="15.8688933"><ele>17.0</ele><time>2026-04-04T08:45:05.579Z</time></trkpt><trkpt lat="37.9300683" lon="15.8691683"><ele>16.0</ele><time>2026-04-04T08:45:06.579Z</time></trkpt><trkpt lat="37.9300667" lon="15.8694417"><ele>15.333333333333332</ele><time>2026-04-04T08:45:07.579Z</time></trkpt><trkpt lat="37.9300567" lon="15.8697033"><ele>14.666666666666668</ele><time>2026-04-04T08:45:08.579Z</time></trkpt><trkpt lat="37.93004" lon="15.869975"><ele>14.0</ele><time>2026-04-04T08:45:09.579Z</time></trkpt><trkpt lat="37.930025" lon="15.8702533"><ele>14.0</ele><time>2026-04-04T08:45:10.58Z</time></trkpt><trkpt lat="37.9300033" lon="15.8705333"><ele>14.0</ele><time>2026-04-04T08:45:11.58Z</time></trkpt><trkpt lat="37.9299817" lon="15.8708133"><ele>14.0</ele><time>2026-04-04T08:45:12.579Z</time></trkpt><trkpt lat="37.9299567" lon="15.8710883"><ele>13.666666666666668</ele><time>2026-04-04T08:45:13.579Z</time></trkpt><trkpt lat="37.92993" lon="15.8713667"><ele>13.333333333333332</ele><time>2026-04-04T08:45:14.579Z</time></trkpt><trkpt lat="37.9299083" lon="15.87165"><ele>13.0</ele><time>2026-04-04T08:45:15.579Z</time></trkpt><trkpt lat="37.9298867" lon="15.8719367"><ele>12.666666666666666</ele><time>2026-04-04T08:45:16.579Z</time></trkpt><trkpt lat="37.9298633" lon="15.87222"><ele>12.333333333333332</ele><time>2026-04-04T08:45:17.579Z</time></trkpt><trkpt lat="37.9298433" lon="15.872495"><ele>12.0</ele><time>2026-04-04T08:45:18.579Z</time></trkpt><trkpt lat="37.92983" lon="15.87277"><ele>12.0</ele><time>2026-04-04T08:45:19.58Z</time></trkpt><trkpt lat="37.9298083" lon="15.873045"><ele>12.0</ele><time>2026-04-04T08:45:20.579Z</time></trkpt><trkpt lat="37.9297833" lon="15.87332"><ele>12.0</ele><time>2026-04-04T08:45:21.579Z</time></trkpt><trkpt lat="37.929765" lon="15.87359"><ele>11.333333333333334</ele><time>2026-04-04T08:45:22.579Z</time></trkpt><trkpt lat="37.9297417" lon="15.8738567"><ele>10.666666666666668</ele><time>2026-04-04T08:45:23.58Z</time></trkpt><trkpt lat="37.9297217" lon="15.8741217"><ele>10.0</ele><time>2026-04-04T08:45:24.58Z</time></trkpt><trkpt lat="37.9297" lon="15.8743917"><ele>10.0</ele><time>2026-04-04T08:45:25.579Z</time></trkpt><trkpt lat="37.9296817" lon="15.874655"><ele>10.0</ele><time>2026-04-04T08:45:26.579Z</time></trkpt><trkpt lat="37.92966" lon="15.8749067"><ele>10.0</ele><time>2026-04-04T08:45:27.579Z</time></trkpt><trkpt lat="37.9296417" lon="15.8751483"><ele>9.666666666666668</ele><time>2026-04-04T08:45:28.579Z</time></trkpt><trkpt lat="37.929625" lon="15.8753833"><ele>9.333333333333334</ele><time>2026-04-04T08:45:29.58Z</time></trkpt><trkpt lat="37.9296117" lon="15.875625"><ele>9.0</ele><time>2026-04-04T08:45:30.579Z</time></trkpt><trkpt lat="37.92959" lon="15.8758717"><ele>8.333333333333334</ele><time>2026-04-04T08:45:31.579Z</time></trkpt><trkpt lat="37.9295733" lon="15.8761183"><ele>7.666666666666667</ele><time>2026-04-04T08:45:32.579Z</time></trkpt><trkpt lat="37.9295533" lon="15.876365"><ele>7.0</ele><time>2026-04-04T08:45:33.579Z</time></trkpt><trkpt lat="37.9295417" lon="15.8766083"><ele>7.333333333333334</ele><time>2026-04-04T08:45:34.579Z</time></trkpt><trkpt lat="37.92952" lon="15.87685"><ele>7.666666666666666</ele><time>2026-04-04T08:45:35.58Z</time></trkpt><trkpt lat="37.9295017" lon="15.8770967"><ele>8.0</ele><time>2026-04-04T08:45:36.579Z</time></trkpt><trkpt lat="37.92948" lon="15.8773383"><ele>8.0</ele><time>2026-04-04T08:45:37.58Z</time></trkpt><trkpt lat="37.929465" lon="15.8775733"><ele>8.0</ele><time>2026-04-04T08:45:38.579Z</time></trkpt><trkpt lat="37.9294367" lon="15.8778117"><ele>8.0</ele><time>2026-04-04T08:45:39.579Z</time></trkpt><trkpt lat="37.9294183" lon="15.87805"><ele>8.333333333333332</ele><time>2026-04-04T08:45:40.579Z</time></trkpt><trkpt lat="37.9294067" lon="15.8782867"><ele>8.666666666666666</ele><time>2026-04-04T08:45:41.579Z</time></trkpt><trkpt lat="37.9293867" lon="15.8785317"><ele>9.0</ele><time>2026-04-04T08:45:42.579Z</time></trkpt><trkpt lat="37.9293783" lon="15.8787917"><ele>9.0</ele><time>2026-04-04T08:45:43.58Z</time></trkpt><trkpt lat="37.929355" lon="15.8790383"><ele>9.0</ele><time>2026-04-04T08:45:44.579Z</time></trkpt><trkpt lat="37.929325" lon="15.87928"><ele>9.0</ele><time>2026-04-04T08:45:45.579Z</time></trkpt><trkpt lat="37.929295" lon="15.8795117"><ele>9.0</ele><time>2026-04-04T08:45:46.579Z</time></trkpt><trkpt lat="37.92927" lon="15.8797367"><ele>9.0</ele><time>2026-04-04T08:45:47.579Z</time></trkpt><trkpt lat="37.92924" lon="15.8799583"><ele>9.0</ele><time>2026-04-04T08:45:48.58Z</time></trkpt><trkpt lat="37.92921" lon="15.880185"><ele>8.333333333333334</ele><time>2026-04-04T08:45:49.579Z</time></trkpt><trkpt lat="37.9291717" lon="15.8804183"><ele>7.666666666666667</ele><time>2026-04-04T08:45:50.58Z</time></trkpt><trkpt lat="37.92914" lon="15.880645"><ele>7.0</ele><time>2026-04-04T08:45:51.579Z</time></trkpt><trkpt lat="37.9291" lon="15.8808683"><ele>7.0</ele><time>2026-04-04T08:45:52.579Z</time></trkpt><trkpt lat="37.9290667" lon="15.881085"><ele>7.0</ele><time>2026-04-04T08:45:53.579Z</time></trkpt><trkpt lat="37.92903" lon="15.8813033"><ele>7.0</ele><time>2026-04-04T08:45:54.579Z</time></trkpt><trkpt lat="37.9290067" lon="15.8815333"><ele>7.0</ele><time>2026-04-04T08:45:55.58Z</time></trkpt><trkpt lat="37.9289833" lon="15.8817567"><ele>7.0</ele><time>2026-04-04T08:45:56.58Z</time></trkpt><trkpt lat="37.9289767" lon="15.8819917"><ele>7.0</ele><time>2026-04-04T08:45:57.579Z</time></trkpt><trkpt lat="37.9289817" lon="15.8822333"><ele>7.0</ele><time>2026-04-04T08:45:58.579Z</time></trkpt><trkpt lat="37.9289883" lon="15.882485"><ele>7.0</ele><time>2026-04-04T08:45:59.58Z</time></trkpt><trkpt lat="37.92899" lon="15.88274"><ele>7.0</ele><time>2026-04-04T08:46:00.58Z</time></trkpt><trkpt lat="37.9289933" lon="15.8830017"><ele>7.333333333333334</ele><time>2026-04-04T08:46:01.579Z</time></trkpt><trkpt lat="37.92899" lon="15.8832667"><ele>7.666666666666666</ele><time>2026-04-04T08:46:02.579Z</time></trkpt><trkpt lat="37.928995" lon="15.8835283"><ele>8.0</ele><time>2026-04-04T08:46:03.579Z</time></trkpt><trkpt lat="37.9289883" lon="15.8837833"><ele>8.333333333333332</ele><time>2026-04-04T08:46:04.58Z</time></trkpt><trkpt lat="37.9289883" lon="15.88403"><ele>8.666666666666666</ele><time>2026-04-04T08:46:05.579Z</time></trkpt><trkpt lat="37.9289833" lon="15.8842817"><ele>9.0</ele><time>2026-04-04T08:46:06.579Z</time></trkpt><trkpt lat="37.9289833" lon="15.8845333"><ele>9.333333333333334</ele><time>2026-04-04T08:46:07.579Z</time></trkpt><trkpt lat="37.9289783" lon="15.8847867"><ele>9.666666666666668</ele><time>2026-04-04T08:46:08.579Z</time></trkpt><trkpt lat="37.9289733" lon="15.8850467"><ele>10.0</ele><time>2026-04-04T08:46:09.579Z</time></trkpt><trkpt lat="37.9289717" lon="15.8853017"><ele>10.0</ele><time>2026-04-04T08:46:10.579Z</time></trkpt><trkpt lat="37.9289667" lon="15.8855733"><ele>10.0</ele><time>2026-04-04T08:46:11.58Z</time></trkpt><trkpt lat="37.9289583" lon="15.885845"><ele>10.0</ele><time>2026-04-04T08:46:12.579Z</time></trkpt><trkpt lat="37.9289383" lon="15.886115"><ele>9.5</ele><time>2026-04-04T08:46:13.579Z</time></trkpt><trkpt lat="37.9289217" lon="15.886405"><ele>9.0</ele><time>2026-04-04T08:46:14.579Z</time></trkpt><trkpt lat="37.9289117" lon="15.8867133"><ele>8.5</ele><time>2026-04-04T08:46:15.579Z</time></trkpt><trkpt lat="37.9289" lon="15.887025"><ele>8.0</ele><time>2026-04-04T08:46:16.58Z</time></trkpt><trkpt lat="37.92888" lon="15.8873067"><ele>8.0</ele><time>2026-04-04T08:46:17.579Z</time></trkpt><trkpt lat="37.9288583" lon="15.8875667"><ele>8.0</ele><time>2026-04-04T08:46:18.579Z</time></trkpt><trkpt lat="37.92884" lon="15.887805"><ele>8.0</ele><time>2026-04-04T08:46:19.579Z</time></trkpt><trkpt lat="37.928825" lon="15.88803"><ele>7.333333333333333</ele><time>2026-04-04T08:46:20.579Z</time></trkpt><trkpt lat="37.9288117" lon="15.8882383"><ele>6.666666666666666</ele><time>2026-04-04T08:46:21.58Z</time></trkpt><trkpt lat="37.9287983" lon="15.8884433"><ele>6.0</ele><time>2026-04-04T08:46:22.579Z</time></trkpt><trkpt lat="37.9287833" lon="15.88865"><ele>5.75</ele><time>2026-04-04T08:46:23.579Z</time></trkpt><trkpt lat="37.9287767" lon="15.88884"><ele>5.5</ele><time>2026-04-04T08:46:24.579Z</time></trkpt><trkpt lat="37.9287717" lon="15.8890217"><ele>5.25</ele><time>2026-04-04T08:46:25.579Z</time></trkpt><trkpt lat="37.9287617" lon="15.8891933"><ele>5.0</ele><time>2026-04-04T08:46:26.579Z</time></trkpt><trkpt lat="37.928755" lon="15.8893683"><ele>5.75</ele><time>2026-04-04T08:46:27.579Z</time></trkpt><trkpt lat="37.9287417" lon="15.8895367"><ele>6.5</ele><time>2026-04-04T08:46:28.579Z</time></trkpt><trkpt lat="37.9287283" lon="15.88971"><ele>7.25</ele><time>2026-04-04T08:46:29.579Z</time></trkpt><trkpt lat="37.928715" lon="15.8898867"><ele>8.0</ele><time>2026-04-04T08:46:30.58Z</time></trkpt><trkpt lat="37.928695" lon="15.8900667"><ele>8.333333333333332</ele><time>2026-04-04T08:46:31.579Z</time></trkpt><trkpt lat="37.9286767" lon="15.8902567"><ele>8.666666666666666</ele><time>2026-04-04T08:46:32.579Z</time></trkpt><trkpt lat="37.9286617" lon="15.890455"><ele>9.0</ele><time>2026-04-04T08:46:33.579Z</time></trkpt><trkpt lat="37.9286433" lon="15.890655"><ele>9.0</ele><time>2026-04-04T08:46:34.579Z</time></trkpt><trkpt lat="37.9286217" lon="15.8908633"><ele>9.0</ele><time>2026-04-04T08:46:35.579Z</time></trkpt><trkpt lat="37.928605" lon="15.8910733"><ele>9.0</ele><time>2026-04-04T08:46:36.579Z</time></trkpt><trkpt lat="37.9285817" lon="15.8912883"><ele>9.0</ele><time>2026-04-04T08:46:37.579Z</time></trkpt><trkpt lat="37.9285533" lon="15.891505"><ele>9.0</ele><time>2026-04-04T08:46:38.579Z</time></trkpt><trkpt lat="37.9285217" lon="15.891725"><ele>9.0</ele><time>2026-04-04T08:46:39.579Z</time></trkpt><trkpt lat="37.9284917" lon="15.8919433"><ele>8.666666666666666</ele><time>2026-04-04T08:46:40.58Z</time></trkpt><trkpt lat="37.92846" lon="15.892165"><ele>8.333333333333332</ele><time>2026-04-04T08:46:41.58Z</time></trkpt><trkpt lat="37.92843" lon="15.8923883"><ele>8.0</ele><time>2026-04-04T08:46:42.579Z</time></trkpt><trkpt lat="37.9283967" lon="15.8926"><ele>8.0</ele><time>2026-04-04T08:46:43.579Z</time></trkpt><trkpt lat="37.928375" lon="15.8927983"><ele>8.0</ele><time>2026-04-04T08:46:44.58Z</time></trkpt><trkpt lat="37.9283533" lon="15.8929967"><ele>8.0</ele><time>2026-04-04T08:46:45.579Z</time></trkpt><trkpt lat="37.92833" lon="15.8931917"><ele>8.0</ele><time>2026-04-04T08:46:46.579Z</time></trkpt><trkpt lat="37.928305" lon="15.8933933"><ele>8.0</ele><time>2026-04-04T08:46:47.579Z</time></trkpt><trkpt lat="37.9282883" lon="15.893605"><ele>8.0</ele><time>2026-04-04T08:46:48.58Z</time></trkpt><trkpt lat="37.9282783" lon="15.8938183"><ele>7.666666666666666</ele><time>2026-04-04T08:46:49.579Z</time></trkpt><trkpt lat="37.9282767" lon="15.8940367"><ele>7.333333333333334</ele><time>2026-04-04T08:46:50.579Z</time></trkpt><trkpt lat="37.9282767" lon="15.894265"><ele>7.0</ele><time>2026-04-04T08:46:51.58Z</time></trkpt><trkpt lat="37.9282733" lon="15.8945017"><ele>6.666666666666667</ele><time>2026-04-04T08:46:52.579Z</time></trkpt><trkpt lat="37.9282717" lon="15.894745"><ele>6.333333333333334</ele><time>2026-04-04T08:46:53.58Z</time></trkpt><trkpt lat="37.92826" lon="15.8949883"><ele>6.0</ele><time>2026-04-04T08:46:54.579Z</time></trkpt><trkpt lat="37.9282483" lon="15.8952333"><ele>6.666666666666666</ele><time>2026-04-04T08:46:55.579Z</time></trkpt><trkpt lat="37.92824" lon="15.895475"><ele>7.333333333333333</ele><time>2026-04-04T08:46:56.58Z</time></trkpt><trkpt lat="37.9282233" lon="15.8957183"><ele>8.0</ele><time>2026-04-04T08:46:57.58Z</time></trkpt><trkpt lat="37.9282167" lon="15.89596"><ele>8.0</ele><time>2026-04-04T08:46:58.579Z</time></trkpt><trkpt lat="37.928215" lon="15.8961983"><ele>8.0</ele><time>2026-04-04T08:46:59.58Z</time></trkpt><trkpt lat="37.92821" lon="15.8964333"><ele>8.0</ele><time>2026-04-04T08:47:00.579Z</time></trkpt><trkpt lat="37.92821" lon="15.8966717"><ele>8.0</ele><time>2026-04-04T08:47:01.579Z</time></trkpt><trkpt lat="37.92821" lon="15.8969067"><ele>8.0</ele><time>2026-04-04T08:47:02.579Z</time></trkpt><trkpt lat="37.928205" lon="15.897135"><ele>8.0</ele><time>2026-04-04T08:47:03.579Z</time></trkpt><trkpt lat="37.9282117" lon="15.8973617"><ele>8.0</ele><time>2026-04-04T08:47:04.579Z</time></trkpt><trkpt lat="37.9282117" lon="15.897585"><ele>8.0</ele><time>2026-04-04T08:47:05.579Z</time></trkpt><trkpt lat="37.9282167" lon="15.89781"><ele>8.0</ele><time>2026-04-04T08:47:06.579Z</time></trkpt><trkpt lat="37.9282117" lon="15.89804"><ele>8.333333333333332</ele><time>2026-04-04T08:47:07.58Z</time></trkpt><trkpt lat="37.9282083" lon="15.8982617"><ele>8.666666666666666</ele><time>2026-04-04T08:47:08.58Z</time></trkpt><trkpt lat="37.9282083" lon="15.89849"><ele>9.0</ele><time>2026-04-04T08:47:09.579Z</time></trkpt><trkpt lat="37.92822" lon="15.898715"><ele>9.333333333333334</ele><time>2026-04-04T08:47:10.579Z</time></trkpt><trkpt lat="37.928225" lon="15.8989383"><ele>9.666666666666668</ele><time>2026-04-04T08:47:11.579Z</time></trkpt><trkpt lat="37.9282267" lon="15.8991567"><ele>10.0</ele><time>2026-04-04T08:47:12.579Z</time></trkpt><trkpt lat="37.92822" lon="15.8993683"><ele>10.0</ele><time>2026-04-04T08:47:13.579Z</time></trkpt><trkpt lat="37.9282233" lon="15.899565"><ele>10.0</ele><time>2026-04-04T08:47:14.579Z</time></trkpt><trkpt lat="37.9282317" lon="15.89976"><ele>10.0</ele><time>2026-04-04T08:47:15.58Z</time></trkpt><trkpt lat="37.92823" lon="15.899935"><ele>10.0</ele><time>2026-04-04T08:47:16.579Z</time></trkpt><trkpt lat="37.9282333" lon="15.9000967"><ele>10.0</ele><time>2026-04-04T08:47:17.579Z</time></trkpt><trkpt lat="37.9282367" lon="15.9002433"><ele>10.0</ele><time>2026-04-04T08:47:18.579Z</time></trkpt><trkpt lat="37.9282417" lon="15.900375"><ele>10.0</ele><time>2026-04-04T08:47:19.58Z</time></trkpt><trkpt lat="37.9282417" lon="15.9004883"><ele>10.0</ele><time>2026-04-04T08:47:20.579Z</time></trkpt><trkpt lat="37.9282433" lon="15.900595"><ele>10.0</ele><time>2026-04-04T08:47:21.579Z</time></trkpt><trkpt lat="37.928245" lon="15.9006883"><ele>10.0</ele><time>2026-04-04T08:47:22.579Z</time></trkpt><trkpt lat="37.9282333" lon="15.9008167"><ele>10.0</ele><time>2026-04-04T08:47:24.58Z</time></trkpt><trkpt lat="37.9282233" lon="15.9009017"><ele>10.0</ele><time>2026-04-04T08:47:26.58Z</time></trkpt><trkpt lat="37.92822" lon="15.9009817"><ele>10.0</ele><time>2026-04-04T08:48:40.579Z</time></trkpt><trkpt lat="37.928345" lon="15.9009783"><ele>10.0</ele><time>2026-04-04T08:48:51.579Z</time></trkpt><trkpt lat="37.9283483" lon="15.9010583"><ele>10.0</ele><time>2026-04-04T08:50:56.58Z</time></trkpt><trkpt lat="37.92833" lon="15.9011783"><ele>10.0</ele><time>2026-04-04T08:50:58.579Z</time></trkpt><trkpt lat="37.9283233" lon="15.90129"><ele>10.0</ele><time>2026-04-04T08:51:00.579Z</time></trkpt><trkpt lat="37.928375" lon="15.9013617"><ele>10.0</ele><time>2026-04-04T08:51:03.579Z</time></trkpt><trkpt lat="37.92846" lon="15.9013433"><ele>10.0</ele><time>2026-04-04T08:51:05.579Z</time></trkpt><trkpt lat="37.92857" lon="15.90133"><ele>10.0</ele><time>2026-04-04T08:51:07.579Z</time></trkpt><trkpt lat="37.9286667" lon="15.90132"><ele>11.0</ele><time>2026-04-04T08:51:09.579Z</time></trkpt><trkpt lat="37.9287367" lon="15.9013267"><ele>12.0</ele><time>2026-04-04T08:51:11.579Z</time></trkpt><trkpt lat="37.9288017" lon="15.9013717"><ele>13.0</ele><time>2026-04-04T08:51:27.579Z</time></trkpt><trkpt lat="37.9288183" lon="15.9014867"><ele>14.0</ele><time>2026-04-04T08:51:29.58Z</time></trkpt><trkpt lat="37.92883" lon="15.9015867"><ele>14.999999999999998</ele><time>2026-04-04T08:51:39.579Z</time></trkpt><trkpt lat="37.9288117" lon="15.9017167"><ele>16.0</ele><time>2026-04-04T08:51:41.58Z</time></trkpt><trkpt lat="37.9288083" lon="15.9018"><ele>15.999999999999998</ele><time>2026-04-04T08:51:42.58Z</time></trkpt><trkpt lat="37.92882" lon="15.9019"><ele>16.0</ele><time>2026-04-04T08:51:43.579Z</time></trkpt><trkpt lat="37.9288383" lon="15.9020067"><ele>16.0</ele><time>2026-04-04T08:51:44.579Z</time></trkpt><trkpt lat="37.9288517" lon="15.90211"><ele>16.0</ele><time>2026-04-04T08:51:45.579Z</time></trkpt><trkpt lat="37.9288717" lon="15.9022133"><ele>15.999999999999998</ele><time>2026-04-04T08:51:46.579Z</time></trkpt><trkpt lat="37.9288967" lon="15.9023117"><ele>16.0</ele><time>2026-04-04T08:51:47.579Z</time></trkpt><trkpt lat="37.9289167" lon="15.9024117"><ele>15.999999999999998</ele><time>2026-04-04T08:51:48.579Z</time></trkpt><trkpt lat="37.9289367" lon="15.902515"><ele>16.0</ele><time>2026-04-04T08:51:49.579Z</time></trkpt><trkpt lat="37.9289633" lon="15.9026267"><ele>16.0</ele><time>2026-04-04T08:51:50.58Z</time></trkpt><trkpt lat="37.9289967" lon="15.902725"><ele>16.0</ele><time>2026-04-04T08:51:51.579Z</time></trkpt><trkpt lat="37.9290367" lon="15.9027967"><ele>15.999999999999998</ele><time>2026-04-04T08:51:52.579Z</time></trkpt><trkpt lat="37.9291383" lon="15.9028683"><ele>16.0</ele><time>2026-04-04T08:51:54.579Z</time></trkpt><trkpt lat="37.9292617" lon="15.9028417"><ele>17.0</ele><time>2026-04-04T08:51:56.579Z</time></trkpt><trkpt lat="37.9293633" lon="15.9028417"><ele>18.0</ele><time>2026-04-04T08:51:58.58Z</time></trkpt><trkpt lat="37.9294133" lon="15.90278"><ele>19.0</ele><time>2026-04-04T08:52:00.579Z</time></trkpt><trkpt lat="37.929415" lon="15.902675"><ele>20.0</ele><time>2026-04-04T08:52:02.579Z</time></trkpt><trkpt lat="37.92938" lon="15.9024883"><ele>21.0</ele><time>2026-04-04T08:52:04.579Z</time></trkpt><trkpt lat="37.9293633" lon="15.9023767"><ele>21.0</ele><time>2026-04-04T08:52:05.58Z</time></trkpt><trkpt lat="37.9293567" lon="15.902265"><ele>21.0</ele><time>2026-04-04T08:52:06.579Z</time></trkpt><trkpt lat="37.9293567" lon="15.9021517"><ele>21.0</ele><time>2026-04-04T08:52:07.579Z</time></trkpt><trkpt lat="37.929345" lon="15.9020467"><ele>21.0</ele><time>2026-04-04T08:52:08.579Z</time></trkpt><trkpt lat="37.9293317" lon="15.9019433"><ele>21.0</ele><time>2026-04-04T08:52:09.579Z</time></trkpt><trkpt lat="37.9293133" lon="15.90183"><ele>21.0</ele><time>2026-04-04T08:52:10.579Z</time></trkpt><trkpt lat="37.929295" lon="15.9017133"><ele>20.666666666666668</ele><time>2026-04-04T08:52:11.58Z</time></trkpt><trkpt lat="37.9292767" lon="15.9015883"><ele>20.333333333333332</ele><time>2026-04-04T08:52:12.579Z</time></trkpt><trkpt lat="37.929265" lon="15.9014733"><ele>20.0</ele><time>2026-04-04T08:52:13.579Z</time></trkpt><trkpt lat="37.9292483" lon="15.9013667"><ele>19.666666666666664</ele><time>2026-04-04T08:52:14.579Z</time></trkpt><trkpt lat="37.9292333" lon="15.901265"><ele>19.333333333333332</ele><time>2026-04-04T08:52:15.579Z</time></trkpt><trkpt lat="37.9292233" lon="15.9011717"><ele>19.0</ele><time>2026-04-04T08:52:16.579Z</time></trkpt><trkpt lat="37.9292167" lon="15.9010833"><ele>18.4</ele><time>2026-04-04T08:52:17.579Z</time></trkpt><trkpt lat="37.929215" lon="15.9009517"><ele>17.799999999999997</ele><time>2026-04-04T08:52:19.579Z</time></trkpt><trkpt lat="37.9292017" lon="15.9008283"><ele>17.200000000000003</ele><time>2026-04-04T08:52:42.579Z</time></trkpt><trkpt lat="37.9291667" lon="15.9007483"><ele>16.6</ele><time>2026-04-04T08:52:44.58Z</time></trkpt><trkpt lat="37.9291417" lon="15.90067"><ele>16.0</ele><time>2026-04-04T08:52:47.579Z</time></trkpt><trkpt lat="37.92916" lon="15.900515"><ele>15.833333333333332</ele><time>2026-04-04T08:59:44.579Z</time></trkpt><trkpt lat="37.92916" lon="15.9004083"><ele>15.666666666666666</ele><time>2026-04-04T08:59:45.579Z</time></trkpt><trkpt lat="37.92915" lon="15.9002983"><ele>15.5</ele><time>2026-04-04T08:59:46.579Z</time></trkpt><trkpt lat="37.9291333" lon="15.90018"><ele>15.333333333333332</ele><time>2026-04-04T08:59:47.579Z</time></trkpt><trkpt lat="37.9291217" lon="15.900065"><ele>15.166666666666666</ele><time>2026-04-04T08:59:48.579Z</time></trkpt><trkpt lat="37.9291033" lon="15.899955"><ele>15.0</ele><time>2026-04-04T08:59:49.58Z</time></trkpt><trkpt lat="37.929085" lon="15.8998633"><ele>14.666666666666666</ele><time>2026-04-04T08:59:50.579Z</time></trkpt><trkpt lat="37.9290433" lon="15.89976"><ele>14.333333333333332</ele><time>2026-04-04T08:59:52.58Z</time></trkpt><trkpt lat="37.9289617" lon="15.8997433"><ele>14.0</ele><time>2026-04-04T08:59:54.58Z</time></trkpt><trkpt lat="37.9288767" lon="15.8997567"><ele>13.666666666666666</ele><time>2026-04-04T08:59:56.579Z</time></trkpt><trkpt lat="37.928795" lon="15.899785"><ele>13.333333333333332</ele><time>2026-04-04T08:59:58.579Z</time></trkpt><trkpt lat="37.9287183" lon="15.8998517"><ele>13.0</ele><time>2026-04-04T09:00:00.579Z</time></trkpt><trkpt lat="37.9286767" lon="15.8999717"><ele>12.999999999999998</ele><time>2026-04-04T09:00:02.579Z</time></trkpt><trkpt lat="37.9286733" lon="15.90006"><ele>13.0</ele><time>2026-04-04T09:00:03.579Z</time></trkpt><trkpt lat="37.92868" lon="15.900155"><ele>13.0</ele><time>2026-04-04T09:00:04.579Z</time></trkpt><trkpt lat="37.9286917" lon="15.9002583"><ele>13.0</ele><time>2026-04-04T09:00:05.58Z</time></trkpt><trkpt lat="37.928705" lon="15.90037"><ele>12.999999999999998</ele><time>2026-04-04T09:00:06.579Z</time></trkpt><trkpt lat="37.92872" lon="15.900485"><ele>13.0</ele><time>2026-04-04T09:00:07.579Z</time></trkpt><trkpt lat="37.92873" lon="15.9006183"><ele>13.333333333333332</ele><time>2026-04-04T09:00:08.579Z</time></trkpt><trkpt lat="37.9287483" lon="15.900755"><ele>13.666666666666666</ele><time>2026-04-04T09:00:09.579Z</time></trkpt><trkpt lat="37.9287617" lon="15.900875"><ele>14.0</ele><time>2026-04-04T09:00:10.579Z</time></trkpt><trkpt lat="37.9287767" lon="15.90098"><ele>14.333333333333332</ele><time>2026-04-04T09:00:11.579Z</time></trkpt><trkpt lat="37.9287917" lon="15.9010683"><ele>14.666666666666666</ele><time>2026-04-04T09:00:12.579Z</time></trkpt><trkpt lat="37.9288067" lon="15.9011483"><ele>15.0</ele><time>2026-04-04T09:00:13.579Z</time></trkpt><trkpt lat="37.9288183" lon="15.90125"><ele>15.166666666666666</ele><time>2026-04-04T09:00:15.579Z</time></trkpt><trkpt lat="37.9287817" lon="15.9013217"><ele>15.333333333333332</ele><time>2026-04-04T09:00:41.579Z</time></trkpt><trkpt lat="37.9286783" lon="15.9013083"><ele>15.5</ele><time>2026-04-04T09:00:43.579Z</time></trkpt><trkpt lat="37.9286083" lon="15.9013183"><ele>15.666666666666666</ele><time>2026-04-04T09:00:44.58Z</time></trkpt><trkpt lat="37.92854" lon="15.9013183"><ele>15.833333333333332</ele><time>2026-04-04T09:00:45.579Z</time></trkpt><trkpt lat="37.9284467" lon="15.9013417"><ele>16.0</ele><time>2026-04-04T09:00:47.579Z</time></trkpt><trkpt lat="37.928385" lon="15.9013583"><ele>14.8</ele><time>2026-04-04T09:00:49.579Z</time></trkpt><trkpt lat="37.928335" lon="15.90143"><ele>13.600000000000001</ele><time>2026-04-04T09:00:57.579Z</time></trkpt><trkpt lat="37.9283233" lon="15.90151"><ele>12.4</ele><time>2026-04-04T09:00:59.579Z</time></trkpt><trkpt lat="37.9283017" lon="15.90165"><ele>11.2</ele><time>2026-04-04T09:01:01.579Z</time></trkpt><trkpt lat="37.9282967" lon="15.901765"><ele>10.0</ele><time>2026-04-04T09:01:02.579Z</time></trkpt><trkpt lat="37.9282933" lon="15.901915"><ele>10.0</ele><time>2026-04-04T09:01:03.579Z</time></trkpt><trkpt lat="37.9282983" lon="15.9020883"><ele>10.0</ele><time>2026-04-04T09:01:04.579Z</time></trkpt><trkpt lat="37.9283067" lon="15.902245"><ele>10.0</ele><time>2026-04-04T09:01:05.58Z</time></trkpt><trkpt lat="37.9283117" lon="15.902385"><ele>10.0</ele><time>2026-04-04T09:01:06.58Z</time></trkpt><trkpt lat="37.9283167" lon="15.9025133"><ele>9.8</ele><time>2026-04-04T09:01:07.579Z</time></trkpt><trkpt lat="37.9283217" lon="15.9026433"><ele>9.6</ele><time>2026-04-04T09:01:08.579Z</time></trkpt><trkpt lat="37.928325" lon="15.90277"><ele>9.4</ele><time>2026-04-04T09:01:09.579Z</time></trkpt><trkpt lat="37.92833" lon="15.9028967"><ele>9.2</ele><time>2026-04-04T09:01:10.58Z</time></trkpt><trkpt lat="37.9283383" lon="15.90303"><ele>9.0</ele><time>2026-04-04T09:01:11.579Z</time></trkpt><trkpt lat="37.9283417" lon="15.90317"><ele>9.0</ele><time>2026-04-04T09:01:12.579Z</time></trkpt><trkpt lat="37.92835" lon="15.9033067"><ele>9.0</ele><time>2026-04-04T09:01:13.579Z</time></trkpt><trkpt lat="37.9283733" lon="15.90344"><ele>9.0</ele><time>2026-04-04T09:01:14.579Z</time></trkpt><trkpt lat="37.9284117" lon="15.9035717"><ele>9.0</ele><time>2026-04-04T09:01:15.579Z</time></trkpt><trkpt lat="37.928455" lon="15.903715"><ele>9.0</ele><time>2026-04-04T09:01:16.579Z</time></trkpt><trkpt lat="37.928495" lon="15.9038583"><ele>10.0</ele><time>2026-04-04T09:01:17.579Z</time></trkpt><trkpt lat="37.9285317" lon="15.904005"><ele>11.0</ele><time>2026-04-04T09:01:18.579Z</time></trkpt><trkpt lat="37.9285733" lon="15.9041567"><ele>12.0</ele><time>2026-04-04T09:01:19.579Z</time></trkpt><trkpt lat="37.9286283" lon="15.90432"><ele>13.0</ele><time>2026-04-04T09:01:20.579Z</time></trkpt><trkpt lat="37.92868" lon="15.9044933"><ele>13.0</ele><time>2026-04-04T09:01:21.579Z</time></trkpt><trkpt lat="37.928735" lon="15.9046633"><ele>13.0</ele><time>2026-04-04T09:01:22.579Z</time></trkpt><trkpt lat="37.928795" lon="15.90484"><ele>13.0</ele><time>2026-04-04T09:01:23.579Z</time></trkpt><trkpt lat="37.9288617" lon="15.9050067"><ele>13.0</ele><time>2026-04-04T09:01:24.579Z</time></trkpt><trkpt lat="37.928935" lon="15.90517"><ele>12.333333333333332</ele><time>2026-04-04T09:01:25.579Z</time></trkpt><trkpt lat="37.9290217" lon="15.9053417"><ele>11.666666666666666</ele><time>2026-04-04T09:01:26.579Z</time></trkpt><trkpt lat="37.9291183" lon="15.9055017"><ele>11.0</ele><time>2026-04-04T09:01:27.579Z</time></trkpt><trkpt lat="37.92922" lon="15.9056767"><ele>14.666666666666666</ele><time>2026-04-04T09:01:28.579Z</time></trkpt><trkpt lat="37.9293283" lon="15.9058483"><ele>18.333333333333332</ele><time>2026-04-04T09:01:29.579Z</time></trkpt><trkpt lat="37.929435" lon="15.9060183"><ele>22.0</ele><time>2026-04-04T09:01:30.579Z</time></trkpt><trkpt lat="37.929555" lon="15.9061917"><ele>22.0</ele><time>2026-04-04T09:01:31.579Z</time></trkpt><trkpt lat="37.9296817" lon="15.9063683"><ele>22.0</ele><time>2026-04-04T09:01:32.579Z</time></trkpt><trkpt lat="37.9298133" lon="15.9065583"><ele>22.0</ele><time>2026-04-04T09:01:33.579Z</time></trkpt><trkpt lat="37.92995" lon="15.9067533"><ele>28.333333333333332</ele><time>2026-04-04T09:01:34.579Z</time></trkpt><trkpt lat="37.93008" lon="15.9069683"><ele>34.666666666666664</ele><time>2026-04-04T09:01:35.58Z</time></trkpt><trkpt lat="37.9302233" lon="15.9071783"><ele>41.0</ele><time>2026-04-04T09:01:36.579Z</time></trkpt><trkpt lat="37.9303717" lon="15.907395"><ele>32.0</ele><time>2026-04-04T09:01:37.579Z</time></trkpt><trkpt lat="37.9305217" lon="15.9076167"><ele>23.0</ele><time>2026-04-04T09:01:38.579Z</time></trkpt><trkpt lat="37.9307233" lon="15.9078367"><ele>23.0</ele><time>2026-04-04T09:01:39.579Z</time></trkpt><trkpt lat="37.9308667" lon="15.908085"><ele>23.0</ele><time>2026-04-04T09:01:40.579Z</time></trkpt><trkpt lat="37.9309917" lon="15.9083417"><ele>21.666666666666668</ele><time>2026-04-04T09:01:41.58Z</time></trkpt><trkpt lat="37.931115" lon="15.9085633"><ele>20.333333333333332</ele><time>2026-04-04T09:01:42.579Z</time></trkpt><trkpt lat="37.9312483" lon="15.908765"><ele>19.0</ele><time>2026-04-04T09:01:43.579Z</time></trkpt><trkpt lat="37.93138" lon="15.9089567"><ele>19.0</ele><time>2026-04-04T09:01:44.58Z</time></trkpt><trkpt lat="37.9315133" lon="15.90914"><ele>19.0</ele><time>2026-04-04T09:01:45.579Z</time></trkpt><trkpt lat="37.9316383" lon="15.9093183"><ele>19.0</ele><time>2026-04-04T09:01:46.579Z</time></trkpt><trkpt lat="37.93176" lon="15.9094967"><ele>18.666666666666664</ele><time>2026-04-04T09:01:47.579Z</time></trkpt><trkpt lat="37.931875" lon="15.9096817"><ele>18.333333333333332</ele><time>2026-04-04T09:01:48.579Z</time></trkpt><trkpt lat="37.931995" lon="15.9098633"><ele>18.0</ele><time>2026-04-04T09:01:49.579Z</time></trkpt><trkpt lat="37.9321117" lon="15.9100517"><ele>19.0</ele><time>2026-04-04T09:01:50.579Z</time></trkpt><trkpt lat="37.9322267" lon="15.91024"><ele>20.0</ele><time>2026-04-04T09:01:51.58Z</time></trkpt><trkpt lat="37.9323483" lon="15.9104233"><ele>21.0</ele><time>2026-04-04T09:01:52.579Z</time></trkpt><trkpt lat="37.9324667" lon="15.91061"><ele>20.333333333333332</ele><time>2026-04-04T09:01:53.579Z</time></trkpt><trkpt lat="37.9325883" lon="15.9107967"><ele>19.666666666666664</ele><time>2026-04-04T09:01:54.579Z</time></trkpt><trkpt lat="37.9327117" lon="15.91098"><ele>19.0</ele><time>2026-04-04T09:01:55.579Z</time></trkpt><trkpt lat="37.9328367" lon="15.9111667"><ele>23.333333333333332</ele><time>2026-04-04T09:01:56.579Z</time></trkpt><trkpt lat="37.93296" lon="15.911355"><ele>27.666666666666664</ele><time>2026-04-04T09:01:57.579Z</time></trkpt><trkpt lat="37.933075" lon="15.9115367"><ele>32.0</ele><time>2026-04-04T09:01:58.579Z</time></trkpt><trkpt lat="37.933195" lon="15.911725"><ele>35.666666666666664</ele><time>2026-04-04T09:01:59.579Z</time></trkpt><trkpt lat="37.9333183" lon="15.9119217"><ele>39.333333333333336</ele><time>2026-04-04T09:02:00.579Z</time></trkpt><trkpt lat="37.933445" lon="15.9121117"><ele>43.0</ele><time>2026-04-04T09:02:01.579Z</time></trkpt><trkpt lat="37.9335717" lon="15.9123133"><ele>43.0</ele><time>2026-04-04T09:02:02.58Z</time></trkpt><trkpt lat="37.93369" lon="15.9125133"><ele>43.0</ele><time>2026-04-04T09:02:03.58Z</time></trkpt><trkpt lat="37.933815" lon="15.9127067"><ele>43.0</ele><time>2026-04-04T09:02:04.579Z</time></trkpt><trkpt lat="37.933935" lon="15.91292"><ele>47.0</ele><time>2026-04-04T09:02:05.579Z</time></trkpt><trkpt lat="37.9340533" lon="15.9131333"><ele>51.0</ele><time>2026-04-04T09:02:06.58Z</time></trkpt><trkpt lat="37.9341617" lon="15.9133567"><ele>55.0</ele><time>2026-04-04T09:02:07.579Z</time></trkpt><trkpt lat="37.9342667" lon="15.9135783"><ele>46.0</ele><time>2026-04-04T09:02:08.58Z</time></trkpt><trkpt lat="37.93464" lon="15.9144083"><ele>46.0</ele><time>2026-04-04T09:02:11.582Z</time></trkpt><trkpt lat="37.9347" lon="15.9148983"><ele>46.0</ele><time>2026-04-04T09:02:12.583Z</time></trkpt><trkpt lat="37.9347617" lon="15.9152817"><ele>39.0</ele><time>2026-04-04T09:02:13.582Z</time></trkpt><trkpt lat="37.9348017" lon="15.9156183"><ele>32.0</ele><time>2026-04-04T09:02:14.582Z</time></trkpt><trkpt lat="37.934825" lon="15.9159133"><ele>31.0</ele><time>2026-04-04T09:02:15.582Z</time></trkpt><trkpt lat="37.9348383" lon="15.9161967"><ele>30.0</ele><time>2026-04-04T09:02:16.582Z</time></trkpt><trkpt lat="37.9348483" lon="15.91647"><ele>29.0</ele><time>2026-04-04T09:02:17.582Z</time></trkpt><trkpt lat="37.934855" lon="15.916745"><ele>29.0</ele><time>2026-04-04T09:02:18.583Z</time></trkpt><trkpt lat="37.9348633" lon="15.9170167"><ele>29.0</ele><time>2026-04-04T09:02:19.583Z</time></trkpt><trkpt lat="37.93486" lon="15.9172917"><ele>29.0</ele><time>2026-04-04T09:02:20.583Z</time></trkpt><trkpt lat="37.93484" lon="15.9175767"><ele>32.5</ele><time>2026-04-04T09:02:21.582Z</time></trkpt><trkpt lat="37.9348217" lon="15.9178583"><ele>36.0</ele><time>2026-04-04T09:02:22.582Z</time></trkpt><trkpt lat="37.93479" lon="15.9181483"><ele>43.0</ele><time>2026-04-04T09:02:23.582Z</time></trkpt><trkpt lat="37.93475" lon="15.918435"><ele>50.0</ele><time>2026-04-04T09:02:24.582Z</time></trkpt><trkpt lat="37.934705" lon="15.9187117"><ele>50.0</ele><time>2026-04-04T09:02:25.582Z</time></trkpt><trkpt lat="37.9346533" lon="15.9189783"><ele>50.0</ele><time>2026-04-04T09:02:26.582Z</time></trkpt><trkpt lat="37.934605" lon="15.9192383"><ele>50.0</ele><time>2026-04-04T09:02:27.582Z</time></trkpt><trkpt lat="37.93456" lon="15.9195"><ele>54.333333333333336</ele><time>2026-04-04T09:02:28.582Z</time></trkpt><trkpt lat="37.9345083" lon="15.9197517"><ele>58.66666666666667</ele><time>2026-04-04T09:02:29.582Z</time></trkpt><trkpt lat="37.934465" lon="15.9200033"><ele>63.0</ele><time>2026-04-04T09:02:30.582Z</time></trkpt><trkpt lat="37.93442" lon="15.9202633"><ele>67.33333333333333</ele><time>2026-04-04T09:02:31.582Z</time></trkpt><trkpt lat="37.9343717" lon="15.9205283"><ele>71.66666666666666</ele><time>2026-04-04T09:02:32.582Z</time></trkpt><trkpt lat="37.934325" lon="15.92079"><ele>76.0</ele><time>2026-04-04T09:02:33.582Z</time></trkpt><trkpt lat="37.9342783" lon="15.921055"><ele>75.66666666666666</ele><time>2026-04-04T09:02:34.583Z</time></trkpt><trkpt lat="37.934235" lon="15.9213083"><ele>75.33333333333333</ele><time>2026-04-04T09:02:35.582Z</time></trkpt><trkpt lat="37.9342067" lon="15.921535"><ele>75.0</ele><time>2026-04-04T09:02:36.582Z</time></trkpt><trkpt lat="37.9342283" lon="15.9218133"><ele>66.5</ele><time>2026-04-04T09:02:37.582Z</time></trkpt><trkpt lat="37.9341433" lon="15.9221017"><ele>58.0</ele><time>2026-04-04T09:02:38.582Z</time></trkpt><trkpt lat="37.9340433" lon="15.92237"><ele>58.5</ele><time>2026-04-04T09:02:39.582Z</time></trkpt><trkpt lat="37.9339283" lon="15.9226383"><ele>59.0</ele><time>2026-04-04T09:02:40.582Z</time></trkpt><trkpt lat="37.93381" lon="15.9228917"><ele>59.0</ele><time>2026-04-04T09:02:41.583Z</time></trkpt><trkpt lat="37.93368" lon="15.923145"><ele>59.0</ele><time>2026-04-04T09:02:42.582Z</time></trkpt><trkpt lat="37.9335483" lon="15.9233917"><ele>55.0</ele><time>2026-04-04T09:02:43.582Z</time></trkpt><trkpt lat="37.9334217" lon="15.923625"><ele>51.0</ele><time>2026-04-04T09:02:44.582Z</time></trkpt><trkpt lat="37.9332833" lon="15.923875"><ele>47.0</ele><time>2026-04-04T09:02:45.582Z</time></trkpt><trkpt lat="37.9331433" lon="15.9241233"><ele>43.0</ele><time>2026-04-04T09:02:46.582Z</time></trkpt><trkpt lat="37.93301" lon="15.9243733"><ele>43.0</ele><time>2026-04-04T09:02:47.582Z</time></trkpt><trkpt lat="37.93288" lon="15.9246317"><ele>43.0</ele><time>2026-04-04T09:02:48.583Z</time></trkpt><trkpt lat="37.9327483" lon="15.92488"><ele>36.0</ele><time>2026-04-04T09:02:49.582Z</time></trkpt><trkpt lat="37.9326133" lon="15.92514"><ele>29.0</ele><time>2026-04-04T09:02:50.582Z</time></trkpt><trkpt lat="37.9324817" lon="15.92541"><ele>27.0</ele><time>2026-04-04T09:02:51.582Z</time></trkpt><trkpt lat="37.9323483" lon="15.92568"><ele>25.0</ele><time>2026-04-04T09:02:52.582Z</time></trkpt><trkpt lat="37.9322067" lon="15.92596"><ele>18.5</ele><time>2026-04-04T09:02:53.583Z</time></trkpt><trkpt lat="37.9320767" lon="15.92622"><ele>12.0</ele><time>2026-04-04T09:02:54.582Z</time></trkpt><trkpt lat="37.9319467" lon="15.926465"><ele>12.0</ele><time>2026-04-04T09:02:55.582Z</time></trkpt><trkpt lat="37.9318233" lon="15.9267"><ele>12.0</ele><time>2026-04-04T09:02:56.582Z</time></trkpt><trkpt lat="37.9317" lon="15.92693"><ele>12.0</ele><time>2026-04-04T09:02:57.582Z</time></trkpt><trkpt lat="37.931575" lon="15.927165"><ele>11.666666666666666</ele><time>2026-04-04T09:02:58.582Z</time></trkpt><trkpt lat="37.9314567" lon="15.9274017"><ele>11.333333333333332</ele><time>2026-04-04T09:02:59.582Z</time></trkpt><trkpt lat="37.93134" lon="15.9276467"><ele>11.0</ele><time>2026-04-04T09:03:00.582Z</time></trkpt><trkpt lat="37.9312133" lon="15.92789"><ele>12.0</ele><time>2026-04-04T09:03:01.582Z</time></trkpt><trkpt lat="37.931085" lon="15.928135"><ele>13.0</ele><time>2026-04-04T09:03:02.582Z</time></trkpt><trkpt lat="37.9309667" lon="15.9283867"><ele>13.5</ele><time>2026-04-04T09:03:03.582Z</time></trkpt><trkpt lat="37.9308417" lon="15.9286617"><ele>14.0</ele><time>2026-04-04T09:03:04.582Z</time></trkpt><trkpt lat="37.930705" lon="15.9289517"><ele>16.5</ele><time>2026-04-04T09:03:05.582Z</time></trkpt><trkpt lat="37.93057" lon="15.92924"><ele>19.0</ele><time>2026-04-04T09:03:06.583Z</time></trkpt><trkpt lat="37.9304333" lon="15.9295133"><ele>19.0</ele><time>2026-04-04T09:03:07.582Z</time></trkpt><trkpt lat="37.9302917" lon="15.929775"><ele>19.0</ele><time>2026-04-04T09:03:08.582Z</time></trkpt><trkpt lat="37.9301533" lon="15.930025"><ele>17.5</ele><time>2026-04-04T09:03:09.583Z</time></trkpt><trkpt lat="37.930025" lon="15.9302733"><ele>16.0</ele><time>2026-04-04T09:03:10.582Z</time></trkpt><trkpt lat="37.92991" lon="15.9305217"><ele>16.0</ele><time>2026-04-04T09:03:11.582Z</time></trkpt><trkpt lat="37.9298017" lon="15.9307667"><ele>16.0</ele><time>2026-04-04T09:03:12.582Z</time></trkpt><trkpt lat="37.9297033" lon="15.9310017"><ele>16.0</ele><time>2026-04-04T09:03:13.582Z</time></trkpt><trkpt lat="37.92961" lon="15.93125"><ele>18.0</ele><time>2026-04-04T09:03:14.582Z</time></trkpt><trkpt lat="37.9295217" lon="15.9315017"><ele>20.0</ele><time>2026-04-04T09:03:15.582Z</time></trkpt><trkpt lat="37.929435" lon="15.9317517"><ele>22.0</ele><time>2026-04-04T09:03:16.582Z</time></trkpt><trkpt lat="37.9293517" lon="15.9319983"><ele>22.0</ele><time>2026-04-04T09:03:17.582Z</time></trkpt><trkpt lat="37.9292717" lon="15.9322517"><ele>22.0</ele><time>2026-04-04T09:03:18.582Z</time></trkpt><trkpt lat="37.9291983" lon="15.9324933"><ele>22.0</ele><time>2026-04-04T09:03:19.582Z</time></trkpt><trkpt lat="37.9291333" lon="15.932755"><ele>26.0</ele><time>2026-04-04T09:03:20.582Z</time></trkpt><trkpt lat="37.9290533" lon="15.93304"><ele>30.0</ele><time>2026-04-04T09:03:21.582Z</time></trkpt><trkpt lat="37.928985" lon="15.9333017"><ele>43.33333333333333</ele><time>2026-04-04T09:03:22.583Z</time></trkpt><trkpt lat="37.9289167" lon="15.933555"><ele>56.666666666666664</ele><time>2026-04-04T09:03:23.583Z</time></trkpt><trkpt lat="37.9288383" lon="15.9338067"><ele>70.0</ele><time>2026-04-04T09:03:24.582Z</time></trkpt><trkpt lat="37.9287733" lon="15.93406"><ele>90.0</ele><time>2026-04-04T09:03:25.582Z</time></trkpt><trkpt lat="37.928705" lon="15.934315"><ele>110.0</ele><time>2026-04-04T09:03:26.583Z</time></trkpt><trkpt lat="37.926835" lon="15.94181"><ele>69.5</ele><time>2026-04-04T09:03:53.582Z</time></trkpt><trkpt lat="37.92676" lon="15.942105"><ele>29.0</ele><time>2026-04-04T09:03:54.582Z</time></trkpt><trkpt lat="37.9266783" lon="15.9423833"><ele>32.0</ele><time>2026-04-04T09:03:55.582Z</time></trkpt><trkpt lat="37.9265983" lon="15.9426533"><ele>35.0</ele><time>2026-04-04T09:03:56.582Z</time></trkpt><trkpt lat="37.9265233" lon="15.9429133"><ele>38.0</ele><time>2026-04-04T09:03:57.582Z</time></trkpt><trkpt lat="37.926455" lon="15.94317"><ele>42.33333333333333</ele><time>2026-04-04T09:03:58.582Z</time></trkpt><trkpt lat="37.9263817" lon="15.9434217"><ele>46.666666666666664</ele><time>2026-04-04T09:03:59.582Z</time></trkpt><trkpt lat="37.9263117" lon="15.94367"><ele>51.0</ele><time>2026-04-04T09:04:00.582Z</time></trkpt><trkpt lat="37.9262367" lon="15.94393"><ele>51.0</ele><time>2026-04-04T09:04:01.582Z</time></trkpt><trkpt lat="37.9261633" lon="15.9441867"><ele>51.0</ele><time>2026-04-04T09:04:02.582Z</time></trkpt><trkpt lat="37.9260867" lon="15.9444533"><ele>51.0</ele><time>2026-04-04T09:04:03.582Z</time></trkpt><trkpt lat="37.9260133" lon="15.9447133"><ele>39.0</ele><time>2026-04-04T09:04:04.582Z</time></trkpt><trkpt lat="37.9255267" lon="15.9464067"><ele>39.0</ele><time>2026-04-04T09:04:10.582Z</time></trkpt><trkpt lat="37.925435" lon="15.9466683"><ele>39.0</ele><time>2026-04-04T09:04:11.582Z</time></trkpt><trkpt lat="37.9253433" lon="15.9469467"><ele>36.5</ele><time>2026-04-04T09:04:12.582Z</time></trkpt><trkpt lat="37.9252467" lon="15.9472367"><ele>34.0</ele><time>2026-04-04T09:04:13.583Z</time></trkpt><trkpt lat="37.9251467" lon="15.9475183"><ele>23.5</ele><time>2026-04-04T09:04:14.582Z</time></trkpt><trkpt lat="37.92505" lon="15.9478017"><ele>13.0</ele><time>2026-04-04T09:04:15.582Z</time></trkpt><trkpt lat="37.92495" lon="15.948075"><ele>13.0</ele><time>2026-04-04T09:04:16.582Z</time></trkpt><trkpt lat="37.9248617" lon="15.94835"><ele>13.0</ele><time>2026-04-04T09:04:17.582Z</time></trkpt><trkpt lat="37.9247883" lon="15.948625"><ele>11.0</ele><time>2026-04-04T09:04:18.582Z</time></trkpt><trkpt lat="37.9247167" lon="15.9488967"><ele>9.0</ele><time>2026-04-04T09:04:19.582Z</time></trkpt><trkpt lat="37.9246583" lon="15.94918"><ele>8.5</ele><time>2026-04-04T09:04:20.582Z</time></trkpt><trkpt lat="37.924605" lon="15.94947"><ele>8.0</ele><time>2026-04-04T09:04:21.582Z</time></trkpt><trkpt lat="37.92455" lon="15.9497617"><ele>7.5</ele><time>2026-04-04T09:04:22.582Z</time></trkpt><trkpt lat="37.924495" lon="15.9500583"><ele>7.0</ele><time>2026-04-04T09:04:23.582Z</time></trkpt><trkpt lat="37.9244417" lon="15.9503517"><ele>7.0</ele><time>2026-04-04T09:04:24.582Z</time></trkpt><trkpt lat="37.92439" lon="15.950645"><ele>7.0</ele><time>2026-04-04T09:04:25.582Z</time></trkpt><trkpt lat="37.924335" lon="15.9509317"><ele>6.5</ele><time>2026-04-04T09:04:26.582Z</time></trkpt><trkpt lat="37.9242867" lon="15.951215"><ele>6.0</ele><time>2026-04-04T09:04:27.583Z</time></trkpt><trkpt lat="37.92423" lon="15.9514883"><ele>7.0</ele><time>2026-04-04T09:04:28.582Z</time></trkpt><trkpt lat="37.92418" lon="15.95176"><ele>8.0</ele><time>2026-04-04T09:04:29.582Z</time></trkpt><trkpt lat="37.9241283" lon="15.9520233"><ele>9.0</ele><time>2026-04-04T09:04:30.583Z</time></trkpt><trkpt lat="37.9240617" lon="15.9522933"><ele>9.666666666666666</ele><time>2026-04-04T09:04:31.582Z</time></trkpt><trkpt lat="37.923985" lon="15.9525583"><ele>10.333333333333332</ele><time>2026-04-04T09:04:32.582Z</time></trkpt><trkpt lat="37.9239017" lon="15.952815"><ele>11.0</ele><time>2026-04-04T09:04:33.583Z</time></trkpt><trkpt lat="37.9238117" lon="15.9530683"><ele>11.0</ele><time>2026-04-04T09:04:34.582Z</time></trkpt><trkpt lat="37.9237183" lon="15.9533083"><ele>11.0</ele><time>2026-04-04T09:04:35.582Z</time></trkpt><trkpt lat="37.9236133" lon="15.9535333"><ele>11.0</ele><time>2026-04-04T09:04:36.582Z</time></trkpt><trkpt lat="37.9235" lon="15.9537467"><ele>11.0</ele><time>2026-04-04T09:04:37.582Z</time></trkpt><trkpt lat="37.923385" lon="15.9539483"><ele>11.0</ele><time>2026-04-04T09:04:38.583Z</time></trkpt><trkpt lat="37.9232717" lon="15.9541483"><ele>11.0</ele><time>2026-04-04T09:04:39.582Z</time></trkpt><trkpt lat="37.923155" lon="15.9543417"><ele>11.0</ele><time>2026-04-04T09:04:40.583Z</time></trkpt><trkpt lat="37.9230433" lon="15.9545183"><ele>11.0</ele><time>2026-04-04T09:04:41.583Z</time></trkpt><trkpt lat="37.9229433" lon="15.954675"><ele>11.0</ele><time>2026-04-04T09:04:42.582Z</time></trkpt><trkpt lat="37.9228567" lon="15.9548183"><ele>11.0</ele><time>2026-04-04T09:04:43.583Z</time></trkpt><trkpt lat="37.922785" lon="15.954965"><ele>11.0</ele><time>2026-04-04T09:04:44.583Z</time></trkpt><trkpt lat="37.9227133" lon="15.95508"><ele>11.0</ele><time>2026-04-04T09:04:45.582Z</time></trkpt><trkpt lat="37.9226483" lon="15.9551633"><ele>11.0</ele><time>2026-04-04T09:04:46.582Z</time></trkpt><trkpt lat="37.9225733" lon="15.9552033"><ele>11.0</ele><time>2026-04-04T09:04:47.583Z</time></trkpt><trkpt lat="37.9224767" lon="15.95518"><ele>10.600000000000001</ele><time>2026-04-04T09:04:49.582Z</time></trkpt><trkpt lat="37.9224033" lon="15.95515"><ele>10.200000000000001</ele><time>2026-04-04T09:04:52.582Z</time></trkpt><trkpt lat="37.9223417" lon="15.9551833"><ele>9.8</ele><time>2026-04-04T09:04:54.582Z</time></trkpt><trkpt lat="37.92226" lon="15.9553233"><ele>9.4</ele><time>2026-04-04T09:04:56.583Z</time></trkpt><trkpt lat="37.9222067" lon="15.955445"><ele>9.0</ele><time>2026-04-04T09:04:57.582Z</time></trkpt><trkpt lat="37.9221483" lon="15.955575"><ele>9.0</ele><time>2026-04-04T09:04:58.583Z</time></trkpt><trkpt lat="37.9220917" lon="15.9557083"><ele>9.0</ele><time>2026-04-04T09:04:59.582Z</time></trkpt><trkpt lat="37.9220367" lon="15.9558383"><ele>9.0</ele><time>2026-04-04T09:05:00.582Z</time></trkpt><trkpt lat="37.92198" lon="15.9559767"><ele>9.0</ele><time>2026-04-04T09:05:01.582Z</time></trkpt><trkpt lat="37.9219217" lon="15.95612"><ele>8.75</ele><time>2026-04-04T09:05:02.582Z</time></trkpt><trkpt lat="37.9218617" lon="15.9562683"><ele>8.5</ele><time>2026-04-04T09:05:03.582Z</time></trkpt><trkpt lat="37.9217967" lon="15.9564333"><ele>8.25</ele><time>2026-04-04T09:05:04.582Z</time></trkpt><trkpt lat="37.9217317" lon="15.95661"><ele>8.0</ele><time>2026-04-04T09:05:05.583Z</time></trkpt><trkpt lat="37.921665" lon="15.9567833"><ele>7.333333333333333</ele><time>2026-04-04T09:05:06.582Z</time></trkpt><trkpt lat="37.92159" lon="15.95696"><ele>6.666666666666666</ele><time>2026-04-04T09:05:07.582Z</time></trkpt><trkpt lat="37.9215167" lon="15.95714"><ele>6.0</ele><time>2026-04-04T09:05:08.582Z</time></trkpt><trkpt lat="37.9214467" lon="15.9573283"><ele>6.0</ele><time>2026-04-04T09:05:09.582Z</time></trkpt><trkpt lat="37.9213817" lon="15.9575083"><ele>6.0</ele><time>2026-04-04T09:05:10.582Z</time></trkpt><trkpt lat="37.9213117" lon="15.9576817"><ele>6.0</ele><time>2026-04-04T09:05:11.582Z</time></trkpt><trkpt lat="37.9212433" lon="15.95786"><ele>6.666666666666666</ele><time>2026-04-04T09:05:12.583Z</time></trkpt><trkpt lat="37.9211783" lon="15.9580317"><ele>7.333333333333333</ele><time>2026-04-04T09:05:13.583Z</time></trkpt><trkpt lat="37.9211167" lon="15.9582067"><ele>8.0</ele><time>2026-04-04T09:05:14.582Z</time></trkpt><trkpt lat="37.92104" lon="15.95839"><ele>7.666666666666666</ele><time>2026-04-04T09:05:15.582Z</time></trkpt><trkpt lat="37.920975" lon="15.9585767"><ele>7.333333333333334</ele><time>2026-04-04T09:05:16.582Z</time></trkpt><trkpt lat="37.920905" lon="15.9587517"><ele>7.0</ele><time>2026-04-04T09:05:17.582Z</time></trkpt><trkpt lat="37.9208417" lon="15.95891"><ele>7.0</ele><time>2026-04-04T09:05:18.582Z</time></trkpt><trkpt lat="37.92079" lon="15.9590567"><ele>7.0</ele><time>2026-04-04T09:05:19.583Z</time></trkpt><trkpt lat="37.92074" lon="15.959195"><ele>7.0</ele><time>2026-04-04T09:05:20.582Z</time></trkpt><trkpt lat="37.9207233" lon="15.9593267"><ele>7.0</ele><time>2026-04-04T09:05:21.582Z</time></trkpt><trkpt lat="37.9207433" lon="15.9594633"><ele>7.25</ele><time>2026-04-04T09:05:22.582Z</time></trkpt><trkpt lat="37.9208" lon="15.9595967"><ele>7.5</ele><time>2026-04-04T09:05:23.582Z</time></trkpt><trkpt lat="37.9208767" lon="15.9597167"><ele>7.75</ele><time>2026-04-04T09:05:24.582Z</time></trkpt><trkpt lat="37.9209533" lon="15.959825"><ele>8.0</ele><time>2026-04-04T09:05:25.582Z</time></trkpt><trkpt lat="37.92102" lon="15.9599433"><ele>9.8</ele><time>2026-04-04T09:05:26.582Z</time></trkpt><trkpt lat="37.9211167" lon="15.96006"><ele>11.600000000000001</ele><time>2026-04-04T09:05:27.582Z</time></trkpt><trkpt lat="37.9211867" lon="15.9601617"><ele>13.399999999999999</ele><time>2026-04-04T09:05:28.582Z</time></trkpt><trkpt lat="37.921245" lon="15.9602483"><ele>15.2</ele><time>2026-04-04T09:05:29.582Z</time></trkpt><trkpt lat="37.9213" lon="15.9603333"><ele>17.0</ele><time>2026-04-04T09:05:30.582Z</time></trkpt><trkpt lat="37.9213267" lon="15.96042"><ele>17.0</ele><time>2026-04-04T09:05:31.582Z</time></trkpt><trkpt lat="37.9213283" lon="15.9605167"><ele>17.0</ele><time>2026-04-04T09:05:32.583Z</time></trkpt><trkpt lat="37.9213117" lon="15.9606283"><ele>17.0</ele><time>2026-04-04T09:05:33.582Z</time></trkpt><trkpt lat="37.9212667" lon="15.96074"><ele>17.0</ele><time>2026-04-04T09:05:34.582Z</time></trkpt><trkpt lat="37.921205" lon="15.9608533"><ele>17.0</ele><time>2026-04-04T09:05:35.582Z</time></trkpt><trkpt lat="37.92112" lon="15.9609383"><ele>16.0</ele><time>2026-04-04T09:05:36.582Z</time></trkpt><trkpt lat="37.921025" lon="15.961015"><ele>15.0</ele><time>2026-04-04T09:05:37.582Z</time></trkpt><trkpt lat="37.9209283" lon="15.9611017"><ele>14.0</ele><time>2026-04-04T09:05:38.582Z</time></trkpt><trkpt lat="37.9208333" lon="15.9611917"><ele>13.0</ele><time>2026-04-04T09:05:39.582Z</time></trkpt><trkpt lat="37.92074" lon="15.9612783"><ele>13.0</ele><time>2026-04-04T09:05:40.582Z</time></trkpt><trkpt lat="37.9206417" lon="15.961375"><ele>13.0</ele><time>2026-04-04T09:05:41.583Z</time></trkpt><trkpt lat="37.9205517" lon="15.9614733"><ele>13.0</ele><time>2026-04-04T09:05:42.582Z</time></trkpt><trkpt lat="37.9204617" lon="15.9615783"><ele>13.0</ele><time>2026-04-04T09:05:43.582Z</time></trkpt><trkpt lat="37.920375" lon="15.96169"><ele>11.75</ele><time>2026-04-04T09:05:44.582Z</time></trkpt><trkpt lat="37.92028" lon="15.9618033"><ele>10.5</ele><time>2026-04-04T09:05:45.582Z</time></trkpt><trkpt lat="37.9201867" lon="15.9619183"><ele>9.25</ele><time>2026-04-04T09:05:46.582Z</time></trkpt><trkpt lat="37.920085" lon="15.9620367"><ele>8.0</ele><time>2026-04-04T09:05:47.583Z</time></trkpt><trkpt lat="37.9199867" lon="15.9621533"><ele>8.0</ele><time>2026-04-04T09:05:48.582Z</time></trkpt><trkpt lat="37.91992" lon="15.9622933"><ele>8.0</ele><time>2026-04-04T09:05:49.582Z</time></trkpt><trkpt lat="37.9198417" lon="15.9624283"><ele>8.0</ele><time>2026-04-04T09:05:50.582Z</time></trkpt><trkpt lat="37.9197867" lon="15.9626067"><ele>8.0</ele><time>2026-04-04T09:05:51.582Z</time></trkpt><trkpt lat="37.9197483" lon="15.9628183"><ele>8.666666666666666</ele><time>2026-04-04T09:05:52.582Z</time></trkpt><trkpt lat="37.9197033" lon="15.9630117"><ele>9.333333333333334</ele><time>2026-04-04T09:05:53.582Z</time></trkpt><trkpt lat="37.9196667" lon="15.9632283"><ele>10.0</ele><time>2026-04-04T09:05:54.582Z</time></trkpt><trkpt lat="37.9196483" lon="15.9634733"><ele>13.0</ele><time>2026-04-04T09:05:55.582Z</time></trkpt><trkpt lat="37.9196383" lon="15.9637383"><ele>16.0</ele><time>2026-04-04T09:05:56.582Z</time></trkpt><trkpt lat="37.9196333" lon="15.9640133"><ele>19.0</ele><time>2026-04-04T09:05:57.582Z</time></trkpt><trkpt lat="37.9196233" lon="15.9642783"><ele>21.666666666666664</ele><time>2026-04-04T09:05:58.582Z</time></trkpt><trkpt lat="37.91962" lon="15.9645467"><ele>24.333333333333332</ele><time>2026-04-04T09:05:59.583Z</time></trkpt><trkpt lat="37.919605" lon="15.9647983"><ele>27.0</ele><time>2026-04-04T09:06:00.582Z</time></trkpt><trkpt lat="37.9195733" lon="15.965025"><ele>28.666666666666664</ele><time>2026-04-04T09:06:01.582Z</time></trkpt><trkpt lat="37.9195433" lon="15.96525"><ele>30.333333333333332</ele><time>2026-04-04T09:06:02.582Z</time></trkpt><trkpt lat="37.919585" lon="15.9655133"><ele>32.0</ele><time>2026-04-04T09:06:03.582Z</time></trkpt><trkpt lat="37.91961" lon="15.9657617"><ele>30.0</ele><time>2026-04-04T09:06:04.582Z</time></trkpt><trkpt lat="37.9196233" lon="15.9660067"><ele>28.0</ele><time>2026-04-04T09:06:05.583Z</time></trkpt><trkpt lat="37.9196117" lon="15.966255"><ele>26.0</ele><time>2026-04-04T09:06:06.583Z</time></trkpt><trkpt lat="37.9196317" lon="15.9665083"><ele>24.0</ele><time>2026-04-04T09:06:07.582Z</time></trkpt><trkpt lat="37.919645" lon="15.966765"><ele>22.0</ele><time>2026-04-04T09:06:08.582Z</time></trkpt><trkpt lat="37.9196717" lon="15.9670167"><ele>20.0</ele><time>2026-04-04T09:06:09.583Z</time></trkpt><trkpt lat="37.919715" lon="15.96728"><ele>20.0</ele><time>2026-04-04T09:06:10.582Z</time></trkpt><trkpt lat="37.91971" lon="15.9675267"><ele>20.0</ele><time>2026-04-04T09:06:11.582Z</time></trkpt><trkpt lat="37.9197883" lon="15.9678017"><ele>20.0</ele><time>2026-04-04T09:06:12.582Z</time></trkpt><trkpt lat="37.919815" lon="15.9680767"><ele>19.333333333333336</ele><time>2026-04-04T09:06:13.582Z</time></trkpt><trkpt lat="37.9198533" lon="15.9683533"><ele>18.666666666666668</ele><time>2026-04-04T09:06:14.583Z</time></trkpt><trkpt lat="37.919885" lon="15.9686317"><ele>18.0</ele><time>2026-04-04T09:06:15.583Z</time></trkpt><trkpt lat="37.9199267" lon="15.968905"><ele>18.0</ele><time>2026-04-04T09:06:16.582Z</time></trkpt><trkpt lat="37.9199667" lon="15.9691717"><ele>18.0</ele><time>2026-04-04T09:06:17.582Z</time></trkpt><trkpt lat="37.920005" lon="15.9694383"><ele>18.0</ele><time>2026-04-04T09:06:18.582Z</time></trkpt><trkpt lat="37.92005" lon="15.9697"><ele>25.666666666666664</ele><time>2026-04-04T09:06:19.582Z</time></trkpt><trkpt lat="37.9200933" lon="15.9699583"><ele>33.33333333333333</ele><time>2026-04-04T09:06:20.582Z</time></trkpt><trkpt lat="37.9201367" lon="15.9702167"><ele>41.0</ele><time>2026-04-04T09:06:21.582Z</time></trkpt><trkpt lat="37.92017" lon="15.9704767"><ele>41.0</ele><time>2026-04-04T09:06:22.582Z</time></trkpt><trkpt lat="37.920195" lon="15.97074"><ele>41.0</ele><time>2026-04-04T09:06:23.582Z</time></trkpt><trkpt lat="37.9202183" lon="15.97101"><ele>41.0</ele><time>2026-04-04T09:06:24.582Z</time></trkpt><trkpt lat="37.9202483" lon="15.9712683"><ele>37.33333333333333</ele><time>2026-04-04T09:06:25.582Z</time></trkpt><trkpt lat="37.92027" lon="15.9715317"><ele>33.666666666666664</ele><time>2026-04-04T09:06:26.582Z</time></trkpt><trkpt lat="37.92029" lon="15.9717917"><ele>30.0</ele><time>2026-04-04T09:06:27.582Z</time></trkpt><trkpt lat="37.920305" lon="15.9720567"><ele>30.0</ele><time>2026-04-04T09:06:28.582Z</time></trkpt><trkpt lat="37.9203217" lon="15.9723217"><ele>30.0</ele><time>2026-04-04T09:06:29.582Z</time></trkpt><trkpt lat="37.9203383" lon="15.9725883"><ele>30.0</ele><time>2026-04-04T09:06:30.582Z</time></trkpt><trkpt lat="37.9203417" lon="15.9728567"><ele>32.0</ele><time>2026-04-04T09:06:31.582Z</time></trkpt><trkpt lat="37.9203317" lon="15.9731233"><ele>34.0</ele><time>2026-04-04T09:06:32.582Z</time></trkpt><trkpt lat="37.92031" lon="15.9733917"><ele>36.0</ele><time>2026-04-04T09:06:33.582Z</time></trkpt><trkpt lat="37.9202767" lon="15.9736567"><ele>39.333333333333336</ele><time>2026-04-04T09:06:34.582Z</time></trkpt><trkpt lat="37.9202433" lon="15.9739233"><ele>42.66666666666667</ele><time>2026-04-04T09:06:35.582Z</time></trkpt><trkpt lat="37.9202083" lon="15.9741883"><ele>46.0</ele><time>2026-04-04T09:06:36.582Z</time></trkpt><trkpt lat="37.9201767" lon="15.9744583"><ele>48.333333333333336</ele><time>2026-04-04T09:06:37.582Z</time></trkpt><trkpt lat="37.9201483" lon="15.9747267"><ele>50.66666666666667</ele><time>2026-04-04T09:06:38.582Z</time></trkpt><trkpt lat="37.920115" lon="15.974995"><ele>53.0</ele><time>2026-04-04T09:06:39.582Z</time></trkpt><trkpt lat="37.92008" lon="15.97526"><ele>42.333333333333336</ele><time>2026-04-04T09:06:40.582Z</time></trkpt><trkpt lat="37.9200433" lon="15.9755233"><ele>31.666666666666668</ele><time>2026-04-04T09:06:41.583Z</time></trkpt><trkpt lat="37.9200133" lon="15.9757667"><ele>21.0</ele><time>2026-04-04T09:06:42.582Z</time></trkpt><trkpt lat="37.9199783" lon="15.97601"><ele>21.0</ele><time>2026-04-04T09:06:43.582Z</time></trkpt><trkpt lat="37.9199133" lon="15.976255"><ele>21.0</ele><time>2026-04-04T09:06:44.582Z</time></trkpt><trkpt lat="37.9198433" lon="15.9764833"><ele>21.0</ele><time>2026-04-04T09:06:45.583Z</time></trkpt><trkpt lat="37.9197683" lon="15.9767183"><ele>23.333333333333336</ele><time>2026-04-04T09:06:46.582Z</time></trkpt><trkpt lat="37.919695" lon="15.976955"><ele>25.666666666666668</ele><time>2026-04-04T09:06:47.582Z</time></trkpt><trkpt lat="37.91963" lon="15.9771983"><ele>28.0</ele><time>2026-04-04T09:06:48.582Z</time></trkpt><trkpt lat="37.9195683" lon="15.9774383"><ele>27.0</ele><time>2026-04-04T09:06:49.582Z</time></trkpt><trkpt lat="37.919525" lon="15.97769"><ele>26.0</ele><time>2026-04-04T09:06:50.582Z</time></trkpt><trkpt lat="37.9194917" lon="15.9779483"><ele>25.0</ele><time>2026-04-04T09:06:51.582Z</time></trkpt><trkpt lat="37.9194767" lon="15.9782033"><ele>23.0</ele><time>2026-04-04T09:06:52.583Z</time></trkpt><trkpt lat="37.91946" lon="15.978455"><ele>21.0</ele><time>2026-04-04T09:06:53.582Z</time></trkpt><trkpt lat="37.9194467" lon="15.9787067"><ele>19.0</ele><time>2026-04-04T09:06:54.582Z</time></trkpt><trkpt lat="37.9194333" lon="15.97895"><ele>19.0</ele><time>2026-04-04T09:06:55.582Z</time></trkpt><trkpt lat="37.9194167" lon="15.9791783"><ele>19.0</ele><time>2026-04-04T09:06:56.583Z</time></trkpt><trkpt lat="37.9194" lon="15.9794033"><ele>19.0</ele><time>2026-04-04T09:06:57.582Z</time></trkpt><trkpt lat="37.9193817" lon="15.9796233"><ele>17.666666666666664</ele><time>2026-04-04T09:06:58.582Z</time></trkpt><trkpt lat="37.9193733" lon="15.979845"><ele>16.333333333333332</ele><time>2026-04-04T09:06:59.582Z</time></trkpt><trkpt lat="37.91936" lon="15.980065"><ele>15.0</ele><time>2026-04-04T09:07:00.582Z</time></trkpt><trkpt lat="37.9193383" lon="15.9802733"><ele>13.666666666666666</ele><time>2026-04-04T09:07:01.582Z</time></trkpt><trkpt lat="37.9193183" lon="15.9804817"><ele>12.333333333333332</ele><time>2026-04-04T09:07:02.582Z</time></trkpt><trkpt lat="37.9193" lon="15.9806967"><ele>11.0</ele><time>2026-04-04T09:07:03.582Z</time></trkpt><trkpt lat="37.91929" lon="15.9808967"><ele>10.333333333333332</ele><time>2026-04-04T09:07:04.582Z</time></trkpt><trkpt lat="37.919275" lon="15.9811133"><ele>9.666666666666666</ele><time>2026-04-04T09:07:05.582Z</time></trkpt><trkpt lat="37.9192517" lon="15.981325"><ele>9.0</ele><time>2026-04-04T09:07:06.583Z</time></trkpt><trkpt lat="37.9192367" lon="15.9815467"><ele>8.0</ele><time>2026-04-04T09:07:07.582Z</time></trkpt><trkpt lat="37.9192233" lon="15.9817583"><ele>7.0</ele><time>2026-04-04T09:07:08.582Z</time></trkpt><trkpt lat="37.919205" lon="15.981975"><ele>6.0</ele><time>2026-04-04T09:07:09.582Z</time></trkpt><trkpt lat="37.919195" lon="15.9821917"><ele>6.0</ele><time>2026-04-04T09:07:10.583Z</time></trkpt><trkpt lat="37.9191767" lon="15.982415"><ele>6.0</ele><time>2026-04-04T09:07:11.582Z</time></trkpt><trkpt lat="37.91916" lon="15.9826383"><ele>6.0</ele><time>2026-04-04T09:07:12.582Z</time></trkpt><trkpt lat="37.919145" lon="15.982865"><ele>6.333333333333334</ele><time>2026-04-04T09:07:13.583Z</time></trkpt><trkpt lat="37.9191317" lon="15.9830883"><ele>6.666666666666667</ele><time>2026-04-04T09:07:14.582Z</time></trkpt><trkpt lat="37.91912" lon="15.983295"><ele>7.0</ele><time>2026-04-04T09:07:15.582Z</time></trkpt><trkpt lat="37.919105" lon="15.9834883"><ele>7.0</ele><time>2026-04-04T09:07:16.582Z</time></trkpt><trkpt lat="37.91908" lon="15.9836733"><ele>7.0</ele><time>2026-04-04T09:07:17.582Z</time></trkpt><trkpt lat="37.91906" lon="15.98386"><ele>7.0</ele><time>2026-04-04T09:07:18.582Z</time></trkpt><trkpt lat="37.9190467" lon="15.984045"><ele>7.0</ele><time>2026-04-04T09:07:19.583Z</time></trkpt><trkpt lat="37.9190383" lon="15.9842367"><ele>8.333333333333334</ele><time>2026-04-04T09:07:20.582Z</time></trkpt><trkpt lat="37.9190283" lon="15.9844283"><ele>9.666666666666666</ele><time>2026-04-04T09:07:21.582Z</time></trkpt><trkpt lat="37.9190117" lon="15.984625"><ele>11.0</ele><time>2026-04-04T09:07:22.582Z</time></trkpt><trkpt lat="37.91899" lon="15.9848383"><ele>10.666666666666666</ele><time>2026-04-04T09:07:23.582Z</time></trkpt><trkpt lat="37.9189733" lon="15.9850517"><ele>10.333333333333334</ele><time>2026-04-04T09:07:24.582Z</time></trkpt><trkpt lat="37.9189667" lon="15.98525"><ele>10.0</ele><time>2026-04-04T09:07:25.582Z</time></trkpt><trkpt lat="37.91899" lon="15.9854367"><ele>10.0</ele><time>2026-04-04T09:07:26.582Z</time></trkpt><trkpt lat="37.919015" lon="15.9856083"><ele>10.0</ele><time>2026-04-04T09:07:27.582Z</time></trkpt><trkpt lat="37.9190417" lon="15.98578"><ele>10.0</ele><time>2026-04-04T09:07:28.582Z</time></trkpt><trkpt lat="37.9190683" lon="15.985945"><ele>10.0</ele><time>2026-04-04T09:07:29.582Z</time></trkpt><trkpt lat="37.91908" lon="15.9861267"><ele>10.25</ele><time>2026-04-04T09:07:30.582Z</time></trkpt><trkpt lat="37.9190883" lon="15.9863117"><ele>10.5</ele><time>2026-04-04T09:07:31.582Z</time></trkpt><trkpt lat="37.9190867" lon="15.9865017"><ele>10.75</ele><time>2026-04-04T09:07:32.582Z</time></trkpt><trkpt lat="37.919075" lon="15.9866933"><ele>11.0</ele><time>2026-04-04T09:07:33.582Z</time></trkpt><trkpt lat="37.9190483" lon="15.9868917"><ele>11.333333333333332</ele><time>2026-04-04T09:07:34.582Z</time></trkpt><trkpt lat="37.9190083" lon="15.9871"><ele>11.666666666666666</ele><time>2026-04-04T09:07:35.582Z</time></trkpt><trkpt lat="37.9189633" lon="15.9873183"><ele>12.0</ele><time>2026-04-04T09:07:36.582Z</time></trkpt><trkpt lat="37.9189083" lon="15.9875267"><ele>11.333333333333334</ele><time>2026-04-04T09:07:37.583Z</time></trkpt><trkpt lat="37.9188567" lon="15.9877317"><ele>10.666666666666668</ele><time>2026-04-04T09:07:38.582Z</time></trkpt><trkpt lat="37.9188117" lon="15.9879533"><ele>10.0</ele><time>2026-04-04T09:07:39.582Z</time></trkpt><trkpt lat="37.918775" lon="15.9881767"><ele>10.0</ele><time>2026-04-04T09:07:40.582Z</time></trkpt><trkpt lat="37.9187517" lon="15.9884133"><ele>10.0</ele><time>2026-04-04T09:07:41.583Z</time></trkpt><trkpt lat="37.9187267" lon="15.98865"><ele>10.0</ele><time>2026-04-04T09:07:42.583Z</time></trkpt><trkpt lat="37.918705" lon="15.988885"><ele>10.0</ele><time>2026-04-04T09:07:43.582Z</time></trkpt><trkpt lat="37.9186933" lon="15.9891267"><ele>10.0</ele><time>2026-04-04T09:07:44.582Z</time></trkpt><trkpt lat="37.9186783" lon="15.9893567"><ele>10.0</ele><time>2026-04-04T09:07:45.582Z</time></trkpt><trkpt lat="37.9186633" lon="15.9895917"><ele>10.333333333333334</ele><time>2026-04-04T09:07:46.582Z</time></trkpt><trkpt lat="37.9186583" lon="15.98981"><ele>10.666666666666666</ele><time>2026-04-04T09:07:47.582Z</time></trkpt><trkpt lat="37.9186367" lon="15.990035"><ele>11.0</ele><time>2026-04-04T09:07:48.582Z</time></trkpt><trkpt lat="37.91862" lon="15.9902417"><ele>11.25</ele><time>2026-04-04T09:07:49.583Z</time></trkpt><trkpt lat="37.9186033" lon="15.9904367"><ele>11.5</ele><time>2026-04-04T09:07:50.583Z</time></trkpt><trkpt lat="37.9185933" lon="15.9906267"><ele>11.75</ele><time>2026-04-04T09:07:51.583Z</time></trkpt><trkpt lat="37.918585" lon="15.9908083"><ele>12.0</ele><time>2026-04-04T09:07:52.583Z</time></trkpt><trkpt lat="37.9185717" lon="15.99099"><ele>13.5</ele><time>2026-04-04T09:07:53.582Z</time></trkpt><trkpt lat="37.9185533" lon="15.9911767"><ele>15.0</ele><time>2026-04-04T09:07:54.583Z</time></trkpt><trkpt lat="37.9185417" lon="15.9913617"><ele>16.5</ele><time>2026-04-04T09:07:55.582Z</time></trkpt><trkpt lat="37.91853" lon="15.991545"><ele>18.0</ele><time>2026-04-04T09:07:56.582Z</time></trkpt><trkpt lat="37.918515" lon="15.9917267"><ele>18.0</ele><time>2026-04-04T09:07:57.582Z</time></trkpt><trkpt lat="37.91851" lon="15.9919067"><ele>18.0</ele><time>2026-04-04T09:07:58.582Z</time></trkpt><trkpt lat="37.918495" lon="15.9920967"><ele>18.0</ele><time>2026-04-04T09:07:59.583Z</time></trkpt><trkpt lat="37.9184867" lon="15.9922667"><ele>18.0</ele><time>2026-04-04T09:08:00.582Z</time></trkpt><trkpt lat="37.91847" lon="15.99244"><ele>16.5</ele><time>2026-04-04T09:08:01.583Z</time></trkpt><trkpt lat="37.9184517" lon="15.9926033"><ele>15.0</ele><time>2026-04-04T09:08:02.582Z</time></trkpt><trkpt lat="37.918425" lon="15.9927667"><ele>13.5</ele><time>2026-04-04T09:08:03.582Z</time></trkpt><trkpt lat="37.9183917" lon="15.992925"><ele>12.0</ele><time>2026-04-04T09:08:04.582Z</time></trkpt><trkpt lat="37.918365" lon="15.99308"><ele>10.75</ele><time>2026-04-04T09:08:05.583Z</time></trkpt><trkpt lat="37.918325" lon="15.9932283"><ele>9.5</ele><time>2026-04-04T09:08:06.582Z</time></trkpt><trkpt lat="37.9182783" lon="15.993385"><ele>8.25</ele><time>2026-04-04T09:08:07.582Z</time></trkpt><trkpt lat="37.91823" lon="15.9935417"><ele>7.0</ele><time>2026-04-04T09:08:08.583Z</time></trkpt><trkpt lat="37.9181817" lon="15.9936967"><ele>7.0</ele><time>2026-04-04T09:08:09.583Z</time></trkpt><trkpt lat="37.918135" lon="15.99386"><ele>7.0</ele><time>2026-04-04T09:08:10.582Z</time></trkpt><trkpt lat="37.918075" lon="15.9940183"><ele>7.0</ele><time>2026-04-04T09:08:11.582Z</time></trkpt><trkpt lat="37.9180267" lon="15.994185"><ele>7.0</ele><time>2026-04-04T09:08:12.582Z</time></trkpt><trkpt lat="37.917985" lon="15.9943433"><ele>7.5</ele><time>2026-04-04T09:08:13.583Z</time></trkpt><trkpt lat="37.917935" lon="15.9945083"><ele>8.0</ele><time>2026-04-04T09:08:14.582Z</time></trkpt><trkpt lat="37.9178983" lon="15.9947017"><ele>8.5</ele><time>2026-04-04T09:08:15.582Z</time></trkpt><trkpt lat="37.917895" lon="15.9948817"><ele>9.0</ele><time>2026-04-04T09:08:16.582Z</time></trkpt><trkpt lat="37.9179067" lon="15.99507"><ele>9.666666666666666</ele><time>2026-04-04T09:08:17.582Z</time></trkpt><trkpt lat="37.917925" lon="15.9952633"><ele>10.333333333333332</ele><time>2026-04-04T09:08:18.582Z</time></trkpt><trkpt lat="37.9179383" lon="15.9954617"><ele>11.0</ele><time>2026-04-04T09:08:19.582Z</time></trkpt><trkpt lat="37.917955" lon="15.99566"><ele>11.5</ele><time>2026-04-04T09:08:20.582Z</time></trkpt><trkpt lat="37.917975" lon="15.995845"><ele>12.0</ele><time>2026-04-04T09:08:21.583Z</time></trkpt><trkpt lat="37.917985" lon="15.996035"><ele>12.5</ele><time>2026-04-04T09:08:22.582Z</time></trkpt><trkpt lat="37.9179917" lon="15.9962183"><ele>13.0</ele><time>2026-04-04T09:08:23.583Z</time></trkpt><trkpt lat="37.91797" lon="15.9964017"><ele>13.0</ele><time>2026-04-04T09:08:24.582Z</time></trkpt><trkpt lat="37.91792" lon="15.9965717"><ele>13.0</ele><time>2026-04-04T09:08:25.582Z</time></trkpt><trkpt lat="37.9178433" lon="15.996735"><ele>13.0</ele><time>2026-04-04T09:08:26.582Z</time></trkpt><trkpt lat="37.9177517" lon="15.9968867"><ele>13.0</ele><time>2026-04-04T09:08:27.582Z</time></trkpt><trkpt lat="37.917665" lon="15.99703"><ele>14.25</ele><time>2026-04-04T09:08:28.582Z</time></trkpt><trkpt lat="37.917575" lon="15.9971733"><ele>15.5</ele><time>2026-04-04T09:08:29.583Z</time></trkpt><trkpt lat="37.917485" lon="15.997305"><ele>16.75</ele><time>2026-04-04T09:08:30.582Z</time></trkpt><trkpt lat="37.91739" lon="15.9974033"><ele>18.0</ele><time>2026-04-04T09:08:31.582Z</time></trkpt><trkpt lat="37.9172567" lon="15.9974667"><ele>18.0</ele><time>2026-04-04T09:08:32.583Z</time></trkpt><trkpt lat="37.917125" lon="15.9974833"><ele>18.0</ele><time>2026-04-04T09:08:33.582Z</time></trkpt><trkpt lat="37.9170083" lon="15.997475"><ele>18.0</ele><time>2026-04-04T09:08:34.582Z</time></trkpt><trkpt lat="37.91688" lon="15.9974483"><ele>18.0</ele><time>2026-04-04T09:08:35.582Z</time></trkpt><trkpt lat="37.9167617" lon="15.997435"><ele>18.25</ele><time>2026-04-04T09:08:36.583Z</time></trkpt><trkpt lat="37.91664" lon="15.99748"><ele>18.5</ele><time>2026-04-04T09:08:37.582Z</time></trkpt><trkpt lat="37.9165317" lon="15.9975533"><ele>18.75</ele><time>2026-04-04T09:08:38.582Z</time></trkpt><trkpt lat="37.91644" lon="15.9976483"><ele>19.0</ele><time>2026-04-04T09:08:39.582Z</time></trkpt><trkpt lat="37.9163717" lon="15.9977517"><ele>19.0</ele><time>2026-04-04T09:08:40.582Z</time></trkpt><trkpt lat="37.9163233" lon="15.997885"><ele>19.0</ele><time>2026-04-04T09:08:41.582Z</time></trkpt><trkpt lat="37.9162967" lon="15.9980383"><ele>19.0</ele><time>2026-04-04T09:08:42.583Z</time></trkpt><trkpt lat="37.9163167" lon="15.998205"><ele>19.0</ele><time>2026-04-04T09:08:43.582Z</time></trkpt><trkpt lat="37.9163667" lon="15.9983733"><ele>17.0</ele><time>2026-04-04T09:08:44.582Z</time></trkpt><trkpt lat="37.9164333" lon="15.9985467"><ele>15.0</ele><time>2026-04-04T09:08:45.582Z</time></trkpt><trkpt lat="37.9165117" lon="15.9987033"><ele>13.0</ele><time>2026-04-04T09:08:46.582Z</time></trkpt><trkpt lat="37.9166033" lon="15.998845"><ele>11.0</ele><time>2026-04-04T09:08:47.582Z</time></trkpt><trkpt lat="37.9167217" lon="15.9989417"><ele>12.25</ele><time>2026-04-04T09:08:48.582Z</time></trkpt><trkpt lat="37.9168467" lon="15.9990067"><ele>13.5</ele><time>2026-04-04T09:08:49.583Z</time></trkpt><trkpt lat="37.916945" lon="15.9990917"><ele>14.75</ele><time>2026-04-04T09:08:50.582Z</time></trkpt><trkpt lat="37.9170233" lon="15.9992183"><ele>16.0</ele><time>2026-04-04T09:08:51.582Z</time></trkpt><trkpt lat="37.9170833" lon="15.9993583"><ele>16.0</ele><time>2026-04-04T09:08:52.582Z</time></trkpt><trkpt lat="37.9171483" lon="15.9994917"><ele>16.0</ele><time>2026-04-04T09:08:53.582Z</time></trkpt><trkpt lat="37.91724" lon="15.9995983"><ele>16.0</ele><time>2026-04-04T09:08:54.583Z</time></trkpt><trkpt lat="37.9173267" lon="15.9997017"><ele>16.0</ele><time>2026-04-04T09:08:55.582Z</time></trkpt><trkpt lat="37.9174083" lon="15.99981"><ele>16.0</ele><time>2026-04-04T09:08:56.583Z</time></trkpt><trkpt lat="37.91748" lon="15.999925"><ele>16.0</ele><time>2026-04-04T09:08:57.582Z</time></trkpt><trkpt lat="37.9175583" lon="16.0000383"><ele>16.0</ele><time>2026-04-04T09:08:58.582Z</time></trkpt><trkpt lat="37.9176333" lon="16.00017"><ele>16.0</ele><time>2026-04-04T09:08:59.582Z</time></trkpt><trkpt lat="37.9177017" lon="16.0003133"><ele>18.0</ele><time>2026-04-04T09:09:00.582Z</time></trkpt><trkpt lat="37.917775" lon="16.0004533"><ele>20.0</ele><time>2026-04-04T09:09:01.582Z</time></trkpt><trkpt lat="37.9178467" lon="16.0006017"><ele>22.0</ele><time>2026-04-04T09:09:02.582Z</time></trkpt><trkpt lat="37.9179217" lon="16.0007633"><ele>24.0</ele><time>2026-04-04T09:09:03.582Z</time></trkpt><trkpt lat="37.9179983" lon="16.0009233"><ele>24.0</ele><time>2026-04-04T09:09:04.582Z</time></trkpt><trkpt lat="37.9180783" lon="16.0010833"><ele>24.0</ele><time>2026-04-04T09:09:05.582Z</time></trkpt><trkpt lat="37.918165" lon="16.00124"><ele>24.0</ele><time>2026-04-04T09:09:06.582Z</time></trkpt><trkpt lat="37.9182517" lon="16.0014"><ele>24.0</ele><time>2026-04-04T09:09:07.582Z</time></trkpt><trkpt lat="37.9183367" lon="16.0015733"><ele>24.0</ele><time>2026-04-04T09:09:08.582Z</time></trkpt><trkpt lat="37.9184217" lon="16.00175"><ele>24.0</ele><time>2026-04-04T09:09:09.583Z</time></trkpt><trkpt lat="37.91851" lon="16.0019267"><ele>30.333333333333336</ele><time>2026-04-04T09:09:10.582Z</time></trkpt><trkpt lat="37.9185933" lon="16.0021067"><ele>36.66666666666667</ele><time>2026-04-04T09:09:11.583Z</time></trkpt><trkpt lat="37.9186767" lon="16.0022917"><ele>43.0</ele><time>2026-04-04T09:09:12.583Z</time></trkpt><trkpt lat="37.9187567" lon="16.0024783"><ele>36.66666666666667</ele><time>2026-04-04T09:09:13.582Z</time></trkpt><trkpt lat="37.9188367" lon="16.0026683"><ele>30.333333333333336</ele><time>2026-04-04T09:09:14.582Z</time></trkpt><trkpt lat="37.9189183" lon="16.00286"><ele>24.0</ele><time>2026-04-04T09:09:15.582Z</time></trkpt><trkpt lat="37.9189833" lon="16.0030467"><ele>24.0</ele><time>2026-04-04T09:09:16.583Z</time></trkpt><trkpt lat="37.91903" lon="16.003265"><ele>24.0</ele><time>2026-04-04T09:09:17.582Z</time></trkpt><trkpt lat="37.919075" lon="16.0034867"><ele>24.0</ele><time>2026-04-04T09:09:18.582Z</time></trkpt><trkpt lat="37.91912" lon="16.0037117"><ele>24.333333333333336</ele><time>2026-04-04T09:09:19.582Z</time></trkpt><trkpt lat="37.9191617" lon="16.00394"><ele>24.666666666666668</ele><time>2026-04-04T09:09:20.582Z</time></trkpt><trkpt lat="37.9191983" lon="16.0041667"><ele>25.0</ele><time>2026-04-04T09:09:21.583Z</time></trkpt><trkpt lat="37.9192383" lon="16.00438"><ele>25.0</ele><time>2026-04-04T09:09:22.583Z</time></trkpt><trkpt lat="37.919285" lon="16.0045783"><ele>25.0</ele><time>2026-04-04T09:09:23.582Z</time></trkpt><trkpt lat="37.9193383" lon="16.00476"><ele>25.0</ele><time>2026-04-04T09:09:24.582Z</time></trkpt><trkpt lat="37.919375" lon="16.0049567"><ele>22.666666666666668</ele><time>2026-04-04T09:09:25.583Z</time></trkpt><trkpt lat="37.9194167" lon="16.0051517"><ele>20.333333333333336</ele><time>2026-04-04T09:09:26.582Z</time></trkpt><trkpt lat="37.9194433" lon="16.0053583"><ele>18.0</ele><time>2026-04-04T09:09:27.582Z</time></trkpt><trkpt lat="37.9194767" lon="16.0055717"><ele>18.0</ele><time>2026-04-04T09:09:28.582Z</time></trkpt><trkpt lat="37.919515" lon="16.0057933"><ele>18.0</ele><time>2026-04-04T09:09:29.582Z</time></trkpt><trkpt lat="37.9195583" lon="16.006"><ele>18.0</ele><time>2026-04-04T09:09:30.582Z</time></trkpt><trkpt lat="37.9195967" lon="16.0062117"><ele>17.333333333333332</ele><time>2026-04-04T09:09:31.582Z</time></trkpt><trkpt lat="37.919625" lon="16.0064283"><ele>16.666666666666664</ele><time>2026-04-04T09:09:32.583Z</time></trkpt><trkpt lat="37.9196583" lon="16.0066617"><ele>16.0</ele><time>2026-04-04T09:09:33.582Z</time></trkpt><trkpt lat="37.9196783" lon="16.0069033"><ele>15.666666666666666</ele><time>2026-04-04T09:09:34.582Z</time></trkpt><trkpt lat="37.9197017" lon="16.0071383"><ele>15.333333333333332</ele><time>2026-04-04T09:09:35.582Z</time></trkpt><trkpt lat="37.9197433" lon="16.0073683"><ele>15.0</ele><time>2026-04-04T09:09:36.582Z</time></trkpt><trkpt lat="37.9197967" lon="16.007585"><ele>14.666666666666668</ele><time>2026-04-04T09:09:37.582Z</time></trkpt><trkpt lat="37.919835" lon="16.0078117"><ele>14.333333333333334</ele><time>2026-04-04T09:09:38.583Z</time></trkpt><trkpt lat="37.9198617" lon="16.0080417"><ele>14.0</ele><time>2026-04-04T09:09:39.582Z</time></trkpt><trkpt lat="37.9198783" lon="16.0082667"><ele>13.666666666666668</ele><time>2026-04-04T09:09:40.583Z</time></trkpt><trkpt lat="37.9199017" lon="16.0084933"><ele>13.333333333333332</ele><time>2026-04-04T09:09:41.582Z</time></trkpt><trkpt lat="37.9199367" lon="16.008715"><ele>13.0</ele><time>2026-04-04T09:09:42.582Z</time></trkpt><trkpt lat="37.91998" lon="16.0089367"><ele>13.0</ele><time>2026-04-04T09:09:43.582Z</time></trkpt><trkpt lat="37.9200233" lon="16.0091533"><ele>13.0</ele><time>2026-04-04T09:09:44.582Z</time></trkpt><trkpt lat="37.920055" lon="16.0093683"><ele>13.0</ele><time>2026-04-04T09:09:45.583Z</time></trkpt><trkpt lat="37.9200867" lon="16.00959"><ele>13.333333333333332</ele><time>2026-04-04T09:09:46.582Z</time></trkpt><trkpt lat="37.9201333" lon="16.00981"><ele>13.666666666666668</ele><time>2026-04-04T09:09:47.583Z</time></trkpt><trkpt lat="37.9201883" lon="16.01002"><ele>14.0</ele><time>2026-04-04T09:09:48.582Z</time></trkpt><trkpt lat="37.9202433" lon="16.0102233"><ele>12.666666666666668</ele><time>2026-04-04T09:09:49.582Z</time></trkpt><trkpt lat="37.9203083" lon="16.0104083"><ele>11.333333333333334</ele><time>2026-04-04T09:09:50.582Z</time></trkpt><trkpt lat="37.9203633" lon="16.0105833"><ele>10.0</ele><time>2026-04-04T09:09:51.582Z</time></trkpt><trkpt lat="37.9204133" lon="16.0107583"><ele>9.25</ele><time>2026-04-04T09:09:52.582Z</time></trkpt><trkpt lat="37.9204683" lon="16.01092"><ele>8.5</ele><time>2026-04-04T09:09:53.582Z</time></trkpt><trkpt lat="37.9205217" lon="16.0110867"><ele>7.75</ele><time>2026-04-04T09:09:54.582Z</time></trkpt><trkpt lat="37.920585" lon="16.0112417"><ele>7.0</ele><time>2026-04-04T09:09:55.582Z</time></trkpt><trkpt lat="37.92067" lon="16.0113867"><ele>7.0</ele><time>2026-04-04T09:09:56.582Z</time></trkpt><trkpt lat="37.9207733" lon="16.0115283"><ele>7.0</ele><time>2026-04-04T09:09:57.582Z</time></trkpt><trkpt lat="37.9208867" lon="16.0116633"><ele>7.0</ele><time>2026-04-04T09:09:58.582Z</time></trkpt><trkpt lat="37.9210117" lon="16.01178"><ele>8.0</ele><time>2026-04-04T09:09:59.582Z</time></trkpt><trkpt lat="37.9211333" lon="16.0119117"><ele>9.0</ele><time>2026-04-04T09:10:00.583Z</time></trkpt><trkpt lat="37.9212467" lon="16.0120517"><ele>10.0</ele><time>2026-04-04T09:10:01.582Z</time></trkpt><trkpt lat="37.9213617" lon="16.0121733"><ele>10.0</ele><time>2026-04-04T09:10:02.582Z</time></trkpt><trkpt lat="37.9214367" lon="16.012325"><ele>10.0</ele><time>2026-04-04T09:10:03.582Z</time></trkpt><trkpt lat="37.9215117" lon="16.01246"><ele>10.0</ele><time>2026-04-04T09:10:04.582Z</time></trkpt><trkpt lat="37.9215783" lon="16.012595"><ele>10.0</ele><time>2026-04-04T09:10:05.582Z</time></trkpt><trkpt lat="37.92164" lon="16.01271"><ele>9.6</ele><time>2026-04-04T09:10:06.582Z</time></trkpt><trkpt lat="37.921695" lon="16.0128217"><ele>9.2</ele><time>2026-04-04T09:10:07.582Z</time></trkpt><trkpt lat="37.92174" lon="16.012935"><ele>8.8</ele><time>2026-04-04T09:10:08.582Z</time></trkpt><trkpt lat="37.9217717" lon="16.013055"><ele>8.4</ele><time>2026-04-04T09:10:09.583Z</time></trkpt><trkpt lat="37.9218217" lon="16.01316"><ele>8.0</ele><time>2026-04-04T09:10:10.582Z</time></trkpt><trkpt lat="37.92188" lon="16.013285"><ele>9.25</ele><time>2026-04-04T09:10:11.582Z</time></trkpt><trkpt lat="37.921915" lon="16.0134383"><ele>10.5</ele><time>2026-04-04T09:10:12.582Z</time></trkpt><trkpt lat="37.92194" lon="16.013615"><ele>11.75</ele><time>2026-04-04T09:10:13.582Z</time></trkpt><trkpt lat="37.9219633" lon="16.0138083"><ele>13.0</ele><time>2026-04-04T09:10:14.582Z</time></trkpt><trkpt lat="37.9219933" lon="16.0140117"><ele>13.0</ele><time>2026-04-04T09:10:15.582Z</time></trkpt><trkpt lat="37.9220333" lon="16.014235"><ele>13.0</ele><time>2026-04-04T09:10:16.582Z</time></trkpt><trkpt lat="37.922085" lon="16.0144833"><ele>13.0</ele><time>2026-04-04T09:10:17.582Z</time></trkpt><trkpt lat="37.92215" lon="16.014755"><ele>12.333333333333332</ele><time>2026-04-04T09:10:18.582Z</time></trkpt><trkpt lat="37.9222183" lon="16.0150217"><ele>11.666666666666666</ele><time>2026-04-04T09:10:19.582Z</time></trkpt><trkpt lat="37.9222867" lon="16.0152867"><ele>11.0</ele><time>2026-04-04T09:10:20.582Z</time></trkpt><trkpt lat="37.9223517" lon="16.01554"><ele>11.0</ele><time>2026-04-04T09:10:21.583Z</time></trkpt><trkpt lat="37.9224117" lon="16.0157967"><ele>11.0</ele><time>2026-04-04T09:10:22.582Z</time></trkpt><trkpt lat="37.9224733" lon="16.016035"><ele>11.0</ele><time>2026-04-04T09:10:23.582Z</time></trkpt><trkpt lat="37.9225267" lon="16.0162733"><ele>12.666666666666666</ele><time>2026-04-04T09:10:24.582Z</time></trkpt><trkpt lat="37.9225717" lon="16.016515"><ele>14.333333333333332</ele><time>2026-04-04T09:10:25.582Z</time></trkpt><trkpt lat="37.9226133" lon="16.0167617"><ele>16.0</ele><time>2026-04-04T09:10:26.583Z</time></trkpt><trkpt lat="37.9226533" lon="16.017005"><ele>16.0</ele><time>2026-04-04T09:10:27.582Z</time></trkpt><trkpt lat="37.9226983" lon="16.017235"><ele>16.0</ele><time>2026-04-04T09:10:28.582Z</time></trkpt><trkpt lat="37.9227467" lon="16.0174733"><ele>16.0</ele><time>2026-04-04T09:10:29.582Z</time></trkpt><trkpt lat="37.9227867" lon="16.0177083"><ele>16.0</ele><time>2026-04-04T09:10:30.582Z</time></trkpt><trkpt lat="37.92283" lon="16.0179483"><ele>16.0</ele><time>2026-04-04T09:10:31.583Z</time></trkpt><trkpt lat="37.9228783" lon="16.0181967"><ele>16.0</ele><time>2026-04-04T09:10:32.582Z</time></trkpt><trkpt lat="37.9229233" lon="16.0184467"><ele>15.333333333333332</ele><time>2026-04-04T09:10:33.583Z</time></trkpt><trkpt lat="37.92297" lon="16.0186933"><ele>14.666666666666668</ele><time>2026-04-04T09:10:34.582Z</time></trkpt><trkpt lat="37.9230233" lon="16.018945"><ele>14.0</ele><time>2026-04-04T09:10:35.582Z</time></trkpt><trkpt lat="37.9230717" lon="16.0192017"><ele>12.666666666666668</ele><time>2026-04-04T09:10:36.582Z</time></trkpt><trkpt lat="37.9231167" lon="16.0194583"><ele>11.333333333333334</ele><time>2026-04-04T09:10:37.583Z</time></trkpt><trkpt lat="37.9231633" lon="16.0197133"><ele>10.0</ele><time>2026-04-04T09:10:38.582Z</time></trkpt><trkpt lat="37.9232133" lon="16.019965"><ele>10.0</ele><time>2026-04-04T09:10:39.582Z</time></trkpt><trkpt lat="37.9232633" lon="16.020205"><ele>10.0</ele><time>2026-04-04T09:10:40.582Z</time></trkpt><trkpt lat="37.92331" lon="16.0204467"><ele>10.0</ele><time>2026-04-04T09:10:41.582Z</time></trkpt><trkpt lat="37.9233533" lon="16.0206883"><ele>9.333333333333334</ele><time>2026-04-04T09:10:42.582Z</time></trkpt><trkpt lat="37.92338" lon="16.0209367"><ele>8.666666666666666</ele><time>2026-04-04T09:10:43.582Z</time></trkpt><trkpt lat="37.923405" lon="16.0211883"><ele>8.0</ele><time>2026-04-04T09:10:44.582Z</time></trkpt><trkpt lat="37.92344" lon="16.021425"><ele>10.666666666666666</ele><time>2026-04-04T09:10:45.583Z</time></trkpt><trkpt lat="37.92349" lon="16.021665"><ele>13.333333333333332</ele><time>2026-04-04T09:10:46.582Z</time></trkpt><trkpt lat="37.9235317" lon="16.0219017"><ele>16.0</ele><time>2026-04-04T09:10:47.583Z</time></trkpt><trkpt lat="37.92357" lon="16.02214"><ele>16.0</ele><time>2026-04-04T09:10:48.583Z</time></trkpt><trkpt lat="37.923605" lon="16.0223883"><ele>16.0</ele><time>2026-04-04T09:10:49.582Z</time></trkpt><trkpt lat="37.9236467" lon="16.0226333"><ele>16.0</ele><time>2026-04-04T09:10:50.582Z</time></trkpt><trkpt lat="37.9237" lon="16.0228567"><ele>16.333333333333332</ele><time>2026-04-04T09:10:51.582Z</time></trkpt><trkpt lat="37.9237433" lon="16.0230833"><ele>16.666666666666668</ele><time>2026-04-04T09:10:52.582Z</time></trkpt><trkpt lat="37.9237883" lon="16.0233283"><ele>17.0</ele><time>2026-04-04T09:10:53.582Z</time></trkpt><trkpt lat="37.9238217" lon="16.0235833"><ele>16.333333333333336</ele><time>2026-04-04T09:10:54.582Z</time></trkpt><trkpt lat="37.9238617" lon="16.02383"><ele>15.666666666666668</ele><time>2026-04-04T09:10:55.582Z</time></trkpt><trkpt lat="37.9239083" lon="16.0240633"><ele>15.0</ele><time>2026-04-04T09:10:56.582Z</time></trkpt><trkpt lat="37.9239717" lon="16.024305"><ele>13.666666666666666</ele><time>2026-04-04T09:10:57.583Z</time></trkpt><trkpt lat="37.9240267" lon="16.0245533"><ele>12.333333333333332</ele><time>2026-04-04T09:10:58.582Z</time></trkpt><trkpt lat="37.9240817" lon="16.0248017"><ele>11.0</ele><time>2026-04-04T09:10:59.582Z</time></trkpt><trkpt lat="37.9241267" lon="16.0250583"><ele>10.666666666666666</ele><time>2026-04-04T09:11:00.582Z</time></trkpt><trkpt lat="37.9241567" lon="16.0253083"><ele>10.333333333333334</ele><time>2026-04-04T09:11:01.582Z</time></trkpt><trkpt lat="37.924165" lon="16.025555"><ele>10.0</ele><time>2026-04-04T09:11:02.582Z</time></trkpt><trkpt lat="37.9241433" lon="16.025805"><ele>10.666666666666668</ele><time>2026-04-04T09:11:03.582Z</time></trkpt><trkpt lat="37.9241233" lon="16.0260567"><ele>11.333333333333334</ele><time>2026-04-04T09:11:04.582Z</time></trkpt><trkpt lat="37.9241133" lon="16.0263033"><ele>12.0</ele><time>2026-04-04T09:11:05.582Z</time></trkpt><trkpt lat="37.9241133" lon="16.0265433"><ele>12.666666666666668</ele><time>2026-04-04T09:11:06.582Z</time></trkpt><trkpt lat="37.9241117" lon="16.0267833"><ele>13.333333333333334</ele><time>2026-04-04T09:11:07.582Z</time></trkpt><trkpt lat="37.9241033" lon="16.027025"><ele>14.0</ele><time>2026-04-04T09:11:08.582Z</time></trkpt><trkpt lat="37.924105" lon="16.0272733"><ele>14.0</ele><time>2026-04-04T09:11:09.582Z</time></trkpt><trkpt lat="37.92411" lon="16.0275067"><ele>14.0</ele><time>2026-04-04T09:11:10.582Z</time></trkpt><trkpt lat="37.9241083" lon="16.02774"><ele>14.0</ele><time>2026-04-04T09:11:11.582Z</time></trkpt><trkpt lat="37.924095" lon="16.027985"><ele>14.0</ele><time>2026-04-04T09:11:12.582Z</time></trkpt><trkpt lat="37.9240717" lon="16.0282383"><ele>14.0</ele><time>2026-04-04T09:11:13.582Z</time></trkpt><trkpt lat="37.9240433" lon="16.0284717"><ele>14.0</ele><time>2026-04-04T09:11:14.582Z</time></trkpt><trkpt lat="37.9240117" lon="16.0287033"><ele>14.0</ele><time>2026-04-04T09:11:15.582Z</time></trkpt><trkpt lat="37.923975" lon="16.0289467"><ele>14.0</ele><time>2026-04-04T09:11:16.582Z</time></trkpt><trkpt lat="37.92394" lon="16.0291917"><ele>14.0</ele><time>2026-04-04T09:11:17.582Z</time></trkpt><trkpt lat="37.9239267" lon="16.0294367"><ele>14.0</ele><time>2026-04-04T09:11:18.582Z</time></trkpt><trkpt lat="37.92393" lon="16.0296817"><ele>14.0</ele><time>2026-04-04T09:11:19.583Z</time></trkpt><trkpt lat="37.923945" lon="16.02993"><ele>14.0</ele><time>2026-04-04T09:11:20.582Z</time></trkpt><trkpt lat="37.923965" lon="16.03017"><ele>13.666666666666668</ele><time>2026-04-04T09:11:21.582Z</time></trkpt><trkpt lat="37.9239817" lon="16.0304167"><ele>13.333333333333332</ele><time>2026-04-04T09:11:22.582Z</time></trkpt><trkpt lat="37.9239967" lon="16.030675"><ele>13.0</ele><time>2026-04-04T09:11:23.582Z</time></trkpt><trkpt lat="37.9240167" lon="16.03093"><ele>13.0</ele><time>2026-04-04T09:11:24.583Z</time></trkpt><trkpt lat="37.9240317" lon="16.0311833"><ele>13.0</ele><time>2026-04-04T09:11:25.582Z</time></trkpt><trkpt lat="37.9240517" lon="16.0314417"><ele>13.0</ele><time>2026-04-04T09:11:26.582Z</time></trkpt><trkpt lat="37.9240783" lon="16.031705"><ele>12.666666666666666</ele><time>2026-04-04T09:11:27.583Z</time></trkpt><trkpt lat="37.9241217" lon="16.0319583"><ele>12.333333333333332</ele><time>2026-04-04T09:11:28.582Z</time></trkpt><trkpt lat="37.924175" lon="16.0322017"><ele>12.0</ele><time>2026-04-04T09:11:29.582Z</time></trkpt><trkpt lat="37.9242183" lon="16.0324533"><ele>11.666666666666666</ele><time>2026-04-04T09:11:30.582Z</time></trkpt><trkpt lat="37.9242317" lon="16.0327183"><ele>11.333333333333332</ele><time>2026-04-04T09:11:31.582Z</time></trkpt><trkpt lat="37.9242267" lon="16.0329683"><ele>11.0</ele><time>2026-04-04T09:11:32.582Z</time></trkpt><trkpt lat="37.9242133" lon="16.0332133"><ele>11.666666666666666</ele><time>2026-04-04T09:11:33.582Z</time></trkpt><trkpt lat="37.9242067" lon="16.0334683"><ele>12.333333333333332</ele><time>2026-04-04T09:11:34.582Z</time></trkpt><trkpt lat="37.924235" lon="16.0337083"><ele>13.0</ele><time>2026-04-04T09:11:35.582Z</time></trkpt><trkpt lat="37.92428" lon="16.03395"><ele>19.333333333333332</ele><time>2026-04-04T09:11:36.582Z</time></trkpt><trkpt lat="37.9243283" lon="16.0341917"><ele>25.666666666666664</ele><time>2026-04-04T09:11:37.582Z</time></trkpt><trkpt lat="37.9243667" lon="16.0344333"><ele>32.0</ele><time>2026-04-04T09:11:38.582Z</time></trkpt><trkpt lat="37.924425" lon="16.0346633"><ele>32.0</ele><time>2026-04-04T09:11:39.582Z</time></trkpt><trkpt lat="37.9244917" lon="16.0348917"><ele>32.0</ele><time>2026-04-04T09:11:40.583Z</time></trkpt><trkpt lat="37.924555" lon="16.0351217"><ele>32.0</ele><time>2026-04-04T09:11:41.582Z</time></trkpt><trkpt lat="37.9246183" lon="16.0353483"><ele>29.333333333333332</ele><time>2026-04-04T09:11:42.582Z</time></trkpt><trkpt lat="37.92469" lon="16.0355517"><ele>26.666666666666664</ele><time>2026-04-04T09:11:43.582Z</time></trkpt><trkpt lat="37.924765" lon="16.0357467"><ele>24.0</ele><time>2026-04-04T09:11:44.582Z</time></trkpt><trkpt lat="37.924805" lon="16.03595"><ele>20.666666666666668</ele><time>2026-04-04T09:11:45.582Z</time></trkpt><trkpt lat="37.9248133" lon="16.0361567"><ele>17.333333333333336</ele><time>2026-04-04T09:11:46.583Z</time></trkpt><trkpt lat="37.9248067" lon="16.036355"><ele>14.0</ele><time>2026-04-04T09:11:47.582Z</time></trkpt><trkpt lat="37.924795" lon="16.0365567"><ele>13.666666666666668</ele><time>2026-04-04T09:11:48.583Z</time></trkpt><trkpt lat="37.9247717" lon="16.036775"><ele>13.333333333333332</ele><time>2026-04-04T09:11:49.582Z</time></trkpt><trkpt lat="37.92475" lon="16.03699"><ele>13.0</ele><time>2026-04-04T09:11:50.582Z</time></trkpt><trkpt lat="37.9247317" lon="16.037205"><ele>13.0</ele><time>2026-04-04T09:11:51.583Z</time></trkpt><trkpt lat="37.9247083" lon="16.03744"><ele>13.0</ele><time>2026-04-04T09:11:52.582Z</time></trkpt><trkpt lat="37.9246867" lon="16.0376767"><ele>13.0</ele><time>2026-04-04T09:11:53.582Z</time></trkpt><trkpt lat="37.92467" lon="16.0379"><ele>13.333333333333332</ele><time>2026-04-04T09:11:54.582Z</time></trkpt><trkpt lat="37.9246483" lon="16.0381333"><ele>13.666666666666668</ele><time>2026-04-04T09:11:55.583Z</time></trkpt><trkpt lat="37.92463" lon="16.0383617"><ele>14.0</ele><time>2026-04-04T09:11:56.583Z</time></trkpt><trkpt lat="37.9246017" lon="16.0385817"><ele>14.0</ele><time>2026-04-04T09:11:57.582Z</time></trkpt><trkpt lat="37.9245817" lon="16.038805"><ele>14.0</ele><time>2026-04-04T09:11:58.583Z</time></trkpt><trkpt lat="37.9245583" lon="16.0390333"><ele>14.0</ele><time>2026-04-04T09:11:59.582Z</time></trkpt><trkpt lat="37.92453" lon="16.0392433"><ele>15.333333333333334</ele><time>2026-04-04T09:12:00.582Z</time></trkpt><trkpt lat="37.9245067" lon="16.03945"><ele>16.666666666666668</ele><time>2026-04-04T09:12:01.583Z</time></trkpt><trkpt lat="37.9244817" lon="16.0396567"><ele>18.0</ele><time>2026-04-04T09:12:02.582Z</time></trkpt><trkpt lat="37.9244567" lon="16.0398383"><ele>18.666666666666668</ele><time>2026-04-04T09:12:03.582Z</time></trkpt><trkpt lat="37.9244133" lon="16.0400217"><ele>19.333333333333336</ele><time>2026-04-04T09:12:04.582Z</time></trkpt><trkpt lat="37.9243417" lon="16.0402067"><ele>20.0</ele><time>2026-04-04T09:12:05.582Z</time></trkpt><trkpt lat="37.9242583" lon="16.0403683"><ele>17.666666666666668</ele><time>2026-04-04T09:12:06.582Z</time></trkpt><trkpt lat="37.9241783" lon="16.040535"><ele>15.333333333333332</ele><time>2026-04-04T09:12:07.582Z</time></trkpt><trkpt lat="37.92409" lon="16.0407183"><ele>13.0</ele><time>2026-04-04T09:12:08.582Z</time></trkpt><trkpt lat="37.9240117" lon="16.0408967"><ele>13.0</ele><time>2026-04-04T09:12:09.582Z</time></trkpt><trkpt lat="37.9239367" lon="16.0410783"><ele>13.0</ele><time>2026-04-04T09:12:10.582Z</time></trkpt><trkpt lat="37.92385" lon="16.04126"><ele>13.0</ele><time>2026-04-04T09:12:11.582Z</time></trkpt><trkpt lat="37.9237733" lon="16.0414333"><ele>13.0</ele><time>2026-04-04T09:12:12.582Z</time></trkpt><trkpt lat="37.9236833" lon="16.0416117"><ele>13.0</ele><time>2026-04-04T09:12:13.582Z</time></trkpt><trkpt lat="37.923595" lon="16.0417867"><ele>13.0</ele><time>2026-04-04T09:12:14.583Z</time></trkpt><trkpt lat="37.923515" lon="16.0419633"><ele>13.666666666666666</ele><time>2026-04-04T09:12:15.583Z</time></trkpt><trkpt lat="37.9234267" lon="16.0421483"><ele>14.333333333333332</ele><time>2026-04-04T09:12:16.582Z</time></trkpt><trkpt lat="37.9233583" lon="16.04233"><ele>15.0</ele><time>2026-04-04T09:12:17.582Z</time></trkpt><trkpt lat="37.9232967" lon="16.0425283"><ele>13.333333333333334</ele><time>2026-04-04T09:12:18.582Z</time></trkpt><trkpt lat="37.9232517" lon="16.042735"><ele>11.666666666666668</ele><time>2026-04-04T09:12:19.582Z</time></trkpt><trkpt lat="37.9232267" lon="16.042945"><ele>10.0</ele><time>2026-04-04T09:12:20.582Z</time></trkpt><trkpt lat="37.923215" lon="16.043155"><ele>9.666666666666668</ele><time>2026-04-04T09:12:21.582Z</time></trkpt><trkpt lat="37.9231983" lon="16.0433717"><ele>9.333333333333334</ele><time>2026-04-04T09:12:22.582Z</time></trkpt><trkpt lat="37.9231833" lon="16.04358"><ele>9.0</ele><time>2026-04-04T09:12:23.582Z</time></trkpt><trkpt lat="37.9231683" lon="16.0437917"><ele>9.0</ele><time>2026-04-04T09:12:24.582Z</time></trkpt><trkpt lat="37.9231483" lon="16.0440183"><ele>9.0</ele><time>2026-04-04T09:12:25.582Z</time></trkpt><trkpt lat="37.9231417" lon="16.04423"><ele>9.0</ele><time>2026-04-04T09:12:26.582Z</time></trkpt><trkpt lat="37.92313" lon="16.0444433"><ele>9.0</ele><time>2026-04-04T09:12:27.582Z</time></trkpt><trkpt lat="37.9231067" lon="16.044665"><ele>9.0</ele><time>2026-04-04T09:12:28.582Z</time></trkpt><trkpt lat="37.9231017" lon="16.0448867"><ele>9.0</ele><time>2026-04-04T09:12:29.582Z</time></trkpt><trkpt lat="37.9231383" lon="16.045105"><ele>10.333333333333332</ele><time>2026-04-04T09:12:30.582Z</time></trkpt><trkpt lat="37.9231917" lon="16.0453233"><ele>11.666666666666666</ele><time>2026-04-04T09:12:31.582Z</time></trkpt><trkpt lat="37.9232467" lon="16.0455433"><ele>13.0</ele><time>2026-04-04T09:12:32.582Z</time></trkpt><trkpt lat="37.92331" lon="16.045765"><ele>12.333333333333332</ele><time>2026-04-04T09:12:33.583Z</time></trkpt><trkpt lat="37.92338" lon="16.0459767"><ele>11.666666666666666</ele><time>2026-04-04T09:12:34.582Z</time></trkpt><trkpt lat="37.92345" lon="16.0461933"><ele>11.0</ele><time>2026-04-04T09:12:35.582Z</time></trkpt><trkpt lat="37.9235217" lon="16.0464133"><ele>13.333333333333332</ele><time>2026-04-04T09:12:36.582Z</time></trkpt><trkpt lat="37.9235867" lon="16.0466433"><ele>15.666666666666666</ele><time>2026-04-04T09:12:37.582Z</time></trkpt><trkpt lat="37.923665" lon="16.0468533"><ele>18.0</ele><time>2026-04-04T09:12:38.582Z</time></trkpt><trkpt lat="37.923735" lon="16.0470733"><ele>18.0</ele><time>2026-04-04T09:12:39.582Z</time></trkpt><trkpt lat="37.923795" lon="16.047305"><ele>18.0</ele><time>2026-04-04T09:12:40.582Z</time></trkpt><trkpt lat="37.923845" lon="16.04754"><ele>18.0</ele><time>2026-04-04T09:12:41.582Z</time></trkpt><trkpt lat="37.92389" lon="16.047755"><ele>17.0</ele><time>2026-04-04T09:12:42.583Z</time></trkpt><trkpt lat="37.9239333" lon="16.047985"><ele>16.0</ele><time>2026-04-04T09:12:43.583Z</time></trkpt><trkpt lat="37.9239683" lon="16.0482183"><ele>15.0</ele><time>2026-04-04T09:12:44.582Z</time></trkpt><trkpt lat="37.9240117" lon="16.04844"><ele>13.666666666666666</ele><time>2026-04-04T09:12:45.582Z</time></trkpt><trkpt lat="37.924055" lon="16.048665"><ele>12.333333333333332</ele><time>2026-04-04T09:12:46.583Z</time></trkpt><trkpt lat="37.92409" lon="16.0488917"><ele>11.0</ele><time>2026-04-04T09:12:47.583Z</time></trkpt><trkpt lat="37.9241233" lon="16.0491183"><ele>10.333333333333332</ele><time>2026-04-04T09:12:48.582Z</time></trkpt><trkpt lat="37.924165" lon="16.0493383"><ele>9.666666666666666</ele><time>2026-04-04T09:12:49.582Z</time></trkpt><trkpt lat="37.9242067" lon="16.04957"><ele>9.0</ele><time>2026-04-04T09:12:50.582Z</time></trkpt><trkpt lat="37.9242317" lon="16.04981"><ele>12.333333333333332</ele><time>2026-04-04T09:12:51.582Z</time></trkpt><trkpt lat="37.9242617" lon="16.05005"><ele>15.666666666666666</ele><time>2026-04-04T09:12:52.582Z</time></trkpt><trkpt lat="37.9242983" lon="16.0502833"><ele>19.0</ele><time>2026-04-04T09:12:53.582Z</time></trkpt><trkpt lat="37.9243117" lon="16.050525"><ele>19.0</ele><time>2026-04-04T09:12:54.582Z</time></trkpt><trkpt lat="37.9243167" lon="16.0507767"><ele>19.0</ele><time>2026-04-04T09:12:55.582Z</time></trkpt><trkpt lat="37.9243183" lon="16.05102"><ele>19.0</ele><time>2026-04-04T09:12:56.582Z</time></trkpt><trkpt lat="37.9243267" lon="16.0512633"><ele>20.0</ele><time>2026-04-04T09:12:57.582Z</time></trkpt><trkpt lat="37.9243267" lon="16.0515183"><ele>21.0</ele><time>2026-04-04T09:12:58.582Z</time></trkpt><trkpt lat="37.9243317" lon="16.0517717"><ele>22.0</ele><time>2026-04-04T09:12:59.583Z</time></trkpt><trkpt lat="37.9243483" lon="16.0520167"><ele>22.333333333333332</ele><time>2026-04-04T09:13:00.582Z</time></trkpt><trkpt lat="37.92437" lon="16.0522683"><ele>22.666666666666668</ele><time>2026-04-04T09:13:01.583Z</time></trkpt><trkpt lat="37.9243883" lon="16.052525"><ele>23.0</ele><time>2026-04-04T09:13:02.582Z</time></trkpt><trkpt lat="37.9244333" lon="16.0527667"><ele>21.333333333333336</ele><time>2026-04-04T09:13:03.582Z</time></trkpt><trkpt lat="37.9244617" lon="16.0530217"><ele>19.666666666666668</ele><time>2026-04-04T09:13:04.583Z</time></trkpt><trkpt lat="37.9244867" lon="16.0532833"><ele>18.0</ele><time>2026-04-04T09:13:05.582Z</time></trkpt><trkpt lat="37.9245267" lon="16.0535317"><ele>18.333333333333332</ele><time>2026-04-04T09:13:06.582Z</time></trkpt><trkpt lat="37.9245567" lon="16.0537867"><ele>18.666666666666664</ele><time>2026-04-04T09:13:07.582Z</time></trkpt><trkpt lat="37.92458" lon="16.0540433"><ele>19.0</ele><time>2026-04-04T09:13:08.582Z</time></trkpt><trkpt lat="37.9246033" lon="16.0542967"><ele>19.0</ele><time>2026-04-04T09:13:09.582Z</time></trkpt><trkpt lat="37.9246133" lon="16.0545617"><ele>19.0</ele><time>2026-04-04T09:13:10.582Z</time></trkpt><trkpt lat="37.9246167" lon="16.054835"><ele>19.0</ele><time>2026-04-04T09:13:11.582Z</time></trkpt><trkpt lat="37.9246317" lon="16.05509"><ele>22.666666666666664</ele><time>2026-04-04T09:13:12.582Z</time></trkpt><trkpt lat="37.924645" lon="16.0553517"><ele>26.333333333333332</ele><time>2026-04-04T09:13:13.582Z</time></trkpt><trkpt lat="37.92466" lon="16.0556133"><ele>30.0</ele><time>2026-04-04T09:13:14.582Z</time></trkpt><trkpt lat="37.9246983" lon="16.055865"><ele>30.0</ele><time>2026-04-04T09:13:15.582Z</time></trkpt><trkpt lat="37.92473" lon="16.0561217"><ele>30.0</ele><time>2026-04-04T09:13:16.582Z</time></trkpt><trkpt lat="37.9247533" lon="16.05638"><ele>30.0</ele><time>2026-04-04T09:13:17.582Z</time></trkpt><trkpt lat="37.9247983" lon="16.0566267"><ele>27.666666666666668</ele><time>2026-04-04T09:13:18.582Z</time></trkpt><trkpt lat="37.92483" lon="16.0568683"><ele>25.333333333333336</ele><time>2026-04-04T09:13:19.582Z</time></trkpt><trkpt lat="37.92486" lon="16.05712"><ele>23.0</ele><time>2026-04-04T09:13:20.583Z</time></trkpt><trkpt lat="37.924895" lon="16.05737"><ele>21.666666666666668</ele><time>2026-04-04T09:13:21.582Z</time></trkpt><trkpt lat="37.9249317" lon="16.0576167"><ele>20.333333333333332</ele><time>2026-04-04T09:13:22.582Z</time></trkpt><trkpt lat="37.9249567" lon="16.0578667"><ele>19.0</ele><time>2026-04-04T09:13:23.583Z</time></trkpt><trkpt lat="37.9249817" lon="16.0581117"><ele>18.0</ele><time>2026-04-04T09:13:24.583Z</time></trkpt><trkpt lat="37.9250167" lon="16.058355"><ele>17.0</ele><time>2026-04-04T09:13:25.584Z</time></trkpt><trkpt lat="37.9250367" lon="16.058605"><ele>16.0</ele><time>2026-04-04T09:13:26.583Z</time></trkpt><trkpt lat="37.9250467" lon="16.05886"><ele>26.0</ele><time>2026-04-04T09:13:27.583Z</time></trkpt><trkpt lat="37.9250733" lon="16.059095"><ele>36.0</ele><time>2026-04-04T09:13:28.583Z</time></trkpt><trkpt lat="37.9250883" lon="16.0593417"><ele>46.0</ele><time>2026-04-04T09:13:29.583Z</time></trkpt><trkpt lat="37.9250967" lon="16.059595"><ele>46.0</ele><time>2026-04-04T09:13:30.584Z</time></trkpt><trkpt lat="37.9251067" lon="16.0598383"><ele>46.0</ele><time>2026-04-04T09:13:31.583Z</time></trkpt><trkpt lat="37.9251083" lon="16.0600783"><ele>46.0</ele><time>2026-04-04T09:13:32.583Z</time></trkpt><trkpt lat="37.9251" lon="16.060325"><ele>43.0</ele><time>2026-04-04T09:13:33.584Z</time></trkpt><trkpt lat="37.925105" lon="16.0605633"><ele>40.0</ele><time>2026-04-04T09:13:34.584Z</time></trkpt><trkpt lat="37.9251167" lon="16.06081"><ele>37.0</ele><time>2026-04-04T09:13:35.583Z</time></trkpt><trkpt lat="37.92514" lon="16.0610617"><ele>35.333333333333336</ele><time>2026-04-04T09:13:36.583Z</time></trkpt><trkpt lat="37.925185" lon="16.0612983"><ele>33.666666666666664</ele><time>2026-04-04T09:13:37.583Z</time></trkpt><trkpt lat="37.9252417" lon="16.0615283"><ele>32.0</ele><time>2026-04-04T09:13:38.583Z</time></trkpt><trkpt lat="37.9253017" lon="16.0617617"><ele>26.666666666666664</ele><time>2026-04-04T09:13:39.584Z</time></trkpt><trkpt lat="37.9253767" lon="16.061985"><ele>21.333333333333332</ele><time>2026-04-04T09:13:40.583Z</time></trkpt><trkpt lat="37.9254683" lon="16.06221"><ele>16.0</ele><time>2026-04-04T09:13:41.583Z</time></trkpt><trkpt lat="37.9255567" lon="16.06244"><ele>13.0</ele><time>2026-04-04T09:13:42.583Z</time></trkpt><trkpt lat="37.9256517" lon="16.0626617"><ele>10.0</ele><time>2026-04-04T09:13:43.583Z</time></trkpt><trkpt lat="37.92576" lon="16.0628617"><ele>7.0</ele><time>2026-04-04T09:13:44.583Z</time></trkpt><trkpt lat="37.9258767" lon="16.06306"><ele>7.0</ele><time>2026-04-04T09:13:45.583Z</time></trkpt><trkpt lat="37.926" lon="16.0632533"><ele>7.0</ele><time>2026-04-04T09:13:46.583Z</time></trkpt><trkpt lat="37.9261367" lon="16.0634283"><ele>7.0</ele><time>2026-04-04T09:13:47.583Z</time></trkpt><trkpt lat="37.926275" lon="16.0635883"><ele>6.333333333333334</ele><time>2026-04-04T09:13:48.583Z</time></trkpt><trkpt lat="37.92642" lon="16.0637217"><ele>5.666666666666667</ele><time>2026-04-04T09:13:49.583Z</time></trkpt><trkpt lat="37.92656" lon="16.063855"><ele>5.0</ele><time>2026-04-04T09:13:50.583Z</time></trkpt><trkpt lat="37.9266917" lon="16.0639817"><ele>6.75</ele><time>2026-04-04T09:13:51.583Z</time></trkpt><trkpt lat="37.9268117" lon="16.0641167"><ele>8.5</ele><time>2026-04-04T09:13:52.583Z</time></trkpt><trkpt lat="37.92692" lon="16.0642483"><ele>10.25</ele><time>2026-04-04T09:13:53.583Z</time></trkpt><trkpt lat="37.927015" lon="16.0643683"><ele>12.0</ele><time>2026-04-04T09:13:54.583Z</time></trkpt><trkpt lat="37.927095" lon="16.0644917"><ele>12.0</ele><time>2026-04-04T09:13:55.583Z</time></trkpt><trkpt lat="37.9271683" lon="16.064635"><ele>12.0</ele><time>2026-04-04T09:13:56.583Z</time></trkpt><trkpt lat="37.927255" lon="16.0647617"><ele>12.0</ele><time>2026-04-04T09:13:57.584Z</time></trkpt><trkpt lat="37.927355" lon="16.0648767"><ele>12.0</ele><time>2026-04-04T09:13:58.584Z</time></trkpt><trkpt lat="37.927465" lon="16.06499"><ele>14.5</ele><time>2026-04-04T09:13:59.583Z</time></trkpt><trkpt lat="37.927585" lon="16.0650817"><ele>17.0</ele><time>2026-04-04T09:14:00.583Z</time></trkpt><trkpt lat="37.9277033" lon="16.0651783"><ele>19.5</ele><time>2026-04-04T09:14:01.583Z</time></trkpt><trkpt lat="37.927825" lon="16.0652717"><ele>22.0</ele><time>2026-04-04T09:14:02.583Z</time></trkpt><trkpt lat="37.9279467" lon="16.0653567"><ele>22.0</ele><time>2026-04-04T09:14:03.583Z</time></trkpt><trkpt lat="37.9280717" lon="16.06546"><ele>22.0</ele><time>2026-04-04T09:14:04.583Z</time></trkpt><trkpt lat="37.9281967" lon="16.0655433"><ele>22.0</ele><time>2026-04-04T09:14:05.584Z</time></trkpt><trkpt lat="37.9283133" lon="16.0656283"><ele>22.0</ele><time>2026-04-04T09:14:06.584Z</time></trkpt><trkpt lat="37.9284383" lon="16.06571"><ele>20.25</ele><time>2026-04-04T09:14:07.583Z</time></trkpt><trkpt lat="37.92856" lon="16.06579"><ele>18.5</ele><time>2026-04-04T09:14:08.584Z</time></trkpt><trkpt lat="37.9286883" lon="16.065865"><ele>16.75</ele><time>2026-04-04T09:14:09.583Z</time></trkpt><trkpt lat="37.92881" lon="16.065945"><ele>15.0</ele><time>2026-04-04T09:14:10.583Z</time></trkpt><trkpt lat="37.9289367" lon="16.06603"><ele>15.0</ele><time>2026-04-04T09:14:11.583Z</time></trkpt><trkpt lat="37.9290767" lon="16.0661117"><ele>15.0</ele><time>2026-04-04T09:14:12.583Z</time></trkpt><trkpt lat="37.929215" lon="16.0661933"><ele>15.0</ele><time>2026-04-04T09:14:13.583Z</time></trkpt><trkpt lat="37.9293583" lon="16.06628"><ele>17.666666666666668</ele><time>2026-04-04T09:14:14.583Z</time></trkpt><trkpt lat="37.9295067" lon="16.0663733"><ele>20.333333333333336</ele><time>2026-04-04T09:14:15.583Z</time></trkpt><trkpt lat="37.9296517" lon="16.066475"><ele>23.0</ele><time>2026-04-04T09:14:16.584Z</time></trkpt><trkpt lat="37.9298" lon="16.0665767"><ele>21.0</ele><time>2026-04-04T09:14:17.583Z</time></trkpt><trkpt lat="37.92995" lon="16.0666767"><ele>19.0</ele><time>2026-04-04T09:14:18.583Z</time></trkpt><trkpt lat="37.9301033" lon="16.066785"><ele>17.0</ele><time>2026-04-04T09:14:19.584Z</time></trkpt><trkpt lat="37.93025" lon="16.0668917"><ele>17.0</ele><time>2026-04-04T09:14:20.583Z</time></trkpt><trkpt lat="37.9304" lon="16.0669983"><ele>17.0</ele><time>2026-04-04T09:14:21.583Z</time></trkpt><trkpt lat="37.9305467" lon="16.0670983"><ele>17.0</ele><time>2026-04-04T09:14:22.583Z</time></trkpt><trkpt lat="37.930695" lon="16.0671983"><ele>17.0</ele><time>2026-04-04T09:14:23.583Z</time></trkpt><trkpt lat="37.9308467" lon="16.0673117"><ele>17.0</ele><time>2026-04-04T09:14:24.583Z</time></trkpt><trkpt lat="37.93099" lon="16.0674183"><ele>17.0</ele><time>2026-04-04T09:14:25.583Z</time></trkpt><trkpt lat="37.9311367" lon="16.06752"><ele>15.333333333333334</ele><time>2026-04-04T09:14:26.583Z</time></trkpt><trkpt lat="37.9312717" lon="16.067625"><ele>13.666666666666668</ele><time>2026-04-04T09:14:27.583Z</time></trkpt><trkpt lat="37.9314117" lon="16.0677467"><ele>12.0</ele><time>2026-04-04T09:14:28.583Z</time></trkpt><trkpt lat="37.9315467" lon="16.067875"><ele>12.0</ele><time>2026-04-04T09:14:29.584Z</time></trkpt><trkpt lat="37.9316733" lon="16.06801"><ele>12.0</ele><time>2026-04-04T09:14:30.583Z</time></trkpt><trkpt lat="37.9318083" lon="16.06815"><ele>12.0</ele><time>2026-04-04T09:14:31.583Z</time></trkpt><trkpt lat="37.9319283" lon="16.0683"><ele>11.666666666666666</ele><time>2026-04-04T09:14:32.584Z</time></trkpt><trkpt lat="37.9320517" lon="16.06845"><ele>11.333333333333332</ele><time>2026-04-04T09:14:33.583Z</time></trkpt><trkpt lat="37.9321667" lon="16.0685967"><ele>11.0</ele><time>2026-04-04T09:14:34.583Z</time></trkpt><trkpt lat="37.9322883" lon="16.068755"><ele>11.0</ele><time>2026-04-04T09:14:35.583Z</time></trkpt><trkpt lat="37.9324133" lon="16.0689267"><ele>11.0</ele><time>2026-04-04T09:14:36.583Z</time></trkpt><trkpt lat="37.93255" lon="16.0690983"><ele>11.0</ele><time>2026-04-04T09:14:37.583Z</time></trkpt><trkpt lat="37.9326817" lon="16.0692683"><ele>10.666666666666666</ele><time>2026-04-04T09:14:38.584Z</time></trkpt><trkpt lat="37.9328217" lon="16.0694467"><ele>10.333333333333334</ele><time>2026-04-04T09:14:39.583Z</time></trkpt><trkpt lat="37.9329567" lon="16.0696267"><ele>10.0</ele><time>2026-04-04T09:14:40.584Z</time></trkpt><trkpt lat="37.9331033" lon="16.0698067"><ele>9.333333333333334</ele><time>2026-04-04T09:14:41.583Z</time></trkpt><trkpt lat="37.9332433" lon="16.0699817"><ele>8.666666666666666</ele><time>2026-04-04T09:14:42.584Z</time></trkpt><trkpt lat="37.93338" lon="16.07017"><ele>8.0</ele><time>2026-04-04T09:14:43.583Z</time></trkpt><trkpt lat="37.9335167" lon="16.0703533"><ele>7.666666666666666</ele><time>2026-04-04T09:14:44.583Z</time></trkpt><trkpt lat="37.933655" lon="16.0705383"><ele>7.333333333333334</ele><time>2026-04-04T09:14:45.583Z</time></trkpt><trkpt lat="37.933795" lon="16.0707283"><ele>7.0</ele><time>2026-04-04T09:14:46.583Z</time></trkpt><trkpt lat="37.93394" lon="16.07091"><ele>7.0</ele><time>2026-04-04T09:14:47.583Z</time></trkpt><trkpt lat="37.9340883" lon="16.071085"><ele>7.0</ele><time>2026-04-04T09:14:48.583Z</time></trkpt><trkpt lat="37.934235" lon="16.07126"><ele>7.0</ele><time>2026-04-04T09:14:49.584Z</time></trkpt><trkpt lat="37.9343817" lon="16.0714367"><ele>8.0</ele><time>2026-04-04T09:14:50.583Z</time></trkpt><trkpt lat="37.93452" lon="16.0716167"><ele>9.0</ele><time>2026-04-04T09:14:51.583Z</time></trkpt><trkpt lat="37.93466" lon="16.0718"><ele>10.0</ele><time>2026-04-04T09:14:52.583Z</time></trkpt><trkpt lat="37.9348033" lon="16.07198"><ele>10.0</ele><time>2026-04-04T09:14:53.583Z</time></trkpt><trkpt lat="37.9349483" lon="16.07216"><ele>10.0</ele><time>2026-04-04T09:14:54.583Z</time></trkpt><trkpt lat="37.9350867" lon="16.07235"><ele>10.0</ele><time>2026-04-04T09:14:55.584Z</time></trkpt><trkpt lat="37.935225" lon="16.0725383"><ele>10.0</ele><time>2026-04-04T09:14:56.583Z</time></trkpt><trkpt lat="37.9353633" lon="16.0727267"><ele>10.0</ele><time>2026-04-04T09:14:57.583Z</time></trkpt><trkpt lat="37.9355033" lon="16.0729083"><ele>10.0</ele><time>2026-04-04T09:14:58.583Z</time></trkpt><trkpt lat="37.9356383" lon="16.0730883"><ele>10.666666666666668</ele><time>2026-04-04T09:14:59.584Z</time></trkpt><trkpt lat="37.9357717" lon="16.0732783"><ele>11.333333333333334</ele><time>2026-04-04T09:15:00.584Z</time></trkpt><trkpt lat="37.9359083" lon="16.07346"><ele>12.0</ele><time>2026-04-04T09:15:01.583Z</time></trkpt><trkpt lat="37.9360467" lon="16.07364"><ele>12.0</ele><time>2026-04-04T09:15:02.583Z</time></trkpt><trkpt lat="37.9361833" lon="16.0738233"><ele>12.0</ele><time>2026-04-04T09:15:03.583Z</time></trkpt><trkpt lat="37.936325" lon="16.0739983"><ele>12.0</ele><time>2026-04-04T09:15:04.583Z</time></trkpt><trkpt lat="37.9364617" lon="16.0741783"><ele>13.0</ele><time>2026-04-04T09:15:05.583Z</time></trkpt><trkpt lat="37.9366017" lon="16.0743633"><ele>14.0</ele><time>2026-04-04T09:15:06.583Z</time></trkpt><trkpt lat="37.9367433" lon="16.07455"><ele>15.0</ele><time>2026-04-04T09:15:07.583Z</time></trkpt><trkpt lat="37.9368917" lon="16.0747267"><ele>15.0</ele><time>2026-04-04T09:15:08.584Z</time></trkpt><trkpt lat="37.9370383" lon="16.0749067"><ele>15.0</ele><time>2026-04-04T09:15:09.583Z</time></trkpt><trkpt lat="37.9371783" lon="16.0750917"><ele>15.0</ele><time>2026-04-04T09:15:10.583Z</time></trkpt><trkpt lat="37.9373133" lon="16.0752867"><ele>15.0</ele><time>2026-04-04T09:15:11.583Z</time></trkpt><trkpt lat="37.9374567" lon="16.0754683"><ele>15.0</ele><time>2026-04-04T09:15:12.583Z</time></trkpt><trkpt lat="37.937605" lon="16.0756533"><ele>15.0</ele><time>2026-04-04T09:15:13.583Z</time></trkpt><trkpt lat="37.9377433" lon="16.0758383"><ele>14.333333333333332</ele><time>2026-04-04T09:15:14.583Z</time></trkpt><trkpt lat="37.93789" lon="16.07602"><ele>13.666666666666666</ele><time>2026-04-04T09:15:15.583Z</time></trkpt><trkpt lat="37.9380333" lon="16.076205"><ele>13.0</ele><time>2026-04-04T09:15:16.583Z</time></trkpt><trkpt lat="37.9381817" lon="16.07639"><ele>13.0</ele><time>2026-04-04T09:15:17.583Z</time></trkpt><trkpt lat="37.9383233" lon="16.07658"><ele>13.0</ele><time>2026-04-04T09:15:18.583Z</time></trkpt><trkpt lat="37.9384683" lon="16.0767667"><ele>13.0</ele><time>2026-04-04T09:15:19.583Z</time></trkpt><trkpt lat="37.9386233" lon="16.0769467"><ele>14.333333333333332</ele><time>2026-04-04T09:15:20.583Z</time></trkpt><trkpt lat="37.9387867" lon="16.07712"><ele>15.666666666666668</ele><time>2026-04-04T09:15:21.584Z</time></trkpt><trkpt lat="37.9389467" lon="16.0772917"><ele>17.0</ele><time>2026-04-04T09:15:22.583Z</time></trkpt><trkpt lat="37.939105" lon="16.0774583"><ele>15.0</ele><time>2026-04-04T09:15:23.583Z</time></trkpt><trkpt lat="37.939275" lon="16.0776267"><ele>13.0</ele><time>2026-04-04T09:15:24.584Z</time></trkpt><trkpt lat="37.9394483" lon="16.0777817"><ele>11.0</ele><time>2026-04-04T09:15:25.583Z</time></trkpt><trkpt lat="37.93962" lon="16.0779467"><ele>11.0</ele><time>2026-04-04T09:15:26.584Z</time></trkpt><trkpt lat="37.939785" lon="16.07812"><ele>11.0</ele><time>2026-04-04T09:15:27.583Z</time></trkpt><trkpt lat="37.9399617" lon="16.078285"><ele>11.0</ele><time>2026-04-04T09:15:28.583Z</time></trkpt><trkpt lat="37.940135" lon="16.0784517"><ele>10.333333333333332</ele><time>2026-04-04T09:15:29.583Z</time></trkpt><trkpt lat="37.940305" lon="16.0786233"><ele>9.666666666666666</ele><time>2026-04-04T09:15:30.583Z</time></trkpt><trkpt lat="37.9404733" lon="16.0787867"><ele>9.0</ele><time>2026-04-04T09:15:31.583Z</time></trkpt><trkpt lat="37.9406467" lon="16.0789517"><ele>9.333333333333334</ele><time>2026-04-04T09:15:32.583Z</time></trkpt><trkpt lat="37.9408167" lon="16.07912"><ele>9.666666666666668</ele><time>2026-04-04T09:15:33.583Z</time></trkpt><trkpt lat="37.9409917" lon="16.07929"><ele>10.0</ele><time>2026-04-04T09:15:34.583Z</time></trkpt><trkpt lat="37.9411667" lon="16.079455"><ele>10.0</ele><time>2026-04-04T09:15:35.584Z</time></trkpt><trkpt lat="37.9413333" lon="16.0796283"><ele>10.0</ele><time>2026-04-04T09:15:36.583Z</time></trkpt><trkpt lat="37.9414983" lon="16.07981"><ele>10.0</ele><time>2026-04-04T09:15:37.583Z</time></trkpt><trkpt lat="37.9416617" lon="16.0799933"><ele>10.0</ele><time>2026-04-04T09:15:38.583Z</time></trkpt><trkpt lat="37.9418217" lon="16.08018"><ele>10.0</ele><time>2026-04-04T09:15:39.583Z</time></trkpt><trkpt lat="37.9419783" lon="16.0803717"><ele>10.0</ele><time>2026-04-04T09:15:40.583Z</time></trkpt><trkpt lat="37.94213" lon="16.080565"><ele>10.0</ele><time>2026-04-04T09:15:41.584Z</time></trkpt><trkpt lat="37.942285" lon="16.0807583"><ele>10.0</ele><time>2026-04-04T09:15:42.583Z</time></trkpt><trkpt lat="37.9424367" lon="16.0809533"><ele>10.0</ele><time>2026-04-04T09:15:43.583Z</time></trkpt><trkpt lat="37.9425967" lon="16.0811383"><ele>10.666666666666668</ele><time>2026-04-04T09:15:44.583Z</time></trkpt><trkpt lat="37.9427517" lon="16.0813283"><ele>11.333333333333334</ele><time>2026-04-04T09:15:45.583Z</time></trkpt><trkpt lat="37.9429067" lon="16.0815183"><ele>12.0</ele><time>2026-04-04T09:15:46.583Z</time></trkpt><trkpt lat="37.9430633" lon="16.0817083"><ele>12.333333333333332</ele><time>2026-04-04T09:15:47.583Z</time></trkpt><trkpt lat="37.9432117" lon="16.0819017"><ele>12.666666666666666</ele><time>2026-04-04T09:15:48.583Z</time></trkpt><trkpt lat="37.9433617" lon="16.082095"><ele>13.0</ele><time>2026-04-04T09:15:49.583Z</time></trkpt><trkpt lat="37.943515" lon="16.082275"><ele>12.0</ele><time>2026-04-04T09:15:50.583Z</time></trkpt><trkpt lat="37.9436633" lon="16.0824717"><ele>11.0</ele><time>2026-04-04T09:15:51.583Z</time></trkpt><trkpt lat="37.94382" lon="16.082665"><ele>10.0</ele><time>2026-04-04T09:15:52.583Z</time></trkpt><trkpt lat="37.94399" lon="16.0828267"><ele>10.0</ele><time>2026-04-04T09:15:53.583Z</time></trkpt><trkpt lat="37.944145" lon="16.08301"><ele>10.0</ele><time>2026-04-04T09:15:54.584Z</time></trkpt><trkpt lat="37.9443083" lon="16.0831733"><ele>10.0</ele><time>2026-04-04T09:15:55.583Z</time></trkpt><trkpt lat="37.9444817" lon="16.0833183"><ele>9.333333333333334</ele><time>2026-04-04T09:15:56.583Z</time></trkpt><trkpt lat="37.944655" lon="16.0834683"><ele>8.666666666666666</ele><time>2026-04-04T09:15:57.584Z</time></trkpt><trkpt lat="37.9448333" lon="16.08361"><ele>8.0</ele><time>2026-04-04T09:15:58.583Z</time></trkpt><trkpt lat="37.94502" lon="16.0837433"><ele>8.0</ele><time>2026-04-04T09:15:59.583Z</time></trkpt><trkpt lat="37.9451983" lon="16.0838867"><ele>8.0</ele><time>2026-04-04T09:16:00.583Z</time></trkpt><trkpt lat="37.9453767" lon="16.08403"><ele>8.0</ele><time>2026-04-04T09:16:01.583Z</time></trkpt><trkpt lat="37.9455533" lon="16.0841783"><ele>8.0</ele><time>2026-04-04T09:16:02.583Z</time></trkpt><trkpt lat="37.945735" lon="16.0843283"><ele>8.0</ele><time>2026-04-04T09:16:03.583Z</time></trkpt><trkpt lat="37.945925" lon="16.0844667"><ele>8.0</ele><time>2026-04-04T09:16:04.583Z</time></trkpt><trkpt lat="37.946105" lon="16.08462"><ele>8.0</ele><time>2026-04-04T09:16:05.583Z</time></trkpt><trkpt lat="37.9462867" lon="16.084765"><ele>8.0</ele><time>2026-04-04T09:16:06.583Z</time></trkpt><trkpt lat="37.9464633" lon="16.0849133"><ele>8.0</ele><time>2026-04-04T09:16:07.584Z</time></trkpt><trkpt lat="37.9466433" lon="16.0850617"><ele>8.333333333333332</ele><time>2026-04-04T09:16:08.583Z</time></trkpt><trkpt lat="37.9468233" lon="16.085215"><ele>8.666666666666666</ele><time>2026-04-04T09:16:09.583Z</time></trkpt><trkpt lat="37.9470017" lon="16.08537"><ele>9.0</ele><time>2026-04-04T09:16:10.583Z</time></trkpt><trkpt lat="37.9471833" lon="16.0855133"><ele>9.0</ele><time>2026-04-04T09:16:11.583Z</time></trkpt><trkpt lat="37.9473633" lon="16.085655"><ele>9.0</ele><time>2026-04-04T09:16:12.583Z</time></trkpt><trkpt lat="37.94754" lon="16.0857983"><ele>9.0</ele><time>2026-04-04T09:16:13.584Z</time></trkpt><trkpt lat="37.9477183" lon="16.08594"><ele>9.0</ele><time>2026-04-04T09:16:14.584Z</time></trkpt><trkpt lat="37.947895" lon="16.0860867"><ele>9.0</ele><time>2026-04-04T09:16:15.583Z</time></trkpt><trkpt lat="37.9480683" lon="16.0862333"><ele>9.0</ele><time>2026-04-04T09:16:16.583Z</time></trkpt><trkpt lat="37.9482417" lon="16.086375"><ele>8.666666666666666</ele><time>2026-04-04T09:16:17.584Z</time></trkpt><trkpt lat="37.9484167" lon="16.086515"><ele>8.333333333333332</ele><time>2026-04-04T09:16:18.583Z</time></trkpt><trkpt lat="37.9485917" lon="16.0866633"><ele>8.0</ele><time>2026-04-04T09:16:19.583Z</time></trkpt><trkpt lat="37.9487667" lon="16.0868033"><ele>7.666666666666666</ele><time>2026-04-04T09:16:20.584Z</time></trkpt><trkpt lat="37.9489433" lon="16.0869483"><ele>7.333333333333334</ele><time>2026-04-04T09:16:21.583Z</time></trkpt><trkpt lat="37.94911" lon="16.08708"><ele>7.0</ele><time>2026-04-04T09:16:22.583Z</time></trkpt><trkpt lat="37.949285" lon="16.0872233"><ele>7.666666666666667</ele><time>2026-04-04T09:16:23.583Z</time></trkpt><trkpt lat="37.949465" lon="16.0873633"><ele>8.333333333333334</ele><time>2026-04-04T09:16:24.583Z</time></trkpt><trkpt lat="37.9496383" lon="16.0875083"><ele>9.0</ele><time>2026-04-04T09:16:25.583Z</time></trkpt><trkpt lat="37.9498067" lon="16.0876533"><ele>9.0</ele><time>2026-04-04T09:16:26.583Z</time></trkpt><trkpt lat="37.9499783" lon="16.0877967"><ele>9.0</ele><time>2026-04-04T09:16:27.583Z</time></trkpt><trkpt lat="37.9501533" lon="16.0879417"><ele>9.0</ele><time>2026-04-04T09:16:28.583Z</time></trkpt><trkpt lat="37.95033" lon="16.088085"><ele>10.0</ele><time>2026-04-04T09:16:29.583Z</time></trkpt><trkpt lat="37.9505083" lon="16.0882283"><ele>11.0</ele><time>2026-04-04T09:16:30.584Z</time></trkpt><trkpt lat="37.950685" lon="16.088375"><ele>12.0</ele><time>2026-04-04T09:16:31.583Z</time></trkpt><trkpt lat="37.9508633" lon="16.0885167"><ele>12.0</ele><time>2026-04-04T09:16:32.583Z</time></trkpt><trkpt lat="37.95104" lon="16.0886683"><ele>12.0</ele><time>2026-04-04T09:16:33.583Z</time></trkpt><trkpt lat="37.9512167" lon="16.0888233"><ele>12.0</ele><time>2026-04-04T09:16:34.583Z</time></trkpt><trkpt lat="37.951395" lon="16.0889767"><ele>11.333333333333334</ele><time>2026-04-04T09:16:35.583Z</time></trkpt><trkpt lat="37.9515783" lon="16.0891317"><ele>10.666666666666668</ele><time>2026-04-04T09:16:36.583Z</time></trkpt><trkpt lat="37.9517617" lon="16.08929"><ele>10.0</ele><time>2026-04-04T09:16:37.583Z</time></trkpt><trkpt lat="37.9519383" lon="16.0894583"><ele>10.333333333333334</ele><time>2026-04-04T09:16:38.583Z</time></trkpt><trkpt lat="37.9521133" lon="16.089615"><ele>10.666666666666666</ele><time>2026-04-04T09:16:39.583Z</time></trkpt><trkpt lat="37.952285" lon="16.08978"><ele>11.0</ele><time>2026-04-04T09:16:40.583Z</time></trkpt><trkpt lat="37.9524533" lon="16.0899517"><ele>13.0</ele><time>2026-04-04T09:16:41.583Z</time></trkpt><trkpt lat="37.95262" lon="16.0901233"><ele>15.0</ele><time>2026-04-04T09:16:42.583Z</time></trkpt><trkpt lat="37.95278" lon="16.0903"><ele>17.0</ele><time>2026-04-04T09:16:43.583Z</time></trkpt><trkpt lat="37.9529367" lon="16.090475"><ele>17.0</ele><time>2026-04-04T09:16:44.584Z</time></trkpt><trkpt lat="37.9530967" lon="16.090645"><ele>17.0</ele><time>2026-04-04T09:16:45.584Z</time></trkpt><trkpt lat="37.95325" lon="16.0908183"><ele>17.0</ele><time>2026-04-04T09:16:46.584Z</time></trkpt><trkpt lat="37.953405" lon="16.0909867"><ele>16.0</ele><time>2026-04-04T09:16:47.583Z</time></trkpt><trkpt lat="37.9535567" lon="16.09116"><ele>15.0</ele><time>2026-04-04T09:16:48.583Z</time></trkpt><trkpt lat="37.9537067" lon="16.0913367"><ele>14.0</ele><time>2026-04-04T09:16:49.584Z</time></trkpt><trkpt lat="37.9538567" lon="16.09151"><ele>13.666666666666668</ele><time>2026-04-04T09:16:50.583Z</time></trkpt><trkpt lat="37.9540033" lon="16.091685"><ele>13.333333333333332</ele><time>2026-04-04T09:16:51.583Z</time></trkpt><trkpt lat="37.9541567" lon="16.0918617"><ele>13.0</ele><time>2026-04-04T09:16:52.583Z</time></trkpt><trkpt lat="37.9543117" lon="16.0920317"><ele>13.0</ele><time>2026-04-04T09:16:53.583Z</time></trkpt><trkpt lat="37.9544633" lon="16.0922083"><ele>13.0</ele><time>2026-04-04T09:16:54.583Z</time></trkpt><trkpt lat="37.9546133" lon="16.0923883"><ele>13.0</ele><time>2026-04-04T09:16:55.583Z</time></trkpt><trkpt lat="37.954765" lon="16.0925717"><ele>13.666666666666666</ele><time>2026-04-04T09:16:56.584Z</time></trkpt><trkpt lat="37.954915" lon="16.092755"><ele>14.333333333333332</ele><time>2026-04-04T09:16:57.583Z</time></trkpt><trkpt lat="37.9550683" lon="16.092935"><ele>15.0</ele><time>2026-04-04T09:16:58.583Z</time></trkpt><trkpt lat="37.9552233" lon="16.0931167"><ele>13.333333333333334</ele><time>2026-04-04T09:16:59.584Z</time></trkpt><trkpt lat="37.9553783" lon="16.0932917"><ele>11.666666666666668</ele><time>2026-04-04T09:17:00.583Z</time></trkpt><trkpt lat="37.95553" lon="16.0934717"><ele>10.0</ele><time>2026-04-04T09:17:01.584Z</time></trkpt><trkpt lat="37.9556867" lon="16.0936433"><ele>10.0</ele><time>2026-04-04T09:17:02.583Z</time></trkpt><trkpt lat="37.9558333" lon="16.093815"><ele>10.0</ele><time>2026-04-04T09:17:03.583Z</time></trkpt><trkpt lat="37.95598" lon="16.093985"><ele>10.0</ele><time>2026-04-04T09:17:04.583Z</time></trkpt><trkpt lat="37.9561267" lon="16.094155"><ele>11.0</ele><time>2026-04-04T09:17:05.583Z</time></trkpt><trkpt lat="37.9562717" lon="16.0943233"><ele>12.0</ele><time>2026-04-04T09:17:06.583Z</time></trkpt><trkpt lat="37.95642" lon="16.0944833"><ele>13.0</ele><time>2026-04-04T09:17:07.583Z</time></trkpt><trkpt lat="37.9565633" lon="16.0946417"><ele>14.333333333333332</ele><time>2026-04-04T09:17:08.583Z</time></trkpt><trkpt lat="37.95671" lon="16.0948017"><ele>15.666666666666668</ele><time>2026-04-04T09:17:09.583Z</time></trkpt><trkpt lat="37.9568633" lon="16.094955"><ele>17.0</ele><time>2026-04-04T09:17:10.583Z</time></trkpt><trkpt lat="37.9570117" lon="16.0951233"><ele>17.0</ele><time>2026-04-04T09:17:11.583Z</time></trkpt><trkpt lat="37.957145" lon="16.0952967"><ele>17.0</ele><time>2026-04-04T09:17:12.583Z</time></trkpt><trkpt lat="37.9572833" lon="16.095465"><ele>17.0</ele><time>2026-04-04T09:17:13.583Z</time></trkpt><trkpt lat="37.9574267" lon="16.0956183"><ele>17.0</ele><time>2026-04-04T09:17:14.584Z</time></trkpt><trkpt lat="37.9575683" lon="16.095765"><ele>17.0</ele><time>2026-04-04T09:17:15.584Z</time></trkpt><trkpt lat="37.9576967" lon="16.0959217"><ele>17.0</ele><time>2026-04-04T09:17:16.583Z</time></trkpt><trkpt lat="37.95783" lon="16.0960833"><ele>17.0</ele><time>2026-04-04T09:17:17.583Z</time></trkpt><trkpt lat="37.95797" lon="16.096225"><ele>17.0</ele><time>2026-04-04T09:17:18.583Z</time></trkpt><trkpt lat="37.9581017" lon="16.09637"><ele>17.0</ele><time>2026-04-04T09:17:19.583Z</time></trkpt><trkpt lat="37.9582183" lon="16.0964983"><ele>15.0</ele><time>2026-04-04T09:17:20.583Z</time></trkpt><trkpt lat="37.9583333" lon="16.09662"><ele>13.0</ele><time>2026-04-04T09:17:21.583Z</time></trkpt><trkpt lat="37.9584417" lon="16.0967533"><ele>11.0</ele><time>2026-04-04T09:17:22.584Z</time></trkpt><trkpt lat="37.9585467" lon="16.09689"><ele>11.0</ele><time>2026-04-04T09:17:23.584Z</time></trkpt><trkpt lat="37.9586667" lon="16.0970083"><ele>11.0</ele><time>2026-04-04T09:17:24.583Z</time></trkpt><trkpt lat="37.9587817" lon="16.0971333"><ele>11.0</ele><time>2026-04-04T09:17:25.583Z</time></trkpt><trkpt lat="37.95889" lon="16.0972517"><ele>11.0</ele><time>2026-04-04T09:17:26.583Z</time></trkpt><trkpt lat="37.9589917" lon="16.0973717"><ele>10.75</ele><time>2026-04-04T09:17:27.583Z</time></trkpt><trkpt lat="37.9590933" lon="16.0974933"><ele>10.5</ele><time>2026-04-04T09:17:28.583Z</time></trkpt><trkpt lat="37.959195" lon="16.0976083"><ele>10.25</ele><time>2026-04-04T09:17:29.584Z</time></trkpt><trkpt lat="37.9592967" lon="16.0977267"><ele>10.0</ele><time>2026-04-04T09:17:30.583Z</time></trkpt><trkpt lat="37.9594" lon="16.09784"><ele>10.5</ele><time>2026-04-04T09:17:31.583Z</time></trkpt><trkpt lat="37.9595017" lon="16.0979483"><ele>11.0</ele><time>2026-04-04T09:17:32.583Z</time></trkpt><trkpt lat="37.9595933" lon="16.0980583"><ele>11.5</ele><time>2026-04-04T09:17:33.583Z</time></trkpt><trkpt lat="37.9597017" lon="16.09815"><ele>12.0</ele><time>2026-04-04T09:17:34.583Z</time></trkpt><trkpt lat="37.9598083" lon="16.098255"><ele>12.0</ele><time>2026-04-04T09:17:35.584Z</time></trkpt><trkpt lat="37.9599367" lon="16.0983383"><ele>12.0</ele><time>2026-04-04T09:17:36.584Z</time></trkpt><trkpt lat="37.96004" lon="16.09843"><ele>12.0</ele><time>2026-04-04T09:17:37.583Z</time></trkpt><trkpt lat="37.9601417" lon="16.0985167"><ele>12.0</ele><time>2026-04-04T09:17:38.583Z</time></trkpt><trkpt lat="37.960245" lon="16.0986117"><ele>12.75</ele><time>2026-04-04T09:17:39.583Z</time></trkpt><trkpt lat="37.960345" lon="16.098695"><ele>13.5</ele><time>2026-04-04T09:17:40.583Z</time></trkpt><trkpt lat="37.960445" lon="16.098775"><ele>14.25</ele><time>2026-04-04T09:17:41.583Z</time></trkpt><trkpt lat="37.96054" lon="16.098855"><ele>15.0</ele><time>2026-04-04T09:17:42.583Z</time></trkpt><trkpt lat="37.9606317" lon="16.0989317"><ele>15.0</ele><time>2026-04-04T09:17:43.583Z</time></trkpt><trkpt lat="37.960715" lon="16.0990033"><ele>15.0</ele><time>2026-04-04T09:17:44.583Z</time></trkpt><trkpt lat="37.9607967" lon="16.09907"><ele>15.0</ele><time>2026-04-04T09:17:45.583Z</time></trkpt><trkpt lat="37.9608767" lon="16.0991467"><ele>15.0</ele><time>2026-04-04T09:17:46.584Z</time></trkpt><trkpt lat="37.96096" lon="16.0992233"><ele>15.0</ele><time>2026-04-04T09:17:47.583Z</time></trkpt><trkpt lat="37.9610417" lon="16.0992933"><ele>15.6</ele><time>2026-04-04T09:17:48.583Z</time></trkpt><trkpt lat="37.96112" lon="16.099365"><ele>16.2</ele><time>2026-04-04T09:17:49.584Z</time></trkpt><trkpt lat="37.9612033" lon="16.09943"><ele>16.8</ele><time>2026-04-04T09:17:50.583Z</time></trkpt><trkpt lat="37.9612883" lon="16.0994967"><ele>17.4</ele><time>2026-04-04T09:17:51.583Z</time></trkpt><trkpt lat="37.9613733" lon="16.0995633"><ele>18.0</ele><time>2026-04-04T09:17:52.583Z</time></trkpt><trkpt lat="37.9614633" lon="16.09963"><ele>18.0</ele><time>2026-04-04T09:17:53.583Z</time></trkpt><trkpt lat="37.96156" lon="16.0997033"><ele>18.0</ele><time>2026-04-04T09:17:54.583Z</time></trkpt><trkpt lat="37.9616417" lon="16.0997833"><ele>18.0</ele><time>2026-04-04T09:17:55.583Z</time></trkpt><trkpt lat="37.9617283" lon="16.0998567"><ele>18.0</ele><time>2026-04-04T09:17:56.583Z</time></trkpt><trkpt lat="37.9618183" lon="16.09992"><ele>18.0</ele><time>2026-04-04T09:17:57.584Z</time></trkpt><trkpt lat="37.9618967" lon="16.0999833"><ele>18.166666666666668</ele><time>2026-04-04T09:17:58.584Z</time></trkpt><trkpt lat="37.9619683" lon="16.10005"><ele>18.333333333333332</ele><time>2026-04-04T09:17:59.584Z</time></trkpt><trkpt lat="37.9620333" lon="16.100115"><ele>18.5</ele><time>2026-04-04T09:18:00.583Z</time></trkpt><trkpt lat="37.9621" lon="16.1001767"><ele>18.666666666666664</ele><time>2026-04-04T09:18:01.583Z</time></trkpt><trkpt lat="37.96217" lon="16.1002367"><ele>18.833333333333332</ele><time>2026-04-04T09:18:02.583Z</time></trkpt><trkpt lat="37.9622467" lon="16.1003067"><ele>19.0</ele><time>2026-04-04T09:18:03.583Z</time></trkpt><trkpt lat="37.96232" lon="16.1003883"><ele>19.0</ele><time>2026-04-04T09:18:04.583Z</time></trkpt><trkpt lat="37.9624" lon="16.1004567"><ele>19.0</ele><time>2026-04-04T09:18:05.583Z</time></trkpt><trkpt lat="37.9624817" lon="16.1005217"><ele>19.0</ele><time>2026-04-04T09:18:06.583Z</time></trkpt><trkpt lat="37.9625567" lon="16.1005717"><ele>19.0</ele><time>2026-04-04T09:18:07.583Z</time></trkpt><trkpt lat="37.9626217" lon="16.1006233"><ele>19.0</ele><time>2026-04-04T09:18:08.584Z</time></trkpt><trkpt lat="37.9626883" lon="16.100675"><ele>19.0</ele><time>2026-04-04T09:18:09.584Z</time></trkpt><trkpt lat="37.9627483" lon="16.1007183"><ele>18.333333333333332</ele><time>2026-04-04T09:18:10.583Z</time></trkpt><trkpt lat="37.962805" lon="16.1007617"><ele>17.666666666666664</ele><time>2026-04-04T09:18:11.583Z</time></trkpt><trkpt lat="37.962865" lon="16.1008"><ele>17.0</ele><time>2026-04-04T09:18:12.583Z</time></trkpt><trkpt lat="37.9629317" lon="16.10085"><ele>16.333333333333332</ele><time>2026-04-04T09:18:13.583Z</time></trkpt><trkpt lat="37.9629967" lon="16.1009017"><ele>15.666666666666666</ele><time>2026-04-04T09:18:14.583Z</time></trkpt><trkpt lat="37.9630567" lon="16.10095"><ele>15.0</ele><time>2026-04-04T09:18:15.584Z</time></trkpt><trkpt lat="37.9631633" lon="16.10103"><ele>15.0</ele><time>2026-04-04T09:18:17.583Z</time></trkpt><trkpt lat="37.96326" lon="16.1010983"><ele>15.0</ele><time>2026-04-04T09:18:19.584Z</time></trkpt><trkpt lat="37.96334" lon="16.1011733"><ele>15.0</ele><time>2026-04-04T09:18:21.583Z</time></trkpt><trkpt lat="37.96341" lon="16.10124"><ele>15.0</ele><time>2026-04-04T09:18:23.583Z</time></trkpt><trkpt lat="37.9634717" lon="16.1012933"><ele>15.0</ele><time>2026-04-04T09:18:25.583Z</time></trkpt><trkpt lat="37.9635367" lon="16.1013267"><ele>15.0</ele><time>2026-04-04T09:18:27.583Z</time></trkpt><trkpt lat="37.9635933" lon="16.1013683"><ele>14.8</ele><time>2026-04-04T09:18:29.583Z</time></trkpt><trkpt lat="37.9636583" lon="16.1014233"><ele>14.6</ele><time>2026-04-04T09:18:31.583Z</time></trkpt><trkpt lat="37.9637417" lon="16.1014783"><ele>14.399999999999999</ele><time>2026-04-04T09:18:33.583Z</time></trkpt><trkpt lat="37.96383" lon="16.1015267"><ele>14.2</ele><time>2026-04-04T09:18:35.584Z</time></trkpt><trkpt lat="37.963925" lon="16.1016033"><ele>14.0</ele><time>2026-04-04T09:18:37.583Z</time></trkpt><trkpt lat="37.96404" lon="16.1016717"><ele>14.0</ele><time>2026-04-04T09:18:39.583Z</time></trkpt><trkpt lat="37.9641433" lon="16.101745"><ele>13.999999999999998</ele><time>2026-04-04T09:18:41.583Z</time></trkpt><trkpt lat="37.9642167" lon="16.1018083"><ele>13.999999999999998</ele><time>2026-04-04T09:18:43.583Z</time></trkpt><trkpt lat="37.9642933" lon="16.1018517"><ele>14.0</ele><time>2026-04-04T09:18:45.584Z</time></trkpt><trkpt lat="37.9643767" lon="16.10191"><ele>14.0</ele><time>2026-04-04T09:18:47.583Z</time></trkpt><trkpt lat="37.9644383" lon="16.1019683"><ele>13.833333333333334</ele><time>2026-04-04T09:18:49.583Z</time></trkpt><trkpt lat="37.964505" lon="16.102025"><ele>13.666666666666668</ele><time>2026-04-04T09:18:52.583Z</time></trkpt><trkpt lat="37.9645633" lon="16.1020667"><ele>13.5</ele><time>2026-04-04T09:18:54.583Z</time></trkpt><trkpt lat="37.9646283" lon="16.102105"><ele>13.333333333333332</ele><time>2026-04-04T09:18:56.584Z</time></trkpt><trkpt lat="37.9646933" lon="16.1021567"><ele>13.166666666666666</ele><time>2026-04-04T09:18:58.583Z</time></trkpt><trkpt lat="37.9647633" lon="16.1021983"><ele>13.0</ele><time>2026-04-04T09:19:00.583Z</time></trkpt><trkpt lat="37.9648333" lon="16.1022467"><ele>12.999999999999998</ele><time>2026-04-04T09:19:02.583Z</time></trkpt><trkpt lat="37.9649017" lon="16.1023133"><ele>13.0</ele><time>2026-04-04T09:19:04.583Z</time></trkpt><trkpt lat="37.96497" lon="16.1023717"><ele>13.0</ele><time>2026-04-04T09:19:06.583Z</time></trkpt><trkpt lat="37.9650283" lon="16.1024133"><ele>13.0</ele><time>2026-04-04T09:19:08.583Z</time></trkpt><trkpt lat="37.9651033" lon="16.1024533"><ele>12.999999999999998</ele><time>2026-04-04T09:19:10.583Z</time></trkpt><trkpt lat="37.9651717" lon="16.102525"><ele>13.0</ele><time>2026-04-04T09:19:12.584Z</time></trkpt><trkpt lat="37.9652517" lon="16.10258"><ele>12.833333333333332</ele><time>2026-04-04T09:19:14.584Z</time></trkpt><trkpt lat="37.9653567" lon="16.102635"><ele>12.666666666666666</ele><time>2026-04-04T09:19:16.583Z</time></trkpt><trkpt lat="37.9654133" lon="16.1026783"><ele>12.5</ele><time>2026-04-04T09:19:17.583Z</time></trkpt><trkpt lat="37.9654633" lon="16.1027317"><ele>12.333333333333332</ele><time>2026-04-04T09:19:18.583Z</time></trkpt><trkpt lat="37.96553" lon="16.1027683"><ele>12.166666666666666</ele><time>2026-04-04T09:19:19.583Z</time></trkpt><trkpt lat="37.9655983" lon="16.10281"><ele>12.0</ele><time>2026-04-04T09:19:20.583Z</time></trkpt><trkpt lat="37.965655" lon="16.1028583"><ele>12.0</ele><time>2026-04-04T09:19:21.583Z</time></trkpt><trkpt lat="37.965715" lon="16.1029067"><ele>12.0</ele><time>2026-04-04T09:19:22.583Z</time></trkpt><trkpt lat="37.9658133" lon="16.1029917"><ele>12.0</ele><time>2026-04-04T09:19:24.583Z</time></trkpt><trkpt lat="37.9659333" lon="16.1030633"><ele>12.0</ele><time>2026-04-04T09:19:26.584Z</time></trkpt><trkpt lat="37.965995" lon="16.1030967"><ele>12.0</ele><time>2026-04-04T09:19:27.584Z</time></trkpt><trkpt lat="37.9660617" lon="16.103145"><ele>11.999999999999998</ele><time>2026-04-04T09:19:28.583Z</time></trkpt><trkpt lat="37.9661267" lon="16.1031933"><ele>12.0</ele><time>2026-04-04T09:19:29.584Z</time></trkpt><trkpt lat="37.966195" lon="16.1032417"><ele>12.0</ele><time>2026-04-04T09:19:30.583Z</time></trkpt><trkpt lat="37.9662617" lon="16.1032883"><ele>12.0</ele><time>2026-04-04T09:19:31.584Z</time></trkpt><trkpt lat="37.966325" lon="16.10334"><ele>12.0</ele><time>2026-04-04T09:19:32.583Z</time></trkpt><trkpt lat="37.9663883" lon="16.10338"><ele>11.999999999999998</ele><time>2026-04-04T09:19:33.583Z</time></trkpt><trkpt lat="37.9664517" lon="16.1034183"><ele>12.0</ele><time>2026-04-04T09:19:34.584Z</time></trkpt><trkpt lat="37.966565" lon="16.1034817"><ele>12.0</ele><time>2026-04-04T09:19:36.583Z</time></trkpt><trkpt lat="37.9666217" lon="16.1035283"><ele>12.0</ele><time>2026-04-04T09:19:37.583Z</time></trkpt><trkpt lat="37.96668" lon="16.1035633"><ele>12.0</ele><time>2026-04-04T09:19:38.583Z</time></trkpt><trkpt lat="37.96677" lon="16.1036283"><ele>12.0</ele><time>2026-04-04T09:19:40.584Z</time></trkpt><trkpt lat="37.9668267" lon="16.1036783"><ele>12.0</ele><time>2026-04-04T09:19:43.584Z</time></trkpt><trkpt lat="37.9669033" lon="16.1037083"><ele>12.0</ele><time>2026-04-04T09:19:46.583Z</time></trkpt><trkpt lat="37.9669917" lon="16.1037617"><ele>12.0</ele><time>2026-04-04T09:19:49.583Z</time></trkpt><trkpt lat="37.96707" lon="16.1038183"><ele>12.0</ele><time>2026-04-04T09:19:51.583Z</time></trkpt><trkpt lat="37.9671567" lon="16.10389"><ele>12.0</ele><time>2026-04-04T09:19:53.583Z</time></trkpt><trkpt lat="37.9672483" lon="16.1039617"><ele>12.0</ele><time>2026-04-04T09:19:55.583Z</time></trkpt><trkpt lat="37.9673233" lon="16.1040267"><ele>12.0</ele><time>2026-04-04T09:19:57.583Z</time></trkpt><trkpt lat="37.9673883" lon="16.1040817"><ele>11.999999999999998</ele><time>2026-04-04T09:19:59.584Z</time></trkpt><trkpt lat="37.9674533" lon="16.10412"><ele>12.0</ele><time>2026-04-04T09:20:02.584Z</time></trkpt><trkpt lat="37.9675167" lon="16.1041033"><ele>12.0</ele><time>2026-04-04T09:30:19.584Z</time></trkpt><trkpt lat="37.96758" lon="16.10415"><ele>12.0</ele><time>2026-04-04T09:30:22.584Z</time></trkpt><trkpt lat="37.9676317" lon="16.1042083"><ele>12.0</ele><time>2026-04-04T09:30:24.584Z</time></trkpt><trkpt lat="37.9676883" lon="16.1042533"><ele>11.999999999999998</ele><time>2026-04-04T09:30:26.584Z</time></trkpt><trkpt lat="37.967765" lon="16.1043083"><ele>12.0</ele><time>2026-04-04T09:30:29.584Z</time></trkpt><trkpt lat="37.9678183" lon="16.1043533"><ele>12.0</ele><time>2026-04-04T09:30:31.584Z</time></trkpt><trkpt lat="37.96788" lon="16.104425"><ele>12.0</ele><time>2026-04-04T09:30:34.584Z</time></trkpt><trkpt lat="37.9679483" lon="16.10447"><ele>12.0</ele><time>2026-04-04T09:31:17.584Z</time></trkpt><trkpt lat="37.9680317" lon="16.1045417"><ele>12.0</ele><time>2026-04-04T09:31:20.584Z</time></trkpt><trkpt lat="37.968105" lon="16.1046133"><ele>12.0</ele><time>2026-04-04T09:31:22.584Z</time></trkpt><trkpt lat="37.9681917" lon="16.1046567"><ele>12.0</ele><time>2026-04-04T09:31:24.584Z</time></trkpt><trkpt lat="37.968255" lon="16.1047033"><ele>12.0</ele><time>2026-04-04T09:31:26.585Z</time></trkpt><trkpt lat="37.9683217" lon="16.1047417"><ele>12.0</ele><time>2026-04-04T09:31:29.584Z</time></trkpt><trkpt lat="37.968405" lon="16.1048083"><ele>12.0</ele><time>2026-04-04T09:32:29.584Z</time></trkpt><trkpt lat="37.9684717" lon="16.10487"><ele>12.0</ele><time>2026-04-04T09:32:31.584Z</time></trkpt><trkpt lat="37.9685567" lon="16.10488"><ele>12.0</ele><time>2026-04-04T09:32:35.584Z</time></trkpt><trkpt lat="37.96864" lon="16.104935"><ele>12.0</ele><time>2026-04-04T09:32:38.584Z</time></trkpt><trkpt lat="37.9687033" lon="16.105005"><ele>11.0</ele><time>2026-04-04T09:32:44.585Z</time></trkpt><trkpt lat="37.968775" lon="16.1050383"><ele>10.0</ele><time>2026-04-04T09:32:47.584Z</time></trkpt><trkpt lat="37.9688383" lon="16.105075"><ele>9.0</ele><time>2026-04-04T09:32:49.584Z</time></trkpt><trkpt lat="37.9689233" lon="16.105145"><ele>8.0</ele><time>2026-04-04T09:32:51.585Z</time></trkpt><trkpt lat="37.9690133" lon="16.105205"><ele>7.0</ele><time>2026-04-04T09:32:53.584Z</time></trkpt><trkpt lat="37.96912" lon="16.1052933"><ele>7.000000000000001</ele><time>2026-04-04T09:32:55.585Z</time></trkpt><trkpt lat="37.969185" lon="16.1053433"><ele>7.0</ele><time>2026-04-04T09:32:56.584Z</time></trkpt><trkpt lat="37.9692567" lon="16.105385"><ele>7.0</ele><time>2026-04-04T09:32:57.584Z</time></trkpt><trkpt lat="37.9693283" lon="16.10544"><ele>7.0</ele><time>2026-04-04T09:32:58.584Z</time></trkpt><trkpt lat="37.9693967" lon="16.1054917"><ele>7.000000000000001</ele><time>2026-04-04T09:32:59.584Z</time></trkpt><trkpt lat="37.9694667" lon="16.10555"><ele>7.0</ele><time>2026-04-04T09:33:00.584Z</time></trkpt><trkpt lat="37.96954" lon="16.1056083"><ele>6.8</ele><time>2026-04-04T09:33:01.584Z</time></trkpt><trkpt lat="37.9696117" lon="16.1056717"><ele>6.6</ele><time>2026-04-04T09:33:02.584Z</time></trkpt><trkpt lat="37.96969" lon="16.10574"><ele>6.3999999999999995</ele><time>2026-04-04T09:33:03.584Z</time></trkpt><trkpt lat="37.969765" lon="16.1058067"><ele>6.199999999999999</ele><time>2026-04-04T09:33:04.585Z</time></trkpt><trkpt lat="37.9698467" lon="16.1058783"><ele>6.0</ele><time>2026-04-04T09:33:05.584Z</time></trkpt><trkpt lat="37.9699317" lon="16.1059467"><ele>6.25</ele><time>2026-04-04T09:33:06.584Z</time></trkpt><trkpt lat="37.9700317" lon="16.10603"><ele>6.5</ele><time>2026-04-04T09:33:07.584Z</time></trkpt><trkpt lat="37.9701333" lon="16.1061083"><ele>6.75</ele><time>2026-04-04T09:33:08.585Z</time></trkpt><trkpt lat="37.970245" lon="16.1061883"><ele>7.0</ele><time>2026-04-04T09:33:09.584Z</time></trkpt><trkpt lat="37.9703683" lon="16.1062667"><ele>7.0</ele><time>2026-04-04T09:33:10.584Z</time></trkpt><trkpt lat="37.9704883" lon="16.10635"><ele>7.0</ele><time>2026-04-04T09:33:11.584Z</time></trkpt><trkpt lat="37.9706183" lon="16.1064383"><ele>7.0</ele><time>2026-04-04T09:33:12.584Z</time></trkpt><trkpt lat="37.9707467" lon="16.1065367"><ele>7.0</ele><time>2026-04-04T09:33:13.584Z</time></trkpt><trkpt lat="37.9708817" lon="16.1066417"><ele>7.333333333333334</ele><time>2026-04-04T09:33:14.584Z</time></trkpt><trkpt lat="37.97102" lon="16.1067433"><ele>7.666666666666666</ele><time>2026-04-04T09:33:15.584Z</time></trkpt><trkpt lat="37.9711467" lon="16.1068383"><ele>8.0</ele><time>2026-04-04T09:33:16.584Z</time></trkpt><trkpt lat="37.971275" lon="16.1069283"><ele>8.0</ele><time>2026-04-04T09:33:17.584Z</time></trkpt><trkpt lat="37.9714" lon="16.10702"><ele>8.0</ele><time>2026-04-04T09:33:18.585Z</time></trkpt><trkpt lat="37.97152" lon="16.107105"><ele>8.0</ele><time>2026-04-04T09:33:19.584Z</time></trkpt><trkpt lat="37.97164" lon="16.1071967"><ele>8.0</ele><time>2026-04-04T09:33:20.585Z</time></trkpt><trkpt lat="37.97176" lon="16.1072867"><ele>8.0</ele><time>2026-04-04T09:33:21.584Z</time></trkpt><trkpt lat="37.9718767" lon="16.1073717"><ele>8.0</ele><time>2026-04-04T09:33:22.584Z</time></trkpt><trkpt lat="37.9719967" lon="16.1074533"><ele>8.0</ele><time>2026-04-04T09:33:23.585Z</time></trkpt><trkpt lat="37.9721183" lon="16.1075467"><ele>8.0</ele><time>2026-04-04T09:33:24.584Z</time></trkpt><trkpt lat="37.9722517" lon="16.107635"><ele>8.0</ele><time>2026-04-04T09:33:25.584Z</time></trkpt><trkpt lat="37.9723967" lon="16.1077333"><ele>8.0</ele><time>2026-04-04T09:33:26.584Z</time></trkpt><trkpt lat="37.9725483" lon="16.10784"><ele>8.0</ele><time>2026-04-04T09:33:27.584Z</time></trkpt><trkpt lat="37.97269" lon="16.10795"><ele>7.666666666666666</ele><time>2026-04-04T09:33:28.585Z</time></trkpt><trkpt lat="37.9728167" lon="16.1080567"><ele>7.333333333333334</ele><time>2026-04-04T09:33:29.584Z</time></trkpt><trkpt lat="37.972945" lon="16.108155"><ele>7.0</ele><time>2026-04-04T09:33:30.584Z</time></trkpt><trkpt lat="37.9730683" lon="16.1082667"><ele>7.0</ele><time>2026-04-04T09:33:31.585Z</time></trkpt><trkpt lat="37.97319" lon="16.1083783"><ele>7.0</ele><time>2026-04-04T09:33:32.584Z</time></trkpt><trkpt lat="37.9733083" lon="16.1084917"><ele>7.0</ele><time>2026-04-04T09:33:33.585Z</time></trkpt><trkpt lat="37.9734317" lon="16.1086083"><ele>8.0</ele><time>2026-04-04T09:33:34.585Z</time></trkpt><trkpt lat="37.9735617" lon="16.1087433"><ele>9.0</ele><time>2026-04-04T09:33:35.584Z</time></trkpt><trkpt lat="37.9736933" lon="16.1088733"><ele>10.0</ele><time>2026-04-04T09:33:36.585Z</time></trkpt><trkpt lat="37.973825" lon="16.1090033"><ele>9.0</ele><time>2026-04-04T09:33:37.584Z</time></trkpt><trkpt lat="37.97394" lon="16.109135"><ele>8.0</ele><time>2026-04-04T09:33:38.584Z</time></trkpt><trkpt lat="37.9740633" lon="16.1092533"><ele>7.0</ele><time>2026-04-04T09:33:39.584Z</time></trkpt><trkpt lat="37.9741767" lon="16.1093633"><ele>7.5</ele><time>2026-04-04T09:33:40.584Z</time></trkpt><trkpt lat="37.9742833" lon="16.1094717"><ele>8.0</ele><time>2026-04-04T09:33:41.584Z</time></trkpt><trkpt lat="37.974385" lon="16.1095783"><ele>8.5</ele><time>2026-04-04T09:33:42.584Z</time></trkpt><trkpt lat="37.9744883" lon="16.1096833"><ele>9.0</ele><time>2026-04-04T09:33:43.585Z</time></trkpt><trkpt lat="37.9745867" lon="16.1097883"><ele>9.0</ele><time>2026-04-04T09:33:44.585Z</time></trkpt><trkpt lat="37.9746917" lon="16.1098967"><ele>9.0</ele><time>2026-04-04T09:33:45.584Z</time></trkpt><trkpt lat="37.9748" lon="16.1100117"><ele>9.0</ele><time>2026-04-04T09:33:46.584Z</time></trkpt><trkpt lat="37.9749117" lon="16.11013"><ele>9.0</ele><time>2026-04-04T09:33:47.584Z</time></trkpt><trkpt lat="37.975025" lon="16.11025"><ele>10.0</ele><time>2026-04-04T09:33:48.584Z</time></trkpt><trkpt lat="37.9751433" lon="16.1103767"><ele>11.0</ele><time>2026-04-04T09:33:49.584Z</time></trkpt><trkpt lat="37.975265" lon="16.1105"><ele>12.0</ele><time>2026-04-04T09:33:50.584Z</time></trkpt><trkpt lat="37.975385" lon="16.1106333"><ele>10.0</ele><time>2026-04-04T09:33:51.584Z</time></trkpt><trkpt lat="37.9755033" lon="16.1107583"><ele>8.0</ele><time>2026-04-04T09:33:52.584Z</time></trkpt><trkpt lat="37.975625" lon="16.1108817"><ele>6.0</ele><time>2026-04-04T09:33:53.584Z</time></trkpt><trkpt lat="37.97575" lon="16.1110083"><ele>8.0</ele><time>2026-04-04T09:33:54.584Z</time></trkpt><trkpt lat="37.9758783" lon="16.111135"><ele>10.0</ele><time>2026-04-04T09:33:55.585Z</time></trkpt><trkpt lat="37.9760083" lon="16.111265"><ele>12.0</ele><time>2026-04-04T09:33:56.584Z</time></trkpt><trkpt lat="37.97614" lon="16.1113933"><ele>12.0</ele><time>2026-04-04T09:33:57.585Z</time></trkpt><trkpt lat="37.9762683" lon="16.111515"><ele>12.0</ele><time>2026-04-04T09:33:58.584Z</time></trkpt><trkpt lat="37.9764017" lon="16.1116333"><ele>12.0</ele><time>2026-04-04T09:33:59.584Z</time></trkpt><trkpt lat="37.976535" lon="16.1117483"><ele>11.666666666666666</ele><time>2026-04-04T09:34:00.584Z</time></trkpt><trkpt lat="37.9766683" lon="16.11186"><ele>11.333333333333332</ele><time>2026-04-04T09:34:01.584Z</time></trkpt><trkpt lat="37.9768017" lon="16.1119683"><ele>11.0</ele><time>2026-04-04T09:34:02.584Z</time></trkpt><trkpt lat="37.9769417" lon="16.11208"><ele>11.0</ele><time>2026-04-04T09:34:03.584Z</time></trkpt><trkpt lat="37.9770767" lon="16.1121917"><ele>11.0</ele><time>2026-04-04T09:34:04.584Z</time></trkpt><trkpt lat="37.97721" lon="16.112305"><ele>11.0</ele><time>2026-04-04T09:34:05.585Z</time></trkpt><trkpt lat="37.9773367" lon="16.1124117"><ele>10.333333333333332</ele><time>2026-04-04T09:34:06.584Z</time></trkpt><trkpt lat="37.9774633" lon="16.1125083"><ele>9.666666666666666</ele><time>2026-04-04T09:34:07.585Z</time></trkpt><trkpt lat="37.977595" lon="16.1126"><ele>9.0</ele><time>2026-04-04T09:34:08.584Z</time></trkpt><trkpt lat="37.9777317" lon="16.1126883"><ele>9.0</ele><time>2026-04-04T09:34:09.585Z</time></trkpt><trkpt lat="37.97787" lon="16.112775"><ele>9.0</ele><time>2026-04-04T09:34:10.584Z</time></trkpt><trkpt lat="37.9780133" lon="16.1128533"><ele>9.0</ele><time>2026-04-04T09:34:11.584Z</time></trkpt><trkpt lat="37.978155" lon="16.112935"><ele>9.0</ele><time>2026-04-04T09:34:12.584Z</time></trkpt><trkpt lat="37.9782883" lon="16.1130083"><ele>9.0</ele><time>2026-04-04T09:34:13.585Z</time></trkpt><trkpt lat="37.9784167" lon="16.1130867"><ele>9.0</ele><time>2026-04-04T09:34:14.584Z</time></trkpt><trkpt lat="37.9785467" lon="16.1131617"><ele>9.0</ele><time>2026-04-04T09:34:15.585Z</time></trkpt><trkpt lat="37.9786833" lon="16.113245"><ele>9.0</ele><time>2026-04-04T09:34:16.584Z</time></trkpt><trkpt lat="37.9788233" lon="16.1133233"><ele>9.0</ele><time>2026-04-04T09:34:17.584Z</time></trkpt><trkpt lat="37.9789633" lon="16.113405"><ele>9.0</ele><time>2026-04-04T09:34:18.584Z</time></trkpt><trkpt lat="37.9791017" lon="16.11348"><ele>9.5</ele><time>2026-04-04T09:34:19.585Z</time></trkpt><trkpt lat="37.979235" lon="16.11356"><ele>10.0</ele><time>2026-04-04T09:34:20.584Z</time></trkpt><trkpt lat="37.9793717" lon="16.1136333"><ele>10.5</ele><time>2026-04-04T09:34:21.584Z</time></trkpt><trkpt lat="37.979505" lon="16.1137067"><ele>11.0</ele><time>2026-04-04T09:34:22.584Z</time></trkpt><trkpt lat="37.9796367" lon="16.1137867"><ele>11.0</ele><time>2026-04-04T09:34:23.584Z</time></trkpt><trkpt lat="37.9797667" lon="16.1138633"><ele>11.0</ele><time>2026-04-04T09:34:24.584Z</time></trkpt><trkpt lat="37.9799033" lon="16.1139433"><ele>11.0</ele><time>2026-04-04T09:34:25.584Z</time></trkpt><trkpt lat="37.9800567" lon="16.11402"><ele>9.666666666666666</ele><time>2026-04-04T09:34:26.584Z</time></trkpt><trkpt lat="37.9802333" lon="16.1141067"><ele>8.333333333333334</ele><time>2026-04-04T09:34:27.584Z</time></trkpt><trkpt lat="37.980435" lon="16.1142133"><ele>7.0</ele><time>2026-04-04T09:34:28.584Z</time></trkpt><trkpt lat="37.98065" lon="16.114345"><ele>6.5</ele><time>2026-04-04T09:34:29.585Z</time></trkpt><trkpt lat="37.9808883" lon="16.1145"><ele>6.0</ele><time>2026-04-04T09:34:30.584Z</time></trkpt><trkpt lat="37.9811317" lon="16.114655"><ele>6.0</ele><time>2026-04-04T09:34:31.584Z</time></trkpt><trkpt lat="37.9813517" lon="16.11479"><ele>6.0</ele><time>2026-04-04T09:34:32.584Z</time></trkpt><trkpt lat="37.9815383" lon="16.1148967"><ele>6.0</ele><time>2026-04-04T09:34:33.584Z</time></trkpt><trkpt lat="37.9817067" lon="16.114995"><ele>5.5</ele><time>2026-04-04T09:34:34.584Z</time></trkpt><trkpt lat="37.9818583" lon="16.1150817"><ele>5.0</ele><time>2026-04-04T09:34:35.584Z</time></trkpt><trkpt lat="37.981985" lon="16.1151483"><ele>4.5</ele><time>2026-04-04T09:34:36.584Z</time></trkpt><trkpt lat="37.9821" lon="16.1152117"><ele>4.0</ele><time>2026-04-04T09:34:37.584Z</time></trkpt><trkpt lat="37.9821933" lon="16.1152667"><ele>4.0</ele><time>2026-04-04T09:34:38.585Z</time></trkpt><trkpt lat="37.9822767" lon="16.1153167"><ele>4.0</ele><time>2026-04-04T09:34:39.584Z</time></trkpt><trkpt lat="37.982345" lon="16.1153567"><ele>4.0</ele><time>2026-04-04T09:34:40.584Z</time></trkpt><trkpt lat="37.9824283" lon="16.1154117"><ele>4.0</ele><time>2026-04-04T09:34:42.584Z</time></trkpt><trkpt lat="37.982525" lon="16.1154367"><ele>4.0</ele><time>2026-04-04T09:34:45.584Z</time></trkpt><trkpt lat="37.9825983" lon="16.1153633"><ele>4.2</ele><time>2026-04-04T09:34:47.585Z</time></trkpt><trkpt lat="37.9826467" lon="16.1152567"><ele>4.4</ele><time>2026-04-04T09:34:49.584Z</time></trkpt><trkpt lat="37.9826733" lon="16.1151617"><ele>4.6</ele><time>2026-04-04T09:34:51.584Z</time></trkpt><trkpt lat="37.9827083" lon="16.1150717"><ele>4.8</ele><time>2026-04-04T09:34:53.584Z</time></trkpt><trkpt lat="37.9827633" lon="16.11495"><ele>5.0</ele><time>2026-04-04T09:34:55.584Z</time></trkpt><trkpt lat="37.9828183" lon="16.114855"><ele>5.0</ele><time>2026-04-04T09:34:56.584Z</time></trkpt><trkpt lat="37.9829017" lon="16.1147533"><ele>5.0</ele><time>2026-04-04T09:34:57.584Z</time></trkpt><trkpt lat="37.9829967" lon="16.11463"><ele>5.0</ele><time>2026-04-04T09:34:58.584Z</time></trkpt><trkpt lat="37.9831233" lon="16.1144983"><ele>5.0</ele><time>2026-04-04T09:34:59.584Z</time></trkpt><trkpt lat="37.9832583" lon="16.1143667"><ele>4.666666666666667</ele><time>2026-04-04T09:35:00.584Z</time></trkpt><trkpt lat="37.9834017" lon="16.1142317"><ele>4.333333333333333</ele><time>2026-04-04T09:35:01.584Z</time></trkpt><trkpt lat="37.98356" lon="16.114095"><ele>4.0</ele><time>2026-04-04T09:35:02.585Z</time></trkpt><trkpt lat="37.9837167" lon="16.113965"><ele>4.666666666666666</ele><time>2026-04-04T09:35:03.585Z</time></trkpt><trkpt lat="37.9838717" lon="16.1138417"><ele>5.333333333333333</ele><time>2026-04-04T09:35:04.585Z</time></trkpt><trkpt lat="37.984035" lon="16.11371"><ele>6.0</ele><time>2026-04-04T09:35:05.584Z</time></trkpt><trkpt lat="37.9842067" lon="16.1135783"><ele>6.0</ele><time>2026-04-04T09:35:06.584Z</time></trkpt><trkpt lat="37.9843783" lon="16.1134517"><ele>6.0</ele><time>2026-04-04T09:35:07.584Z</time></trkpt><trkpt lat="37.984555" lon="16.1133217"><ele>6.0</ele><time>2026-04-04T09:35:08.584Z</time></trkpt><trkpt lat="37.9847233" lon="16.11319"><ele>6.333333333333334</ele><time>2026-04-04T09:35:09.584Z</time></trkpt><trkpt lat="37.9848933" lon="16.1130517"><ele>6.666666666666667</ele><time>2026-04-04T09:35:10.584Z</time></trkpt><trkpt lat="37.9850683" lon="16.1129167"><ele>7.0</ele><time>2026-04-04T09:35:11.584Z</time></trkpt><trkpt lat="37.9852467" lon="16.112775"><ele>7.0</ele><time>2026-04-04T09:35:12.584Z</time></trkpt><trkpt lat="37.9854183" lon="16.11265"><ele>7.0</ele><time>2026-04-04T09:35:13.584Z</time></trkpt><trkpt lat="37.9855833" lon="16.1125217"><ele>7.0</ele><time>2026-04-04T09:35:14.584Z</time></trkpt><trkpt lat="37.98575" lon="16.11239"><ele>7.333333333333334</ele><time>2026-04-04T09:35:15.584Z</time></trkpt><trkpt lat="37.98592" lon="16.1122533"><ele>7.666666666666666</ele><time>2026-04-04T09:35:16.584Z</time></trkpt><trkpt lat="37.9860917" lon="16.1121167"><ele>8.0</ele><time>2026-04-04T09:35:17.585Z</time></trkpt><trkpt lat="37.9862633" lon="16.1119833"><ele>8.0</ele><time>2026-04-04T09:35:18.584Z</time></trkpt><trkpt lat="37.986445" lon="16.1118583"><ele>8.0</ele><time>2026-04-04T09:35:19.585Z</time></trkpt><trkpt lat="37.9866217" lon="16.111725"><ele>8.0</ele><time>2026-04-04T09:35:20.584Z</time></trkpt><trkpt lat="37.9867967" lon="16.1115817"><ele>8.333333333333332</ele><time>2026-04-04T09:35:21.584Z</time></trkpt><trkpt lat="37.98697" lon="16.1114467"><ele>8.666666666666666</ele><time>2026-04-04T09:35:22.585Z</time></trkpt><trkpt lat="37.9871383" lon="16.1113183"><ele>9.0</ele><time>2026-04-04T09:35:23.584Z</time></trkpt><trkpt lat="37.987305" lon="16.11119"><ele>9.0</ele><time>2026-04-04T09:35:24.584Z</time></trkpt><trkpt lat="37.9874733" lon="16.11105"><ele>9.0</ele><time>2026-04-04T09:35:25.584Z</time></trkpt><trkpt lat="37.987645" lon="16.1109167"><ele>9.0</ele><time>2026-04-04T09:35:26.584Z</time></trkpt><trkpt lat="37.9878133" lon="16.1107933"><ele>9.0</ele><time>2026-04-04T09:35:27.584Z</time></trkpt><trkpt lat="37.9879833" lon="16.1106583"><ele>9.0</ele><time>2026-04-04T09:35:28.585Z</time></trkpt><trkpt lat="37.98815" lon="16.1105233"><ele>9.0</ele><time>2026-04-04T09:35:29.584Z</time></trkpt><trkpt lat="37.9883117" lon="16.1103883"><ele>9.0</ele><time>2026-04-04T09:35:30.584Z</time></trkpt><trkpt lat="37.9884833" lon="16.1102683"><ele>9.0</ele><time>2026-04-04T09:35:31.584Z</time></trkpt><trkpt lat="37.9886483" lon="16.1101367"><ele>9.0</ele><time>2026-04-04T09:35:32.584Z</time></trkpt><trkpt lat="37.9888233" lon="16.1100017"><ele>9.0</ele><time>2026-04-04T09:35:33.584Z</time></trkpt><trkpt lat="37.989005" lon="16.1098667"><ele>9.0</ele><time>2026-04-04T09:35:34.584Z</time></trkpt><trkpt lat="37.9891783" lon="16.109715"><ele>9.0</ele><time>2026-04-04T09:35:35.584Z</time></trkpt><trkpt lat="37.9893467" lon="16.1095633"><ele>9.0</ele><time>2026-04-04T09:35:36.584Z</time></trkpt><trkpt lat="37.98949" lon="16.1094217"><ele>9.0</ele><time>2026-04-04T09:35:37.584Z</time></trkpt><trkpt lat="37.989635" lon="16.1092783"><ele>9.0</ele><time>2026-04-04T09:35:38.585Z</time></trkpt><trkpt lat="37.9897617" lon="16.1091417"><ele>9.25</ele><time>2026-04-04T09:35:39.584Z</time></trkpt><trkpt lat="37.989885" lon="16.1090233"><ele>9.5</ele><time>2026-04-04T09:35:40.584Z</time></trkpt><trkpt lat="37.9899783" lon="16.108905"><ele>9.75</ele><time>2026-04-04T09:35:41.584Z</time></trkpt><trkpt lat="37.990055" lon="16.1087767"><ele>10.0</ele><time>2026-04-04T09:35:42.584Z</time></trkpt><trkpt lat="37.99013" lon="16.1086267"><ele>11.333333333333334</ele><time>2026-04-04T09:35:43.585Z</time></trkpt><trkpt lat="37.99022" lon="16.1084133"><ele>12.666666666666668</ele><time>2026-04-04T09:35:44.584Z</time></trkpt><trkpt lat="37.990325" lon="16.10816"><ele>14.0</ele><time>2026-04-04T09:35:45.584Z</time></trkpt><trkpt lat="37.9904367" lon="16.1078817"><ele>14.0</ele><time>2026-04-04T09:35:46.584Z</time></trkpt><trkpt lat="37.9905567" lon="16.1075917"><ele>14.0</ele><time>2026-04-04T09:35:47.584Z</time></trkpt><trkpt lat="37.9906683" lon="16.1073033"><ele>13.0</ele><time>2026-04-04T09:35:48.584Z</time></trkpt><trkpt lat="37.9907417" lon="16.1070333"><ele>12.0</ele><time>2026-04-04T09:35:49.584Z</time></trkpt><trkpt lat="37.9908083" lon="16.1067783"><ele>11.0</ele><time>2026-04-04T09:35:50.584Z</time></trkpt><trkpt lat="37.9908533" lon="16.106545"><ele>15.0</ele><time>2026-04-04T09:35:51.584Z</time></trkpt><trkpt lat="37.9909017" lon="16.1063167"><ele>19.0</ele><time>2026-04-04T09:35:52.584Z</time></trkpt><trkpt lat="37.9909517" lon="16.1060733"><ele>23.0</ele><time>2026-04-04T09:35:53.584Z</time></trkpt><trkpt lat="37.990995" lon="16.1058467"><ele>21.333333333333336</ele><time>2026-04-04T09:35:54.584Z</time></trkpt><trkpt lat="37.9910383" lon="16.1056167"><ele>19.666666666666668</ele><time>2026-04-04T09:35:55.584Z</time></trkpt><trkpt lat="37.9910833" lon="16.1054033"><ele>18.0</ele><time>2026-04-04T09:35:56.585Z</time></trkpt><trkpt lat="37.9911283" lon="16.1051933"><ele>18.0</ele><time>2026-04-04T09:35:57.584Z</time></trkpt><trkpt lat="37.9911733" lon="16.1049883"><ele>18.0</ele><time>2026-04-04T09:35:58.584Z</time></trkpt><trkpt lat="37.991215" lon="16.1047717"><ele>18.0</ele><time>2026-04-04T09:35:59.584Z</time></trkpt><trkpt lat="37.9912633" lon="16.104565"><ele>16.666666666666668</ele><time>2026-04-04T09:36:00.584Z</time></trkpt><trkpt lat="37.9913233" lon="16.104365"><ele>15.333333333333334</ele><time>2026-04-04T09:36:01.584Z</time></trkpt><trkpt lat="37.991385" lon="16.1041683"><ele>14.0</ele><time>2026-04-04T09:36:02.584Z</time></trkpt><trkpt lat="37.9914533" lon="16.1039817"><ele>13.666666666666668</ele><time>2026-04-04T09:36:03.584Z</time></trkpt><trkpt lat="37.99153" lon="16.103785"><ele>13.333333333333332</ele><time>2026-04-04T09:36:04.584Z</time></trkpt><trkpt lat="37.9916117" lon="16.1035933"><ele>13.0</ele><time>2026-04-04T09:36:05.584Z</time></trkpt><trkpt lat="37.9916867" lon="16.1034067"><ele>14.0</ele><time>2026-04-04T09:36:06.585Z</time></trkpt><trkpt lat="37.99176" lon="16.1032183"><ele>15.0</ele><time>2026-04-04T09:36:07.584Z</time></trkpt><trkpt lat="37.9918417" lon="16.1030233"><ele>16.0</ele><time>2026-04-04T09:36:08.584Z</time></trkpt><trkpt lat="37.9919217" lon="16.1028383"><ele>16.0</ele><time>2026-04-04T09:36:09.584Z</time></trkpt><trkpt lat="37.9920067" lon="16.1026567"><ele>16.0</ele><time>2026-04-04T09:36:10.584Z</time></trkpt><trkpt lat="37.992105" lon="16.10248"><ele>16.0</ele><time>2026-04-04T09:36:11.584Z</time></trkpt><trkpt lat="37.992205" lon="16.1023033"><ele>16.333333333333332</ele><time>2026-04-04T09:36:12.584Z</time></trkpt><trkpt lat="37.992315" lon="16.1021367"><ele>16.666666666666668</ele><time>2026-04-04T09:36:13.584Z</time></trkpt><trkpt lat="37.992435" lon="16.1019583"><ele>17.0</ele><time>2026-04-04T09:36:14.584Z</time></trkpt><trkpt lat="37.9925633" lon="16.1017783"><ele>17.0</ele><time>2026-04-04T09:36:15.584Z</time></trkpt><trkpt lat="37.9926933" lon="16.101595"><ele>17.0</ele><time>2026-04-04T09:36:16.584Z</time></trkpt><trkpt lat="37.9928133" lon="16.1014183"><ele>17.0</ele><time>2026-04-04T09:36:17.584Z</time></trkpt><trkpt lat="37.992945" lon="16.1012433"><ele>17.0</ele><time>2026-04-04T09:36:18.584Z</time></trkpt><trkpt lat="37.99307" lon="16.1010767"><ele>17.0</ele><time>2026-04-04T09:36:19.584Z</time></trkpt><trkpt lat="37.99319" lon="16.1009117"><ele>17.0</ele><time>2026-04-04T09:36:20.584Z</time></trkpt><trkpt lat="37.9933067" lon="16.100745"><ele>17.666666666666668</ele><time>2026-04-04T09:36:21.585Z</time></trkpt><trkpt lat="37.9934283" lon="16.100575"><ele>18.333333333333332</ele><time>2026-04-04T09:36:22.584Z</time></trkpt><trkpt lat="37.99355" lon="16.1004083"><ele>19.0</ele><time>2026-04-04T09:36:23.584Z</time></trkpt><trkpt lat="37.99367" lon="16.1002383"><ele>19.0</ele><time>2026-04-04T09:36:24.584Z</time></trkpt><trkpt lat="37.9937967" lon="16.1000617"><ele>19.0</ele><time>2026-04-04T09:36:25.584Z</time></trkpt><trkpt lat="37.9939117" lon="16.0998933"><ele>19.0</ele><time>2026-04-04T09:36:26.584Z</time></trkpt><trkpt lat="37.99403" lon="16.0997217"><ele>18.666666666666664</ele><time>2026-04-04T09:36:27.584Z</time></trkpt><trkpt lat="37.994155" lon="16.099545"><ele>18.333333333333332</ele><time>2026-04-04T09:36:28.584Z</time></trkpt><trkpt lat="37.9942733" lon="16.0993733"><ele>18.0</ele><time>2026-04-04T09:36:29.584Z</time></trkpt><trkpt lat="37.994395" lon="16.0991933"><ele>18.333333333333332</ele><time>2026-04-04T09:36:30.585Z</time></trkpt><trkpt lat="37.9945083" lon="16.0990083"><ele>18.666666666666664</ele><time>2026-04-04T09:36:31.584Z</time></trkpt><trkpt lat="37.9946217" lon="16.0988217"><ele>19.0</ele><time>2026-04-04T09:36:32.584Z</time></trkpt><trkpt lat="37.9947333" lon="16.098625"><ele>19.0</ele><time>2026-04-04T09:36:33.584Z</time></trkpt><trkpt lat="37.9948467" lon="16.098435"><ele>19.0</ele><time>2026-04-04T09:36:34.584Z</time></trkpt><trkpt lat="37.9949517" lon="16.0982417"><ele>19.0</ele><time>2026-04-04T09:36:35.584Z</time></trkpt><trkpt lat="37.9950533" lon="16.0980483"><ele>20.0</ele><time>2026-04-04T09:36:36.584Z</time></trkpt><trkpt lat="37.9951417" lon="16.097845"><ele>21.0</ele><time>2026-04-04T09:36:37.584Z</time></trkpt><trkpt lat="37.9952383" lon="16.0976367"><ele>22.0</ele><time>2026-04-04T09:36:38.584Z</time></trkpt><trkpt lat="37.9953417" lon="16.0974217"><ele>22.0</ele><time>2026-04-04T09:36:39.584Z</time></trkpt><trkpt lat="37.99544" lon="16.0972117"><ele>22.0</ele><time>2026-04-04T09:36:40.584Z</time></trkpt><trkpt lat="37.9955317" lon="16.0969983"><ele>22.0</ele><time>2026-04-04T09:36:41.585Z</time></trkpt><trkpt lat="37.9956283" lon="16.09678"><ele>22.0</ele><time>2026-04-04T09:36:42.584Z</time></trkpt><trkpt lat="37.9957183" lon="16.0965617"><ele>22.0</ele><time>2026-04-04T09:36:43.584Z</time></trkpt><trkpt lat="37.995805" lon="16.096325"><ele>22.0</ele><time>2026-04-04T09:36:44.584Z</time></trkpt><trkpt lat="37.9958867" lon="16.096095"><ele>22.0</ele><time>2026-04-04T09:36:45.584Z</time></trkpt><trkpt lat="37.99597" lon="16.095855"><ele>22.0</ele><time>2026-04-04T09:36:46.585Z</time></trkpt><trkpt lat="37.9960517" lon="16.0956167"><ele>22.0</ele><time>2026-04-04T09:36:47.584Z</time></trkpt><trkpt lat="37.9961317" lon="16.0953767"><ele>22.0</ele><time>2026-04-04T09:36:48.585Z</time></trkpt><trkpt lat="37.99621" lon="16.0951367"><ele>22.0</ele><time>2026-04-04T09:36:49.584Z</time></trkpt><trkpt lat="37.9962817" lon="16.094895"><ele>22.0</ele><time>2026-04-04T09:36:50.584Z</time></trkpt><trkpt lat="37.9963583" lon="16.0946483"><ele>22.0</ele><time>2026-04-04T09:36:51.584Z</time></trkpt><trkpt lat="37.99643" lon="16.0943983"><ele>22.0</ele><time>2026-04-04T09:36:52.584Z</time></trkpt><trkpt lat="37.9965067" lon="16.09416"><ele>22.0</ele><time>2026-04-04T09:36:53.584Z</time></trkpt><trkpt lat="37.99658" lon="16.0939233"><ele>22.0</ele><time>2026-04-04T09:36:54.585Z</time></trkpt><trkpt lat="37.9966517" lon="16.0936833"><ele>22.0</ele><time>2026-04-04T09:36:55.584Z</time></trkpt><trkpt lat="37.9967233" lon="16.09344"><ele>22.0</ele><time>2026-04-04T09:36:56.584Z</time></trkpt><trkpt lat="37.9967883" lon="16.0932"><ele>22.666666666666664</ele><time>2026-04-04T09:36:57.584Z</time></trkpt><trkpt lat="37.99686" lon="16.0929667"><ele>23.333333333333332</ele><time>2026-04-04T09:36:58.584Z</time></trkpt><trkpt lat="37.99693" lon="16.0927283"><ele>24.0</ele><time>2026-04-04T09:36:59.584Z</time></trkpt><trkpt lat="37.9970017" lon="16.0924867"><ele>24.0</ele><time>2026-04-04T09:37:00.585Z</time></trkpt><trkpt lat="37.9970817" lon="16.09224"><ele>24.0</ele><time>2026-04-04T09:37:01.584Z</time></trkpt><trkpt lat="37.9971567" lon="16.091995"><ele>24.0</ele><time>2026-04-04T09:37:02.584Z</time></trkpt><trkpt lat="37.9972267" lon="16.0917567"><ele>23.666666666666668</ele><time>2026-04-04T09:37:03.584Z</time></trkpt><trkpt lat="37.9973033" lon="16.09152"><ele>23.333333333333336</ele><time>2026-04-04T09:37:04.584Z</time></trkpt><trkpt lat="37.9973933" lon="16.0912917"><ele>23.0</ele><time>2026-04-04T09:37:05.585Z</time></trkpt><trkpt lat="37.997495" lon="16.0910567"><ele>24.0</ele><time>2026-04-04T09:37:06.584Z</time></trkpt><trkpt lat="37.9975983" lon="16.0908317"><ele>25.0</ele><time>2026-04-04T09:37:07.584Z</time></trkpt><trkpt lat="37.9977167" lon="16.090615"><ele>26.0</ele><time>2026-04-04T09:37:08.584Z</time></trkpt><trkpt lat="37.9978383" lon="16.0904017"><ele>26.0</ele><time>2026-04-04T09:37:09.584Z</time></trkpt><trkpt lat="37.9979633" lon="16.09019"><ele>26.0</ele><time>2026-04-04T09:37:10.584Z</time></trkpt><trkpt lat="37.9981083" lon="16.0899983"><ele>26.0</ele><time>2026-04-04T09:37:11.584Z</time></trkpt><trkpt lat="37.99825" lon="16.08982"><ele>25.666666666666664</ele><time>2026-04-04T09:37:12.584Z</time></trkpt><trkpt lat="37.9983983" lon="16.0896417"><ele>25.333333333333336</ele><time>2026-04-04T09:37:13.584Z</time></trkpt><trkpt lat="37.99855" lon="16.089465"><ele>25.0</ele><time>2026-04-04T09:37:14.584Z</time></trkpt><trkpt lat="37.9987083" lon="16.0892967"><ele>25.0</ele><time>2026-04-04T09:37:15.584Z</time></trkpt><trkpt lat="37.9988783" lon="16.0891433"><ele>25.0</ele><time>2026-04-04T09:37:16.585Z</time></trkpt><trkpt lat="37.9990467" lon="16.089005"><ele>25.0</ele><time>2026-04-04T09:37:17.585Z</time></trkpt><trkpt lat="37.9992133" lon="16.0888833"><ele>26.0</ele><time>2026-04-04T09:37:18.584Z</time></trkpt><trkpt lat="37.999385" lon="16.088755"><ele>27.0</ele><time>2026-04-04T09:37:19.584Z</time></trkpt><trkpt lat="37.9995567" lon="16.0886117"><ele>28.0</ele><time>2026-04-04T09:37:20.584Z</time></trkpt><trkpt lat="37.9997333" lon="16.0884717"><ele>28.0</ele><time>2026-04-04T09:37:21.584Z</time></trkpt><trkpt lat="37.9999067" lon="16.0883283"><ele>28.0</ele><time>2026-04-04T09:37:22.584Z</time></trkpt><trkpt lat="38.0000717" lon="16.08819"><ele>28.0</ele><time>2026-04-04T09:37:23.584Z</time></trkpt><trkpt lat="38.0002367" lon="16.0880533"><ele>27.333333333333336</ele><time>2026-04-04T09:37:24.585Z</time></trkpt><trkpt lat="38.0004117" lon="16.0879117"><ele>26.666666666666664</ele><time>2026-04-04T09:37:25.584Z</time></trkpt><trkpt lat="38.0005833" lon="16.0877817"><ele>26.0</ele><time>2026-04-04T09:37:26.584Z</time></trkpt><trkpt lat="38.000755" lon="16.0876433"><ele>26.0</ele><time>2026-04-04T09:37:27.585Z</time></trkpt><trkpt lat="38.0009317" lon="16.0875017"><ele>26.0</ele><time>2026-04-04T09:37:28.584Z</time></trkpt><trkpt lat="38.00111" lon="16.0873683"><ele>26.0</ele><time>2026-04-04T09:37:29.584Z</time></trkpt><trkpt lat="38.001285" lon="16.0872333"><ele>26.0</ele><time>2026-04-04T09:37:30.584Z</time></trkpt><trkpt lat="38.0014633" lon="16.0870983"><ele>26.0</ele><time>2026-04-04T09:37:31.584Z</time></trkpt><trkpt lat="38.0016367" lon="16.0869483"><ele>26.0</ele><time>2026-04-04T09:37:32.585Z</time></trkpt><trkpt lat="38.0018033" lon="16.0868017"><ele>26.666666666666664</ele><time>2026-04-04T09:37:33.584Z</time></trkpt><trkpt lat="38.0019617" lon="16.0866733"><ele>27.333333333333336</ele><time>2026-04-04T09:37:34.584Z</time></trkpt><trkpt lat="38.00213" lon="16.0865367"><ele>28.0</ele><time>2026-04-04T09:37:35.584Z</time></trkpt><trkpt lat="38.00229" lon="16.0864033"><ele>28.0</ele><time>2026-04-04T09:37:36.584Z</time></trkpt><trkpt lat="38.0024517" lon="16.0862783"><ele>28.0</ele><time>2026-04-04T09:37:37.584Z</time></trkpt><trkpt lat="38.00261" lon="16.0861433"><ele>28.0</ele><time>2026-04-04T09:37:38.584Z</time></trkpt><trkpt lat="38.00277" lon="16.0859983"><ele>28.666666666666668</ele><time>2026-04-04T09:37:39.584Z</time></trkpt><trkpt lat="38.0029317" lon="16.0858717"><ele>29.333333333333336</ele><time>2026-04-04T09:37:40.585Z</time></trkpt><trkpt lat="38.0030833" lon="16.08574"><ele>30.0</ele><time>2026-04-04T09:37:41.584Z</time></trkpt><trkpt lat="38.0032367" lon="16.08562"><ele>30.333333333333336</ele><time>2026-04-04T09:37:42.584Z</time></trkpt><trkpt lat="38.0033833" lon="16.0855167"><ele>30.666666666666668</ele><time>2026-04-04T09:37:43.585Z</time></trkpt><trkpt lat="38.0035117" lon="16.0854067"><ele>31.0</ele><time>2026-04-04T09:37:44.585Z</time></trkpt><trkpt lat="38.0036383" lon="16.0853133"><ele>31.0</ele><time>2026-04-04T09:37:45.584Z</time></trkpt><trkpt lat="38.0037517" lon="16.0852233"><ele>31.0</ele><time>2026-04-04T09:37:46.585Z</time></trkpt><trkpt lat="38.0038617" lon="16.0851417"><ele>31.0</ele><time>2026-04-04T09:37:47.584Z</time></trkpt><trkpt lat="38.0039667" lon="16.08507"><ele>31.0</ele><time>2026-04-04T09:37:48.584Z</time></trkpt><trkpt lat="38.0040683" lon="16.0849983"><ele>31.200000000000003</ele><time>2026-04-04T09:37:49.584Z</time></trkpt><trkpt lat="38.00416" lon="16.0849283"><ele>31.400000000000002</ele><time>2026-04-04T09:37:50.584Z</time></trkpt><trkpt lat="38.004245" lon="16.08486"><ele>31.6</ele><time>2026-04-04T09:37:51.585Z</time></trkpt><trkpt lat="38.0043117" lon="16.0847933"><ele>31.8</ele><time>2026-04-04T09:37:52.584Z</time></trkpt><trkpt lat="38.0043667" lon="16.0847367"><ele>32.0</ele><time>2026-04-04T09:37:53.584Z</time></trkpt><trkpt lat="38.004415" lon="16.08461"><ele>32.166666666666664</ele><time>2026-04-04T09:37:55.584Z</time></trkpt><trkpt lat="38.00444" lon="16.0845167"><ele>32.33333333333333</ele><time>2026-04-04T09:37:57.585Z</time></trkpt><trkpt lat="38.0045083" lon="16.0844283"><ele>32.5</ele><time>2026-04-04T09:38:00.584Z</time></trkpt><trkpt lat="38.0045933" lon="16.084365"><ele>32.666666666666664</ele><time>2026-04-04T09:38:02.584Z</time></trkpt><trkpt lat="38.0046583" lon="16.0843233"><ele>32.833333333333336</ele><time>2026-04-04T09:38:03.584Z</time></trkpt><trkpt lat="38.0047383" lon="16.0842783"><ele>33.0</ele><time>2026-04-04T09:38:04.584Z</time></trkpt><trkpt lat="38.004825" lon="16.0842267"><ele>33.0</ele><time>2026-04-04T09:38:05.584Z</time></trkpt><trkpt lat="38.0049233" lon="16.0841667"><ele>33.0</ele><time>2026-04-04T09:38:06.585Z</time></trkpt><trkpt lat="38.0050267" lon="16.0841017"><ele>33.0</ele><time>2026-04-04T09:38:07.585Z</time></trkpt><trkpt lat="38.0051317" lon="16.084035"><ele>33.0</ele><time>2026-04-04T09:38:08.584Z</time></trkpt><trkpt lat="38.0052383" lon="16.0839867"><ele>33.25</ele><time>2026-04-04T09:38:09.584Z</time></trkpt><trkpt lat="38.0053517" lon="16.083965"><ele>33.5</ele><time>2026-04-04T09:38:10.584Z</time></trkpt><trkpt lat="38.0054667" lon="16.0839733"><ele>33.75</ele><time>2026-04-04T09:38:11.584Z</time></trkpt><trkpt lat="38.0055767" lon="16.0839933"><ele>34.0</ele><time>2026-04-04T09:38:12.585Z</time></trkpt><trkpt lat="38.0057" lon="16.0840267"><ele>34.0</ele><time>2026-04-04T09:38:13.584Z</time></trkpt><trkpt lat="38.0058133" lon="16.0840667"><ele>34.0</ele><time>2026-04-04T09:38:14.584Z</time></trkpt><trkpt lat="38.005925" lon="16.084105"><ele>34.0</ele><time>2026-04-04T09:38:15.584Z</time></trkpt><trkpt lat="38.006045" lon="16.08413"><ele>34.0</ele><time>2026-04-04T09:38:16.584Z</time></trkpt><trkpt lat="38.0061767" lon="16.08414"><ele>34.5</ele><time>2026-04-04T09:38:17.584Z</time></trkpt><trkpt lat="38.0063067" lon="16.0841217"><ele>35.0</ele><time>2026-04-04T09:38:18.584Z</time></trkpt><trkpt lat="38.0064383" lon="16.084085"><ele>35.5</ele><time>2026-04-04T09:38:19.584Z</time></trkpt><trkpt lat="38.0065733" lon="16.084035"><ele>36.0</ele><time>2026-04-04T09:38:20.584Z</time></trkpt><trkpt lat="38.00671" lon="16.0839917"><ele>36.0</ele><time>2026-04-04T09:38:21.584Z</time></trkpt><trkpt lat="38.00685" lon="16.0839433"><ele>36.0</ele><time>2026-04-04T09:38:22.584Z</time></trkpt><trkpt lat="38.0069883" lon="16.083895"><ele>36.0</ele><time>2026-04-04T09:38:23.584Z</time></trkpt><trkpt lat="38.0071383" lon="16.0838617"><ele>36.0</ele><time>2026-04-04T09:38:24.585Z</time></trkpt><trkpt lat="38.0072867" lon="16.0838117"><ele>36.0</ele><time>2026-04-04T09:38:25.584Z</time></trkpt><trkpt lat="38.00743" lon="16.08376"><ele>36.0</ele><time>2026-04-04T09:38:26.584Z</time></trkpt><trkpt lat="38.00758" lon="16.08371"><ele>36.0</ele><time>2026-04-04T09:38:27.584Z</time></trkpt><trkpt lat="38.00773" lon="16.08367"><ele>36.25</ele><time>2026-04-04T09:38:28.584Z</time></trkpt><trkpt lat="38.0078683" lon="16.083615"><ele>36.5</ele><time>2026-04-04T09:38:29.584Z</time></trkpt><trkpt lat="38.00801" lon="16.0835633"><ele>36.75</ele><time>2026-04-04T09:38:30.585Z</time></trkpt><trkpt lat="38.0081567" lon="16.0835283"><ele>37.0</ele><time>2026-04-04T09:38:31.584Z</time></trkpt><trkpt lat="38.0082983" lon="16.0835017"><ele>36.75</ele><time>2026-04-04T09:38:32.584Z</time></trkpt><trkpt lat="38.0084383" lon="16.0834983"><ele>36.5</ele><time>2026-04-04T09:38:33.585Z</time></trkpt><trkpt lat="38.0085767" lon="16.0835217"><ele>36.25</ele><time>2026-04-04T09:38:34.585Z</time></trkpt><trkpt lat="38.00872" lon="16.0835517"><ele>36.0</ele><time>2026-04-04T09:38:35.584Z</time></trkpt><trkpt lat="38.0088667" lon="16.0835883"><ele>36.0</ele><time>2026-04-04T09:38:36.585Z</time></trkpt><trkpt lat="38.0090183" lon="16.0836217"><ele>36.0</ele><time>2026-04-04T09:38:37.584Z</time></trkpt><trkpt lat="38.00917" lon="16.0836617"><ele>36.0</ele><time>2026-04-04T09:38:38.585Z</time></trkpt><trkpt lat="38.00932" lon="16.0836967"><ele>37.0</ele><time>2026-04-04T09:38:39.584Z</time></trkpt><trkpt lat="38.0094667" lon="16.083725"><ele>38.0</ele><time>2026-04-04T09:38:40.584Z</time></trkpt><trkpt lat="38.00962" lon="16.0837483"><ele>39.0</ele><time>2026-04-04T09:38:41.585Z</time></trkpt><trkpt lat="38.0097517" lon="16.083775"><ele>40.0</ele><time>2026-04-04T09:38:42.584Z</time></trkpt><trkpt lat="38.009885" lon="16.0838167"><ele>40.75</ele><time>2026-04-04T09:38:43.584Z</time></trkpt><trkpt lat="38.01001" lon="16.0838667"><ele>41.5</ele><time>2026-04-04T09:38:44.584Z</time></trkpt><trkpt lat="38.0101317" lon="16.0839417"><ele>42.25</ele><time>2026-04-04T09:38:45.584Z</time></trkpt><trkpt lat="38.0102433" lon="16.08404"><ele>43.0</ele><time>2026-04-04T09:38:46.584Z</time></trkpt><trkpt lat="38.0103367" lon="16.084155"><ele>43.0</ele><time>2026-04-04T09:38:47.585Z</time></trkpt><trkpt lat="38.0104267" lon="16.0842767"><ele>43.0</ele><time>2026-04-04T09:38:48.584Z</time></trkpt><trkpt lat="38.010495" lon="16.0843833"><ele>43.0</ele><time>2026-04-04T09:38:49.585Z</time></trkpt><trkpt lat="38.01057" lon="16.0844533"><ele>43.0</ele><time>2026-04-04T09:38:50.585Z</time></trkpt><trkpt lat="38.0106533" lon="16.084465"><ele>43.0</ele><time>2026-04-04T09:38:51.584Z</time></trkpt><trkpt lat="38.0107183" lon="16.0844383"><ele>43.0</ele><time>2026-04-04T09:38:52.584Z</time></trkpt><trkpt lat="38.0107767" lon="16.0843667"><ele>43.0</ele><time>2026-04-04T09:38:53.584Z</time></trkpt><trkpt lat="38.0108017" lon="16.0842567"><ele>43.0</ele><time>2026-04-04T09:38:54.585Z</time></trkpt><trkpt lat="38.0108033" lon="16.084125"><ele>43.0</ele><time>2026-04-04T09:38:55.584Z</time></trkpt><trkpt lat="38.0107667" lon="16.083955"><ele>43.0</ele><time>2026-04-04T09:38:56.585Z</time></trkpt><trkpt lat="38.0107167" lon="16.083785"><ele>43.5</ele><time>2026-04-04T09:38:57.584Z</time></trkpt><trkpt lat="38.01068" lon="16.0836267"><ele>44.0</ele><time>2026-04-04T09:38:58.584Z</time></trkpt><trkpt lat="38.0106467" lon="16.0834833"><ele>44.5</ele><time>2026-04-04T09:38:59.585Z</time></trkpt><trkpt lat="38.0106017" lon="16.0833383"><ele>45.0</ele><time>2026-04-04T09:39:00.585Z</time></trkpt><trkpt lat="38.010585" lon="16.0831983"><ele>45.0</ele><time>2026-04-04T09:39:01.584Z</time></trkpt><trkpt lat="38.0105717" lon="16.0830733"><ele>45.0</ele><time>2026-04-04T09:39:02.584Z</time></trkpt><trkpt lat="38.01058" lon="16.0829733"><ele>45.0</ele><time>2026-04-04T09:39:03.584Z</time></trkpt><trkpt lat="38.0106467" lon="16.08287"><ele>45.0</ele><time>2026-04-04T09:39:05.584Z</time></trkpt><trkpt lat="38.0107617" lon="16.0829433"><ele>45.0</ele><time>2026-04-04T09:39:07.584Z</time></trkpt><trkpt lat="38.0108417" lon="16.083045"><ele>47.5</ele><time>2026-04-04T09:39:08.584Z</time></trkpt><trkpt lat="38.0109367" lon="16.08315"><ele>50.0</ele><time>2026-04-04T09:39:09.584Z</time></trkpt><trkpt lat="38.0110167" lon="16.08326"><ele>52.5</ele><time>2026-04-04T09:39:10.584Z</time></trkpt><trkpt lat="38.0110967" lon="16.0833633"><ele>55.0</ele><time>2026-04-04T09:39:11.584Z</time></trkpt><trkpt lat="38.0111733" lon="16.0834667"><ele>55.0</ele><time>2026-04-04T09:39:12.584Z</time></trkpt><trkpt lat="38.0112583" lon="16.0835717"><ele>55.0</ele><time>2026-04-04T09:39:13.584Z</time></trkpt><trkpt lat="38.0113217" lon="16.08367"><ele>55.0</ele><time>2026-04-04T09:39:14.585Z</time></trkpt><trkpt lat="38.0113867" lon="16.08376"><ele>55.0</ele><time>2026-04-04T09:39:15.584Z</time></trkpt><trkpt lat="38.0114533" lon="16.0837917"><ele>55.0</ele><time>2026-04-04T09:39:16.584Z</time></trkpt><trkpt lat="38.0115583" lon="16.0836967"><ele>55.0</ele><time>2026-04-04T09:39:18.584Z</time></trkpt><trkpt lat="38.0115717" lon="16.0835817"><ele>55.0</ele><time>2026-04-04T09:39:19.584Z</time></trkpt><trkpt lat="38.0115483" lon="16.0834333"><ele>55.0</ele><time>2026-04-04T09:39:20.584Z</time></trkpt><trkpt lat="38.0115217" lon="16.0832883"><ele>55.0</ele><time>2026-04-04T09:39:21.584Z</time></trkpt><trkpt lat="38.0115083" lon="16.0831767"><ele>55.0</ele><time>2026-04-04T09:39:22.584Z</time></trkpt><trkpt lat="38.0115033" lon="16.0830817"><ele>55.6</ele><time>2026-04-04T09:39:23.584Z</time></trkpt><trkpt lat="38.0115383" lon="16.0829617"><ele>56.2</ele><time>2026-04-04T09:39:25.584Z</time></trkpt><trkpt lat="38.0116017" lon="16.0828783"><ele>56.8</ele><time>2026-04-04T09:39:27.584Z</time></trkpt><trkpt lat="38.01169" lon="16.0827967"><ele>57.4</ele><time>2026-04-04T09:39:29.584Z</time></trkpt><trkpt lat="38.0117667" lon="16.08271"><ele>58.0</ele><time>2026-04-04T09:39:31.585Z</time></trkpt><trkpt lat="38.0118533" lon="16.0826183"><ele>59.2</ele><time>2026-04-04T09:39:33.584Z</time></trkpt><trkpt lat="38.011955" lon="16.0825433"><ele>60.4</ele><time>2026-04-04T09:39:35.585Z</time></trkpt><trkpt lat="38.0120583" lon="16.0824517"><ele>61.60000000000001</ele><time>2026-04-04T09:39:37.584Z</time></trkpt><trkpt lat="38.0121133" lon="16.0823933"><ele>62.800000000000004</ele><time>2026-04-04T09:39:38.584Z</time></trkpt><trkpt lat="38.0121683" lon="16.082345"><ele>64.0</ele><time>2026-04-04T09:39:39.584Z</time></trkpt><trkpt lat="38.0122317" lon="16.0822983"><ele>64.0</ele><time>2026-04-04T09:39:40.584Z</time></trkpt><trkpt lat="38.0123017" lon="16.0822367"><ele>64.0</ele><time>2026-04-04T09:39:41.584Z</time></trkpt><trkpt lat="38.0123733" lon="16.082165"><ele>64.0</ele><time>2026-04-04T09:39:42.584Z</time></trkpt><trkpt lat="38.0124383" lon="16.0821067"><ele>64.0</ele><time>2026-04-04T09:39:43.585Z</time></trkpt><trkpt lat="38.0125283" lon="16.08205"><ele>64.0</ele><time>2026-04-04T09:39:45.584Z</time></trkpt><trkpt lat="38.0125933" lon="16.08196"><ele>64.60000000000001</ele><time>2026-04-04T09:39:58.584Z</time></trkpt><trkpt lat="38.0126667" lon="16.0818967"><ele>65.2</ele><time>2026-04-04T09:40:01.584Z</time></trkpt><trkpt lat="38.0127383" lon="16.08183"><ele>65.80000000000001</ele><time>2026-04-04T09:40:04.584Z</time></trkpt><trkpt lat="38.012795" lon="16.0817433"><ele>66.4</ele><time>2026-04-04T09:40:07.584Z</time></trkpt><trkpt lat="38.012875" lon="16.08165"><ele>67.0</ele><time>2026-04-04T09:40:16.584Z</time></trkpt><trkpt lat="38.01294" lon="16.081585"><ele>67.0</ele><time>2026-04-04T09:40:18.584Z</time></trkpt><trkpt lat="38.0130217" lon="16.0815167"><ele>67.0</ele><time>2026-04-04T09:40:20.584Z</time></trkpt><trkpt lat="38.01308" lon="16.081475"><ele>67.0</ele><time>2026-04-04T09:40:21.584Z</time></trkpt><trkpt lat="38.0131467" lon="16.0814333"><ele>67.0</ele><time>2026-04-04T09:40:22.585Z</time></trkpt><trkpt lat="38.01321" lon="16.0813833"><ele>67.0</ele><time>2026-04-04T09:40:23.584Z</time></trkpt><trkpt lat="38.0132683" lon="16.08134"><ele>67.0</ele><time>2026-04-04T09:40:24.585Z</time></trkpt><trkpt lat="38.0133967" lon="16.0812883"><ele>67.33333333333333</ele><time>2026-04-04T09:40:26.584Z</time></trkpt><trkpt lat="38.0134683" lon="16.081295"><ele>67.66666666666666</ele><time>2026-04-04T09:40:27.584Z</time></trkpt><trkpt lat="38.0135483" lon="16.081315"><ele>68.0</ele><time>2026-04-04T09:40:28.584Z</time></trkpt><trkpt lat="38.0136317" lon="16.0813467"><ele>68.33333333333333</ele><time>2026-04-04T09:40:29.584Z</time></trkpt><trkpt lat="38.0137083" lon="16.0813767"><ele>68.66666666666667</ele><time>2026-04-04T09:40:30.585Z</time></trkpt><trkpt lat="38.013775" lon="16.0814"><ele>69.0</ele><time>2026-04-04T09:40:31.585Z</time></trkpt><trkpt lat="38.01386" lon="16.08141"><ele>69.0</ele><time>2026-04-04T09:40:33.584Z</time></trkpt><trkpt lat="38.0139433" lon="16.0814417"><ele>69.0</ele><time>2026-04-04T09:40:36.584Z</time></trkpt><trkpt lat="38.014045" lon="16.0814883"><ele>69.0</ele><time>2026-04-04T09:40:38.585Z</time></trkpt><trkpt lat="38.0141283" lon="16.081515"><ele>69.0</ele><time>2026-04-04T09:40:39.584Z</time></trkpt><trkpt lat="38.0142233" lon="16.0815333"><ele>69.0</ele><time>2026-04-04T09:40:40.584Z</time></trkpt><trkpt lat="38.014325" lon="16.08155"><ele>69.5</ele><time>2026-04-04T09:40:41.584Z</time></trkpt><trkpt lat="38.0144383" lon="16.0815783"><ele>70.0</ele><time>2026-04-04T09:40:42.585Z</time></trkpt><trkpt lat="38.014555" lon="16.0816283"><ele>70.5</ele><time>2026-04-04T09:40:43.584Z</time></trkpt><trkpt lat="38.014675" lon="16.081695"><ele>71.0</ele><time>2026-04-04T09:40:44.584Z</time></trkpt><trkpt lat="38.01479" lon="16.0817533"><ele>71.0</ele><time>2026-04-04T09:40:45.584Z</time></trkpt><trkpt lat="38.0149" lon="16.08179"><ele>71.0</ele><time>2026-04-04T09:40:46.585Z</time></trkpt><trkpt lat="38.015" lon="16.08182"><ele>71.0</ele><time>2026-04-04T09:40:47.585Z</time></trkpt><trkpt lat="38.0151" lon="16.0818367"><ele>71.0</ele><time>2026-04-04T09:40:48.585Z</time></trkpt><trkpt lat="38.0151917" lon="16.0818517"><ele>71.0</ele><time>2026-04-04T09:40:49.584Z</time></trkpt><trkpt lat="38.0152883" lon="16.081845"><ele>70.0</ele><time>2026-04-04T09:40:50.584Z</time></trkpt><trkpt lat="38.0153767" lon="16.08183"><ele>69.0</ele><time>2026-04-04T09:40:51.584Z</time></trkpt><trkpt lat="38.0154533" lon="16.0818167"><ele>68.0</ele><time>2026-04-04T09:40:52.584Z</time></trkpt><trkpt lat="38.015515" lon="16.0817833"><ele>67.0</ele><time>2026-04-04T09:40:53.584Z</time></trkpt><trkpt lat="38.0155617" lon="16.0817283"><ele>66.0</ele><time>2026-04-04T09:40:54.584Z</time></trkpt><trkpt lat="38.0155983" lon="16.0816383"><ele>65.0</ele><time>2026-04-04T09:40:55.584Z</time></trkpt><trkpt lat="38.015615" lon="16.0815367"><ele>64.33333333333334</ele><time>2026-04-04T09:40:56.585Z</time></trkpt><trkpt lat="38.01562" lon="16.0814267"><ele>63.66666666666667</ele><time>2026-04-04T09:40:57.585Z</time></trkpt><trkpt lat="38.0156217" lon="16.0813217"><ele>63.0</ele><time>2026-04-04T09:40:58.584Z</time></trkpt><trkpt lat="38.0156233" lon="16.0812217"><ele>62.33333333333333</ele><time>2026-04-04T09:40:59.584Z</time></trkpt><trkpt lat="38.0156317" lon="16.0811283"><ele>61.666666666666664</ele><time>2026-04-04T09:41:00.584Z</time></trkpt><trkpt lat="38.0156367" lon="16.0810483"><ele>61.0</ele><time>2026-04-04T09:41:01.584Z</time></trkpt><trkpt lat="38.0156333" lon="16.0809633"><ele>61.0</ele><time>2026-04-04T09:41:02.584Z</time></trkpt><trkpt lat="38.0156167" lon="16.0808167"><ele>60.99999999999999</ele><time>2026-04-04T09:41:04.584Z</time></trkpt><trkpt lat="38.0156" lon="16.080665"><ele>60.99999999999999</ele><time>2026-04-04T09:41:06.584Z</time></trkpt><trkpt lat="38.0155817" lon="16.0805667"><ele>61.0</ele><time>2026-04-04T09:41:07.584Z</time></trkpt><trkpt lat="38.0155417" lon="16.080465"><ele>61.0</ele><time>2026-04-04T09:41:08.584Z</time></trkpt><trkpt lat="38.0154883" lon="16.080365"><ele>62.4</ele><time>2026-04-04T09:41:09.584Z</time></trkpt><trkpt lat="38.0154333" lon="16.0802517"><ele>63.8</ele><time>2026-04-04T09:41:10.584Z</time></trkpt><trkpt lat="38.0153817" lon="16.0801533"><ele>65.19999999999999</ele><time>2026-04-04T09:41:11.585Z</time></trkpt><trkpt lat="38.0153417" lon="16.08006"><ele>66.6</ele><time>2026-04-04T09:41:12.585Z</time></trkpt><trkpt lat="38.0153317" lon="16.0799317"><ele>68.0</ele><time>2026-04-04T09:41:14.584Z</time></trkpt><trkpt lat="38.0154217" lon="16.0799367"><ele>68.0</ele><time>2026-04-04T09:41:16.585Z</time></trkpt><trkpt lat="38.01548" lon="16.0799883"><ele>68.0</ele><time>2026-04-04T09:41:17.584Z</time></trkpt><trkpt lat="38.015545" lon="16.0800733"><ele>68.0</ele><time>2026-04-04T09:41:18.584Z</time></trkpt><trkpt lat="38.0156317" lon="16.0801767"><ele>68.0</ele><time>2026-04-04T09:41:19.585Z</time></trkpt><trkpt lat="38.0157" lon="16.0802683"><ele>68.0</ele><time>2026-04-04T09:41:20.585Z</time></trkpt><trkpt lat="38.0157783" lon="16.0803167"><ele>69.66666666666667</ele><time>2026-04-04T09:41:21.585Z</time></trkpt><trkpt lat="38.01585" lon="16.0803317"><ele>71.33333333333334</ele><time>2026-04-04T09:41:22.584Z</time></trkpt><trkpt lat="38.0159233" lon="16.08032"><ele>73.0</ele><time>2026-04-04T09:41:23.585Z</time></trkpt><trkpt lat="38.0160117" lon="16.0802933"><ele>74.66666666666667</ele><time>2026-04-04T09:41:24.585Z</time></trkpt><trkpt lat="38.0160783" lon="16.080275"><ele>76.33333333333333</ele><time>2026-04-04T09:41:25.584Z</time></trkpt><trkpt lat="38.0161817" lon="16.08024"><ele>78.0</ele><time>2026-04-04T09:41:27.584Z</time></trkpt><trkpt lat="38.0162817" lon="16.0801467"><ele>78.0</ele><time>2026-04-04T09:41:29.585Z</time></trkpt><trkpt lat="38.0163367" lon="16.080085"><ele>78.0</ele><time>2026-04-04T09:41:30.584Z</time></trkpt><trkpt lat="38.0163967" lon="16.08002"><ele>78.0</ele><time>2026-04-04T09:41:31.584Z</time></trkpt><trkpt lat="38.0164733" lon="16.07995"><ele>78.0</ele><time>2026-04-04T09:41:32.584Z</time></trkpt><trkpt lat="38.0165517" lon="16.07989"><ele>78.0</ele><time>2026-04-04T09:41:33.584Z</time></trkpt><trkpt lat="38.0166367" lon="16.0798467"><ele>78.0</ele><time>2026-04-04T09:41:34.584Z</time></trkpt><trkpt lat="38.0167367" lon="16.079825"><ele>78.2</ele><time>2026-04-04T09:41:35.585Z</time></trkpt><trkpt lat="38.01684" lon="16.0797967"><ele>78.4</ele><time>2026-04-04T09:41:36.585Z</time></trkpt><trkpt lat="38.01695" lon="16.0797633"><ele>78.60000000000001</ele><time>2026-04-04T09:41:37.584Z</time></trkpt><trkpt lat="38.0170533" lon="16.079715"><ele>78.8</ele><time>2026-04-04T09:41:38.584Z</time></trkpt><trkpt lat="38.0171583" lon="16.079655"><ele>79.0</ele><time>2026-04-04T09:41:39.585Z</time></trkpt><trkpt lat="38.0172583" lon="16.0796033"><ele>79.0</ele><time>2026-04-04T09:41:40.584Z</time></trkpt><trkpt lat="38.0173417" lon="16.0795567"><ele>79.0</ele><time>2026-04-04T09:41:41.585Z</time></trkpt><trkpt lat="38.0174283" lon="16.0795083"><ele>79.0</ele><time>2026-04-04T09:41:42.584Z</time></trkpt><trkpt lat="38.01752" lon="16.07946"><ele>79.0</ele><time>2026-04-04T09:41:43.584Z</time></trkpt><trkpt lat="38.01762" lon="16.0794"><ele>79.0</ele><time>2026-04-04T09:41:44.584Z</time></trkpt><trkpt lat="38.0177117" lon="16.07935"><ele>79.2</ele><time>2026-04-04T09:41:45.585Z</time></trkpt><trkpt lat="38.0178017" lon="16.0793083"><ele>79.4</ele><time>2026-04-04T09:41:46.585Z</time></trkpt><trkpt lat="38.0178833" lon="16.0792683"><ele>79.6</ele><time>2026-04-04T09:41:47.584Z</time></trkpt><trkpt lat="38.0179433" lon="16.0792267"><ele>79.8</ele><time>2026-04-04T09:41:48.584Z</time></trkpt><trkpt lat="38.0180283" lon="16.07915"><ele>80.0</ele><time>2026-04-04T09:41:50.584Z</time></trkpt><trkpt lat="38.0181233" lon="16.0790617"><ele>80.0</ele><time>2026-04-04T09:41:52.584Z</time></trkpt><trkpt lat="38.0181783" lon="16.07901"><ele>80.0</ele><time>2026-04-04T09:41:53.585Z</time></trkpt><trkpt lat="38.0182417" lon="16.078955"><ele>80.0</ele><time>2026-04-04T09:41:54.584Z</time></trkpt><trkpt lat="38.01831" lon="16.0789033"><ele>80.0</ele><time>2026-04-04T09:41:55.585Z</time></trkpt><trkpt lat="38.0183733" lon="16.0788483"><ele>80.0</ele><time>2026-04-04T09:41:56.584Z</time></trkpt><trkpt lat="38.0184367" lon="16.078805"><ele>80.0</ele><time>2026-04-04T09:41:57.584Z</time></trkpt><trkpt lat="38.0184917" lon="16.0787583"><ele>80.0</ele><time>2026-04-04T09:41:58.584Z</time></trkpt><trkpt lat="38.0185467" lon="16.0787167"><ele>80.57142857142857</ele><time>2026-04-04T09:41:59.584Z</time></trkpt><trkpt lat="38.0185983" lon="16.0786667"><ele>81.14285714285714</ele><time>2026-04-04T09:42:00.584Z</time></trkpt><trkpt lat="38.018655" lon="16.078615"><ele>81.71428571428572</ele><time>2026-04-04T09:42:01.584Z</time></trkpt><trkpt lat="38.0187067" lon="16.0785633"><ele>82.28571428571428</ele><time>2026-04-04T09:42:02.585Z</time></trkpt><trkpt lat="38.0187717" lon="16.0785217"><ele>82.85714285714286</ele><time>2026-04-04T09:42:03.584Z</time></trkpt><trkpt lat="38.01885" lon="16.0784867"><ele>83.42857142857143</ele><time>2026-04-04T09:42:04.584Z</time></trkpt><trkpt lat="38.0189283" lon="16.0784717"><ele>84.0</ele><time>2026-04-04T09:42:05.584Z</time></trkpt><trkpt lat="38.019005" lon="16.0784633"><ele>84.0</ele><time>2026-04-04T09:42:06.584Z</time></trkpt><trkpt lat="38.0190817" lon="16.0784633"><ele>84.0</ele><time>2026-04-04T09:42:07.584Z</time></trkpt><trkpt lat="38.019155" lon="16.07845"><ele>84.0</ele><time>2026-04-04T09:42:08.584Z</time></trkpt><trkpt lat="38.0192283" lon="16.0784233"><ele>84.0</ele><time>2026-04-04T09:42:09.584Z</time></trkpt><trkpt lat="38.0193" lon="16.0783783"><ele>84.0</ele><time>2026-04-04T09:42:10.584Z</time></trkpt><trkpt lat="38.0193633" lon="16.07833"><ele>84.0</ele><time>2026-04-04T09:42:11.584Z</time></trkpt><trkpt lat="38.0194417" lon="16.078275"><ele>83.33333333333333</ele><time>2026-04-04T09:42:12.584Z</time></trkpt><trkpt lat="38.019525" lon="16.0782317"><ele>82.66666666666667</ele><time>2026-04-04T09:42:13.584Z</time></trkpt><trkpt lat="38.0196033" lon="16.0781917"><ele>82.0</ele><time>2026-04-04T09:42:14.584Z</time></trkpt><trkpt lat="38.019685" lon="16.078165"><ele>81.33333333333334</ele><time>2026-04-04T09:42:15.585Z</time></trkpt><trkpt lat="38.0197583" lon="16.0781567"><ele>80.66666666666667</ele><time>2026-04-04T09:42:16.584Z</time></trkpt><trkpt lat="38.01984" lon="16.078165"><ele>80.0</ele><time>2026-04-04T09:42:17.584Z</time></trkpt><trkpt lat="38.01992" lon="16.0782083"><ele>80.16666666666667</ele><time>2026-04-04T09:42:18.584Z</time></trkpt><trkpt lat="38.0199983" lon="16.078265"><ele>80.33333333333334</ele><time>2026-04-04T09:42:19.584Z</time></trkpt><trkpt lat="38.0200767" lon="16.0783267"><ele>80.5</ele><time>2026-04-04T09:42:20.585Z</time></trkpt><trkpt lat="38.0201567" lon="16.07839"><ele>80.66666666666667</ele><time>2026-04-04T09:42:21.584Z</time></trkpt><trkpt lat="38.020235" lon="16.078445"><ele>80.83333333333333</ele><time>2026-04-04T09:42:22.585Z</time></trkpt><trkpt lat="38.0203067" lon="16.078485"><ele>81.0</ele><time>2026-04-04T09:42:23.584Z</time></trkpt><trkpt lat="38.0203733" lon="16.07851"><ele>82.42857142857143</ele><time>2026-04-04T09:42:24.584Z</time></trkpt><trkpt lat="38.02044" lon="16.07852"><ele>83.85714285714286</ele><time>2026-04-04T09:42:25.584Z</time></trkpt><trkpt lat="38.0205083" lon="16.0785233"><ele>85.28571428571428</ele><time>2026-04-04T09:42:26.584Z</time></trkpt><trkpt lat="38.02058" lon="16.0785283"><ele>86.71428571428572</ele><time>2026-04-04T09:42:27.585Z</time></trkpt><trkpt lat="38.0206517" lon="16.0785467"><ele>88.14285714285714</ele><time>2026-04-04T09:42:28.584Z</time></trkpt><trkpt lat="38.0207267" lon="16.0785867"><ele>89.57142857142857</ele><time>2026-04-04T09:42:29.584Z</time></trkpt><trkpt lat="38.0208" lon="16.0786433"><ele>91.0</ele><time>2026-04-04T09:42:30.584Z</time></trkpt><trkpt lat="38.0208717" lon="16.0786917"><ele>91.0</ele><time>2026-04-04T09:42:31.585Z</time></trkpt><trkpt lat="38.0209467" lon="16.078725"><ele>91.0</ele><time>2026-04-04T09:42:32.584Z</time></trkpt><trkpt lat="38.021025" lon="16.078745"><ele>91.0</ele><time>2026-04-04T09:42:33.584Z</time></trkpt><trkpt lat="38.0211" lon="16.0787483"><ele>91.0</ele><time>2026-04-04T09:42:34.584Z</time></trkpt><trkpt lat="38.0211767" lon="16.0787083"><ele>91.0</ele><time>2026-04-04T09:42:35.584Z</time></trkpt><trkpt lat="38.0212567" lon="16.07865"><ele>91.0</ele><time>2026-04-04T09:42:36.584Z</time></trkpt><trkpt lat="38.0213283" lon="16.078585"><ele>91.0</ele><time>2026-04-04T09:42:37.584Z</time></trkpt><trkpt lat="38.0213967" lon="16.0785183"><ele>91.0</ele><time>2026-04-04T09:42:38.585Z</time></trkpt><trkpt lat="38.0214633" lon="16.0784517"><ele>91.0</ele><time>2026-04-04T09:42:39.584Z</time></trkpt><trkpt lat="38.0215217" lon="16.07839"><ele>91.0</ele><time>2026-04-04T09:42:40.584Z</time></trkpt><trkpt lat="38.0215733" lon="16.078315"><ele>91.0</ele><time>2026-04-04T09:42:41.584Z</time></trkpt><trkpt lat="38.021605" lon="16.0782217"><ele>91.0</ele><time>2026-04-04T09:42:42.584Z</time></trkpt><trkpt lat="38.021625" lon="16.07812"><ele>91.5</ele><time>2026-04-04T09:42:43.584Z</time></trkpt><trkpt lat="38.02163" lon="16.0780233"><ele>92.0</ele><time>2026-04-04T09:42:44.585Z</time></trkpt><trkpt lat="38.0216517" lon="16.07793"><ele>92.5</ele><time>2026-04-04T09:42:45.584Z</time></trkpt><trkpt lat="38.02169" lon="16.0778333"><ele>93.0</ele><time>2026-04-04T09:42:46.584Z</time></trkpt><trkpt lat="38.0217367" lon="16.0777767"><ele>93.5</ele><time>2026-04-04T09:42:47.584Z</time></trkpt><trkpt lat="38.0218733" lon="16.07774"><ele>94.0</ele><time>2026-04-04T09:42:49.584Z</time></trkpt><trkpt lat="38.02196" lon="16.0777433"><ele>96.66666666666666</ele><time>2026-04-04T09:42:50.584Z</time></trkpt><trkpt lat="38.0220467" lon="16.07774"><ele>99.33333333333333</ele><time>2026-04-04T09:42:51.584Z</time></trkpt><trkpt lat="38.02213" lon="16.0777383"><ele>102.0</ele><time>2026-04-04T09:42:52.584Z</time></trkpt><trkpt lat="38.0222" lon="16.077725"><ele>104.66666666666666</ele><time>2026-04-04T09:42:53.584Z</time></trkpt><trkpt lat="38.0222783" lon="16.077705"><ele>107.33333333333333</ele><time>2026-04-04T09:42:55.584Z</time></trkpt><trkpt lat="38.0223417" lon="16.0777317"><ele>110.0</ele><time>2026-04-04T09:42:58.584Z</time></trkpt><trkpt lat="38.02238" lon="16.0778083"><ele>109.99999999999999</ele><time>2026-04-04T09:43:01.585Z</time></trkpt><trkpt lat="38.0223217" lon="16.0777483"><ele>110.0</ele><time>2026-04-04T10:33:03.58Z</time></trkpt><trkpt lat="38.0223033" lon="16.07766"><ele>110.0</ele><time>2026-04-04T10:33:05.579Z</time></trkpt><trkpt lat="38.0222983" lon="16.07756"><ele>110.0</ele><time>2026-04-04T10:33:07.579Z</time></trkpt><trkpt lat="38.0223067" lon="16.07742"><ele>109.99999999999999</ele><time>2026-04-04T10:33:09.579Z</time></trkpt><trkpt lat="38.022315" lon="16.0773217"><ele>110.0</ele><time>2026-04-04T10:33:11.579Z</time></trkpt><trkpt lat="38.0223217" lon="16.0772083"><ele>110.49999999999999</ele><time>2026-04-04T10:33:15.58Z</time></trkpt><trkpt lat="38.0223583" lon="16.0770883"><ele>111.0</ele><time>2026-04-04T10:33:17.579Z</time></trkpt><trkpt lat="38.0223983" lon="16.0770183"><ele>111.5</ele><time>2026-04-04T10:33:18.579Z</time></trkpt><trkpt lat="38.0224517" lon="16.07694"><ele>112.0</ele><time>2026-04-04T10:33:19.579Z</time></trkpt><trkpt lat="38.02251" lon="16.07686"><ele>112.49999999999999</ele><time>2026-04-04T10:33:20.579Z</time></trkpt><trkpt lat="38.0225567" lon="16.0767817"><ele>113.0</ele><time>2026-04-04T10:33:21.579Z</time></trkpt><trkpt lat="38.0225883" lon="16.0767083"><ele>112.0</ele><time>2026-04-04T10:33:22.58Z</time></trkpt><trkpt lat="38.0226" lon="16.0765433"><ele>111.00000000000001</ele><time>2026-04-04T10:33:24.579Z</time></trkpt><trkpt lat="38.0225783" lon="16.0764567"><ele>110.00000000000001</ele><time>2026-04-04T10:33:25.579Z</time></trkpt><trkpt lat="38.0225467" lon="16.07636"><ele>109.0</ele><time>2026-04-04T10:33:26.579Z</time></trkpt><trkpt lat="38.0224983" lon="16.0762683"><ele>108.0</ele><time>2026-04-04T10:33:27.579Z</time></trkpt><trkpt lat="38.0224467" lon="16.076175"><ele>107.0</ele><time>2026-04-04T10:33:28.579Z</time></trkpt><trkpt lat="38.02237" lon="16.0761117"><ele>106.0</ele><time>2026-04-04T10:33:29.579Z</time></trkpt><trkpt lat="38.0222933" lon="16.0760567"><ele>105.0</ele><time>2026-04-04T10:33:30.579Z</time></trkpt><trkpt lat="38.0222133" lon="16.0760017"><ele>104.0</ele><time>2026-04-04T10:33:31.579Z</time></trkpt><trkpt lat="38.0221317" lon="16.0759517"><ele>103.0</ele><time>2026-04-04T10:33:32.579Z</time></trkpt><trkpt lat="38.022055" lon="16.0759217"><ele>102.0</ele><time>2026-04-04T10:33:33.58Z</time></trkpt><trkpt lat="38.02198" lon="16.07591"><ele>102.0</ele><time>2026-04-04T10:33:34.58Z</time></trkpt><trkpt lat="38.0219033" lon="16.075925"><ele>102.0</ele><time>2026-04-04T10:33:35.58Z</time></trkpt><trkpt lat="38.02184" lon="16.075965"><ele>102.0</ele><time>2026-04-04T10:33:36.579Z</time></trkpt><trkpt lat="38.0217717" lon="16.0760183"><ele>102.0</ele><time>2026-04-04T10:33:37.579Z</time></trkpt><trkpt lat="38.0217083" lon="16.0760733"><ele>102.0</ele><time>2026-04-04T10:33:38.579Z</time></trkpt><trkpt lat="38.0216333" lon="16.0761167"><ele>102.0</ele><time>2026-04-04T10:33:39.579Z</time></trkpt><trkpt lat="38.0215583" lon="16.0761467"><ele>100.0</ele><time>2026-04-04T10:33:40.579Z</time></trkpt><trkpt lat="38.0214817" lon="16.0761467"><ele>98.0</ele><time>2026-04-04T10:33:41.579Z</time></trkpt><trkpt lat="38.0214117" lon="16.0761217"><ele>96.0</ele><time>2026-04-04T10:33:42.58Z</time></trkpt><trkpt lat="38.02135" lon="16.07607"><ele>94.0</ele><time>2026-04-04T10:33:43.579Z</time></trkpt><trkpt lat="38.0212983" lon="16.0760133"><ele>92.0</ele><time>2026-04-04T10:33:44.579Z</time></trkpt><trkpt lat="38.0212417" lon="16.0759617"><ele>90.0</ele><time>2026-04-04T10:33:45.58Z</time></trkpt><trkpt lat="38.02118" lon="16.0759133"><ele>88.0</ele><time>2026-04-04T10:33:46.579Z</time></trkpt><trkpt lat="38.0211217" lon="16.0758817"><ele>88.0</ele><time>2026-04-04T10:33:47.579Z</time></trkpt><trkpt lat="38.021055" lon="16.07587"><ele>88.0</ele><time>2026-04-04T10:33:48.579Z</time></trkpt><trkpt lat="38.02098" lon="16.07588"><ele>88.0</ele><time>2026-04-04T10:33:49.579Z</time></trkpt><trkpt lat="38.0209017" lon="16.075905"><ele>88.0</ele><time>2026-04-04T10:33:50.579Z</time></trkpt><trkpt lat="38.0208217" lon="16.075945"><ele>88.0</ele><time>2026-04-04T10:33:51.579Z</time></trkpt><trkpt lat="38.020735" lon="16.07599"><ele>88.0</ele><time>2026-04-04T10:33:52.579Z</time></trkpt><trkpt lat="38.0206567" lon="16.0760267"><ele>85.0</ele><time>2026-04-04T10:33:53.579Z</time></trkpt><trkpt lat="38.0205767" lon="16.07605"><ele>82.0</ele><time>2026-04-04T10:33:54.579Z</time></trkpt><trkpt lat="38.020505" lon="16.0760783"><ele>79.0</ele><time>2026-04-04T10:33:55.58Z</time></trkpt><trkpt lat="38.0203883" lon="16.076085"><ele>76.0</ele><time>2026-04-04T10:33:57.579Z</time></trkpt><trkpt lat="38.02029" lon="16.076"><ele>73.0</ele><time>2026-04-04T10:33:59.579Z</time></trkpt><trkpt lat="38.0202583" lon="16.0759217"><ele>73.0</ele><time>2026-04-04T10:34:00.58Z</time></trkpt><trkpt lat="38.0202283" lon="16.0758317"><ele>73.0</ele><time>2026-04-04T10:34:01.579Z</time></trkpt><trkpt lat="38.0201983" lon="16.0757483"><ele>73.0</ele><time>2026-04-04T10:34:02.579Z</time></trkpt><trkpt lat="38.020165" lon="16.0756767"><ele>73.0</ele><time>2026-04-04T10:34:03.579Z</time></trkpt><trkpt lat="38.0200867" lon="16.075565"><ele>73.0</ele><time>2026-04-04T10:34:05.579Z</time></trkpt><trkpt lat="38.0200267" lon="16.0755017"><ele>73.0</ele><time>2026-04-04T10:34:06.579Z</time></trkpt><trkpt lat="38.019965" lon="16.0754433"><ele>72.33333333333333</ele><time>2026-04-04T10:34:07.579Z</time></trkpt><trkpt lat="38.0198983" lon="16.0754033"><ele>71.66666666666666</ele><time>2026-04-04T10:34:08.579Z</time></trkpt><trkpt lat="38.0198267" lon="16.0753633"><ele>71.0</ele><time>2026-04-04T10:34:09.58Z</time></trkpt><trkpt lat="38.0197467" lon="16.0753233"><ele>70.33333333333333</ele><time>2026-04-04T10:34:10.579Z</time></trkpt><trkpt lat="38.019665" lon="16.0752933"><ele>69.66666666666667</ele><time>2026-04-04T10:34:11.579Z</time></trkpt><trkpt lat="38.0195917" lon="16.07526"><ele>69.0</ele><time>2026-04-04T10:34:12.579Z</time></trkpt><trkpt lat="38.01952" lon="16.075225"><ele>69.0</ele><time>2026-04-04T10:34:13.579Z</time></trkpt><trkpt lat="38.019445" lon="16.0751883"><ele>69.0</ele><time>2026-04-04T10:34:14.579Z</time></trkpt><trkpt lat="38.0193817" lon="16.0751583"><ele>69.0</ele><time>2026-04-04T10:34:15.579Z</time></trkpt><trkpt lat="38.01927" lon="16.075105"><ele>69.0</ele><time>2026-04-04T10:34:17.579Z</time></trkpt><trkpt lat="38.0192133" lon="16.0750683"><ele>69.0</ele><time>2026-04-04T10:34:19.579Z</time></trkpt><trkpt lat="38.01918" lon="16.0749983"><ele>69.0</ele><time>2026-04-04T10:34:22.58Z</time></trkpt><trkpt lat="38.0191183" lon="16.074935"><ele>67.8</ele><time>2026-04-04T10:34:26.579Z</time></trkpt><trkpt lat="38.01906" lon="16.0748033"><ele>66.60000000000001</ele><time>2026-04-04T10:34:36.58Z</time></trkpt><trkpt lat="38.01901" lon="16.0747167"><ele>65.4</ele><time>2026-04-04T10:34:37.579Z</time></trkpt><trkpt lat="38.018945" lon="16.0746383"><ele>64.2</ele><time>2026-04-04T10:34:38.58Z</time></trkpt><trkpt lat="38.0188667" lon="16.0745567"><ele>63.0</ele><time>2026-04-04T10:34:39.58Z</time></trkpt><trkpt lat="38.0187883" lon="16.0744733"><ele>63.0</ele><time>2026-04-04T10:34:40.58Z</time></trkpt><trkpt lat="38.018705" lon="16.0743883"><ele>63.0</ele><time>2026-04-04T10:34:41.579Z</time></trkpt><trkpt lat="38.018615" lon="16.0743117"><ele>63.0</ele><time>2026-04-04T10:34:42.579Z</time></trkpt><trkpt lat="38.0185383" lon="16.07423"><ele>63.0</ele><time>2026-04-04T10:34:43.579Z</time></trkpt><trkpt lat="38.018465" lon="16.074135"><ele>63.0</ele><time>2026-04-04T10:34:44.579Z</time></trkpt><trkpt lat="38.0183967" lon="16.074025"><ele>63.4</ele><time>2026-04-04T10:34:45.579Z</time></trkpt><trkpt lat="38.0183417" lon="16.0739167"><ele>63.8</ele><time>2026-04-04T10:34:46.579Z</time></trkpt><trkpt lat="38.01829" lon="16.0738017"><ele>64.2</ele><time>2026-04-04T10:34:47.579Z</time></trkpt><trkpt lat="38.0182433" lon="16.0736883"><ele>64.6</ele><time>2026-04-04T10:34:48.579Z</time></trkpt><trkpt lat="38.0182017" lon="16.0735833"><ele>65.0</ele><time>2026-04-04T10:34:49.579Z</time></trkpt><trkpt lat="38.0181767" lon="16.0734733"><ele>63.66666666666667</ele><time>2026-04-04T10:34:50.579Z</time></trkpt><trkpt lat="38.01816" lon="16.073365"><ele>62.333333333333336</ele><time>2026-04-04T10:34:51.579Z</time></trkpt><trkpt lat="38.01814" lon="16.07325"><ele>61.0</ele><time>2026-04-04T10:34:52.579Z</time></trkpt><trkpt lat="38.018125" lon="16.0731317"><ele>59.66666666666667</ele><time>2026-04-04T10:34:53.579Z</time></trkpt><trkpt lat="38.018105" lon="16.07303"><ele>58.333333333333336</ele><time>2026-04-04T10:34:54.579Z</time></trkpt><trkpt lat="38.0180983" lon="16.0729317"><ele>57.0</ele><time>2026-04-04T10:34:55.579Z</time></trkpt><trkpt lat="38.0181117" lon="16.0728467"><ele>57.0</ele><time>2026-04-04T10:34:56.579Z</time></trkpt><trkpt lat="38.0181383" lon="16.0727667"><ele>57.0</ele><time>2026-04-04T10:34:57.58Z</time></trkpt><trkpt lat="38.01819" lon="16.0727"><ele>57.0</ele><time>2026-04-04T10:34:58.579Z</time></trkpt><trkpt lat="38.0182467" lon="16.0726217"><ele>57.0</ele><time>2026-04-04T10:34:59.579Z</time></trkpt><trkpt lat="38.01831" lon="16.0725333"><ele>57.0</ele><time>2026-04-04T10:35:00.58Z</time></trkpt><trkpt lat="38.0183733" lon="16.07244"><ele>57.0</ele><time>2026-04-04T10:35:01.579Z</time></trkpt><trkpt lat="38.0184367" lon="16.07234"><ele>57.0</ele><time>2026-04-04T10:35:02.579Z</time></trkpt><trkpt lat="38.0184983" lon="16.0722533"><ele>57.0</ele><time>2026-04-04T10:35:03.58Z</time></trkpt><trkpt lat="38.0185517" lon="16.0721767"><ele>57.0</ele><time>2026-04-04T10:35:04.579Z</time></trkpt><trkpt lat="38.0185967" lon="16.0721033"><ele>57.0</ele><time>2026-04-04T10:35:05.579Z</time></trkpt><trkpt lat="38.0186233" lon="16.07203"><ele>57.0</ele><time>2026-04-04T10:35:06.58Z</time></trkpt><trkpt lat="38.0186283" lon="16.0719183"><ele>57.0</ele><time>2026-04-04T10:35:08.579Z</time></trkpt><trkpt lat="38.0186033" lon="16.071765"><ele>57.0</ele><time>2026-04-04T10:35:10.579Z</time></trkpt><trkpt lat="38.01858" lon="16.0716767"><ele>57.0</ele><time>2026-04-04T10:35:11.58Z</time></trkpt><trkpt lat="38.0185617" lon="16.07158"><ele>57.0</ele><time>2026-04-04T10:35:12.579Z</time></trkpt><trkpt lat="38.0185383" lon="16.0714783"><ele>57.0</ele><time>2026-04-04T10:35:13.579Z</time></trkpt><trkpt lat="38.018515" lon="16.071385"><ele>57.0</ele><time>2026-04-04T10:35:14.579Z</time></trkpt><trkpt lat="38.018485" lon="16.0712917"><ele>57.0</ele><time>2026-04-04T10:35:15.579Z</time></trkpt><trkpt lat="38.0184483" lon="16.071225"><ele>57.71428571428571</ele><time>2026-04-04T10:35:16.58Z</time></trkpt><trkpt lat="38.018395" lon="16.0711617"><ele>58.42857142857142</ele><time>2026-04-04T10:35:17.579Z</time></trkpt><trkpt lat="38.01834" lon="16.0711117"><ele>59.14285714285714</ele><time>2026-04-04T10:35:18.579Z</time></trkpt><trkpt lat="38.0182767" lon="16.0710767"><ele>59.85714285714286</ele><time>2026-04-04T10:35:19.579Z</time></trkpt><trkpt lat="38.01821" lon="16.0710367"><ele>60.57142857142858</ele><time>2026-04-04T10:35:20.579Z</time></trkpt><trkpt lat="38.018135" lon="16.0710133"><ele>61.28571428571429</ele><time>2026-04-04T10:35:21.579Z</time></trkpt><trkpt lat="38.01806" lon="16.070995"><ele>62.0</ele><time>2026-04-04T10:35:22.579Z</time></trkpt><trkpt lat="38.01799" lon="16.07097"><ele>62.142857142857146</ele><time>2026-04-04T10:35:23.579Z</time></trkpt><trkpt lat="38.0179217" lon="16.0709433"><ele>62.28571428571429</ele><time>2026-04-04T10:35:24.579Z</time></trkpt><trkpt lat="38.0178467" lon="16.0709183"><ele>62.42857142857143</ele><time>2026-04-04T10:35:25.579Z</time></trkpt><trkpt lat="38.0177783" lon="16.070895"><ele>62.57142857142857</ele><time>2026-04-04T10:35:26.579Z</time></trkpt><trkpt lat="38.0177133" lon="16.0708683"><ele>62.714285714285715</ele><time>2026-04-04T10:35:27.579Z</time></trkpt><trkpt lat="38.017645" lon="16.0708367"><ele>62.85714285714286</ele><time>2026-04-04T10:35:28.58Z</time></trkpt><trkpt lat="38.0175783" lon="16.0708083"><ele>63.0</ele><time>2026-04-04T10:35:29.579Z</time></trkpt><trkpt lat="38.0175133" lon="16.07078"><ele>64.0</ele><time>2026-04-04T10:35:30.579Z</time></trkpt><trkpt lat="38.017445" lon="16.0707467"><ele>65.0</ele><time>2026-04-04T10:35:31.579Z</time></trkpt><trkpt lat="38.0173667" lon="16.0707133"><ele>66.0</ele><time>2026-04-04T10:35:32.579Z</time></trkpt><trkpt lat="38.01728" lon="16.07069"><ele>67.0</ele><time>2026-04-04T10:35:33.579Z</time></trkpt><trkpt lat="38.01719" lon="16.0706617"><ele>68.0</ele><time>2026-04-04T10:35:34.579Z</time></trkpt><trkpt lat="38.0171033" lon="16.07063"><ele>69.0</ele><time>2026-04-04T10:35:35.58Z</time></trkpt><trkpt lat="38.0170383" lon="16.07059"><ele>69.0</ele><time>2026-04-04T10:35:36.579Z</time></trkpt><trkpt lat="38.0169867" lon="16.07054"><ele>69.0</ele><time>2026-04-04T10:35:37.579Z</time></trkpt><trkpt lat="38.0169117" lon="16.0704217"><ele>69.0</ele><time>2026-04-04T10:35:39.58Z</time></trkpt><trkpt lat="38.01688" lon="16.0703483"><ele>69.0</ele><time>2026-04-04T10:35:40.579Z</time></trkpt><trkpt lat="38.016845" lon="16.07027"><ele>69.0</ele><time>2026-04-04T10:35:41.579Z</time></trkpt><trkpt lat="38.0168233" lon="16.070185"><ele>69.0</ele><time>2026-04-04T10:35:42.58Z</time></trkpt><trkpt lat="38.0168167" lon="16.0700917"><ele>69.0</ele><time>2026-04-04T10:35:43.579Z</time></trkpt><trkpt lat="38.01682" lon="16.0699983"><ele>69.0</ele><time>2026-04-04T10:35:44.579Z</time></trkpt><trkpt lat="38.0168383" lon="16.0699017"><ele>69.0</ele><time>2026-04-04T10:35:45.579Z</time></trkpt><trkpt lat="38.01687" lon="16.0698083"><ele>69.0</ele><time>2026-04-04T10:35:46.58Z</time></trkpt><trkpt lat="38.0169133" lon="16.069715"><ele>69.0</ele><time>2026-04-04T10:35:47.579Z</time></trkpt><trkpt lat="38.016975" lon="16.06963"><ele>69.0</ele><time>2026-04-04T10:35:48.58Z</time></trkpt><trkpt lat="38.0170367" lon="16.0695667"><ele>69.0</ele><time>2026-04-04T10:35:49.579Z</time></trkpt><trkpt lat="38.0170983" lon="16.069515"><ele>69.0</ele><time>2026-04-04T10:35:50.579Z</time></trkpt><trkpt lat="38.017165" lon="16.0694667"><ele>69.0</ele><time>2026-04-04T10:35:51.579Z</time></trkpt><trkpt lat="38.0172367" lon="16.0694183"><ele>69.0</ele><time>2026-04-04T10:35:52.579Z</time></trkpt><trkpt lat="38.01731" lon="16.0693633"><ele>69.0</ele><time>2026-04-04T10:35:53.579Z</time></trkpt><trkpt lat="38.0173933" lon="16.0693167"><ele>69.0</ele><time>2026-04-04T10:35:54.579Z</time></trkpt><trkpt lat="38.0174667" lon="16.0692683"><ele>70.0</ele><time>2026-04-04T10:35:55.579Z</time></trkpt><trkpt lat="38.0175467" lon="16.0692117"><ele>71.0</ele><time>2026-04-04T10:35:56.579Z</time></trkpt><trkpt lat="38.01764" lon="16.06915"><ele>72.0</ele><time>2026-04-04T10:35:57.579Z</time></trkpt><trkpt lat="38.0177217" lon="16.0690933"><ele>73.0</ele><time>2026-04-04T10:35:58.579Z</time></trkpt><trkpt lat="38.0178083" lon="16.0690317"><ele>74.0</ele><time>2026-04-04T10:35:59.579Z</time></trkpt><trkpt lat="38.0178917" lon="16.0689733"><ele>74.0</ele><time>2026-04-04T10:36:00.579Z</time></trkpt><trkpt lat="38.0179783" lon="16.068905"><ele>74.0</ele><time>2026-04-04T10:36:01.579Z</time></trkpt><trkpt lat="38.01807" lon="16.068835"><ele>74.0</ele><time>2026-04-04T10:36:02.579Z</time></trkpt><trkpt lat="38.0181533" lon="16.0687633"><ele>74.0</ele><time>2026-04-04T10:36:03.579Z</time></trkpt><trkpt lat="38.0182383" lon="16.0686933"><ele>74.0</ele><time>2026-04-04T10:36:04.58Z</time></trkpt><trkpt lat="38.0183283" lon="16.0686267"><ele>75.6</ele><time>2026-04-04T10:36:05.579Z</time></trkpt><trkpt lat="38.0184117" lon="16.0685633"><ele>77.2</ele><time>2026-04-04T10:36:06.58Z</time></trkpt><trkpt lat="38.0184967" lon="16.0684917"><ele>78.8</ele><time>2026-04-04T10:36:07.579Z</time></trkpt><trkpt lat="38.018575" lon="16.06842"><ele>80.39999999999999</ele><time>2026-04-04T10:36:08.579Z</time></trkpt><trkpt lat="38.0186583" lon="16.0683567"><ele>82.0</ele><time>2026-04-04T10:36:09.579Z</time></trkpt><trkpt lat="38.0187317" lon="16.068295"><ele>81.0</ele><time>2026-04-04T10:36:10.579Z</time></trkpt><trkpt lat="38.01881" lon="16.068235"><ele>80.0</ele><time>2026-04-04T10:36:11.579Z</time></trkpt><trkpt lat="38.0188883" lon="16.0681783"><ele>79.0</ele><time>2026-04-04T10:36:12.579Z</time></trkpt><trkpt lat="38.0189683" lon="16.0681283"><ele>78.0</ele><time>2026-04-04T10:36:13.58Z</time></trkpt><trkpt lat="38.0190517" lon="16.0680867"><ele>77.0</ele><time>2026-04-04T10:36:14.58Z</time></trkpt><trkpt lat="38.01914" lon="16.0680417"><ele>78.8</ele><time>2026-04-04T10:36:15.579Z</time></trkpt><trkpt lat="38.01923" lon="16.06799"><ele>80.6</ele><time>2026-04-04T10:36:16.579Z</time></trkpt><trkpt lat="38.0193167" lon="16.0679333"><ele>82.39999999999999</ele><time>2026-04-04T10:36:17.579Z</time></trkpt><trkpt lat="38.0193983" lon="16.0678667"><ele>84.2</ele><time>2026-04-04T10:36:18.579Z</time></trkpt><trkpt lat="38.0194667" lon="16.0677817"><ele>86.0</ele><time>2026-04-04T10:36:19.58Z</time></trkpt><trkpt lat="38.019525" lon="16.067705"><ele>86.00000000000001</ele><time>2026-04-04T10:36:20.58Z</time></trkpt><trkpt lat="38.019575" lon="16.0676267"><ele>86.0</ele><time>2026-04-04T10:36:21.579Z</time></trkpt><trkpt lat="38.019625" lon="16.067555"><ele>86.0</ele><time>2026-04-04T10:36:22.579Z</time></trkpt><trkpt lat="38.0196833" lon="16.0674933"><ele>86.0</ele><time>2026-04-04T10:36:23.579Z</time></trkpt><trkpt lat="38.0197433" lon="16.0674467"><ele>86.0</ele><time>2026-04-04T10:36:24.579Z</time></trkpt><trkpt lat="38.019805" lon="16.0674133"><ele>86.00000000000001</ele><time>2026-04-04T10:36:25.579Z</time></trkpt><trkpt lat="38.0198733" lon="16.0673967"><ele>86.0</ele><time>2026-04-04T10:36:26.579Z</time></trkpt><trkpt lat="38.0199517" lon="16.0674017"><ele>87.83333333333334</ele><time>2026-04-04T10:36:27.58Z</time></trkpt><trkpt lat="38.02003" lon="16.0674267"><ele>89.66666666666667</ele><time>2026-04-04T10:36:28.58Z</time></trkpt><trkpt lat="38.0201117" lon="16.06746"><ele>91.5</ele><time>2026-04-04T10:36:29.579Z</time></trkpt><trkpt lat="38.0201883" lon="16.06751"><ele>93.33333333333334</ele><time>2026-04-04T10:36:30.579Z</time></trkpt><trkpt lat="38.020265" lon="16.0675667"><ele>95.16666666666667</ele><time>2026-04-04T10:36:31.58Z</time></trkpt><trkpt lat="38.0203333" lon="16.0676383"><ele>97.0</ele><time>2026-04-04T10:36:32.579Z</time></trkpt><trkpt lat="38.02039" lon="16.0677217"><ele>97.00000000000001</ele><time>2026-04-04T10:36:33.579Z</time></trkpt><trkpt lat="38.020435" lon="16.0678117"><ele>97.0</ele><time>2026-04-04T10:36:34.579Z</time></trkpt><trkpt lat="38.0204717" lon="16.0679"><ele>97.0</ele><time>2026-04-04T10:36:35.58Z</time></trkpt><trkpt lat="38.0205017" lon="16.0679967"><ele>97.0</ele><time>2026-04-04T10:36:36.579Z</time></trkpt><trkpt lat="38.0205383" lon="16.0680883"><ele>97.00000000000001</ele><time>2026-04-04T10:36:37.579Z</time></trkpt><trkpt lat="38.020585" lon="16.0681767"><ele>97.0</ele><time>2026-04-04T10:36:38.579Z</time></trkpt><trkpt lat="38.02063" lon="16.0682733"><ele>96.00000000000001</ele><time>2026-04-04T10:36:39.58Z</time></trkpt><trkpt lat="38.02068" lon="16.06836"><ele>95.0</ele><time>2026-04-04T10:36:40.58Z</time></trkpt><trkpt lat="38.0207383" lon="16.0684117"><ele>94.0</ele><time>2026-04-04T10:36:41.579Z</time></trkpt><trkpt lat="38.0208017" lon="16.068425"><ele>93.0</ele><time>2026-04-04T10:36:42.579Z</time></trkpt><trkpt lat="38.0208633" lon="16.0683883"><ele>92.0</ele><time>2026-04-04T10:36:43.579Z</time></trkpt><trkpt lat="38.0209067" lon="16.068295"><ele>91.0</ele><time>2026-04-04T10:36:44.579Z</time></trkpt><trkpt lat="38.0209267" lon="16.068195"><ele>94.66666666666666</ele><time>2026-04-04T10:36:45.579Z</time></trkpt><trkpt lat="38.0209383" lon="16.0680933"><ele>98.33333333333333</ele><time>2026-04-04T10:36:46.579Z</time></trkpt><trkpt lat="38.0209517" lon="16.0679817"><ele>102.0</ele><time>2026-04-04T10:36:47.58Z</time></trkpt><trkpt lat="38.0209617" lon="16.0678733"><ele>105.66666666666666</ele><time>2026-04-04T10:36:48.579Z</time></trkpt><trkpt lat="38.02098" lon="16.0677583"><ele>109.33333333333333</ele><time>2026-04-04T10:36:49.579Z</time></trkpt><trkpt lat="38.020995" lon="16.0676483"><ele>113.0</ele><time>2026-04-04T10:36:50.579Z</time></trkpt><trkpt lat="38.0210033" lon="16.0675333"><ele>113.60000000000001</ele><time>2026-04-04T10:36:51.58Z</time></trkpt><trkpt lat="38.0210217" lon="16.0674183"><ele>114.20000000000002</ele><time>2026-04-04T10:36:52.579Z</time></trkpt><trkpt lat="38.0210317" lon="16.0673033"><ele>114.8</ele><time>2026-04-04T10:36:53.579Z</time></trkpt><trkpt lat="38.02104" lon="16.06719"><ele>115.4</ele><time>2026-04-04T10:36:54.579Z</time></trkpt><trkpt lat="38.0210533" lon="16.0670717"><ele>116.0</ele><time>2026-04-04T10:36:55.58Z</time></trkpt><trkpt lat="38.021075" lon="16.066955"><ele>115.99999999999999</ele><time>2026-04-04T10:36:56.579Z</time></trkpt><trkpt lat="38.0210917" lon="16.066845"><ele>116.0</ele><time>2026-04-04T10:36:57.579Z</time></trkpt><trkpt lat="38.0211067" lon="16.0667433"><ele>116.0</ele><time>2026-04-04T10:36:58.58Z</time></trkpt><trkpt lat="38.0211183" lon="16.066635"><ele>116.0</ele><time>2026-04-04T10:36:59.579Z</time></trkpt><trkpt lat="38.0211217" lon="16.0665283"><ele>115.99999999999999</ele><time>2026-04-04T10:37:00.579Z</time></trkpt><trkpt lat="38.0211183" lon="16.0664233"><ele>116.0</ele><time>2026-04-04T10:37:01.579Z</time></trkpt><trkpt lat="38.021105" lon="16.066325"><ele>115.99999999999999</ele><time>2026-04-04T10:37:02.579Z</time></trkpt><trkpt lat="38.0210867" lon="16.066225"><ele>116.0</ele><time>2026-04-04T10:37:03.58Z</time></trkpt><trkpt lat="38.021065" lon="16.066115"><ele>116.0</ele><time>2026-04-04T10:37:04.579Z</time></trkpt><trkpt lat="38.0210333" lon="16.066"><ele>116.0</ele><time>2026-04-04T10:37:05.579Z</time></trkpt><trkpt lat="38.02103" lon="16.0658917"><ele>115.99999999999999</ele><time>2026-04-04T10:37:06.579Z</time></trkpt><trkpt lat="38.02105" lon="16.0657867"><ele>116.0</ele><time>2026-04-04T10:37:07.579Z</time></trkpt><trkpt lat="38.021075" lon="16.065685"><ele>115.33333333333333</ele><time>2026-04-04T10:37:08.579Z</time></trkpt><trkpt lat="38.02112" lon="16.06561"><ele>114.66666666666666</ele><time>2026-04-04T10:37:09.579Z</time></trkpt><trkpt lat="38.021185" lon="16.0655483"><ele>114.0</ele><time>2026-04-04T10:37:10.579Z</time></trkpt><trkpt lat="38.02126" lon="16.0654767"><ele>113.33333333333334</ele><time>2026-04-04T10:37:11.579Z</time></trkpt><trkpt lat="38.0213317" lon="16.0654167"><ele>112.66666666666667</ele><time>2026-04-04T10:37:12.579Z</time></trkpt><trkpt lat="38.0214067" lon="16.0653617"><ele>112.0</ele><time>2026-04-04T10:37:13.579Z</time></trkpt><trkpt lat="38.0214867" lon="16.0653183"><ele>112.00000000000001</ele><time>2026-04-04T10:37:14.579Z</time></trkpt><trkpt lat="38.0215683" lon="16.06527"><ele>112.0</ele><time>2026-04-04T10:37:15.579Z</time></trkpt><trkpt lat="38.0216483" lon="16.065215"><ele>112.0</ele><time>2026-04-04T10:37:16.579Z</time></trkpt><trkpt lat="38.0217217" lon="16.0651617"><ele>112.0</ele><time>2026-04-04T10:37:17.579Z</time></trkpt><trkpt lat="38.0217967" lon="16.0651083"><ele>112.00000000000001</ele><time>2026-04-04T10:37:18.58Z</time></trkpt><trkpt lat="38.02187" lon="16.0650567"><ele>112.0</ele><time>2026-04-04T10:37:19.58Z</time></trkpt><trkpt lat="38.0219467" lon="16.0650067"><ele>114.19999999999999</ele><time>2026-04-04T10:37:20.579Z</time></trkpt><trkpt lat="38.0220317" lon="16.0649517"><ele>116.39999999999999</ele><time>2026-04-04T10:37:21.579Z</time></trkpt><trkpt lat="38.0221117" lon="16.0648783"><ele>118.60000000000001</ele><time>2026-04-04T10:37:22.579Z</time></trkpt><trkpt lat="38.02219" lon="16.0648067"><ele>120.80000000000001</ele><time>2026-04-04T10:37:23.579Z</time></trkpt><trkpt lat="38.0222667" lon="16.0647333"><ele>123.0</ele><time>2026-04-04T10:37:24.58Z</time></trkpt><trkpt lat="38.022335" lon="16.06466"><ele>123.0</ele><time>2026-04-04T10:37:25.579Z</time></trkpt><trkpt lat="38.0223933" lon="16.0645683"><ele>123.00000000000001</ele><time>2026-04-04T10:37:26.58Z</time></trkpt><trkpt lat="38.0224533" lon="16.064465"><ele>123.00000000000001</ele><time>2026-04-04T10:37:27.58Z</time></trkpt><trkpt lat="38.0225" lon="16.06436"><ele>123.0</ele><time>2026-04-04T10:37:28.579Z</time></trkpt><trkpt lat="38.0225383" lon="16.0642517"><ele>123.0</ele><time>2026-04-04T10:37:29.579Z</time></trkpt><trkpt lat="38.0225667" lon="16.06415"><ele>123.14285714285717</ele><time>2026-04-04T10:37:30.579Z</time></trkpt><trkpt lat="38.022575" lon="16.0640617"><ele>123.28571428571429</ele><time>2026-04-04T10:37:31.579Z</time></trkpt><trkpt lat="38.02256" lon="16.06398"><ele>123.42857142857144</ele><time>2026-04-04T10:37:32.579Z</time></trkpt><trkpt lat="38.0225283" lon="16.0639083"><ele>123.57142857142858</ele><time>2026-04-04T10:37:33.579Z</time></trkpt><trkpt lat="38.0224667" lon="16.0638567"><ele>123.71428571428572</ele><time>2026-04-04T10:37:34.579Z</time></trkpt><trkpt lat="38.0224017" lon="16.0638117"><ele>123.85714285714286</ele><time>2026-04-04T10:37:35.579Z</time></trkpt><trkpt lat="38.0223333" lon="16.0637717"><ele>124.0</ele><time>2026-04-04T10:37:36.58Z</time></trkpt><trkpt lat="38.0222717" lon="16.0637133"><ele>124.0</ele><time>2026-04-04T10:37:37.579Z</time></trkpt><trkpt lat="38.0222267" lon="16.0636417"><ele>124.00000000000001</ele><time>2026-04-04T10:37:38.579Z</time></trkpt><trkpt lat="38.0221967" lon="16.06357"><ele>124.0</ele><time>2026-04-04T10:37:39.58Z</time></trkpt><trkpt lat="38.0221817" lon="16.0634917"><ele>124.0</ele><time>2026-04-04T10:37:40.579Z</time></trkpt><trkpt lat="38.0221917" lon="16.0634"><ele>124.00000000000001</ele><time>2026-04-04T10:37:41.579Z</time></trkpt><trkpt lat="38.0222133" lon="16.0633017"><ele>124.0</ele><time>2026-04-04T10:37:42.58Z</time></trkpt><trkpt lat="38.022255" lon="16.0631983"><ele>124.0</ele><time>2026-04-04T10:37:43.579Z</time></trkpt><trkpt lat="38.02229" lon="16.0630917"><ele>124.16666666666667</ele><time>2026-04-04T10:37:44.579Z</time></trkpt><trkpt lat="38.022325" lon="16.0629867"><ele>124.33333333333334</ele><time>2026-04-04T10:37:45.579Z</time></trkpt><trkpt lat="38.022365" lon="16.0628833"><ele>124.5</ele><time>2026-04-04T10:37:46.579Z</time></trkpt><trkpt lat="38.0224067" lon="16.0627817"><ele>124.66666666666666</ele><time>2026-04-04T10:37:47.58Z</time></trkpt><trkpt lat="38.02245" lon="16.0626817"><ele>124.83333333333333</ele><time>2026-04-04T10:37:48.579Z</time></trkpt><trkpt lat="38.022495" lon="16.0625967"><ele>125.0</ele><time>2026-04-04T10:37:49.579Z</time></trkpt><trkpt lat="38.0225483" lon="16.062525"><ele>125.49999999999999</ele><time>2026-04-04T10:37:50.579Z</time></trkpt><trkpt lat="38.0225983" lon="16.0624533"><ele>126.0</ele><time>2026-04-04T10:37:51.579Z</time></trkpt><trkpt lat="38.022655" lon="16.0623833"><ele>126.5</ele><time>2026-04-04T10:37:52.579Z</time></trkpt><trkpt lat="38.0227233" lon="16.0623167"><ele>127.0</ele><time>2026-04-04T10:37:53.579Z</time></trkpt><trkpt lat="38.0227883" lon="16.0622483"><ele>127.49999999999999</ele><time>2026-04-04T10:37:54.579Z</time></trkpt><trkpt lat="38.0228567" lon="16.0621767"><ele>128.0</ele><time>2026-04-04T10:37:55.579Z</time></trkpt><trkpt lat="38.0229183" lon="16.0621033"><ele>128.0</ele><time>2026-04-04T10:37:56.58Z</time></trkpt><trkpt lat="38.02298" lon="16.062035"><ele>128.0</ele><time>2026-04-04T10:37:57.579Z</time></trkpt><trkpt lat="38.0230533" lon="16.0619583"><ele>128.0</ele><time>2026-04-04T10:37:58.579Z</time></trkpt><trkpt lat="38.023135" lon="16.06188"><ele>128.0</ele><time>2026-04-04T10:37:59.58Z</time></trkpt><trkpt lat="38.02321" lon="16.0618033"><ele>128.0</ele><time>2026-04-04T10:38:00.579Z</time></trkpt><trkpt lat="38.0232767" lon="16.0617117"><ele>127.4</ele><time>2026-04-04T10:38:01.579Z</time></trkpt><trkpt lat="38.023335" lon="16.0616083"><ele>126.80000000000001</ele><time>2026-04-04T10:38:02.579Z</time></trkpt><trkpt lat="38.0233917" lon="16.0614967"><ele>126.2</ele><time>2026-04-04T10:38:03.579Z</time></trkpt><trkpt lat="38.023445" lon="16.061375"><ele>125.6</ele><time>2026-04-04T10:38:04.579Z</time></trkpt><trkpt lat="38.0234883" lon="16.0612667"><ele>125.0</ele><time>2026-04-04T10:38:05.579Z</time></trkpt><trkpt lat="38.02353" lon="16.0611767"><ele>124.99999999999999</ele><time>2026-04-04T10:38:06.579Z</time></trkpt><trkpt lat="38.0235867" lon="16.061095"><ele>125.0</ele><time>2026-04-04T10:38:07.579Z</time></trkpt><trkpt lat="38.023635" lon="16.0610267"><ele>125.0</ele><time>2026-04-04T10:38:08.579Z</time></trkpt><trkpt lat="38.0237" lon="16.060985"><ele>125.0</ele><time>2026-04-04T10:38:09.579Z</time></trkpt><trkpt lat="38.0237633" lon="16.0609683"><ele>124.99999999999999</ele><time>2026-04-04T10:38:10.579Z</time></trkpt><trkpt lat="38.0238367" lon="16.06098"><ele>125.0</ele><time>2026-04-04T10:38:11.579Z</time></trkpt><trkpt lat="38.0239167" lon="16.061"><ele>124.99999999999999</ele><time>2026-04-04T10:38:12.579Z</time></trkpt><trkpt lat="38.0239917" lon="16.0610283"><ele>125.0</ele><time>2026-04-04T10:38:13.579Z</time></trkpt><trkpt lat="38.024075" lon="16.06104"><ele>125.0</ele><time>2026-04-04T10:38:14.579Z</time></trkpt><trkpt lat="38.024155" lon="16.0610333"><ele>125.0</ele><time>2026-04-04T10:38:15.579Z</time></trkpt><trkpt lat="38.024245" lon="16.0610133"><ele>124.99999999999999</ele><time>2026-04-04T10:38:16.579Z</time></trkpt><trkpt lat="38.0243317" lon="16.0609933"><ele>125.0</ele><time>2026-04-04T10:38:17.58Z</time></trkpt><trkpt lat="38.024405" lon="16.0609683"><ele>125.49999999999999</ele><time>2026-04-04T10:38:18.579Z</time></trkpt><trkpt lat="38.02448" lon="16.0609267"><ele>126.0</ele><time>2026-04-04T10:38:19.579Z</time></trkpt><trkpt lat="38.0245367" lon="16.0608717"><ele>126.5</ele><time>2026-04-04T10:38:20.579Z</time></trkpt><trkpt lat="38.0245867" lon="16.0607933"><ele>127.0</ele><time>2026-04-04T10:38:21.579Z</time></trkpt><trkpt lat="38.02462" lon="16.0606967"><ele>127.49999999999999</ele><time>2026-04-04T10:38:22.579Z</time></trkpt><trkpt lat="38.0246433" lon="16.06059"><ele>128.0</ele><time>2026-04-04T10:38:23.579Z</time></trkpt><trkpt lat="38.0246567" lon="16.0604833"><ele>126.83333333333333</ele><time>2026-04-04T10:38:24.579Z</time></trkpt><trkpt lat="38.0246733" lon="16.0603667"><ele>125.66666666666666</ele><time>2026-04-04T10:38:25.58Z</time></trkpt><trkpt lat="38.024685" lon="16.060255"><ele>124.5</ele><time>2026-04-04T10:38:26.579Z</time></trkpt><trkpt lat="38.024695" lon="16.0601533"><ele>123.33333333333334</ele><time>2026-04-04T10:38:27.579Z</time></trkpt><trkpt lat="38.0247133" lon="16.06005"><ele>122.16666666666667</ele><time>2026-04-04T10:38:28.579Z</time></trkpt><trkpt lat="38.0247267" lon="16.05995"><ele>121.0</ele><time>2026-04-04T10:38:29.579Z</time></trkpt><trkpt lat="38.0247433" lon="16.0598517"><ele>120.6</ele><time>2026-04-04T10:38:30.579Z</time></trkpt><trkpt lat="38.0247583" lon="16.0597583"><ele>120.19999999999999</ele><time>2026-04-04T10:38:31.58Z</time></trkpt><trkpt lat="38.02478" lon="16.0596517"><ele>119.80000000000001</ele><time>2026-04-04T10:38:32.579Z</time></trkpt><trkpt lat="38.0248083" lon="16.059535"><ele>119.4</ele><time>2026-04-04T10:38:33.579Z</time></trkpt><trkpt lat="38.0248467" lon="16.0594167"><ele>119.0</ele><time>2026-04-04T10:38:34.579Z</time></trkpt><trkpt lat="38.0248933" lon="16.0592983"><ele>119.0</ele><time>2026-04-04T10:38:35.58Z</time></trkpt><trkpt lat="38.0249383" lon="16.059175"><ele>119.0</ele><time>2026-04-04T10:38:36.579Z</time></trkpt><trkpt lat="38.02498" lon="16.05905"><ele>119.0</ele><time>2026-04-04T10:38:37.579Z</time></trkpt><trkpt lat="38.0250267" lon="16.0589367"><ele>119.0</ele><time>2026-04-04T10:38:38.58Z</time></trkpt><trkpt lat="38.0250633" lon="16.0588233"><ele>119.0</ele><time>2026-04-04T10:38:39.579Z</time></trkpt><trkpt lat="38.0250967" lon="16.0587167"><ele>119.83333333333333</ele><time>2026-04-04T10:38:40.579Z</time></trkpt><trkpt lat="38.0251317" lon="16.058615"><ele>120.66666666666666</ele><time>2026-04-04T10:38:41.58Z</time></trkpt><trkpt lat="38.0251717" lon="16.0585133"><ele>121.5</ele><time>2026-04-04T10:38:42.58Z</time></trkpt><trkpt lat="38.0252067" lon="16.0584167"><ele>122.33333333333334</ele><time>2026-04-04T10:38:43.579Z</time></trkpt><trkpt lat="38.025245" lon="16.0583133"><ele>123.16666666666667</ele><time>2026-04-04T10:38:44.579Z</time></trkpt><trkpt lat="38.0252833" lon="16.0582217"><ele>124.0</ele><time>2026-04-04T10:38:45.579Z</time></trkpt><trkpt lat="38.0253233" lon="16.0581383"><ele>124.00000000000001</ele><time>2026-04-04T10:38:46.58Z</time></trkpt><trkpt lat="38.02537" lon="16.05805"><ele>124.0</ele><time>2026-04-04T10:38:47.579Z</time></trkpt><trkpt lat="38.025415" lon="16.0579633"><ele>124.0</ele><time>2026-04-04T10:38:48.579Z</time></trkpt><trkpt lat="38.0254633" lon="16.0578767"><ele>124.0</ele><time>2026-04-04T10:38:49.579Z</time></trkpt><trkpt lat="38.0255083" lon="16.0577833"><ele>124.00000000000001</ele><time>2026-04-04T10:38:50.579Z</time></trkpt><trkpt lat="38.0255483" lon="16.057685"><ele>124.0</ele><time>2026-04-04T10:38:51.58Z</time></trkpt><trkpt lat="38.0255833" lon="16.0575883"><ele>124.00000000000001</ele><time>2026-04-04T10:38:52.58Z</time></trkpt><trkpt lat="38.0256083" lon="16.0574983"><ele>124.0</ele><time>2026-04-04T10:38:53.579Z</time></trkpt><trkpt lat="38.0256317" lon="16.0574"><ele>124.0</ele><time>2026-04-04T10:38:54.579Z</time></trkpt><trkpt lat="38.02566" lon="16.0573083"><ele>124.0</ele><time>2026-04-04T10:38:55.579Z</time></trkpt><trkpt lat="38.0257" lon="16.057225"><ele>124.00000000000001</ele><time>2026-04-04T10:38:56.579Z</time></trkpt><trkpt lat="38.0257333" lon="16.057125"><ele>124.0</ele><time>2026-04-04T10:38:57.58Z</time></trkpt><trkpt lat="38.0257667" lon="16.0570317"><ele>122.80000000000001</ele><time>2026-04-04T10:38:58.579Z</time></trkpt><trkpt lat="38.0258117" lon="16.0569483"><ele>121.60000000000001</ele><time>2026-04-04T10:38:59.579Z</time></trkpt><trkpt lat="38.0258633" lon="16.0568683"><ele>120.4</ele><time>2026-04-04T10:39:00.579Z</time></trkpt><trkpt lat="38.0259317" lon="16.0567633"><ele>119.2</ele><time>2026-04-04T10:39:01.579Z</time></trkpt><trkpt lat="38.0260183" lon="16.0566133"><ele>118.0</ele><time>2026-04-04T10:39:02.579Z</time></trkpt><trkpt lat="38.026115" lon="16.0564883"><ele>120.60000000000001</ele><time>2026-04-04T10:39:03.58Z</time></trkpt><trkpt lat="38.0261883" lon="16.0563767"><ele>123.20000000000002</ele><time>2026-04-04T10:39:04.579Z</time></trkpt><trkpt lat="38.02626" lon="16.0562817"><ele>125.8</ele><time>2026-04-04T10:39:05.58Z</time></trkpt><trkpt lat="38.0263267" lon="16.0562033"><ele>128.4</ele><time>2026-04-04T10:39:06.579Z</time></trkpt><trkpt lat="38.0264033" lon="16.0561467"><ele>131.0</ele><time>2026-04-04T10:39:07.579Z</time></trkpt><trkpt lat="38.0264817" lon="16.056085"><ele>131.0</ele><time>2026-04-04T10:39:08.579Z</time></trkpt><trkpt lat="38.0265517" lon="16.05603"><ele>131.0</ele><time>2026-04-04T10:39:09.579Z</time></trkpt><trkpt lat="38.0266167" lon="16.0559833"><ele>131.0</ele><time>2026-04-04T10:39:10.58Z</time></trkpt><trkpt lat="38.0266733" lon="16.0559283"><ele>131.0</ele><time>2026-04-04T10:39:11.579Z</time></trkpt><trkpt lat="38.02672" lon="16.0558733"><ele>131.0</ele><time>2026-04-04T10:39:12.579Z</time></trkpt><trkpt lat="38.02679" lon="16.0557917"><ele>131.0</ele><time>2026-04-04T10:39:14.579Z</time></trkpt><trkpt lat="38.0268233" lon="16.05568"><ele>132.2</ele><time>2026-04-04T10:39:16.579Z</time></trkpt><trkpt lat="38.0268183" lon="16.055545"><ele>133.39999999999998</ele><time>2026-04-04T10:39:18.579Z</time></trkpt><trkpt lat="38.0267917" lon="16.0553983"><ele>134.6</ele><time>2026-04-04T10:39:20.579Z</time></trkpt><trkpt lat="38.0267517" lon="16.0552683"><ele>135.79999999999998</ele><time>2026-04-04T10:39:22.579Z</time></trkpt><trkpt lat="38.0266867" lon="16.055185"><ele>137.0</ele><time>2026-04-04T10:39:24.579Z</time></trkpt><trkpt lat="38.0265733" lon="16.0551267"><ele>137.0</ele><time>2026-04-04T10:39:26.58Z</time></trkpt><trkpt lat="38.0265117" lon="16.0550967"><ele>137.0</ele><time>2026-04-04T10:39:27.579Z</time></trkpt><trkpt lat="38.0264433" lon="16.0550683"><ele>137.0</ele><time>2026-04-04T10:39:28.579Z</time></trkpt><trkpt lat="38.0263767" lon="16.0550467"><ele>137.0</ele><time>2026-04-04T10:39:29.579Z</time></trkpt><trkpt lat="38.0263133" lon="16.05501"><ele>137.0</ele><time>2026-04-04T10:39:30.579Z</time></trkpt><trkpt lat="38.0262033" lon="16.05494"><ele>137.0</ele><time>2026-04-04T10:39:32.579Z</time></trkpt><trkpt lat="38.0261" lon="16.0549033"><ele>134.79999999999998</ele><time>2026-04-04T10:39:34.579Z</time></trkpt><trkpt lat="38.02603" lon="16.05485"><ele>132.6</ele><time>2026-04-04T10:39:37.58Z</time></trkpt><trkpt lat="38.02605" lon="16.054755"><ele>130.39999999999998</ele><time>2026-04-04T10:39:46.579Z</time></trkpt><trkpt lat="38.0261283" lon="16.0547333"><ele>128.2</ele><time>2026-04-04T10:39:49.579Z</time></trkpt><trkpt lat="38.026235" lon="16.0547433"><ele>126.0</ele><time>2026-04-04T10:39:51.58Z</time></trkpt><trkpt lat="38.02635" lon="16.0547567"><ele>126.0</ele><time>2026-04-04T10:39:53.579Z</time></trkpt><trkpt lat="38.0264633" lon="16.0547783"><ele>126.0</ele><time>2026-04-04T10:39:55.579Z</time></trkpt><trkpt lat="38.0265467" lon="16.0548033"><ele>126.0</ele><time>2026-04-04T10:39:57.579Z</time></trkpt><trkpt lat="38.0266133" lon="16.0548217"><ele>126.0</ele><time>2026-04-04T10:39:59.579Z</time></trkpt><trkpt lat="38.0266783" lon="16.054835"><ele>126.0</ele><time>2026-04-04T10:40:01.579Z</time></trkpt><trkpt lat="38.026785" lon="16.0548583"><ele>126.0</ele><time>2026-04-04T10:40:03.579Z</time></trkpt><trkpt lat="38.0268883" lon="16.0548867"><ele>131.8</ele><time>2026-04-04T10:40:05.579Z</time></trkpt><trkpt lat="38.0269533" lon="16.05489"><ele>137.6</ele><time>2026-04-04T10:40:06.579Z</time></trkpt><trkpt lat="38.027075" lon="16.054845"><ele>143.4</ele><time>2026-04-04T10:40:08.579Z</time></trkpt><trkpt lat="38.0271283" lon="16.054795"><ele>149.2</ele><time>2026-04-04T10:40:09.579Z</time></trkpt><trkpt lat="38.0272133" lon="16.054675"><ele>155.0</ele><time>2026-04-04T10:40:11.579Z</time></trkpt><trkpt lat="38.027255" lon="16.054605"><ele>155.0</ele><time>2026-04-04T10:40:12.579Z</time></trkpt><trkpt lat="38.027305" lon="16.05454"><ele>155.0</ele><time>2026-04-04T10:40:13.579Z</time></trkpt><trkpt lat="38.0273567" lon="16.0544783"><ele>155.0</ele><time>2026-04-04T10:40:14.579Z</time></trkpt><trkpt lat="38.0273967" lon="16.0544133"><ele>155.0</ele><time>2026-04-04T10:40:15.579Z</time></trkpt><trkpt lat="38.0274417" lon="16.054355"><ele>155.0</ele><time>2026-04-04T10:40:16.579Z</time></trkpt><trkpt lat="38.0274917" lon="16.0542967"><ele>155.0</ele><time>2026-04-04T10:40:17.58Z</time></trkpt><trkpt lat="38.0275467" lon="16.054235"><ele>155.0</ele><time>2026-04-04T10:40:18.579Z</time></trkpt><trkpt lat="38.0275983" lon="16.0541717"><ele>157.83333333333331</ele><time>2026-04-04T10:40:19.579Z</time></trkpt><trkpt lat="38.02764" lon="16.05411"><ele>160.66666666666666</ele><time>2026-04-04T10:40:20.579Z</time></trkpt><trkpt lat="38.0276883" lon="16.05405"><ele>163.5</ele><time>2026-04-04T10:40:21.579Z</time></trkpt><trkpt lat="38.0277783" lon="16.0539367"><ele>166.33333333333334</ele><time>2026-04-04T10:40:23.579Z</time></trkpt><trkpt lat="38.02782" lon="16.0538733"><ele>169.16666666666669</ele><time>2026-04-04T10:40:24.58Z</time></trkpt><trkpt lat="38.0278617" lon="16.0538083"><ele>172.0</ele><time>2026-04-04T10:40:25.578Z</time></trkpt><trkpt lat="38.0279067" lon="16.0537383"><ele>172.0</ele><time>2026-04-04T10:40:26.578Z</time></trkpt><trkpt lat="38.0279333" lon="16.0536167"><ele>172.0</ele><time>2026-04-04T10:40:28.578Z</time></trkpt><trkpt lat="38.0278667" lon="16.0534817"><ele>172.0</ele><time>2026-04-04T10:40:30.578Z</time></trkpt><trkpt lat="38.0278033" lon="16.0534333"><ele>172.0</ele><time>2026-04-04T10:40:31.578Z</time></trkpt><trkpt lat="38.0277217" lon="16.053395"><ele>172.0</ele><time>2026-04-04T10:40:32.578Z</time></trkpt><trkpt lat="38.0276333" lon="16.0533617"><ele>172.0</ele><time>2026-04-04T10:40:33.579Z</time></trkpt><trkpt lat="38.0275483" lon="16.0533333"><ele>172.0</ele><time>2026-04-04T10:40:34.578Z</time></trkpt><trkpt lat="38.02747" lon="16.0533033"><ele>172.0</ele><time>2026-04-04T10:40:35.578Z</time></trkpt><trkpt lat="38.0273817" lon="16.0532967"><ele>172.0</ele><time>2026-04-04T10:40:36.578Z</time></trkpt><trkpt lat="38.0273033" lon="16.0532783"><ele>172.0</ele><time>2026-04-04T10:40:37.578Z</time></trkpt><trkpt lat="38.0272317" lon="16.0532467"><ele>172.0</ele><time>2026-04-04T10:40:38.578Z</time></trkpt><trkpt lat="38.0271833" lon="16.0531883"><ele>165.33333333333334</ele><time>2026-04-04T10:40:39.578Z</time></trkpt><trkpt lat="38.0271633" lon="16.0530333"><ele>158.66666666666669</ele><time>2026-04-04T10:40:41.578Z</time></trkpt><trkpt lat="38.02718" lon="16.0529417"><ele>152.0</ele><time>2026-04-04T10:40:42.578Z</time></trkpt><trkpt lat="38.0272" lon="16.0528517"><ele>145.33333333333334</ele><time>2026-04-04T10:40:43.579Z</time></trkpt><trkpt lat="38.027215" lon="16.0527633"><ele>138.66666666666666</ele><time>2026-04-04T10:40:44.578Z</time></trkpt><trkpt lat="38.0272283" lon="16.0526717"><ele>132.0</ele><time>2026-04-04T10:40:45.578Z</time></trkpt><trkpt lat="38.0272383" lon="16.0525867"><ele>132.0</ele><time>2026-04-04T10:40:46.578Z</time></trkpt><trkpt lat="38.02725" lon="16.0525"><ele>132.0</ele><time>2026-04-04T10:40:47.578Z</time></trkpt><trkpt lat="38.0272633" lon="16.0524133"><ele>132.0</ele><time>2026-04-04T10:40:48.578Z</time></trkpt><trkpt lat="38.0272833" lon="16.0523267"><ele>132.0</ele><time>2026-04-04T10:40:49.578Z</time></trkpt><trkpt lat="38.0272967" lon="16.0522433"><ele>132.0</ele><time>2026-04-04T10:40:50.579Z</time></trkpt><trkpt lat="38.0273167" lon="16.05216"><ele>132.0</ele><time>2026-04-04T10:40:51.578Z</time></trkpt><trkpt lat="38.02734" lon="16.0520733"><ele>132.0</ele><time>2026-04-04T10:40:52.579Z</time></trkpt><trkpt lat="38.0274183" lon="16.0519383"><ele>134.66666666666666</ele><time>2026-04-04T10:40:54.578Z</time></trkpt><trkpt lat="38.027475" lon="16.0518817"><ele>137.33333333333334</ele><time>2026-04-04T10:40:55.578Z</time></trkpt><trkpt lat="38.0275333" lon="16.0518267"><ele>140.0</ele><time>2026-04-04T10:40:56.578Z</time></trkpt><trkpt lat="38.02759" lon="16.0517767"><ele>142.66666666666669</ele><time>2026-04-04T10:40:57.579Z</time></trkpt><trkpt lat="38.0276883" lon="16.0517033"><ele>145.33333333333334</ele><time>2026-04-04T10:40:59.578Z</time></trkpt><trkpt lat="38.0277633" lon="16.0516183"><ele>148.0</ele><time>2026-04-04T10:41:01.578Z</time></trkpt><trkpt lat="38.0278633" lon="16.0515417"><ele>158.4</ele><time>2026-04-04T10:41:03.579Z</time></trkpt><trkpt lat="38.0279533" lon="16.051455"><ele>168.8</ele><time>2026-04-04T10:41:05.579Z</time></trkpt><trkpt lat="38.0280233" lon="16.0513683"><ele>179.2</ele><time>2026-04-04T10:41:07.578Z</time></trkpt><trkpt lat="38.02811" lon="16.05128"><ele>189.6</ele><time>2026-04-04T10:41:09.578Z</time></trkpt><trkpt lat="38.0281983" lon="16.0511833"><ele>200.0</ele><time>2026-04-04T10:41:11.578Z</time></trkpt><trkpt lat="38.0282767" lon="16.0510817"><ele>201.4</ele><time>2026-04-04T10:41:13.578Z</time></trkpt><trkpt lat="38.0283433" lon="16.0509817"><ele>202.8</ele><time>2026-04-04T10:41:15.579Z</time></trkpt><trkpt lat="38.0284033" lon="16.0508833"><ele>204.2</ele><time>2026-04-04T10:41:17.579Z</time></trkpt><trkpt lat="38.028485" lon="16.0507983"><ele>205.6</ele><time>2026-04-04T10:41:19.579Z</time></trkpt><trkpt lat="38.0285533" lon="16.0507017"><ele>207.0</ele><time>2026-04-04T10:41:21.578Z</time></trkpt><trkpt lat="38.0286167" lon="16.0506017"><ele>208.2</ele><time>2026-04-04T10:41:23.578Z</time></trkpt><trkpt lat="38.028685" lon="16.0504917"><ele>209.39999999999998</ele><time>2026-04-04T10:41:25.578Z</time></trkpt><trkpt lat="38.028755" lon="16.050385"><ele>210.60000000000002</ele><time>2026-04-04T10:41:27.578Z</time></trkpt><trkpt lat="38.0288117" lon="16.0502867"><ele>211.8</ele><time>2026-04-04T10:41:29.578Z</time></trkpt><trkpt lat="38.028875" lon="16.0501867"><ele>213.0</ele><time>2026-04-04T10:41:31.578Z</time></trkpt><trkpt lat="38.0289633" lon="16.0501133"><ele>213.0</ele><time>2026-04-04T10:41:33.579Z</time></trkpt><trkpt lat="38.0290733" lon="16.0500767"><ele>213.0</ele><time>2026-04-04T10:41:35.578Z</time></trkpt><trkpt lat="38.0291817" lon="16.050085"><ele>213.0</ele><time>2026-04-04T10:41:37.579Z</time></trkpt><trkpt lat="38.02928" lon="16.0500833"><ele>213.0</ele><time>2026-04-04T10:41:39.578Z</time></trkpt><trkpt lat="38.0293817" lon="16.0500933"><ele>213.0</ele><time>2026-04-04T10:41:41.578Z</time></trkpt><trkpt lat="38.0294983" lon="16.0501033"><ele>213.33333333333334</ele><time>2026-04-04T10:41:43.579Z</time></trkpt><trkpt lat="38.0296183" lon="16.0501233"><ele>213.66666666666669</ele><time>2026-04-04T10:41:45.578Z</time></trkpt><trkpt lat="38.0296817" lon="16.0501367"><ele>214.0</ele><time>2026-04-04T10:41:46.578Z</time></trkpt><trkpt lat="38.0297483" lon="16.0501567"><ele>214.33333333333334</ele><time>2026-04-04T10:41:47.578Z</time></trkpt><trkpt lat="38.0298117" lon="16.05018"><ele>214.66666666666669</ele><time>2026-04-04T10:41:48.578Z</time></trkpt><trkpt lat="38.0298767" lon="16.0502117"><ele>215.0</ele><time>2026-04-04T10:41:49.578Z</time></trkpt><trkpt lat="38.02994" lon="16.05025"><ele>216.33333333333334</ele><time>2026-04-04T10:41:50.578Z</time></trkpt><trkpt lat="38.0300017" lon="16.05029"><ele>217.66666666666669</ele><time>2026-04-04T10:41:51.578Z</time></trkpt><trkpt lat="38.0300717" lon="16.0503333"><ele>219.0</ele><time>2026-04-04T10:41:52.578Z</time></trkpt><trkpt lat="38.0301417" lon="16.05037"><ele>220.33333333333331</ele><time>2026-04-04T10:41:53.578Z</time></trkpt><trkpt lat="38.03021" lon="16.050395"><ele>221.66666666666666</ele><time>2026-04-04T10:41:54.578Z</time></trkpt><trkpt lat="38.0302733" lon="16.0504167"><ele>223.0</ele><time>2026-04-04T10:41:55.578Z</time></trkpt><trkpt lat="38.030375" lon="16.0504533"><ele>223.0</ele><time>2026-04-04T10:41:57.578Z</time></trkpt><trkpt lat="38.0304667" lon="16.0504683"><ele>223.0</ele><time>2026-04-04T10:42:00.578Z</time></trkpt><trkpt lat="38.0305533" lon="16.0504883"><ele>223.0</ele><time>2026-04-04T10:42:02.578Z</time></trkpt><trkpt lat="38.0306533" lon="16.050535"><ele>223.0</ele><time>2026-04-04T10:42:04.578Z</time></trkpt><trkpt lat="38.03075" lon="16.0505817"><ele>223.0</ele><time>2026-04-04T10:42:06.578Z</time></trkpt><trkpt lat="38.0308417" lon="16.0506183"><ele>225.0</ele><time>2026-04-04T10:42:08.578Z</time></trkpt><trkpt lat="38.030945" lon="16.0506617"><ele>227.0</ele><time>2026-04-04T10:42:10.578Z</time></trkpt><trkpt lat="38.03107" lon="16.05068"><ele>229.0</ele><time>2026-04-04T10:42:12.578Z</time></trkpt><trkpt lat="38.03119" lon="16.0506983"><ele>231.0</ele><time>2026-04-04T10:42:14.578Z</time></trkpt><trkpt lat="38.0312533" lon="16.0507017"><ele>233.0</ele><time>2026-04-04T10:42:15.578Z</time></trkpt><trkpt lat="38.03132" lon="16.0506917"><ele>233.0</ele><time>2026-04-04T10:42:16.578Z</time></trkpt><trkpt lat="38.03139" lon="16.050675"><ele>233.0</ele><time>2026-04-04T10:42:17.579Z</time></trkpt><trkpt lat="38.03146" lon="16.0506367"><ele>233.0</ele><time>2026-04-04T10:42:18.578Z</time></trkpt><trkpt lat="38.031535" lon="16.0505967"><ele>233.0</ele><time>2026-04-04T10:42:19.578Z</time></trkpt><trkpt lat="38.0315983" lon="16.0505667"><ele>233.0</ele><time>2026-04-04T10:42:20.578Z</time></trkpt><trkpt lat="38.0316633" lon="16.0505533"><ele>233.0</ele><time>2026-04-04T10:42:21.578Z</time></trkpt><trkpt lat="38.03173" lon="16.0505583"><ele>233.0</ele><time>2026-04-04T10:42:22.578Z</time></trkpt><trkpt lat="38.0317967" lon="16.050585"><ele>232.66666666666669</ele><time>2026-04-04T10:42:23.578Z</time></trkpt><trkpt lat="38.0318667" lon="16.0506267"><ele>232.33333333333334</ele><time>2026-04-04T10:42:24.578Z</time></trkpt><trkpt lat="38.0319333" lon="16.050665"><ele>232.0</ele><time>2026-04-04T10:42:25.578Z</time></trkpt><trkpt lat="38.032" lon="16.0507117"><ele>231.66666666666669</ele><time>2026-04-04T10:42:26.578Z</time></trkpt><trkpt lat="38.032065" lon="16.0507583"><ele>231.33333333333334</ele><time>2026-04-04T10:42:27.578Z</time></trkpt><trkpt lat="38.0321317" lon="16.0508067"><ele>231.0</ele><time>2026-04-04T10:42:28.578Z</time></trkpt><trkpt lat="38.0321983" lon="16.050855"><ele>231.0</ele><time>2026-04-04T10:42:29.578Z</time></trkpt><trkpt lat="38.032265" lon="16.0509133"><ele>231.0</ele><time>2026-04-04T10:42:30.578Z</time></trkpt><trkpt lat="38.03232" lon="16.0509683"><ele>231.0</ele><time>2026-04-04T10:42:31.579Z</time></trkpt><trkpt lat="38.03237" lon="16.05103"><ele>231.0</ele><time>2026-04-04T10:42:32.578Z</time></trkpt><trkpt lat="38.032425" lon="16.0510967"><ele>231.0</ele><time>2026-04-04T10:42:33.578Z</time></trkpt><trkpt lat="38.0324783" lon="16.0511517"><ele>231.0</ele><time>2026-04-04T10:42:34.578Z</time></trkpt><trkpt lat="38.0325367" lon="16.05121"><ele>231.0</ele><time>2026-04-04T10:42:35.578Z</time></trkpt><trkpt lat="38.0326033" lon="16.051255"><ele>231.0</ele><time>2026-04-04T10:42:36.578Z</time></trkpt><trkpt lat="38.03268" lon="16.051295"><ele>231.0</ele><time>2026-04-04T10:42:37.578Z</time></trkpt><trkpt lat="38.032755" lon="16.05133"><ele>231.0</ele><time>2026-04-04T10:42:38.578Z</time></trkpt><trkpt lat="38.03283" lon="16.0513567"><ele>231.0</ele><time>2026-04-04T10:42:39.579Z</time></trkpt><trkpt lat="38.0329" lon="16.051385"><ele>231.0</ele><time>2026-04-04T10:42:40.579Z</time></trkpt><trkpt lat="38.032975" lon="16.05141"><ele>231.0</ele><time>2026-04-04T10:42:41.578Z</time></trkpt><trkpt lat="38.0330467" lon="16.0514267"><ele>231.0</ele><time>2026-04-04T10:42:42.578Z</time></trkpt><trkpt lat="38.0331167" lon="16.05145"><ele>231.0</ele><time>2026-04-04T10:42:43.578Z</time></trkpt><trkpt lat="38.0331833" lon="16.0514783"><ele>231.0</ele><time>2026-04-04T10:42:44.578Z</time></trkpt><trkpt lat="38.0332483" lon="16.0515167"><ele>231.0</ele><time>2026-04-04T10:42:45.579Z</time></trkpt><trkpt lat="38.033305" lon="16.0515717"><ele>231.0</ele><time>2026-04-04T10:42:46.578Z</time></trkpt><trkpt lat="38.0333533" lon="16.0516417"><ele>231.0</ele><time>2026-04-04T10:42:47.578Z</time></trkpt><trkpt lat="38.0333917" lon="16.05172"><ele>231.0</ele><time>2026-04-04T10:42:48.578Z</time></trkpt><trkpt lat="38.0334217" lon="16.0518117"><ele>232.16666666666666</ele><time>2026-04-04T10:42:49.578Z</time></trkpt><trkpt lat="38.033455" lon="16.0519067"><ele>233.33333333333331</ele><time>2026-04-04T10:42:50.578Z</time></trkpt><trkpt lat="38.0334817" lon="16.052"><ele>234.5</ele><time>2026-04-04T10:42:51.578Z</time></trkpt><trkpt lat="38.0335017" lon="16.0520983"><ele>235.66666666666666</ele><time>2026-04-04T10:42:52.578Z</time></trkpt><trkpt lat="38.0335133" lon="16.052195"><ele>236.83333333333331</ele><time>2026-04-04T10:42:53.578Z</time></trkpt><trkpt lat="38.0335117" lon="16.05229"><ele>238.0</ele><time>2026-04-04T10:42:54.578Z</time></trkpt><trkpt lat="38.0334967" lon="16.052375"><ele>239.0</ele><time>2026-04-04T10:42:55.578Z</time></trkpt><trkpt lat="38.0335" lon="16.0525067"><ele>240.0</ele><time>2026-04-04T10:42:57.578Z</time></trkpt><trkpt lat="38.03356" lon="16.0525717"><ele>241.0</ele><time>2026-04-04T10:42:59.578Z</time></trkpt><trkpt lat="38.0336633" lon="16.0525633"><ele>242.0</ele><time>2026-04-04T10:43:01.578Z</time></trkpt><trkpt lat="38.0337317" lon="16.05255"><ele>243.0</ele><time>2026-04-04T10:43:02.578Z</time></trkpt><trkpt lat="38.0338533" lon="16.05254"><ele>243.0</ele><time>2026-04-04T10:43:04.578Z</time></trkpt><trkpt lat="38.0339717" lon="16.052515"><ele>243.0</ele><time>2026-04-04T10:43:06.579Z</time></trkpt><trkpt lat="38.0340367" lon="16.052505"><ele>243.0</ele><time>2026-04-04T10:43:07.578Z</time></trkpt><trkpt lat="38.0341467" lon="16.0525017"><ele>243.0</ele><time>2026-04-04T10:43:09.578Z</time></trkpt><trkpt lat="38.0342583" lon="16.05249"><ele>243.0</ele><time>2026-04-04T10:43:11.579Z</time></trkpt><trkpt lat="38.03437" lon="16.0524867"><ele>242.2</ele><time>2026-04-04T10:43:13.578Z</time></trkpt><trkpt lat="38.0344767" lon="16.0524517"><ele>241.4</ele><time>2026-04-04T10:43:15.578Z</time></trkpt><trkpt lat="38.0345867" lon="16.0524117"><ele>240.59999999999997</ele><time>2026-04-04T10:43:17.578Z</time></trkpt><trkpt lat="38.0346833" lon="16.0523833"><ele>239.79999999999998</ele><time>2026-04-04T10:43:19.579Z</time></trkpt><trkpt lat="38.0347917" lon="16.0523767"><ele>239.0</ele><time>2026-04-04T10:43:21.578Z</time></trkpt><trkpt lat="38.034895" lon="16.0523917"><ele>239.6</ele><time>2026-04-04T10:43:23.579Z</time></trkpt><trkpt lat="38.0350033" lon="16.0524133"><ele>240.2</ele><time>2026-04-04T10:43:25.579Z</time></trkpt><trkpt lat="38.03511" lon="16.05243"><ele>240.79999999999998</ele><time>2026-04-04T10:43:27.579Z</time></trkpt><trkpt lat="38.0352133" lon="16.0524367"><ele>241.39999999999998</ele><time>2026-04-04T10:43:29.578Z</time></trkpt><trkpt lat="38.0352983" lon="16.0524517"><ele>242.0</ele><time>2026-04-04T10:43:31.578Z</time></trkpt><trkpt lat="38.0353817" lon="16.0524667"><ele>243.50000000000003</ele><time>2026-04-04T10:43:33.578Z</time></trkpt><trkpt lat="38.0354467" lon="16.0524733"><ele>245.0</ele><time>2026-04-04T10:43:35.579Z</time></trkpt><trkpt lat="38.035535" lon="16.0524867"><ele>246.5</ele><time>2026-04-04T10:43:38.578Z</time></trkpt><trkpt lat="38.0356217" lon="16.0525067"><ele>248.0</ele><time>2026-04-04T10:43:41.578Z</time></trkpt><trkpt lat="38.03569" lon="16.052505"><ele>249.50000000000003</ele><time>2026-04-04T10:43:43.578Z</time></trkpt><trkpt lat="38.0357733" lon="16.0524817"><ele>251.0</ele><time>2026-04-04T10:43:46.578Z</time></trkpt><trkpt lat="38.0358617" lon="16.0524433"><ele>251.00000000000003</ele><time>2026-04-04T10:43:49.578Z</time></trkpt><trkpt lat="38.0359367" lon="16.0524033"><ele>251.0</ele><time>2026-04-04T10:43:51.578Z</time></trkpt><trkpt lat="38.0360083" lon="16.05235"><ele>251.0</ele><time>2026-04-04T10:43:53.578Z</time></trkpt><trkpt lat="38.0360717" lon="16.05231"><ele>251.0</ele><time>2026-04-04T10:43:55.578Z</time></trkpt><trkpt lat="38.0361383" lon="16.0522683"><ele>251.00000000000003</ele><time>2026-04-04T10:43:57.578Z</time></trkpt><trkpt lat="38.0362133" lon="16.052225"><ele>251.0</ele><time>2026-04-04T10:43:59.578Z</time></trkpt><trkpt lat="38.03628" lon="16.0521867"><ele>251.00000000000003</ele><time>2026-04-04T10:44:01.578Z</time></trkpt><trkpt lat="38.0363467" lon="16.0521417"><ele>251.0</ele><time>2026-04-04T10:44:03.578Z</time></trkpt><trkpt lat="38.0364217" lon="16.0520933"><ele>251.0</ele><time>2026-04-04T10:44:05.578Z</time></trkpt><trkpt lat="38.0365017" lon="16.0520433"><ele>251.0</ele><time>2026-04-04T10:44:07.578Z</time></trkpt><trkpt lat="38.036575" lon="16.05199"><ele>251.00000000000003</ele><time>2026-04-04T10:44:09.578Z</time></trkpt><trkpt lat="38.0366617" lon="16.0519467"><ele>251.0</ele><time>2026-04-04T10:44:11.578Z</time></trkpt><trkpt lat="38.0367583" lon="16.0519317"><ele>252.0</ele><time>2026-04-04T10:44:13.578Z</time></trkpt><trkpt lat="38.03687" lon="16.0519467"><ele>253.0</ele><time>2026-04-04T10:44:15.578Z</time></trkpt><trkpt lat="38.0369917" lon="16.051955"><ele>254.0</ele><time>2026-04-04T10:44:17.578Z</time></trkpt><trkpt lat="38.0371017" lon="16.05197"><ele>255.0</ele><time>2026-04-04T10:44:19.578Z</time></trkpt><trkpt lat="38.0372133" lon="16.0519633"><ele>255.0</ele><time>2026-04-04T10:44:21.579Z</time></trkpt><trkpt lat="38.0373367" lon="16.0519667"><ele>255.0</ele><time>2026-04-04T10:44:23.578Z</time></trkpt><trkpt lat="38.037405" lon="16.0519617"><ele>255.0</ele><time>2026-04-04T10:44:24.578Z</time></trkpt><trkpt lat="38.0374817" lon="16.0519533"><ele>255.0</ele><time>2026-04-04T10:44:25.578Z</time></trkpt><trkpt lat="38.0375533" lon="16.0519517"><ele>255.0</ele><time>2026-04-04T10:44:26.578Z</time></trkpt><trkpt lat="38.037625" lon="16.0519467"><ele>255.0</ele><time>2026-04-04T10:44:27.578Z</time></trkpt><trkpt lat="38.0376967" lon="16.0519483"><ele>255.85714285714286</ele><time>2026-04-04T10:44:28.579Z</time></trkpt><trkpt lat="38.0377733" lon="16.0519467"><ele>256.7142857142857</ele><time>2026-04-04T10:44:29.578Z</time></trkpt><trkpt lat="38.0378467" lon="16.0519433"><ele>257.57142857142856</ele><time>2026-04-04T10:44:30.578Z</time></trkpt><trkpt lat="38.0379183" lon="16.051945"><ele>258.42857142857144</ele><time>2026-04-04T10:44:31.578Z</time></trkpt><trkpt lat="38.037985" lon="16.051955"><ele>259.2857142857143</ele><time>2026-04-04T10:44:32.578Z</time></trkpt><trkpt lat="38.03806" lon="16.05195"><ele>260.14285714285717</ele><time>2026-04-04T10:44:33.578Z</time></trkpt><trkpt lat="38.03813" lon="16.0519433"><ele>261.0</ele><time>2026-04-04T10:44:34.578Z</time></trkpt><trkpt lat="38.0382" lon="16.0519217"><ele>261.0</ele><time>2026-04-04T10:44:35.578Z</time></trkpt><trkpt lat="38.0382683" lon="16.0518817"><ele>261.0</ele><time>2026-04-04T10:44:36.578Z</time></trkpt><trkpt lat="38.0383317" lon="16.0518367"><ele>261.0</ele><time>2026-04-04T10:44:37.578Z</time></trkpt><trkpt lat="38.0383883" lon="16.051775"><ele>261.0</ele><time>2026-04-04T10:44:38.579Z</time></trkpt><trkpt lat="38.03844" lon="16.0517067"><ele>261.0</ele><time>2026-04-04T10:44:39.579Z</time></trkpt><trkpt lat="38.03849" lon="16.0516417"><ele>261.0</ele><time>2026-04-04T10:44:40.578Z</time></trkpt><trkpt lat="38.0385383" lon="16.0515583"><ele>262.14285714285717</ele><time>2026-04-04T10:44:41.579Z</time></trkpt><trkpt lat="38.0385883" lon="16.0514867"><ele>263.2857142857143</ele><time>2026-04-04T10:44:42.579Z</time></trkpt><trkpt lat="38.03864" lon="16.0514183"><ele>264.42857142857144</ele><time>2026-04-04T10:44:43.579Z</time></trkpt><trkpt lat="38.0386933" lon="16.0513567"><ele>265.57142857142856</ele><time>2026-04-04T10:44:44.578Z</time></trkpt><trkpt lat="38.0387517" lon="16.0513167"><ele>266.7142857142857</ele><time>2026-04-04T10:44:45.578Z</time></trkpt><trkpt lat="38.0388183" lon="16.0513"><ele>267.8571428571429</ele><time>2026-04-04T10:44:46.578Z</time></trkpt><trkpt lat="38.03889" lon="16.05129"><ele>269.0</ele><time>2026-04-04T10:44:47.578Z</time></trkpt><trkpt lat="38.0389683" lon="16.0512883"><ele>269.0</ele><time>2026-04-04T10:44:48.578Z</time></trkpt><trkpt lat="38.03904" lon="16.051285"><ele>269.0</ele><time>2026-04-04T10:44:49.578Z</time></trkpt><trkpt lat="38.039115" lon="16.05127"><ele>269.0</ele><time>2026-04-04T10:44:50.579Z</time></trkpt><trkpt lat="38.03919" lon="16.05126"><ele>269.0</ele><time>2026-04-04T10:44:51.579Z</time></trkpt><trkpt lat="38.03926" lon="16.0512367"><ele>269.0</ele><time>2026-04-04T10:44:52.578Z</time></trkpt><trkpt lat="38.0393267" lon="16.051215"><ele>269.0</ele><time>2026-04-04T10:44:53.579Z</time></trkpt><trkpt lat="38.0393967" lon="16.0511883"><ele>269.0</ele><time>2026-04-04T10:44:54.578Z</time></trkpt><trkpt lat="38.0394717" lon="16.0511567"><ele>271.83333333333337</ele><time>2026-04-04T10:44:55.578Z</time></trkpt><trkpt lat="38.03955" lon="16.05113"><ele>274.6666666666667</ele><time>2026-04-04T10:44:56.579Z</time></trkpt><trkpt lat="38.0396267" lon="16.0511017"><ele>277.5</ele><time>2026-04-04T10:44:57.578Z</time></trkpt><trkpt lat="38.0397" lon="16.0510817"><ele>280.3333333333333</ele><time>2026-04-04T10:44:58.578Z</time></trkpt><trkpt lat="38.0397767" lon="16.0510633"><ele>283.16666666666663</ele><time>2026-04-04T10:44:59.578Z</time></trkpt><trkpt lat="38.039855" lon="16.051045"><ele>286.0</ele><time>2026-04-04T10:45:00.578Z</time></trkpt><trkpt lat="38.0399317" lon="16.051035"><ele>288.3333333333333</ele><time>2026-04-04T10:45:01.578Z</time></trkpt><trkpt lat="38.04001" lon="16.0510283"><ele>290.66666666666663</ele><time>2026-04-04T10:45:02.578Z</time></trkpt><trkpt lat="38.0400933" lon="16.0510217"><ele>293.0</ele><time>2026-04-04T10:45:03.579Z</time></trkpt><trkpt lat="38.0401767" lon="16.0510083"><ele>295.3333333333333</ele><time>2026-04-04T10:45:04.578Z</time></trkpt><trkpt lat="38.0402717" lon="16.051"><ele>297.6666666666667</ele><time>2026-04-04T10:45:05.578Z</time></trkpt><trkpt lat="38.04036" lon="16.0509983"><ele>300.0</ele><time>2026-04-04T10:45:06.578Z</time></trkpt><trkpt lat="38.0404483" lon="16.050995"><ele>300.0</ele><time>2026-04-04T10:45:07.578Z</time></trkpt><trkpt lat="38.040535" lon="16.0510033"><ele>300.0</ele><time>2026-04-04T10:45:08.578Z</time></trkpt><trkpt lat="38.040625" lon="16.05102"><ele>300.0</ele><time>2026-04-04T10:45:09.578Z</time></trkpt><trkpt lat="38.0407133" lon="16.0510367"><ele>300.0</ele><time>2026-04-04T10:45:10.578Z</time></trkpt><trkpt lat="38.0408033" lon="16.05106"><ele>300.0</ele><time>2026-04-04T10:45:11.578Z</time></trkpt><trkpt lat="38.040895" lon="16.051085"><ele>301.0</ele><time>2026-04-04T10:45:12.578Z</time></trkpt><trkpt lat="38.0409833" lon="16.0511033"><ele>302.0</ele><time>2026-04-04T10:45:13.578Z</time></trkpt><trkpt lat="38.0410583" lon="16.05112"><ele>303.0</ele><time>2026-04-04T10:45:14.578Z</time></trkpt><trkpt lat="38.04113" lon="16.0511333"><ele>304.0</ele><time>2026-04-04T10:45:15.578Z</time></trkpt><trkpt lat="38.0412033" lon="16.0511383"><ele>305.0</ele><time>2026-04-04T10:45:16.578Z</time></trkpt><trkpt lat="38.0412667" lon="16.0511367"><ele>306.0</ele><time>2026-04-04T10:45:17.578Z</time></trkpt><trkpt lat="38.041375" lon="16.051105"><ele>306.0</ele><time>2026-04-04T10:45:19.578Z</time></trkpt><trkpt lat="38.0414833" lon="16.0510067"><ele>306.0</ele><time>2026-04-04T10:45:21.578Z</time></trkpt><trkpt lat="38.0415467" lon="16.0509533"><ele>306.0</ele><time>2026-04-04T10:45:22.578Z</time></trkpt><trkpt lat="38.0416083" lon="16.0508967"><ele>306.0</ele><time>2026-04-04T10:45:23.578Z</time></trkpt><trkpt lat="38.0416717" lon="16.0508333"><ele>306.0</ele><time>2026-04-04T10:45:24.578Z</time></trkpt><trkpt lat="38.041725" lon="16.050775"><ele>306.0</ele><time>2026-04-04T10:45:25.579Z</time></trkpt><trkpt lat="38.0417767" lon="16.0507133"><ele>306.40000000000003</ele><time>2026-04-04T10:45:26.578Z</time></trkpt><trkpt lat="38.0418333" lon="16.0506633"><ele>306.8</ele><time>2026-04-04T10:45:27.578Z</time></trkpt><trkpt lat="38.0419417" lon="16.0505833"><ele>307.20000000000005</ele><time>2026-04-04T10:45:29.579Z</time></trkpt><trkpt lat="38.042005" lon="16.050555"><ele>307.6</ele><time>2026-04-04T10:45:30.579Z</time></trkpt><trkpt lat="38.042095" lon="16.05051"><ele>308.0</ele><time>2026-04-04T10:45:32.578Z</time></trkpt><trkpt lat="38.0422033" lon="16.050475"><ele>308.0</ele><time>2026-04-04T10:45:34.578Z</time></trkpt><trkpt lat="38.04231" lon="16.0504333"><ele>308.0</ele><time>2026-04-04T10:45:36.578Z</time></trkpt><trkpt lat="38.0423833" lon="16.050395"><ele>308.0</ele><time>2026-04-04T10:45:38.578Z</time></trkpt><trkpt lat="38.0424617" lon="16.050345"><ele>308.0</ele><time>2026-04-04T10:45:41.578Z</time></trkpt><trkpt lat="38.0425383" lon="16.0503017"><ele>308.0</ele><time>2026-04-04T10:45:43.578Z</time></trkpt><trkpt lat="38.0426183" lon="16.050275"><ele>308.0</ele><time>2026-04-04T10:45:45.578Z</time></trkpt><trkpt lat="38.04271" lon="16.0502533"><ele>306.0</ele><time>2026-04-04T10:45:47.578Z</time></trkpt><trkpt lat="38.0428083" lon="16.050215"><ele>304.0</ele><time>2026-04-04T10:45:49.578Z</time></trkpt><trkpt lat="38.042915" lon="16.05017"><ele>302.0</ele><time>2026-04-04T10:45:51.578Z</time></trkpt><trkpt lat="38.0430283" lon="16.0501267"><ele>300.0</ele><time>2026-04-04T10:45:53.579Z</time></trkpt><trkpt lat="38.04309" lon="16.0501083"><ele>298.0</ele><time>2026-04-04T10:45:54.578Z</time></trkpt><trkpt lat="38.0431567" lon="16.050085"><ele>298.0</ele><time>2026-04-04T10:45:55.578Z</time></trkpt><trkpt lat="38.0432667" lon="16.05003"><ele>298.0</ele><time>2026-04-04T10:45:57.578Z</time></trkpt><trkpt lat="38.0433817" lon="16.0499783"><ele>298.0</ele><time>2026-04-04T10:45:59.578Z</time></trkpt><trkpt lat="38.0434483" lon="16.0499467"><ele>298.0</ele><time>2026-04-04T10:46:00.578Z</time></trkpt><trkpt lat="38.0435217" lon="16.0499067"><ele>298.0</ele><time>2026-04-04T10:46:01.578Z</time></trkpt><trkpt lat="38.0436" lon="16.0498683"><ele>297.5</ele><time>2026-04-04T10:46:02.578Z</time></trkpt><trkpt lat="38.043685" lon="16.0498367"><ele>297.0</ele><time>2026-04-04T10:46:03.578Z</time></trkpt><trkpt lat="38.0437733" lon="16.049805"><ele>296.5</ele><time>2026-04-04T10:46:04.579Z</time></trkpt><trkpt lat="38.0438583" lon="16.04978"><ele>296.0</ele><time>2026-04-04T10:46:05.578Z</time></trkpt><trkpt lat="38.0439433" lon="16.0497533"><ele>295.5</ele><time>2026-04-04T10:46:06.578Z</time></trkpt><trkpt lat="38.0440267" lon="16.0497267"><ele>295.0</ele><time>2026-04-04T10:46:07.578Z</time></trkpt><trkpt lat="38.0441183" lon="16.0497083"><ele>293.2</ele><time>2026-04-04T10:46:08.578Z</time></trkpt><trkpt lat="38.0442067" lon="16.0496983"><ele>291.4</ele><time>2026-04-04T10:46:09.579Z</time></trkpt><trkpt lat="38.0442983" lon="16.049695"><ele>289.6</ele><time>2026-04-04T10:46:10.578Z</time></trkpt><trkpt lat="38.0443967" lon="16.0497117"><ele>287.8</ele><time>2026-04-04T10:46:11.578Z</time></trkpt><trkpt lat="38.0444883" lon="16.0497267"><ele>286.0</ele><time>2026-04-04T10:46:12.578Z</time></trkpt><trkpt lat="38.0445833" lon="16.049745"><ele>286.0</ele><time>2026-04-04T10:46:13.578Z</time></trkpt><trkpt lat="38.0446783" lon="16.0497617"><ele>286.0</ele><time>2026-04-04T10:46:14.578Z</time></trkpt><trkpt lat="38.0447767" lon="16.0497817"><ele>286.0</ele><time>2026-04-04T10:46:15.578Z</time></trkpt><trkpt lat="38.044875" lon="16.0498"><ele>286.0</ele><time>2026-04-04T10:46:16.579Z</time></trkpt><trkpt lat="38.0449783" lon="16.049815"><ele>286.0</ele><time>2026-04-04T10:46:17.578Z</time></trkpt><trkpt lat="38.045085" lon="16.0498283"><ele>283.8</ele><time>2026-04-04T10:46:18.578Z</time></trkpt><trkpt lat="38.0451917" lon="16.0498467"><ele>281.6</ele><time>2026-04-04T10:46:19.579Z</time></trkpt><trkpt lat="38.0453" lon="16.0498617"><ele>279.4</ele><time>2026-04-04T10:46:20.579Z</time></trkpt><trkpt lat="38.0454133" lon="16.04988"><ele>277.2</ele><time>2026-04-04T10:46:21.578Z</time></trkpt><trkpt lat="38.0455233" lon="16.0498967"><ele>275.0</ele><time>2026-04-04T10:46:22.578Z</time></trkpt><trkpt lat="38.0456283" lon="16.0499083"><ele>275.0</ele><time>2026-04-04T10:46:23.579Z</time></trkpt><trkpt lat="38.0457217" lon="16.0499267"><ele>275.0</ele><time>2026-04-04T10:46:24.578Z</time></trkpt><trkpt lat="38.0457967" lon="16.049945"><ele>275.0</ele><time>2026-04-04T10:46:25.578Z</time></trkpt><trkpt lat="38.04587" lon="16.0499533"><ele>275.0</ele><time>2026-04-04T10:46:26.578Z</time></trkpt><trkpt lat="38.0460017" lon="16.0499717"><ele>275.0</ele><time>2026-04-04T10:46:28.578Z</time></trkpt><trkpt lat="38.04607" lon="16.0499833"><ele>275.0</ele><time>2026-04-04T10:46:29.578Z</time></trkpt><trkpt lat="38.0461383" lon="16.0500017"><ele>272.33333333333337</ele><time>2026-04-04T10:46:30.578Z</time></trkpt><trkpt lat="38.0462" lon="16.0500367"><ele>269.6666666666667</ele><time>2026-04-04T10:46:31.578Z</time></trkpt><trkpt lat="38.046265" lon="16.0500783"><ele>267.0</ele><time>2026-04-04T10:46:32.578Z</time></trkpt><trkpt lat="38.0463333" lon="16.0501233"><ele>264.3333333333333</ele><time>2026-04-04T10:46:33.579Z</time></trkpt><trkpt lat="38.0464017" lon="16.0501733"><ele>261.66666666666663</ele><time>2026-04-04T10:46:34.578Z</time></trkpt><trkpt lat="38.0464683" lon="16.0502417"><ele>259.0</ele><time>2026-04-04T10:46:35.579Z</time></trkpt><trkpt lat="38.0465217" lon="16.050325"><ele>259.0</ele><time>2026-04-04T10:46:36.578Z</time></trkpt><trkpt lat="38.0465767" lon="16.0504183"><ele>259.0</ele><time>2026-04-04T10:46:37.579Z</time></trkpt><trkpt lat="38.046625" lon="16.0505167"><ele>259.0</ele><time>2026-04-04T10:46:38.578Z</time></trkpt><trkpt lat="38.0466667" lon="16.0506217"><ele>259.0</ele><time>2026-04-04T10:46:39.578Z</time></trkpt><trkpt lat="38.04671" lon="16.0507283"><ele>259.0</ele><time>2026-04-04T10:46:40.578Z</time></trkpt><trkpt lat="38.0467517" lon="16.0508433"><ele>257.2</ele><time>2026-04-04T10:46:41.578Z</time></trkpt><trkpt lat="38.0467883" lon="16.0509633"><ele>255.39999999999998</ele><time>2026-04-04T10:46:42.578Z</time></trkpt><trkpt lat="38.0468317" lon="16.05108"><ele>253.6</ele><time>2026-04-04T10:46:43.578Z</time></trkpt><trkpt lat="38.046875" lon="16.0511883"><ele>251.8</ele><time>2026-04-04T10:46:44.578Z</time></trkpt><trkpt lat="38.046915" lon="16.0512867"><ele>250.0</ele><time>2026-04-04T10:46:45.578Z</time></trkpt><trkpt lat="38.0469533" lon="16.0513767"><ele>249.99999999999997</ele><time>2026-04-04T10:46:46.579Z</time></trkpt><trkpt lat="38.04698" lon="16.05146"><ele>250.0</ele><time>2026-04-04T10:46:47.578Z</time></trkpt><trkpt lat="38.0470117" lon="16.05154"><ele>250.0</ele><time>2026-04-04T10:46:48.579Z</time></trkpt><trkpt lat="38.0470417" lon="16.05162"><ele>250.0</ele><time>2026-04-04T10:46:49.578Z</time></trkpt><trkpt lat="38.0470733" lon="16.0516967"><ele>249.99999999999997</ele><time>2026-04-04T10:46:50.579Z</time></trkpt><trkpt lat="38.0471067" lon="16.0517667"><ele>250.0</ele><time>2026-04-04T10:46:51.578Z</time></trkpt><trkpt lat="38.0471683" lon="16.0519"><ele>248.2</ele><time>2026-04-04T10:46:53.579Z</time></trkpt><trkpt lat="38.0472117" lon="16.0520283"><ele>246.4</ele><time>2026-04-04T10:46:55.579Z</time></trkpt><trkpt lat="38.0472467" lon="16.0521633"><ele>244.60000000000002</ele><time>2026-04-04T10:46:57.578Z</time></trkpt><trkpt lat="38.0472933" lon="16.0523083"><ele>242.8</ele><time>2026-04-04T10:46:59.578Z</time></trkpt><trkpt lat="38.0473267" lon="16.0523917"><ele>241.0</ele><time>2026-04-04T10:47:00.578Z</time></trkpt><trkpt lat="38.0473617" lon="16.0524817"><ele>240.83333333333331</ele><time>2026-04-04T10:47:01.578Z</time></trkpt><trkpt lat="38.0473967" lon="16.0525683"><ele>240.66666666666666</ele><time>2026-04-04T10:47:02.578Z</time></trkpt><trkpt lat="38.0474333" lon="16.0526583"><ele>240.5</ele><time>2026-04-04T10:47:03.578Z</time></trkpt><trkpt lat="38.047475" lon="16.052735"><ele>240.33333333333331</ele><time>2026-04-04T10:47:04.579Z</time></trkpt><trkpt lat="38.0475133" lon="16.052805"><ele>240.16666666666666</ele><time>2026-04-04T10:47:05.579Z</time></trkpt><trkpt lat="38.04761" lon="16.0529"><ele>240.0</ele><time>2026-04-04T10:47:07.578Z</time></trkpt><trkpt lat="38.0477133" lon="16.0529583"><ele>240.0</ele><time>2026-04-04T10:47:09.578Z</time></trkpt><trkpt lat="38.0478283" lon="16.0529767"><ele>240.0</ele><time>2026-04-04T10:47:11.578Z</time></trkpt><trkpt lat="38.0479583" lon="16.0529783"><ele>240.0</ele><time>2026-04-04T10:47:13.578Z</time></trkpt><trkpt lat="38.0480317" lon="16.0529617"><ele>240.0</ele><time>2026-04-04T10:47:14.578Z</time></trkpt><trkpt lat="38.0481183" lon="16.0529383"><ele>240.0</ele><time>2026-04-04T10:47:15.578Z</time></trkpt><trkpt lat="38.0482017" lon="16.0529117"><ele>240.4</ele><time>2026-04-04T10:47:16.578Z</time></trkpt><trkpt lat="38.0482983" lon="16.0528817"><ele>240.8</ele><time>2026-04-04T10:47:17.578Z</time></trkpt><trkpt lat="38.04839" lon="16.052855"><ele>241.2</ele><time>2026-04-04T10:47:18.579Z</time></trkpt><trkpt lat="38.0484817" lon="16.05283"><ele>241.6</ele><time>2026-04-04T10:47:19.578Z</time></trkpt><trkpt lat="38.04858" lon="16.0528"><ele>242.0</ele><time>2026-04-04T10:47:20.578Z</time></trkpt><trkpt lat="38.0486717" lon="16.0527683"><ele>242.0</ele><time>2026-04-04T10:47:21.578Z</time></trkpt><trkpt lat="38.0487783" lon="16.052735"><ele>242.0</ele><time>2026-04-04T10:47:22.579Z</time></trkpt><trkpt lat="38.048885" lon="16.0526967"><ele>242.0</ele><time>2026-04-04T10:47:23.578Z</time></trkpt><trkpt lat="38.0489883" lon="16.0526633"><ele>242.0</ele><time>2026-04-04T10:47:24.578Z</time></trkpt><trkpt lat="38.0490883" lon="16.05262"><ele>242.0</ele><time>2026-04-04T10:47:25.578Z</time></trkpt><trkpt lat="38.04918" lon="16.0525683"><ele>242.2</ele><time>2026-04-04T10:47:26.578Z</time></trkpt><trkpt lat="38.0492767" lon="16.052515"><ele>242.39999999999998</ele><time>2026-04-04T10:47:27.578Z</time></trkpt><trkpt lat="38.0493667" lon="16.0524617"><ele>242.60000000000002</ele><time>2026-04-04T10:47:28.578Z</time></trkpt><trkpt lat="38.0494483" lon="16.05241"><ele>242.8</ele><time>2026-04-04T10:47:29.578Z</time></trkpt><trkpt lat="38.049525" lon="16.0523817"><ele>243.0</ele><time>2026-04-04T10:47:30.578Z</time></trkpt><trkpt lat="38.049605" lon="16.0523917"><ele>243.0</ele><time>2026-04-04T10:47:31.578Z</time></trkpt><trkpt lat="38.0496833" lon="16.05243"><ele>243.0</ele><time>2026-04-04T10:47:32.578Z</time></trkpt><trkpt lat="38.0497633" lon="16.05248"><ele>243.0</ele><time>2026-04-04T10:47:33.578Z</time></trkpt><trkpt lat="38.049845" lon="16.0525483"><ele>243.0</ele><time>2026-04-04T10:47:34.578Z</time></trkpt><trkpt lat="38.049915" lon="16.052635"><ele>243.0</ele><time>2026-04-04T10:47:35.578Z</time></trkpt><trkpt lat="38.0499817" lon="16.0527417"><ele>244.0</ele><time>2026-04-04T10:47:36.579Z</time></trkpt><trkpt lat="38.05004" lon="16.05286"><ele>245.0</ele><time>2026-04-04T10:47:37.578Z</time></trkpt><trkpt lat="38.0500867" lon="16.0529883"><ele>246.0</ele><time>2026-04-04T10:47:38.578Z</time></trkpt><trkpt lat="38.0501317" lon="16.053125"><ele>247.0</ele><time>2026-04-04T10:47:39.578Z</time></trkpt><trkpt lat="38.050165" lon="16.0532667"><ele>245.0</ele><time>2026-04-04T10:47:40.579Z</time></trkpt><trkpt lat="38.0501983" lon="16.0534"><ele>243.0</ele><time>2026-04-04T10:47:41.578Z</time></trkpt><trkpt lat="38.0502333" lon="16.053545"><ele>241.0</ele><time>2026-04-04T10:47:42.578Z</time></trkpt><trkpt lat="38.0502667" lon="16.0536783"><ele>239.0</ele><time>2026-04-04T10:47:43.579Z</time></trkpt><trkpt lat="38.050305" lon="16.0538133"><ele>239.0</ele><time>2026-04-04T10:47:44.578Z</time></trkpt><trkpt lat="38.0503433" lon="16.0539517"><ele>239.0</ele><time>2026-04-04T10:47:45.578Z</time></trkpt><trkpt lat="38.0503867" lon="16.0540933"><ele>239.0</ele><time>2026-04-04T10:47:46.578Z</time></trkpt><trkpt lat="38.0504417" lon="16.05423"><ele>239.0</ele><time>2026-04-04T10:47:47.578Z</time></trkpt><trkpt lat="38.0505" lon="16.05437"><ele>237.25</ele><time>2026-04-04T10:47:48.578Z</time></trkpt><trkpt lat="38.0505567" lon="16.0545183"><ele>235.5</ele><time>2026-04-04T10:47:49.578Z</time></trkpt><trkpt lat="38.0506033" lon="16.0546733"><ele>233.75</ele><time>2026-04-04T10:47:50.578Z</time></trkpt><trkpt lat="38.0506483" lon="16.054835"><ele>232.0</ele><time>2026-04-04T10:47:51.578Z</time></trkpt><trkpt lat="38.0506867" lon="16.0549933"><ele>229.25</ele><time>2026-04-04T10:47:52.578Z</time></trkpt><trkpt lat="38.05073" lon="16.0551517"><ele>226.5</ele><time>2026-04-04T10:47:53.578Z</time></trkpt><trkpt lat="38.0507517" lon="16.05531"><ele>223.75</ele><time>2026-04-04T10:47:54.578Z</time></trkpt><trkpt lat="38.05077" lon="16.055455"><ele>221.0</ele><time>2026-04-04T10:47:55.578Z</time></trkpt><trkpt lat="38.0508" lon="16.0555967"><ele>220.8</ele><time>2026-04-04T10:47:56.578Z</time></trkpt><trkpt lat="38.050825" lon="16.0557267"><ele>220.60000000000002</ele><time>2026-04-04T10:47:57.578Z</time></trkpt><trkpt lat="38.05086" lon="16.055835"><ele>220.4</ele><time>2026-04-04T10:47:58.578Z</time></trkpt><trkpt lat="38.050905" lon="16.0559383"><ele>220.2</ele><time>2026-04-04T10:47:59.578Z</time></trkpt><trkpt lat="38.0509583" lon="16.0560333"><ele>220.0</ele><time>2026-04-04T10:48:00.578Z</time></trkpt><trkpt lat="38.0510133" lon="16.05613"><ele>218.6</ele><time>2026-04-04T10:48:01.579Z</time></trkpt><trkpt lat="38.05106" lon="16.0562383"><ele>217.2</ele><time>2026-04-04T10:48:02.579Z</time></trkpt><trkpt lat="38.0511167" lon="16.0563517"><ele>215.8</ele><time>2026-04-04T10:48:03.579Z</time></trkpt><trkpt lat="38.0511733" lon="16.0564817"><ele>214.4</ele><time>2026-04-04T10:48:04.578Z</time></trkpt><trkpt lat="38.0512333" lon="16.0566"><ele>213.0</ele><time>2026-04-04T10:48:05.578Z</time></trkpt><trkpt lat="38.0513067" lon="16.05671"><ele>211.4</ele><time>2026-04-04T10:48:06.578Z</time></trkpt><trkpt lat="38.051385" lon="16.056795"><ele>209.8</ele><time>2026-04-04T10:48:07.578Z</time></trkpt><trkpt lat="38.0514633" lon="16.05688"><ele>208.2</ele><time>2026-04-04T10:48:08.578Z</time></trkpt><trkpt lat="38.0515367" lon="16.056965"><ele>206.6</ele><time>2026-04-04T10:48:09.579Z</time></trkpt><trkpt lat="38.0516083" lon="16.0570517"><ele>205.0</ele><time>2026-04-04T10:48:10.578Z</time></trkpt><trkpt lat="38.0516833" lon="16.0571367"><ele>204.2</ele><time>2026-04-04T10:48:11.578Z</time></trkpt><trkpt lat="38.05175" lon="16.0572267"><ele>203.4</ele><time>2026-04-04T10:48:12.578Z</time></trkpt><trkpt lat="38.051815" lon="16.0573217"><ele>202.60000000000002</ele><time>2026-04-04T10:48:13.578Z</time></trkpt><trkpt lat="38.0518717" lon="16.0574383"><ele>201.8</ele><time>2026-04-04T10:48:14.579Z</time></trkpt><trkpt lat="38.0519283" lon="16.0575517"><ele>201.0</ele><time>2026-04-04T10:48:15.578Z</time></trkpt><trkpt lat="38.0519867" lon="16.05766"><ele>200.0</ele><time>2026-04-04T10:48:16.578Z</time></trkpt><trkpt lat="38.0520567" lon="16.057765"><ele>199.0</ele><time>2026-04-04T10:48:17.578Z</time></trkpt><trkpt lat="38.0521417" lon="16.0578767"><ele>198.0</ele><time>2026-04-04T10:48:18.578Z</time></trkpt><trkpt lat="38.0522267" lon="16.0579767"><ele>197.0</ele><time>2026-04-04T10:48:19.578Z</time></trkpt><trkpt lat="38.0523133" lon="16.0580867"><ele>197.0</ele><time>2026-04-04T10:48:20.578Z</time></trkpt><trkpt lat="38.0524033" lon="16.05819"><ele>197.0</ele><time>2026-04-04T10:48:21.579Z</time></trkpt><trkpt lat="38.052475" lon="16.05829"><ele>197.0</ele><time>2026-04-04T10:48:22.578Z</time></trkpt><trkpt lat="38.0525533" lon="16.0583967"><ele>197.0</ele><time>2026-04-04T10:48:23.578Z</time></trkpt><trkpt lat="38.052635" lon="16.0584933"><ele>194.25</ele><time>2026-04-04T10:48:24.579Z</time></trkpt><trkpt lat="38.0527217" lon="16.0585933"><ele>191.5</ele><time>2026-04-04T10:48:25.578Z</time></trkpt><trkpt lat="38.0528033" lon="16.05869"><ele>188.75</ele><time>2026-04-04T10:48:26.578Z</time></trkpt><trkpt lat="38.052885" lon="16.058785"><ele>186.0</ele><time>2026-04-04T10:48:27.578Z</time></trkpt><trkpt lat="38.0529783" lon="16.0588733"><ele>186.0</ele><time>2026-04-04T10:48:28.579Z</time></trkpt><trkpt lat="38.0530933" lon="16.0589433"><ele>186.0</ele><time>2026-04-04T10:48:29.578Z</time></trkpt><trkpt lat="38.053205" lon="16.0590083"><ele>186.0</ele><time>2026-04-04T10:48:30.578Z</time></trkpt><trkpt lat="38.0533133" lon="16.059075"><ele>186.0</ele><time>2026-04-04T10:48:31.578Z</time></trkpt><trkpt lat="38.0534117" lon="16.0591383"><ele>183.20000000000002</ele><time>2026-04-04T10:48:32.578Z</time></trkpt><trkpt lat="38.0535117" lon="16.0591983"><ele>180.4</ele><time>2026-04-04T10:48:33.578Z</time></trkpt><trkpt lat="38.053605" lon="16.0592583"><ele>177.6</ele><time>2026-04-04T10:48:34.579Z</time></trkpt><trkpt lat="38.0536983" lon="16.059325"><ele>174.8</ele><time>2026-04-04T10:48:35.579Z</time></trkpt><trkpt lat="38.0537867" lon="16.0593933"><ele>172.0</ele><time>2026-04-04T10:48:36.578Z</time></trkpt><trkpt lat="38.0538783" lon="16.0594633"><ele>172.0</ele><time>2026-04-04T10:48:37.579Z</time></trkpt><trkpt lat="38.053955" lon="16.0595467"><ele>172.0</ele><time>2026-04-04T10:48:38.579Z</time></trkpt><trkpt lat="38.054045" lon="16.0596383"><ele>172.0</ele><time>2026-04-04T10:48:39.578Z</time></trkpt><trkpt lat="38.0541167" lon="16.0597433"><ele>172.0</ele><time>2026-04-04T10:48:40.579Z</time></trkpt><trkpt lat="38.054195" lon="16.05985"><ele>172.0</ele><time>2026-04-04T10:48:41.578Z</time></trkpt><trkpt lat="38.054275" lon="16.05996"><ele>169.5</ele><time>2026-04-04T10:48:42.578Z</time></trkpt><trkpt lat="38.0543567" lon="16.060065"><ele>167.0</ele><time>2026-04-04T10:48:43.578Z</time></trkpt><trkpt lat="38.0544333" lon="16.0601683"><ele>164.5</ele><time>2026-04-04T10:48:44.578Z</time></trkpt><trkpt lat="38.0545133" lon="16.0602717"><ele>162.0</ele><time>2026-04-04T10:48:45.579Z</time></trkpt><trkpt lat="38.054595" lon="16.0603683"><ele>162.0</ele><time>2026-04-04T10:48:46.578Z</time></trkpt><trkpt lat="38.0546767" lon="16.0604683"><ele>162.0</ele><time>2026-04-04T10:48:47.578Z</time></trkpt><trkpt lat="38.05477" lon="16.0605583"><ele>162.0</ele><time>2026-04-04T10:48:48.579Z</time></trkpt><trkpt lat="38.0548633" lon="16.0606467"><ele>162.0</ele><time>2026-04-04T10:48:49.579Z</time></trkpt><trkpt lat="38.054955" lon="16.06073"><ele>157.75</ele><time>2026-04-04T10:48:50.578Z</time></trkpt><trkpt lat="38.0550483" lon="16.0608183"><ele>153.5</ele><time>2026-04-04T10:48:51.578Z</time></trkpt><trkpt lat="38.05514" lon="16.06091"><ele>149.25</ele><time>2026-04-04T10:48:52.579Z</time></trkpt><trkpt lat="38.0552367" lon="16.0610083"><ele>145.0</ele><time>2026-04-04T10:48:53.578Z</time></trkpt><trkpt lat="38.0553433" lon="16.061105"><ele>145.0</ele><time>2026-04-04T10:48:54.579Z</time></trkpt><trkpt lat="38.0554467" lon="16.0612033"><ele>145.0</ele><time>2026-04-04T10:48:55.578Z</time></trkpt><trkpt lat="38.055555" lon="16.0613067"><ele>145.0</ele><time>2026-04-04T10:48:56.578Z</time></trkpt><trkpt lat="38.055655" lon="16.0613983"><ele>145.0</ele><time>2026-04-04T10:48:57.579Z</time></trkpt><trkpt lat="38.0557533" lon="16.061485"><ele>142.5</ele><time>2026-04-04T10:48:58.578Z</time></trkpt><trkpt lat="38.0558717" lon="16.0615767"><ele>140.0</ele><time>2026-04-04T10:48:59.578Z</time></trkpt><trkpt lat="38.0559767" lon="16.0616583"><ele>137.5</ele><time>2026-04-04T10:49:00.578Z</time></trkpt><trkpt lat="38.0560817" lon="16.0617283"><ele>135.0</ele><time>2026-04-04T10:49:01.579Z</time></trkpt><trkpt lat="38.0561833" lon="16.0617967"><ele>133.6</ele><time>2026-04-04T10:49:02.578Z</time></trkpt><trkpt lat="38.05628" lon="16.06185"><ele>132.2</ele><time>2026-04-04T10:49:03.578Z</time></trkpt><trkpt lat="38.05637" lon="16.061875"><ele>130.8</ele><time>2026-04-04T10:49:04.579Z</time></trkpt><trkpt lat="38.0564717" lon="16.061885"><ele>129.4</ele><time>2026-04-04T10:49:05.578Z</time></trkpt><trkpt lat="38.0565783" lon="16.0618783"><ele>128.0</ele><time>2026-04-04T10:49:06.578Z</time></trkpt><trkpt lat="38.0566817" lon="16.061865"><ele>125.4</ele><time>2026-04-04T10:49:07.578Z</time></trkpt><trkpt lat="38.0567833" lon="16.0618667"><ele>122.80000000000001</ele><time>2026-04-04T10:49:08.578Z</time></trkpt><trkpt lat="38.0568917" lon="16.0618783"><ele>120.2</ele><time>2026-04-04T10:49:09.579Z</time></trkpt><trkpt lat="38.0569867" lon="16.0618967"><ele>117.6</ele><time>2026-04-04T10:49:10.579Z</time></trkpt><trkpt lat="38.0570833" lon="16.06192"><ele>115.0</ele><time>2026-04-04T10:49:11.579Z</time></trkpt><trkpt lat="38.057175" lon="16.061925"><ele>115.0</ele><time>2026-04-04T10:49:12.579Z</time></trkpt><trkpt lat="38.05726" lon="16.0619283"><ele>115.0</ele><time>2026-04-04T10:49:13.578Z</time></trkpt><trkpt lat="38.0573367" lon="16.0619333"><ele>115.0</ele><time>2026-04-04T10:49:14.578Z</time></trkpt><trkpt lat="38.0574467" lon="16.0619533"><ele>115.0</ele><time>2026-04-04T10:49:16.578Z</time></trkpt><trkpt lat="38.0575167" lon="16.06198"><ele>115.0</ele><time>2026-04-04T10:49:18.578Z</time></trkpt><trkpt lat="38.057635" lon="16.0620033"><ele>115.16666666666667</ele><time>2026-04-04T10:49:20.578Z</time></trkpt><trkpt lat="38.0577533" lon="16.062015"><ele>115.33333333333334</ele><time>2026-04-04T10:49:22.579Z</time></trkpt><trkpt lat="38.0578483" lon="16.06203"><ele>115.5</ele><time>2026-04-04T10:49:24.579Z</time></trkpt><trkpt lat="38.0579117" lon="16.0620467"><ele>115.66666666666666</ele><time>2026-04-04T10:49:26.578Z</time></trkpt><trkpt lat="38.0579783" lon="16.0620667"><ele>115.83333333333333</ele><time>2026-04-04T10:49:29.578Z</time></trkpt><trkpt lat="38.05805" lon="16.0620883"><ele>116.0</ele><time>2026-04-04T10:49:32.578Z</time></trkpt><trkpt lat="38.0581217" lon="16.0621083"><ele>116.0</ele><time>2026-04-04T10:49:34.578Z</time></trkpt><trkpt lat="38.0582033" lon="16.0621283"><ele>116.0</ele><time>2026-04-04T10:49:36.578Z</time></trkpt><trkpt lat="38.05829" lon="16.06214"><ele>116.0</ele><time>2026-04-04T10:49:38.578Z</time></trkpt><trkpt lat="38.058385" lon="16.0621733"><ele>116.0</ele><time>2026-04-04T10:49:40.578Z</time></trkpt><trkpt lat="38.058485" lon="16.0622317"><ele>116.0</ele><time>2026-04-04T10:49:42.578Z</time></trkpt><trkpt lat="38.058595" lon="16.0623083"><ele>116.4</ele><time>2026-04-04T10:49:44.578Z</time></trkpt><trkpt lat="38.0586983" lon="16.0623767"><ele>116.8</ele><time>2026-04-04T10:49:46.577Z</time></trkpt><trkpt lat="38.0588117" lon="16.062445"><ele>117.20000000000002</ele><time>2026-04-04T10:49:48.577Z</time></trkpt><trkpt lat="38.05887" lon="16.06248"><ele>117.60000000000001</ele><time>2026-04-04T10:49:49.577Z</time></trkpt><trkpt lat="38.0589267" lon="16.0625217"><ele>118.0</ele><time>2026-04-04T10:49:50.577Z</time></trkpt><trkpt lat="38.0590333" lon="16.062605"><ele>117.80000000000001</ele><time>2026-04-04T10:49:52.577Z</time></trkpt><trkpt lat="38.0590883" lon="16.0626467"><ele>117.60000000000001</ele><time>2026-04-04T10:49:53.577Z</time></trkpt><trkpt lat="38.0591467" lon="16.0626867"><ele>117.39999999999999</ele><time>2026-04-04T10:49:54.577Z</time></trkpt><trkpt lat="38.059255" lon="16.0627583"><ele>117.19999999999999</ele><time>2026-04-04T10:49:56.577Z</time></trkpt><trkpt lat="38.0593167" lon="16.062785"><ele>117.0</ele><time>2026-04-04T10:49:57.577Z</time></trkpt><trkpt lat="38.0594467" lon="16.0628167"><ele>117.0</ele><time>2026-04-04T10:49:59.578Z</time></trkpt><trkpt lat="38.059515" lon="16.062835"><ele>117.0</ele><time>2026-04-04T10:50:00.577Z</time></trkpt><trkpt lat="38.059595" lon="16.0628583"><ele>117.0</ele><time>2026-04-04T10:50:01.577Z</time></trkpt><trkpt lat="38.0596767" lon="16.062875"><ele>117.0</ele><time>2026-04-04T10:50:02.577Z</time></trkpt><trkpt lat="38.0597567" lon="16.062885"><ele>117.0</ele><time>2026-04-04T10:50:03.577Z</time></trkpt><trkpt lat="38.0598367" lon="16.062895"><ele>117.0</ele><time>2026-04-04T10:50:04.578Z</time></trkpt><trkpt lat="38.0599133" lon="16.0629167"><ele>119.5</ele><time>2026-04-04T10:50:05.577Z</time></trkpt><trkpt lat="38.0599983" lon="16.0629317"><ele>122.0</ele><time>2026-04-04T10:50:06.577Z</time></trkpt><trkpt lat="38.06008" lon="16.062945"><ele>124.5</ele><time>2026-04-04T10:50:07.577Z</time></trkpt><trkpt lat="38.0601567" lon="16.06295"><ele>127.0</ele><time>2026-04-04T10:50:08.577Z</time></trkpt><trkpt lat="38.0602283" lon="16.06294"><ele>129.5</ele><time>2026-04-04T10:50:09.578Z</time></trkpt><trkpt lat="38.0602933" lon="16.0629217"><ele>132.0</ele><time>2026-04-04T10:50:10.577Z</time></trkpt><trkpt lat="38.0603833" lon="16.0628517"><ele>132.0</ele><time>2026-04-04T10:50:12.577Z</time></trkpt><trkpt lat="38.0604083" lon="16.0627083"><ele>132.0</ele><time>2026-04-04T10:50:14.578Z</time></trkpt><trkpt lat="38.06041" lon="16.0626267"><ele>132.0</ele><time>2026-04-04T10:50:15.577Z</time></trkpt><trkpt lat="38.0604183" lon="16.0625433"><ele>132.0</ele><time>2026-04-04T10:50:16.578Z</time></trkpt><trkpt lat="38.0604533" lon="16.0624333"><ele>132.0</ele><time>2026-04-04T10:50:18.578Z</time></trkpt><trkpt lat="38.0605283" lon="16.0623633"><ele>132.0</ele><time>2026-04-04T10:50:20.578Z</time></trkpt><trkpt lat="38.060615" lon="16.0623167"><ele>129.16666666666666</ele><time>2026-04-04T10:50:22.577Z</time></trkpt><trkpt lat="38.0606883" lon="16.0623067"><ele>126.33333333333334</ele><time>2026-04-04T10:50:24.577Z</time></trkpt><trkpt lat="38.0607767" lon="16.0622983"><ele>123.5</ele><time>2026-04-04T10:50:26.577Z</time></trkpt><trkpt lat="38.060875" lon="16.062295"><ele>120.66666666666667</ele><time>2026-04-04T10:50:28.577Z</time></trkpt><trkpt lat="38.060965" lon="16.062285"><ele>117.83333333333334</ele><time>2026-04-04T10:50:30.577Z</time></trkpt><trkpt lat="38.0610467" lon="16.062275"><ele>115.0</ele><time>2026-04-04T10:50:32.577Z</time></trkpt><trkpt lat="38.0611183" lon="16.06227"><ele>115.0</ele><time>2026-04-04T10:50:34.577Z</time></trkpt><trkpt lat="38.0611983" lon="16.0622617"><ele>115.0</ele><time>2026-04-04T10:50:36.577Z</time></trkpt><trkpt lat="38.0612933" lon="16.06226"><ele>115.0</ele><time>2026-04-04T10:50:38.577Z</time></trkpt><trkpt lat="38.0614083" lon="16.0622983"><ele>115.0</ele><time>2026-04-04T10:50:40.578Z</time></trkpt><trkpt lat="38.061505" lon="16.062405"><ele>115.0</ele><time>2026-04-04T10:50:42.577Z</time></trkpt><trkpt lat="38.0615533" lon="16.0624717"><ele>114.83333333333334</ele><time>2026-04-04T10:50:43.577Z</time></trkpt><trkpt lat="38.0616067" lon="16.062535"><ele>114.66666666666667</ele><time>2026-04-04T10:50:44.577Z</time></trkpt><trkpt lat="38.0616533" lon="16.0626"><ele>114.5</ele><time>2026-04-04T10:50:45.577Z</time></trkpt><trkpt lat="38.0617033" lon="16.0626633"><ele>114.33333333333334</ele><time>2026-04-04T10:50:46.577Z</time></trkpt><trkpt lat="38.06175" lon="16.0627267"><ele>114.16666666666667</ele><time>2026-04-04T10:50:47.577Z</time></trkpt><trkpt lat="38.0618083" lon="16.0628567"><ele>114.0</ele><time>2026-04-04T10:50:49.577Z</time></trkpt><trkpt lat="38.06183" lon="16.06294"><ele>114.16666666666667</ele><time>2026-04-04T10:50:50.577Z</time></trkpt><trkpt lat="38.0618533" lon="16.0630317"><ele>114.33333333333334</ele><time>2026-04-04T10:50:51.578Z</time></trkpt><trkpt lat="38.0618717" lon="16.0631267"><ele>114.5</ele><time>2026-04-04T10:50:52.577Z</time></trkpt><trkpt lat="38.0618867" lon="16.0632233"><ele>114.66666666666667</ele><time>2026-04-04T10:50:53.577Z</time></trkpt><trkpt lat="38.0619" lon="16.06333"><ele>114.83333333333334</ele><time>2026-04-04T10:50:54.577Z</time></trkpt><trkpt lat="38.0619133" lon="16.0634333"><ele>115.0</ele><time>2026-04-04T10:50:55.577Z</time></trkpt><trkpt lat="38.0619333" lon="16.0635367"><ele>115.0</ele><time>2026-04-04T10:50:56.577Z</time></trkpt><trkpt lat="38.061955" lon="16.06365"><ele>115.0</ele><time>2026-04-04T10:50:57.577Z</time></trkpt><trkpt lat="38.0619767" lon="16.06377"><ele>115.0</ele><time>2026-04-04T10:50:58.577Z</time></trkpt><trkpt lat="38.062" lon="16.0638817"><ele>115.0</ele><time>2026-04-04T10:50:59.577Z</time></trkpt><trkpt lat="38.0620133" lon="16.0639967"><ele>115.0</ele><time>2026-04-04T10:51:00.577Z</time></trkpt><trkpt lat="38.062035" lon="16.0641033"><ele>114.66666666666667</ele><time>2026-04-04T10:51:01.577Z</time></trkpt><trkpt lat="38.0620533" lon="16.0642133"><ele>114.33333333333334</ele><time>2026-04-04T10:51:02.577Z</time></trkpt><trkpt lat="38.062075" lon="16.0643167"><ele>114.0</ele><time>2026-04-04T10:51:03.577Z</time></trkpt><trkpt lat="38.06209" lon="16.0644167"><ele>113.66666666666666</ele><time>2026-04-04T10:51:04.577Z</time></trkpt><trkpt lat="38.0621" lon="16.0645217"><ele>113.33333333333333</ele><time>2026-04-04T10:51:05.577Z</time></trkpt><trkpt lat="38.0621167" lon="16.0646233"><ele>113.0</ele><time>2026-04-04T10:51:06.577Z</time></trkpt><trkpt lat="38.0621383" lon="16.0647083"><ele>112.99999999999999</ele><time>2026-04-04T10:51:07.577Z</time></trkpt><trkpt lat="38.0621567" lon="16.0648117"><ele>113.0</ele><time>2026-04-04T10:51:08.577Z</time></trkpt><trkpt lat="38.0621767" lon="16.064905"><ele>113.0</ele><time>2026-04-04T10:51:09.577Z</time></trkpt><trkpt lat="38.0622" lon="16.0649983"><ele>113.0</ele><time>2026-04-04T10:51:10.578Z</time></trkpt><trkpt lat="38.062215" lon="16.0650817"><ele>112.99999999999999</ele><time>2026-04-04T10:51:11.577Z</time></trkpt><trkpt lat="38.0622283" lon="16.0651617"><ele>113.0</ele><time>2026-04-04T10:51:12.577Z</time></trkpt><trkpt lat="38.0623017" lon="16.0652833"><ele>113.4</ele><time>2026-04-04T10:51:14.577Z</time></trkpt><trkpt lat="38.06242" lon="16.0653667"><ele>113.80000000000001</ele><time>2026-04-04T10:51:16.578Z</time></trkpt><trkpt lat="38.062505" lon="16.0653883"><ele>114.2</ele><time>2026-04-04T10:51:17.577Z</time></trkpt><trkpt lat="38.0625883" lon="16.0654017"><ele>114.6</ele><time>2026-04-04T10:51:18.577Z</time></trkpt><trkpt lat="38.0626783" lon="16.065405"><ele>115.0</ele><time>2026-04-04T10:51:19.577Z</time></trkpt><trkpt lat="38.0627783" lon="16.0654"><ele>115.0</ele><time>2026-04-04T10:51:20.577Z</time></trkpt><trkpt lat="38.0628733" lon="16.0653917"><ele>115.0</ele><time>2026-04-04T10:51:21.577Z</time></trkpt><trkpt lat="38.0629633" lon="16.0653883"><ele>115.0</ele><time>2026-04-04T10:51:22.577Z</time></trkpt><trkpt lat="38.0630617" lon="16.0653867"><ele>115.0</ele><time>2026-04-04T10:51:23.577Z</time></trkpt><trkpt lat="38.063155" lon="16.0654083"><ele>115.0</ele><time>2026-04-04T10:51:24.577Z</time></trkpt><trkpt lat="38.0632383" lon="16.0654483"><ele>115.4</ele><time>2026-04-04T10:51:25.577Z</time></trkpt><trkpt lat="38.0633117" lon="16.0654983"><ele>115.8</ele><time>2026-04-04T10:51:26.578Z</time></trkpt><trkpt lat="38.0633933" lon="16.065555"><ele>116.19999999999999</ele><time>2026-04-04T10:51:27.577Z</time></trkpt><trkpt lat="38.0634817" lon="16.065615"><ele>116.6</ele><time>2026-04-04T10:51:28.577Z</time></trkpt><trkpt lat="38.0635767" lon="16.06565"><ele>117.0</ele><time>2026-04-04T10:51:29.577Z</time></trkpt><trkpt lat="38.0636767" lon="16.0656683"><ele>117.0</ele><time>2026-04-04T10:51:30.577Z</time></trkpt><trkpt lat="38.06378" lon="16.065685"><ele>116.99999999999999</ele><time>2026-04-04T10:51:31.577Z</time></trkpt><trkpt lat="38.0638867" lon="16.0657033"><ele>116.99999999999999</ele><time>2026-04-04T10:51:32.577Z</time></trkpt><trkpt lat="38.0639867" lon="16.0657383"><ele>117.0</ele><time>2026-04-04T10:51:33.577Z</time></trkpt><trkpt lat="38.0640983" lon="16.0657683"><ele>117.0</ele><time>2026-04-04T10:51:34.577Z</time></trkpt><trkpt lat="38.064205" lon="16.0657967"><ele>117.5</ele><time>2026-04-04T10:51:35.578Z</time></trkpt><trkpt lat="38.064305" lon="16.065835"><ele>118.0</ele><time>2026-04-04T10:51:36.577Z</time></trkpt><trkpt lat="38.064395" lon="16.0658683"><ele>118.5</ele><time>2026-04-04T10:51:37.577Z</time></trkpt><trkpt lat="38.0644767" lon="16.0659033"><ele>119.0</ele><time>2026-04-04T10:51:38.577Z</time></trkpt><trkpt lat="38.0645567" lon="16.065925"><ele>119.5</ele><time>2026-04-04T10:51:39.577Z</time></trkpt><trkpt lat="38.0646333" lon="16.0659117"><ele>120.0</ele><time>2026-04-04T10:51:40.578Z</time></trkpt><trkpt lat="38.064715" lon="16.0658633"><ele>120.0</ele><time>2026-04-04T10:51:41.578Z</time></trkpt><trkpt lat="38.0647983" lon="16.0657967"><ele>120.0</ele><time>2026-04-04T10:51:42.578Z</time></trkpt><trkpt lat="38.064845" lon="16.0656933"><ele>120.0</ele><time>2026-04-04T10:51:43.577Z</time></trkpt><trkpt lat="38.064915" lon="16.0656"><ele>120.0</ele><time>2026-04-04T10:51:44.578Z</time></trkpt><trkpt lat="38.064985" lon="16.0655033"><ele>120.0</ele><time>2026-04-04T10:51:45.577Z</time></trkpt><trkpt lat="38.065045" lon="16.0653967"><ele>121.2</ele><time>2026-04-04T10:51:46.577Z</time></trkpt><trkpt lat="38.0651083" lon="16.0652917"><ele>122.4</ele><time>2026-04-04T10:51:47.577Z</time></trkpt><trkpt lat="38.0651617" lon="16.065215"><ele>123.6</ele><time>2026-04-04T10:51:48.577Z</time></trkpt><trkpt lat="38.0652583" lon="16.065215"><ele>124.8</ele><time>2026-04-04T10:51:50.578Z</time></trkpt><trkpt lat="38.0653433" lon="16.0653517"><ele>126.0</ele><time>2026-04-04T10:51:52.577Z</time></trkpt><trkpt lat="38.065395" lon="16.0654233"><ele>126.0</ele><time>2026-04-04T10:51:53.578Z</time></trkpt><trkpt lat="38.06545" lon="16.0654867"><ele>126.0</ele><time>2026-04-04T10:51:54.577Z</time></trkpt><trkpt lat="38.06552" lon="16.065525"><ele>126.0</ele><time>2026-04-04T10:51:55.577Z</time></trkpt><trkpt lat="38.06559" lon="16.0655483"><ele>126.0</ele><time>2026-04-04T10:51:56.577Z</time></trkpt><trkpt lat="38.06566" lon="16.065545"><ele>126.0</ele><time>2026-04-04T10:51:57.577Z</time></trkpt><trkpt lat="38.0657317" lon="16.0655167"><ele>126.0</ele><time>2026-04-04T10:51:58.577Z</time></trkpt><trkpt lat="38.065805" lon="16.0654783"><ele>126.0</ele><time>2026-04-04T10:51:59.577Z</time></trkpt><trkpt lat="38.0658833" lon="16.0654383"><ele>128.66666666666666</ele><time>2026-04-04T10:52:00.577Z</time></trkpt><trkpt lat="38.0659633" lon="16.0654"><ele>131.33333333333334</ele><time>2026-04-04T10:52:01.578Z</time></trkpt><trkpt lat="38.0660517" lon="16.0653717"><ele>134.0</ele><time>2026-04-04T10:52:02.577Z</time></trkpt><trkpt lat="38.06614" lon="16.06535"><ele>136.66666666666669</ele><time>2026-04-04T10:52:03.577Z</time></trkpt><trkpt lat="38.0662333" lon="16.0653717"><ele>139.33333333333334</ele><time>2026-04-04T10:52:04.578Z</time></trkpt><trkpt lat="38.0663083" lon="16.065415"><ele>142.0</ele><time>2026-04-04T10:52:05.577Z</time></trkpt><trkpt lat="38.0663867" lon="16.065495"><ele>142.0</ele><time>2026-04-04T10:52:06.577Z</time></trkpt><trkpt lat="38.0664483" lon="16.0655917"><ele>142.0</ele><time>2026-04-04T10:52:07.577Z</time></trkpt><trkpt lat="38.0665017" lon="16.0656817"><ele>142.0</ele><time>2026-04-04T10:52:08.577Z</time></trkpt><trkpt lat="38.066565" lon="16.065745"><ele>142.0</ele><time>2026-04-04T10:52:09.577Z</time></trkpt><trkpt lat="38.0666517" lon="16.065785"><ele>142.0</ele><time>2026-04-04T10:52:10.577Z</time></trkpt><trkpt lat="38.066745" lon="16.065805"><ele>145.0</ele><time>2026-04-04T10:52:11.577Z</time></trkpt><trkpt lat="38.06685" lon="16.0657983"><ele>148.0</ele><time>2026-04-04T10:52:12.577Z</time></trkpt><trkpt lat="38.0669617" lon="16.0657917"><ele>151.0</ele><time>2026-04-04T10:52:13.577Z</time></trkpt><trkpt lat="38.06707" lon="16.065795"><ele>154.0</ele><time>2026-04-04T10:52:14.577Z</time></trkpt><trkpt lat="38.0671683" lon="16.0657867"><ele>157.0</ele><time>2026-04-04T10:52:15.577Z</time></trkpt><trkpt lat="38.0672567" lon="16.0657733"><ele>158.66666666666669</ele><time>2026-04-04T10:52:16.577Z</time></trkpt><trkpt lat="38.06733" lon="16.0657417"><ele>160.33333333333334</ele><time>2026-04-04T10:52:17.577Z</time></trkpt><trkpt lat="38.067385" lon="16.065665"><ele>162.0</ele><time>2026-04-04T10:52:19.577Z</time></trkpt><trkpt lat="38.0673233" lon="16.065575"><ele>163.66666666666666</ele><time>2026-04-04T10:52:21.577Z</time></trkpt><trkpt lat="38.0672617" lon="16.06554"><ele>165.33333333333331</ele><time>2026-04-04T10:52:22.578Z</time></trkpt><trkpt lat="38.06719" lon="16.0655"><ele>167.0</ele><time>2026-04-04T10:52:23.577Z</time></trkpt><trkpt lat="38.067105" lon="16.0654517"><ele>167.0</ele><time>2026-04-04T10:52:24.577Z</time></trkpt><trkpt lat="38.0670217" lon="16.0653933"><ele>167.0</ele><time>2026-04-04T10:52:25.577Z</time></trkpt><trkpt lat="38.0669433" lon="16.0653333"><ele>167.0</ele><time>2026-04-04T10:52:26.577Z</time></trkpt><trkpt lat="38.0668817" lon="16.0652617"><ele>167.0</ele><time>2026-04-04T10:52:27.578Z</time></trkpt><trkpt lat="38.0668317" lon="16.0651983"><ele>167.0</ele><time>2026-04-04T10:52:28.577Z</time></trkpt><trkpt lat="38.0667967" lon="16.0650383"><ele>164.2</ele><time>2026-04-04T10:52:30.577Z</time></trkpt><trkpt lat="38.066825" lon="16.0649417"><ele>161.39999999999998</ele><time>2026-04-04T10:52:31.577Z</time></trkpt><trkpt lat="38.0668833" lon="16.0648467"><ele>158.60000000000002</ele><time>2026-04-04T10:52:32.577Z</time></trkpt><trkpt lat="38.066955" lon="16.0647467"><ele>155.8</ele><time>2026-04-04T10:52:33.577Z</time></trkpt><trkpt lat="38.0670233" lon="16.0646617"><ele>153.0</ele><time>2026-04-04T10:52:34.578Z</time></trkpt><trkpt lat="38.0671" lon="16.064565"><ele>153.0</ele><time>2026-04-04T10:52:35.578Z</time></trkpt><trkpt lat="38.0671717" lon="16.0644717"><ele>153.0</ele><time>2026-04-04T10:52:36.577Z</time></trkpt><trkpt lat="38.067235" lon="16.0643717"><ele>153.0</ele><time>2026-04-04T10:52:37.578Z</time></trkpt><trkpt lat="38.067285" lon="16.0642583"><ele>153.0</ele><time>2026-04-04T10:52:38.577Z</time></trkpt><trkpt lat="38.0673267" lon="16.0641567"><ele>153.0</ele><time>2026-04-04T10:52:39.578Z</time></trkpt><trkpt lat="38.0673667" lon="16.0640767"><ele>151.33333333333334</ele><time>2026-04-04T10:52:40.577Z</time></trkpt><trkpt lat="38.0674183" lon="16.0639983"><ele>149.66666666666666</ele><time>2026-04-04T10:52:41.577Z</time></trkpt><trkpt lat="38.06747" lon="16.06392"><ele>148.0</ele><time>2026-04-04T10:52:42.577Z</time></trkpt><trkpt lat="38.0675133" lon="16.06383"><ele>146.33333333333331</ele><time>2026-04-04T10:52:43.577Z</time></trkpt><trkpt lat="38.0675483" lon="16.06373"><ele>144.66666666666666</ele><time>2026-04-04T10:52:44.577Z</time></trkpt><trkpt lat="38.067585" lon="16.06362"><ele>143.0</ele><time>2026-04-04T10:52:45.578Z</time></trkpt><trkpt lat="38.0676283" lon="16.06352"><ele>150.16666666666666</ele><time>2026-04-04T10:52:46.577Z</time></trkpt><trkpt lat="38.067675" lon="16.0634217"><ele>157.33333333333331</ele><time>2026-04-04T10:52:47.577Z</time></trkpt><trkpt lat="38.06773" lon="16.0633317"><ele>164.5</ele><time>2026-04-04T10:52:48.578Z</time></trkpt><trkpt lat="38.06778" lon="16.0632467"><ele>171.66666666666666</ele><time>2026-04-04T10:52:49.578Z</time></trkpt><trkpt lat="38.0678317" lon="16.0631567"><ele>178.83333333333334</ele><time>2026-04-04T10:52:50.577Z</time></trkpt><trkpt lat="38.0678833" lon="16.06306"><ele>186.0</ele><time>2026-04-04T10:52:51.577Z</time></trkpt><trkpt lat="38.0679433" lon="16.062945"><ele>187.4</ele><time>2026-04-04T10:52:52.577Z</time></trkpt><trkpt lat="38.0680083" lon="16.06284"><ele>188.8</ele><time>2026-04-04T10:52:53.577Z</time></trkpt><trkpt lat="38.0680717" lon="16.0627517"><ele>190.20000000000002</ele><time>2026-04-04T10:52:54.577Z</time></trkpt><trkpt lat="38.0681383" lon="16.06267"><ele>191.60000000000002</ele><time>2026-04-04T10:52:55.577Z</time></trkpt><trkpt lat="38.068205" lon="16.06258"><ele>193.0</ele><time>2026-04-04T10:52:56.577Z</time></trkpt><trkpt lat="38.0682733" lon="16.0625"><ele>200.33333333333331</ele><time>2026-04-04T10:52:57.578Z</time></trkpt><trkpt lat="38.06833" lon="16.0624333"><ele>207.66666666666666</ele><time>2026-04-04T10:52:58.577Z</time></trkpt><trkpt lat="38.0683883" lon="16.062385"><ele>215.0</ele><time>2026-04-04T10:52:59.578Z</time></trkpt><trkpt lat="38.0684583" lon="16.0623333"><ele>222.33333333333331</ele><time>2026-04-04T10:53:00.577Z</time></trkpt><trkpt lat="38.0685283" lon="16.062265"><ele>229.66666666666666</ele><time>2026-04-04T10:53:01.578Z</time></trkpt><trkpt lat="38.068605" lon="16.0621867"><ele>237.0</ele><time>2026-04-04T10:53:02.577Z</time></trkpt><trkpt lat="38.0686917" lon="16.062095"><ele>237.0</ele><time>2026-04-04T10:53:03.577Z</time></trkpt><trkpt lat="38.068775" lon="16.0619933"><ele>237.0</ele><time>2026-04-04T10:53:04.577Z</time></trkpt><trkpt lat="38.068845" lon="16.061895"><ele>237.0</ele><time>2026-04-04T10:53:05.577Z</time></trkpt><trkpt lat="38.0689033" lon="16.0618117"><ele>237.0</ele><time>2026-04-04T10:53:06.577Z</time></trkpt><trkpt lat="38.0689533" lon="16.0617517"><ele>237.0</ele><time>2026-04-04T10:53:07.577Z</time></trkpt><trkpt lat="38.06902" lon="16.0617283"><ele>237.0</ele><time>2026-04-04T10:53:08.577Z</time></trkpt><trkpt lat="38.0691017" lon="16.0617433"><ele>235.8</ele><time>2026-04-04T10:53:09.577Z</time></trkpt><trkpt lat="38.069205" lon="16.0618017"><ele>234.6</ele><time>2026-04-04T10:53:10.577Z</time></trkpt><trkpt lat="38.06929" lon="16.061855"><ele>233.40000000000003</ele><time>2026-04-04T10:53:11.578Z</time></trkpt><trkpt lat="38.0694033" lon="16.0618267"><ele>232.20000000000002</ele><time>2026-04-04T10:53:13.578Z</time></trkpt><trkpt lat="38.0694517" lon="16.0617317"><ele>231.0</ele><time>2026-04-04T10:53:14.578Z</time></trkpt><trkpt lat="38.06948" lon="16.06161"><ele>235.0</ele><time>2026-04-04T10:53:15.578Z</time></trkpt><trkpt lat="38.06951" lon="16.0614933"><ele>239.00000000000003</ele><time>2026-04-04T10:53:16.577Z</time></trkpt><trkpt lat="38.0695433" lon="16.0613983"><ele>243.00000000000003</ele><time>2026-04-04T10:53:17.578Z</time></trkpt><trkpt lat="38.06958" lon="16.0613283"><ele>247.0</ele><time>2026-04-04T10:53:18.578Z</time></trkpt><trkpt lat="38.0696733" lon="16.061275"><ele>251.0</ele><time>2026-04-04T10:53:20.577Z</time></trkpt><trkpt lat="38.0697983" lon="16.0612833"><ele>251.00000000000003</ele><time>2026-04-04T10:53:22.577Z</time></trkpt><trkpt lat="38.0698733" lon="16.061295"><ele>251.0</ele><time>2026-04-04T10:53:23.577Z</time></trkpt><trkpt lat="38.06996" lon="16.061315"><ele>251.0</ele><time>2026-04-04T10:53:24.577Z</time></trkpt><trkpt lat="38.070045" lon="16.061325"><ele>251.0</ele><time>2026-04-04T10:53:25.577Z</time></trkpt><trkpt lat="38.070125" lon="16.0613233"><ele>251.00000000000003</ele><time>2026-04-04T10:53:26.578Z</time></trkpt><trkpt lat="38.070195" lon="16.0613133"><ele>251.0</ele><time>2026-04-04T10:53:27.577Z</time></trkpt><trkpt lat="38.0702683" lon="16.0613217"><ele>250.85714285714283</ele><time>2026-04-04T10:53:28.578Z</time></trkpt><trkpt lat="38.0703383" lon="16.0613383"><ele>250.71428571428572</ele><time>2026-04-04T10:53:29.577Z</time></trkpt><trkpt lat="38.0704133" lon="16.0613583"><ele>250.57142857142856</ele><time>2026-04-04T10:53:30.578Z</time></trkpt><trkpt lat="38.0704867" lon="16.0613667"><ele>250.42857142857142</ele><time>2026-04-04T10:53:31.577Z</time></trkpt><trkpt lat="38.07056" lon="16.0613433"><ele>250.28571428571428</ele><time>2026-04-04T10:53:32.578Z</time></trkpt><trkpt lat="38.0706233" lon="16.0613033"><ele>250.14285714285714</ele><time>2026-04-04T10:53:33.577Z</time></trkpt><trkpt lat="38.070685" lon="16.0612483"><ele>250.0</ele><time>2026-04-04T10:53:34.577Z</time></trkpt><trkpt lat="38.07075" lon="16.0611817"><ele>250.66666666666666</ele><time>2026-04-04T10:53:35.577Z</time></trkpt><trkpt lat="38.0708183" lon="16.0611367"><ele>251.33333333333331</ele><time>2026-04-04T10:53:36.577Z</time></trkpt><trkpt lat="38.070885" lon="16.0610933"><ele>252.0</ele><time>2026-04-04T10:53:37.577Z</time></trkpt><trkpt lat="38.0709433" lon="16.061055"><ele>252.66666666666669</ele><time>2026-04-04T10:53:38.577Z</time></trkpt><trkpt lat="38.070995" lon="16.0609983"><ele>253.33333333333334</ele><time>2026-04-04T10:53:39.577Z</time></trkpt><trkpt lat="38.0710383" lon="16.0609333"><ele>254.0</ele><time>2026-04-04T10:53:40.577Z</time></trkpt><trkpt lat="38.07108" lon="16.0608033"><ele>257.0</ele><time>2026-04-04T10:53:42.577Z</time></trkpt><trkpt lat="38.07114" lon="16.0607317"><ele>260.0</ele><time>2026-04-04T10:53:45.577Z</time></trkpt><trkpt lat="38.0712467" lon="16.0607317"><ele>263.0</ele><time>2026-04-04T10:53:47.577Z</time></trkpt><trkpt lat="38.0713383" lon="16.0606833"><ele>266.0</ele><time>2026-04-04T10:53:49.578Z</time></trkpt><trkpt lat="38.071395" lon="16.06059"><ele>269.0</ele><time>2026-04-04T10:53:51.578Z</time></trkpt><trkpt lat="38.0714283" lon="16.0604517"><ele>269.0</ele><time>2026-04-04T10:53:53.577Z</time></trkpt><trkpt lat="38.071465" lon="16.0603333"><ele>269.0</ele><time>2026-04-04T10:53:55.577Z</time></trkpt><trkpt lat="38.07153" lon="16.0602633"><ele>269.0</ele><time>2026-04-04T10:53:57.577Z</time></trkpt><trkpt lat="38.0716217" lon="16.0601983"><ele>269.0</ele><time>2026-04-04T10:53:59.577Z</time></trkpt><trkpt lat="38.0717183" lon="16.0601333"><ele>269.0</ele><time>2026-04-04T10:54:01.578Z</time></trkpt><trkpt lat="38.0718017" lon="16.0600483"><ele>268.4</ele><time>2026-04-04T10:54:03.577Z</time></trkpt><trkpt lat="38.071875" lon="16.05998"><ele>267.79999999999995</ele><time>2026-04-04T10:54:05.578Z</time></trkpt><trkpt lat="38.0719383" lon="16.0598867"><ele>267.20000000000005</ele><time>2026-04-04T10:54:07.577Z</time></trkpt><trkpt lat="38.0720133" lon="16.0598"><ele>266.6</ele><time>2026-04-04T10:54:09.577Z</time></trkpt><trkpt lat="38.0720933" lon="16.0597033"><ele>266.0</ele><time>2026-04-04T10:54:11.577Z</time></trkpt><trkpt lat="38.0721483" lon="16.0596467"><ele>267.5</ele><time>2026-04-04T10:54:12.577Z</time></trkpt><trkpt lat="38.072205" lon="16.0595867"><ele>269.0</ele><time>2026-04-04T10:54:13.577Z</time></trkpt><trkpt lat="38.0722617" lon="16.0595317"><ele>270.5</ele><time>2026-04-04T10:54:14.577Z</time></trkpt><trkpt lat="38.07232" lon="16.0594667"><ele>272.0</ele><time>2026-04-04T10:54:15.577Z</time></trkpt><trkpt lat="38.0723633" lon="16.0593817"><ele>273.5</ele><time>2026-04-04T10:54:16.577Z</time></trkpt><trkpt lat="38.0724017" lon="16.0592767"><ele>275.0</ele><time>2026-04-04T10:54:17.577Z</time></trkpt><trkpt lat="38.0724433" lon="16.0591967"><ele>273.5</ele><time>2026-04-04T10:54:18.577Z</time></trkpt><trkpt lat="38.07249" lon="16.0591117"><ele>272.0</ele><time>2026-04-04T10:54:19.577Z</time></trkpt><trkpt lat="38.0725467" lon="16.0590283"><ele>270.5</ele><time>2026-04-04T10:54:20.577Z</time></trkpt><trkpt lat="38.0726117" lon="16.0589633"><ele>269.0</ele><time>2026-04-04T10:54:21.577Z</time></trkpt><trkpt lat="38.0726683" lon="16.0589083"><ele>267.5</ele><time>2026-04-04T10:54:22.577Z</time></trkpt><trkpt lat="38.07273" lon="16.0588667"><ele>266.0</ele><time>2026-04-04T10:54:23.577Z</time></trkpt><trkpt lat="38.0727867" lon="16.0588283"><ele>266.0</ele><time>2026-04-04T10:54:24.577Z</time></trkpt><trkpt lat="38.0728517" lon="16.05879"><ele>266.0</ele><time>2026-04-04T10:54:25.578Z</time></trkpt><trkpt lat="38.0729183" lon="16.0587517"><ele>266.0</ele><time>2026-04-04T10:54:26.577Z</time></trkpt><trkpt lat="38.07299" lon="16.0587267"><ele>266.0</ele><time>2026-04-04T10:54:27.577Z</time></trkpt><trkpt lat="38.07306" lon="16.0587183"><ele>266.0</ele><time>2026-04-04T10:54:28.577Z</time></trkpt><trkpt lat="38.0731733" lon="16.0586783"><ele>266.0</ele><time>2026-04-04T10:54:30.577Z</time></trkpt><trkpt lat="38.0732867" lon="16.0586167"><ele>269.0</ele><time>2026-04-04T10:54:32.577Z</time></trkpt><trkpt lat="38.0733883" lon="16.0585483"><ele>272.0</ele><time>2026-04-04T10:54:34.577Z</time></trkpt><trkpt lat="38.0735017" lon="16.0584783"><ele>275.0</ele><time>2026-04-04T10:54:36.577Z</time></trkpt><trkpt lat="38.0735967" lon="16.0584367"><ele>278.0</ele><time>2026-04-04T10:54:38.577Z</time></trkpt><trkpt lat="38.0736683" lon="16.0583717"><ele>281.0</ele><time>2026-04-04T10:54:40.577Z</time></trkpt><trkpt lat="38.0736967" lon="16.05827"><ele>281.40000000000003</ele><time>2026-04-04T10:54:42.578Z</time></trkpt><trkpt lat="38.07371" lon="16.0581467"><ele>281.8</ele><time>2026-04-04T10:54:44.577Z</time></trkpt><trkpt lat="38.0736983" lon="16.0580017"><ele>282.20000000000005</ele><time>2026-04-04T10:54:46.577Z</time></trkpt><trkpt lat="38.073695" lon="16.05786"><ele>282.6</ele><time>2026-04-04T10:54:48.577Z</time></trkpt><trkpt lat="38.0736883" lon="16.05771"><ele>283.0</ele><time>2026-04-04T10:54:50.577Z</time></trkpt><trkpt lat="38.0737017" lon="16.0575683"><ele>283.6</ele><time>2026-04-04T10:54:52.577Z</time></trkpt><trkpt lat="38.0737717" lon="16.0574383"><ele>284.20000000000005</ele><time>2026-04-04T10:54:54.577Z</time></trkpt><trkpt lat="38.0738533" lon="16.0573217"><ele>284.8</ele><time>2026-04-04T10:54:56.577Z</time></trkpt><trkpt lat="38.0738933" lon="16.057255"><ele>285.40000000000003</ele><time>2026-04-04T10:54:57.577Z</time></trkpt><trkpt lat="38.0739717" lon="16.05715"><ele>286.0</ele><time>2026-04-04T10:54:59.577Z</time></trkpt><trkpt lat="38.07405" lon="16.0571233"><ele>288.6</ele><time>2026-04-04T10:55:01.577Z</time></trkpt><trkpt lat="38.0741267" lon="16.0571333"><ele>291.20000000000005</ele><time>2026-04-04T10:55:03.577Z</time></trkpt><trkpt lat="38.07421" lon="16.0571733"><ele>293.79999999999995</ele><time>2026-04-04T10:55:05.577Z</time></trkpt><trkpt lat="38.07433" lon="16.0572133"><ele>296.4</ele><time>2026-04-04T10:55:07.577Z</time></trkpt><trkpt lat="38.0744367" lon="16.05717"><ele>299.0</ele><time>2026-04-04T10:55:09.578Z</time></trkpt><trkpt lat="38.0743567" lon="16.0571567"><ele>299.0</ele><time>2026-04-04T12:02:31.577Z</time></trkpt><trkpt lat="38.0742917" lon="16.0572033"><ele>299.0</ele><time>2026-04-04T12:02:33.576Z</time></trkpt><trkpt lat="38.0742267" lon="16.0571883"><ele>299.0</ele><time>2026-04-04T12:02:35.577Z</time></trkpt><trkpt lat="38.0741467" lon="16.0571367"><ele>299.0</ele><time>2026-04-04T12:02:38.577Z</time></trkpt><trkpt lat="38.07408" lon="16.0570883"><ele>299.0</ele><time>2026-04-04T12:02:41.577Z</time></trkpt><trkpt lat="38.07399" lon="16.0570767"><ele>299.0</ele><time>2026-04-04T12:02:44.576Z</time></trkpt><trkpt lat="38.0739217" lon="16.0571083"><ele>296.4</ele><time>2026-04-04T12:02:46.576Z</time></trkpt><trkpt lat="38.0738633" lon="16.0571767"><ele>293.79999999999995</ele><time>2026-04-04T12:02:48.576Z</time></trkpt><trkpt lat="38.0737917" lon="16.0572667"><ele>291.20000000000005</ele><time>2026-04-04T12:02:50.576Z</time></trkpt><trkpt lat="38.0737283" lon="16.057375"><ele>288.6</ele><time>2026-04-04T12:02:52.576Z</time></trkpt><trkpt lat="38.0736667" lon="16.0574533"><ele>286.0</ele><time>2026-04-04T12:02:54.576Z</time></trkpt><trkpt lat="38.0736333" lon="16.0575733"><ele>285.5</ele><time>2026-04-04T12:02:56.576Z</time></trkpt><trkpt lat="38.0736283" lon="16.0576917"><ele>285.0</ele><time>2026-04-04T12:02:58.576Z</time></trkpt><trkpt lat="38.0736333" lon="16.05781"><ele>284.5</ele><time>2026-04-04T12:03:00.577Z</time></trkpt><trkpt lat="38.0736383" lon="16.0579567"><ele>284.0</ele><time>2026-04-04T12:03:02.577Z</time></trkpt><trkpt lat="38.0736417" lon="16.05804"><ele>283.5</ele><time>2026-04-04T12:03:03.576Z</time></trkpt><trkpt lat="38.0736383" lon="16.0581233"><ele>283.0</ele><time>2026-04-04T12:03:04.576Z</time></trkpt><trkpt lat="38.073625" lon="16.0582017"><ele>283.0</ele><time>2026-04-04T12:03:05.577Z</time></trkpt><trkpt lat="38.073615" lon="16.0582833"><ele>283.0</ele><time>2026-04-04T12:03:06.576Z</time></trkpt><trkpt lat="38.0736083" lon="16.0584283"><ele>283.0</ele><time>2026-04-04T12:03:08.576Z</time></trkpt><trkpt lat="38.0736133" lon="16.0585083"><ele>283.0</ele><time>2026-04-04T12:03:09.576Z</time></trkpt><trkpt lat="38.0736417" lon="16.0586467"><ele>283.0</ele><time>2026-04-04T12:03:11.576Z</time></trkpt><trkpt lat="38.07366" lon="16.0587767"><ele>282.6</ele><time>2026-04-04T12:03:13.576Z</time></trkpt><trkpt lat="38.07368" lon="16.0589167"><ele>282.20000000000005</ele><time>2026-04-04T12:03:15.576Z</time></trkpt><trkpt lat="38.0736767" lon="16.0590517"><ele>281.8</ele><time>2026-04-04T12:03:17.576Z</time></trkpt><trkpt lat="38.0736833" lon="16.0591817"><ele>281.40000000000003</ele><time>2026-04-04T12:03:19.577Z</time></trkpt><trkpt lat="38.0736983" lon="16.0593033"><ele>281.0</ele><time>2026-04-04T12:03:21.576Z</time></trkpt><trkpt lat="38.0737033" lon="16.0594367"><ele>281.0</ele><time>2026-04-04T12:03:23.576Z</time></trkpt><trkpt lat="38.0736967" lon="16.0595267"><ele>281.0</ele><time>2026-04-04T12:03:24.576Z</time></trkpt><trkpt lat="38.07369" lon="16.059665"><ele>281.0</ele><time>2026-04-04T12:03:26.576Z</time></trkpt><trkpt lat="38.0736633" lon="16.059775"><ele>281.0</ele><time>2026-04-04T12:03:28.577Z</time></trkpt><trkpt lat="38.0736117" lon="16.0599167"><ele>281.0</ele><time>2026-04-04T12:03:30.577Z</time></trkpt><trkpt lat="38.0735867" lon="16.06"><ele>279.83333333333337</ele><time>2026-04-04T12:03:31.576Z</time></trkpt><trkpt lat="38.073565" lon="16.060085"><ele>278.6666666666667</ele><time>2026-04-04T12:03:32.577Z</time></trkpt><trkpt lat="38.0735417" lon="16.0601683"><ele>277.5</ele><time>2026-04-04T12:03:33.576Z</time></trkpt><trkpt lat="38.0735283" lon="16.0602583"><ele>276.3333333333333</ele><time>2026-04-04T12:03:34.576Z</time></trkpt><trkpt lat="38.0735183" lon="16.06034"><ele>275.16666666666663</ele><time>2026-04-04T12:03:35.577Z</time></trkpt><trkpt lat="38.0734933" lon="16.06049"><ele>274.0</ele><time>2026-04-04T12:03:37.576Z</time></trkpt><trkpt lat="38.07349" lon="16.06065"><ele>272.66666666666663</ele><time>2026-04-04T12:03:39.576Z</time></trkpt><trkpt lat="38.0735033" lon="16.060815"><ele>271.3333333333333</ele><time>2026-04-04T12:03:41.577Z</time></trkpt><trkpt lat="38.07351" lon="16.060905"><ele>270.0</ele><time>2026-04-04T12:03:42.576Z</time></trkpt><trkpt lat="38.0735183" lon="16.0609933"><ele>268.6666666666667</ele><time>2026-04-04T12:03:43.577Z</time></trkpt><trkpt lat="38.07352" lon="16.0610917"><ele>267.33333333333337</ele><time>2026-04-04T12:03:44.576Z</time></trkpt><trkpt lat="38.073525" lon="16.061185"><ele>266.0</ele><time>2026-04-04T12:03:45.576Z</time></trkpt><trkpt lat="38.0735383" lon="16.0612767"><ele>266.0</ele><time>2026-04-04T12:03:46.576Z</time></trkpt><trkpt lat="38.0735667" lon="16.061365"><ele>266.0</ele><time>2026-04-04T12:03:47.577Z</time></trkpt><trkpt lat="38.0736017" lon="16.0614483"><ele>266.0</ele><time>2026-04-04T12:03:48.576Z</time></trkpt><trkpt lat="38.0736417" lon="16.0615267"><ele>266.0</ele><time>2026-04-04T12:03:49.577Z</time></trkpt><trkpt lat="38.0736833" lon="16.061605"><ele>266.0</ele><time>2026-04-04T12:03:50.577Z</time></trkpt><trkpt lat="38.0737233" lon="16.0616933"><ele>266.0</ele><time>2026-04-04T12:03:51.576Z</time></trkpt><trkpt lat="38.07376" lon="16.061775"><ele>265.0</ele><time>2026-04-04T12:03:52.576Z</time></trkpt><trkpt lat="38.073765" lon="16.0618683"><ele>264.0</ele><time>2026-04-04T12:03:53.576Z</time></trkpt><trkpt lat="38.0737617" lon="16.0619667"><ele>263.0</ele><time>2026-04-04T12:03:54.576Z</time></trkpt><trkpt lat="38.07375" lon="16.0620717"><ele>262.0</ele><time>2026-04-04T12:03:55.576Z</time></trkpt><trkpt lat="38.0737317" lon="16.062165"><ele>261.0</ele><time>2026-04-04T12:03:56.576Z</time></trkpt><trkpt lat="38.0737033" lon="16.06226"><ele>260.0</ele><time>2026-04-04T12:03:57.576Z</time></trkpt><trkpt lat="38.07366" lon="16.06236"><ele>258.8</ele><time>2026-04-04T12:03:58.576Z</time></trkpt><trkpt lat="38.07362" lon="16.06246"><ele>257.6</ele><time>2026-04-04T12:03:59.576Z</time></trkpt><trkpt lat="38.0735733" lon="16.0625633"><ele>256.4</ele><time>2026-04-04T12:04:00.577Z</time></trkpt><trkpt lat="38.0735317" lon="16.0626633"><ele>255.2</ele><time>2026-04-04T12:04:01.576Z</time></trkpt><trkpt lat="38.0734883" lon="16.0627683"><ele>254.0</ele><time>2026-04-04T12:04:02.576Z</time></trkpt><trkpt lat="38.0734533" lon="16.0628683"><ele>254.00000000000003</ele><time>2026-04-04T12:04:03.576Z</time></trkpt><trkpt lat="38.07341" lon="16.062965"><ele>254.0</ele><time>2026-04-04T12:04:04.576Z</time></trkpt><trkpt lat="38.0733717" lon="16.0630667"><ele>254.0</ele><time>2026-04-04T12:04:05.576Z</time></trkpt><trkpt lat="38.0733317" lon="16.0631567"><ele>254.0</ele><time>2026-04-04T12:04:06.576Z</time></trkpt><trkpt lat="38.0733" lon="16.0632483"><ele>254.00000000000003</ele><time>2026-04-04T12:04:07.576Z</time></trkpt><trkpt lat="38.073265" lon="16.0633417"><ele>254.0</ele><time>2026-04-04T12:04:08.577Z</time></trkpt><trkpt lat="38.07324" lon="16.063445"><ele>250.66666666666669</ele><time>2026-04-04T12:04:09.576Z</time></trkpt><trkpt lat="38.0732167" lon="16.063535"><ele>247.33333333333334</ele><time>2026-04-04T12:04:10.577Z</time></trkpt><trkpt lat="38.0731917" lon="16.0636267"><ele>244.0</ele><time>2026-04-04T12:04:11.577Z</time></trkpt><trkpt lat="38.0731633" lon="16.06373"><ele>240.66666666666669</ele><time>2026-04-04T12:04:12.576Z</time></trkpt><trkpt lat="38.073125" lon="16.0638267"><ele>237.33333333333334</ele><time>2026-04-04T12:04:13.576Z</time></trkpt><trkpt lat="38.073085" lon="16.063925"><ele>234.0</ele><time>2026-04-04T12:04:14.576Z</time></trkpt><trkpt lat="38.073045" lon="16.0640067"><ele>234.0</ele><time>2026-04-04T12:04:15.577Z</time></trkpt><trkpt lat="38.0730133" lon="16.06409"><ele>234.0</ele><time>2026-04-04T12:04:16.576Z</time></trkpt><trkpt lat="38.0729967" lon="16.0641867"><ele>234.0</ele><time>2026-04-04T12:04:17.576Z</time></trkpt><trkpt lat="38.073" lon="16.064275"><ele>234.0</ele><time>2026-04-04T12:04:18.576Z</time></trkpt><trkpt lat="38.0730283" lon="16.0643683"><ele>234.0</ele><time>2026-04-04T12:04:19.576Z</time></trkpt><trkpt lat="38.0730833" lon="16.0644533"><ele>234.0</ele><time>2026-04-04T12:04:20.576Z</time></trkpt><trkpt lat="38.0731617" lon="16.064535"><ele>232.79999999999998</ele><time>2026-04-04T12:04:21.576Z</time></trkpt><trkpt lat="38.073235" lon="16.0646117"><ele>231.59999999999997</ele><time>2026-04-04T12:04:22.576Z</time></trkpt><trkpt lat="38.0733133" lon="16.0646917"><ele>230.4</ele><time>2026-04-04T12:04:23.576Z</time></trkpt><trkpt lat="38.0733833" lon="16.0647717"><ele>229.2</ele><time>2026-04-04T12:04:24.576Z</time></trkpt><trkpt lat="38.07345" lon="16.064845"><ele>228.0</ele><time>2026-04-04T12:04:25.576Z</time></trkpt><trkpt lat="38.0735183" lon="16.0649183"><ele>229.60000000000002</ele><time>2026-04-04T12:04:26.576Z</time></trkpt><trkpt lat="38.0735933" lon="16.064995"><ele>231.20000000000002</ele><time>2026-04-04T12:04:27.576Z</time></trkpt><trkpt lat="38.0736717" lon="16.065055"><ele>232.8</ele><time>2026-04-04T12:04:28.576Z</time></trkpt><trkpt lat="38.0737583" lon="16.0651083"><ele>234.4</ele><time>2026-04-04T12:04:29.576Z</time></trkpt><trkpt lat="38.073845" lon="16.0651483"><ele>236.0</ele><time>2026-04-04T12:04:30.576Z</time></trkpt><trkpt lat="38.07393" lon="16.0651733"><ele>236.00000000000003</ele><time>2026-04-04T12:04:31.577Z</time></trkpt><trkpt lat="38.0740167" lon="16.0651983"><ele>236.0</ele><time>2026-04-04T12:04:32.576Z</time></trkpt><trkpt lat="38.07411" lon="16.0652167"><ele>236.0</ele><time>2026-04-04T12:04:33.576Z</time></trkpt><trkpt lat="38.0742" lon="16.0652183"><ele>236.0</ele><time>2026-04-04T12:04:34.577Z</time></trkpt><trkpt lat="38.074275" lon="16.0651967"><ele>236.00000000000003</ele><time>2026-04-04T12:04:35.576Z</time></trkpt><trkpt lat="38.0743483" lon="16.0651683"><ele>236.0</ele><time>2026-04-04T12:04:36.576Z</time></trkpt><trkpt lat="38.0744267" lon="16.0651333"><ele>236.16666666666669</ele><time>2026-04-04T12:04:37.576Z</time></trkpt><trkpt lat="38.0744933" lon="16.0651133"><ele>236.33333333333334</ele><time>2026-04-04T12:04:38.576Z</time></trkpt><trkpt lat="38.07461" lon="16.065095"><ele>236.5</ele><time>2026-04-04T12:04:40.577Z</time></trkpt><trkpt lat="38.0747017" lon="16.065125"><ele>236.66666666666669</ele><time>2026-04-04T12:04:42.576Z</time></trkpt><trkpt lat="38.07473" lon="16.0652033"><ele>236.83333333333334</ele><time>2026-04-04T12:04:44.576Z</time></trkpt><trkpt lat="38.0746733" lon="16.06529"><ele>237.0</ele><time>2026-04-04T12:04:46.576Z</time></trkpt><trkpt lat="38.0746133" lon="16.0653283"><ele>237.0</ele><time>2026-04-04T12:04:47.577Z</time></trkpt><trkpt lat="38.0745383" lon="16.0653617"><ele>237.0</ele><time>2026-04-04T12:04:48.576Z</time></trkpt><trkpt lat="38.0744583" lon="16.0654"><ele>237.0</ele><time>2026-04-04T12:04:49.577Z</time></trkpt><trkpt lat="38.074375" lon="16.0654533"><ele>237.0</ele><time>2026-04-04T12:04:50.576Z</time></trkpt><trkpt lat="38.0742867" lon="16.0655117"><ele>237.0</ele><time>2026-04-04T12:04:51.576Z</time></trkpt><trkpt lat="38.0742017" lon="16.0655717"><ele>237.0</ele><time>2026-04-04T12:04:52.576Z</time></trkpt><trkpt lat="38.0741167" lon="16.0656333"><ele>237.0</ele><time>2026-04-04T12:04:53.576Z</time></trkpt><trkpt lat="38.0740333" lon="16.0656817"><ele>237.0</ele><time>2026-04-04T12:04:54.577Z</time></trkpt><trkpt lat="38.0739483" lon="16.065735"><ele>237.0</ele><time>2026-04-04T12:04:55.576Z</time></trkpt><trkpt lat="38.0738717" lon="16.065785"><ele>237.0</ele><time>2026-04-04T12:04:56.576Z</time></trkpt><trkpt lat="38.0737983" lon="16.0658433"><ele>233.33333333333334</ele><time>2026-04-04T12:04:57.577Z</time></trkpt><trkpt lat="38.0737383" lon="16.0659083"><ele>229.66666666666669</ele><time>2026-04-04T12:04:58.576Z</time></trkpt><trkpt lat="38.0736967" lon="16.0660033"><ele>226.0</ele><time>2026-04-04T12:04:59.577Z</time></trkpt><trkpt lat="38.07367" lon="16.0661033"><ele>222.33333333333334</ele><time>2026-04-04T12:05:00.577Z</time></trkpt><trkpt lat="38.0736633" lon="16.066215"><ele>218.66666666666669</ele><time>2026-04-04T12:05:01.576Z</time></trkpt><trkpt lat="38.0736817" lon="16.0663183"><ele>215.0</ele><time>2026-04-04T12:05:02.576Z</time></trkpt><trkpt lat="38.07372" lon="16.0664067"><ele>215.00000000000003</ele><time>2026-04-04T12:05:03.577Z</time></trkpt><trkpt lat="38.0737733" lon="16.066485"><ele>215.0</ele><time>2026-04-04T12:05:04.577Z</time></trkpt><trkpt lat="38.0738333" lon="16.06656"><ele>215.0</ele><time>2026-04-04T12:05:05.576Z</time></trkpt><trkpt lat="38.0739083" lon="16.06663"><ele>215.0</ele><time>2026-04-04T12:05:06.576Z</time></trkpt><trkpt lat="38.073975" lon="16.06669"><ele>215.00000000000003</ele><time>2026-04-04T12:05:07.576Z</time></trkpt><trkpt lat="38.07405" lon="16.066735"><ele>215.0</ele><time>2026-04-04T12:05:08.576Z</time></trkpt><trkpt lat="38.0741283" lon="16.0667467"><ele>214.0</ele><time>2026-04-04T12:05:09.576Z</time></trkpt><trkpt lat="38.0742083" lon="16.0667267"><ele>213.0</ele><time>2026-04-04T12:05:10.576Z</time></trkpt><trkpt lat="38.0742867" lon="16.0666683"><ele>212.0</ele><time>2026-04-04T12:05:11.576Z</time></trkpt><trkpt lat="38.074365" lon="16.0666067"><ele>211.0</ele><time>2026-04-04T12:05:12.576Z</time></trkpt><trkpt lat="38.0744433" lon="16.066545"><ele>210.0</ele><time>2026-04-04T12:05:13.576Z</time></trkpt><trkpt lat="38.0745267" lon="16.0664817"><ele>211.2</ele><time>2026-04-04T12:05:14.576Z</time></trkpt><trkpt lat="38.0746117" lon="16.066425"><ele>212.4</ele><time>2026-04-04T12:05:15.576Z</time></trkpt><trkpt lat="38.0746867" lon="16.066375"><ele>213.60000000000002</ele><time>2026-04-04T12:05:16.576Z</time></trkpt><trkpt lat="38.074765" lon="16.066335"><ele>214.8</ele><time>2026-04-04T12:05:17.576Z</time></trkpt><trkpt lat="38.0748367" lon="16.0663133"><ele>216.0</ele><time>2026-04-04T12:05:18.576Z</time></trkpt><trkpt lat="38.0749433" lon="16.0663633"><ele>216.0</ele><time>2026-04-04T12:05:20.576Z</time></trkpt><trkpt lat="38.0749467" lon="16.0665183"><ele>216.00000000000003</ele><time>2026-04-04T12:05:22.577Z</time></trkpt><trkpt lat="38.0748933" lon="16.0666083"><ele>216.00000000000003</ele><time>2026-04-04T12:05:23.576Z</time></trkpt><trkpt lat="38.074815" lon="16.06669"><ele>216.0</ele><time>2026-04-04T12:05:24.577Z</time></trkpt><trkpt lat="38.0747267" lon="16.0667683"><ele>216.0</ele><time>2026-04-04T12:05:25.576Z</time></trkpt><trkpt lat="38.0746417" lon="16.066855"><ele>214.5</ele><time>2026-04-04T12:05:26.576Z</time></trkpt><trkpt lat="38.0745533" lon="16.0669467"><ele>213.0</ele><time>2026-04-04T12:05:27.576Z</time></trkpt><trkpt lat="38.07446" lon="16.067035"><ele>211.5</ele><time>2026-04-04T12:05:28.576Z</time></trkpt><trkpt lat="38.0743683" lon="16.06711"><ele>210.0</ele><time>2026-04-04T12:05:29.576Z</time></trkpt><trkpt lat="38.074265" lon="16.0671883"><ele>210.0</ele><time>2026-04-04T12:05:30.576Z</time></trkpt><trkpt lat="38.0741633" lon="16.0672533"><ele>210.0</ele><time>2026-04-04T12:05:31.576Z</time></trkpt><trkpt lat="38.07406" lon="16.06731"><ele>210.0</ele><time>2026-04-04T12:05:32.577Z</time></trkpt><trkpt lat="38.07396" lon="16.06737"><ele>210.0</ele><time>2026-04-04T12:05:33.577Z</time></trkpt><trkpt lat="38.0738633" lon="16.0674367"><ele>210.0</ele><time>2026-04-04T12:05:34.577Z</time></trkpt><trkpt lat="38.0737683" lon="16.0674967"><ele>206.66666666666666</ele><time>2026-04-04T12:05:35.576Z</time></trkpt><trkpt lat="38.0736817" lon="16.0675567"><ele>203.33333333333334</ele><time>2026-04-04T12:05:36.576Z</time></trkpt><trkpt lat="38.07361" lon="16.0676217"><ele>200.0</ele><time>2026-04-04T12:05:37.576Z</time></trkpt><trkpt lat="38.0735533" lon="16.0676867"><ele>196.66666666666669</ele><time>2026-04-04T12:05:38.576Z</time></trkpt><trkpt lat="38.0735183" lon="16.0677617"><ele>193.33333333333334</ele><time>2026-04-04T12:05:39.576Z</time></trkpt><trkpt lat="38.0735117" lon="16.0678417"><ele>190.0</ele><time>2026-04-04T12:05:40.576Z</time></trkpt><trkpt lat="38.0735767" lon="16.0679733"><ele>190.0</ele><time>2026-04-04T12:05:42.576Z</time></trkpt><trkpt lat="38.0736483" lon="16.0679983"><ele>190.0</ele><time>2026-04-04T12:05:43.576Z</time></trkpt><trkpt lat="38.073725" lon="16.06799"><ele>190.0</ele><time>2026-04-04T12:05:44.576Z</time></trkpt><trkpt lat="38.073805" lon="16.0679567"><ele>190.0</ele><time>2026-04-04T12:05:45.577Z</time></trkpt><trkpt lat="38.073885" lon="16.0679183"><ele>190.0</ele><time>2026-04-04T12:05:46.576Z</time></trkpt><trkpt lat="38.073965" lon="16.0678767"><ele>190.0</ele><time>2026-04-04T12:05:47.577Z</time></trkpt><trkpt lat="38.07405" lon="16.0678417"><ele>190.0</ele><time>2026-04-04T12:05:48.577Z</time></trkpt><trkpt lat="38.0741333" lon="16.0678283"><ele>190.0</ele><time>2026-04-04T12:05:49.576Z</time></trkpt><trkpt lat="38.0741983" lon="16.0678483"><ele>190.0</ele><time>2026-04-04T12:05:50.576Z</time></trkpt><trkpt lat="38.074255" lon="16.0679533"><ele>190.0</ele><time>2026-04-04T12:05:52.576Z</time></trkpt><trkpt lat="38.0742183" lon="16.06803"><ele>190.0</ele><time>2026-04-04T12:05:53.576Z</time></trkpt><trkpt lat="38.0741617" lon="16.068095"><ele>190.0</ele><time>2026-04-04T12:05:54.577Z</time></trkpt><trkpt lat="38.074085" lon="16.068155"><ele>190.0</ele><time>2026-04-04T12:05:55.576Z</time></trkpt><trkpt lat="38.0739917" lon="16.0682233"><ele>190.0</ele><time>2026-04-04T12:05:56.577Z</time></trkpt><trkpt lat="38.07389" lon="16.0683"><ele>190.0</ele><time>2026-04-04T12:05:57.576Z</time></trkpt><trkpt lat="38.0737883" lon="16.06837"><ele>190.0</ele><time>2026-04-04T12:05:58.576Z</time></trkpt><trkpt lat="38.073685" lon="16.0684217"><ele>188.0</ele><time>2026-04-04T12:05:59.576Z</time></trkpt><trkpt lat="38.0735767" lon="16.06846"><ele>186.0</ele><time>2026-04-04T12:06:00.577Z</time></trkpt><trkpt lat="38.0734767" lon="16.0684733"><ele>184.0</ele><time>2026-04-04T12:06:01.576Z</time></trkpt><trkpt lat="38.0733817" lon="16.0684767"><ele>182.0</ele><time>2026-04-04T12:06:02.576Z</time></trkpt><trkpt lat="38.0733033" lon="16.068475"><ele>180.0</ele><time>2026-04-04T12:06:03.576Z</time></trkpt><trkpt lat="38.07324" lon="16.068495"><ele>180.0</ele><time>2026-04-04T12:06:04.576Z</time></trkpt><trkpt lat="38.07318" lon="16.0685967"><ele>180.0</ele><time>2026-04-04T12:06:06.576Z</time></trkpt><trkpt lat="38.0731867" lon="16.0686767"><ele>180.0</ele><time>2026-04-04T12:06:07.576Z</time></trkpt><trkpt lat="38.07322" lon="16.0687583"><ele>180.0</ele><time>2026-04-04T12:06:08.577Z</time></trkpt><trkpt lat="38.0732867" lon="16.0688217"><ele>180.0</ele><time>2026-04-04T12:06:09.576Z</time></trkpt><trkpt lat="38.0733867" lon="16.0688683"><ele>180.0</ele><time>2026-04-04T12:06:10.577Z</time></trkpt><trkpt lat="38.0734983" lon="16.06892"><ele>180.0</ele><time>2026-04-04T12:06:11.577Z</time></trkpt><trkpt lat="38.0736033" lon="16.0689783"><ele>180.0</ele><time>2026-04-04T12:06:12.576Z</time></trkpt><trkpt lat="38.0737083" lon="16.0690333"><ele>180.0</ele><time>2026-04-04T12:06:13.577Z</time></trkpt><trkpt lat="38.07381" lon="16.0690967"><ele>180.0</ele><time>2026-04-04T12:06:14.576Z</time></trkpt><trkpt lat="38.07391" lon="16.0691533"><ele>177.0</ele><time>2026-04-04T12:06:15.577Z</time></trkpt><trkpt lat="38.0740083" lon="16.0692167"><ele>174.0</ele><time>2026-04-04T12:06:16.576Z</time></trkpt><trkpt lat="38.074105" lon="16.0692783"><ele>171.0</ele><time>2026-04-04T12:06:17.577Z</time></trkpt><trkpt lat="38.074205" lon="16.06934"><ele>168.0</ele><time>2026-04-04T12:06:18.576Z</time></trkpt><trkpt lat="38.0742983" lon="16.0693867"><ele>165.0</ele><time>2026-04-04T12:06:19.576Z</time></trkpt><trkpt lat="38.074395" lon="16.0694133"><ele>165.0</ele><time>2026-04-04T12:06:20.577Z</time></trkpt><trkpt lat="38.0744883" lon="16.069415"><ele>165.0</ele><time>2026-04-04T12:06:21.576Z</time></trkpt><trkpt lat="38.0745867" lon="16.0694083"><ele>165.0</ele><time>2026-04-04T12:06:22.577Z</time></trkpt><trkpt lat="38.0746833" lon="16.0693983"><ele>165.0</ele><time>2026-04-04T12:06:23.576Z</time></trkpt><trkpt lat="38.074775" lon="16.0693817"><ele>165.0</ele><time>2026-04-04T12:06:24.576Z</time></trkpt><trkpt lat="38.0748583" lon="16.0693733"><ele>164.5</ele><time>2026-04-04T12:06:25.576Z</time></trkpt><trkpt lat="38.0749383" lon="16.0693583"><ele>164.0</ele><time>2026-04-04T12:06:26.576Z</time></trkpt><trkpt lat="38.0750133" lon="16.0693533"><ele>163.5</ele><time>2026-04-04T12:06:27.576Z</time></trkpt><trkpt lat="38.0750883" lon="16.0693533"><ele>163.0</ele><time>2026-04-04T12:06:28.576Z</time></trkpt><trkpt lat="38.0752083" lon="16.0693933"><ele>162.5</ele><time>2026-04-04T12:06:30.576Z</time></trkpt><trkpt lat="38.075265" lon="16.06944"><ele>162.0</ele><time>2026-04-04T12:06:31.576Z</time></trkpt><trkpt lat="38.07533" lon="16.0694917"><ele>162.0</ele><time>2026-04-04T12:06:32.576Z</time></trkpt><trkpt lat="38.0754" lon="16.0695483"><ele>162.0</ele><time>2026-04-04T12:06:33.576Z</time></trkpt><trkpt lat="38.0754767" lon="16.0696083"><ele>162.0</ele><time>2026-04-04T12:06:34.576Z</time></trkpt><trkpt lat="38.07556" lon="16.0696617"><ele>162.0</ele><time>2026-04-04T12:06:35.576Z</time></trkpt><trkpt lat="38.07564" lon="16.0697233"><ele>162.0</ele><time>2026-04-04T12:06:36.577Z</time></trkpt><trkpt lat="38.0757" lon="16.069795"><ele>162.0</ele><time>2026-04-04T12:06:37.576Z</time></trkpt><trkpt lat="38.075735" lon="16.069865"><ele>160.0</ele><time>2026-04-04T12:06:38.576Z</time></trkpt><trkpt lat="38.0756933" lon="16.0700067"><ele>158.0</ele><time>2026-04-04T12:06:40.577Z</time></trkpt><trkpt lat="38.075625" lon="16.07006"><ele>156.0</ele><time>2026-04-04T12:06:41.577Z</time></trkpt><trkpt lat="38.07552" lon="16.0700733"><ele>154.0</ele><time>2026-04-04T12:06:42.577Z</time></trkpt><trkpt lat="38.0753833" lon="16.0700767"><ele>152.0</ele><time>2026-04-04T12:06:43.576Z</time></trkpt><trkpt lat="38.0752417" lon="16.07009"><ele>152.0</ele><time>2026-04-04T12:06:44.577Z</time></trkpt><trkpt lat="38.0751183" lon="16.0701067"><ele>152.0</ele><time>2026-04-04T12:06:45.577Z</time></trkpt><trkpt lat="38.07502" lon="16.0701167"><ele>152.0</ele><time>2026-04-04T12:06:46.576Z</time></trkpt><trkpt lat="38.0749333" lon="16.0701417"><ele>152.0</ele><time>2026-04-04T12:06:47.577Z</time></trkpt><trkpt lat="38.074875" lon="16.0701883"><ele>152.0</ele><time>2026-04-04T12:06:48.576Z</time></trkpt><trkpt lat="38.07483" lon="16.0702717"><ele>152.0</ele><time>2026-04-04T12:06:49.576Z</time></trkpt><trkpt lat="38.0748217" lon="16.0703533"><ele>152.0</ele><time>2026-04-04T12:06:50.576Z</time></trkpt><trkpt lat="38.0749017" lon="16.0704733"><ele>152.0</ele><time>2026-04-04T12:06:52.577Z</time></trkpt><trkpt lat="38.0749983" lon="16.0704967"><ele>152.0</ele><time>2026-04-04T12:06:53.576Z</time></trkpt><trkpt lat="38.075115" lon="16.0705383"><ele>152.0</ele><time>2026-04-04T12:06:54.576Z</time></trkpt><trkpt lat="38.07522" lon="16.0706033"><ele>152.0</ele><time>2026-04-04T12:06:55.576Z</time></trkpt><trkpt lat="38.0752967" lon="16.070705"><ele>152.0</ele><time>2026-04-04T12:06:56.576Z</time></trkpt><trkpt lat="38.0753417" lon="16.0708417"><ele>152.0</ele><time>2026-04-04T12:06:57.576Z</time></trkpt><trkpt lat="38.07537" lon="16.0709817"><ele>152.0</ele><time>2026-04-04T12:06:58.576Z</time></trkpt><trkpt lat="38.0754" lon="16.0711083"><ele>152.0</ele><time>2026-04-04T12:06:59.576Z</time></trkpt><trkpt lat="38.0754433" lon="16.0712233"><ele>149.6</ele><time>2026-04-04T12:07:00.576Z</time></trkpt><trkpt lat="38.0755117" lon="16.0713017"><ele>147.2</ele><time>2026-04-04T12:07:01.576Z</time></trkpt><trkpt lat="38.0755983" lon="16.0713333"><ele>144.8</ele><time>2026-04-04T12:07:02.576Z</time></trkpt><trkpt lat="38.075695" lon="16.0713267"><ele>142.4</ele><time>2026-04-04T12:07:03.577Z</time></trkpt><trkpt lat="38.0757967" lon="16.0713067"><ele>140.0</ele><time>2026-04-04T12:07:04.576Z</time></trkpt><trkpt lat="38.0759033" lon="16.0712867"><ele>139.8</ele><time>2026-04-04T12:07:05.577Z</time></trkpt><trkpt lat="38.0760083" lon="16.0712783"><ele>139.6</ele><time>2026-04-04T12:07:06.576Z</time></trkpt><trkpt lat="38.076105" lon="16.0712833"><ele>139.4</ele><time>2026-04-04T12:07:07.576Z</time></trkpt><trkpt lat="38.0761967" lon="16.0713"><ele>139.2</ele><time>2026-04-04T12:07:08.576Z</time></trkpt><trkpt lat="38.0762783" lon="16.0713467"><ele>139.0</ele><time>2026-04-04T12:07:09.576Z</time></trkpt><trkpt lat="38.0763517" lon="16.0714167"><ele>139.0</ele><time>2026-04-04T12:07:10.576Z</time></trkpt><trkpt lat="38.0764033" lon="16.0715067"><ele>139.0</ele><time>2026-04-04T12:07:11.577Z</time></trkpt><trkpt lat="38.0764567" lon="16.0715967"><ele>139.0</ele><time>2026-04-04T12:07:12.577Z</time></trkpt><trkpt lat="38.076515" lon="16.0716883"><ele>139.0</ele><time>2026-04-04T12:07:13.577Z</time></trkpt><trkpt lat="38.0765767" lon="16.0717733"><ele>139.0</ele><time>2026-04-04T12:07:14.576Z</time></trkpt><trkpt lat="38.07666" lon="16.0718383"><ele>136.4</ele><time>2026-04-04T12:07:15.576Z</time></trkpt><trkpt lat="38.0767567" lon="16.0718867"><ele>133.8</ele><time>2026-04-04T12:07:16.576Z</time></trkpt><trkpt lat="38.076865" lon="16.0719217"><ele>131.2</ele><time>2026-04-04T12:07:17.577Z</time></trkpt><trkpt lat="38.0769783" lon="16.071945"><ele>128.6</ele><time>2026-04-04T12:07:18.576Z</time></trkpt><trkpt lat="38.077085" lon="16.07197"><ele>126.0</ele><time>2026-04-04T12:07:19.576Z</time></trkpt><trkpt lat="38.0771917" lon="16.0720067"><ele>126.0</ele><time>2026-04-04T12:07:20.576Z</time></trkpt><trkpt lat="38.07729" lon="16.0720583"><ele>126.0</ele><time>2026-04-04T12:07:21.577Z</time></trkpt><trkpt lat="38.077385" lon="16.07211"><ele>126.0</ele><time>2026-04-04T12:07:22.576Z</time></trkpt><trkpt lat="38.0774783" lon="16.0721533"><ele>126.0</ele><time>2026-04-04T12:07:23.576Z</time></trkpt><trkpt lat="38.077585" lon="16.072175"><ele>126.0</ele><time>2026-04-04T12:07:24.576Z</time></trkpt><trkpt lat="38.0776967" lon="16.07217"><ele>125.4</ele><time>2026-04-04T12:07:25.577Z</time></trkpt><trkpt lat="38.07781" lon="16.0721667"><ele>124.8</ele><time>2026-04-04T12:07:26.576Z</time></trkpt><trkpt lat="38.077915" lon="16.0721517"><ele>124.20000000000002</ele><time>2026-04-04T12:07:27.576Z</time></trkpt><trkpt lat="38.0780083" lon="16.072105"><ele>123.60000000000001</ele><time>2026-04-04T12:07:28.576Z</time></trkpt><trkpt lat="38.07809" lon="16.0720183"><ele>123.0</ele><time>2026-04-04T12:07:29.576Z</time></trkpt><trkpt lat="38.0781433" lon="16.0719067"><ele>123.0</ele><time>2026-04-04T12:07:30.576Z</time></trkpt><trkpt lat="38.0781667" lon="16.07178"><ele>123.0</ele><time>2026-04-04T12:07:31.576Z</time></trkpt><trkpt lat="38.0782017" lon="16.0716633"><ele>123.0</ele><time>2026-04-04T12:07:32.576Z</time></trkpt><trkpt lat="38.0782517" lon="16.0715917"><ele>123.0</ele><time>2026-04-04T12:07:33.576Z</time></trkpt><trkpt lat="38.0783183" lon="16.0715417"><ele>123.0</ele><time>2026-04-04T12:07:34.576Z</time></trkpt><trkpt lat="38.0783917" lon="16.0715233"><ele>123.0</ele><time>2026-04-04T12:07:35.576Z</time></trkpt><trkpt lat="38.0784733" lon="16.0715433"><ele>120.80000000000001</ele><time>2026-04-04T12:07:36.576Z</time></trkpt><trkpt lat="38.0785633" lon="16.0715717"><ele>118.60000000000001</ele><time>2026-04-04T12:07:37.576Z</time></trkpt><trkpt lat="38.0786567" lon="16.071605"><ele>116.39999999999999</ele><time>2026-04-04T12:07:38.576Z</time></trkpt><trkpt lat="38.0787583" lon="16.0716367"><ele>114.19999999999999</ele><time>2026-04-04T12:07:39.576Z</time></trkpt><trkpt lat="38.0788667" lon="16.0716717"><ele>112.0</ele><time>2026-04-04T12:07:40.576Z</time></trkpt><trkpt lat="38.0789767" lon="16.071705"><ele>111.19999999999999</ele><time>2026-04-04T12:07:41.576Z</time></trkpt><trkpt lat="38.0790783" lon="16.07174"><ele>110.39999999999999</ele><time>2026-04-04T12:07:42.576Z</time></trkpt><trkpt lat="38.079165" lon="16.0717917"><ele>109.60000000000001</ele><time>2026-04-04T12:07:43.576Z</time></trkpt><trkpt lat="38.0792433" lon="16.0718667"><ele>108.80000000000001</ele><time>2026-04-04T12:07:44.576Z</time></trkpt><trkpt lat="38.0793033" lon="16.0719633"><ele>108.0</ele><time>2026-04-04T12:07:45.576Z</time></trkpt><trkpt lat="38.0793417" lon="16.072075"><ele>108.0</ele><time>2026-04-04T12:07:46.576Z</time></trkpt><trkpt lat="38.0793617" lon="16.0722067"><ele>108.0</ele><time>2026-04-04T12:07:47.576Z</time></trkpt><trkpt lat="38.0793683" lon="16.07235"><ele>108.0</ele><time>2026-04-04T12:07:48.577Z</time></trkpt><trkpt lat="38.0793733" lon="16.0725"><ele>108.0</ele><time>2026-04-04T12:07:49.576Z</time></trkpt><trkpt lat="38.07938" lon="16.0726667"><ele>108.25</ele><time>2026-04-04T12:07:50.577Z</time></trkpt><trkpt lat="38.079385" lon="16.0728267"><ele>108.5</ele><time>2026-04-04T12:07:51.576Z</time></trkpt><trkpt lat="38.0793967" lon="16.07299"><ele>108.75</ele><time>2026-04-04T12:07:52.576Z</time></trkpt><trkpt lat="38.0794083" lon="16.0731567"><ele>109.0</ele><time>2026-04-04T12:07:53.577Z</time></trkpt><trkpt lat="38.07942" lon="16.07332"><ele>108.5</ele><time>2026-04-04T12:07:54.576Z</time></trkpt><trkpt lat="38.079445" lon="16.07348"><ele>108.0</ele><time>2026-04-04T12:07:55.576Z</time></trkpt><trkpt lat="38.0794667" lon="16.0736317"><ele>107.5</ele><time>2026-04-04T12:07:56.576Z</time></trkpt><trkpt lat="38.079475" lon="16.0737633"><ele>107.0</ele><time>2026-04-04T12:07:57.576Z</time></trkpt><trkpt lat="38.0794867" lon="16.073895"><ele>107.0</ele><time>2026-04-04T12:07:58.576Z</time></trkpt><trkpt lat="38.0794833" lon="16.0740267"><ele>106.99999999999999</ele><time>2026-04-04T12:07:59.577Z</time></trkpt><trkpt lat="38.0794717" lon="16.07417"><ele>106.99999999999999</ele><time>2026-04-04T12:08:00.576Z</time></trkpt><trkpt lat="38.079465" lon="16.0743167"><ele>107.0</ele><time>2026-04-04T12:08:01.576Z</time></trkpt><trkpt lat="38.0794567" lon="16.0744617"><ele>107.0</ele><time>2026-04-04T12:08:02.577Z</time></trkpt><trkpt lat="38.0794433" lon="16.07461"><ele>106.8</ele><time>2026-04-04T12:08:03.576Z</time></trkpt><trkpt lat="38.079425" lon="16.0747517"><ele>106.6</ele><time>2026-04-04T12:08:04.576Z</time></trkpt><trkpt lat="38.07941" lon="16.0748967"><ele>106.39999999999999</ele><time>2026-04-04T12:08:05.577Z</time></trkpt><trkpt lat="38.0793917" lon="16.0750383"><ele>106.19999999999999</ele><time>2026-04-04T12:08:06.576Z</time></trkpt><trkpt lat="38.0793667" lon="16.0751717"><ele>106.0</ele><time>2026-04-04T12:08:07.576Z</time></trkpt><trkpt lat="38.0793167" lon="16.0753117"><ele>106.0</ele><time>2026-04-04T12:08:08.576Z</time></trkpt><trkpt lat="38.079245" lon="16.0754317"><ele>106.0</ele><time>2026-04-04T12:08:09.576Z</time></trkpt><trkpt lat="38.0791533" lon="16.07555"><ele>106.0</ele><time>2026-04-04T12:08:10.576Z</time></trkpt><trkpt lat="38.0790617" lon="16.0756633"><ele>106.0</ele><time>2026-04-04T12:08:11.576Z</time></trkpt><trkpt lat="38.0789667" lon="16.07578"><ele>104.25</ele><time>2026-04-04T12:08:12.577Z</time></trkpt><trkpt lat="38.0788733" lon="16.0759083"><ele>102.5</ele><time>2026-04-04T12:08:13.576Z</time></trkpt><trkpt lat="38.0787817" lon="16.076045"><ele>100.75</ele><time>2026-04-04T12:08:14.576Z</time></trkpt><trkpt lat="38.078685" lon="16.076185"><ele>99.0</ele><time>2026-04-04T12:08:15.576Z</time></trkpt><trkpt lat="38.0785967" lon="16.0763267"><ele>99.0</ele><time>2026-04-04T12:08:16.577Z</time></trkpt><trkpt lat="38.0785033" lon="16.076475"><ele>99.0</ele><time>2026-04-04T12:08:17.576Z</time></trkpt><trkpt lat="38.078415" lon="16.0766217"><ele>99.0</ele><time>2026-04-04T12:08:18.577Z</time></trkpt><trkpt lat="38.0783317" lon="16.076765"><ele>99.0</ele><time>2026-04-04T12:08:19.576Z</time></trkpt><trkpt lat="38.0782567" lon="16.0768967"><ele>97.75</ele><time>2026-04-04T12:08:20.576Z</time></trkpt><trkpt lat="38.0781717" lon="16.0770167"><ele>96.5</ele><time>2026-04-04T12:08:21.577Z</time></trkpt><trkpt lat="38.078075" lon="16.0771183"><ele>95.25</ele><time>2026-04-04T12:08:22.576Z</time></trkpt><trkpt lat="38.07797" lon="16.0772067"><ele>94.0</ele><time>2026-04-04T12:08:23.576Z</time></trkpt><trkpt lat="38.07786" lon="16.07729"><ele>94.0</ele><time>2026-04-04T12:08:24.576Z</time></trkpt><trkpt lat="38.0777417" lon="16.077375"><ele>94.0</ele><time>2026-04-04T12:08:25.576Z</time></trkpt><trkpt lat="38.07762" lon="16.0774633"><ele>94.0</ele><time>2026-04-04T12:08:26.576Z</time></trkpt><trkpt lat="38.0775" lon="16.0775367"><ele>94.0</ele><time>2026-04-04T12:08:27.576Z</time></trkpt><trkpt lat="38.0773833" lon="16.0776033"><ele>94.75</ele><time>2026-04-04T12:08:28.576Z</time></trkpt><trkpt lat="38.0772683" lon="16.0776683"><ele>95.5</ele><time>2026-04-04T12:08:29.577Z</time></trkpt><trkpt lat="38.0771517" lon="16.0777233"><ele>96.25</ele><time>2026-04-04T12:08:30.576Z</time></trkpt><trkpt lat="38.077035" lon="16.077775"><ele>97.0</ele><time>2026-04-04T12:08:31.576Z</time></trkpt><trkpt lat="38.0769117" lon="16.0778283"><ele>97.0</ele><time>2026-04-04T12:08:32.577Z</time></trkpt><trkpt lat="38.076795" lon="16.0778867"><ele>97.0</ele><time>2026-04-04T12:08:33.576Z</time></trkpt><trkpt lat="38.0766833" lon="16.0779633"><ele>97.0</ele><time>2026-04-04T12:08:34.576Z</time></trkpt><trkpt lat="38.0765783" lon="16.0780483"><ele>97.0</ele><time>2026-04-04T12:08:35.576Z</time></trkpt><trkpt lat="38.076475" lon="16.078135"><ele>96.75</ele><time>2026-04-04T12:08:36.576Z</time></trkpt><trkpt lat="38.0763683" lon="16.0782267"><ele>96.5</ele><time>2026-04-04T12:08:37.576Z</time></trkpt><trkpt lat="38.0762583" lon="16.07832"><ele>96.25</ele><time>2026-04-04T12:08:38.576Z</time></trkpt><trkpt lat="38.0761483" lon="16.0784133"><ele>96.0</ele><time>2026-04-04T12:08:39.576Z</time></trkpt><trkpt lat="38.076045" lon="16.0785133"><ele>96.0</ele><time>2026-04-04T12:08:40.576Z</time></trkpt><trkpt lat="38.0759467" lon="16.0786133"><ele>96.0</ele><time>2026-04-04T12:08:41.576Z</time></trkpt><trkpt lat="38.0758467" lon="16.0787267"><ele>96.0</ele><time>2026-04-04T12:08:42.576Z</time></trkpt><trkpt lat="38.07575" lon="16.0788483"><ele>96.0</ele><time>2026-04-04T12:08:43.577Z</time></trkpt><trkpt lat="38.07565" lon="16.0789733"><ele>94.25</ele><time>2026-04-04T12:08:44.576Z</time></trkpt><trkpt lat="38.075555" lon="16.0791067"><ele>92.5</ele><time>2026-04-04T12:08:45.576Z</time></trkpt><trkpt lat="38.0754617" lon="16.0792417"><ele>90.75</ele><time>2026-04-04T12:08:46.576Z</time></trkpt><trkpt lat="38.0753633" lon="16.0793667"><ele>89.0</ele><time>2026-04-04T12:08:47.577Z</time></trkpt><trkpt lat="38.07527" lon="16.0794917"><ele>89.0</ele><time>2026-04-04T12:08:48.575Z</time></trkpt><trkpt lat="38.07518" lon="16.07962"><ele>89.0</ele><time>2026-04-04T12:08:49.575Z</time></trkpt><trkpt lat="38.0750967" lon="16.0797483"><ele>89.0</ele><time>2026-04-04T12:08:50.575Z</time></trkpt><trkpt lat="38.07501" lon="16.0798817"><ele>89.0</ele><time>2026-04-04T12:08:51.576Z</time></trkpt><trkpt lat="38.0749367" lon="16.0800167"><ele>88.0</ele><time>2026-04-04T12:08:52.575Z</time></trkpt><trkpt lat="38.074875" lon="16.080165"><ele>87.0</ele><time>2026-04-04T12:08:53.575Z</time></trkpt><trkpt lat="38.074815" lon="16.0803117"><ele>86.0</ele><time>2026-04-04T12:08:54.575Z</time></trkpt><trkpt lat="38.0747533" lon="16.0804617"><ele>85.0</ele><time>2026-04-04T12:08:55.575Z</time></trkpt><trkpt lat="38.0747033" lon="16.0806033"><ele>85.0</ele><time>2026-04-04T12:08:56.575Z</time></trkpt><trkpt lat="38.0746683" lon="16.0807417"><ele>85.0</ele><time>2026-04-04T12:08:57.575Z</time></trkpt><trkpt lat="38.07465" lon="16.08088"><ele>85.0</ele><time>2026-04-04T12:08:58.575Z</time></trkpt><trkpt lat="38.0746583" lon="16.081025"><ele>85.0</ele><time>2026-04-04T12:08:59.576Z</time></trkpt><trkpt lat="38.0746733" lon="16.0811683"><ele>85.6</ele><time>2026-04-04T12:09:00.575Z</time></trkpt><trkpt lat="38.0746833" lon="16.08131"><ele>86.2</ele><time>2026-04-04T12:09:01.575Z</time></trkpt><trkpt lat="38.0746833" lon="16.0814433"><ele>86.80000000000001</ele><time>2026-04-04T12:09:02.575Z</time></trkpt><trkpt lat="38.07466" lon="16.0815633"><ele>87.4</ele><time>2026-04-04T12:09:03.575Z</time></trkpt><trkpt lat="38.074605" lon="16.081685"><ele>88.0</ele><time>2026-04-04T12:09:04.575Z</time></trkpt><trkpt lat="38.074535" lon="16.081775"><ele>88.75</ele><time>2026-04-04T12:09:05.575Z</time></trkpt><trkpt lat="38.0744367" lon="16.08185"><ele>89.5</ele><time>2026-04-04T12:09:06.575Z</time></trkpt><trkpt lat="38.0743333" lon="16.08193"><ele>90.25</ele><time>2026-04-04T12:09:07.576Z</time></trkpt><trkpt lat="38.074215" lon="16.0820067"><ele>91.0</ele><time>2026-04-04T12:09:08.575Z</time></trkpt><trkpt lat="38.074095" lon="16.082085"><ele>88.75</ele><time>2026-04-04T12:09:09.575Z</time></trkpt><trkpt lat="38.0739767" lon="16.08217"><ele>86.5</ele><time>2026-04-04T12:09:10.575Z</time></trkpt><trkpt lat="38.0738733" lon="16.0822517"><ele>84.25</ele><time>2026-04-04T12:09:11.575Z</time></trkpt><trkpt lat="38.0737783" lon="16.082325"><ele>82.0</ele><time>2026-04-04T12:09:12.575Z</time></trkpt><trkpt lat="38.073705" lon="16.0824117"><ele>83.39999999999999</ele><time>2026-04-04T12:09:13.576Z</time></trkpt><trkpt lat="38.0736533" lon="16.082515"><ele>84.8</ele><time>2026-04-04T12:09:14.575Z</time></trkpt><trkpt lat="38.07361" lon="16.0826333"><ele>86.2</ele><time>2026-04-04T12:09:15.575Z</time></trkpt><trkpt lat="38.0735717" lon="16.0827667"><ele>87.6</ele><time>2026-04-04T12:09:16.575Z</time></trkpt><trkpt lat="38.0735383" lon="16.0829083"><ele>89.0</ele><time>2026-04-04T12:09:17.575Z</time></trkpt><trkpt lat="38.0735117" lon="16.0830583"><ele>89.0</ele><time>2026-04-04T12:09:18.575Z</time></trkpt><trkpt lat="38.0734767" lon="16.0832083"><ele>89.0</ele><time>2026-04-04T12:09:19.575Z</time></trkpt><trkpt lat="38.0734317" lon="16.0833733"><ele>89.0</ele><time>2026-04-04T12:09:20.575Z</time></trkpt><trkpt lat="38.0733933" lon="16.0835367"><ele>89.0</ele><time>2026-04-04T12:09:21.576Z</time></trkpt><trkpt lat="38.0733567" lon="16.0836933"><ele>89.0</ele><time>2026-04-04T12:09:22.575Z</time></trkpt><trkpt lat="38.0733233" lon="16.0838317"><ele>89.0</ele><time>2026-04-04T12:09:23.575Z</time></trkpt><trkpt lat="38.073295" lon="16.0839767"><ele>89.0</ele><time>2026-04-04T12:09:24.575Z</time></trkpt><trkpt lat="38.0732717" lon="16.0841183"><ele>89.0</ele><time>2026-04-04T12:09:25.575Z</time></trkpt><trkpt lat="38.07326" lon="16.084245"><ele>89.0</ele><time>2026-04-04T12:09:26.575Z</time></trkpt><trkpt lat="38.0732733" lon="16.084365"><ele>89.0</ele><time>2026-04-04T12:09:27.575Z</time></trkpt><trkpt lat="38.073305" lon="16.0844867"><ele>89.0</ele><time>2026-04-04T12:09:28.575Z</time></trkpt><trkpt lat="38.0733383" lon="16.0846067"><ele>89.0</ele><time>2026-04-04T12:09:29.575Z</time></trkpt><trkpt lat="38.0733733" lon="16.08472"><ele>89.0</ele><time>2026-04-04T12:09:30.576Z</time></trkpt><trkpt lat="38.0734117" lon="16.0848333"><ele>89.0</ele><time>2026-04-04T12:09:31.576Z</time></trkpt><trkpt lat="38.0734517" lon="16.0849483"><ele>88.25</ele><time>2026-04-04T12:09:32.576Z</time></trkpt><trkpt lat="38.0735" lon="16.0850683"><ele>87.5</ele><time>2026-04-04T12:09:33.575Z</time></trkpt><trkpt lat="38.073565" lon="16.085195"><ele>86.75</ele><time>2026-04-04T12:09:34.575Z</time></trkpt><trkpt lat="38.0736317" lon="16.0853517"><ele>86.0</ele><time>2026-04-04T12:09:35.575Z</time></trkpt><trkpt lat="38.0737017" lon="16.0855067"><ele>86.0</ele><time>2026-04-04T12:09:36.575Z</time></trkpt><trkpt lat="38.0737683" lon="16.0856617"><ele>86.0</ele><time>2026-04-04T12:09:37.576Z</time></trkpt><trkpt lat="38.0738283" lon="16.0858117"><ele>86.0</ele><time>2026-04-04T12:09:38.575Z</time></trkpt><trkpt lat="38.073885" lon="16.085955"><ele>86.0</ele><time>2026-04-04T12:09:39.575Z</time></trkpt><trkpt lat="38.07393" lon="16.0861033"><ele>85.5</ele><time>2026-04-04T12:09:40.575Z</time></trkpt><trkpt lat="38.0739567" lon="16.0862467"><ele>85.0</ele><time>2026-04-04T12:09:41.575Z</time></trkpt><trkpt lat="38.073955" lon="16.0863983"><ele>84.5</ele><time>2026-04-04T12:09:42.576Z</time></trkpt><trkpt lat="38.0739267" lon="16.0865583"><ele>84.0</ele><time>2026-04-04T12:09:43.575Z</time></trkpt><trkpt lat="38.07389" lon="16.0867183"><ele>85.25</ele><time>2026-04-04T12:09:44.575Z</time></trkpt><trkpt lat="38.0738617" lon="16.0868717"><ele>86.5</ele><time>2026-04-04T12:09:45.575Z</time></trkpt><trkpt lat="38.0738317" lon="16.0870133"><ele>87.75</ele><time>2026-04-04T12:09:46.576Z</time></trkpt><trkpt lat="38.0737933" lon="16.0871683"><ele>89.0</ele><time>2026-04-04T12:09:47.575Z</time></trkpt><trkpt lat="38.0737617" lon="16.0873233"><ele>88.75</ele><time>2026-04-04T12:09:48.575Z</time></trkpt><trkpt lat="38.0737217" lon="16.0874733"><ele>88.5</ele><time>2026-04-04T12:09:49.575Z</time></trkpt><trkpt lat="38.0736817" lon="16.0876367"><ele>88.25</ele><time>2026-04-04T12:09:50.575Z</time></trkpt><trkpt lat="38.073635" lon="16.087795"><ele>88.0</ele><time>2026-04-04T12:09:51.575Z</time></trkpt><trkpt lat="38.0735667" lon="16.08795"><ele>88.0</ele><time>2026-04-04T12:09:52.575Z</time></trkpt><trkpt lat="38.0734833" lon="16.0880967"><ele>88.0</ele><time>2026-04-04T12:09:53.575Z</time></trkpt><trkpt lat="38.073395" lon="16.0882333"><ele>88.0</ele><time>2026-04-04T12:09:54.575Z</time></trkpt><trkpt lat="38.0733083" lon="16.0883683"><ele>88.0</ele><time>2026-04-04T12:09:55.575Z</time></trkpt><trkpt lat="38.0732233" lon="16.0885"><ele>87.25</ele><time>2026-04-04T12:09:56.575Z</time></trkpt><trkpt lat="38.0731517" lon="16.0886283"><ele>86.5</ele><time>2026-04-04T12:09:57.575Z</time></trkpt><trkpt lat="38.073085" lon="16.08875"><ele>85.75</ele><time>2026-04-04T12:09:58.575Z</time></trkpt><trkpt lat="38.07305" lon="16.0888917"><ele>85.0</ele><time>2026-04-04T12:09:59.575Z</time></trkpt><trkpt lat="38.0730433" lon="16.0890317"><ele>85.75</ele><time>2026-04-04T12:10:00.576Z</time></trkpt><trkpt lat="38.07307" lon="16.089165"><ele>86.5</ele><time>2026-04-04T12:10:01.575Z</time></trkpt><trkpt lat="38.07313" lon="16.0892967"><ele>87.25</ele><time>2026-04-04T12:10:02.575Z</time></trkpt><trkpt lat="38.0732167" lon="16.0894183"><ele>88.0</ele><time>2026-04-04T12:10:03.576Z</time></trkpt><trkpt lat="38.0733117" lon="16.0895133"><ele>91.5</ele><time>2026-04-04T12:10:04.576Z</time></trkpt><trkpt lat="38.0734083" lon="16.0896017"><ele>95.0</ele><time>2026-04-04T12:10:05.575Z</time></trkpt><trkpt lat="38.073505" lon="16.0896983"><ele>98.5</ele><time>2026-04-04T12:10:06.575Z</time></trkpt><trkpt lat="38.0736067" lon="16.0897983"><ele>102.0</ele><time>2026-04-04T12:10:07.575Z</time></trkpt><trkpt lat="38.0737117" lon="16.0899017"><ele>100.25</ele><time>2026-04-04T12:10:08.576Z</time></trkpt><trkpt lat="38.0738233" lon="16.0900183"><ele>98.5</ele><time>2026-04-04T12:10:09.575Z</time></trkpt><trkpt lat="38.073925" lon="16.0901367"><ele>96.75</ele><time>2026-04-04T12:10:10.575Z</time></trkpt><trkpt lat="38.0740233" lon="16.0902567"><ele>95.0</ele><time>2026-04-04T12:10:11.575Z</time></trkpt><trkpt lat="38.0741133" lon="16.0903833"><ele>97.75</ele><time>2026-04-04T12:10:12.576Z</time></trkpt><trkpt lat="38.0742017" lon="16.0905233"><ele>100.5</ele><time>2026-04-04T12:10:13.575Z</time></trkpt><trkpt lat="38.0742783" lon="16.0906717"><ele>103.25</ele><time>2026-04-04T12:10:14.576Z</time></trkpt><trkpt lat="38.074345" lon="16.0908283"><ele>106.0</ele><time>2026-04-04T12:10:15.575Z</time></trkpt><trkpt lat="38.0744133" lon="16.09099"><ele>106.0</ele><time>2026-04-04T12:10:16.575Z</time></trkpt><trkpt lat="38.0744817" lon="16.0911467"><ele>106.0</ele><time>2026-04-04T12:10:17.576Z</time></trkpt><trkpt lat="38.074545" lon="16.0913067"><ele>106.0</ele><time>2026-04-04T12:10:18.575Z</time></trkpt><trkpt lat="38.074615" lon="16.0914567"><ele>106.0</ele><time>2026-04-04T12:10:19.575Z</time></trkpt><trkpt lat="38.0746667" lon="16.0916017"><ele>106.25</ele><time>2026-04-04T12:10:20.575Z</time></trkpt><trkpt lat="38.0747283" lon="16.091745"><ele>106.5</ele><time>2026-04-04T12:10:21.575Z</time></trkpt><trkpt lat="38.0748117" lon="16.091875"><ele>106.75</ele><time>2026-04-04T12:10:22.575Z</time></trkpt><trkpt lat="38.0749167" lon="16.091985"><ele>107.0</ele><time>2026-04-04T12:10:23.575Z</time></trkpt><trkpt lat="38.0750317" lon="16.0920817"><ele>110.0</ele><time>2026-04-04T12:10:24.576Z</time></trkpt><trkpt lat="38.0751617" lon="16.0921783"><ele>113.0</ele><time>2026-04-04T12:10:25.575Z</time></trkpt><trkpt lat="38.0753" lon="16.0922833"><ele>116.0</ele><time>2026-04-04T12:10:26.575Z</time></trkpt><trkpt lat="38.0754433" lon="16.09241"><ele>115.0</ele><time>2026-04-04T12:10:27.575Z</time></trkpt><trkpt lat="38.0755933" lon="16.0925383"><ele>114.0</ele><time>2026-04-04T12:10:28.576Z</time></trkpt><trkpt lat="38.07573" lon="16.0926583"><ele>113.0</ele><time>2026-04-04T12:10:29.575Z</time></trkpt><trkpt lat="38.07586" lon="16.09277"><ele>113.0</ele><time>2026-04-04T12:10:30.576Z</time></trkpt><trkpt lat="38.0759783" lon="16.0928717"><ele>113.0</ele><time>2026-04-04T12:10:31.575Z</time></trkpt><trkpt lat="38.0761083" lon="16.0929583"><ele>113.0</ele><time>2026-04-04T12:10:32.576Z</time></trkpt><trkpt lat="38.0762467" lon="16.0930217"><ele>113.0</ele><time>2026-04-04T12:10:33.575Z</time></trkpt><trkpt lat="38.0763783" lon="16.0930783"><ele>113.0</ele><time>2026-04-04T12:10:34.575Z</time></trkpt><trkpt lat="38.07652" lon="16.0931233"><ele>113.0</ele><time>2026-04-04T12:10:35.575Z</time></trkpt><trkpt lat="38.0766567" lon="16.09316"><ele>113.0</ele><time>2026-04-04T12:10:36.575Z</time></trkpt><trkpt lat="38.076785" lon="16.0932017"><ele>113.0</ele><time>2026-04-04T12:10:37.575Z</time></trkpt><trkpt lat="38.0769067" lon="16.093235"><ele>111.25</ele><time>2026-04-04T12:10:38.575Z</time></trkpt><trkpt lat="38.0770233" lon="16.0932817"><ele>109.5</ele><time>2026-04-04T12:10:39.576Z</time></trkpt><trkpt lat="38.07714" lon="16.0933517"><ele>107.75</ele><time>2026-04-04T12:10:40.575Z</time></trkpt><trkpt lat="38.0772217" lon="16.093455"><ele>106.0</ele><time>2026-04-04T12:10:41.575Z</time></trkpt><trkpt lat="38.0772817" lon="16.0935733"><ele>106.0</ele><time>2026-04-04T12:10:42.575Z</time></trkpt><trkpt lat="38.0772867" lon="16.0937133"><ele>106.0</ele><time>2026-04-04T12:10:43.575Z</time></trkpt><trkpt lat="38.077265" lon="16.093855"><ele>106.0</ele><time>2026-04-04T12:10:44.575Z</time></trkpt><trkpt lat="38.07722" lon="16.0940033"><ele>106.0</ele><time>2026-04-04T12:10:45.575Z</time></trkpt><trkpt lat="38.0771733" lon="16.09415"><ele>104.5</ele><time>2026-04-04T12:10:46.575Z</time></trkpt><trkpt lat="38.0771267" lon="16.094305"><ele>103.0</ele><time>2026-04-04T12:10:47.575Z</time></trkpt><trkpt lat="38.07708" lon="16.0944583"><ele>101.5</ele><time>2026-04-04T12:10:48.575Z</time></trkpt><trkpt lat="38.077025" lon="16.0946067"><ele>100.0</ele><time>2026-04-04T12:10:49.575Z</time></trkpt><trkpt lat="38.0769667" lon="16.0947533"><ele>100.0</ele><time>2026-04-04T12:10:50.576Z</time></trkpt><trkpt lat="38.07691" lon="16.0949067"><ele>100.0</ele><time>2026-04-04T12:10:51.575Z</time></trkpt><trkpt lat="38.0768567" lon="16.0950483"><ele>100.0</ele><time>2026-04-04T12:10:52.575Z</time></trkpt><trkpt lat="38.0768067" lon="16.095185"><ele>100.0</ele><time>2026-04-04T12:10:53.575Z</time></trkpt><trkpt lat="38.0767683" lon="16.09533"><ele>100.25</ele><time>2026-04-04T12:10:54.575Z</time></trkpt><trkpt lat="38.0767433" lon="16.0954733"><ele>100.5</ele><time>2026-04-04T12:10:55.575Z</time></trkpt><trkpt lat="38.0767333" lon="16.0956383"><ele>100.75</ele><time>2026-04-04T12:10:56.575Z</time></trkpt><trkpt lat="38.07673" lon="16.0958167"><ele>101.0</ele><time>2026-04-04T12:10:57.575Z</time></trkpt><trkpt lat="38.0767267" lon="16.0959983"><ele>101.75</ele><time>2026-04-04T12:10:58.575Z</time></trkpt><trkpt lat="38.07672" lon="16.0961817"><ele>102.5</ele><time>2026-04-04T12:10:59.576Z</time></trkpt><trkpt lat="38.076715" lon="16.0963733"><ele>103.25</ele><time>2026-04-04T12:11:00.575Z</time></trkpt><trkpt lat="38.07673" lon="16.0965583"><ele>104.0</ele><time>2026-04-04T12:11:01.575Z</time></trkpt><trkpt lat="38.0767617" lon="16.0967267"><ele>104.75</ele><time>2026-04-04T12:11:02.575Z</time></trkpt><trkpt lat="38.0768067" lon="16.096885"><ele>105.5</ele><time>2026-04-04T12:11:03.575Z</time></trkpt><trkpt lat="38.076855" lon="16.09703"><ele>106.25</ele><time>2026-04-04T12:11:04.576Z</time></trkpt><trkpt lat="38.076915" lon="16.09718"><ele>107.0</ele><time>2026-04-04T12:11:05.575Z</time></trkpt><trkpt lat="38.0769767" lon="16.0973217"><ele>106.5</ele><time>2026-04-04T12:11:06.576Z</time></trkpt><trkpt lat="38.07705" lon="16.097455"><ele>106.0</ele><time>2026-04-04T12:11:07.575Z</time></trkpt><trkpt lat="38.0771217" lon="16.09759"><ele>105.5</ele><time>2026-04-04T12:11:08.575Z</time></trkpt><trkpt lat="38.0771983" lon="16.0977333"><ele>105.0</ele><time>2026-04-04T12:11:09.576Z</time></trkpt><trkpt lat="38.0772717" lon="16.0978717"><ele>105.0</ele><time>2026-04-04T12:11:10.575Z</time></trkpt><trkpt lat="38.0773517" lon="16.0980067"><ele>105.0</ele><time>2026-04-04T12:11:11.575Z</time></trkpt><trkpt lat="38.0774283" lon="16.0981517"><ele>105.0</ele><time>2026-04-04T12:11:12.575Z</time></trkpt><trkpt lat="38.0775" lon="16.0983017"><ele>105.0</ele><time>2026-04-04T12:11:13.575Z</time></trkpt><trkpt lat="38.0775683" lon="16.09845"><ele>106.0</ele><time>2026-04-04T12:11:14.575Z</time></trkpt><trkpt lat="38.0776483" lon="16.0985867"><ele>107.0</ele><time>2026-04-04T12:11:15.575Z</time></trkpt><trkpt lat="38.0777367" lon="16.0987117"><ele>108.0</ele><time>2026-04-04T12:11:16.576Z</time></trkpt><trkpt lat="38.0778433" lon="16.0988067"><ele>109.0</ele><time>2026-04-04T12:11:17.575Z</time></trkpt><trkpt lat="38.0779583" lon="16.0988867"><ele>109.0</ele><time>2026-04-04T12:11:18.575Z</time></trkpt><trkpt lat="38.0780833" lon="16.0989633"><ele>109.0</ele><time>2026-04-04T12:11:19.575Z</time></trkpt><trkpt lat="38.078205" lon="16.0990367"><ele>109.0</ele><time>2026-04-04T12:11:20.575Z</time></trkpt><trkpt lat="38.0783283" lon="16.099085"><ele>109.0</ele><time>2026-04-04T12:11:21.575Z</time></trkpt><trkpt lat="38.07845" lon="16.0991167"><ele>107.5</ele><time>2026-04-04T12:11:22.576Z</time></trkpt><trkpt lat="38.0785667" lon="16.0991083"><ele>106.0</ele><time>2026-04-04T12:11:23.575Z</time></trkpt><trkpt lat="38.0786867" lon="16.0990683"><ele>104.5</ele><time>2026-04-04T12:11:24.575Z</time></trkpt><trkpt lat="38.078815" lon="16.099015"><ele>103.0</ele><time>2026-04-04T12:11:25.575Z</time></trkpt><trkpt lat="38.0789417" lon="16.09896"><ele>104.5</ele><time>2026-04-04T12:11:26.575Z</time></trkpt><trkpt lat="38.0790717" lon="16.0989133"><ele>106.0</ele><time>2026-04-04T12:11:27.575Z</time></trkpt><trkpt lat="38.0792" lon="16.0988617"><ele>107.5</ele><time>2026-04-04T12:11:28.575Z</time></trkpt><trkpt lat="38.0793267" lon="16.098835"><ele>109.0</ele><time>2026-04-04T12:11:29.576Z</time></trkpt><trkpt lat="38.0794417" lon="16.0988217"><ele>109.0</ele><time>2026-04-04T12:11:30.575Z</time></trkpt><trkpt lat="38.0795633" lon="16.09882"><ele>109.0</ele><time>2026-04-04T12:11:31.575Z</time></trkpt><trkpt lat="38.0796783" lon="16.09885"><ele>109.0</ele><time>2026-04-04T12:11:32.575Z</time></trkpt><trkpt lat="38.0797833" lon="16.0989083"><ele>109.0</ele><time>2026-04-04T12:11:33.575Z</time></trkpt><trkpt lat="38.079865" lon="16.0989867"><ele>109.00000000000001</ele><time>2026-04-04T12:11:34.575Z</time></trkpt><trkpt lat="38.0799333" lon="16.0990733"><ele>109.0</ele><time>2026-04-04T12:11:35.576Z</time></trkpt><trkpt lat="38.0799933" lon="16.0991567"><ele>109.0</ele><time>2026-04-04T12:11:36.575Z</time></trkpt><trkpt lat="38.0800517" lon="16.0992333"><ele>109.0</ele><time>2026-04-04T12:11:37.575Z</time></trkpt><trkpt lat="38.0801083" lon="16.0993133"><ele>109.00000000000001</ele><time>2026-04-04T12:11:38.575Z</time></trkpt><trkpt lat="38.080165" lon="16.0994"><ele>109.0</ele><time>2026-04-04T12:11:39.575Z</time></trkpt><trkpt lat="38.0801983" lon="16.0994817"><ele>106.66666666666667</ele><time>2026-04-04T12:11:40.575Z</time></trkpt><trkpt lat="38.0802083" lon="16.0995733"><ele>104.33333333333334</ele><time>2026-04-04T12:11:41.575Z</time></trkpt><trkpt lat="38.08019" lon="16.09965"><ele>102.0</ele><time>2026-04-04T12:11:42.576Z</time></trkpt><trkpt lat="38.080145" lon="16.0997417"><ele>99.66666666666667</ele><time>2026-04-04T12:11:43.575Z</time></trkpt><trkpt lat="38.080075" lon="16.0998367"><ele>97.33333333333334</ele><time>2026-04-04T12:11:44.576Z</time></trkpt><trkpt lat="38.0799933" lon="16.0999417"><ele>95.0</ele><time>2026-04-04T12:11:45.575Z</time></trkpt><trkpt lat="38.0799167" lon="16.1000583"><ele>92.5</ele><time>2026-04-04T12:11:46.575Z</time></trkpt><trkpt lat="38.0798333" lon="16.1001883"><ele>90.0</ele><time>2026-04-04T12:11:47.575Z</time></trkpt><trkpt lat="38.0797733" lon="16.100325"><ele>87.5</ele><time>2026-04-04T12:11:48.575Z</time></trkpt><trkpt lat="38.079745" lon="16.1004783"><ele>85.0</ele><time>2026-04-04T12:11:49.576Z</time></trkpt><trkpt lat="38.0797533" lon="16.1006383"><ele>84.25</ele><time>2026-04-04T12:11:50.575Z</time></trkpt><trkpt lat="38.0797967" lon="16.1007867"><ele>83.5</ele><time>2026-04-04T12:11:51.576Z</time></trkpt><trkpt lat="38.0798717" lon="16.10092"><ele>82.75</ele><time>2026-04-04T12:11:52.575Z</time></trkpt><trkpt lat="38.0799633" lon="16.101035"><ele>82.0</ele><time>2026-04-04T12:11:53.576Z</time></trkpt><trkpt lat="38.0800617" lon="16.1011517"><ele>83.0</ele><time>2026-04-04T12:11:54.575Z</time></trkpt><trkpt lat="38.08016" lon="16.10127"><ele>84.0</ele><time>2026-04-04T12:11:55.575Z</time></trkpt><trkpt lat="38.08026" lon="16.1013867"><ele>85.0</ele><time>2026-04-04T12:11:56.575Z</time></trkpt><trkpt lat="38.0803567" lon="16.1015"><ele>86.0</ele><time>2026-04-04T12:11:57.576Z</time></trkpt><trkpt lat="38.0804533" lon="16.1016167"><ele>86.0</ele><time>2026-04-04T12:11:58.575Z</time></trkpt><trkpt lat="38.080535" lon="16.1017433"><ele>86.0</ele><time>2026-04-04T12:11:59.575Z</time></trkpt><trkpt lat="38.0806017" lon="16.1018683"><ele>86.0</ele><time>2026-04-04T12:12:00.575Z</time></trkpt><trkpt lat="38.08066" lon="16.102"><ele>86.0</ele><time>2026-04-04T12:12:01.575Z</time></trkpt><trkpt lat="38.08071" lon="16.1021333"><ele>86.0</ele><time>2026-04-04T12:12:02.575Z</time></trkpt><trkpt lat="38.0807417" lon="16.102275"><ele>86.0</ele><time>2026-04-04T12:12:03.575Z</time></trkpt><trkpt lat="38.08077" lon="16.1024217"><ele>86.0</ele><time>2026-04-04T12:12:04.575Z</time></trkpt><trkpt lat="38.08079" lon="16.1025733"><ele>86.0</ele><time>2026-04-04T12:12:05.576Z</time></trkpt><trkpt lat="38.0808067" lon="16.102735"><ele>86.5</ele><time>2026-04-04T12:12:06.575Z</time></trkpt><trkpt lat="38.0808167" lon="16.1029"><ele>87.0</ele><time>2026-04-04T12:12:07.575Z</time></trkpt><trkpt lat="38.08082" lon="16.1030683"><ele>87.5</ele><time>2026-04-04T12:12:08.575Z</time></trkpt><trkpt lat="38.08083" lon="16.103225"><ele>88.0</ele><time>2026-04-04T12:12:09.576Z</time></trkpt><trkpt lat="38.0808417" lon="16.1033867"><ele>88.0</ele><time>2026-04-04T12:12:10.575Z</time></trkpt><trkpt lat="38.0808517" lon="16.1035483"><ele>88.0</ele><time>2026-04-04T12:12:11.575Z</time></trkpt><trkpt lat="38.0808533" lon="16.1037117"><ele>88.0</ele><time>2026-04-04T12:12:12.575Z</time></trkpt><trkpt lat="38.0808533" lon="16.1038817"><ele>88.0</ele><time>2026-04-04T12:12:13.575Z</time></trkpt><trkpt lat="38.0808333" lon="16.1040567"><ele>87.0</ele><time>2026-04-04T12:12:14.576Z</time></trkpt><trkpt lat="38.080815" lon="16.104215"><ele>86.0</ele><time>2026-04-04T12:12:15.575Z</time></trkpt><trkpt lat="38.080785" lon="16.1043717"><ele>85.0</ele><time>2026-04-04T12:12:16.575Z</time></trkpt><trkpt lat="38.0807683" lon="16.1045133"><ele>84.0</ele><time>2026-04-04T12:12:17.575Z</time></trkpt><trkpt lat="38.0807717" lon="16.1046583"><ele>84.0</ele><time>2026-04-04T12:12:18.575Z</time></trkpt><trkpt lat="38.080805" lon="16.104785"><ele>84.0</ele><time>2026-04-04T12:12:19.575Z</time></trkpt><trkpt lat="38.0808633" lon="16.1049083"><ele>84.0</ele><time>2026-04-04T12:12:20.575Z</time></trkpt><trkpt lat="38.0809317" lon="16.1050383"><ele>84.0</ele><time>2026-04-04T12:12:21.575Z</time></trkpt><trkpt lat="38.0810033" lon="16.1051683"><ele>82.5</ele><time>2026-04-04T12:12:22.575Z</time></trkpt><trkpt lat="38.0810533" lon="16.1052967"><ele>81.0</ele><time>2026-04-04T12:12:23.575Z</time></trkpt><trkpt lat="38.0810883" lon="16.1054267"><ele>79.5</ele><time>2026-04-04T12:12:24.575Z</time></trkpt><trkpt lat="38.081115" lon="16.105565"><ele>78.0</ele><time>2026-04-04T12:12:25.575Z</time></trkpt><trkpt lat="38.081115" lon="16.1057133"><ele>76.75</ele><time>2026-04-04T12:12:26.575Z</time></trkpt><trkpt lat="38.081115" lon="16.1058783"><ele>75.5</ele><time>2026-04-04T12:12:27.575Z</time></trkpt><trkpt lat="38.081115" lon="16.106045"><ele>74.25</ele><time>2026-04-04T12:12:28.575Z</time></trkpt><trkpt lat="38.081115" lon="16.1062117"><ele>73.0</ele><time>2026-04-04T12:12:29.575Z</time></trkpt><trkpt lat="38.081125" lon="16.1063767"><ele>73.0</ele><time>2026-04-04T12:12:30.576Z</time></trkpt><trkpt lat="38.0811483" lon="16.1065133"><ele>73.0</ele><time>2026-04-04T12:12:31.575Z</time></trkpt><trkpt lat="38.0812067" lon="16.1066433"><ele>73.0</ele><time>2026-04-04T12:12:32.575Z</time></trkpt><trkpt lat="38.0812883" lon="16.1067683"><ele>73.0</ele><time>2026-04-04T12:12:33.575Z</time></trkpt><trkpt lat="38.08139" lon="16.1068833"><ele>72.5</ele><time>2026-04-04T12:12:34.575Z</time></trkpt><trkpt lat="38.08149" lon="16.107005"><ele>72.0</ele><time>2026-04-04T12:12:35.576Z</time></trkpt><trkpt lat="38.08157" lon="16.1071333"><ele>71.5</ele><time>2026-04-04T12:12:36.575Z</time></trkpt><trkpt lat="38.0816267" lon="16.1072733"><ele>71.0</ele><time>2026-04-04T12:12:37.575Z</time></trkpt><trkpt lat="38.0816567" lon="16.1074183"><ele>71.0</ele><time>2026-04-04T12:12:38.575Z</time></trkpt><trkpt lat="38.08166" lon="16.1075733"><ele>71.0</ele><time>2026-04-04T12:12:39.576Z</time></trkpt><trkpt lat="38.08165" lon="16.10774"><ele>71.0</ele><time>2026-04-04T12:12:40.575Z</time></trkpt><trkpt lat="38.08164" lon="16.1079183"><ele>71.0</ele><time>2026-04-04T12:12:41.575Z</time></trkpt><trkpt lat="38.081635" lon="16.1080983"><ele>69.75</ele><time>2026-04-04T12:12:42.575Z</time></trkpt><trkpt lat="38.0816533" lon="16.108265"><ele>68.5</ele><time>2026-04-04T12:12:43.575Z</time></trkpt><trkpt lat="38.08169" lon="16.1084183"><ele>67.25</ele><time>2026-04-04T12:12:44.576Z</time></trkpt><trkpt lat="38.081755" lon="16.10857"><ele>66.0</ele><time>2026-04-04T12:12:45.575Z</time></trkpt><trkpt lat="38.08183" lon="16.108715"><ele>66.0</ele><time>2026-04-04T12:12:46.576Z</time></trkpt><trkpt lat="38.0819167" lon="16.1088417"><ele>66.0</ele><time>2026-04-04T12:12:47.575Z</time></trkpt><trkpt lat="38.0820183" lon="16.1089583"><ele>66.0</ele><time>2026-04-04T12:12:48.576Z</time></trkpt><trkpt lat="38.0821217" lon="16.1090617"><ele>66.0</ele><time>2026-04-04T12:12:49.576Z</time></trkpt><trkpt lat="38.082225" lon="16.10916"><ele>66.0</ele><time>2026-04-04T12:12:50.575Z</time></trkpt><trkpt lat="38.0823317" lon="16.1092617"><ele>66.0</ele><time>2026-04-04T12:12:51.576Z</time></trkpt><trkpt lat="38.0824433" lon="16.1093617"><ele>66.0</ele><time>2026-04-04T12:12:52.575Z</time></trkpt><trkpt lat="38.0825517" lon="16.1094517"><ele>66.0</ele><time>2026-04-04T12:12:53.576Z</time></trkpt><trkpt lat="38.08265" lon="16.109545"><ele>66.0</ele><time>2026-04-04T12:12:54.575Z</time></trkpt><trkpt lat="38.08275" lon="16.1096317"><ele>66.0</ele><time>2026-04-04T12:12:55.575Z</time></trkpt><trkpt lat="38.082845" lon="16.1097233"><ele>66.0</ele><time>2026-04-04T12:12:56.576Z</time></trkpt><trkpt lat="38.08293" lon="16.10981"><ele>66.0</ele><time>2026-04-04T12:12:57.575Z</time></trkpt><trkpt lat="38.0830083" lon="16.1098883"><ele>66.0</ele><time>2026-04-04T12:12:58.575Z</time></trkpt><trkpt lat="38.0830783" lon="16.1099633"><ele>64.39999999999999</ele><time>2026-04-04T12:12:59.575Z</time></trkpt><trkpt lat="38.08313" lon="16.1100617"><ele>62.8</ele><time>2026-04-04T12:13:00.575Z</time></trkpt><trkpt lat="38.083155" lon="16.1101667"><ele>61.199999999999996</ele><time>2026-04-04T12:13:01.575Z</time></trkpt><trkpt lat="38.0831517" lon="16.1102817"><ele>59.599999999999994</ele><time>2026-04-04T12:13:02.575Z</time></trkpt><trkpt lat="38.0831183" lon="16.11041"><ele>58.0</ele><time>2026-04-04T12:13:03.575Z</time></trkpt><trkpt lat="38.0830783" lon="16.11055"><ele>58.0</ele><time>2026-04-04T12:13:04.575Z</time></trkpt><trkpt lat="38.0830333" lon="16.1106917"><ele>58.0</ele><time>2026-04-04T12:13:05.575Z</time></trkpt><trkpt lat="38.08298" lon="16.1108417"><ele>58.0</ele><time>2026-04-04T12:13:06.575Z</time></trkpt><trkpt lat="38.0829233" lon="16.110995"><ele>58.0</ele><time>2026-04-04T12:13:07.576Z</time></trkpt><trkpt lat="38.0828683" lon="16.1111483"><ele>57.25</ele><time>2026-04-04T12:13:08.575Z</time></trkpt><trkpt lat="38.0828117" lon="16.1112967"><ele>56.5</ele><time>2026-04-04T12:13:09.575Z</time></trkpt><trkpt lat="38.082755" lon="16.1114367"><ele>55.75</ele><time>2026-04-04T12:13:10.575Z</time></trkpt><trkpt lat="38.0827" lon="16.111575"><ele>55.0</ele><time>2026-04-04T12:13:11.575Z</time></trkpt><trkpt lat="38.082645" lon="16.1117033"><ele>54.25</ele><time>2026-04-04T12:13:12.575Z</time></trkpt><trkpt lat="38.0825983" lon="16.111825"><ele>53.5</ele><time>2026-04-04T12:13:13.575Z</time></trkpt><trkpt lat="38.082545" lon="16.1119617"><ele>52.75</ele><time>2026-04-04T12:13:14.575Z</time></trkpt><trkpt lat="38.0824817" lon="16.1121017"><ele>52.0</ele><time>2026-04-04T12:13:15.575Z</time></trkpt><trkpt lat="38.0824217" lon="16.1122467"><ele>51.75</ele><time>2026-04-04T12:13:16.575Z</time></trkpt><trkpt lat="38.0823583" lon="16.1124017"><ele>51.5</ele><time>2026-04-04T12:13:17.575Z</time></trkpt><trkpt lat="38.0822883" lon="16.1125683"><ele>51.25</ele><time>2026-04-04T12:13:18.576Z</time></trkpt><trkpt lat="38.0822183" lon="16.1127283"><ele>51.0</ele><time>2026-04-04T12:13:19.575Z</time></trkpt><trkpt lat="38.0821483" lon="16.1128867"><ele>50.25</ele><time>2026-04-04T12:13:20.575Z</time></trkpt><trkpt lat="38.0820817" lon="16.1130517"><ele>49.5</ele><time>2026-04-04T12:13:21.575Z</time></trkpt><trkpt lat="38.0820267" lon="16.11321"><ele>48.75</ele><time>2026-04-04T12:13:22.576Z</time></trkpt><trkpt lat="38.081965" lon="16.1133717"><ele>48.0</ele><time>2026-04-04T12:13:23.575Z</time></trkpt><trkpt lat="38.0818967" lon="16.1135283"><ele>48.0</ele><time>2026-04-04T12:13:24.575Z</time></trkpt><trkpt lat="38.08184" lon="16.1136883"><ele>48.0</ele><time>2026-04-04T12:13:25.575Z</time></trkpt><trkpt lat="38.081785" lon="16.11386"><ele>48.0</ele><time>2026-04-04T12:13:26.575Z</time></trkpt><trkpt lat="38.0817383" lon="16.11404"><ele>48.0</ele><time>2026-04-04T12:13:27.575Z</time></trkpt><trkpt lat="38.0817067" lon="16.114225"><ele>48.0</ele><time>2026-04-04T12:13:28.575Z</time></trkpt><trkpt lat="38.0816767" lon="16.11443"><ele>48.0</ele><time>2026-04-04T12:13:29.576Z</time></trkpt><trkpt lat="38.08165" lon="16.1146317"><ele>48.0</ele><time>2026-04-04T12:13:30.575Z</time></trkpt><trkpt lat="38.08163" lon="16.1148383"><ele>48.66666666666667</ele><time>2026-04-04T12:13:31.575Z</time></trkpt><trkpt lat="38.0816167" lon="16.1150383"><ele>49.333333333333336</ele><time>2026-04-04T12:13:32.575Z</time></trkpt><trkpt lat="38.081605" lon="16.115235"><ele>50.0</ele><time>2026-04-04T12:13:33.575Z</time></trkpt><trkpt lat="38.0815917" lon="16.1154317"><ele>48.75</ele><time>2026-04-04T12:13:34.575Z</time></trkpt><trkpt lat="38.0815733" lon="16.1156233"><ele>47.5</ele><time>2026-04-04T12:13:35.575Z</time></trkpt><trkpt lat="38.0815567" lon="16.1158083"><ele>46.25</ele><time>2026-04-04T12:13:36.575Z</time></trkpt><trkpt lat="38.0815283" lon="16.1159833"><ele>45.0</ele><time>2026-04-04T12:13:37.576Z</time></trkpt><trkpt lat="38.0814883" lon="16.1161583"><ele>44.666666666666664</ele><time>2026-04-04T12:13:38.575Z</time></trkpt><trkpt lat="38.0814333" lon="16.1163317"><ele>44.33333333333333</ele><time>2026-04-04T12:13:39.575Z</time></trkpt><trkpt lat="38.0813717" lon="16.1165083"><ele>44.0</ele><time>2026-04-04T12:13:40.575Z</time></trkpt><trkpt lat="38.0813033" lon="16.1166833"><ele>43.666666666666664</ele><time>2026-04-04T12:13:41.575Z</time></trkpt><trkpt lat="38.0812367" lon="16.116865"><ele>43.333333333333336</ele><time>2026-04-04T12:13:42.575Z</time></trkpt><trkpt lat="38.0811717" lon="16.1170483"><ele>43.0</ele><time>2026-04-04T12:13:43.575Z</time></trkpt><trkpt lat="38.0811017" lon="16.117215"><ele>43.0</ele><time>2026-04-04T12:13:44.575Z</time></trkpt><trkpt lat="38.0810417" lon="16.1173983"><ele>43.0</ele><time>2026-04-04T12:13:45.575Z</time></trkpt><trkpt lat="38.0809883" lon="16.1175517"><ele>43.0</ele><time>2026-04-04T12:13:46.576Z</time></trkpt><trkpt lat="38.0809417" lon="16.1177117"><ele>43.0</ele><time>2026-04-04T12:13:47.576Z</time></trkpt><trkpt lat="38.0809233" lon="16.11786"><ele>43.25</ele><time>2026-04-04T12:13:48.575Z</time></trkpt><trkpt lat="38.08095" lon="16.1180017"><ele>43.5</ele><time>2026-04-04T12:13:49.575Z</time></trkpt><trkpt lat="38.0810167" lon="16.1181533"><ele>43.75</ele><time>2026-04-04T12:13:50.576Z</time></trkpt><trkpt lat="38.0811083" lon="16.118295"><ele>44.0</ele><time>2026-04-04T12:13:51.575Z</time></trkpt><trkpt lat="38.081215" lon="16.118435"><ele>44.0</ele><time>2026-04-04T12:13:52.575Z</time></trkpt><trkpt lat="38.0813167" lon="16.1185783"><ele>44.0</ele><time>2026-04-04T12:13:53.575Z</time></trkpt><trkpt lat="38.081415" lon="16.118725"><ele>44.0</ele><time>2026-04-04T12:13:54.575Z</time></trkpt><trkpt lat="38.0814967" lon="16.1188617"><ele>44.0</ele><time>2026-04-04T12:13:55.576Z</time></trkpt><trkpt lat="38.0815533" lon="16.119"><ele>43.25</ele><time>2026-04-04T12:13:56.575Z</time></trkpt><trkpt lat="38.081595" lon="16.1191517"><ele>42.5</ele><time>2026-04-04T12:13:57.575Z</time></trkpt><trkpt lat="38.081605" lon="16.1193117"><ele>41.75</ele><time>2026-04-04T12:13:58.575Z</time></trkpt><trkpt lat="38.0815967" lon="16.1194817"><ele>41.0</ele><time>2026-04-04T12:13:59.575Z</time></trkpt><trkpt lat="38.0815683" lon="16.11966"><ele>41.0</ele><time>2026-04-04T12:14:00.575Z</time></trkpt><trkpt lat="38.0815367" lon="16.1198333"><ele>41.0</ele><time>2026-04-04T12:14:01.575Z</time></trkpt><trkpt lat="38.0814967" lon="16.1200117"><ele>41.0</ele><time>2026-04-04T12:14:02.575Z</time></trkpt><trkpt lat="38.0814533" lon="16.1201767"><ele>41.0</ele><time>2026-04-04T12:14:03.576Z</time></trkpt><trkpt lat="38.0814" lon="16.12033"><ele>41.0</ele><time>2026-04-04T12:14:04.576Z</time></trkpt><trkpt lat="38.0813367" lon="16.1204667"><ele>41.0</ele><time>2026-04-04T12:14:05.575Z</time></trkpt><trkpt lat="38.0812733" lon="16.12062"><ele>41.0</ele><time>2026-04-04T12:14:06.575Z</time></trkpt><trkpt lat="38.081205" lon="16.1207617"><ele>41.0</ele><time>2026-04-04T12:14:07.575Z</time></trkpt><trkpt lat="38.08114" lon="16.1208883"><ele>41.8</ele><time>2026-04-04T12:14:08.575Z</time></trkpt><trkpt lat="38.0810783" lon="16.12101"><ele>42.599999999999994</ele><time>2026-04-04T12:14:09.575Z</time></trkpt><trkpt lat="38.0810233" lon="16.1211283"><ele>43.4</ele><time>2026-04-04T12:14:10.575Z</time></trkpt><trkpt lat="38.0809733" lon="16.12125"><ele>44.2</ele><time>2026-04-04T12:14:11.575Z</time></trkpt><trkpt lat="38.08093" lon="16.1213683"><ele>45.0</ele><time>2026-04-04T12:14:12.575Z</time></trkpt><trkpt lat="38.0809" lon="16.1215033"><ele>45.25</ele><time>2026-04-04T12:14:13.575Z</time></trkpt><trkpt lat="38.0809" lon="16.1216483"><ele>45.5</ele><time>2026-04-04T12:14:14.575Z</time></trkpt><trkpt lat="38.080925" lon="16.1217967"><ele>45.75</ele><time>2026-04-04T12:14:15.575Z</time></trkpt><trkpt lat="38.0809717" lon="16.121935"><ele>46.0</ele><time>2026-04-04T12:14:16.575Z</time></trkpt><trkpt lat="38.081035" lon="16.12208"><ele>46.0</ele><time>2026-04-04T12:14:17.575Z</time></trkpt><trkpt lat="38.0810967" lon="16.1222167"><ele>46.0</ele><time>2026-04-04T12:14:18.575Z</time></trkpt><trkpt lat="38.0811533" lon="16.1223517"><ele>46.0</ele><time>2026-04-04T12:14:19.575Z</time></trkpt><trkpt lat="38.081215" lon="16.122485"><ele>46.0</ele><time>2026-04-04T12:14:20.575Z</time></trkpt><trkpt lat="38.0812733" lon="16.1226233"><ele>45.25</ele><time>2026-04-04T12:14:21.575Z</time></trkpt><trkpt lat="38.0813483" lon="16.1227583"><ele>44.5</ele><time>2026-04-04T12:14:22.575Z</time></trkpt><trkpt lat="38.0814133" lon="16.1228883"><ele>43.75</ele><time>2026-04-04T12:14:23.576Z</time></trkpt><trkpt lat="38.0814883" lon="16.12302"><ele>43.0</ele><time>2026-04-04T12:14:24.575Z</time></trkpt><trkpt lat="38.0815533" lon="16.123155"><ele>43.5</ele><time>2026-04-04T12:14:25.575Z</time></trkpt><trkpt lat="38.08162" lon="16.1232933"><ele>44.0</ele><time>2026-04-04T12:14:26.575Z</time></trkpt><trkpt lat="38.081685" lon="16.1234333"><ele>44.5</ele><time>2026-04-04T12:14:27.575Z</time></trkpt><trkpt lat="38.081755" lon="16.1235617"><ele>45.0</ele><time>2026-04-04T12:14:28.575Z</time></trkpt><trkpt lat="38.081825" lon="16.1236917"><ele>45.0</ele><time>2026-04-04T12:14:29.575Z</time></trkpt><trkpt lat="38.08191" lon="16.1238183"><ele>45.0</ele><time>2026-04-04T12:14:30.575Z</time></trkpt><trkpt lat="38.082015" lon="16.1239267"><ele>45.0</ele><time>2026-04-04T12:14:31.575Z</time></trkpt><trkpt lat="38.08211" lon="16.1240267"><ele>45.0</ele><time>2026-04-04T12:14:32.575Z</time></trkpt><trkpt lat="38.0822" lon="16.1241433"><ele>44.75</ele><time>2026-04-04T12:14:33.575Z</time></trkpt><trkpt lat="38.0822917" lon="16.1242767"><ele>44.5</ele><time>2026-04-04T12:14:34.575Z</time></trkpt><trkpt lat="38.08237" lon="16.1244167"><ele>44.25</ele><time>2026-04-04T12:14:35.575Z</time></trkpt><trkpt lat="38.082435" lon="16.1245683"><ele>44.0</ele><time>2026-04-04T12:14:36.576Z</time></trkpt><trkpt lat="38.08249" lon="16.12472"><ele>44.0</ele><time>2026-04-04T12:14:37.576Z</time></trkpt><trkpt lat="38.0825433" lon="16.124875"><ele>44.0</ele><time>2026-04-04T12:14:38.575Z</time></trkpt><trkpt lat="38.0825783" lon="16.1250433"><ele>44.0</ele><time>2026-04-04T12:14:39.575Z</time></trkpt><trkpt lat="38.0825967" lon="16.1252133"><ele>44.0</ele><time>2026-04-04T12:14:40.575Z</time></trkpt><trkpt lat="38.0826083" lon="16.12538"><ele>43.75</ele><time>2026-04-04T12:14:41.575Z</time></trkpt><trkpt lat="38.082605" lon="16.12555"><ele>43.5</ele><time>2026-04-04T12:14:42.575Z</time></trkpt><trkpt lat="38.0825983" lon="16.12572"><ele>43.25</ele><time>2026-04-04T12:14:43.575Z</time></trkpt><trkpt lat="38.0825967" lon="16.12588"><ele>43.0</ele><time>2026-04-04T12:14:44.576Z</time></trkpt><trkpt lat="38.0825933" lon="16.1260367"><ele>43.0</ele><time>2026-04-04T12:14:45.575Z</time></trkpt><trkpt lat="38.0825783" lon="16.1262"><ele>43.0</ele><time>2026-04-04T12:14:46.575Z</time></trkpt><trkpt lat="38.0825767" lon="16.1263617"><ele>43.0</ele><time>2026-04-04T12:14:47.575Z</time></trkpt><trkpt lat="38.0825667" lon="16.12654"><ele>43.0</ele><time>2026-04-04T12:14:48.575Z</time></trkpt><trkpt lat="38.08256" lon="16.1267167"><ele>42.75</ele><time>2026-04-04T12:14:49.575Z</time></trkpt><trkpt lat="38.0825467" lon="16.1269017"><ele>42.5</ele><time>2026-04-04T12:14:50.575Z</time></trkpt><trkpt lat="38.0825417" lon="16.1270817"><ele>42.25</ele><time>2026-04-04T12:14:51.575Z</time></trkpt><trkpt lat="38.0825433" lon="16.12726"><ele>42.0</ele><time>2026-04-04T12:14:52.575Z</time></trkpt><trkpt lat="38.0825633" lon="16.127425"><ele>41.0</ele><time>2026-04-04T12:14:53.575Z</time></trkpt><trkpt lat="38.0826067" lon="16.1275883"><ele>40.0</ele><time>2026-04-04T12:14:54.575Z</time></trkpt><trkpt lat="38.0826683" lon="16.1277583"><ele>39.0</ele><time>2026-04-04T12:14:55.575Z</time></trkpt><trkpt lat="38.082735" lon="16.1279283"><ele>38.0</ele><time>2026-04-04T12:14:56.575Z</time></trkpt><trkpt lat="38.0828" lon="16.1281"><ele>36.666666666666664</ele><time>2026-04-04T12:14:57.575Z</time></trkpt><trkpt lat="38.0828683" lon="16.1282733"><ele>35.333333333333336</ele><time>2026-04-04T12:14:58.575Z</time></trkpt><trkpt lat="38.0829333" lon="16.1284483"><ele>34.0</ele><time>2026-04-04T12:14:59.576Z</time></trkpt><trkpt lat="38.08301" lon="16.1286133"><ele>34.0</ele><time>2026-04-04T12:15:00.575Z</time></trkpt><trkpt lat="38.0830883" lon="16.1287867"><ele>34.0</ele><time>2026-04-04T12:15:01.575Z</time></trkpt><trkpt lat="38.0831717" lon="16.12895"><ele>34.0</ele><time>2026-04-04T12:15:02.576Z</time></trkpt><trkpt lat="38.0832517" lon="16.1291033"><ele>34.25</ele><time>2026-04-04T12:15:03.575Z</time></trkpt><trkpt lat="38.0833267" lon="16.1292483"><ele>34.5</ele><time>2026-04-04T12:15:04.575Z</time></trkpt><trkpt lat="38.083395" lon="16.1293817"><ele>34.75</ele><time>2026-04-04T12:15:05.575Z</time></trkpt><trkpt lat="38.083475" lon="16.129515"><ele>35.0</ele><time>2026-04-04T12:15:06.576Z</time></trkpt><trkpt lat="38.0835517" lon="16.1296567"><ele>35.0</ele><time>2026-04-04T12:15:07.575Z</time></trkpt><trkpt lat="38.083625" lon="16.1297967"><ele>35.0</ele><time>2026-04-04T12:15:08.575Z</time></trkpt><trkpt lat="38.08369" lon="16.12995"><ele>35.0</ele><time>2026-04-04T12:15:09.575Z</time></trkpt><trkpt lat="38.0837417" lon="16.1301133"><ele>35.0</ele><time>2026-04-04T12:15:10.575Z</time></trkpt><trkpt lat="38.083775" lon="16.13029"><ele>34.5</ele><time>2026-04-04T12:15:11.575Z</time></trkpt><trkpt lat="38.08379" lon="16.13047"><ele>34.0</ele><time>2026-04-04T12:15:12.575Z</time></trkpt><trkpt lat="38.0837967" lon="16.1306467"><ele>33.5</ele><time>2026-04-04T12:15:13.575Z</time></trkpt><trkpt lat="38.0838033" lon="16.1308267"><ele>33.0</ele><time>2026-04-04T12:15:14.575Z</time></trkpt><trkpt lat="38.0837917" lon="16.131"><ele>32.25</ele><time>2026-04-04T12:15:15.575Z</time></trkpt><trkpt lat="38.0837783" lon="16.13118"><ele>31.5</ele><time>2026-04-04T12:15:16.575Z</time></trkpt><trkpt lat="38.083765" lon="16.1313583"><ele>30.75</ele><time>2026-04-04T12:15:17.575Z</time></trkpt><trkpt lat="38.0837567" lon="16.1315367"><ele>30.0</ele><time>2026-04-04T12:15:18.575Z</time></trkpt><trkpt lat="38.08375" lon="16.1317133"><ele>29.75</ele><time>2026-04-04T12:15:19.576Z</time></trkpt><trkpt lat="38.08374" lon="16.1318817"><ele>29.5</ele><time>2026-04-04T12:15:20.576Z</time></trkpt><trkpt lat="38.083725" lon="16.13205"><ele>29.25</ele><time>2026-04-04T12:15:21.575Z</time></trkpt><trkpt lat="38.0837167" lon="16.1322083"><ele>29.0</ele><time>2026-04-04T12:15:22.576Z</time></trkpt><trkpt lat="38.083705" lon="16.1323583"><ele>29.0</ele><time>2026-04-04T12:15:23.575Z</time></trkpt><trkpt lat="38.08369" lon="16.13251"><ele>29.0</ele><time>2026-04-04T12:15:24.576Z</time></trkpt><trkpt lat="38.08367" lon="16.1326683"><ele>29.0</ele><time>2026-04-04T12:15:25.575Z</time></trkpt><trkpt lat="38.08365" lon="16.13284"><ele>29.0</ele><time>2026-04-04T12:15:26.575Z</time></trkpt><trkpt lat="38.0836317" lon="16.1330133"><ele>29.0</ele><time>2026-04-04T12:15:27.576Z</time></trkpt><trkpt lat="38.083615" lon="16.1331883"><ele>29.0</ele><time>2026-04-04T12:15:28.575Z</time></trkpt><trkpt lat="38.0836033" lon="16.13336"><ele>29.0</ele><time>2026-04-04T12:15:29.576Z</time></trkpt><trkpt lat="38.0835833" lon="16.13354"><ele>29.0</ele><time>2026-04-04T12:15:30.575Z</time></trkpt><trkpt lat="38.0835617" lon="16.13372"><ele>29.0</ele><time>2026-04-04T12:15:31.575Z</time></trkpt><trkpt lat="38.08354" lon="16.1339167"><ele>29.0</ele><time>2026-04-04T12:15:32.576Z</time></trkpt><trkpt lat="38.0835083" lon="16.1341117"><ele>29.0</ele><time>2026-04-04T12:15:33.576Z</time></trkpt><trkpt lat="38.0834867" lon="16.134295"><ele>29.0</ele><time>2026-04-04T12:15:34.575Z</time></trkpt><trkpt lat="38.0834633" lon="16.1344783"><ele>29.0</ele><time>2026-04-04T12:15:35.575Z</time></trkpt><trkpt lat="38.0834517" lon="16.1346533"><ele>29.0</ele><time>2026-04-04T12:15:36.575Z</time></trkpt><trkpt lat="38.08344" lon="16.1348383"><ele>29.0</ele><time>2026-04-04T12:15:37.575Z</time></trkpt><trkpt lat="38.0834417" lon="16.13502"><ele>28.5</ele><time>2026-04-04T12:15:38.575Z</time></trkpt><trkpt lat="38.083455" lon="16.13521"><ele>28.0</ele><time>2026-04-04T12:15:39.575Z</time></trkpt><trkpt lat="38.083455" lon="16.1353933"><ele>27.5</ele><time>2026-04-04T12:15:40.576Z</time></trkpt><trkpt lat="38.083455" lon="16.1355783"><ele>27.0</ele><time>2026-04-04T12:15:41.575Z</time></trkpt><trkpt lat="38.08346" lon="16.1357667"><ele>26.0</ele><time>2026-04-04T12:15:42.576Z</time></trkpt><trkpt lat="38.0834667" lon="16.1359517"><ele>25.0</ele><time>2026-04-04T12:15:43.575Z</time></trkpt><trkpt lat="38.0834783" lon="16.1361433"><ele>24.0</ele><time>2026-04-04T12:15:44.575Z</time></trkpt><trkpt lat="38.0834833" lon="16.1363383"><ele>24.0</ele><time>2026-04-04T12:15:45.576Z</time></trkpt><trkpt lat="38.0834833" lon="16.136535"><ele>24.0</ele><time>2026-04-04T12:15:46.575Z</time></trkpt><trkpt lat="38.0834833" lon="16.136735"><ele>24.0</ele><time>2026-04-04T12:15:47.575Z</time></trkpt><trkpt lat="38.083485" lon="16.1369367"><ele>23.0</ele><time>2026-04-04T12:15:48.575Z</time></trkpt><trkpt lat="38.083485" lon="16.137125"><ele>22.0</ele><time>2026-04-04T12:15:49.575Z</time></trkpt><trkpt lat="38.0834933" lon="16.1373283"><ele>21.0</ele><time>2026-04-04T12:15:50.575Z</time></trkpt><trkpt lat="38.0835067" lon="16.1375217"><ele>21.0</ele><time>2026-04-04T12:15:51.576Z</time></trkpt><trkpt lat="38.0835233" lon="16.137715"><ele>21.0</ele><time>2026-04-04T12:15:52.576Z</time></trkpt><trkpt lat="38.08355" lon="16.1379083"><ele>21.0</ele><time>2026-04-04T12:15:53.576Z</time></trkpt><trkpt lat="38.08359" lon="16.1381"><ele>20.333333333333332</ele><time>2026-04-04T12:15:54.575Z</time></trkpt><trkpt lat="38.083625" lon="16.1383083"><ele>19.666666666666664</ele><time>2026-04-04T12:15:55.575Z</time></trkpt><trkpt lat="38.0836617" lon="16.1385033"><ele>19.0</ele><time>2026-04-04T12:15:56.575Z</time></trkpt><trkpt lat="38.0836983" lon="16.1387"><ele>19.0</ele><time>2026-04-04T12:15:57.575Z</time></trkpt><trkpt lat="38.0837267" lon="16.1388967"><ele>19.0</ele><time>2026-04-04T12:15:58.575Z</time></trkpt><trkpt lat="38.0837517" lon="16.1390917"><ele>19.0</ele><time>2026-04-04T12:15:59.575Z</time></trkpt><trkpt lat="38.083765" lon="16.1392883"><ele>18.666666666666664</ele><time>2026-04-04T12:16:00.575Z</time></trkpt><trkpt lat="38.0837667" lon="16.1394817"><ele>18.333333333333332</ele><time>2026-04-04T12:16:01.575Z</time></trkpt><trkpt lat="38.0837617" lon="16.13967"><ele>18.0</ele><time>2026-04-04T12:16:02.575Z</time></trkpt><trkpt lat="38.0837483" lon="16.1398683"><ele>18.0</ele><time>2026-04-04T12:16:03.575Z</time></trkpt><trkpt lat="38.083735" lon="16.1400633"><ele>18.0</ele><time>2026-04-04T12:16:04.575Z</time></trkpt><trkpt lat="38.08374" lon="16.14026"><ele>18.0</ele><time>2026-04-04T12:16:05.575Z</time></trkpt><trkpt lat="38.0837533" lon="16.1404567"><ele>18.0</ele><time>2026-04-04T12:16:06.575Z</time></trkpt><trkpt lat="38.0837767" lon="16.14065"><ele>18.0</ele><time>2026-04-04T12:16:07.575Z</time></trkpt><trkpt lat="38.083805" lon="16.140835"><ele>18.0</ele><time>2026-04-04T12:16:08.575Z</time></trkpt><trkpt lat="38.08384" lon="16.1410117"><ele>18.0</ele><time>2026-04-04T12:16:09.576Z</time></trkpt><trkpt lat="38.0838667" lon="16.1411833"><ele>17.5</ele><time>2026-04-04T12:16:10.575Z</time></trkpt><trkpt lat="38.0838933" lon="16.1413417"><ele>17.0</ele><time>2026-04-04T12:16:11.575Z</time></trkpt><trkpt lat="38.0839267" lon="16.141505"><ele>16.5</ele><time>2026-04-04T12:16:12.575Z</time></trkpt><trkpt lat="38.0839567" lon="16.1416617"><ele>16.0</ele><time>2026-04-04T12:16:13.575Z</time></trkpt><trkpt lat="38.0839967" lon="16.1418217"><ele>15.75</ele><time>2026-04-04T12:16:14.575Z</time></trkpt><trkpt lat="38.0840533" lon="16.14198"><ele>15.5</ele><time>2026-04-04T12:16:15.576Z</time></trkpt><trkpt lat="38.0841267" lon="16.1421317"><ele>15.25</ele><time>2026-04-04T12:16:16.575Z</time></trkpt><trkpt lat="38.0842033" lon="16.1422867"><ele>15.0</ele><time>2026-04-04T12:16:17.575Z</time></trkpt><trkpt lat="38.084275" lon="16.1424483"><ele>16.0</ele><time>2026-04-04T12:16:18.575Z</time></trkpt><trkpt lat="38.0843483" lon="16.1426033"><ele>17.0</ele><time>2026-04-04T12:16:19.575Z</time></trkpt><trkpt lat="38.08442" lon="16.1427617"><ele>18.0</ele><time>2026-04-04T12:16:20.575Z</time></trkpt><trkpt lat="38.0845017" lon="16.1429233"><ele>19.0</ele><time>2026-04-04T12:16:21.576Z</time></trkpt><trkpt lat="38.0845783" lon="16.1430867"><ele>17.666666666666664</ele><time>2026-04-04T12:16:22.575Z</time></trkpt><trkpt lat="38.0846583" lon="16.1432567"><ele>16.333333333333332</ele><time>2026-04-04T12:16:23.575Z</time></trkpt><trkpt lat="38.084725" lon="16.1434283"><ele>15.0</ele><time>2026-04-04T12:16:24.575Z</time></trkpt><trkpt lat="38.0848017" lon="16.1435983"><ele>15.0</ele><time>2026-04-04T12:16:25.575Z</time></trkpt><trkpt lat="38.0848733" lon="16.1437717"><ele>15.0</ele><time>2026-04-04T12:16:26.576Z</time></trkpt><trkpt lat="38.0849383" lon="16.143945"><ele>15.0</ele><time>2026-04-04T12:16:27.576Z</time></trkpt><trkpt lat="38.085005" lon="16.144115"><ele>15.75</ele><time>2026-04-04T12:16:28.576Z</time></trkpt><trkpt lat="38.08506" lon="16.1442883"><ele>16.5</ele><time>2026-04-04T12:16:29.575Z</time></trkpt><trkpt lat="38.08511" lon="16.1444683"><ele>17.25</ele><time>2026-04-04T12:16:30.575Z</time></trkpt><trkpt lat="38.0851667" lon="16.1446283"><ele>18.0</ele><time>2026-04-04T12:16:31.575Z</time></trkpt><trkpt lat="38.085225" lon="16.1447867"><ele>17.5</ele><time>2026-04-04T12:16:32.575Z</time></trkpt><trkpt lat="38.0852783" lon="16.1449517"><ele>17.0</ele><time>2026-04-04T12:16:33.576Z</time></trkpt><trkpt lat="38.0853283" lon="16.14512"><ele>16.5</ele><time>2026-04-04T12:16:34.575Z</time></trkpt><trkpt lat="38.0853867" lon="16.1452767"><ele>16.0</ele><time>2026-04-04T12:16:35.575Z</time></trkpt><trkpt lat="38.08544" lon="16.1454333"><ele>16.0</ele><time>2026-04-04T12:16:36.575Z</time></trkpt><trkpt lat="38.0854883" lon="16.1455833"><ele>16.0</ele><time>2026-04-04T12:16:37.576Z</time></trkpt><trkpt lat="38.0855367" lon="16.145735"><ele>16.0</ele><time>2026-04-04T12:16:38.575Z</time></trkpt><trkpt lat="38.0855867" lon="16.14589"><ele>16.0</ele><time>2026-04-04T12:16:39.575Z</time></trkpt><trkpt lat="38.0856383" lon="16.14604"><ele>16.0</ele><time>2026-04-04T12:16:40.575Z</time></trkpt><trkpt lat="38.0856883" lon="16.146205"><ele>16.0</ele><time>2026-04-04T12:16:41.575Z</time></trkpt><trkpt lat="38.08574" lon="16.14636"><ele>16.0</ele><time>2026-04-04T12:16:42.575Z</time></trkpt><trkpt lat="38.0857867" lon="16.1465"><ele>16.0</ele><time>2026-04-04T12:16:43.575Z</time></trkpt><trkpt lat="38.0858233" lon="16.14664"><ele>16.0</ele><time>2026-04-04T12:16:44.576Z</time></trkpt><trkpt lat="38.0858717" lon="16.14676"><ele>16.0</ele><time>2026-04-04T12:16:45.575Z</time></trkpt><trkpt lat="38.0859217" lon="16.1468783"><ele>16.0</ele><time>2026-04-04T12:16:46.575Z</time></trkpt><trkpt lat="38.08598" lon="16.1469933"><ele>16.0</ele><time>2026-04-04T12:16:47.575Z</time></trkpt><trkpt lat="38.08605" lon="16.147105"><ele>16.0</ele><time>2026-04-04T12:16:48.575Z</time></trkpt><trkpt lat="38.0861333" lon="16.1472117"><ele>16.0</ele><time>2026-04-04T12:16:49.575Z</time></trkpt><trkpt lat="38.08622" lon="16.1473167"><ele>16.0</ele><time>2026-04-04T12:16:50.575Z</time></trkpt><trkpt lat="38.08631" lon="16.1474133"><ele>16.0</ele><time>2026-04-04T12:16:51.575Z</time></trkpt><trkpt lat="38.08639" lon="16.147515"><ele>16.0</ele><time>2026-04-04T12:16:52.576Z</time></trkpt><trkpt lat="38.0864717" lon="16.1476217"><ele>16.0</ele><time>2026-04-04T12:16:53.576Z</time></trkpt><trkpt lat="38.0865633" lon="16.1477083"><ele>16.0</ele><time>2026-04-04T12:16:54.575Z</time></trkpt><trkpt lat="38.0866433" lon="16.1477767"><ele>16.0</ele><time>2026-04-04T12:16:55.575Z</time></trkpt><trkpt lat="38.0867183" lon="16.1478367"><ele>16.0</ele><time>2026-04-04T12:16:56.576Z</time></trkpt><trkpt lat="38.0867883" lon="16.1479067"><ele>16.0</ele><time>2026-04-04T12:16:57.576Z</time></trkpt><trkpt lat="38.0868683" lon="16.14797"><ele>16.0</ele><time>2026-04-04T12:16:58.575Z</time></trkpt><trkpt lat="38.0869533" lon="16.1480367"><ele>16.0</ele><time>2026-04-04T12:16:59.575Z</time></trkpt><trkpt lat="38.0870333" lon="16.148105"><ele>16.0</ele><time>2026-04-04T12:17:00.575Z</time></trkpt><trkpt lat="38.08711" lon="16.1481567"><ele>16.0</ele><time>2026-04-04T12:17:01.575Z</time></trkpt><trkpt lat="38.08719" lon="16.1482133"><ele>16.0</ele><time>2026-04-04T12:17:02.576Z</time></trkpt><trkpt lat="38.0872683" lon="16.148265"><ele>15.999999999999998</ele><time>2026-04-04T12:17:03.575Z</time></trkpt><trkpt lat="38.0873533" lon="16.1483017"><ele>16.0</ele><time>2026-04-04T12:17:04.575Z</time></trkpt><trkpt lat="38.0874383" lon="16.1483267"><ele>16.0</ele><time>2026-04-04T12:17:05.575Z</time></trkpt><trkpt lat="38.0875183" lon="16.1483533"><ele>16.0</ele><time>2026-04-04T12:17:06.576Z</time></trkpt><trkpt lat="38.087605" lon="16.148385"><ele>15.999999999999998</ele><time>2026-04-04T12:17:07.576Z</time></trkpt><trkpt lat="38.0876967" lon="16.1484117"><ele>16.0</ele><time>2026-04-04T12:17:08.575Z</time></trkpt><trkpt lat="38.0877883" lon="16.148435"><ele>16.6</ele><time>2026-04-04T12:17:09.575Z</time></trkpt><trkpt lat="38.0878883" lon="16.14846"><ele>17.200000000000003</ele><time>2026-04-04T12:17:10.575Z</time></trkpt><trkpt lat="38.0879867" lon="16.1484833"><ele>17.799999999999997</ele><time>2026-04-04T12:17:11.575Z</time></trkpt><trkpt lat="38.0880767" lon="16.14851"><ele>18.4</ele><time>2026-04-04T12:17:12.575Z</time></trkpt><trkpt lat="38.08816" lon="16.1485433"><ele>19.0</ele><time>2026-04-04T12:17:13.575Z</time></trkpt><trkpt lat="38.0882383" lon="16.14857"><ele>19.0</ele><time>2026-04-04T12:17:14.575Z</time></trkpt><trkpt lat="38.0883133" lon="16.1485983"><ele>19.0</ele><time>2026-04-04T12:17:15.576Z</time></trkpt><trkpt lat="38.0883833" lon="16.1486167"><ele>19.0</ele><time>2026-04-04T12:17:16.576Z</time></trkpt><trkpt lat="38.0884533" lon="16.1486517"><ele>19.0</ele><time>2026-04-04T12:17:17.575Z</time></trkpt><trkpt lat="38.088515" lon="16.1486717"><ele>19.0</ele><time>2026-04-04T12:17:18.576Z</time></trkpt><trkpt lat="38.0886183" lon="16.1486967"><ele>19.0</ele><time>2026-04-04T12:17:20.575Z</time></trkpt><trkpt lat="38.088685" lon="16.1487133"><ele>19.0</ele><time>2026-04-04T12:17:22.576Z</time></trkpt><trkpt lat="38.0887683" lon="16.1487333"><ele>19.0</ele><time>2026-04-04T12:17:25.575Z</time></trkpt><trkpt lat="38.08883" lon="16.14875"><ele>19.0</ele><time>2026-04-04T12:17:27.575Z</time></trkpt><trkpt lat="38.0889167" lon="16.1487783"><ele>19.0</ele><time>2026-04-04T12:17:33.575Z</time></trkpt><trkpt lat="38.0889583" lon="16.1486617"><ele>19.0</ele><time>2026-04-04T12:18:21.575Z</time></trkpt><trkpt lat="38.08898" lon="16.1485733"><ele>19.0</ele><time>2026-04-04T12:18:24.575Z</time></trkpt><trkpt lat="38.0889983" lon="16.14846"><ele>19.0</ele><time>2026-04-04T12:18:26.575Z</time></trkpt><trkpt lat="38.0890267" lon="16.1483667"><ele>19.0</ele><time>2026-04-04T12:18:28.575Z</time></trkpt><trkpt lat="38.0889683" lon="16.1484"><ele>19.0</ele><time>2026-04-04T12:18:34.575Z</time></trkpt><trkpt lat="38.08895" lon="16.1485467"><ele>19.0</ele><time>2026-04-04T12:18:36.575Z</time></trkpt><trkpt lat="38.08894" lon="16.1486483"><ele>19.0</ele><time>2026-04-04T12:18:38.575Z</time></trkpt><trkpt lat="38.0889367" lon="16.1487567"><ele>19.0</ele><time>2026-04-04T12:18:41.576Z</time></trkpt><trkpt lat="38.0889" lon="16.1488283"><ele>19.0</ele><time>2026-04-04T12:18:44.575Z</time></trkpt><trkpt lat="38.0888867" lon="16.1489433"><ele>19.0</ele><time>2026-04-04T12:18:48.576Z</time></trkpt><trkpt lat="38.0888583" lon="16.1490183"><ele>19.0</ele><time>2026-04-04T12:18:51.575Z</time></trkpt><trkpt lat="38.0888533" lon="16.1491217"><ele>19.0</ele><time>2026-04-04T12:18:55.575Z</time></trkpt><trkpt lat="38.0888267" lon="16.149205"><ele>19.0</ele><time>2026-04-04T12:18:58.575Z</time></trkpt><trkpt lat="38.0888917" lon="16.1491117"><ele>19.0</ele><time>2026-04-04T13:05:10.575Z</time></trkpt><trkpt lat="38.0889183" lon="16.1490383"><ele>19.0</ele><time>2026-04-04T13:05:11.576Z</time></trkpt><trkpt lat="38.0889433" lon="16.1489467"><ele>19.0</ele><time>2026-04-04T13:05:12.575Z</time></trkpt><trkpt lat="38.0889683" lon="16.1488683"><ele>19.0</ele><time>2026-04-04T13:05:13.575Z</time></trkpt><trkpt lat="38.0889767" lon="16.1487833"><ele>19.0</ele><time>2026-04-04T13:05:15.575Z</time></trkpt><trkpt lat="38.0889067" lon="16.1487317"><ele>19.0</ele><time>2026-04-04T13:05:18.575Z</time></trkpt><trkpt lat="38.0888017" lon="16.1487067"><ele>19.0</ele><time>2026-04-04T13:05:20.575Z</time></trkpt><trkpt lat="38.0886867" lon="16.1486817"><ele>19.0</ele><time>2026-04-04T13:05:22.575Z</time></trkpt><trkpt lat="38.0885717" lon="16.1486467"><ele>19.0</ele><time>2026-04-04T13:05:24.576Z</time></trkpt><trkpt lat="38.0884867" lon="16.148625"><ele>19.0</ele><time>2026-04-04T13:05:26.575Z</time></trkpt><trkpt lat="38.0884167" lon="16.1486083"><ele>19.0</ele><time>2026-04-04T13:05:30.575Z</time></trkpt><trkpt lat="38.0883217" lon="16.148565"><ele>19.0</ele><time>2026-04-04T13:05:33.575Z</time></trkpt><trkpt lat="38.0882383" lon="16.1485383"><ele>19.0</ele><time>2026-04-04T13:05:36.575Z</time></trkpt><trkpt lat="38.08815" lon="16.14852"><ele>19.0</ele><time>2026-04-04T13:05:39.575Z</time></trkpt><trkpt lat="38.0880883" lon="16.1484933"><ele>19.0</ele><time>2026-04-04T13:05:41.575Z</time></trkpt><trkpt lat="38.08802" lon="16.1484717"><ele>19.0</ele><time>2026-04-04T13:05:43.576Z</time></trkpt><trkpt lat="38.0879383" lon="16.148445"><ele>19.0</ele><time>2026-04-04T13:05:46.576Z</time></trkpt><trkpt lat="38.0878667" lon="16.1484183"><ele>19.0</ele><time>2026-04-04T13:05:49.576Z</time></trkpt><trkpt lat="38.087945" lon="16.1484733"><ele>19.0</ele><time>2026-04-04T13:05:54.576Z</time></trkpt><trkpt lat="38.0880517" lon="16.1485117"><ele>19.0</ele><time>2026-04-04T13:05:56.575Z</time></trkpt><trkpt lat="38.08817" lon="16.14856"><ele>19.0</ele><time>2026-04-04T13:05:58.575Z</time></trkpt><trkpt lat="38.0882433" lon="16.1485883"><ele>19.0</ele><time>2026-04-04T13:05:59.575Z</time></trkpt><trkpt lat="38.0883133" lon="16.1486117"><ele>19.0</ele><time>2026-04-04T13:06:00.576Z</time></trkpt><trkpt lat="38.0883883" lon="16.1486317"><ele>19.0</ele><time>2026-04-04T13:06:01.576Z</time></trkpt><trkpt lat="38.0884633" lon="16.148645"><ele>19.0</ele><time>2026-04-04T13:06:02.575Z</time></trkpt><trkpt lat="38.0885367" lon="16.1486667"><ele>19.0</ele><time>2026-04-04T13:06:03.576Z</time></trkpt><trkpt lat="38.0886067" lon="16.1486933"><ele>19.0</ele><time>2026-04-04T13:06:04.575Z</time></trkpt><trkpt lat="38.0886767" lon="16.1487183"><ele>19.0</ele><time>2026-04-04T13:06:05.575Z</time></trkpt><trkpt lat="38.0887383" lon="16.1487367"><ele>19.0</ele><time>2026-04-04T13:06:06.576Z</time></trkpt><trkpt lat="38.0888" lon="16.14876"><ele>19.0</ele><time>2026-04-04T13:06:07.575Z</time></trkpt><trkpt lat="38.0889017" lon="16.1487883"><ele>19.0</ele><time>2026-04-04T13:06:09.575Z</time></trkpt><trkpt lat="38.088975" lon="16.1488067"><ele>19.0</ele><time>2026-04-04T13:06:11.575Z</time></trkpt><trkpt lat="38.0890633" lon="16.148855"><ele>19.0</ele><time>2026-04-04T13:06:13.575Z</time></trkpt><trkpt lat="38.0891717" lon="16.148895"><ele>19.0</ele><time>2026-04-04T13:06:15.576Z</time></trkpt><trkpt lat="38.08924" lon="16.1489233"><ele>19.0</ele><time>2026-04-04T13:06:18.575Z</time></trkpt><trkpt lat="38.0892333" lon="16.1490033"><ele>19.0</ele><time>2026-04-04T13:06:21.575Z</time></trkpt><trkpt lat="38.0892" lon="16.1491383"><ele>18.4</ele><time>2026-04-04T13:06:23.575Z</time></trkpt><trkpt lat="38.08917" lon="16.1492883"><ele>17.799999999999997</ele><time>2026-04-04T13:06:25.575Z</time></trkpt><trkpt lat="38.0891617" lon="16.1493683"><ele>17.200000000000003</ele><time>2026-04-04T13:06:26.575Z</time></trkpt><trkpt lat="38.0891267" lon="16.1495117"><ele>16.6</ele><time>2026-04-04T13:06:28.575Z</time></trkpt><trkpt lat="38.0890933" lon="16.1496683"><ele>16.0</ele><time>2026-04-04T13:06:30.575Z</time></trkpt><trkpt lat="38.0890783" lon="16.1497467"><ele>15.200000000000001</ele><time>2026-04-04T13:06:31.575Z</time></trkpt><trkpt lat="38.08905" lon="16.1498933"><ele>14.400000000000002</ele><time>2026-04-04T13:06:33.575Z</time></trkpt><trkpt lat="38.089015" lon="16.1500333"><ele>13.6</ele><time>2026-04-04T13:06:35.575Z</time></trkpt><trkpt lat="38.088975" lon="16.1501883"><ele>12.8</ele><time>2026-04-04T13:06:37.575Z</time></trkpt><trkpt lat="38.0889633" lon="16.15027"><ele>12.0</ele><time>2026-04-04T13:06:38.576Z</time></trkpt><trkpt lat="38.0889517" lon="16.1503567"><ele>12.0</ele><time>2026-04-04T13:06:39.576Z</time></trkpt><trkpt lat="38.0889267" lon="16.1504383"><ele>12.0</ele><time>2026-04-04T13:06:40.575Z</time></trkpt><trkpt lat="38.0888967" lon="16.15052"><ele>12.0</ele><time>2026-04-04T13:06:41.575Z</time></trkpt><trkpt lat="38.088875" lon="16.1506"><ele>12.0</ele><time>2026-04-04T13:06:42.575Z</time></trkpt><trkpt lat="38.088835" lon="16.1507533"><ele>12.0</ele><time>2026-04-04T13:06:44.575Z</time></trkpt><trkpt lat="38.08883" lon="16.1508417"><ele>12.0</ele><time>2026-04-04T13:06:45.575Z</time></trkpt><trkpt lat="38.0888283" lon="16.15093"><ele>11.571428571428571</ele><time>2026-04-04T13:06:46.575Z</time></trkpt><trkpt lat="38.0888267" lon="16.151015"><ele>11.142857142857142</ele><time>2026-04-04T13:06:47.575Z</time></trkpt><trkpt lat="38.0888117" lon="16.1510983"><ele>10.714285714285715</ele><time>2026-04-04T13:06:48.575Z</time></trkpt><trkpt lat="38.0887883" lon="16.1511783"><ele>10.285714285714285</ele><time>2026-04-04T13:06:49.575Z</time></trkpt><trkpt lat="38.08876" lon="16.151255"><ele>9.857142857142858</ele><time>2026-04-04T13:06:50.575Z</time></trkpt><trkpt lat="38.08874" lon="16.1513483"><ele>9.428571428571429</ele><time>2026-04-04T13:06:51.575Z</time></trkpt><trkpt lat="38.0887167" lon="16.15143"><ele>9.0</ele><time>2026-04-04T13:06:52.575Z</time></trkpt><trkpt lat="38.0887067" lon="16.1515117"><ele>9.2</ele><time>2026-04-04T13:06:53.576Z</time></trkpt><trkpt lat="38.0886817" lon="16.1516383"><ele>9.4</ele><time>2026-04-04T13:06:55.576Z</time></trkpt><trkpt lat="38.0886983" lon="16.1517417"><ele>9.6</ele><time>2026-04-04T13:06:57.575Z</time></trkpt><trkpt lat="38.0887717" lon="16.151795"><ele>9.8</ele><time>2026-04-04T13:06:59.575Z</time></trkpt><trkpt lat="38.08888" lon="16.1518367"><ele>10.0</ele><time>2026-04-04T13:07:01.575Z</time></trkpt><trkpt lat="38.0889917" lon="16.1518817"><ele>10.4</ele><time>2026-04-04T13:07:03.575Z</time></trkpt><trkpt lat="38.0890933" lon="16.1519233"><ele>10.8</ele><time>2026-04-04T13:07:05.575Z</time></trkpt><trkpt lat="38.0891883" lon="16.15196"><ele>11.2</ele><time>2026-04-04T13:07:07.575Z</time></trkpt><trkpt lat="38.0892617" lon="16.1519967"><ele>11.6</ele><time>2026-04-04T13:07:09.575Z</time></trkpt><trkpt lat="38.0892633" lon="16.1521233"><ele>12.0</ele><time>2026-04-04T13:07:12.575Z</time></trkpt><trkpt lat="38.0892317" lon="16.1522183"><ele>12.0</ele><time>2026-04-04T13:07:14.575Z</time></trkpt><trkpt lat="38.0891983" lon="16.1523167"><ele>12.0</ele><time>2026-04-04T13:07:16.575Z</time></trkpt><trkpt lat="38.08918" lon="16.152425"><ele>12.0</ele><time>2026-04-04T13:07:18.575Z</time></trkpt><trkpt lat="38.0891683" lon="16.1525517"><ele>12.0</ele><time>2026-04-04T13:07:20.575Z</time></trkpt><trkpt lat="38.0891583" lon="16.152665"><ele>12.0</ele><time>2026-04-04T13:07:22.576Z</time></trkpt><trkpt lat="38.0891" lon="16.15272"><ele>12.0</ele><time>2026-04-04T13:07:33.575Z</time></trkpt><trkpt lat="38.088985" lon="16.1527"><ele>11.6</ele><time>2026-04-04T13:07:35.575Z</time></trkpt><trkpt lat="38.088885" lon="16.1526783"><ele>11.2</ele><time>2026-04-04T13:07:36.576Z</time></trkpt><trkpt lat="38.0887733" lon="16.1526483"><ele>10.8</ele><time>2026-04-04T13:07:37.575Z</time></trkpt><trkpt lat="38.08866" lon="16.1526217"><ele>10.4</ele><time>2026-04-04T13:07:38.575Z</time></trkpt><trkpt lat="38.08856" lon="16.1525967"><ele>10.0</ele><time>2026-04-04T13:07:39.575Z</time></trkpt><trkpt lat="38.08848" lon="16.152565"><ele>10.0</ele><time>2026-04-04T13:07:40.575Z</time></trkpt><trkpt lat="38.0884067" lon="16.152545"><ele>10.0</ele><time>2026-04-04T13:07:41.575Z</time></trkpt><trkpt lat="38.0883217" lon="16.152525"><ele>10.0</ele><time>2026-04-04T13:07:42.575Z</time></trkpt><trkpt lat="38.08824" lon="16.152495"><ele>10.0</ele><time>2026-04-04T13:07:43.575Z</time></trkpt><trkpt lat="38.0881483" lon="16.15248"><ele>10.0</ele><time>2026-04-04T13:07:44.575Z</time></trkpt><trkpt lat="38.0880717" lon="16.1524483"><ele>10.0</ele><time>2026-04-04T13:07:45.575Z</time></trkpt><trkpt lat="38.0879983" lon="16.152405"><ele>10.0</ele><time>2026-04-04T13:07:46.576Z</time></trkpt><trkpt lat="38.08792" lon="16.15236"><ele>10.0</ele><time>2026-04-04T13:07:47.575Z</time></trkpt><trkpt lat="38.08784" lon="16.152315"><ele>10.0</ele><time>2026-04-04T13:07:48.576Z</time></trkpt><trkpt lat="38.0877483" lon="16.1522733"><ele>10.0</ele><time>2026-04-04T13:07:49.575Z</time></trkpt><trkpt lat="38.0876567" lon="16.1522183"><ele>10.0</ele><time>2026-04-04T13:07:50.575Z</time></trkpt><trkpt lat="38.0875617" lon="16.1521683"><ele>10.0</ele><time>2026-04-04T13:07:51.575Z</time></trkpt><trkpt lat="38.0874517" lon="16.1521283"><ele>10.0</ele><time>2026-04-04T13:07:52.575Z</time></trkpt><trkpt lat="38.0873433" lon="16.1520833"><ele>10.0</ele><time>2026-04-04T13:07:53.575Z</time></trkpt><trkpt lat="38.087235" lon="16.1520467"><ele>10.0</ele><time>2026-04-04T13:07:54.575Z</time></trkpt><trkpt lat="38.087125" lon="16.1520017"><ele>10.2</ele><time>2026-04-04T13:07:55.575Z</time></trkpt><trkpt lat="38.0870283" lon="16.15195"><ele>10.4</ele><time>2026-04-04T13:07:56.575Z</time></trkpt><trkpt lat="38.0869417" lon="16.1519083"><ele>10.600000000000001</ele><time>2026-04-04T13:07:57.575Z</time></trkpt><trkpt lat="38.0868617" lon="16.151865"><ele>10.8</ele><time>2026-04-04T13:07:58.575Z</time></trkpt><trkpt lat="38.0867767" lon="16.1518133"><ele>11.0</ele><time>2026-04-04T13:07:59.575Z</time></trkpt><trkpt lat="38.0866917" lon="16.15175"><ele>11.0</ele><time>2026-04-04T13:08:00.576Z</time></trkpt><trkpt lat="38.0866017" lon="16.1516867"><ele>11.0</ele><time>2026-04-04T13:08:01.576Z</time></trkpt><trkpt lat="38.0865083" lon="16.1516333"><ele>11.0</ele><time>2026-04-04T13:08:02.575Z</time></trkpt><trkpt lat="38.08641" lon="16.151575"><ele>11.0</ele><time>2026-04-04T13:08:03.575Z</time></trkpt><trkpt lat="38.0863283" lon="16.1515067"><ele>11.0</ele><time>2026-04-04T13:08:04.575Z</time></trkpt><trkpt lat="38.086255" lon="16.15143"><ele>10.600000000000001</ele><time>2026-04-04T13:08:05.575Z</time></trkpt><trkpt lat="38.0861767" lon="16.151365"><ele>10.200000000000001</ele><time>2026-04-04T13:08:06.576Z</time></trkpt><trkpt lat="38.0860983" lon="16.1513"><ele>9.8</ele><time>2026-04-04T13:08:07.576Z</time></trkpt><trkpt lat="38.0860283" lon="16.1512267"><ele>9.4</ele><time>2026-04-04T13:08:08.575Z</time></trkpt><trkpt lat="38.0859483" lon="16.15116"><ele>9.0</ele><time>2026-04-04T13:08:09.575Z</time></trkpt><trkpt lat="38.08587" lon="16.1510967"><ele>9.0</ele><time>2026-04-04T13:08:10.576Z</time></trkpt><trkpt lat="38.085785" lon="16.1510233"><ele>9.0</ele><time>2026-04-04T13:08:11.575Z</time></trkpt><trkpt lat="38.0856983" lon="16.1509417"><ele>9.0</ele><time>2026-04-04T13:08:12.575Z</time></trkpt><trkpt lat="38.0856183" lon="16.15085"><ele>9.0</ele><time>2026-04-04T13:08:13.575Z</time></trkpt><trkpt lat="38.0855367" lon="16.150765"><ele>9.0</ele><time>2026-04-04T13:08:14.576Z</time></trkpt><trkpt lat="38.0854517" lon="16.1506783"><ele>9.5</ele><time>2026-04-04T13:08:15.575Z</time></trkpt><trkpt lat="38.085355" lon="16.15059"><ele>10.0</ele><time>2026-04-04T13:08:16.575Z</time></trkpt><trkpt lat="38.0852683" lon="16.1505083"><ele>10.5</ele><time>2026-04-04T13:08:17.575Z</time></trkpt><trkpt lat="38.0851733" lon="16.1504233"><ele>11.0</ele><time>2026-04-04T13:08:18.575Z</time></trkpt><trkpt lat="38.085085" lon="16.15034"><ele>11.0</ele><time>2026-04-04T13:08:19.575Z</time></trkpt><trkpt lat="38.0849967" lon="16.1502433"><ele>11.0</ele><time>2026-04-04T13:08:20.575Z</time></trkpt><trkpt lat="38.084905" lon="16.1501433"><ele>11.0</ele><time>2026-04-04T13:08:21.575Z</time></trkpt><trkpt lat="38.0848017" lon="16.1500467"><ele>11.0</ele><time>2026-04-04T13:08:22.575Z</time></trkpt><trkpt lat="38.0846933" lon="16.1499417"><ele>11.25</ele><time>2026-04-04T13:08:23.575Z</time></trkpt><trkpt lat="38.08458" lon="16.1498367"><ele>11.5</ele><time>2026-04-04T13:08:24.575Z</time></trkpt><trkpt lat="38.084465" lon="16.1497267"><ele>11.75</ele><time>2026-04-04T13:08:25.575Z</time></trkpt><trkpt lat="38.084345" lon="16.1496117"><ele>12.0</ele><time>2026-04-04T13:08:26.576Z</time></trkpt><trkpt lat="38.0842217" lon="16.1494967"><ele>12.0</ele><time>2026-04-04T13:08:27.576Z</time></trkpt><trkpt lat="38.084105" lon="16.14937"><ele>12.0</ele><time>2026-04-04T13:08:28.576Z</time></trkpt><trkpt lat="38.0839817" lon="16.1492517"><ele>12.0</ele><time>2026-04-04T13:08:29.575Z</time></trkpt><trkpt lat="38.08386" lon="16.1491283"><ele>11.75</ele><time>2026-04-04T13:08:30.575Z</time></trkpt><trkpt lat="38.0837433" lon="16.1490117"><ele>11.5</ele><time>2026-04-04T13:08:31.575Z</time></trkpt><trkpt lat="38.08363" lon="16.1489083"><ele>11.25</ele><time>2026-04-04T13:08:32.575Z</time></trkpt><trkpt lat="38.0835183" lon="16.1488017"><ele>11.0</ele><time>2026-04-04T13:08:33.575Z</time></trkpt><trkpt lat="38.08341" lon="16.1487"><ele>11.0</ele><time>2026-04-04T13:08:34.576Z</time></trkpt><trkpt lat="38.083305" lon="16.1485967"><ele>11.0</ele><time>2026-04-04T13:08:35.575Z</time></trkpt><trkpt lat="38.0832" lon="16.14849"><ele>11.0</ele><time>2026-04-04T13:08:36.575Z</time></trkpt><trkpt lat="38.08309" lon="16.148385"><ele>11.0</ele><time>2026-04-04T13:08:37.576Z</time></trkpt><trkpt lat="38.0829833" lon="16.1482767"><ele>10.75</ele><time>2026-04-04T13:08:38.575Z</time></trkpt><trkpt lat="38.0828783" lon="16.1481717"><ele>10.5</ele><time>2026-04-04T13:08:39.575Z</time></trkpt><trkpt lat="38.0827733" lon="16.1480667"><ele>10.25</ele><time>2026-04-04T13:08:40.575Z</time></trkpt><trkpt lat="38.08267" lon="16.1479667"><ele>10.0</ele><time>2026-04-04T13:08:41.575Z</time></trkpt><trkpt lat="38.08255" lon="16.14786"><ele>10.0</ele><time>2026-04-04T13:08:42.575Z</time></trkpt><trkpt lat="38.0824333" lon="16.1477417"><ele>10.0</ele><time>2026-04-04T13:08:43.575Z</time></trkpt><trkpt lat="38.0823033" lon="16.1476117"><ele>10.0</ele><time>2026-04-04T13:08:44.576Z</time></trkpt><trkpt lat="38.082175" lon="16.1474833"><ele>9.666666666666668</ele><time>2026-04-04T13:08:45.575Z</time></trkpt><trkpt lat="38.082045" lon="16.1473583"><ele>9.333333333333334</ele><time>2026-04-04T13:08:46.575Z</time></trkpt><trkpt lat="38.08192" lon="16.14723"><ele>9.0</ele><time>2026-04-04T13:08:47.575Z</time></trkpt><trkpt lat="38.0818017" lon="16.1471167"><ele>9.0</ele><time>2026-04-04T13:08:48.576Z</time></trkpt><trkpt lat="38.08169" lon="16.147"><ele>9.0</ele><time>2026-04-04T13:08:49.575Z</time></trkpt><trkpt lat="38.0815733" lon="16.1468867"><ele>9.0</ele><time>2026-04-04T13:08:50.575Z</time></trkpt><trkpt lat="38.0814583" lon="16.146775"><ele>9.0</ele><time>2026-04-04T13:08:51.575Z</time></trkpt><trkpt lat="38.0813417" lon="16.1466617"><ele>9.0</ele><time>2026-04-04T13:08:52.575Z</time></trkpt><trkpt lat="38.0812233" lon="16.1465533"><ele>9.0</ele><time>2026-04-04T13:08:53.575Z</time></trkpt><trkpt lat="38.0811033" lon="16.1464383"><ele>9.0</ele><time>2026-04-04T13:08:54.575Z</time></trkpt><trkpt lat="38.0809833" lon="16.14632"><ele>9.0</ele><time>2026-04-04T13:08:55.576Z</time></trkpt><trkpt lat="38.0808583" lon="16.1462083"><ele>9.666666666666666</ele><time>2026-04-04T13:08:56.575Z</time></trkpt><trkpt lat="38.0807367" lon="16.1460917"><ele>10.333333333333332</ele><time>2026-04-04T13:08:57.575Z</time></trkpt><trkpt lat="38.08062" lon="16.1459767"><ele>11.0</ele><time>2026-04-04T13:08:58.575Z</time></trkpt><trkpt lat="38.080495" lon="16.145855"><ele>11.0</ele><time>2026-04-04T13:08:59.575Z</time></trkpt><trkpt lat="38.0803667" lon="16.1457267"><ele>11.0</ele><time>2026-04-04T13:09:00.576Z</time></trkpt><trkpt lat="38.08024" lon="16.145605"><ele>11.0</ele><time>2026-04-04T13:09:01.575Z</time></trkpt><trkpt lat="38.0801083" lon="16.1454867"><ele>12.333333333333332</ele><time>2026-04-04T13:09:02.576Z</time></trkpt><trkpt lat="38.0799717" lon="16.1453717"><ele>13.666666666666666</ele><time>2026-04-04T13:09:03.575Z</time></trkpt><trkpt lat="38.079825" lon="16.14525"><ele>15.0</ele><time>2026-04-04T13:09:04.575Z</time></trkpt><trkpt lat="38.0796867" lon="16.1451333"><ele>15.0</ele><time>2026-04-04T13:09:05.575Z</time></trkpt><trkpt lat="38.079545" lon="16.1450133"><ele>15.0</ele><time>2026-04-04T13:09:06.575Z</time></trkpt><trkpt lat="38.0794" lon="16.1448967"><ele>15.0</ele><time>2026-04-04T13:09:07.575Z</time></trkpt><trkpt lat="38.0792533" lon="16.1447717"><ele>17.666666666666668</ele><time>2026-04-04T13:09:08.575Z</time></trkpt><trkpt lat="38.079105" lon="16.1446633"><ele>20.333333333333336</ele><time>2026-04-04T13:09:09.575Z</time></trkpt><trkpt lat="38.07896" lon="16.14456"><ele>23.0</ele><time>2026-04-04T13:09:10.575Z</time></trkpt><trkpt lat="38.0788217" lon="16.1444733"><ele>23.0</ele><time>2026-04-04T13:09:11.575Z</time></trkpt><trkpt lat="38.0786783" lon="16.1443883"><ele>23.0</ele><time>2026-04-04T13:09:12.576Z</time></trkpt><trkpt lat="38.078535" lon="16.1443133"><ele>23.0</ele><time>2026-04-04T13:09:13.575Z</time></trkpt><trkpt lat="38.07838" lon="16.1442567"><ele>22.333333333333336</ele><time>2026-04-04T13:09:14.575Z</time></trkpt><trkpt lat="38.078215" lon="16.1442083"><ele>21.666666666666668</ele><time>2026-04-04T13:09:15.575Z</time></trkpt><trkpt lat="38.0780517" lon="16.1441767"><ele>21.0</ele><time>2026-04-04T13:09:16.575Z</time></trkpt><trkpt lat="38.0778883" lon="16.1441383"><ele>21.0</ele><time>2026-04-04T13:09:17.575Z</time></trkpt><trkpt lat="38.0777283" lon="16.1441"><ele>21.0</ele><time>2026-04-04T13:09:18.575Z</time></trkpt><trkpt lat="38.0775683" lon="16.144055"><ele>21.0</ele><time>2026-04-04T13:09:19.575Z</time></trkpt><trkpt lat="38.0774033" lon="16.1440133"><ele>22.0</ele><time>2026-04-04T13:09:20.575Z</time></trkpt><trkpt lat="38.0772367" lon="16.1439733"><ele>23.0</ele><time>2026-04-04T13:09:21.575Z</time></trkpt><trkpt lat="38.07707" lon="16.1439333"><ele>24.0</ele><time>2026-04-04T13:09:22.575Z</time></trkpt><trkpt lat="38.076905" lon="16.14389"><ele>24.0</ele><time>2026-04-04T13:09:23.575Z</time></trkpt><trkpt lat="38.076735" lon="16.1438483"><ele>24.0</ele><time>2026-04-04T13:09:24.576Z</time></trkpt><trkpt lat="38.07656" lon="16.143805"><ele>24.0</ele><time>2026-04-04T13:09:25.575Z</time></trkpt><trkpt lat="38.0763933" lon="16.1437617"><ele>24.333333333333336</ele><time>2026-04-04T13:09:26.575Z</time></trkpt><trkpt lat="38.07622" lon="16.14372"><ele>24.666666666666668</ele><time>2026-04-04T13:09:27.575Z</time></trkpt><trkpt lat="38.076055" lon="16.1436733"><ele>25.0</ele><time>2026-04-04T13:09:28.575Z</time></trkpt><trkpt lat="38.0758833" lon="16.1436367"><ele>24.0</ele><time>2026-04-04T13:09:29.576Z</time></trkpt><trkpt lat="38.0757117" lon="16.1435867"><ele>23.0</ele><time>2026-04-04T13:09:30.575Z</time></trkpt><trkpt lat="38.0755517" lon="16.1435383"><ele>22.0</ele><time>2026-04-04T13:09:31.575Z</time></trkpt><trkpt lat="38.075385" lon="16.1434933"><ele>22.0</ele><time>2026-04-04T13:09:32.575Z</time></trkpt><trkpt lat="38.0752233" lon="16.143445"><ele>22.0</ele><time>2026-04-04T13:09:33.576Z</time></trkpt><trkpt lat="38.0750517" lon="16.1434083"><ele>22.0</ele><time>2026-04-04T13:09:34.575Z</time></trkpt><trkpt lat="38.074875" lon="16.1433683"><ele>21.666666666666664</ele><time>2026-04-04T13:09:35.575Z</time></trkpt><trkpt lat="38.074705" lon="16.1433267"><ele>21.333333333333332</ele><time>2026-04-04T13:09:36.575Z</time></trkpt><trkpt lat="38.0745367" lon="16.1432883"><ele>21.0</ele><time>2026-04-04T13:09:37.575Z</time></trkpt><trkpt lat="38.0743683" lon="16.1432517"><ele>23.0</ele><time>2026-04-04T13:09:38.575Z</time></trkpt><trkpt lat="38.0741983" lon="16.14321"><ele>25.0</ele><time>2026-04-04T13:09:39.575Z</time></trkpt><trkpt lat="38.0740367" lon="16.1431617"><ele>27.0</ele><time>2026-04-04T13:09:40.575Z</time></trkpt><trkpt lat="38.0738733" lon="16.1431233"><ele>27.0</ele><time>2026-04-04T13:09:41.575Z</time></trkpt><trkpt lat="38.0737167" lon="16.14308"><ele>27.0</ele><time>2026-04-04T13:09:42.575Z</time></trkpt><trkpt lat="38.0735633" lon="16.1430433"><ele>27.0</ele><time>2026-04-04T13:09:43.575Z</time></trkpt><trkpt lat="38.0734133" lon="16.1429967"><ele>25.0</ele><time>2026-04-04T13:09:44.575Z</time></trkpt><trkpt lat="38.073255" lon="16.1429467"><ele>23.0</ele><time>2026-04-04T13:09:45.575Z</time></trkpt><trkpt lat="38.07309" lon="16.142895"><ele>21.0</ele><time>2026-04-04T13:09:46.575Z</time></trkpt><trkpt lat="38.0729333" lon="16.1428567"><ele>21.0</ele><time>2026-04-04T13:09:47.575Z</time></trkpt><trkpt lat="38.0727783" lon="16.1428167"><ele>21.0</ele><time>2026-04-04T13:09:48.575Z</time></trkpt><trkpt lat="38.0726233" lon="16.1427833"><ele>21.0</ele><time>2026-04-04T13:09:49.576Z</time></trkpt><trkpt lat="38.0724717" lon="16.1427533"><ele>20.0</ele><time>2026-04-04T13:09:50.575Z</time></trkpt><trkpt lat="38.072315" lon="16.14272"><ele>19.0</ele><time>2026-04-04T13:09:51.575Z</time></trkpt><trkpt lat="38.0721583" lon="16.142685"><ele>18.0</ele><time>2026-04-04T13:09:52.575Z</time></trkpt><trkpt lat="38.072015" lon="16.142645"><ele>18.0</ele><time>2026-04-04T13:09:53.576Z</time></trkpt><trkpt lat="38.0718783" lon="16.1426067"><ele>18.0</ele><time>2026-04-04T13:09:54.575Z</time></trkpt><trkpt lat="38.0717517" lon="16.1425683"><ele>18.0</ele><time>2026-04-04T13:09:55.575Z</time></trkpt><trkpt lat="38.071625" lon="16.1425333"><ele>18.0</ele><time>2026-04-04T13:09:56.575Z</time></trkpt><trkpt lat="38.0715" lon="16.1424967"><ele>18.75</ele><time>2026-04-04T13:09:57.575Z</time></trkpt><trkpt lat="38.07138" lon="16.142465"><ele>19.5</ele><time>2026-04-04T13:09:58.575Z</time></trkpt><trkpt lat="38.0712483" lon="16.1424267"><ele>20.25</ele><time>2026-04-04T13:09:59.576Z</time></trkpt><trkpt lat="38.0711133" lon="16.1423883"><ele>21.0</ele><time>2026-04-04T13:10:00.575Z</time></trkpt><trkpt lat="38.070975" lon="16.1423567"><ele>21.5</ele><time>2026-04-04T13:10:01.575Z</time></trkpt><trkpt lat="38.07083" lon="16.142315"><ele>22.0</ele><time>2026-04-04T13:10:02.575Z</time></trkpt><trkpt lat="38.0706867" lon="16.1422783"><ele>22.5</ele><time>2026-04-04T13:10:03.575Z</time></trkpt><trkpt lat="38.0705433" lon="16.1422383"><ele>23.0</ele><time>2026-04-04T13:10:04.576Z</time></trkpt><trkpt lat="38.0704067" lon="16.1421967"><ele>23.0</ele><time>2026-04-04T13:10:05.576Z</time></trkpt><trkpt lat="38.0702683" lon="16.1421617"><ele>23.0</ele><time>2026-04-04T13:10:06.575Z</time></trkpt><trkpt lat="38.07013" lon="16.142115"><ele>23.0</ele><time>2026-04-04T13:10:07.575Z</time></trkpt><trkpt lat="38.0699867" lon="16.1420667"><ele>23.0</ele><time>2026-04-04T13:10:08.575Z</time></trkpt><trkpt lat="38.0698283" lon="16.1420167"><ele>22.0</ele><time>2026-04-04T13:10:09.575Z</time></trkpt><trkpt lat="38.0696567" lon="16.1419717"><ele>21.0</ele><time>2026-04-04T13:10:10.576Z</time></trkpt><trkpt lat="38.0694633" lon="16.1419267"><ele>20.0</ele><time>2026-04-04T13:10:11.576Z</time></trkpt><trkpt lat="38.0692717" lon="16.1418733"><ele>19.666666666666668</ele><time>2026-04-04T13:10:12.576Z</time></trkpt><trkpt lat="38.0690667" lon="16.141815"><ele>19.333333333333332</ele><time>2026-04-04T13:10:13.575Z</time></trkpt><trkpt lat="38.068855" lon="16.1417533"><ele>19.0</ele><time>2026-04-04T13:10:14.576Z</time></trkpt><trkpt lat="38.06863" lon="16.141695"><ele>19.0</ele><time>2026-04-04T13:10:15.575Z</time></trkpt><trkpt lat="38.0684167" lon="16.1416283"><ele>19.0</ele><time>2026-04-04T13:10:16.575Z</time></trkpt><trkpt lat="38.0682" lon="16.1415583"><ele>19.0</ele><time>2026-04-04T13:10:17.576Z</time></trkpt><trkpt lat="38.0679717" lon="16.1414867"><ele>20.5</ele><time>2026-04-04T13:10:18.575Z</time></trkpt><trkpt lat="38.06773" lon="16.1414133"><ele>22.0</ele><time>2026-04-04T13:10:19.575Z</time></trkpt><trkpt lat="38.0674833" lon="16.1413433"><ele>18.0</ele><time>2026-04-04T13:10:20.575Z</time></trkpt><trkpt lat="38.0672233" lon="16.1412617"><ele>14.0</ele><time>2026-04-04T13:10:21.576Z</time></trkpt><trkpt lat="38.066965" lon="16.141185"><ele>14.0</ele><time>2026-04-04T13:10:22.575Z</time></trkpt><trkpt lat="38.066715" lon="16.141105"><ele>14.0</ele><time>2026-04-04T13:10:23.575Z</time></trkpt><trkpt lat="38.0664867" lon="16.141035"><ele>13.333333333333334</ele><time>2026-04-04T13:10:24.575Z</time></trkpt><trkpt lat="38.066265" lon="16.140965"><ele>12.666666666666668</ele><time>2026-04-04T13:10:25.575Z</time></trkpt><trkpt lat="38.0660567" lon="16.1409033"><ele>12.0</ele><time>2026-04-04T13:10:26.575Z</time></trkpt><trkpt lat="38.0658683" lon="16.1408483"><ele>12.333333333333332</ele><time>2026-04-04T13:10:27.576Z</time></trkpt><trkpt lat="38.0656933" lon="16.1407967"><ele>12.666666666666666</ele><time>2026-04-04T13:10:28.575Z</time></trkpt><trkpt lat="38.0655217" lon="16.1407517"><ele>13.0</ele><time>2026-04-04T13:10:29.575Z</time></trkpt><trkpt lat="38.0653583" lon="16.1406933"><ele>13.0</ele><time>2026-04-04T13:10:30.576Z</time></trkpt><trkpt lat="38.0651933" lon="16.1406433"><ele>13.0</ele><time>2026-04-04T13:10:31.575Z</time></trkpt><trkpt lat="38.06502" lon="16.1406017"><ele>13.0</ele><time>2026-04-04T13:10:32.576Z</time></trkpt><trkpt lat="38.06485" lon="16.1405517"><ele>12.333333333333332</ele><time>2026-04-04T13:10:33.575Z</time></trkpt><trkpt lat="38.0646783" lon="16.1405017"><ele>11.666666666666666</ele><time>2026-04-04T13:10:34.576Z</time></trkpt><trkpt lat="38.0644967" lon="16.1404583"><ele>11.0</ele><time>2026-04-04T13:10:35.576Z</time></trkpt><trkpt lat="38.06432" lon="16.1404183"><ele>11.0</ele><time>2026-04-04T13:10:36.576Z</time></trkpt><trkpt lat="38.06414" lon="16.1403833"><ele>11.0</ele><time>2026-04-04T13:10:37.575Z</time></trkpt><trkpt lat="38.0639633" lon="16.1403483"><ele>11.0</ele><time>2026-04-04T13:10:38.575Z</time></trkpt><trkpt lat="38.0637867" lon="16.1403167"><ele>11.0</ele><time>2026-04-04T13:10:39.575Z</time></trkpt><trkpt lat="38.063605" lon="16.1402883"><ele>11.0</ele><time>2026-04-04T13:10:40.575Z</time></trkpt><trkpt lat="38.063425" lon="16.1402483"><ele>11.0</ele><time>2026-04-04T13:10:41.575Z</time></trkpt><trkpt lat="38.06325" lon="16.1402083"><ele>11.0</ele><time>2026-04-04T13:10:42.575Z</time></trkpt><trkpt lat="38.063065" lon="16.14017"><ele>11.0</ele><time>2026-04-04T13:10:43.576Z</time></trkpt><trkpt lat="38.0628817" lon="16.1401283"><ele>11.0</ele><time>2026-04-04T13:10:44.575Z</time></trkpt><trkpt lat="38.0627067" lon="16.1400967"><ele>11.0</ele><time>2026-04-04T13:10:45.575Z</time></trkpt><trkpt lat="38.0625283" lon="16.1400683"><ele>11.0</ele><time>2026-04-04T13:10:46.575Z</time></trkpt><trkpt lat="38.0623483" lon="16.1400383"><ele>11.0</ele><time>2026-04-04T13:10:47.576Z</time></trkpt><trkpt lat="38.062175" lon="16.14001"><ele>10.333333333333332</ele><time>2026-04-04T13:10:48.575Z</time></trkpt><trkpt lat="38.0619967" lon="16.13998"><ele>9.666666666666666</ele><time>2026-04-04T13:10:49.575Z</time></trkpt><trkpt lat="38.0618317" lon="16.1399517"><ele>9.0</ele><time>2026-04-04T13:10:50.576Z</time></trkpt><trkpt lat="38.0616717" lon="16.1399167"><ele>9.333333333333334</ele><time>2026-04-04T13:10:51.576Z</time></trkpt><trkpt lat="38.0615033" lon="16.139885"><ele>9.666666666666668</ele><time>2026-04-04T13:10:52.575Z</time></trkpt><trkpt lat="38.06134" lon="16.1398567"><ele>10.0</ele><time>2026-04-04T13:10:53.575Z</time></trkpt><trkpt lat="38.0611817" lon="16.1398317"><ele>10.666666666666668</ele><time>2026-04-04T13:10:54.575Z</time></trkpt><trkpt lat="38.0610217" lon="16.1398117"><ele>11.333333333333334</ele><time>2026-04-04T13:10:55.575Z</time></trkpt><trkpt lat="38.06087" lon="16.1397883"><ele>12.0</ele><time>2026-04-04T13:10:56.575Z</time></trkpt><trkpt lat="38.0607083" lon="16.1397683"><ele>12.333333333333332</ele><time>2026-04-04T13:10:57.575Z</time></trkpt><trkpt lat="38.0605467" lon="16.13976"><ele>12.666666666666666</ele><time>2026-04-04T13:10:58.576Z</time></trkpt><trkpt lat="38.06038" lon="16.1397617"><ele>13.0</ele><time>2026-04-04T13:10:59.575Z</time></trkpt><trkpt lat="38.0602083" lon="16.1397667"><ele>13.0</ele><time>2026-04-04T13:11:00.575Z</time></trkpt><trkpt lat="38.060045" lon="16.1397733"><ele>13.0</ele><time>2026-04-04T13:11:01.576Z</time></trkpt><trkpt lat="38.0598833" lon="16.1397733"><ele>13.0</ele><time>2026-04-04T13:11:02.575Z</time></trkpt><trkpt lat="38.059725" lon="16.1397717"><ele>11.333333333333332</ele><time>2026-04-04T13:11:03.575Z</time></trkpt><trkpt lat="38.0595667" lon="16.1397517"><ele>9.666666666666666</ele><time>2026-04-04T13:11:04.575Z</time></trkpt><trkpt lat="38.05942" lon="16.13973"><ele>8.0</ele><time>2026-04-04T13:11:05.575Z</time></trkpt><trkpt lat="38.0592683" lon="16.1397067"><ele>8.0</ele><time>2026-04-04T13:11:06.575Z</time></trkpt><trkpt lat="38.0591217" lon="16.1396783"><ele>8.0</ele><time>2026-04-04T13:11:07.575Z</time></trkpt><trkpt lat="38.05897" lon="16.1396517"><ele>8.0</ele><time>2026-04-04T13:11:08.575Z</time></trkpt><trkpt lat="38.0588317" lon="16.1396267"><ele>8.0</ele><time>2026-04-04T13:11:09.575Z</time></trkpt><trkpt lat="38.058705" lon="16.139605"><ele>9.0</ele><time>2026-04-04T13:11:10.576Z</time></trkpt><trkpt lat="38.0585817" lon="16.1395833"><ele>10.0</ele><time>2026-04-04T13:11:11.575Z</time></trkpt><trkpt lat="38.058465" lon="16.1395583"><ele>11.0</ele><time>2026-04-04T13:11:12.576Z</time></trkpt><trkpt lat="38.0583467" lon="16.1395333"><ele>12.0</ele><time>2026-04-04T13:11:13.576Z</time></trkpt><trkpt lat="38.0582233" lon="16.1395117"><ele>12.25</ele><time>2026-04-04T13:11:14.575Z</time></trkpt><trkpt lat="38.0580933" lon="16.139485"><ele>12.5</ele><time>2026-04-04T13:11:15.575Z</time></trkpt><trkpt lat="38.0579617" lon="16.1394567"><ele>12.75</ele><time>2026-04-04T13:11:16.575Z</time></trkpt><trkpt lat="38.05783" lon="16.1394333"><ele>13.0</ele><time>2026-04-04T13:11:17.576Z</time></trkpt><trkpt lat="38.057695" lon="16.1394167"><ele>13.0</ele><time>2026-04-04T13:11:18.575Z</time></trkpt><trkpt lat="38.0575483" lon="16.1394033"><ele>13.0</ele><time>2026-04-04T13:11:19.575Z</time></trkpt><trkpt lat="38.0573917" lon="16.139405"><ele>13.0</ele><time>2026-04-04T13:11:20.575Z</time></trkpt><trkpt lat="38.057235" lon="16.1394233"><ele>14.0</ele><time>2026-04-04T13:11:21.575Z</time></trkpt><trkpt lat="38.057085" lon="16.1394583"><ele>15.0</ele><time>2026-04-04T13:11:22.576Z</time></trkpt><trkpt lat="38.056945" lon="16.1395"><ele>16.0</ele><time>2026-04-04T13:11:23.575Z</time></trkpt><trkpt lat="38.0568117" lon="16.1395383"><ele>17.0</ele><time>2026-04-04T13:11:24.575Z</time></trkpt><trkpt lat="38.0566867" lon="16.1395767"><ele>16.75</ele><time>2026-04-04T13:11:25.575Z</time></trkpt><trkpt lat="38.0565567" lon="16.1396017"><ele>16.5</ele><time>2026-04-04T13:11:26.575Z</time></trkpt><trkpt lat="38.0564267" lon="16.1396233"><ele>16.25</ele><time>2026-04-04T13:11:27.575Z</time></trkpt><trkpt lat="38.0562933" lon="16.1396367"><ele>16.0</ele><time>2026-04-04T13:11:28.575Z</time></trkpt><trkpt lat="38.0561533" lon="16.139645"><ele>16.0</ele><time>2026-04-04T13:11:29.575Z</time></trkpt><trkpt lat="38.0560183" lon="16.1396267"><ele>16.0</ele><time>2026-04-04T13:11:30.575Z</time></trkpt><trkpt lat="38.0558617" lon="16.1395917"><ele>16.0</ele><time>2026-04-04T13:11:31.575Z</time></trkpt><trkpt lat="38.0556983" lon="16.1395733"><ele>16.333333333333332</ele><time>2026-04-04T13:11:32.576Z</time></trkpt><trkpt lat="38.05554" lon="16.1395467"><ele>16.666666666666668</ele><time>2026-04-04T13:11:33.575Z</time></trkpt><trkpt lat="38.0553817" lon="16.139505"><ele>17.0</ele><time>2026-04-04T13:11:34.576Z</time></trkpt><trkpt lat="38.0552267" lon="16.1394667"><ele>17.0</ele><time>2026-04-04T13:11:35.575Z</time></trkpt><trkpt lat="38.0550817" lon="16.1394217"><ele>17.0</ele><time>2026-04-04T13:11:36.575Z</time></trkpt><trkpt lat="38.0549283" lon="16.1393967"><ele>17.0</ele><time>2026-04-04T13:11:37.575Z</time></trkpt><trkpt lat="38.05479" lon="16.1393783"><ele>17.0</ele><time>2026-04-04T13:11:38.576Z</time></trkpt><trkpt lat="38.0546517" lon="16.1393483"><ele>16.8</ele><time>2026-04-04T13:11:39.575Z</time></trkpt><trkpt lat="38.0545217" lon="16.13933"><ele>16.6</ele><time>2026-04-04T13:11:40.575Z</time></trkpt><trkpt lat="38.054395" lon="16.139305"><ele>16.400000000000002</ele><time>2026-04-04T13:11:41.575Z</time></trkpt><trkpt lat="38.0542967" lon="16.1392833"><ele>16.2</ele><time>2026-04-04T13:11:42.575Z</time></trkpt><trkpt lat="38.05422" lon="16.139255"><ele>16.0</ele><time>2026-04-04T13:11:43.575Z</time></trkpt><trkpt lat="38.0541467" lon="16.13924"><ele>15.333333333333332</ele><time>2026-04-04T13:11:44.575Z</time></trkpt><trkpt lat="38.054075" lon="16.13924"><ele>14.666666666666666</ele><time>2026-04-04T13:11:45.575Z</time></trkpt><trkpt lat="38.0540067" lon="16.1392417"><ele>14.0</ele><time>2026-04-04T13:11:46.575Z</time></trkpt><trkpt lat="38.0539417" lon="16.1392417"><ele>13.333333333333332</ele><time>2026-04-04T13:11:47.575Z</time></trkpt><trkpt lat="38.0538383" lon="16.13924"><ele>12.666666666666666</ele><time>2026-04-04T13:11:49.576Z</time></trkpt><trkpt lat="38.053745" lon="16.13924"><ele>12.0</ele><time>2026-04-04T13:12:03.576Z</time></trkpt><trkpt lat="38.0536483" lon="16.139235"><ele>12.0</ele><time>2026-04-04T13:12:04.576Z</time></trkpt><trkpt lat="38.0534983" lon="16.13923"><ele>12.0</ele><time>2026-04-04T13:12:05.576Z</time></trkpt><trkpt lat="38.0532833" lon="16.1392317"><ele>12.0</ele><time>2026-04-04T13:12:06.576Z</time></trkpt><trkpt lat="38.0530583" lon="16.1392333"><ele>11.666666666666666</ele><time>2026-04-04T13:12:07.576Z</time></trkpt><trkpt lat="38.0528583" lon="16.1392317"><ele>11.333333333333332</ele><time>2026-04-04T13:12:08.576Z</time></trkpt><trkpt lat="38.0526583" lon="16.1392367"><ele>11.0</ele><time>2026-04-04T13:12:09.576Z</time></trkpt><trkpt lat="38.05246" lon="16.13923"><ele>10.0</ele><time>2026-04-04T13:12:10.576Z</time></trkpt><trkpt lat="38.05225" lon="16.139225"><ele>9.0</ele><time>2026-04-04T13:12:11.576Z</time></trkpt><trkpt lat="38.0520383" lon="16.1392267"><ele>8.0</ele><time>2026-04-04T13:12:12.577Z</time></trkpt><trkpt lat="38.0518383" lon="16.139225"><ele>8.0</ele><time>2026-04-04T13:12:13.576Z</time></trkpt><trkpt lat="38.0516333" lon="16.1392383"><ele>8.0</ele><time>2026-04-04T13:12:14.576Z</time></trkpt><trkpt lat="38.0514233" lon="16.139245"><ele>8.0</ele><time>2026-04-04T13:12:15.576Z</time></trkpt><trkpt lat="38.0512167" lon="16.1392517"><ele>7.666666666666666</ele><time>2026-04-04T13:12:16.577Z</time></trkpt><trkpt lat="38.0510217" lon="16.13926"><ele>7.333333333333334</ele><time>2026-04-04T13:12:17.576Z</time></trkpt><trkpt lat="38.0508267" lon="16.1392617"><ele>7.0</ele><time>2026-04-04T13:12:18.577Z</time></trkpt><trkpt lat="38.0506217" lon="16.1392733"><ele>6.666666666666667</ele><time>2026-04-04T13:12:19.576Z</time></trkpt><trkpt lat="38.0504283" lon="16.1392833"><ele>6.333333333333334</ele><time>2026-04-04T13:12:20.576Z</time></trkpt><trkpt lat="38.0502317" lon="16.1392883"><ele>6.0</ele><time>2026-04-04T13:12:21.577Z</time></trkpt><trkpt lat="38.05003" lon="16.1392883"><ele>5.666666666666667</ele><time>2026-04-04T13:12:22.576Z</time></trkpt><trkpt lat="38.0498283" lon="16.13929"><ele>5.333333333333334</ele><time>2026-04-04T13:12:23.576Z</time></trkpt><trkpt lat="38.0496317" lon="16.1393"><ele>5.0</ele><time>2026-04-04T13:12:24.576Z</time></trkpt><trkpt lat="38.0494333" lon="16.1393067"><ele>5.0</ele><time>2026-04-04T13:12:25.576Z</time></trkpt><trkpt lat="38.0492283" lon="16.1393183"><ele>5.0</ele><time>2026-04-04T13:12:26.576Z</time></trkpt><trkpt lat="38.0490283" lon="16.13932"><ele>5.0</ele><time>2026-04-04T13:12:27.576Z</time></trkpt><trkpt lat="38.04883" lon="16.1393283"><ele>5.333333333333334</ele><time>2026-04-04T13:12:28.576Z</time></trkpt><trkpt lat="38.048625" lon="16.1393317"><ele>5.666666666666667</ele><time>2026-04-04T13:12:29.576Z</time></trkpt><trkpt lat="38.0484233" lon="16.1393383"><ele>6.0</ele><time>2026-04-04T13:12:30.576Z</time></trkpt><trkpt lat="38.04823" lon="16.1393433"><ele>6.333333333333334</ele><time>2026-04-04T13:12:31.576Z</time></trkpt><trkpt lat="38.0480333" lon="16.13935"><ele>6.666666666666667</ele><time>2026-04-04T13:12:32.576Z</time></trkpt><trkpt lat="38.0478417" lon="16.1393517"><ele>7.0</ele><time>2026-04-04T13:12:33.576Z</time></trkpt><trkpt lat="38.0476483" lon="16.139365"><ele>7.333333333333334</ele><time>2026-04-04T13:12:34.576Z</time></trkpt><trkpt lat="38.047455" lon="16.13937"><ele>7.666666666666666</ele><time>2026-04-04T13:12:35.576Z</time></trkpt><trkpt lat="38.04726" lon="16.1393683"><ele>8.0</ele><time>2026-04-04T13:12:36.576Z</time></trkpt><trkpt lat="38.0470683" lon="16.1393733"><ele>8.0</ele><time>2026-04-04T13:12:37.576Z</time></trkpt><trkpt lat="38.0468667" lon="16.139375"><ele>8.0</ele><time>2026-04-04T13:12:38.576Z</time></trkpt><trkpt lat="38.046675" lon="16.1393883"><ele>8.0</ele><time>2026-04-04T13:12:39.576Z</time></trkpt><trkpt lat="38.046485" lon="16.1394183"><ele>8.333333333333332</ele><time>2026-04-04T13:12:40.576Z</time></trkpt><trkpt lat="38.0463033" lon="16.1394567"><ele>8.666666666666666</ele><time>2026-04-04T13:12:41.576Z</time></trkpt><trkpt lat="38.0461217" lon="16.1395133"><ele>9.0</ele><time>2026-04-04T13:12:42.576Z</time></trkpt><trkpt lat="38.0459517" lon="16.1395667"><ele>10.0</ele><time>2026-04-04T13:12:43.576Z</time></trkpt><trkpt lat="38.04579" lon="16.1396183"><ele>11.0</ele><time>2026-04-04T13:12:44.576Z</time></trkpt><trkpt lat="38.045645" lon="16.13968"><ele>12.0</ele><time>2026-04-04T13:12:45.577Z</time></trkpt><trkpt lat="38.0455083" lon="16.1397417"><ele>12.0</ele><time>2026-04-04T13:12:46.576Z</time></trkpt><trkpt lat="38.0453667" lon="16.13981"><ele>12.0</ele><time>2026-04-04T13:12:47.576Z</time></trkpt><trkpt lat="38.0452183" lon="16.1398733"><ele>12.0</ele><time>2026-04-04T13:12:48.576Z</time></trkpt><trkpt lat="38.0450617" lon="16.1399367"><ele>12.666666666666668</ele><time>2026-04-04T13:12:49.576Z</time></trkpt><trkpt lat="38.04489" lon="16.140005"><ele>13.333333333333334</ele><time>2026-04-04T13:12:50.576Z</time></trkpt><trkpt lat="38.0447217" lon="16.14008"><ele>14.0</ele><time>2026-04-04T13:12:51.576Z</time></trkpt><trkpt lat="38.0445517" lon="16.14016"><ele>14.0</ele><time>2026-04-04T13:12:52.576Z</time></trkpt><trkpt lat="38.0443833" lon="16.1402367"><ele>14.0</ele><time>2026-04-04T13:12:53.576Z</time></trkpt><trkpt lat="38.0442117" lon="16.1403167"><ele>14.0</ele><time>2026-04-04T13:12:54.576Z</time></trkpt><trkpt lat="38.0440367" lon="16.1403933"><ele>17.333333333333336</ele><time>2026-04-04T13:12:55.576Z</time></trkpt><trkpt lat="38.0438567" lon="16.1404733"><ele>20.666666666666668</ele><time>2026-04-04T13:12:56.576Z</time></trkpt><trkpt lat="38.0436767" lon="16.1405433"><ele>24.0</ele><time>2026-04-04T13:12:57.576Z</time></trkpt><trkpt lat="38.0434967" lon="16.1406"><ele>24.0</ele><time>2026-04-04T13:12:58.576Z</time></trkpt><trkpt lat="38.0433167" lon="16.14065"><ele>24.0</ele><time>2026-04-04T13:12:59.576Z</time></trkpt><trkpt lat="38.0431283" lon="16.1406917"><ele>24.0</ele><time>2026-04-04T13:13:00.576Z</time></trkpt><trkpt lat="38.0429367" lon="16.140725"><ele>22.0</ele><time>2026-04-04T13:13:01.577Z</time></trkpt><trkpt lat="38.0427483" lon="16.1407767"><ele>20.0</ele><time>2026-04-04T13:13:02.576Z</time></trkpt><trkpt lat="38.0425633" lon="16.1408417"><ele>18.0</ele><time>2026-04-04T13:13:03.576Z</time></trkpt><trkpt lat="38.04239" lon="16.1409333"><ele>24.333333333333336</ele><time>2026-04-04T13:13:04.576Z</time></trkpt><trkpt lat="38.0422217" lon="16.1410367"><ele>30.666666666666668</ele><time>2026-04-04T13:13:05.577Z</time></trkpt><trkpt lat="38.04207" lon="16.1411567"><ele>37.0</ele><time>2026-04-04T13:13:06.576Z</time></trkpt><trkpt lat="38.041915" lon="16.1412883"><ele>37.0</ele><time>2026-04-04T13:13:07.576Z</time></trkpt><trkpt lat="38.041765" lon="16.1414283"><ele>37.0</ele><time>2026-04-04T13:13:08.577Z</time></trkpt><trkpt lat="38.0416183" lon="16.141565"><ele>37.0</ele><time>2026-04-04T13:13:09.576Z</time></trkpt><trkpt lat="38.0414767" lon="16.1417183"><ele>40.5</ele><time>2026-04-04T13:13:10.576Z</time></trkpt><trkpt lat="38.04135" lon="16.1418317"><ele>44.0</ele><time>2026-04-04T13:13:11.577Z</time></trkpt><trkpt lat="38.041235" lon="16.1419433"><ele>47.5</ele><time>2026-04-04T13:13:12.576Z</time></trkpt><trkpt lat="38.0411267" lon="16.1420617"><ele>51.0</ele><time>2026-04-04T13:13:13.576Z</time></trkpt><trkpt lat="38.04103" lon="16.1421533"><ele>51.0</ele><time>2026-04-04T13:13:14.576Z</time></trkpt><trkpt lat="38.0409483" lon="16.142245"><ele>51.0</ele><time>2026-04-04T13:13:15.576Z</time></trkpt><trkpt lat="38.0408633" lon="16.1423317"><ele>51.0</ele><time>2026-04-04T13:13:16.577Z</time></trkpt><trkpt lat="38.0407917" lon="16.1424"><ele>51.0</ele><time>2026-04-04T13:13:17.576Z</time></trkpt><trkpt lat="38.0407267" lon="16.14247"><ele>51.0</ele><time>2026-04-04T13:13:18.576Z</time></trkpt><trkpt lat="38.04066" lon="16.14255"><ele>53.4</ele><time>2026-04-04T13:13:19.576Z</time></trkpt><trkpt lat="38.0406083" lon="16.142615"><ele>55.8</ele><time>2026-04-04T13:13:20.576Z</time></trkpt><trkpt lat="38.0405467" lon="16.14272"><ele>58.199999999999996</ele><time>2026-04-04T13:13:22.576Z</time></trkpt><trkpt lat="38.04049" lon="16.1427917"><ele>60.599999999999994</ele><time>2026-04-04T13:16:12.576Z</time></trkpt><trkpt lat="38.0404683" lon="16.142915"><ele>63.0</ele><time>2026-04-04T13:16:14.576Z</time></trkpt><trkpt lat="38.0404433" lon="16.143035"><ele>63.0</ele><time>2026-04-04T13:16:15.576Z</time></trkpt><trkpt lat="38.0404083" lon="16.1431917"><ele>63.0</ele><time>2026-04-04T13:16:16.577Z</time></trkpt><trkpt lat="38.0403733" lon="16.1433667"><ele>63.0</ele><time>2026-04-04T13:16:17.576Z</time></trkpt><trkpt lat="38.040345" lon="16.1435133"><ele>63.0</ele><time>2026-04-04T13:16:18.577Z</time></trkpt><trkpt lat="38.0403167" lon="16.1436383"><ele>60.2</ele><time>2026-04-04T13:16:19.576Z</time></trkpt><trkpt lat="38.0402817" lon="16.1437567"><ele>57.4</ele><time>2026-04-04T13:16:20.576Z</time></trkpt><trkpt lat="38.0402417" lon="16.143875"><ele>54.6</ele><time>2026-04-04T13:16:21.576Z</time></trkpt><trkpt lat="38.0401983" lon="16.14399"><ele>51.800000000000004</ele><time>2026-04-04T13:16:22.577Z</time></trkpt><trkpt lat="38.0401433" lon="16.1441167"><ele>49.0</ele><time>2026-04-04T13:16:23.576Z</time></trkpt><trkpt lat="38.0400733" lon="16.1442333"><ele>47.400000000000006</ele><time>2026-04-04T13:16:24.576Z</time></trkpt><trkpt lat="38.040015" lon="16.14434"><ele>45.8</ele><time>2026-04-04T13:16:25.576Z</time></trkpt><trkpt lat="38.0399683" lon="16.1444283"><ele>44.2</ele><time>2026-04-04T13:16:26.577Z</time></trkpt><trkpt lat="38.039915" lon="16.1445183"><ele>42.599999999999994</ele><time>2026-04-04T13:16:27.576Z</time></trkpt><trkpt lat="38.039855" lon="16.1446"><ele>41.0</ele><time>2026-04-04T13:16:28.577Z</time></trkpt><trkpt lat="38.0397767" lon="16.14467"><ele>41.0</ele><time>2026-04-04T13:16:29.576Z</time></trkpt><trkpt lat="38.0397067" lon="16.1447267"><ele>41.0</ele><time>2026-04-04T13:16:30.576Z</time></trkpt><trkpt lat="38.0396267" lon="16.1447667"><ele>41.0</ele><time>2026-04-04T13:16:31.576Z</time></trkpt><trkpt lat="38.0395333" lon="16.1447817"><ele>41.0</ele><time>2026-04-04T13:16:32.576Z</time></trkpt><trkpt lat="38.0394317" lon="16.1447767"><ele>41.0</ele><time>2026-04-04T13:16:33.576Z</time></trkpt><trkpt lat="38.0393333" lon="16.144755"><ele>41.0</ele><time>2026-04-04T13:16:34.576Z</time></trkpt><trkpt lat="38.03925" lon="16.1446833"><ele>41.0</ele><time>2026-04-04T13:16:35.576Z</time></trkpt><trkpt lat="38.0391767" lon="16.1445933"><ele>41.0</ele><time>2026-04-04T13:16:36.577Z</time></trkpt><trkpt lat="38.03911" lon="16.144485"><ele>41.0</ele><time>2026-04-04T13:16:37.576Z</time></trkpt><trkpt lat="38.0390333" lon="16.144385"><ele>41.0</ele><time>2026-04-04T13:16:38.576Z</time></trkpt><trkpt lat="38.0389417" lon="16.1442767"><ele>39.25</ele><time>2026-04-04T13:16:39.577Z</time></trkpt><trkpt lat="38.0388483" lon="16.1441267"><ele>37.5</ele><time>2026-04-04T13:16:40.576Z</time></trkpt><trkpt lat="38.0387583" lon="16.1439883"><ele>35.75</ele><time>2026-04-04T13:16:41.576Z</time></trkpt><trkpt lat="38.0386683" lon="16.1438483"><ele>34.0</ele><time>2026-04-04T13:16:42.576Z</time></trkpt><trkpt lat="38.03857" lon="16.1437"><ele>34.0</ele><time>2026-04-04T13:16:43.576Z</time></trkpt><trkpt lat="38.03846" lon="16.1435383"><ele>34.0</ele><time>2026-04-04T13:16:44.576Z</time></trkpt><trkpt lat="38.03835" lon="16.1433733"><ele>34.0</ele><time>2026-04-04T13:16:45.576Z</time></trkpt><trkpt lat="38.0382433" lon="16.1432017"><ele>32.66666666666667</ele><time>2026-04-04T13:16:46.576Z</time></trkpt><trkpt lat="38.03815" lon="16.14304"><ele>31.333333333333336</ele><time>2026-04-04T13:16:47.577Z</time></trkpt><trkpt lat="38.0380267" lon="16.1429"><ele>30.0</ele><time>2026-04-04T13:16:48.577Z</time></trkpt><trkpt lat="38.0378817" lon="16.1428083"><ele>30.0</ele><time>2026-04-04T13:16:49.576Z</time></trkpt><trkpt lat="38.0377283" lon="16.1427433"><ele>30.0</ele><time>2026-04-04T13:16:50.576Z</time></trkpt><trkpt lat="38.0375733" lon="16.142705"><ele>30.0</ele><time>2026-04-04T13:16:51.576Z</time></trkpt><trkpt lat="38.037405" lon="16.142685"><ele>29.0</ele><time>2026-04-04T13:16:52.577Z</time></trkpt><trkpt lat="38.0372317" lon="16.1426833"><ele>28.0</ele><time>2026-04-04T13:16:53.577Z</time></trkpt><trkpt lat="38.0370567" lon="16.1426633"><ele>27.0</ele><time>2026-04-04T13:16:54.576Z</time></trkpt><trkpt lat="38.0368733" lon="16.1426383"><ele>27.0</ele><time>2026-04-04T13:16:55.577Z</time></trkpt><trkpt lat="38.0366883" lon="16.14262"><ele>27.0</ele><time>2026-04-04T13:16:56.576Z</time></trkpt><trkpt lat="38.0364983" lon="16.1426033"><ele>27.0</ele><time>2026-04-04T13:16:57.576Z</time></trkpt><trkpt lat="38.0363183" lon="16.14257"><ele>28.333333333333336</ele><time>2026-04-04T13:16:58.576Z</time></trkpt><trkpt lat="38.03614" lon="16.1425333"><ele>29.666666666666668</ele><time>2026-04-04T13:16:59.576Z</time></trkpt><trkpt lat="38.0359567" lon="16.1425017"><ele>31.0</ele><time>2026-04-04T13:17:00.576Z</time></trkpt><trkpt lat="38.0357683" lon="16.14251"><ele>31.0</ele><time>2026-04-04T13:17:01.576Z</time></trkpt><trkpt lat="38.035585" lon="16.1425317"><ele>31.0</ele><time>2026-04-04T13:17:02.576Z</time></trkpt><trkpt lat="38.0354" lon="16.142565"><ele>31.0</ele><time>2026-04-04T13:17:03.576Z</time></trkpt><trkpt lat="38.0352167" lon="16.1426017"><ele>31.0</ele><time>2026-04-04T13:17:04.576Z</time></trkpt><trkpt lat="38.035035" lon="16.142635"><ele>31.0</ele><time>2026-04-04T13:17:05.576Z</time></trkpt><trkpt lat="38.03485" lon="16.1426633"><ele>31.0</ele><time>2026-04-04T13:17:06.577Z</time></trkpt><trkpt lat="38.0346717" lon="16.14269"><ele>35.0</ele><time>2026-04-04T13:17:07.577Z</time></trkpt><trkpt lat="38.0344933" lon="16.1427167"><ele>39.0</ele><time>2026-04-04T13:17:08.576Z</time></trkpt><trkpt lat="38.0343133" lon="16.1427483"><ele>43.0</ele><time>2026-04-04T13:17:09.576Z</time></trkpt><trkpt lat="38.0341367" lon="16.1427767"><ele>47.0</ele><time>2026-04-04T13:17:10.576Z</time></trkpt><trkpt lat="38.0339633" lon="16.1428117"><ele>51.0</ele><time>2026-04-04T13:17:11.576Z</time></trkpt><trkpt lat="38.0337933" lon="16.142855"><ele>55.0</ele><time>2026-04-04T13:17:12.576Z</time></trkpt><trkpt lat="38.0336317" lon="16.14291"><ele>55.0</ele><time>2026-04-04T13:17:13.576Z</time></trkpt><trkpt lat="38.03347" lon="16.14297"><ele>55.0</ele><time>2026-04-04T13:17:14.577Z</time></trkpt><trkpt lat="38.0333117" lon="16.1430367"><ele>55.0</ele><time>2026-04-04T13:17:15.576Z</time></trkpt><trkpt lat="38.0331617" lon="16.1431"><ele>56.666666666666664</ele><time>2026-04-04T13:17:16.577Z</time></trkpt><trkpt lat="38.0330133" lon="16.1431617"><ele>58.33333333333333</ele><time>2026-04-04T13:17:17.576Z</time></trkpt><trkpt lat="38.0328717" lon="16.1432017"><ele>60.0</ele><time>2026-04-04T13:17:18.576Z</time></trkpt><trkpt lat="38.0327183" lon="16.1432233"><ele>54.666666666666664</ele><time>2026-04-04T13:17:19.576Z</time></trkpt><trkpt lat="38.032555" lon="16.1432183"><ele>49.33333333333333</ele><time>2026-04-04T13:17:20.576Z</time></trkpt><trkpt lat="38.0323933" lon="16.143205"><ele>44.0</ele><time>2026-04-04T13:17:21.576Z</time></trkpt><trkpt lat="38.0322267" lon="16.143185"><ele>44.0</ele><time>2026-04-04T13:17:22.577Z</time></trkpt><trkpt lat="38.0320683" lon="16.1431517"><ele>44.0</ele><time>2026-04-04T13:17:23.576Z</time></trkpt><trkpt lat="38.0319083" lon="16.1431067"><ele>44.0</ele><time>2026-04-04T13:17:24.576Z</time></trkpt><trkpt lat="38.031755" lon="16.14306"><ele>39.0</ele><time>2026-04-04T13:17:25.577Z</time></trkpt><trkpt lat="38.031595" lon="16.1430033"><ele>34.0</ele><time>2026-04-04T13:17:26.576Z</time></trkpt><trkpt lat="38.0314383" lon="16.14293"><ele>29.0</ele><time>2026-04-04T13:17:27.576Z</time></trkpt><trkpt lat="38.0312867" lon="16.14285"><ele>29.0</ele><time>2026-04-04T13:17:28.576Z</time></trkpt><trkpt lat="38.031145" lon="16.1427467"><ele>29.0</ele><time>2026-04-04T13:17:29.577Z</time></trkpt><trkpt lat="38.031" lon="16.1426433"><ele>29.0</ele><time>2026-04-04T13:17:30.576Z</time></trkpt><trkpt lat="38.0308667" lon="16.1425567"><ele>27.5</ele><time>2026-04-04T13:17:31.576Z</time></trkpt><trkpt lat="38.0307217" lon="16.1424817"><ele>26.0</ele><time>2026-04-04T13:17:32.576Z</time></trkpt><trkpt lat="38.0305817" lon="16.14243"><ele>24.5</ele><time>2026-04-04T13:17:33.576Z</time></trkpt><trkpt lat="38.0304483" lon="16.142395"><ele>23.0</ele><time>2026-04-04T13:17:34.576Z</time></trkpt><trkpt lat="38.03033" lon="16.1423733"><ele>32.0</ele><time>2026-04-04T13:17:35.577Z</time></trkpt><trkpt lat="38.030225" lon="16.1423583"><ele>41.0</ele><time>2026-04-04T13:17:36.577Z</time></trkpt><trkpt lat="38.0301333" lon="16.14234"><ele>50.0</ele><time>2026-04-04T13:17:37.576Z</time></trkpt><trkpt lat="38.030035" lon="16.1423367"><ele>59.0</ele><time>2026-04-04T13:17:38.576Z</time></trkpt><trkpt lat="38.0299333" lon="16.1423467"><ele>68.0</ele><time>2026-04-04T13:17:39.576Z</time></trkpt><trkpt lat="38.0298367" lon="16.1423467"><ele>68.0</ele><time>2026-04-04T13:17:40.576Z</time></trkpt><trkpt lat="38.029745" lon="16.142345"><ele>68.0</ele><time>2026-04-04T13:17:41.576Z</time></trkpt><trkpt lat="38.0296517" lon="16.1423533"><ele>68.0</ele><time>2026-04-04T13:17:42.577Z</time></trkpt><trkpt lat="38.0295583" lon="16.1423583"><ele>68.0</ele><time>2026-04-04T13:17:43.576Z</time></trkpt><trkpt lat="38.0294567" lon="16.142355"><ele>68.0</ele><time>2026-04-04T13:17:44.576Z</time></trkpt><trkpt lat="38.02935" lon="16.1423383"><ele>68.0</ele><time>2026-04-04T13:17:45.576Z</time></trkpt><trkpt lat="38.029245" lon="16.1423067"><ele>68.0</ele><time>2026-04-04T13:17:46.577Z</time></trkpt><trkpt lat="38.0291433" lon="16.1422567"><ele>68.0</ele><time>2026-04-04T13:17:47.576Z</time></trkpt><trkpt lat="38.0290417" lon="16.1421933"><ele>68.0</ele><time>2026-04-04T13:17:48.577Z</time></trkpt><trkpt lat="38.02894" lon="16.1421133"><ele>58.25</ele><time>2026-04-04T13:17:49.577Z</time></trkpt><trkpt lat="38.028825" lon="16.1420333"><ele>48.5</ele><time>2026-04-04T13:17:50.576Z</time></trkpt><trkpt lat="38.0287167" lon="16.1419533"><ele>38.75</ele><time>2026-04-04T13:17:51.576Z</time></trkpt><trkpt lat="38.028605" lon="16.1418733"><ele>29.0</ele><time>2026-04-04T13:17:52.577Z</time></trkpt><trkpt lat="38.0284917" lon="16.141785"><ele>29.0</ele><time>2026-04-04T13:17:53.576Z</time></trkpt><trkpt lat="38.0283767" lon="16.1416967"><ele>29.0</ele><time>2026-04-04T13:17:54.577Z</time></trkpt><trkpt lat="38.02826" lon="16.1416017"><ele>29.0</ele><time>2026-04-04T13:17:55.576Z</time></trkpt><trkpt lat="38.0281467" lon="16.14149"><ele>29.0</ele><time>2026-04-04T13:17:56.576Z</time></trkpt><trkpt lat="38.028035" lon="16.14137"><ele>26.666666666666664</ele><time>2026-04-04T13:17:57.576Z</time></trkpt><trkpt lat="38.02793" lon="16.141235"><ele>24.333333333333332</ele><time>2026-04-04T13:17:58.576Z</time></trkpt><trkpt lat="38.027815" lon="16.1411033"><ele>22.0</ele><time>2026-04-04T13:17:59.577Z</time></trkpt><trkpt lat="38.027695" lon="16.1409733"><ele>22.0</ele><time>2026-04-04T13:18:00.576Z</time></trkpt><trkpt lat="38.0275767" lon="16.1408433"><ele>22.0</ele><time>2026-04-04T13:18:01.576Z</time></trkpt><trkpt lat="38.0274467" lon="16.1407033"><ele>22.0</ele><time>2026-04-04T13:18:02.576Z</time></trkpt><trkpt lat="38.0273183" lon="16.1405683"><ele>21.333333333333332</ele><time>2026-04-04T13:18:03.576Z</time></trkpt><trkpt lat="38.0271833" lon="16.14045"><ele>20.666666666666668</ele><time>2026-04-04T13:18:04.576Z</time></trkpt><trkpt lat="38.0270417" lon="16.1403133"><ele>20.0</ele><time>2026-04-04T13:18:05.576Z</time></trkpt><trkpt lat="38.0268967" lon="16.14018"><ele>20.0</ele><time>2026-04-04T13:18:06.577Z</time></trkpt><trkpt lat="38.0267517" lon="16.1400583"><ele>20.0</ele><time>2026-04-04T13:18:07.576Z</time></trkpt><trkpt lat="38.0266017" lon="16.139935"><ele>20.0</ele><time>2026-04-04T13:18:08.576Z</time></trkpt><trkpt lat="38.0264517" lon="16.1398133"><ele>19.666666666666668</ele><time>2026-04-04T13:18:09.576Z</time></trkpt><trkpt lat="38.026285" lon="16.1396867"><ele>19.333333333333332</ele><time>2026-04-04T13:18:10.576Z</time></trkpt><trkpt lat="38.0261267" lon="16.1395767"><ele>19.0</ele><time>2026-04-04T13:18:11.576Z</time></trkpt><trkpt lat="38.0259583" lon="16.1394783"><ele>17.0</ele><time>2026-04-04T13:18:12.576Z</time></trkpt><trkpt lat="38.025785" lon="16.139385"><ele>15.0</ele><time>2026-04-04T13:18:13.576Z</time></trkpt><trkpt lat="38.0256067" lon="16.1393"><ele>13.0</ele><time>2026-04-04T13:18:14.576Z</time></trkpt><trkpt lat="38.0254283" lon="16.1392283"><ele>13.0</ele><time>2026-04-04T13:18:15.577Z</time></trkpt><trkpt lat="38.0252483" lon="16.1391583"><ele>13.0</ele><time>2026-04-04T13:18:16.576Z</time></trkpt><trkpt lat="38.0250767" lon="16.13909"><ele>13.0</ele><time>2026-04-04T13:18:17.576Z</time></trkpt><trkpt lat="38.0249033" lon="16.1390233"><ele>15.333333333333332</ele><time>2026-04-04T13:18:18.576Z</time></trkpt><trkpt lat="38.0247267" lon="16.1389483"><ele>17.666666666666668</ele><time>2026-04-04T13:18:19.577Z</time></trkpt><trkpt lat="38.0245483" lon="16.1388783"><ele>20.0</ele><time>2026-04-04T13:18:20.576Z</time></trkpt><trkpt lat="38.0243683" lon="16.138805"><ele>20.0</ele><time>2026-04-04T13:18:21.576Z</time></trkpt><trkpt lat="38.0241883" lon="16.138725"><ele>20.0</ele><time>2026-04-04T13:18:22.576Z</time></trkpt><trkpt lat="38.0240283" lon="16.1386333"><ele>20.0</ele><time>2026-04-04T13:18:23.576Z</time></trkpt><trkpt lat="38.0238583" lon="16.13854"><ele>17.333333333333336</ele><time>2026-04-04T13:18:24.576Z</time></trkpt><trkpt lat="38.0236933" lon="16.1384517"><ele>14.666666666666668</ele><time>2026-04-04T13:18:25.576Z</time></trkpt><trkpt lat="38.0235217" lon="16.138365"><ele>12.0</ele><time>2026-04-04T13:18:26.576Z</time></trkpt><trkpt lat="38.023345" lon="16.1382783"><ele>13.666666666666668</ele><time>2026-04-04T13:18:27.577Z</time></trkpt><trkpt lat="38.0231717" lon="16.1381833"><ele>15.333333333333334</ele><time>2026-04-04T13:18:28.576Z</time></trkpt><trkpt lat="38.0230017" lon="16.1380883"><ele>17.0</ele><time>2026-04-04T13:18:29.576Z</time></trkpt><trkpt lat="38.0228417" lon="16.1379867"><ele>17.0</ele><time>2026-04-04T13:18:30.576Z</time></trkpt><trkpt lat="38.0226883" lon="16.1378717"><ele>17.0</ele><time>2026-04-04T13:18:31.576Z</time></trkpt><trkpt lat="38.02254" lon="16.1377517"><ele>17.0</ele><time>2026-04-04T13:18:32.576Z</time></trkpt><trkpt lat="38.0223983" lon="16.1375983"><ele>17.333333333333336</ele><time>2026-04-04T13:18:33.576Z</time></trkpt><trkpt lat="38.022255" lon="16.137435"><ele>17.666666666666668</ele><time>2026-04-04T13:18:34.577Z</time></trkpt><trkpt lat="38.0221133" lon="16.1372633"><ele>18.0</ele><time>2026-04-04T13:18:35.576Z</time></trkpt><trkpt lat="38.021975" lon="16.137095"><ele>18.0</ele><time>2026-04-04T13:18:36.576Z</time></trkpt><trkpt lat="38.0218417" lon="16.1369333"><ele>18.0</ele><time>2026-04-04T13:18:37.577Z</time></trkpt><trkpt lat="38.0217017" lon="16.13677"><ele>18.0</ele><time>2026-04-04T13:18:38.576Z</time></trkpt><trkpt lat="38.0215533" lon="16.13661"><ele>17.0</ele><time>2026-04-04T13:18:39.576Z</time></trkpt><trkpt lat="38.0214167" lon="16.1364517"><ele>16.0</ele><time>2026-04-04T13:18:40.576Z</time></trkpt><trkpt lat="38.0212717" lon="16.136295"><ele>15.0</ele><time>2026-04-04T13:18:41.576Z</time></trkpt><trkpt lat="38.02114" lon="16.1361317"><ele>15.0</ele><time>2026-04-04T13:18:42.577Z</time></trkpt><trkpt lat="38.0210067" lon="16.135965"><ele>15.0</ele><time>2026-04-04T13:18:43.576Z</time></trkpt><trkpt lat="38.0208733" lon="16.1357983"><ele>15.0</ele><time>2026-04-04T13:18:44.576Z</time></trkpt><trkpt lat="38.020745" lon="16.1356317"><ele>13.666666666666666</ele><time>2026-04-04T13:18:45.576Z</time></trkpt><trkpt lat="38.0206267" lon="16.1354483"><ele>12.333333333333332</ele><time>2026-04-04T13:18:46.576Z</time></trkpt><trkpt lat="38.020515" lon="16.1352483"><ele>11.0</ele><time>2026-04-04T13:18:47.577Z</time></trkpt><trkpt lat="38.0203983" lon="16.1350533"><ele>11.666666666666666</ele><time>2026-04-04T13:18:48.576Z</time></trkpt><trkpt lat="38.0203083" lon="16.13486"><ele>12.333333333333332</ele><time>2026-04-04T13:18:49.576Z</time></trkpt><trkpt lat="38.02021" lon="16.1346883"><ele>13.0</ele><time>2026-04-04T13:18:50.576Z</time></trkpt><trkpt lat="38.0200933" lon="16.1345117"><ele>11.666666666666666</ele><time>2026-04-04T13:18:51.576Z</time></trkpt><trkpt lat="38.01996" lon="16.1343767"><ele>10.333333333333332</ele><time>2026-04-04T13:18:52.576Z</time></trkpt><trkpt lat="38.01981" lon="16.1342583"><ele>9.0</ele><time>2026-04-04T13:18:53.576Z</time></trkpt><trkpt lat="38.0196483" lon="16.134145"><ele>8.666666666666666</ele><time>2026-04-04T13:18:54.576Z</time></trkpt><trkpt lat="38.0194683" lon="16.13405"><ele>8.333333333333332</ele><time>2026-04-04T13:18:55.576Z</time></trkpt><trkpt lat="38.0192783" lon="16.1339667"><ele>8.0</ele><time>2026-04-04T13:18:56.576Z</time></trkpt><trkpt lat="38.0190917" lon="16.1338783"><ele>8.0</ele><time>2026-04-04T13:18:57.576Z</time></trkpt><trkpt lat="38.0189017" lon="16.1337967"><ele>8.0</ele><time>2026-04-04T13:18:58.576Z</time></trkpt><trkpt lat="38.0187283" lon="16.1337083"><ele>8.0</ele><time>2026-04-04T13:18:59.576Z</time></trkpt><trkpt lat="38.0185567" lon="16.1336317"><ele>8.0</ele><time>2026-04-04T13:19:00.576Z</time></trkpt><trkpt lat="38.0184" lon="16.1335683"><ele>8.0</ele><time>2026-04-04T13:19:01.577Z</time></trkpt><trkpt lat="38.01824" lon="16.133495"><ele>8.0</ele><time>2026-04-04T13:19:02.577Z</time></trkpt><trkpt lat="38.0180883" lon="16.133415"><ele>9.333333333333332</ele><time>2026-04-04T13:19:03.576Z</time></trkpt><trkpt lat="38.01793" lon="16.133365"><ele>10.666666666666666</ele><time>2026-04-04T13:19:04.576Z</time></trkpt><trkpt lat="38.01777" lon="16.1333433"><ele>12.0</ele><time>2026-04-04T13:19:05.577Z</time></trkpt><trkpt lat="38.01761" lon="16.133345"><ele>14.666666666666668</ele><time>2026-04-04T13:19:06.576Z</time></trkpt><trkpt lat="38.0174433" lon="16.133385"><ele>17.333333333333336</ele><time>2026-04-04T13:19:07.576Z</time></trkpt><trkpt lat="38.0172733" lon="16.1334533"><ele>20.0</ele><time>2026-04-04T13:19:08.576Z</time></trkpt><trkpt lat="38.017115" lon="16.13354"><ele>20.0</ele><time>2026-04-04T13:19:09.577Z</time></trkpt><trkpt lat="38.0169567" lon="16.1336367"><ele>20.0</ele><time>2026-04-04T13:19:10.576Z</time></trkpt><trkpt lat="38.0168" lon="16.13372"><ele>20.0</ele><time>2026-04-04T13:19:11.576Z</time></trkpt><trkpt lat="38.0166333" lon="16.1337883"><ele>21.0</ele><time>2026-04-04T13:19:12.577Z</time></trkpt><trkpt lat="38.0164683" lon="16.1338317"><ele>22.0</ele><time>2026-04-04T13:19:13.577Z</time></trkpt><trkpt lat="38.0163017" lon="16.133845"><ele>23.0</ele><time>2026-04-04T13:19:14.577Z</time></trkpt><trkpt lat="38.01614" lon="16.1338117"><ele>23.0</ele><time>2026-04-04T13:19:15.576Z</time></trkpt><trkpt lat="38.01599" lon="16.1337567"><ele>23.0</ele><time>2026-04-04T13:19:16.576Z</time></trkpt><trkpt lat="38.015845" lon="16.13367"><ele>23.0</ele><time>2026-04-04T13:19:17.576Z</time></trkpt><trkpt lat="38.0156983" lon="16.1335983"><ele>20.333333333333336</ele><time>2026-04-04T13:19:18.576Z</time></trkpt><trkpt lat="38.01555" lon="16.1335033"><ele>17.666666666666668</ele><time>2026-04-04T13:19:19.576Z</time></trkpt><trkpt lat="38.01541" lon="16.13341"><ele>15.0</ele><time>2026-04-04T13:19:20.576Z</time></trkpt><trkpt lat="38.015265" lon="16.1333183"><ele>16.333333333333332</ele><time>2026-04-04T13:19:21.577Z</time></trkpt><trkpt lat="38.0151133" lon="16.1332217"><ele>17.666666666666664</ele><time>2026-04-04T13:19:22.576Z</time></trkpt><trkpt lat="38.01496" lon="16.133115"><ele>19.0</ele><time>2026-04-04T13:19:23.577Z</time></trkpt><trkpt lat="38.0147983" lon="16.133015"><ele>19.0</ele><time>2026-04-04T13:19:24.576Z</time></trkpt><trkpt lat="38.0146367" lon="16.1329167"><ele>19.0</ele><time>2026-04-04T13:19:25.576Z</time></trkpt><trkpt lat="38.0144783" lon="16.1328117"><ele>19.0</ele><time>2026-04-04T13:19:26.577Z</time></trkpt><trkpt lat="38.0143133" lon="16.1327083"><ele>16.666666666666664</ele><time>2026-04-04T13:19:27.576Z</time></trkpt><trkpt lat="38.014145" lon="16.1326167"><ele>14.333333333333332</ele><time>2026-04-04T13:19:28.576Z</time></trkpt><trkpt lat="38.0139717" lon="16.1325183"><ele>12.0</ele><time>2026-04-04T13:19:29.576Z</time></trkpt><trkpt lat="38.0138017" lon="16.1324133"><ele>13.0</ele><time>2026-04-04T13:19:30.576Z</time></trkpt><trkpt lat="38.0136233" lon="16.1323033"><ele>14.0</ele><time>2026-04-04T13:19:31.576Z</time></trkpt><trkpt lat="38.013445" lon="16.1321983"><ele>15.0</ele><time>2026-04-04T13:19:32.576Z</time></trkpt><trkpt lat="38.0132767" lon="16.1320933"><ele>15.0</ele><time>2026-04-04T13:19:33.576Z</time></trkpt><trkpt lat="38.0131067" lon="16.1319883"><ele>15.0</ele><time>2026-04-04T13:19:34.576Z</time></trkpt><trkpt lat="38.0129417" lon="16.13189"><ele>15.0</ele><time>2026-04-04T13:19:35.577Z</time></trkpt><trkpt lat="38.0127767" lon="16.131795"><ele>15.0</ele><time>2026-04-04T13:19:36.577Z</time></trkpt><trkpt lat="38.01261" lon="16.1317"><ele>15.0</ele><time>2026-04-04T13:19:37.576Z</time></trkpt><trkpt lat="38.0124467" lon="16.1316067"><ele>15.0</ele><time>2026-04-04T13:19:38.576Z</time></trkpt><trkpt lat="38.0122767" lon="16.1315067"><ele>16.333333333333332</ele><time>2026-04-04T13:19:39.576Z</time></trkpt><trkpt lat="38.012105" lon="16.1314"><ele>17.666666666666664</ele><time>2026-04-04T13:19:40.576Z</time></trkpt><trkpt lat="38.0119367" lon="16.1312917"><ele>19.0</ele><time>2026-04-04T13:19:41.576Z</time></trkpt><trkpt lat="38.0117667" lon="16.131185"><ele>16.333333333333332</ele><time>2026-04-04T13:19:42.577Z</time></trkpt><trkpt lat="38.01158" lon="16.1310817"><ele>13.666666666666666</ele><time>2026-04-04T13:19:43.577Z</time></trkpt><trkpt lat="38.0114067" lon="16.130975"><ele>11.0</ele><time>2026-04-04T13:19:44.576Z</time></trkpt><trkpt lat="38.0112317" lon="16.13086"><ele>11.0</ele><time>2026-04-04T13:19:45.577Z</time></trkpt><trkpt lat="38.0110483" lon="16.1307517"><ele>11.0</ele><time>2026-04-04T13:19:46.576Z</time></trkpt><trkpt lat="38.0108483" lon="16.13063"><ele>11.0</ele><time>2026-04-04T13:19:47.576Z</time></trkpt><trkpt lat="38.0106467" lon="16.1305033"><ele>10.0</ele><time>2026-04-04T13:19:48.576Z</time></trkpt><trkpt lat="38.0104367" lon="16.130375"><ele>9.0</ele><time>2026-04-04T13:19:49.577Z</time></trkpt><trkpt lat="38.0102333" lon="16.13024"><ele>9.0</ele><time>2026-04-04T13:19:50.576Z</time></trkpt><trkpt lat="38.0100333" lon="16.1301017"><ele>9.0</ele><time>2026-04-04T13:19:51.576Z</time></trkpt><trkpt lat="38.0098267" lon="16.1299667"><ele>10.0</ele><time>2026-04-04T13:19:52.576Z</time></trkpt><trkpt lat="38.00962" lon="16.12983"><ele>11.0</ele><time>2026-04-04T13:19:53.577Z</time></trkpt><trkpt lat="38.0094167" lon="16.1296983"><ele>11.0</ele><time>2026-04-04T13:19:54.576Z</time></trkpt><trkpt lat="38.0092067" lon="16.1295683"><ele>11.0</ele><time>2026-04-04T13:19:55.577Z</time></trkpt><trkpt lat="38.00901" lon="16.1294467"><ele>10.666666666666666</ele><time>2026-04-04T13:19:56.577Z</time></trkpt><trkpt lat="38.0088183" lon="16.1293317"><ele>10.333333333333334</ele><time>2026-04-04T13:19:57.576Z</time></trkpt><trkpt lat="38.008625" lon="16.12922"><ele>10.0</ele><time>2026-04-04T13:19:58.577Z</time></trkpt><trkpt lat="38.008435" lon="16.129115"><ele>12.0</ele><time>2026-04-04T13:19:59.577Z</time></trkpt><trkpt lat="38.0082567" lon="16.1290033"><ele>14.0</ele><time>2026-04-04T13:20:00.576Z</time></trkpt><trkpt lat="38.008085" lon="16.1289017"><ele>16.0</ele><time>2026-04-04T13:20:01.576Z</time></trkpt><trkpt lat="38.0079183" lon="16.128805"><ele>16.0</ele><time>2026-04-04T13:20:02.576Z</time></trkpt><trkpt lat="38.0077433" lon="16.1286983"><ele>16.0</ele><time>2026-04-04T13:20:03.576Z</time></trkpt><trkpt lat="38.0075667" lon="16.1285883"><ele>16.0</ele><time>2026-04-04T13:20:04.576Z</time></trkpt><trkpt lat="38.007395" lon="16.1284783"><ele>15.666666666666666</ele><time>2026-04-04T13:20:05.576Z</time></trkpt><trkpt lat="38.00723" lon="16.128365"><ele>15.333333333333332</ele><time>2026-04-04T13:20:06.576Z</time></trkpt><trkpt lat="38.0070567" lon="16.12827"><ele>15.0</ele><time>2026-04-04T13:20:07.577Z</time></trkpt><trkpt lat="38.0068867" lon="16.1281867"><ele>15.0</ele><time>2026-04-04T13:20:08.576Z</time></trkpt><trkpt lat="38.006715" lon="16.1281"><ele>15.0</ele><time>2026-04-04T13:20:09.576Z</time></trkpt><trkpt lat="38.006545" lon="16.128005"><ele>15.0</ele><time>2026-04-04T13:20:10.576Z</time></trkpt><trkpt lat="38.0063683" lon="16.1279017"><ele>13.666666666666666</ele><time>2026-04-04T13:20:11.577Z</time></trkpt><trkpt lat="38.006185" lon="16.127805"><ele>12.333333333333332</ele><time>2026-04-04T13:20:12.576Z</time></trkpt><trkpt lat="38.006" lon="16.127725"><ele>11.0</ele><time>2026-04-04T13:20:13.576Z</time></trkpt><trkpt lat="38.0058183" lon="16.1276533"><ele>11.0</ele><time>2026-04-04T13:20:14.577Z</time></trkpt><trkpt lat="38.0056383" lon="16.1275783"><ele>11.0</ele><time>2026-04-04T13:20:15.576Z</time></trkpt><trkpt lat="38.005455" lon="16.1275033"><ele>11.0</ele><time>2026-04-04T13:20:16.576Z</time></trkpt><trkpt lat="38.0052667" lon="16.127435"><ele>13.666666666666666</ele><time>2026-04-04T13:20:17.577Z</time></trkpt><trkpt lat="38.005085" lon="16.1273583"><ele>16.333333333333332</ele><time>2026-04-04T13:20:18.576Z</time></trkpt><trkpt lat="38.0049067" lon="16.1272883"><ele>19.0</ele><time>2026-04-04T13:20:19.576Z</time></trkpt><trkpt lat="38.0047217" lon="16.1272183"><ele>19.0</ele><time>2026-04-04T13:20:20.576Z</time></trkpt><trkpt lat="38.0045517" lon="16.1271233"><ele>19.0</ele><time>2026-04-04T13:20:21.576Z</time></trkpt><trkpt lat="38.004365" lon="16.1270367"><ele>19.0</ele><time>2026-04-04T13:20:22.576Z</time></trkpt><trkpt lat="38.004185" lon="16.1269467"><ele>15.333333333333332</ele><time>2026-04-04T13:20:23.576Z</time></trkpt><trkpt lat="38.0040067" lon="16.126855"><ele>11.666666666666666</ele><time>2026-04-04T13:20:24.576Z</time></trkpt><trkpt lat="38.0038283" lon="16.1267583"><ele>8.0</ele><time>2026-04-04T13:20:25.576Z</time></trkpt><trkpt lat="38.0036583" lon="16.12666"><ele>8.0</ele><time>2026-04-04T13:20:26.576Z</time></trkpt><trkpt lat="38.00348" lon="16.1265683"><ele>8.0</ele><time>2026-04-04T13:20:27.576Z</time></trkpt><trkpt lat="38.0033083" lon="16.1264683"><ele>8.0</ele><time>2026-04-04T13:20:28.576Z</time></trkpt><trkpt lat="38.0031333" lon="16.126365"><ele>9.0</ele><time>2026-04-04T13:20:29.576Z</time></trkpt><trkpt lat="38.0029633" lon="16.1262583"><ele>10.0</ele><time>2026-04-04T13:20:30.576Z</time></trkpt><trkpt lat="38.0027967" lon="16.1261483"><ele>11.0</ele><time>2026-04-04T13:20:31.576Z</time></trkpt><trkpt lat="38.0026317" lon="16.1260333"><ele>10.666666666666666</ele><time>2026-04-04T13:20:32.577Z</time></trkpt><trkpt lat="38.0024683" lon="16.1259217"><ele>10.333333333333334</ele><time>2026-04-04T13:20:33.576Z</time></trkpt><trkpt lat="38.0022983" lon="16.1258067"><ele>10.0</ele><time>2026-04-04T13:20:34.577Z</time></trkpt><trkpt lat="38.002135" lon="16.1256717"><ele>10.0</ele><time>2026-04-04T13:20:35.576Z</time></trkpt><trkpt lat="38.001985" lon="16.12552"><ele>10.0</ele><time>2026-04-04T13:20:36.576Z</time></trkpt><trkpt lat="38.0018433" lon="16.1253533"><ele>10.0</ele><time>2026-04-04T13:20:37.576Z</time></trkpt><trkpt lat="38.001715" lon="16.12517"><ele>9.333333333333334</ele><time>2026-04-04T13:20:38.576Z</time></trkpt><trkpt lat="38.001595" lon="16.124995"><ele>8.666666666666666</ele><time>2026-04-04T13:20:39.577Z</time></trkpt><trkpt lat="38.001475" lon="16.1248167"><ele>8.0</ele><time>2026-04-04T13:20:40.576Z</time></trkpt><trkpt lat="38.00134" lon="16.12464"><ele>8.0</ele><time>2026-04-04T13:20:41.576Z</time></trkpt><trkpt lat="38.0012067" lon="16.1244533"><ele>8.0</ele><time>2026-04-04T13:20:42.576Z</time></trkpt><trkpt lat="38.0010633" lon="16.1242767"><ele>8.0</ele><time>2026-04-04T13:20:43.576Z</time></trkpt><trkpt lat="38.0009317" lon="16.124105"><ele>7.666666666666666</ele><time>2026-04-04T13:20:44.576Z</time></trkpt><trkpt lat="38.0008183" lon="16.1239233"><ele>7.333333333333334</ele><time>2026-04-04T13:20:45.577Z</time></trkpt><trkpt lat="38.00069" lon="16.123745"><ele>7.0</ele><time>2026-04-04T13:20:46.577Z</time></trkpt><trkpt lat="38.0005583" lon="16.1235767"><ele>7.0</ele><time>2026-04-04T13:20:47.576Z</time></trkpt><trkpt lat="38.0004267" lon="16.1234283"><ele>7.0</ele><time>2026-04-04T13:20:48.576Z</time></trkpt><trkpt lat="38.0002733" lon="16.1232883"><ele>7.0</ele><time>2026-04-04T13:20:49.576Z</time></trkpt><trkpt lat="38.00012" lon="16.1231517"><ele>7.666666666666667</ele><time>2026-04-04T13:20:50.577Z</time></trkpt><trkpt lat="37.9999633" lon="16.1230367"><ele>8.333333333333334</ele><time>2026-04-04T13:20:51.576Z</time></trkpt><trkpt lat="37.9997967" lon="16.12295"><ele>9.0</ele><time>2026-04-04T13:20:52.576Z</time></trkpt><trkpt lat="37.999615" lon="16.1228767"><ele>9.0</ele><time>2026-04-04T13:20:53.577Z</time></trkpt><trkpt lat="37.999425" lon="16.1228217"><ele>9.0</ele><time>2026-04-04T13:20:54.576Z</time></trkpt><trkpt lat="37.9992367" lon="16.1227883"><ele>9.0</ele><time>2026-04-04T13:20:55.576Z</time></trkpt><trkpt lat="37.9990417" lon="16.1227867"><ele>8.333333333333334</ele><time>2026-04-04T13:20:56.576Z</time></trkpt><trkpt lat="37.9988483" lon="16.1228"><ele>7.666666666666667</ele><time>2026-04-04T13:20:57.577Z</time></trkpt><trkpt lat="37.99865" lon="16.122815"><ele>7.0</ele><time>2026-04-04T13:20:58.576Z</time></trkpt><trkpt lat="37.99846" lon="16.1228333"><ele>8.0</ele><time>2026-04-04T13:20:59.577Z</time></trkpt><trkpt lat="37.9982667" lon="16.1228517"><ele>9.0</ele><time>2026-04-04T13:21:00.577Z</time></trkpt><trkpt lat="37.9980717" lon="16.122845"><ele>10.0</ele><time>2026-04-04T13:21:01.577Z</time></trkpt><trkpt lat="37.9978783" lon="16.1228183"><ele>10.0</ele><time>2026-04-04T13:21:02.576Z</time></trkpt><trkpt lat="37.9976983" lon="16.1227783"><ele>10.0</ele><time>2026-04-04T13:21:03.576Z</time></trkpt><trkpt lat="37.997515" lon="16.1227083"><ele>10.0</ele><time>2026-04-04T13:21:04.576Z</time></trkpt><trkpt lat="37.9973333" lon="16.1226383"><ele>10.666666666666668</ele><time>2026-04-04T13:21:05.577Z</time></trkpt><trkpt lat="37.9971533" lon="16.122575"><ele>11.333333333333334</ele><time>2026-04-04T13:21:06.576Z</time></trkpt><trkpt lat="37.996965" lon="16.12251"><ele>12.0</ele><time>2026-04-04T13:21:07.576Z</time></trkpt><trkpt lat="37.9967767" lon="16.1224483"><ele>16.333333333333336</ele><time>2026-04-04T13:21:08.577Z</time></trkpt><trkpt lat="37.9965933" lon="16.1223917"><ele>20.666666666666668</ele><time>2026-04-04T13:21:09.577Z</time></trkpt><trkpt lat="37.996405" lon="16.1223333"><ele>25.0</ele><time>2026-04-04T13:21:10.576Z</time></trkpt><trkpt lat="37.9962217" lon="16.1222667"><ele>25.0</ele><time>2026-04-04T13:21:11.576Z</time></trkpt><trkpt lat="37.99604" lon="16.1222067"><ele>25.0</ele><time>2026-04-04T13:21:12.576Z</time></trkpt><trkpt lat="37.9958583" lon="16.1221383"><ele>25.0</ele><time>2026-04-04T13:21:13.577Z</time></trkpt><trkpt lat="37.9956833" lon="16.12206"><ele>21.666666666666668</ele><time>2026-04-04T13:21:14.576Z</time></trkpt><trkpt lat="37.99551" lon="16.1219867"><ele>18.333333333333336</ele><time>2026-04-04T13:21:15.576Z</time></trkpt><trkpt lat="37.9953217" lon="16.1219267"><ele>15.0</ele><time>2026-04-04T13:21:16.576Z</time></trkpt><trkpt lat="37.995135" lon="16.121865"><ele>13.666666666666666</ele><time>2026-04-04T13:21:17.576Z</time></trkpt><trkpt lat="37.99495" lon="16.1217967"><ele>12.333333333333332</ele><time>2026-04-04T13:21:18.576Z</time></trkpt><trkpt lat="37.994765" lon="16.1217467"><ele>11.0</ele><time>2026-04-04T13:21:19.576Z</time></trkpt><trkpt lat="37.9945933" lon="16.1216817"><ele>11.0</ele><time>2026-04-04T13:21:20.576Z</time></trkpt><trkpt lat="37.9944167" lon="16.1216117"><ele>11.0</ele><time>2026-04-04T13:21:21.576Z</time></trkpt><trkpt lat="37.9942333" lon="16.121545"><ele>11.0</ele><time>2026-04-04T13:21:22.577Z</time></trkpt><trkpt lat="37.9940567" lon="16.12148"><ele>13.333333333333332</ele><time>2026-04-04T13:21:23.577Z</time></trkpt><trkpt lat="37.993875" lon="16.1214183"><ele>15.666666666666666</ele><time>2026-04-04T13:21:24.576Z</time></trkpt><trkpt lat="37.9936933" lon="16.1213517"><ele>18.0</ele><time>2026-04-04T13:21:25.576Z</time></trkpt><trkpt lat="37.99351" lon="16.1212817"><ele>16.333333333333332</ele><time>2026-04-04T13:21:26.576Z</time></trkpt><trkpt lat="37.9933267" lon="16.12121"><ele>14.666666666666666</ele><time>2026-04-04T13:21:27.577Z</time></trkpt><trkpt lat="37.99313" lon="16.1211433"><ele>13.0</ele><time>2026-04-04T13:21:28.576Z</time></trkpt><trkpt lat="37.99294" lon="16.12108"><ele>13.0</ele><time>2026-04-04T13:21:29.577Z</time></trkpt><trkpt lat="37.992755" lon="16.1210233"><ele>13.0</ele><time>2026-04-04T13:21:30.576Z</time></trkpt><trkpt lat="37.99257" lon="16.120965"><ele>13.0</ele><time>2026-04-04T13:21:31.576Z</time></trkpt><trkpt lat="37.9923867" lon="16.1208933"><ele>12.0</ele><time>2026-04-04T13:21:32.576Z</time></trkpt><trkpt lat="37.992195" lon="16.1208217"><ele>11.0</ele><time>2026-04-04T13:21:33.577Z</time></trkpt><trkpt lat="37.992005" lon="16.1207483"><ele>10.0</ele><time>2026-04-04T13:21:34.577Z</time></trkpt><trkpt lat="37.991815" lon="16.1206717"><ele>10.333333333333334</ele><time>2026-04-04T13:21:35.576Z</time></trkpt><trkpt lat="37.9916217" lon="16.1206"><ele>10.666666666666666</ele><time>2026-04-04T13:21:36.576Z</time></trkpt><trkpt lat="37.991435" lon="16.1205217"><ele>11.0</ele><time>2026-04-04T13:21:37.576Z</time></trkpt><trkpt lat="37.9912433" lon="16.1204383"><ele>11.0</ele><time>2026-04-04T13:21:38.576Z</time></trkpt><trkpt lat="37.9910517" lon="16.1203617"><ele>11.0</ele><time>2026-04-04T13:21:39.576Z</time></trkpt><trkpt lat="37.9908633" lon="16.1202667"><ele>11.0</ele><time>2026-04-04T13:21:40.576Z</time></trkpt><trkpt lat="37.9906783" lon="16.1201683"><ele>11.333333333333332</ele><time>2026-04-04T13:21:41.576Z</time></trkpt><trkpt lat="37.9905017" lon="16.120065"><ele>11.666666666666666</ele><time>2026-04-04T13:21:42.576Z</time></trkpt><trkpt lat="37.99032" lon="16.1199633"><ele>12.0</ele><time>2026-04-04T13:21:43.576Z</time></trkpt><trkpt lat="37.9901383" lon="16.1198617"><ele>11.333333333333334</ele><time>2026-04-04T13:21:44.576Z</time></trkpt><trkpt lat="37.9899583" lon="16.1197567"><ele>10.666666666666668</ele><time>2026-04-04T13:21:45.576Z</time></trkpt><trkpt lat="37.9897783" lon="16.1196483"><ele>10.0</ele><time>2026-04-04T13:21:46.577Z</time></trkpt><trkpt lat="37.9896" lon="16.1195417"><ele>10.0</ele><time>2026-04-04T13:21:47.576Z</time></trkpt><trkpt lat="37.9894233" lon="16.1194333"><ele>10.0</ele><time>2026-04-04T13:21:48.576Z</time></trkpt><trkpt lat="37.9892467" lon="16.1193233"><ele>10.0</ele><time>2026-04-04T13:21:49.576Z</time></trkpt><trkpt lat="37.98907" lon="16.1192167"><ele>10.0</ele><time>2026-04-04T13:21:50.577Z</time></trkpt><trkpt lat="37.9888967" lon="16.11912"><ele>10.0</ele><time>2026-04-04T13:21:51.576Z</time></trkpt><trkpt lat="37.9887217" lon="16.1190283"><ele>10.0</ele><time>2026-04-04T13:21:52.577Z</time></trkpt><trkpt lat="37.9885467" lon="16.11893"><ele>10.0</ele><time>2026-04-04T13:21:53.576Z</time></trkpt><trkpt lat="37.98838" lon="16.118825"><ele>10.0</ele><time>2026-04-04T13:21:54.576Z</time></trkpt><trkpt lat="37.9882133" lon="16.1187217"><ele>10.0</ele><time>2026-04-04T13:21:55.576Z</time></trkpt><trkpt lat="37.9880367" lon="16.11862"><ele>9.333333333333334</ele><time>2026-04-04T13:21:56.576Z</time></trkpt><trkpt lat="37.9878633" lon="16.11851"><ele>8.666666666666666</ele><time>2026-04-04T13:21:57.576Z</time></trkpt><trkpt lat="37.9876917" lon="16.1184083"><ele>8.0</ele><time>2026-04-04T13:21:58.576Z</time></trkpt><trkpt lat="37.9875217" lon="16.118305"><ele>8.333333333333332</ele><time>2026-04-04T13:21:59.576Z</time></trkpt><trkpt lat="37.98735" lon="16.118205"><ele>8.666666666666666</ele><time>2026-04-04T13:22:00.577Z</time></trkpt><trkpt lat="37.9871667" lon="16.1180983"><ele>9.0</ele><time>2026-04-04T13:22:01.576Z</time></trkpt><trkpt lat="37.9869867" lon="16.1179917"><ele>9.0</ele><time>2026-04-04T13:22:02.576Z</time></trkpt><trkpt lat="37.9868117" lon="16.1178883"><ele>9.0</ele><time>2026-04-04T13:22:03.576Z</time></trkpt><trkpt lat="37.9866367" lon="16.1177717"><ele>9.0</ele><time>2026-04-04T13:22:04.576Z</time></trkpt><trkpt lat="37.986455" lon="16.1176617"><ele>8.666666666666666</ele><time>2026-04-04T13:22:05.576Z</time></trkpt><trkpt lat="37.9862783" lon="16.11755"><ele>8.333333333333332</ele><time>2026-04-04T13:22:06.576Z</time></trkpt><trkpt lat="37.9861083" lon="16.1174317"><ele>8.0</ele><time>2026-04-04T13:22:07.577Z</time></trkpt><trkpt lat="37.9859283" lon="16.117325"><ele>7.0</ele><time>2026-04-04T13:22:08.576Z</time></trkpt><trkpt lat="37.9857467" lon="16.1172067"><ele>6.0</ele><time>2026-04-04T13:22:09.577Z</time></trkpt><trkpt lat="37.98556" lon="16.11711"><ele>5.0</ele><time>2026-04-04T13:22:10.576Z</time></trkpt><trkpt lat="37.98537" lon="16.1170167"><ele>5.0</ele><time>2026-04-04T13:22:11.576Z</time></trkpt><trkpt lat="37.985185" lon="16.1169217"><ele>5.0</ele><time>2026-04-04T13:22:12.576Z</time></trkpt><trkpt lat="37.985" lon="16.1168283"><ele>5.0</ele><time>2026-04-04T13:22:13.576Z</time></trkpt><trkpt lat="37.9848083" lon="16.1167333"><ele>5.0</ele><time>2026-04-04T13:22:14.576Z</time></trkpt><trkpt lat="37.984625" lon="16.1166283"><ele>5.0</ele><time>2026-04-04T13:22:15.576Z</time></trkpt><trkpt lat="37.9844383" lon="16.1165183"><ele>5.0</ele><time>2026-04-04T13:22:16.576Z</time></trkpt><trkpt lat="37.9842583" lon="16.11641"><ele>5.0</ele><time>2026-04-04T13:22:17.577Z</time></trkpt><trkpt lat="37.9840783" lon="16.1162933"><ele>5.0</ele><time>2026-04-04T13:22:18.576Z</time></trkpt><trkpt lat="37.983895" lon="16.116185"><ele>5.0</ele><time>2026-04-04T13:22:19.576Z</time></trkpt><trkpt lat="37.98371" lon="16.1160783"><ele>5.0</ele><time>2026-04-04T13:22:20.576Z</time></trkpt><trkpt lat="37.9835333" lon="16.1159717"><ele>5.0</ele><time>2026-04-04T13:22:21.576Z</time></trkpt><trkpt lat="37.9833583" lon="16.115865"><ele>5.0</ele><time>2026-04-04T13:22:22.576Z</time></trkpt><trkpt lat="37.9831833" lon="16.1157617"><ele>5.0</ele><time>2026-04-04T13:22:23.576Z</time></trkpt><trkpt lat="37.983" lon="16.1156633"><ele>5.0</ele><time>2026-04-04T13:22:24.576Z</time></trkpt><trkpt lat="37.9828233" lon="16.1155683"><ele>5.0</ele><time>2026-04-04T13:22:25.576Z</time></trkpt><trkpt lat="37.982645" lon="16.1154717"><ele>4.666666666666667</ele><time>2026-04-04T13:22:26.576Z</time></trkpt><trkpt lat="37.9824717" lon="16.1153733"><ele>4.333333333333333</ele><time>2026-04-04T13:22:27.576Z</time></trkpt><trkpt lat="37.9823" lon="16.1152733"><ele>4.0</ele><time>2026-04-04T13:22:28.576Z</time></trkpt><trkpt lat="37.9821283" lon="16.1151717"><ele>4.0</ele><time>2026-04-04T13:22:29.576Z</time></trkpt><trkpt lat="37.9819583" lon="16.11507"><ele>4.0</ele><time>2026-04-04T13:22:30.577Z</time></trkpt><trkpt lat="37.9817883" lon="16.11497"><ele>4.0</ele><time>2026-04-04T13:22:31.576Z</time></trkpt><trkpt lat="37.9816167" lon="16.1148733"><ele>4.666666666666666</ele><time>2026-04-04T13:22:32.576Z</time></trkpt><trkpt lat="37.9814467" lon="16.114775"><ele>5.333333333333333</ele><time>2026-04-04T13:22:33.576Z</time></trkpt><trkpt lat="37.9812783" lon="16.1146817"><ele>6.0</ele><time>2026-04-04T13:22:34.576Z</time></trkpt><trkpt lat="37.98111" lon="16.1145917"><ele>6.0</ele><time>2026-04-04T13:22:35.576Z</time></trkpt><trkpt lat="37.9809533" lon="16.1144983"><ele>6.0</ele><time>2026-04-04T13:22:36.576Z</time></trkpt><trkpt lat="37.980805" lon="16.1144083"><ele>6.0</ele><time>2026-04-04T13:22:37.576Z</time></trkpt><trkpt lat="37.980665" lon="16.114335"><ele>6.25</ele><time>2026-04-04T13:22:38.576Z</time></trkpt><trkpt lat="37.980535" lon="16.1142617"><ele>6.5</ele><time>2026-04-04T13:22:39.576Z</time></trkpt><trkpt lat="37.9804083" lon="16.1141817"><ele>6.75</ele><time>2026-04-04T13:22:40.576Z</time></trkpt><trkpt lat="37.9802833" lon="16.11411"><ele>7.0</ele><time>2026-04-04T13:22:41.576Z</time></trkpt><trkpt lat="37.980155" lon="16.114025"><ele>8.333333333333334</ele><time>2026-04-04T13:22:42.576Z</time></trkpt><trkpt lat="37.980015" lon="16.113955"><ele>9.666666666666666</ele><time>2026-04-04T13:22:43.577Z</time></trkpt><trkpt lat="37.97987" lon="16.1138933"><ele>11.0</ele><time>2026-04-04T13:22:44.576Z</time></trkpt><trkpt lat="37.979705" lon="16.1138117"><ele>11.0</ele><time>2026-04-04T13:22:45.576Z</time></trkpt><trkpt lat="37.979525" lon="16.11372"><ele>11.0</ele><time>2026-04-04T13:22:46.576Z</time></trkpt><trkpt lat="37.9793433" lon="16.1136183"><ele>11.0</ele><time>2026-04-04T13:22:47.577Z</time></trkpt><trkpt lat="37.9791567" lon="16.1135017"><ele>10.333333333333332</ele><time>2026-04-04T13:22:48.576Z</time></trkpt><trkpt lat="37.9789717" lon="16.1133817"><ele>9.666666666666666</ele><time>2026-04-04T13:22:49.576Z</time></trkpt><trkpt lat="37.9787783" lon="16.11326"><ele>9.0</ele><time>2026-04-04T13:22:50.576Z</time></trkpt><trkpt lat="37.9785833" lon="16.1131467"><ele>9.0</ele><time>2026-04-04T13:22:51.576Z</time></trkpt><trkpt lat="37.9784" lon="16.113045"><ele>9.0</ele><time>2026-04-04T13:22:52.576Z</time></trkpt><trkpt lat="37.9782167" lon="16.112945"><ele>9.0</ele><time>2026-04-04T13:22:53.576Z</time></trkpt><trkpt lat="37.9780333" lon="16.1128383"><ele>9.0</ele><time>2026-04-04T13:22:54.577Z</time></trkpt><trkpt lat="37.9778517" lon="16.1127317"><ele>9.0</ele><time>2026-04-04T13:22:55.576Z</time></trkpt><trkpt lat="37.9776733" lon="16.11262"><ele>9.0</ele><time>2026-04-04T13:22:56.577Z</time></trkpt><trkpt lat="37.9775" lon="16.1124967"><ele>9.666666666666666</ele><time>2026-04-04T13:22:57.576Z</time></trkpt><trkpt lat="37.9773233" lon="16.1123667"><ele>10.333333333333332</ele><time>2026-04-04T13:22:58.576Z</time></trkpt><trkpt lat="37.97715" lon="16.1122317"><ele>11.0</ele><time>2026-04-04T13:22:59.576Z</time></trkpt><trkpt lat="37.976985" lon="16.11209"><ele>11.0</ele><time>2026-04-04T13:23:00.576Z</time></trkpt><trkpt lat="37.97681" lon="16.1119433"><ele>11.0</ele><time>2026-04-04T13:23:01.576Z</time></trkpt><trkpt lat="37.9766467" lon="16.1118"><ele>11.0</ele><time>2026-04-04T13:23:02.576Z</time></trkpt><trkpt lat="37.9764833" lon="16.11167"><ele>11.333333333333332</ele><time>2026-04-04T13:23:03.577Z</time></trkpt><trkpt lat="37.9763183" lon="16.1115167"><ele>11.666666666666666</ele><time>2026-04-04T13:23:04.576Z</time></trkpt><trkpt lat="37.9761567" lon="16.1113683"><ele>12.0</ele><time>2026-04-04T13:23:05.576Z</time></trkpt><trkpt lat="37.9760033" lon="16.1112117"><ele>12.0</ele><time>2026-04-04T13:23:06.577Z</time></trkpt><trkpt lat="37.97585" lon="16.11105"><ele>12.0</ele><time>2026-04-04T13:23:07.576Z</time></trkpt><trkpt lat="37.9757017" lon="16.11089"><ele>12.0</ele><time>2026-04-04T13:23:08.577Z</time></trkpt><trkpt lat="37.9755533" lon="16.1107283"><ele>12.0</ele><time>2026-04-04T13:23:09.576Z</time></trkpt><trkpt lat="37.9754067" lon="16.1105733"><ele>12.0</ele><time>2026-04-04T13:23:10.576Z</time></trkpt><trkpt lat="37.9752617" lon="16.110415"><ele>12.0</ele><time>2026-04-04T13:23:11.576Z</time></trkpt><trkpt lat="37.97511" lon="16.1102617"><ele>11.0</ele><time>2026-04-04T13:23:12.576Z</time></trkpt><trkpt lat="37.9749533" lon="16.1101117"><ele>10.0</ele><time>2026-04-04T13:23:13.576Z</time></trkpt><trkpt lat="37.9748017" lon="16.109955"><ele>9.0</ele><time>2026-04-04T13:23:14.576Z</time></trkpt><trkpt lat="37.9746433" lon="16.109795"><ele>9.0</ele><time>2026-04-04T13:23:15.576Z</time></trkpt><trkpt lat="37.9744933" lon="16.1096317"><ele>9.0</ele><time>2026-04-04T13:23:16.576Z</time></trkpt><trkpt lat="37.9743517" lon="16.1094733"><ele>9.0</ele><time>2026-04-04T13:23:17.576Z</time></trkpt><trkpt lat="37.9742" lon="16.1093167"><ele>9.333333333333334</ele><time>2026-04-04T13:23:18.577Z</time></trkpt><trkpt lat="37.97405" lon="16.1091567"><ele>9.666666666666668</ele><time>2026-04-04T13:23:19.576Z</time></trkpt><trkpt lat="37.9739017" lon="16.1089967"><ele>10.0</ele><time>2026-04-04T13:23:20.576Z</time></trkpt><trkpt lat="37.9737483" lon="16.10884"><ele>10.0</ele><time>2026-04-04T13:23:21.576Z</time></trkpt><trkpt lat="37.9735967" lon="16.1086817"><ele>10.0</ele><time>2026-04-04T13:23:22.576Z</time></trkpt><trkpt lat="37.973435" lon="16.1085267"><ele>10.0</ele><time>2026-04-04T13:23:23.576Z</time></trkpt><trkpt lat="37.9732667" lon="16.10837"><ele>10.333333333333334</ele><time>2026-04-04T13:23:24.577Z</time></trkpt><trkpt lat="37.9731" lon="16.108235"><ele>10.666666666666666</ele><time>2026-04-04T13:23:25.577Z</time></trkpt><trkpt lat="37.9729433" lon="16.108105"><ele>11.0</ele><time>2026-04-04T13:23:26.576Z</time></trkpt><trkpt lat="37.9727817" lon="16.107985"><ele>11.0</ele><time>2026-04-04T13:23:27.576Z</time></trkpt><trkpt lat="37.9726233" lon="16.1078617"><ele>11.0</ele><time>2026-04-04T13:23:28.577Z</time></trkpt><trkpt lat="37.972465" lon="16.1077417"><ele>11.0</ele><time>2026-04-04T13:23:29.576Z</time></trkpt><trkpt lat="37.9723033" lon="16.1076217"><ele>11.0</ele><time>2026-04-04T13:23:30.576Z</time></trkpt><trkpt lat="37.97214" lon="16.1075017"><ele>11.0</ele><time>2026-04-04T13:23:31.576Z</time></trkpt><trkpt lat="37.9719733" lon="16.107385"><ele>11.0</ele><time>2026-04-04T13:23:32.576Z</time></trkpt><trkpt lat="37.9718117" lon="16.1072633"><ele>10.0</ele><time>2026-04-04T13:23:33.576Z</time></trkpt><trkpt lat="37.9716483" lon="16.107145"><ele>9.0</ele><time>2026-04-04T13:23:34.576Z</time></trkpt><trkpt lat="37.9714833" lon="16.107025"><ele>8.0</ele><time>2026-04-04T13:23:35.576Z</time></trkpt><trkpt lat="37.97132" lon="16.1069117"><ele>8.0</ele><time>2026-04-04T13:23:36.576Z</time></trkpt><trkpt lat="37.9711567" lon="16.106795"><ele>8.0</ele><time>2026-04-04T13:23:37.576Z</time></trkpt><trkpt lat="37.97099" lon="16.1066767"><ele>8.0</ele><time>2026-04-04T13:23:38.576Z</time></trkpt><trkpt lat="37.9708267" lon="16.1065583"><ele>7.666666666666666</ele><time>2026-04-04T13:23:39.576Z</time></trkpt><trkpt lat="37.97066" lon="16.1064383"><ele>7.333333333333334</ele><time>2026-04-04T13:23:40.576Z</time></trkpt><trkpt lat="37.9705" lon="16.1063167"><ele>7.0</ele><time>2026-04-04T13:23:41.576Z</time></trkpt><trkpt lat="37.970345" lon="16.1062"><ele>7.0</ele><time>2026-04-04T13:23:42.576Z</time></trkpt><trkpt lat="37.970195" lon="16.1060883"><ele>7.0</ele><time>2026-04-04T13:23:43.577Z</time></trkpt><trkpt lat="37.9700567" lon="16.105985"><ele>7.0</ele><time>2026-04-04T13:23:44.576Z</time></trkpt><trkpt lat="37.9699217" lon="16.1058833"><ele>6.75</ele><time>2026-04-04T13:23:45.576Z</time></trkpt><trkpt lat="37.9697917" lon="16.1057783"><ele>6.5</ele><time>2026-04-04T13:23:46.576Z</time></trkpt><trkpt lat="37.9696667" lon="16.1056833"><ele>6.25</ele><time>2026-04-04T13:23:47.577Z</time></trkpt><trkpt lat="37.96955" lon="16.105595"><ele>6.0</ele><time>2026-04-04T13:23:48.576Z</time></trkpt><trkpt lat="37.9694333" lon="16.10551"><ele>6.25</ele><time>2026-04-04T13:23:49.576Z</time></trkpt><trkpt lat="37.9693083" lon="16.105425"><ele>6.5</ele><time>2026-04-04T13:23:50.576Z</time></trkpt><trkpt lat="37.9691833" lon="16.1053383"><ele>6.75</ele><time>2026-04-04T13:23:51.576Z</time></trkpt><trkpt lat="37.9690633" lon="16.1052483"><ele>7.0</ele><time>2026-04-04T13:23:52.576Z</time></trkpt><trkpt lat="37.9689417" lon="16.1051567"><ele>7.0</ele><time>2026-04-04T13:23:53.576Z</time></trkpt><trkpt lat="37.96882" lon="16.105065"><ele>7.0</ele><time>2026-04-04T13:23:54.577Z</time></trkpt><trkpt lat="37.9687167" lon="16.104985"><ele>7.0</ele><time>2026-04-04T13:23:55.576Z</time></trkpt><trkpt lat="37.9686167" lon="16.104915"><ele>7.0</ele><time>2026-04-04T13:23:56.577Z</time></trkpt><trkpt lat="37.9685333" lon="16.1048517"><ele>7.199999999999999</ele><time>2026-04-04T13:23:57.576Z</time></trkpt><trkpt lat="37.9684517" lon="16.1047883"><ele>7.3999999999999995</ele><time>2026-04-04T13:23:58.576Z</time></trkpt><trkpt lat="37.96837" lon="16.1047283"><ele>7.6000000000000005</ele><time>2026-04-04T13:23:59.576Z</time></trkpt><trkpt lat="37.968295" lon="16.104675"><ele>7.800000000000001</ele><time>2026-04-04T13:24:00.577Z</time></trkpt><trkpt lat="37.9682383" lon="16.10463"><ele>8.0</ele><time>2026-04-04T13:24:01.576Z</time></trkpt><trkpt lat="37.968145" lon="16.1045617"><ele>8.666666666666666</ele><time>2026-04-04T13:24:03.576Z</time></trkpt><trkpt lat="37.9680467" lon="16.10448"><ele>9.333333333333332</ele><time>2026-04-04T13:24:05.576Z</time></trkpt><trkpt lat="37.9679883" lon="16.1044333"><ele>10.0</ele><time>2026-04-04T13:24:06.576Z</time></trkpt><trkpt lat="37.96792" lon="16.1043867"><ele>10.666666666666666</ele><time>2026-04-04T13:24:07.577Z</time></trkpt><trkpt lat="37.9678467" lon="16.104335"><ele>11.333333333333334</ele><time>2026-04-04T13:24:08.576Z</time></trkpt><trkpt lat="37.967765" lon="16.1042683"><ele>12.0</ele><time>2026-04-04T13:24:09.577Z</time></trkpt><trkpt lat="37.9676583" lon="16.10419"><ele>12.0</ele><time>2026-04-04T13:24:10.576Z</time></trkpt><trkpt lat="37.9675517" lon="16.10412"><ele>12.0</ele><time>2026-04-04T13:24:11.576Z</time></trkpt><trkpt lat="37.967435" lon="16.1040333"><ele>12.0</ele><time>2026-04-04T13:24:12.577Z</time></trkpt><trkpt lat="37.9673167" lon="16.1039417"><ele>12.0</ele><time>2026-04-04T13:24:13.576Z</time></trkpt><trkpt lat="37.967205" lon="16.1038733"><ele>13.5</ele><time>2026-04-04T13:24:14.577Z</time></trkpt><trkpt lat="37.9670917" lon="16.1037933"><ele>15.0</ele><time>2026-04-04T13:24:15.576Z</time></trkpt><trkpt lat="37.966975" lon="16.1036967"><ele>16.5</ele><time>2026-04-04T13:24:16.576Z</time></trkpt><trkpt lat="37.966855" lon="16.1036217"><ele>18.0</ele><time>2026-04-04T13:24:17.576Z</time></trkpt><trkpt lat="37.966735" lon="16.1035267"><ele>18.0</ele><time>2026-04-04T13:24:18.576Z</time></trkpt><trkpt lat="37.9666133" lon="16.1034483"><ele>18.0</ele><time>2026-04-04T13:24:19.576Z</time></trkpt><trkpt lat="37.9665033" lon="16.103355"><ele>18.0</ele><time>2026-04-04T13:24:20.576Z</time></trkpt><trkpt lat="37.966395" lon="16.103295"><ele>18.0</ele><time>2026-04-04T13:24:21.576Z</time></trkpt><trkpt lat="37.9662967" lon="16.1032233"><ele>18.0</ele><time>2026-04-04T13:24:22.576Z</time></trkpt><trkpt lat="37.9662017" lon="16.1031567"><ele>18.0</ele><time>2026-04-04T13:24:23.577Z</time></trkpt><trkpt lat="37.966105" lon="16.1030933"><ele>18.0</ele><time>2026-04-04T13:24:24.576Z</time></trkpt><trkpt lat="37.9660167" lon="16.1030283"><ele>18.0</ele><time>2026-04-04T13:24:25.576Z</time></trkpt><trkpt lat="37.9659333" lon="16.102965"><ele>18.0</ele><time>2026-04-04T13:24:26.577Z</time></trkpt><trkpt lat="37.9658667" lon="16.1029083"><ele>17.0</ele><time>2026-04-04T13:24:27.576Z</time></trkpt><trkpt lat="37.9658017" lon="16.1028667"><ele>16.0</ele><time>2026-04-04T13:24:28.576Z</time></trkpt><trkpt lat="37.9657067" lon="16.10281"><ele>15.0</ele><time>2026-04-04T13:24:30.577Z</time></trkpt><trkpt lat="37.9656417" lon="16.1027833"><ele>14.0</ele><time>2026-04-04T13:24:33.576Z</time></trkpt><trkpt lat="37.9655783" lon="16.1027383"><ele>13.0</ele><time>2026-04-04T13:24:39.576Z</time></trkpt><trkpt lat="37.9654933" lon="16.102665"><ele>12.0</ele><time>2026-04-04T13:24:42.576Z</time></trkpt><trkpt lat="37.9654017" lon="16.1025917"><ele>12.0</ele><time>2026-04-04T13:24:44.576Z</time></trkpt><trkpt lat="37.9652933" lon="16.1025083"><ele>12.0</ele><time>2026-04-04T13:24:46.576Z</time></trkpt><trkpt lat="37.965175" lon="16.10243"><ele>12.0</ele><time>2026-04-04T13:24:48.577Z</time></trkpt><trkpt lat="37.9650917" lon="16.102375"><ele>12.0</ele><time>2026-04-04T13:24:49.576Z</time></trkpt><trkpt lat="37.964995" lon="16.1022983"><ele>12.25</ele><time>2026-04-04T13:24:50.576Z</time></trkpt><trkpt lat="37.964895" lon="16.102225"><ele>12.5</ele><time>2026-04-04T13:24:51.576Z</time></trkpt><trkpt lat="37.96479" lon="16.10215"><ele>12.75</ele><time>2026-04-04T13:24:52.576Z</time></trkpt><trkpt lat="37.9646717" lon="16.10207"><ele>13.0</ele><time>2026-04-04T13:24:53.576Z</time></trkpt><trkpt lat="37.9645483" lon="16.1019867"><ele>13.0</ele><time>2026-04-04T13:24:54.576Z</time></trkpt><trkpt lat="37.9644217" lon="16.1019"><ele>13.0</ele><time>2026-04-04T13:24:55.576Z</time></trkpt><trkpt lat="37.9642983" lon="16.1018133"><ele>13.0</ele><time>2026-04-04T13:24:56.577Z</time></trkpt><trkpt lat="37.9641683" lon="16.1017317"><ele>13.0</ele><time>2026-04-04T13:24:57.578Z</time></trkpt><trkpt lat="37.9640383" lon="16.101625"><ele>15.333333333333332</ele><time>2026-04-04T13:24:58.577Z</time></trkpt><trkpt lat="37.9639017" lon="16.101525"><ele>17.666666666666668</ele><time>2026-04-04T13:24:59.577Z</time></trkpt><trkpt lat="37.963765" lon="16.1014333"><ele>20.0</ele><time>2026-04-04T13:25:00.578Z</time></trkpt><trkpt lat="37.963625" lon="16.1013283"><ele>20.0</ele><time>2026-04-04T13:25:01.577Z</time></trkpt><trkpt lat="37.96348" lon="16.1012367"><ele>20.0</ele><time>2026-04-04T13:25:02.577Z</time></trkpt><trkpt lat="37.963355" lon="16.1011367"><ele>20.0</ele><time>2026-04-04T13:25:03.577Z</time></trkpt><trkpt lat="37.963235" lon="16.1010483"><ele>20.0</ele><time>2026-04-04T13:25:04.578Z</time></trkpt><trkpt lat="37.9631283" lon="16.1009583"><ele>19.166666666666668</ele><time>2026-04-04T13:25:05.577Z</time></trkpt><trkpt lat="37.963035" lon="16.10089"><ele>18.333333333333336</ele><time>2026-04-04T13:25:06.577Z</time></trkpt><trkpt lat="37.9629617" lon="16.1008417"><ele>17.5</ele><time>2026-04-04T13:25:07.577Z</time></trkpt><trkpt lat="37.9629117" lon="16.1007917"><ele>16.666666666666668</ele><time>2026-04-04T13:25:08.577Z</time></trkpt><trkpt lat="37.96284" lon="16.100735"><ele>15.833333333333334</ele><time>2026-04-04T13:25:10.577Z</time></trkpt><trkpt lat="37.962745" lon="16.1006883"><ele>15.0</ele><time>2026-04-04T13:27:09.577Z</time></trkpt><trkpt lat="37.9626917" lon="16.10064"><ele>15.8</ele><time>2026-04-04T13:27:11.577Z</time></trkpt><trkpt lat="37.96262" lon="16.10056"><ele>16.6</ele><time>2026-04-04T13:27:13.577Z</time></trkpt><trkpt lat="37.9625317" lon="16.100475"><ele>17.4</ele><time>2026-04-04T13:27:15.578Z</time></trkpt><trkpt lat="37.962475" lon="16.1004117"><ele>18.2</ele><time>2026-04-04T13:27:16.577Z</time></trkpt><trkpt lat="37.9624083" lon="16.1003533"><ele>19.0</ele><time>2026-04-04T13:27:17.577Z</time></trkpt><trkpt lat="37.9623317" lon="16.1002967"><ele>19.0</ele><time>2026-04-04T13:27:18.577Z</time></trkpt><trkpt lat="37.9622633" lon="16.100235"><ele>19.0</ele><time>2026-04-04T13:27:19.577Z</time></trkpt><trkpt lat="37.9621933" lon="16.1001817"><ele>19.0</ele><time>2026-04-04T13:27:20.578Z</time></trkpt><trkpt lat="37.962125" lon="16.1001217"><ele>19.0</ele><time>2026-04-04T13:27:21.578Z</time></trkpt><trkpt lat="37.9620633" lon="16.1000733"><ele>19.0</ele><time>2026-04-04T13:27:22.577Z</time></trkpt><trkpt lat="37.9619533" lon="16.0999883"><ele>19.0</ele><time>2026-04-04T13:27:24.577Z</time></trkpt><trkpt lat="37.9619" lon="16.0999333"><ele>19.0</ele><time>2026-04-04T13:27:25.577Z</time></trkpt><trkpt lat="37.9618467" lon="16.0998867"><ele>19.0</ele><time>2026-04-04T13:27:26.577Z</time></trkpt><trkpt lat="37.9617883" lon="16.09984"><ele>19.0</ele><time>2026-04-04T13:27:27.577Z</time></trkpt><trkpt lat="37.9617233" lon="16.0997833"><ele>19.0</ele><time>2026-04-04T13:27:28.578Z</time></trkpt><trkpt lat="37.9616583" lon="16.0997233"><ele>19.0</ele><time>2026-04-04T13:27:29.577Z</time></trkpt><trkpt lat="37.9615867" lon="16.099655"><ele>18.8</ele><time>2026-04-04T13:27:30.577Z</time></trkpt><trkpt lat="37.9615133" lon="16.0995867"><ele>18.599999999999998</ele><time>2026-04-04T13:27:31.578Z</time></trkpt><trkpt lat="37.9614267" lon="16.0995217"><ele>18.4</ele><time>2026-04-04T13:27:32.577Z</time></trkpt><trkpt lat="37.96135" lon="16.099455"><ele>18.2</ele><time>2026-04-04T13:27:33.577Z</time></trkpt><trkpt lat="37.9612733" lon="16.0993967"><ele>18.0</ele><time>2026-04-04T13:27:34.577Z</time></trkpt><trkpt lat="37.9611967" lon="16.0993367"><ele>18.0</ele><time>2026-04-04T13:27:35.578Z</time></trkpt><trkpt lat="37.9611217" lon="16.099285"><ele>18.0</ele><time>2026-04-04T13:27:36.578Z</time></trkpt><trkpt lat="37.9610517" lon="16.0992283"><ele>18.0</ele><time>2026-04-04T13:27:37.578Z</time></trkpt><trkpt lat="37.96098" lon="16.0991617"><ele>18.0</ele><time>2026-04-04T13:27:38.577Z</time></trkpt><trkpt lat="37.960895" lon="16.0991"><ele>18.0</ele><time>2026-04-04T13:27:39.577Z</time></trkpt><trkpt lat="37.9608083" lon="16.0990217"><ele>17.25</ele><time>2026-04-04T13:27:40.577Z</time></trkpt><trkpt lat="37.9607117" lon="16.0989467"><ele>16.5</ele><time>2026-04-04T13:27:41.578Z</time></trkpt><trkpt lat="37.9606217" lon="16.0988617"><ele>15.75</ele><time>2026-04-04T13:27:42.578Z</time></trkpt><trkpt lat="37.9605283" lon="16.0987767"><ele>15.0</ele><time>2026-04-04T13:27:43.577Z</time></trkpt><trkpt lat="37.9604367" lon="16.0986917"><ele>15.0</ele><time>2026-04-04T13:27:44.577Z</time></trkpt><trkpt lat="37.9603467" lon="16.0986217"><ele>15.0</ele><time>2026-04-04T13:27:45.577Z</time></trkpt><trkpt lat="37.9602617" lon="16.0985583"><ele>15.0</ele><time>2026-04-04T13:27:46.577Z</time></trkpt><trkpt lat="37.9601733" lon="16.098485"><ele>15.0</ele><time>2026-04-04T13:27:47.577Z</time></trkpt><trkpt lat="37.9600883" lon="16.0984083"><ele>15.0</ele><time>2026-04-04T13:27:48.578Z</time></trkpt><trkpt lat="37.9600017" lon="16.0983283"><ele>14.4</ele><time>2026-04-04T13:27:49.578Z</time></trkpt><trkpt lat="37.95992" lon="16.0982583"><ele>13.8</ele><time>2026-04-04T13:27:50.577Z</time></trkpt><trkpt lat="37.9598367" lon="16.0981833"><ele>13.2</ele><time>2026-04-04T13:27:51.577Z</time></trkpt><trkpt lat="37.95975" lon="16.098105"><ele>12.6</ele><time>2026-04-04T13:27:52.577Z</time></trkpt><trkpt lat="37.9596667" lon="16.0980183"><ele>12.0</ele><time>2026-04-04T13:27:53.578Z</time></trkpt><trkpt lat="37.9595717" lon="16.09793"><ele>12.0</ele><time>2026-04-04T13:27:54.577Z</time></trkpt><trkpt lat="37.9594667" lon="16.0978333"><ele>12.0</ele><time>2026-04-04T13:27:55.577Z</time></trkpt><trkpt lat="37.9593617" lon="16.0977317"><ele>12.0</ele><time>2026-04-04T13:27:56.577Z</time></trkpt><trkpt lat="37.959255" lon="16.0976167"><ele>12.0</ele><time>2026-04-04T13:27:57.578Z</time></trkpt><trkpt lat="37.9591383" lon="16.0974933"><ele>11.666666666666666</ele><time>2026-04-04T13:27:58.578Z</time></trkpt><trkpt lat="37.959025" lon="16.097345"><ele>11.333333333333332</ele><time>2026-04-04T13:27:59.577Z</time></trkpt><trkpt lat="37.9588933" lon="16.0972117"><ele>11.0</ele><time>2026-04-04T13:28:00.578Z</time></trkpt><trkpt lat="37.958765" lon="16.0970783"><ele>11.0</ele><time>2026-04-04T13:28:01.577Z</time></trkpt><trkpt lat="37.958635" lon="16.0969433"><ele>11.0</ele><time>2026-04-04T13:28:02.578Z</time></trkpt><trkpt lat="37.9585083" lon="16.09681"><ele>11.0</ele><time>2026-04-04T13:28:03.578Z</time></trkpt><trkpt lat="37.9583867" lon="16.096675"><ele>13.0</ele><time>2026-04-04T13:28:04.577Z</time></trkpt><trkpt lat="37.9582567" lon="16.09654"><ele>15.0</ele><time>2026-04-04T13:28:05.577Z</time></trkpt><trkpt lat="37.9581317" lon="16.0963967"><ele>17.0</ele><time>2026-04-04T13:28:06.577Z</time></trkpt><trkpt lat="37.9580267" lon="16.0962417"><ele>17.0</ele><time>2026-04-04T13:28:07.578Z</time></trkpt><trkpt lat="37.95791" lon="16.0961117"><ele>17.0</ele><time>2026-04-04T13:28:08.577Z</time></trkpt><trkpt lat="37.95779" lon="16.0959717"><ele>17.0</ele><time>2026-04-04T13:28:09.577Z</time></trkpt><trkpt lat="37.9576717" lon="16.09583"><ele>17.0</ele><time>2026-04-04T13:28:10.577Z</time></trkpt><trkpt lat="37.9575517" lon="16.095695"><ele>17.0</ele><time>2026-04-04T13:28:11.577Z</time></trkpt><trkpt lat="37.9574333" lon="16.0955433"><ele>17.0</ele><time>2026-04-04T13:28:12.577Z</time></trkpt><trkpt lat="37.9573017" lon="16.0954183"><ele>17.0</ele><time>2026-04-04T13:28:13.578Z</time></trkpt><trkpt lat="37.9571717" lon="16.09528"><ele>17.0</ele><time>2026-04-04T13:28:14.577Z</time></trkpt><trkpt lat="37.95705" lon="16.095155"><ele>17.0</ele><time>2026-04-04T13:28:15.577Z</time></trkpt><trkpt lat="37.9569183" lon="16.0950083"><ele>18.333333333333336</ele><time>2026-04-04T13:28:16.577Z</time></trkpt><trkpt lat="37.9567967" lon="16.09485"><ele>19.666666666666668</ele><time>2026-04-04T13:28:17.577Z</time></trkpt><trkpt lat="37.9566667" lon="16.0947017"><ele>21.0</ele><time>2026-04-04T13:28:18.577Z</time></trkpt><trkpt lat="37.95654" lon="16.094555"><ele>18.333333333333332</ele><time>2026-04-04T13:28:19.577Z</time></trkpt><trkpt lat="37.9564083" lon="16.0944017"><ele>15.666666666666666</ele><time>2026-04-04T13:28:20.577Z</time></trkpt><trkpt lat="37.95627" lon="16.0942467"><ele>13.0</ele><time>2026-04-04T13:28:21.577Z</time></trkpt><trkpt lat="37.9561317" lon="16.0940933"><ele>12.0</ele><time>2026-04-04T13:28:22.578Z</time></trkpt><trkpt lat="37.9560033" lon="16.0939417"><ele>11.0</ele><time>2026-04-04T13:28:23.577Z</time></trkpt><trkpt lat="37.95587" lon="16.093785"><ele>10.0</ele><time>2026-04-04T13:28:24.577Z</time></trkpt><trkpt lat="37.95574" lon="16.0936283"><ele>10.0</ele><time>2026-04-04T13:28:25.577Z</time></trkpt><trkpt lat="37.955605" lon="16.0934767"><ele>10.0</ele><time>2026-04-04T13:28:26.577Z</time></trkpt><trkpt lat="37.95547" lon="16.0933117"><ele>10.0</ele><time>2026-04-04T13:28:27.578Z</time></trkpt><trkpt lat="37.955335" lon="16.0931583"><ele>10.0</ele><time>2026-04-04T13:28:28.577Z</time></trkpt><trkpt lat="37.9552017" lon="16.09301"><ele>10.0</ele><time>2026-04-04T13:28:29.577Z</time></trkpt><trkpt lat="37.9550717" lon="16.0928617"><ele>10.0</ele><time>2026-04-04T13:28:30.577Z</time></trkpt><trkpt lat="37.9549433" lon="16.092715"><ele>10.0</ele><time>2026-04-04T13:28:31.577Z</time></trkpt><trkpt lat="37.954815" lon="16.0925567"><ele>10.0</ele><time>2026-04-04T13:28:32.578Z</time></trkpt><trkpt lat="37.954685" lon="16.0924017"><ele>10.0</ele><time>2026-04-04T13:28:33.577Z</time></trkpt><trkpt lat="37.9545517" lon="16.092245"><ele>10.0</ele><time>2026-04-04T13:28:34.577Z</time></trkpt><trkpt lat="37.9544167" lon="16.0920917"><ele>10.0</ele><time>2026-04-04T13:28:35.577Z</time></trkpt><trkpt lat="37.9542867" lon="16.0919367"><ele>10.0</ele><time>2026-04-04T13:28:36.577Z</time></trkpt><trkpt lat="37.9541517" lon="16.0917817"><ele>10.0</ele><time>2026-04-04T13:28:37.577Z</time></trkpt><trkpt lat="37.9540167" lon="16.09162"><ele>10.0</ele><time>2026-04-04T13:28:38.577Z</time></trkpt><trkpt lat="37.9538817" lon="16.0914617"><ele>10.0</ele><time>2026-04-04T13:28:39.577Z</time></trkpt><trkpt lat="37.9537483" lon="16.091305"><ele>10.333333333333334</ele><time>2026-04-04T13:28:40.577Z</time></trkpt><trkpt lat="37.953615" lon="16.0911433"><ele>10.666666666666666</ele><time>2026-04-04T13:28:41.578Z</time></trkpt><trkpt lat="37.9534817" lon="16.0909817"><ele>11.0</ele><time>2026-04-04T13:28:42.577Z</time></trkpt><trkpt lat="37.9533417" lon="16.09082"><ele>13.0</ele><time>2026-04-04T13:28:43.577Z</time></trkpt><trkpt lat="37.9532017" lon="16.0906567"><ele>15.0</ele><time>2026-04-04T13:28:44.577Z</time></trkpt><trkpt lat="37.9530517" lon="16.0904933"><ele>17.0</ele><time>2026-04-04T13:28:45.577Z</time></trkpt><trkpt lat="37.952905" lon="16.0903333"><ele>17.0</ele><time>2026-04-04T13:28:46.578Z</time></trkpt><trkpt lat="37.9527567" lon="16.09017"><ele>17.0</ele><time>2026-04-04T13:28:47.577Z</time></trkpt><trkpt lat="37.952605" lon="16.0900167"><ele>17.0</ele><time>2026-04-04T13:28:48.577Z</time></trkpt><trkpt lat="37.9524483" lon="16.089865"><ele>16.333333333333336</ele><time>2026-04-04T13:28:49.577Z</time></trkpt><trkpt lat="37.9522867" lon="16.08971"><ele>15.666666666666668</ele><time>2026-04-04T13:28:50.577Z</time></trkpt><trkpt lat="37.952125" lon="16.0895533"><ele>15.0</ele><time>2026-04-04T13:28:51.577Z</time></trkpt><trkpt lat="37.951965" lon="16.089405"><ele>15.0</ele><time>2026-04-04T13:28:52.577Z</time></trkpt><trkpt lat="37.9517917" lon="16.0892533"><ele>15.0</ele><time>2026-04-04T13:28:53.578Z</time></trkpt><trkpt lat="37.9516217" lon="16.0891033"><ele>15.0</ele><time>2026-04-04T13:28:54.577Z</time></trkpt><trkpt lat="37.951455" lon="16.0889567"><ele>14.0</ele><time>2026-04-04T13:28:55.577Z</time></trkpt><trkpt lat="37.9512883" lon="16.0888133"><ele>13.0</ele><time>2026-04-04T13:28:56.578Z</time></trkpt><trkpt lat="37.9511283" lon="16.0886717"><ele>12.0</ele><time>2026-04-04T13:28:57.577Z</time></trkpt><trkpt lat="37.9509733" lon="16.0885417"><ele>12.0</ele><time>2026-04-04T13:28:58.577Z</time></trkpt><trkpt lat="37.9508133" lon="16.0884133"><ele>12.0</ele><time>2026-04-04T13:28:59.577Z</time></trkpt><trkpt lat="37.9506533" lon="16.0882867"><ele>12.0</ele><time>2026-04-04T13:29:00.577Z</time></trkpt><trkpt lat="37.950495" lon="16.0881533"><ele>11.0</ele><time>2026-04-04T13:29:01.577Z</time></trkpt><trkpt lat="37.9503267" lon="16.0880217"><ele>10.0</ele><time>2026-04-04T13:29:02.577Z</time></trkpt><trkpt lat="37.9501583" lon="16.0878833"><ele>9.0</ele><time>2026-04-04T13:29:03.578Z</time></trkpt><trkpt lat="37.95" lon="16.08775"><ele>9.0</ele><time>2026-04-04T13:29:04.577Z</time></trkpt><trkpt lat="37.9498433" lon="16.0876167"><ele>9.0</ele><time>2026-04-04T13:29:05.577Z</time></trkpt><trkpt lat="37.9496917" lon="16.087495"><ele>9.0</ele><time>2026-04-04T13:29:06.578Z</time></trkpt><trkpt lat="37.94954" lon="16.0873683"><ele>9.333333333333334</ele><time>2026-04-04T13:29:07.577Z</time></trkpt><trkpt lat="37.9493967" lon="16.0872367"><ele>9.666666666666668</ele><time>2026-04-04T13:29:08.577Z</time></trkpt><trkpt lat="37.9492367" lon="16.08711"><ele>10.0</ele><time>2026-04-04T13:29:09.577Z</time></trkpt><trkpt lat="37.9490683" lon="16.0869833"><ele>9.0</ele><time>2026-04-04T13:29:10.577Z</time></trkpt><trkpt lat="37.9489017" lon="16.086855"><ele>8.0</ele><time>2026-04-04T13:29:11.577Z</time></trkpt><trkpt lat="37.9487367" lon="16.0867233"><ele>7.0</ele><time>2026-04-04T13:29:12.577Z</time></trkpt><trkpt lat="37.9485683" lon="16.086595"><ele>7.333333333333334</ele><time>2026-04-04T13:29:13.577Z</time></trkpt><trkpt lat="37.9484017" lon="16.0864567"><ele>7.666666666666666</ele><time>2026-04-04T13:29:14.577Z</time></trkpt><trkpt lat="37.9482433" lon="16.0863183"><ele>8.0</ele><time>2026-04-04T13:29:15.577Z</time></trkpt><trkpt lat="37.9480783" lon="16.0861867"><ele>8.333333333333332</ele><time>2026-04-04T13:29:16.577Z</time></trkpt><trkpt lat="37.9479133" lon="16.08605"><ele>8.666666666666666</ele><time>2026-04-04T13:29:17.578Z</time></trkpt><trkpt lat="37.9477567" lon="16.08592"><ele>9.0</ele><time>2026-04-04T13:29:18.577Z</time></trkpt><trkpt lat="37.9475967" lon="16.0857933"><ele>9.0</ele><time>2026-04-04T13:29:19.577Z</time></trkpt><trkpt lat="37.9474433" lon="16.0856633"><ele>9.0</ele><time>2026-04-04T13:29:20.577Z</time></trkpt><trkpt lat="37.9472917" lon="16.0855383"><ele>9.0</ele><time>2026-04-04T13:29:21.577Z</time></trkpt><trkpt lat="37.9471383" lon="16.0854183"><ele>9.0</ele><time>2026-04-04T13:29:22.577Z</time></trkpt><trkpt lat="37.9469767" lon="16.0852933"><ele>9.0</ele><time>2026-04-04T13:29:23.577Z</time></trkpt><trkpt lat="37.9468233" lon="16.08516"><ele>9.0</ele><time>2026-04-04T13:29:24.577Z</time></trkpt><trkpt lat="37.946665" lon="16.0850233"><ele>9.0</ele><time>2026-04-04T13:29:25.577Z</time></trkpt><trkpt lat="37.9465083" lon="16.0849017"><ele>9.0</ele><time>2026-04-04T13:29:26.577Z</time></trkpt><trkpt lat="37.9463567" lon="16.08478"><ele>9.0</ele><time>2026-04-04T13:29:27.577Z</time></trkpt><trkpt lat="37.9462067" lon="16.0846483"><ele>9.0</ele><time>2026-04-04T13:29:28.577Z</time></trkpt><trkpt lat="37.9460583" lon="16.0845267"><ele>9.0</ele><time>2026-04-04T13:29:29.577Z</time></trkpt><trkpt lat="37.94591" lon="16.0844133"><ele>9.0</ele><time>2026-04-04T13:29:30.577Z</time></trkpt><trkpt lat="37.94576" lon="16.0843"><ele>9.0</ele><time>2026-04-04T13:29:31.577Z</time></trkpt><trkpt lat="37.94562" lon="16.084185"><ele>9.0</ele><time>2026-04-04T13:29:32.577Z</time></trkpt><trkpt lat="37.9454783" lon="16.0840667"><ele>9.0</ele><time>2026-04-04T13:29:33.577Z</time></trkpt><trkpt lat="37.945335" lon="16.0839583"><ele>9.0</ele><time>2026-04-04T13:29:34.577Z</time></trkpt><trkpt lat="37.9452" lon="16.0838383"><ele>9.0</ele><time>2026-04-04T13:29:35.577Z</time></trkpt><trkpt lat="37.9449" lon="16.083605"><ele>8.666666666666666</ele><time>2026-04-04T13:29:37.577Z</time></trkpt><trkpt lat="37.944755" lon="16.08349"><ele>8.333333333333332</ele><time>2026-04-04T13:29:38.577Z</time></trkpt><trkpt lat="37.9446067" lon="16.0833733"><ele>8.0</ele><time>2026-04-04T13:29:39.577Z</time></trkpt><trkpt lat="37.944475" lon="16.0832517"><ele>8.666666666666666</ele><time>2026-04-04T13:29:40.577Z</time></trkpt><trkpt lat="37.94433" lon="16.08312"><ele>9.333333333333334</ele><time>2026-04-04T13:29:41.577Z</time></trkpt><trkpt lat="37.94418" lon="16.0829933"><ele>10.0</ele><time>2026-04-04T13:29:42.577Z</time></trkpt><trkpt lat="37.9440367" lon="16.082845"><ele>10.0</ele><time>2026-04-04T13:29:43.577Z</time></trkpt><trkpt lat="37.9438883" lon="16.08268"><ele>10.0</ele><time>2026-04-04T13:29:44.578Z</time></trkpt><trkpt lat="37.94374" lon="16.082515"><ele>10.0</ele><time>2026-04-04T13:29:45.577Z</time></trkpt><trkpt lat="37.9436083" lon="16.0823333"><ele>11.0</ele><time>2026-04-04T13:29:46.577Z</time></trkpt><trkpt lat="37.9434733" lon="16.0821617"><ele>12.0</ele><time>2026-04-04T13:29:47.577Z</time></trkpt><trkpt lat="37.9433317" lon="16.0819883"><ele>13.0</ele><time>2026-04-04T13:29:48.577Z</time></trkpt><trkpt lat="37.9431917" lon="16.08181"><ele>12.666666666666666</ele><time>2026-04-04T13:29:49.578Z</time></trkpt><trkpt lat="37.9430567" lon="16.0816333"><ele>12.333333333333332</ele><time>2026-04-04T13:29:50.577Z</time></trkpt><trkpt lat="37.9429233" lon="16.0814617"><ele>12.0</ele><time>2026-04-04T13:29:51.577Z</time></trkpt><trkpt lat="37.942785" lon="16.0812967"><ele>12.0</ele><time>2026-04-04T13:29:52.577Z</time></trkpt><trkpt lat="37.9426483" lon="16.0811283"><ele>12.0</ele><time>2026-04-04T13:29:53.577Z</time></trkpt><trkpt lat="37.9425083" lon="16.08096"><ele>12.0</ele><time>2026-04-04T13:29:54.578Z</time></trkpt><trkpt lat="37.9423667" lon="16.0807933"><ele>11.333333333333334</ele><time>2026-04-04T13:29:55.577Z</time></trkpt><trkpt lat="37.9422283" lon="16.0806283"><ele>10.666666666666668</ele><time>2026-04-04T13:29:56.577Z</time></trkpt><trkpt lat="37.942095" lon="16.0804567"><ele>10.0</ele><time>2026-04-04T13:29:57.577Z</time></trkpt><trkpt lat="37.9419633" lon="16.0802817"><ele>10.0</ele><time>2026-04-04T13:29:58.577Z</time></trkpt><trkpt lat="37.94182" lon="16.0801067"><ele>10.0</ele><time>2026-04-04T13:29:59.578Z</time></trkpt><trkpt lat="37.9416733" lon="16.079935"><ele>10.0</ele><time>2026-04-04T13:30:00.578Z</time></trkpt><trkpt lat="37.941525" lon="16.07977"><ele>10.0</ele><time>2026-04-04T13:30:01.577Z</time></trkpt><trkpt lat="37.941375" lon="16.0796067"><ele>10.0</ele><time>2026-04-04T13:30:02.578Z</time></trkpt><trkpt lat="37.9412183" lon="16.0794433"><ele>10.0</ele><time>2026-04-04T13:30:03.577Z</time></trkpt><trkpt lat="37.9410633" lon="16.0792817"><ele>10.0</ele><time>2026-04-04T13:30:04.577Z</time></trkpt><trkpt lat="37.9409" lon="16.0791233"><ele>10.0</ele><time>2026-04-04T13:30:05.577Z</time></trkpt><trkpt lat="37.9407383" lon="16.078965"><ele>10.0</ele><time>2026-04-04T13:30:06.577Z</time></trkpt><trkpt lat="37.94057" lon="16.0788067"><ele>9.666666666666668</ele><time>2026-04-04T13:30:07.578Z</time></trkpt><trkpt lat="37.9404117" lon="16.0786567"><ele>9.333333333333334</ele><time>2026-04-04T13:30:08.578Z</time></trkpt><trkpt lat="37.9402517" lon="16.078505"><ele>9.0</ele><time>2026-04-04T13:30:09.577Z</time></trkpt><trkpt lat="37.9400983" lon="16.078355"><ele>9.666666666666666</ele><time>2026-04-04T13:30:10.577Z</time></trkpt><trkpt lat="37.9399583" lon="16.0782167"><ele>10.333333333333332</ele><time>2026-04-04T13:30:11.577Z</time></trkpt><trkpt lat="37.9398217" lon="16.0780883"><ele>11.0</ele><time>2026-04-04T13:30:12.578Z</time></trkpt><trkpt lat="37.9396833" lon="16.0779583"><ele>11.0</ele><time>2026-04-04T13:30:13.577Z</time></trkpt><trkpt lat="37.939545" lon="16.0778217"><ele>11.0</ele><time>2026-04-04T13:30:14.577Z</time></trkpt><trkpt lat="37.9394" lon="16.0776817"><ele>11.0</ele><time>2026-04-04T13:30:15.577Z</time></trkpt><trkpt lat="37.9392617" lon="16.07754"><ele>13.0</ele><time>2026-04-04T13:30:16.577Z</time></trkpt><trkpt lat="37.93912" lon="16.077405"><ele>15.0</ele><time>2026-04-04T13:30:17.577Z</time></trkpt><trkpt lat="37.9389783" lon="16.0772683"><ele>17.0</ele><time>2026-04-04T13:30:18.577Z</time></trkpt><trkpt lat="37.9388367" lon="16.0771217"><ele>17.0</ele><time>2026-04-04T13:30:19.578Z</time></trkpt><trkpt lat="37.9386933" lon="16.0769733"><ele>17.0</ele><time>2026-04-04T13:30:20.577Z</time></trkpt><trkpt lat="37.9385533" lon="16.07682"><ele>17.0</ele><time>2026-04-04T13:30:21.577Z</time></trkpt><trkpt lat="37.9384167" lon="16.0766483"><ele>15.666666666666668</ele><time>2026-04-04T13:30:22.577Z</time></trkpt><trkpt lat="37.9382867" lon="16.0764833"><ele>14.333333333333332</ele><time>2026-04-04T13:30:23.577Z</time></trkpt><trkpt lat="37.93816" lon="16.07631"><ele>13.0</ele><time>2026-04-04T13:30:24.577Z</time></trkpt><trkpt lat="37.9380283" lon="16.0761367"><ele>13.0</ele><time>2026-04-04T13:30:25.577Z</time></trkpt><trkpt lat="37.9378983" lon="16.0759633"><ele>13.0</ele><time>2026-04-04T13:30:26.578Z</time></trkpt><trkpt lat="37.9377667" lon="16.0757867"><ele>13.0</ele><time>2026-04-04T13:30:27.577Z</time></trkpt><trkpt lat="37.93764" lon="16.0756083"><ele>11.333333333333332</ele><time>2026-04-04T13:30:28.577Z</time></trkpt><trkpt lat="37.9374983" lon="16.0754333"><ele>9.666666666666666</ele><time>2026-04-04T13:30:29.578Z</time></trkpt><trkpt lat="37.9373617" lon="16.0752617"><ele>8.0</ele><time>2026-04-04T13:30:30.577Z</time></trkpt><trkpt lat="37.9372217" lon="16.0750867"><ele>10.333333333333332</ele><time>2026-04-04T13:30:31.577Z</time></trkpt><trkpt lat="37.9370917" lon="16.0749067"><ele>12.666666666666666</ele><time>2026-04-04T13:30:32.578Z</time></trkpt><trkpt lat="37.93696" lon="16.0747317"><ele>15.0</ele><time>2026-04-04T13:30:33.577Z</time></trkpt><trkpt lat="37.9368283" lon="16.0745517"><ele>14.0</ele><time>2026-04-04T13:30:34.577Z</time></trkpt><trkpt lat="37.9366867" lon="16.0743783"><ele>13.0</ele><time>2026-04-04T13:30:35.577Z</time></trkpt><trkpt lat="37.9365533" lon="16.0742067"><ele>12.0</ele><time>2026-04-04T13:30:36.577Z</time></trkpt><trkpt lat="37.9364217" lon="16.07404"><ele>12.0</ele><time>2026-04-04T13:30:37.577Z</time></trkpt><trkpt lat="37.936295" lon="16.0738667"><ele>12.0</ele><time>2026-04-04T13:30:38.577Z</time></trkpt><trkpt lat="37.9361667" lon="16.0736933"><ele>12.0</ele><time>2026-04-04T13:30:39.577Z</time></trkpt><trkpt lat="37.93604" lon="16.0735233"><ele>12.0</ele><time>2026-04-04T13:30:40.577Z</time></trkpt><trkpt lat="37.9359067" lon="16.07336"><ele>12.0</ele><time>2026-04-04T13:30:41.577Z</time></trkpt><trkpt lat="37.9357767" lon="16.073195"><ele>12.0</ele><time>2026-04-04T13:30:42.577Z</time></trkpt><trkpt lat="37.9356483" lon="16.0730333"><ele>11.333333333333334</ele><time>2026-04-04T13:30:43.577Z</time></trkpt><trkpt lat="37.9355283" lon="16.0728717"><ele>10.666666666666668</ele><time>2026-04-04T13:30:44.578Z</time></trkpt><trkpt lat="37.935395" lon="16.0727117"><ele>10.0</ele><time>2026-04-04T13:30:45.578Z</time></trkpt><trkpt lat="37.935265" lon="16.0725517"><ele>10.0</ele><time>2026-04-04T13:30:46.577Z</time></trkpt><trkpt lat="37.93514" lon="16.0723783"><ele>10.0</ele><time>2026-04-04T13:30:47.577Z</time></trkpt><trkpt lat="37.93501" lon="16.0722067"><ele>10.0</ele><time>2026-04-04T13:30:48.577Z</time></trkpt><trkpt lat="37.9348833" lon="16.0720367"><ele>10.0</ele><time>2026-04-04T13:30:49.577Z</time></trkpt><trkpt lat="37.93475" lon="16.07186"><ele>10.0</ele><time>2026-04-04T13:30:50.578Z</time></trkpt><trkpt lat="37.9346133" lon="16.0716833"><ele>10.0</ele><time>2026-04-04T13:30:51.577Z</time></trkpt><trkpt lat="37.93448" lon="16.071505"><ele>10.333333333333334</ele><time>2026-04-04T13:30:52.577Z</time></trkpt><trkpt lat="37.93434" lon="16.0713333"><ele>10.666666666666666</ele><time>2026-04-04T13:30:53.577Z</time></trkpt><trkpt lat="37.9342017" lon="16.0711617"><ele>11.0</ele><time>2026-04-04T13:30:54.578Z</time></trkpt><trkpt lat="37.934065" lon="16.0709883"><ele>11.333333333333332</ele><time>2026-04-04T13:30:55.577Z</time></trkpt><trkpt lat="37.93393" lon="16.0708183"><ele>11.666666666666666</ele><time>2026-04-04T13:30:56.577Z</time></trkpt><trkpt lat="37.9337883" lon="16.07065"><ele>12.0</ele><time>2026-04-04T13:30:57.577Z</time></trkpt><trkpt lat="37.9336467" lon="16.0704717"><ele>12.0</ele><time>2026-04-04T13:30:58.577Z</time></trkpt><trkpt lat="37.933505" lon="16.0702883"><ele>12.0</ele><time>2026-04-04T13:30:59.577Z</time></trkpt><trkpt lat="37.93336" lon="16.070105"><ele>12.0</ele><time>2026-04-04T13:31:00.578Z</time></trkpt><trkpt lat="37.9332167" lon="16.069915"><ele>11.333333333333334</ele><time>2026-04-04T13:31:01.577Z</time></trkpt><trkpt lat="37.9330733" lon="16.069725"><ele>10.666666666666668</ele><time>2026-04-04T13:31:02.578Z</time></trkpt><trkpt lat="37.932935" lon="16.0695417"><ele>10.0</ele><time>2026-04-04T13:31:03.577Z</time></trkpt><trkpt lat="37.9327933" lon="16.0693617"><ele>10.0</ele><time>2026-04-04T13:31:04.578Z</time></trkpt><trkpt lat="37.9326733" lon="16.069195"><ele>10.0</ele><time>2026-04-04T13:31:05.577Z</time></trkpt><trkpt lat="37.932545" lon="16.0690383"><ele>10.0</ele><time>2026-04-04T13:31:06.577Z</time></trkpt><trkpt lat="37.932425" lon="16.068885"><ele>10.333333333333334</ele><time>2026-04-04T13:31:07.577Z</time></trkpt><trkpt lat="37.9322983" lon="16.0687317"><ele>10.666666666666666</ele><time>2026-04-04T13:31:08.577Z</time></trkpt><trkpt lat="37.932185" lon="16.0685767"><ele>11.0</ele><time>2026-04-04T13:31:09.578Z</time></trkpt><trkpt lat="37.9320617" lon="16.0684167"><ele>11.333333333333332</ele><time>2026-04-04T13:31:10.577Z</time></trkpt><trkpt lat="37.93195" lon="16.0682517"><ele>11.666666666666666</ele><time>2026-04-04T13:31:11.578Z</time></trkpt><trkpt lat="37.9318217" lon="16.0681017"><ele>12.0</ele><time>2026-04-04T13:31:12.577Z</time></trkpt><trkpt lat="37.9316817" lon="16.0679483"><ele>12.0</ele><time>2026-04-04T13:31:13.577Z</time></trkpt><trkpt lat="37.93154" lon="16.067785"><ele>12.0</ele><time>2026-04-04T13:31:14.577Z</time></trkpt><trkpt lat="37.9313817" lon="16.0676567"><ele>12.0</ele><time>2026-04-04T13:31:15.577Z</time></trkpt><trkpt lat="37.9312367" lon="16.06752"><ele>13.666666666666668</ele><time>2026-04-04T13:31:16.577Z</time></trkpt><trkpt lat="37.9310917" lon="16.067405"><ele>15.333333333333334</ele><time>2026-04-04T13:31:17.578Z</time></trkpt><trkpt lat="37.930935" lon="16.0672933"><ele>17.0</ele><time>2026-04-04T13:31:18.578Z</time></trkpt><trkpt lat="37.93078" lon="16.0671867"><ele>17.0</ele><time>2026-04-04T13:31:19.577Z</time></trkpt><trkpt lat="37.93061" lon="16.0670867"><ele>17.0</ele><time>2026-04-04T13:31:20.577Z</time></trkpt><trkpt lat="37.9304483" lon="16.066985"><ele>17.0</ele><time>2026-04-04T13:31:21.577Z</time></trkpt><trkpt lat="37.9302883" lon="16.0668683"><ele>17.0</ele><time>2026-04-04T13:31:22.577Z</time></trkpt><trkpt lat="37.9301233" lon="16.0667583"><ele>17.0</ele><time>2026-04-04T13:31:23.577Z</time></trkpt><trkpt lat="37.9299583" lon="16.0666433"><ele>17.0</ele><time>2026-04-04T13:31:24.577Z</time></trkpt><trkpt lat="37.9297933" lon="16.0665283"><ele>19.0</ele><time>2026-04-04T13:31:25.577Z</time></trkpt><trkpt lat="37.9296217" lon="16.0664283"><ele>21.0</ele><time>2026-04-04T13:31:26.578Z</time></trkpt><trkpt lat="37.92945" lon="16.06632"><ele>23.0</ele><time>2026-04-04T13:31:27.577Z</time></trkpt><trkpt lat="37.9292833" lon="16.0662183"><ele>20.333333333333336</ele><time>2026-04-04T13:31:28.577Z</time></trkpt><trkpt lat="37.9291183" lon="16.0661183"><ele>17.666666666666668</ele><time>2026-04-04T13:31:29.577Z</time></trkpt><trkpt lat="37.92896" lon="16.0660067"><ele>15.0</ele><time>2026-04-04T13:31:30.578Z</time></trkpt><trkpt lat="37.9288" lon="16.0658967"><ele>15.0</ele><time>2026-04-04T13:31:31.577Z</time></trkpt><trkpt lat="37.9286417" lon="16.0657917"><ele>15.0</ele><time>2026-04-04T13:31:32.577Z</time></trkpt><trkpt lat="37.928485" lon="16.06568"><ele>15.0</ele><time>2026-04-04T13:31:33.577Z</time></trkpt><trkpt lat="37.9283383" lon="16.065575"><ele>16.75</ele><time>2026-04-04T13:31:34.577Z</time></trkpt><trkpt lat="37.9281967" lon="16.0654833"><ele>18.5</ele><time>2026-04-04T13:31:35.577Z</time></trkpt><trkpt lat="37.92807" lon="16.0653933"><ele>20.25</ele><time>2026-04-04T13:31:36.578Z</time></trkpt><trkpt lat="37.92795" lon="16.0653033"><ele>22.0</ele><time>2026-04-04T13:31:37.577Z</time></trkpt><trkpt lat="37.92784" lon="16.0652267"><ele>22.0</ele><time>2026-04-04T13:31:38.577Z</time></trkpt><trkpt lat="37.92774" lon="16.06515"><ele>22.0</ele><time>2026-04-04T13:31:39.578Z</time></trkpt><trkpt lat="37.9276517" lon="16.0650633"><ele>22.0</ele><time>2026-04-04T13:31:40.578Z</time></trkpt><trkpt lat="37.9275567" lon="16.065"><ele>22.0</ele><time>2026-04-04T13:31:41.577Z</time></trkpt><trkpt lat="37.9274583" lon="16.0649333"><ele>22.0</ele><time>2026-04-04T13:31:42.578Z</time></trkpt><trkpt lat="37.9273617" lon="16.0648233"><ele>19.5</ele><time>2026-04-04T13:31:43.577Z</time></trkpt><trkpt lat="37.92726" lon="16.0646833"><ele>17.0</ele><time>2026-04-04T13:31:44.577Z</time></trkpt><trkpt lat="37.9271583" lon="16.0645467"><ele>14.5</ele><time>2026-04-04T13:31:45.578Z</time></trkpt><trkpt lat="37.92706" lon="16.0644067"><ele>12.0</ele><time>2026-04-04T13:31:46.578Z</time></trkpt><trkpt lat="37.926965" lon="16.0642567"><ele>12.0</ele><time>2026-04-04T13:31:47.577Z</time></trkpt><trkpt lat="37.9268483" lon="16.064115"><ele>12.0</ele><time>2026-04-04T13:31:48.577Z</time></trkpt><trkpt lat="37.9267217" lon="16.0639717"><ele>12.0</ele><time>2026-04-04T13:31:49.577Z</time></trkpt><trkpt lat="37.9265867" lon="16.06383"><ele>9.666666666666666</ele><time>2026-04-04T13:31:50.577Z</time></trkpt><trkpt lat="37.9264417" lon="16.0636883"><ele>7.333333333333334</ele><time>2026-04-04T13:31:51.577Z</time></trkpt><trkpt lat="37.9263033" lon="16.0635383"><ele>5.0</ele><time>2026-04-04T13:31:52.578Z</time></trkpt><trkpt lat="37.92616" lon="16.0633833"><ele>5.666666666666667</ele><time>2026-04-04T13:31:53.577Z</time></trkpt><trkpt lat="37.9260217" lon="16.06321"><ele>6.333333333333334</ele><time>2026-04-04T13:31:54.577Z</time></trkpt><trkpt lat="37.9258967" lon="16.06303"><ele>7.0</ele><time>2026-04-04T13:31:55.577Z</time></trkpt><trkpt lat="37.925785" lon="16.0628283"><ele>7.0</ele><time>2026-04-04T13:31:56.577Z</time></trkpt><trkpt lat="37.9256917" lon="16.0626267"><ele>7.0</ele><time>2026-04-04T13:31:57.577Z</time></trkpt><trkpt lat="37.9255883" lon="16.062415"><ele>7.0</ele><time>2026-04-04T13:31:58.577Z</time></trkpt><trkpt lat="37.9255" lon="16.0622017"><ele>10.0</ele><time>2026-04-04T13:31:59.577Z</time></trkpt><trkpt lat="37.9254233" lon="16.06199"><ele>13.0</ele><time>2026-04-04T13:32:00.578Z</time></trkpt><trkpt lat="37.9253533" lon="16.0617567"><ele>16.0</ele><time>2026-04-04T13:32:01.577Z</time></trkpt><trkpt lat="37.9252917" lon="16.0615167"><ele>21.333333333333332</ele><time>2026-04-04T13:32:02.577Z</time></trkpt><trkpt lat="37.92524" lon="16.0612833"><ele>26.666666666666664</ele><time>2026-04-04T13:32:03.577Z</time></trkpt><trkpt lat="37.9251967" lon="16.0610333"><ele>32.0</ele><time>2026-04-04T13:32:04.578Z</time></trkpt><trkpt lat="37.9251683" lon="16.0607767"><ele>33.666666666666664</ele><time>2026-04-04T13:32:05.578Z</time></trkpt><trkpt lat="37.9251533" lon="16.06051"><ele>35.333333333333336</ele><time>2026-04-04T13:32:06.577Z</time></trkpt><trkpt lat="37.9251533" lon="16.06024"><ele>37.0</ele><time>2026-04-04T13:32:07.577Z</time></trkpt><trkpt lat="37.9251617" lon="16.0599683"><ele>40.0</ele><time>2026-04-04T13:32:08.577Z</time></trkpt><trkpt lat="37.92517" lon="16.0596933"><ele>43.0</ele><time>2026-04-04T13:32:09.577Z</time></trkpt><trkpt lat="37.9251633" lon="16.0594117"><ele>46.0</ele><time>2026-04-04T13:32:10.577Z</time></trkpt><trkpt lat="37.925145" lon="16.059135"><ele>47.0</ele><time>2026-04-04T13:32:11.577Z</time></trkpt><trkpt lat="37.92512" lon="16.05886"><ele>48.0</ele><time>2026-04-04T13:32:12.577Z</time></trkpt><trkpt lat="37.9250933" lon="16.0585833"><ele>49.0</ele><time>2026-04-04T13:32:13.577Z</time></trkpt><trkpt lat="37.9250683" lon="16.05831"><ele>39.0</ele><time>2026-04-04T13:32:14.577Z</time></trkpt><trkpt lat="37.92504" lon="16.058035"><ele>29.0</ele><time>2026-04-04T13:32:15.578Z</time></trkpt><trkpt lat="37.9250033" lon="16.0577517"><ele>19.0</ele><time>2026-04-04T13:32:16.577Z</time></trkpt><trkpt lat="37.9249717" lon="16.0574717"><ele>21.0</ele><time>2026-04-04T13:32:17.577Z</time></trkpt><trkpt lat="37.924945" lon="16.0571917"><ele>23.0</ele><time>2026-04-04T13:32:18.577Z</time></trkpt><trkpt lat="37.9248967" lon="16.0569083"><ele>23.0</ele><time>2026-04-04T13:32:19.577Z</time></trkpt><trkpt lat="37.924865" lon="16.0566383"><ele>23.0</ele><time>2026-04-04T13:32:20.578Z</time></trkpt><trkpt lat="37.9248383" lon="16.0563633"><ele>23.0</ele><time>2026-04-04T13:32:21.577Z</time></trkpt><trkpt lat="37.924805" lon="16.056085"><ele>25.333333333333336</ele><time>2026-04-04T13:32:22.577Z</time></trkpt><trkpt lat="37.9247733" lon="16.0558117"><ele>27.666666666666668</ele><time>2026-04-04T13:32:23.577Z</time></trkpt><trkpt lat="37.924755" lon="16.0555383"><ele>30.0</ele><time>2026-04-04T13:32:24.577Z</time></trkpt><trkpt lat="37.9247333" lon="16.0552567"><ele>30.0</ele><time>2026-04-04T13:32:25.577Z</time></trkpt><trkpt lat="37.9247133" lon="16.0549767"><ele>30.0</ele><time>2026-04-04T13:32:26.577Z</time></trkpt><trkpt lat="37.9247017" lon="16.0547017"><ele>30.0</ele><time>2026-04-04T13:32:27.577Z</time></trkpt><trkpt lat="37.9246833" lon="16.0544317"><ele>26.333333333333332</ele><time>2026-04-04T13:32:28.577Z</time></trkpt><trkpt lat="37.9246567" lon="16.0541633"><ele>22.666666666666664</ele><time>2026-04-04T13:32:29.577Z</time></trkpt><trkpt lat="37.9246367" lon="16.0538933"><ele>19.0</ele><time>2026-04-04T13:32:30.577Z</time></trkpt><trkpt lat="37.9246083" lon="16.0536267"><ele>18.666666666666664</ele><time>2026-04-04T13:32:31.578Z</time></trkpt><trkpt lat="37.924575" lon="16.0533567"><ele>18.333333333333332</ele><time>2026-04-04T13:32:32.577Z</time></trkpt><trkpt lat="37.9245333" lon="16.0530867"><ele>18.0</ele><time>2026-04-04T13:32:33.577Z</time></trkpt><trkpt lat="37.92449" lon="16.0528183"><ele>18.0</ele><time>2026-04-04T13:32:34.577Z</time></trkpt><trkpt lat="37.9244533" lon="16.05255"><ele>18.0</ele><time>2026-04-04T13:32:35.577Z</time></trkpt><trkpt lat="37.924425" lon="16.0522783"><ele>18.0</ele><time>2026-04-04T13:32:36.577Z</time></trkpt><trkpt lat="37.924405" lon="16.05202"><ele>19.333333333333332</ele><time>2026-04-04T13:32:37.577Z</time></trkpt><trkpt lat="37.924395" lon="16.0517567"><ele>20.666666666666664</ele><time>2026-04-04T13:32:38.578Z</time></trkpt><trkpt lat="37.9243883" lon="16.0514867"><ele>22.0</ele><time>2026-04-04T13:32:39.577Z</time></trkpt><trkpt lat="37.9243867" lon="16.0512217"><ele>22.0</ele><time>2026-04-04T13:32:40.577Z</time></trkpt><trkpt lat="37.9243867" lon="16.05096"><ele>22.0</ele><time>2026-04-04T13:32:41.577Z</time></trkpt><trkpt lat="37.9243917" lon="16.050695"><ele>22.0</ele><time>2026-04-04T13:32:42.577Z</time></trkpt><trkpt lat="37.924375" lon="16.05043"><ele>21.0</ele><time>2026-04-04T13:32:43.577Z</time></trkpt><trkpt lat="37.9243483" lon="16.0501617"><ele>20.0</ele><time>2026-04-04T13:32:44.577Z</time></trkpt><trkpt lat="37.924305" lon="16.0498983"><ele>19.0</ele><time>2026-04-04T13:32:45.577Z</time></trkpt><trkpt lat="37.92426" lon="16.0496367"><ele>16.333333333333332</ele><time>2026-04-04T13:32:46.578Z</time></trkpt><trkpt lat="37.92422" lon="16.0493717"><ele>13.666666666666666</ele><time>2026-04-04T13:32:47.577Z</time></trkpt><trkpt lat="37.9241767" lon="16.0491083"><ele>11.0</ele><time>2026-04-04T13:32:48.577Z</time></trkpt><trkpt lat="37.9241283" lon="16.0488517"><ele>11.0</ele><time>2026-04-04T13:32:49.577Z</time></trkpt><trkpt lat="37.92408" lon="16.0485917"><ele>11.0</ele><time>2026-04-04T13:32:50.577Z</time></trkpt><trkpt lat="37.92404" lon="16.0483317"><ele>11.0</ele><time>2026-04-04T13:32:51.577Z</time></trkpt><trkpt lat="37.9239983" lon="16.04807"><ele>12.333333333333332</ele><time>2026-04-04T13:32:52.578Z</time></trkpt><trkpt lat="37.92396" lon="16.0478217"><ele>13.666666666666666</ele><time>2026-04-04T13:32:53.577Z</time></trkpt><trkpt lat="37.9239183" lon="16.0475767"><ele>15.0</ele><time>2026-04-04T13:32:54.577Z</time></trkpt><trkpt lat="37.92388" lon="16.0473267"><ele>16.0</ele><time>2026-04-04T13:32:55.577Z</time></trkpt><trkpt lat="37.9238283" lon="16.0470733"><ele>17.0</ele><time>2026-04-04T13:32:56.577Z</time></trkpt><trkpt lat="37.9237583" lon="16.046835"><ele>18.0</ele><time>2026-04-04T13:32:57.577Z</time></trkpt><trkpt lat="37.9236733" lon="16.0466033"><ele>18.333333333333332</ele><time>2026-04-04T13:32:58.577Z</time></trkpt><trkpt lat="37.9235967" lon="16.0463867"><ele>18.666666666666664</ele><time>2026-04-04T13:32:59.577Z</time></trkpt><trkpt lat="37.923525" lon="16.046175"><ele>19.0</ele><time>2026-04-04T13:33:00.577Z</time></trkpt><trkpt lat="37.923445" lon="16.04596"><ele>17.0</ele><time>2026-04-04T13:33:01.577Z</time></trkpt><trkpt lat="37.9233733" lon="16.0457467"><ele>15.0</ele><time>2026-04-04T13:33:02.578Z</time></trkpt><trkpt lat="37.923305" lon="16.04554"><ele>13.0</ele><time>2026-04-04T13:33:03.577Z</time></trkpt><trkpt lat="37.923235" lon="16.045335"><ele>13.0</ele><time>2026-04-04T13:33:04.577Z</time></trkpt><trkpt lat="37.9231883" lon="16.045145"><ele>13.0</ele><time>2026-04-04T13:33:05.577Z</time></trkpt><trkpt lat="37.92315" lon="16.044955"><ele>13.0</ele><time>2026-04-04T13:33:06.577Z</time></trkpt><trkpt lat="37.9231367" lon="16.044765"><ele>11.666666666666666</ele><time>2026-04-04T13:33:07.577Z</time></trkpt><trkpt lat="37.92315" lon="16.04456"><ele>10.333333333333332</ele><time>2026-04-04T13:33:08.578Z</time></trkpt><trkpt lat="37.9231733" lon="16.0443517"><ele>9.0</ele><time>2026-04-04T13:33:09.577Z</time></trkpt><trkpt lat="37.9231867" lon="16.0441367"><ele>9.0</ele><time>2026-04-04T13:33:10.577Z</time></trkpt><trkpt lat="37.9232067" lon="16.0439133"><ele>9.0</ele><time>2026-04-04T13:33:11.577Z</time></trkpt><trkpt lat="37.9232283" lon="16.0437"><ele>9.0</ele><time>2026-04-04T13:33:12.577Z</time></trkpt><trkpt lat="37.92325" lon="16.0434983"><ele>9.0</ele><time>2026-04-04T13:33:13.577Z</time></trkpt><trkpt lat="37.9232683" lon="16.043315"><ele>9.0</ele><time>2026-04-04T13:33:14.577Z</time></trkpt><trkpt lat="37.9232833" lon="16.043135"><ele>9.0</ele><time>2026-04-04T13:33:15.577Z</time></trkpt><trkpt lat="37.92329" lon="16.0429617"><ele>9.0</ele><time>2026-04-04T13:33:16.577Z</time></trkpt><trkpt lat="37.9233067" lon="16.0427833"><ele>9.0</ele><time>2026-04-04T13:33:17.577Z</time></trkpt><trkpt lat="37.923335" lon="16.0425967"><ele>9.0</ele><time>2026-04-04T13:33:18.577Z</time></trkpt><trkpt lat="37.923385" lon="16.0424133"><ele>9.0</ele><time>2026-04-04T13:33:19.577Z</time></trkpt><trkpt lat="37.92345" lon="16.0422317"><ele>11.0</ele><time>2026-04-04T13:33:20.578Z</time></trkpt><trkpt lat="37.9235217" lon="16.0420567"><ele>13.0</ele><time>2026-04-04T13:33:21.577Z</time></trkpt><trkpt lat="37.9236017" lon="16.04189"><ele>15.0</ele><time>2026-04-04T13:33:22.577Z</time></trkpt><trkpt lat="37.9236867" lon="16.0417183"><ele>14.333333333333332</ele><time>2026-04-04T13:33:23.577Z</time></trkpt><trkpt lat="37.9237683" lon="16.04153"><ele>13.666666666666666</ele><time>2026-04-04T13:33:24.577Z</time></trkpt><trkpt lat="37.92385" lon="16.04135"><ele>13.0</ele><time>2026-04-04T13:33:25.578Z</time></trkpt><trkpt lat="37.92393" lon="16.0411583"><ele>13.0</ele><time>2026-04-04T13:33:26.577Z</time></trkpt><trkpt lat="37.92402" lon="16.040985"><ele>13.0</ele><time>2026-04-04T13:33:27.577Z</time></trkpt><trkpt lat="37.92411" lon="16.0407967"><ele>13.0</ele><time>2026-04-04T13:33:28.577Z</time></trkpt><trkpt lat="37.9241867" lon="16.0406117"><ele>15.333333333333332</ele><time>2026-04-04T13:33:29.578Z</time></trkpt><trkpt lat="37.924275" lon="16.04043"><ele>17.666666666666668</ele><time>2026-04-04T13:33:30.578Z</time></trkpt><trkpt lat="37.9243633" lon="16.040245"><ele>20.0</ele><time>2026-04-04T13:33:31.578Z</time></trkpt><trkpt lat="37.9244533" lon="16.04006"><ele>19.333333333333336</ele><time>2026-04-04T13:33:32.577Z</time></trkpt><trkpt lat="37.9245133" lon="16.0398683"><ele>18.666666666666668</ele><time>2026-04-04T13:33:33.577Z</time></trkpt><trkpt lat="37.92455" lon="16.039665"><ele>18.0</ele><time>2026-04-04T13:33:34.577Z</time></trkpt><trkpt lat="37.92456" lon="16.0394533"><ele>18.0</ele><time>2026-04-04T13:33:35.577Z</time></trkpt><trkpt lat="37.9245883" lon="16.0392383"><ele>18.0</ele><time>2026-04-04T13:33:36.577Z</time></trkpt><trkpt lat="37.9246183" lon="16.0390333"><ele>18.0</ele><time>2026-04-04T13:33:37.577Z</time></trkpt><trkpt lat="37.9246333" lon="16.0388083"><ele>16.666666666666668</ele><time>2026-04-04T13:33:38.577Z</time></trkpt><trkpt lat="37.9246417" lon="16.0385933"><ele>15.333333333333334</ele><time>2026-04-04T13:33:39.578Z</time></trkpt><trkpt lat="37.9246667" lon="16.038385"><ele>14.0</ele><time>2026-04-04T13:33:40.578Z</time></trkpt><trkpt lat="37.92469" lon="16.0381783"><ele>14.0</ele><time>2026-04-04T13:33:41.577Z</time></trkpt><trkpt lat="37.9247167" lon="16.03797"><ele>14.0</ele><time>2026-04-04T13:33:42.578Z</time></trkpt><trkpt lat="37.9247283" lon="16.0377633"><ele>14.0</ele><time>2026-04-04T13:33:43.577Z</time></trkpt><trkpt lat="37.9247467" lon="16.0375583"><ele>13.666666666666668</ele><time>2026-04-04T13:33:44.578Z</time></trkpt><trkpt lat="37.924765" lon="16.03736"><ele>13.333333333333332</ele><time>2026-04-04T13:33:45.577Z</time></trkpt><trkpt lat="37.9247867" lon="16.0371633"><ele>13.0</ele><time>2026-04-04T13:33:46.577Z</time></trkpt><trkpt lat="37.92481" lon="16.036965"><ele>13.0</ele><time>2026-04-04T13:33:47.577Z</time></trkpt><trkpt lat="37.9248283" lon="16.036765"><ele>13.0</ele><time>2026-04-04T13:33:48.577Z</time></trkpt><trkpt lat="37.9248517" lon="16.0365683"><ele>13.0</ele><time>2026-04-04T13:33:49.578Z</time></trkpt><trkpt lat="37.92486" lon="16.0363733"><ele>13.333333333333332</ele><time>2026-04-04T13:33:50.577Z</time></trkpt><trkpt lat="37.9248717" lon="16.03618"><ele>13.666666666666668</ele><time>2026-04-04T13:33:51.578Z</time></trkpt><trkpt lat="37.924865" lon="16.0359817"><ele>14.0</ele><time>2026-04-04T13:33:52.578Z</time></trkpt><trkpt lat="37.92483" lon="16.0357917"><ele>17.333333333333336</ele><time>2026-04-04T13:33:53.577Z</time></trkpt><trkpt lat="37.9247833" lon="16.035605"><ele>20.666666666666668</ele><time>2026-04-04T13:33:54.577Z</time></trkpt><trkpt lat="37.9247333" lon="16.0354117"><ele>24.0</ele><time>2026-04-04T13:33:55.577Z</time></trkpt><trkpt lat="37.924675" lon="16.0352217"><ele>24.0</ele><time>2026-04-04T13:33:56.577Z</time></trkpt><trkpt lat="37.9246183" lon="16.03503"><ele>24.0</ele><time>2026-04-04T13:33:57.578Z</time></trkpt><trkpt lat="37.9245733" lon="16.0348183"><ele>24.0</ele><time>2026-04-04T13:33:58.577Z</time></trkpt><trkpt lat="37.92452" lon="16.0346183"><ele>25.333333333333336</ele><time>2026-04-04T13:33:59.577Z</time></trkpt><trkpt lat="37.924475" lon="16.0344033"><ele>26.666666666666668</ele><time>2026-04-04T13:34:00.577Z</time></trkpt><trkpt lat="37.9244283" lon="16.03419"><ele>28.0</ele><time>2026-04-04T13:34:01.577Z</time></trkpt><trkpt lat="37.924375" lon="16.0339717"><ele>28.0</ele><time>2026-04-04T13:34:02.577Z</time></trkpt><trkpt lat="37.924325" lon="16.03376"><ele>28.0</ele><time>2026-04-04T13:34:03.577Z</time></trkpt><trkpt lat="37.9242833" lon="16.03355"><ele>28.0</ele><time>2026-04-04T13:34:04.578Z</time></trkpt><trkpt lat="37.9242733" lon="16.03333"><ele>25.333333333333336</ele><time>2026-04-04T13:34:05.577Z</time></trkpt><trkpt lat="37.92427" lon="16.0331217"><ele>22.666666666666668</ele><time>2026-04-04T13:34:06.577Z</time></trkpt><trkpt lat="37.924285" lon="16.032915"><ele>20.0</ele><time>2026-04-04T13:34:07.577Z</time></trkpt><trkpt lat="37.9242783" lon="16.0326883"><ele>19.666666666666668</ele><time>2026-04-04T13:34:08.577Z</time></trkpt><trkpt lat="37.92427" lon="16.032455"><ele>19.333333333333332</ele><time>2026-04-04T13:34:09.578Z</time></trkpt><trkpt lat="37.924245" lon="16.032235"><ele>19.0</ele><time>2026-04-04T13:34:10.578Z</time></trkpt><trkpt lat="37.9242067" lon="16.0320133"><ele>17.0</ele><time>2026-04-04T13:34:11.577Z</time></trkpt><trkpt lat="37.924165" lon="16.0317833"><ele>15.0</ele><time>2026-04-04T13:34:12.577Z</time></trkpt><trkpt lat="37.9241267" lon="16.0315467"><ele>13.0</ele><time>2026-04-04T13:34:13.577Z</time></trkpt><trkpt lat="37.9240917" lon="16.03131"><ele>13.0</ele><time>2026-04-04T13:34:14.577Z</time></trkpt><trkpt lat="37.9240783" lon="16.031065"><ele>13.0</ele><time>2026-04-04T13:34:15.578Z</time></trkpt><trkpt lat="37.92406" lon="16.0308183"><ele>13.0</ele><time>2026-04-04T13:34:16.577Z</time></trkpt><trkpt lat="37.92404" lon="16.030565"><ele>13.0</ele><time>2026-04-04T13:34:17.577Z</time></trkpt><trkpt lat="37.9240167" lon="16.0303083"><ele>13.0</ele><time>2026-04-04T13:34:18.577Z</time></trkpt><trkpt lat="37.924" lon="16.0300483"><ele>13.0</ele><time>2026-04-04T13:34:19.578Z</time></trkpt><trkpt lat="37.9239867" lon="16.029795"><ele>13.333333333333332</ele><time>2026-04-04T13:34:20.577Z</time></trkpt><trkpt lat="37.92399" lon="16.029545"><ele>13.666666666666668</ele><time>2026-04-04T13:34:21.577Z</time></trkpt><trkpt lat="37.9240017" lon="16.029295"><ele>14.0</ele><time>2026-04-04T13:34:22.577Z</time></trkpt><trkpt lat="37.9240317" lon="16.0290567"><ele>14.333333333333334</ele><time>2026-04-04T13:34:23.577Z</time></trkpt><trkpt lat="37.9240667" lon="16.0288067"><ele>14.666666666666668</ele><time>2026-04-04T13:34:24.577Z</time></trkpt><trkpt lat="37.9240983" lon="16.0285683"><ele>15.0</ele><time>2026-04-04T13:34:25.577Z</time></trkpt><trkpt lat="37.9241317" lon="16.0283333"><ele>14.666666666666668</ele><time>2026-04-04T13:34:26.578Z</time></trkpt><trkpt lat="37.9241567" lon="16.028095"><ele>14.333333333333334</ele><time>2026-04-04T13:34:27.577Z</time></trkpt><trkpt lat="37.9241683" lon="16.02785"><ele>14.0</ele><time>2026-04-04T13:34:28.577Z</time></trkpt><trkpt lat="37.9241667" lon="16.027605"><ele>14.0</ele><time>2026-04-04T13:34:29.577Z</time></trkpt><trkpt lat="37.924165" lon="16.0273567"><ele>14.0</ele><time>2026-04-04T13:34:30.578Z</time></trkpt><trkpt lat="37.9241617" lon="16.02711"><ele>14.0</ele><time>2026-04-04T13:34:31.577Z</time></trkpt><trkpt lat="37.9241583" lon="16.0268683"><ele>13.333333333333334</ele><time>2026-04-04T13:34:32.577Z</time></trkpt><trkpt lat="37.9241583" lon="16.0266183"><ele>12.666666666666668</ele><time>2026-04-04T13:34:33.577Z</time></trkpt><trkpt lat="37.9241683" lon="16.0263717"><ele>12.0</ele><time>2026-04-04T13:34:34.577Z</time></trkpt><trkpt lat="37.924175" lon="16.0261233"><ele>12.0</ele><time>2026-04-04T13:34:35.577Z</time></trkpt><trkpt lat="37.9241883" lon="16.0258783"><ele>12.0</ele><time>2026-04-04T13:34:36.578Z</time></trkpt><trkpt lat="37.9241967" lon="16.02563"><ele>12.0</ele><time>2026-04-04T13:34:37.577Z</time></trkpt><trkpt lat="37.9241917" lon="16.0253767"><ele>11.666666666666666</ele><time>2026-04-04T13:34:38.577Z</time></trkpt><trkpt lat="37.9241767" lon="16.0251267"><ele>11.333333333333332</ele><time>2026-04-04T13:34:39.577Z</time></trkpt><trkpt lat="37.9241417" lon="16.0248867"><ele>11.0</ele><time>2026-04-04T13:34:40.577Z</time></trkpt><trkpt lat="37.92409" lon="16.02464"><ele>11.0</ele><time>2026-04-04T13:34:41.577Z</time></trkpt><trkpt lat="37.9240367" lon="16.0243933"><ele>11.0</ele><time>2026-04-04T13:34:42.578Z</time></trkpt><trkpt lat="37.9239817" lon="16.0241433"><ele>11.0</ele><time>2026-04-04T13:34:43.577Z</time></trkpt><trkpt lat="37.9239333" lon="16.0239033"><ele>12.333333333333332</ele><time>2026-04-04T13:34:44.577Z</time></trkpt><trkpt lat="37.9238783" lon="16.02366"><ele>13.666666666666666</ele><time>2026-04-04T13:34:45.577Z</time></trkpt><trkpt lat="37.9238283" lon="16.023415"><ele>15.0</ele><time>2026-04-04T13:34:46.577Z</time></trkpt><trkpt lat="37.9237783" lon="16.023155"><ele>15.333333333333332</ele><time>2026-04-04T13:34:47.577Z</time></trkpt><trkpt lat="37.9237283" lon="16.0229083"><ele>15.666666666666666</ele><time>2026-04-04T13:34:48.577Z</time></trkpt><trkpt lat="37.9236917" lon="16.022655"><ele>16.0</ele><time>2026-04-04T13:34:49.577Z</time></trkpt><trkpt lat="37.9236533" lon="16.0224083"><ele>16.0</ele><time>2026-04-04T13:34:50.577Z</time></trkpt><trkpt lat="37.9236117" lon="16.0221583"><ele>16.0</ele><time>2026-04-04T13:34:51.577Z</time></trkpt><trkpt lat="37.92357" lon="16.0219133"><ele>16.0</ele><time>2026-04-04T13:34:52.577Z</time></trkpt><trkpt lat="37.92353" lon="16.02166"><ele>14.666666666666666</ele><time>2026-04-04T13:34:53.577Z</time></trkpt><trkpt lat="37.9234867" lon="16.0214067"><ele>13.333333333333332</ele><time>2026-04-04T13:34:54.577Z</time></trkpt><trkpt lat="37.9234517" lon="16.02115"><ele>12.0</ele><time>2026-04-04T13:34:55.577Z</time></trkpt><trkpt lat="37.9234" lon="16.0208933"><ele>11.333333333333334</ele><time>2026-04-04T13:34:56.577Z</time></trkpt><trkpt lat="37.9233517" lon="16.0206333"><ele>10.666666666666668</ele><time>2026-04-04T13:34:57.577Z</time></trkpt><trkpt lat="37.9233033" lon="16.0203617"><ele>10.0</ele><time>2026-04-04T13:34:58.577Z</time></trkpt><trkpt lat="37.9232617" lon="16.0200883"><ele>10.0</ele><time>2026-04-04T13:34:59.578Z</time></trkpt><trkpt lat="37.9232217" lon="16.0198217"><ele>10.0</ele><time>2026-04-04T13:35:00.577Z</time></trkpt><trkpt lat="37.9231683" lon="16.019545"><ele>10.0</ele><time>2026-04-04T13:35:01.577Z</time></trkpt><trkpt lat="37.9231183" lon="16.0192767"><ele>11.333333333333334</ele><time>2026-04-04T13:35:02.577Z</time></trkpt><trkpt lat="37.923065" lon="16.0190017"><ele>12.666666666666668</ele><time>2026-04-04T13:35:03.577Z</time></trkpt><trkpt lat="37.9230133" lon="16.01873"><ele>14.0</ele><time>2026-04-04T13:35:04.577Z</time></trkpt><trkpt lat="37.9229667" lon="16.0184733"><ele>14.666666666666668</ele><time>2026-04-04T13:35:05.577Z</time></trkpt><trkpt lat="37.92292" lon="16.0182183"><ele>15.333333333333332</ele><time>2026-04-04T13:35:06.577Z</time></trkpt><trkpt lat="37.9228767" lon="16.0179633"><ele>16.0</ele><time>2026-04-04T13:35:07.577Z</time></trkpt><trkpt lat="37.9228233" lon="16.0177133"><ele>16.0</ele><time>2026-04-04T13:35:08.577Z</time></trkpt><trkpt lat="37.92277" lon="16.0174583"><ele>16.0</ele><time>2026-04-04T13:35:09.577Z</time></trkpt><trkpt lat="37.92272" lon="16.0172083"><ele>16.0</ele><time>2026-04-04T13:35:10.578Z</time></trkpt><trkpt lat="37.92267" lon="16.016955"><ele>16.0</ele><time>2026-04-04T13:35:11.578Z</time></trkpt><trkpt lat="37.9226267" lon="16.0167067"><ele>16.0</ele><time>2026-04-04T13:35:12.578Z</time></trkpt><trkpt lat="37.9225783" lon="16.01646"><ele>16.0</ele><time>2026-04-04T13:35:13.577Z</time></trkpt><trkpt lat="37.9225317" lon="16.016215"><ele>14.333333333333332</ele><time>2026-04-04T13:35:14.578Z</time></trkpt><trkpt lat="37.9224933" lon="16.0159683"><ele>12.666666666666666</ele><time>2026-04-04T13:35:15.577Z</time></trkpt><trkpt lat="37.9224433" lon="16.0157233"><ele>11.0</ele><time>2026-04-04T13:35:16.578Z</time></trkpt><trkpt lat="37.9223883" lon="16.0154917"><ele>11.0</ele><time>2026-04-04T13:35:17.577Z</time></trkpt><trkpt lat="37.92234" lon="16.01528"><ele>11.0</ele><time>2026-04-04T13:35:18.577Z</time></trkpt><trkpt lat="37.9222883" lon="16.0151017"><ele>11.0</ele><time>2026-04-04T13:35:19.577Z</time></trkpt><trkpt lat="37.9222367" lon="16.0149183"><ele>11.5</ele><time>2026-04-04T13:35:20.578Z</time></trkpt><trkpt lat="37.9221867" lon="16.0147467"><ele>12.0</ele><time>2026-04-04T13:35:21.578Z</time></trkpt><trkpt lat="37.9221483" lon="16.014585"><ele>12.5</ele><time>2026-04-04T13:35:22.577Z</time></trkpt><trkpt lat="37.9221217" lon="16.0144233"><ele>13.0</ele><time>2026-04-04T13:35:23.577Z</time></trkpt><trkpt lat="37.9220883" lon="16.0142533"><ele>13.0</ele><time>2026-04-04T13:35:24.577Z</time></trkpt><trkpt lat="37.9220483" lon="16.0140983"><ele>13.0</ele><time>2026-04-04T13:35:25.577Z</time></trkpt><trkpt lat="37.922015" lon="16.01394"><ele>13.0</ele><time>2026-04-04T13:35:26.577Z</time></trkpt><trkpt lat="37.9219967" lon="16.0137867"><ele>13.0</ele><time>2026-04-04T13:35:27.577Z</time></trkpt><trkpt lat="37.9219767" lon="16.01364"><ele>12.999999999999998</ele><time>2026-04-04T13:35:28.578Z</time></trkpt><trkpt lat="37.9219667" lon="16.013505"><ele>13.0</ele><time>2026-04-04T13:35:29.577Z</time></trkpt><trkpt lat="37.92196" lon="16.0133783"><ele>13.0</ele><time>2026-04-04T13:35:30.577Z</time></trkpt><trkpt lat="37.9219583" lon="16.01327"><ele>13.0</ele><time>2026-04-04T13:35:31.577Z</time></trkpt><trkpt lat="37.9219717" lon="16.013175"><ele>12.999999999999998</ele><time>2026-04-04T13:35:32.577Z</time></trkpt><trkpt lat="37.9219983" lon="16.0130833"><ele>13.0</ele><time>2026-04-04T13:35:33.577Z</time></trkpt><trkpt lat="37.922015" lon="16.0129317"><ele>13.2</ele><time>2026-04-04T13:35:35.577Z</time></trkpt><trkpt lat="37.9219583" lon="16.0128167"><ele>13.4</ele><time>2026-04-04T13:35:37.578Z</time></trkpt><trkpt lat="37.9218433" lon="16.01275"><ele>13.599999999999998</ele><time>2026-04-04T13:35:39.577Z</time></trkpt><trkpt lat="37.9217717" lon="16.0127"><ele>13.799999999999999</ele><time>2026-04-04T13:35:40.577Z</time></trkpt><trkpt lat="37.9216867" lon="16.0126267"><ele>14.0</ele><time>2026-04-04T13:35:41.577Z</time></trkpt><trkpt lat="37.9216" lon="16.012535"><ele>12.666666666666668</ele><time>2026-04-04T13:35:42.578Z</time></trkpt><trkpt lat="37.9215" lon="16.0124083"><ele>11.333333333333334</ele><time>2026-04-04T13:35:43.577Z</time></trkpt><trkpt lat="37.9214067" lon="16.0122483"><ele>10.0</ele><time>2026-04-04T13:35:44.577Z</time></trkpt><trkpt lat="37.9212883" lon="16.01207"><ele>10.0</ele><time>2026-04-04T13:35:45.577Z</time></trkpt><trkpt lat="37.921165" lon="16.0118967"><ele>10.0</ele><time>2026-04-04T13:35:46.577Z</time></trkpt><trkpt lat="37.92104" lon="16.01174"><ele>10.0</ele><time>2026-04-04T13:35:47.577Z</time></trkpt><trkpt lat="37.920925" lon="16.0116017"><ele>9.25</ele><time>2026-04-04T13:35:48.578Z</time></trkpt><trkpt lat="37.9208183" lon="16.0114567"><ele>8.5</ele><time>2026-04-04T13:35:49.578Z</time></trkpt><trkpt lat="37.9207133" lon="16.011325"><ele>7.75</ele><time>2026-04-04T13:35:50.577Z</time></trkpt><trkpt lat="37.920625" lon="16.0111933"><ele>7.0</ele><time>2026-04-04T13:35:51.577Z</time></trkpt><trkpt lat="37.920555" lon="16.01106"><ele>7.0</ele><time>2026-04-04T13:35:52.577Z</time></trkpt><trkpt lat="37.9204967" lon="16.0109167"><ele>7.0</ele><time>2026-04-04T13:35:53.577Z</time></trkpt><trkpt lat="37.9204417" lon="16.010765"><ele>7.0</ele><time>2026-04-04T13:35:54.577Z</time></trkpt><trkpt lat="37.9203917" lon="16.010605"><ele>7.0</ele><time>2026-04-04T13:35:55.577Z</time></trkpt><trkpt lat="37.9203433" lon="16.0104217"><ele>8.0</ele><time>2026-04-04T13:35:56.578Z</time></trkpt><trkpt lat="37.9202883" lon="16.0102283"><ele>9.0</ele><time>2026-04-04T13:35:57.577Z</time></trkpt><trkpt lat="37.92024" lon="16.01002"><ele>10.0</ele><time>2026-04-04T13:35:58.577Z</time></trkpt><trkpt lat="37.9201867" lon="16.0098067"><ele>11.0</ele><time>2026-04-04T13:35:59.577Z</time></trkpt><trkpt lat="37.9201283" lon="16.0095833"><ele>12.0</ele><time>2026-04-04T13:36:00.577Z</time></trkpt><trkpt lat="37.9200783" lon="16.009345"><ele>13.0</ele><time>2026-04-04T13:36:01.578Z</time></trkpt><trkpt lat="37.9200333" lon="16.0090983"><ele>13.0</ele><time>2026-04-04T13:36:02.578Z</time></trkpt><trkpt lat="37.919985" lon="16.008855"><ele>13.0</ele><time>2026-04-04T13:36:03.577Z</time></trkpt><trkpt lat="37.91995" lon="16.0086017"><ele>13.0</ele><time>2026-04-04T13:36:04.577Z</time></trkpt><trkpt lat="37.919915" lon="16.008365"><ele>13.333333333333332</ele><time>2026-04-04T13:36:05.577Z</time></trkpt><trkpt lat="37.9198933" lon="16.0081133"><ele>13.666666666666668</ele><time>2026-04-04T13:36:06.577Z</time></trkpt><trkpt lat="37.9198517" lon="16.0078617"><ele>14.0</ele><time>2026-04-04T13:36:07.577Z</time></trkpt><trkpt lat="37.91981" lon="16.0076083"><ele>14.333333333333334</ele><time>2026-04-04T13:36:08.577Z</time></trkpt><trkpt lat="37.9197817" lon="16.0073483"><ele>14.666666666666668</ele><time>2026-04-04T13:36:09.577Z</time></trkpt><trkpt lat="37.9197467" lon="16.0071083"><ele>15.0</ele><time>2026-04-04T13:36:10.578Z</time></trkpt><trkpt lat="37.9197033" lon="16.0068633"><ele>15.333333333333332</ele><time>2026-04-04T13:36:11.577Z</time></trkpt><trkpt lat="37.9196633" lon="16.006625"><ele>15.666666666666666</ele><time>2026-04-04T13:36:12.577Z</time></trkpt><trkpt lat="37.9196283" lon="16.0063917"><ele>16.0</ele><time>2026-04-04T13:36:13.577Z</time></trkpt><trkpt lat="37.919595" lon="16.00615"><ele>16.0</ele><time>2026-04-04T13:36:14.578Z</time></trkpt><trkpt lat="37.919565" lon="16.0059083"><ele>16.0</ele><time>2026-04-04T13:36:15.577Z</time></trkpt><trkpt lat="37.9195267" lon="16.0056667"><ele>16.0</ele><time>2026-04-04T13:36:16.577Z</time></trkpt><trkpt lat="37.91948" lon="16.005415"><ele>16.666666666666664</ele><time>2026-04-04T13:36:17.577Z</time></trkpt><trkpt lat="37.9194317" lon="16.00517"><ele>17.333333333333332</ele><time>2026-04-04T13:36:18.577Z</time></trkpt><trkpt lat="37.91938" lon="16.0049317"><ele>18.0</ele><time>2026-04-04T13:36:19.577Z</time></trkpt><trkpt lat="37.91933" lon="16.0046933"><ele>16.666666666666668</ele><time>2026-04-04T13:36:20.578Z</time></trkpt><trkpt lat="37.9192833" lon="16.0044567"><ele>15.333333333333334</ele><time>2026-04-04T13:36:21.577Z</time></trkpt><trkpt lat="37.9192417" lon="16.0042267"><ele>14.0</ele><time>2026-04-04T13:36:22.577Z</time></trkpt><trkpt lat="37.9191983" lon="16.0040067"><ele>14.0</ele><time>2026-04-04T13:36:23.577Z</time></trkpt><trkpt lat="37.9191567" lon="16.0037917"><ele>14.0</ele><time>2026-04-04T13:36:24.578Z</time></trkpt><trkpt lat="37.919115" lon="16.0035783"><ele>14.0</ele><time>2026-04-04T13:36:25.578Z</time></trkpt><trkpt lat="37.919065" lon="16.003355"><ele>17.333333333333336</ele><time>2026-04-04T13:36:26.577Z</time></trkpt><trkpt lat="37.9190183" lon="16.0031333"><ele>20.666666666666668</ele><time>2026-04-04T13:36:27.577Z</time></trkpt><trkpt lat="37.91896" lon="16.002915"><ele>24.0</ele><time>2026-04-04T13:36:28.577Z</time></trkpt><trkpt lat="37.9188933" lon="16.0027017"><ele>30.333333333333336</ele><time>2026-04-04T13:36:29.577Z</time></trkpt><trkpt lat="37.9188117" lon="16.0024967"><ele>36.66666666666667</ele><time>2026-04-04T13:36:30.578Z</time></trkpt><trkpt lat="37.9187217" lon="16.0023033"><ele>43.0</ele><time>2026-04-04T13:36:31.577Z</time></trkpt><trkpt lat="37.9186267" lon="16.0021183"><ele>43.0</ele><time>2026-04-04T13:36:32.577Z</time></trkpt><trkpt lat="37.9185367" lon="16.0019283"><ele>43.0</ele><time>2026-04-04T13:36:33.577Z</time></trkpt><trkpt lat="37.9184417" lon="16.00174"><ele>43.0</ele><time>2026-04-04T13:36:34.577Z</time></trkpt><trkpt lat="37.9183417" lon="16.0015467"><ele>36.66666666666667</ele><time>2026-04-04T13:36:35.577Z</time></trkpt><trkpt lat="37.9182417" lon="16.00135"><ele>30.333333333333336</ele><time>2026-04-04T13:36:36.577Z</time></trkpt><trkpt lat="37.91815" lon="16.0011333"><ele>24.0</ele><time>2026-04-04T13:36:37.577Z</time></trkpt><trkpt lat="37.9180467" lon="16.000905"><ele>28.0</ele><time>2026-04-04T13:36:38.577Z</time></trkpt><trkpt lat="37.9179383" lon="16.0006817"><ele>32.0</ele><time>2026-04-04T13:36:39.578Z</time></trkpt><trkpt lat="37.91783" lon="16.00047"><ele>36.0</ele><time>2026-04-04T13:36:40.577Z</time></trkpt><trkpt lat="37.91773" lon="16.0002833"><ele>36.0</ele><time>2026-04-04T13:36:41.577Z</time></trkpt><trkpt lat="37.9176367" lon="16.0001017"><ele>36.0</ele><time>2026-04-04T13:36:42.577Z</time></trkpt><trkpt lat="37.917535" lon="15.9999283"><ele>36.0</ele><time>2026-04-04T13:36:43.577Z</time></trkpt><trkpt lat="37.917435" lon="15.9997933"><ele>31.0</ele><time>2026-04-04T13:36:44.577Z</time></trkpt><trkpt lat="37.917345" lon="15.999685"><ele>26.0</ele><time>2026-04-04T13:36:45.577Z</time></trkpt><trkpt lat="37.9172633" lon="15.9995733"><ele>21.0</ele><time>2026-04-04T13:36:46.577Z</time></trkpt><trkpt lat="37.9171867" lon="15.9994517"><ele>16.0</ele><time>2026-04-04T13:36:47.577Z</time></trkpt><trkpt lat="37.9171233" lon="15.999325"><ele>16.0</ele><time>2026-04-04T13:36:48.577Z</time></trkpt><trkpt lat="37.9170633" lon="15.9992067"><ele>16.0</ele><time>2026-04-04T13:36:49.577Z</time></trkpt><trkpt lat="37.9170017" lon="15.9991033"><ele>16.0</ele><time>2026-04-04T13:36:50.577Z</time></trkpt><trkpt lat="37.91692" lon="15.9990233"><ele>16.0</ele><time>2026-04-04T13:36:51.577Z</time></trkpt><trkpt lat="37.9168383" lon="15.998965"><ele>16.0</ele><time>2026-04-04T13:36:52.577Z</time></trkpt><trkpt lat="37.916755" lon="15.998905"><ele>15.0</ele><time>2026-04-04T13:36:53.577Z</time></trkpt><trkpt lat="37.9166733" lon="15.9988333"><ele>14.000000000000002</ele><time>2026-04-04T13:36:54.577Z</time></trkpt><trkpt lat="37.9165983" lon="15.99875"><ele>13.0</ele><time>2026-04-04T13:36:55.577Z</time></trkpt><trkpt lat="37.9165333" lon="15.9986383"><ele>12.0</ele><time>2026-04-04T13:36:56.577Z</time></trkpt><trkpt lat="37.9164733" lon="15.998515"><ele>11.0</ele><time>2026-04-04T13:36:57.578Z</time></trkpt><trkpt lat="37.9164217" lon="15.99837"><ele>12.600000000000001</ele><time>2026-04-04T13:36:58.577Z</time></trkpt><trkpt lat="37.9163767" lon="15.9982283"><ele>14.2</ele><time>2026-04-04T13:36:59.578Z</time></trkpt><trkpt lat="37.916345" lon="15.9980933"><ele>15.799999999999999</ele><time>2026-04-04T13:37:00.577Z</time></trkpt><trkpt lat="37.91634" lon="15.9979517"><ele>17.4</ele><time>2026-04-04T13:37:01.577Z</time></trkpt><trkpt lat="37.91637" lon="15.997825"><ele>19.0</ele><time>2026-04-04T13:37:02.577Z</time></trkpt><trkpt lat="37.9164217" lon="15.9977167"><ele>19.0</ele><time>2026-04-04T13:37:03.577Z</time></trkpt><trkpt lat="37.9164867" lon="15.9976133"><ele>19.0</ele><time>2026-04-04T13:37:04.577Z</time></trkpt><trkpt lat="37.9165717" lon="15.99753"><ele>19.0</ele><time>2026-04-04T13:37:05.577Z</time></trkpt><trkpt lat="37.91667" lon="15.997475"><ele>19.0</ele><time>2026-04-04T13:37:06.577Z</time></trkpt><trkpt lat="37.91678" lon="15.99744"><ele>19.0</ele><time>2026-04-04T13:37:07.577Z</time></trkpt><trkpt lat="37.9168967" lon="15.9974383"><ele>18.75</ele><time>2026-04-04T13:37:08.577Z</time></trkpt><trkpt lat="37.917015" lon="15.9974667"><ele>18.5</ele><time>2026-04-04T13:37:09.577Z</time></trkpt><trkpt lat="37.917135" lon="15.997495"><ele>18.25</ele><time>2026-04-04T13:37:10.578Z</time></trkpt><trkpt lat="37.91724" lon="15.9975083"><ele>18.0</ele><time>2026-04-04T13:37:11.577Z</time></trkpt><trkpt lat="37.9173417" lon="15.9974817"><ele>18.0</ele><time>2026-04-04T13:37:12.577Z</time></trkpt><trkpt lat="37.9174333" lon="15.997425"><ele>18.0</ele><time>2026-04-04T13:37:13.578Z</time></trkpt><trkpt lat="37.917515" lon="15.9973517"><ele>18.0</ele><time>2026-04-04T13:37:14.577Z</time></trkpt><trkpt lat="37.9175917" lon="15.9972467"><ele>18.0</ele><time>2026-04-04T13:37:15.577Z</time></trkpt><trkpt lat="37.9176633" lon="15.99712"><ele>18.0</ele><time>2026-04-04T13:37:16.578Z</time></trkpt><trkpt lat="37.91774" lon="15.9969767"><ele>18.75</ele><time>2026-04-04T13:37:17.578Z</time></trkpt><trkpt lat="37.9178317" lon="15.9968267"><ele>19.5</ele><time>2026-04-04T13:37:18.577Z</time></trkpt><trkpt lat="37.9179133" lon="15.996685"><ele>20.25</ele><time>2026-04-04T13:37:19.577Z</time></trkpt><trkpt lat="37.9179833" lon="15.9965417"><ele>21.0</ele><time>2026-04-04T13:37:20.577Z</time></trkpt><trkpt lat="37.9180283" lon="15.996395"><ele>19.0</ele><time>2026-04-04T13:37:21.578Z</time></trkpt><trkpt lat="37.91804" lon="15.9962333"><ele>17.0</ele><time>2026-04-04T13:37:22.577Z</time></trkpt><trkpt lat="37.9180417" lon="15.9960517"><ele>15.0</ele><time>2026-04-04T13:37:23.578Z</time></trkpt><trkpt lat="37.9180233" lon="15.99587"><ele>13.0</ele><time>2026-04-04T13:37:24.577Z</time></trkpt><trkpt lat="37.9179967" lon="15.99569"><ele>12.5</ele><time>2026-04-04T13:37:25.577Z</time></trkpt><trkpt lat="37.917985" lon="15.9955167"><ele>12.0</ele><time>2026-04-04T13:37:26.577Z</time></trkpt><trkpt lat="37.9179817" lon="15.9953367"><ele>11.5</ele><time>2026-04-04T13:37:27.577Z</time></trkpt><trkpt lat="37.9179733" lon="15.995165"><ele>11.0</ele><time>2026-04-04T13:37:28.577Z</time></trkpt><trkpt lat="37.9179633" lon="15.9949967"><ele>10.5</ele><time>2026-04-04T13:37:29.578Z</time></trkpt><trkpt lat="37.9179467" lon="15.9948283"><ele>10.0</ele><time>2026-04-04T13:37:30.577Z</time></trkpt><trkpt lat="37.9179383" lon="15.9946683"><ele>9.5</ele><time>2026-04-04T13:37:31.577Z</time></trkpt><trkpt lat="37.9179717" lon="15.99451"><ele>9.0</ele><time>2026-04-04T13:37:32.577Z</time></trkpt><trkpt lat="37.9180167" lon="15.994345"><ele>9.0</ele><time>2026-04-04T13:37:33.577Z</time></trkpt><trkpt lat="37.9180717" lon="15.9941783"><ele>9.0</ele><time>2026-04-04T13:37:34.577Z</time></trkpt><trkpt lat="37.918135" lon="15.994005"><ele>9.0</ele><time>2026-04-04T13:37:35.577Z</time></trkpt><trkpt lat="37.918195" lon="15.99383"><ele>9.0</ele><time>2026-04-04T13:37:36.578Z</time></trkpt><trkpt lat="37.9182617" lon="15.9936433"><ele>8.333333333333334</ele><time>2026-04-04T13:37:37.577Z</time></trkpt><trkpt lat="37.9183333" lon="15.993465"><ele>7.666666666666667</ele><time>2026-04-04T13:37:38.577Z</time></trkpt><trkpt lat="37.918385" lon="15.99328"><ele>7.0</ele><time>2026-04-04T13:37:39.577Z</time></trkpt><trkpt lat="37.9184317" lon="15.9931117"><ele>8.25</ele><time>2026-04-04T13:37:40.577Z</time></trkpt><trkpt lat="37.9184683" lon="15.9929467"><ele>9.5</ele><time>2026-04-04T13:37:41.577Z</time></trkpt><trkpt lat="37.9185017" lon="15.992795"><ele>10.75</ele><time>2026-04-04T13:37:42.577Z</time></trkpt><trkpt lat="37.9185233" lon="15.992645"><ele>12.0</ele><time>2026-04-04T13:37:43.578Z</time></trkpt><trkpt lat="37.91854" lon="15.9924867"><ele>13.5</ele><time>2026-04-04T13:37:44.577Z</time></trkpt><trkpt lat="37.9185617" lon="15.9923233"><ele>15.0</ele><time>2026-04-04T13:37:45.577Z</time></trkpt><trkpt lat="37.9185833" lon="15.9921417"><ele>16.5</ele><time>2026-04-04T13:37:46.577Z</time></trkpt><trkpt lat="37.9185967" lon="15.9919533"><ele>18.0</ele><time>2026-04-04T13:37:47.578Z</time></trkpt><trkpt lat="37.918615" lon="15.991755"><ele>18.0</ele><time>2026-04-04T13:37:48.577Z</time></trkpt><trkpt lat="37.9186217" lon="15.9915583"><ele>18.0</ele><time>2026-04-04T13:37:49.577Z</time></trkpt><trkpt lat="37.918635" lon="15.991355"><ele>18.0</ele><time>2026-04-04T13:37:50.578Z</time></trkpt><trkpt lat="37.9186467" lon="15.991145"><ele>18.0</ele><time>2026-04-04T13:37:51.577Z</time></trkpt><trkpt lat="37.91865" lon="15.9909367"><ele>18.0</ele><time>2026-04-04T13:37:52.577Z</time></trkpt><trkpt lat="37.91865" lon="15.9907267"><ele>18.0</ele><time>2026-04-04T13:37:53.577Z</time></trkpt><trkpt lat="37.918655" lon="15.9905283"><ele>16.0</ele><time>2026-04-04T13:37:54.577Z</time></trkpt><trkpt lat="37.9186667" lon="15.9903333"><ele>14.0</ele><time>2026-04-04T13:37:55.577Z</time></trkpt><trkpt lat="37.91868" lon="15.9901283"><ele>12.0</ele><time>2026-04-04T13:37:56.577Z</time></trkpt><trkpt lat="37.91871" lon="15.9899217"><ele>11.666666666666666</ele><time>2026-04-04T13:37:57.577Z</time></trkpt><trkpt lat="37.9187267" lon="15.9897067"><ele>11.333333333333332</ele><time>2026-04-04T13:37:58.577Z</time></trkpt><trkpt lat="37.9187417" lon="15.9894783"><ele>11.0</ele><time>2026-04-04T13:37:59.577Z</time></trkpt><trkpt lat="37.9187483" lon="15.9892483"><ele>10.666666666666666</ele><time>2026-04-04T13:38:00.577Z</time></trkpt><trkpt lat="37.918755" lon="15.9890033"><ele>10.333333333333334</ele><time>2026-04-04T13:38:01.577Z</time></trkpt><trkpt lat="37.9187767" lon="15.9887583"><ele>10.0</ele><time>2026-04-04T13:38:02.577Z</time></trkpt><trkpt lat="37.9188" lon="15.9884933"><ele>10.0</ele><time>2026-04-04T13:38:03.577Z</time></trkpt><trkpt lat="37.91884" lon="15.9882267"><ele>10.0</ele><time>2026-04-04T13:38:04.577Z</time></trkpt><trkpt lat="37.91887" lon="15.9879683"><ele>10.0</ele><time>2026-04-04T13:38:05.577Z</time></trkpt><trkpt lat="37.918905" lon="15.9877267"><ele>10.0</ele><time>2026-04-04T13:38:06.577Z</time></trkpt><trkpt lat="37.918955" lon="15.9875117"><ele>10.0</ele><time>2026-04-04T13:38:07.577Z</time></trkpt><trkpt lat="37.9190167" lon="15.9873067"><ele>10.0</ele><time>2026-04-04T13:38:08.577Z</time></trkpt><trkpt lat="37.9190683" lon="15.9871083"><ele>10.25</ele><time>2026-04-04T13:38:09.577Z</time></trkpt><trkpt lat="37.9191033" lon="15.9869167"><ele>10.5</ele><time>2026-04-04T13:38:10.577Z</time></trkpt><trkpt lat="37.9191217" lon="15.9867317"><ele>10.75</ele><time>2026-04-04T13:38:11.578Z</time></trkpt><trkpt lat="37.9191233" lon="15.986555"><ele>11.0</ele><time>2026-04-04T13:38:12.578Z</time></trkpt><trkpt lat="37.9191233" lon="15.986375"><ele>11.0</ele><time>2026-04-04T13:38:13.577Z</time></trkpt><trkpt lat="37.9191133" lon="15.9861933"><ele>11.0</ele><time>2026-04-04T13:38:14.577Z</time></trkpt><trkpt lat="37.9190933" lon="15.985995"><ele>11.0</ele><time>2026-04-04T13:38:15.577Z</time></trkpt><trkpt lat="37.9190767" lon="15.9858033"><ele>10.666666666666666</ele><time>2026-04-04T13:38:16.577Z</time></trkpt><trkpt lat="37.919045" lon="15.9856017"><ele>10.333333333333334</ele><time>2026-04-04T13:38:17.577Z</time></trkpt><trkpt lat="37.9190283" lon="15.9853883"><ele>10.0</ele><time>2026-04-04T13:38:18.577Z</time></trkpt><trkpt lat="37.9190283" lon="15.98519"><ele>10.333333333333334</ele><time>2026-04-04T13:38:19.578Z</time></trkpt><trkpt lat="37.9190417" lon="15.9849783"><ele>10.666666666666666</ele><time>2026-04-04T13:38:20.577Z</time></trkpt><trkpt lat="37.9190583" lon="15.9847667"><ele>11.0</ele><time>2026-04-04T13:38:21.577Z</time></trkpt><trkpt lat="37.9190683" lon="15.9845533"><ele>11.0</ele><time>2026-04-04T13:38:22.578Z</time></trkpt><trkpt lat="37.91907" lon="15.9843233"><ele>11.0</ele><time>2026-04-04T13:38:23.577Z</time></trkpt><trkpt lat="37.9190833" lon="15.9841"><ele>11.0</ele><time>2026-04-04T13:38:24.577Z</time></trkpt><trkpt lat="37.9191067" lon="15.983865"><ele>9.666666666666666</ele><time>2026-04-04T13:38:25.577Z</time></trkpt><trkpt lat="37.919135" lon="15.9836267"><ele>8.333333333333334</ele><time>2026-04-04T13:38:26.577Z</time></trkpt><trkpt lat="37.9191617" lon="15.98339"><ele>7.0</ele><time>2026-04-04T13:38:27.577Z</time></trkpt><trkpt lat="37.9191733" lon="15.9831417"><ele>7.0</ele><time>2026-04-04T13:38:28.577Z</time></trkpt><trkpt lat="37.9191867" lon="15.9828933"><ele>7.0</ele><time>2026-04-04T13:38:29.578Z</time></trkpt><trkpt lat="37.9191967" lon="15.982645"><ele>7.0</ele><time>2026-04-04T13:38:30.577Z</time></trkpt><trkpt lat="37.9192183" lon="15.982395"><ele>7.0</ele><time>2026-04-04T13:38:31.577Z</time></trkpt><trkpt lat="37.91923" lon="15.9821433"><ele>7.0</ele><time>2026-04-04T13:38:32.578Z</time></trkpt><trkpt lat="37.9192467" lon="15.9819017"><ele>7.0</ele><time>2026-04-04T13:38:33.577Z</time></trkpt><trkpt lat="37.9192783" lon="15.981655"><ele>7.666666666666667</ele><time>2026-04-04T13:38:34.577Z</time></trkpt><trkpt lat="37.9193033" lon="15.9814033"><ele>8.333333333333334</ele><time>2026-04-04T13:38:35.577Z</time></trkpt><trkpt lat="37.9193217" lon="15.981165"><ele>9.0</ele><time>2026-04-04T13:38:36.578Z</time></trkpt><trkpt lat="37.919335" lon="15.9809417"><ele>9.666666666666666</ele><time>2026-04-04T13:38:37.577Z</time></trkpt><trkpt lat="37.9193467" lon="15.9807183"><ele>10.333333333333332</ele><time>2026-04-04T13:38:38.577Z</time></trkpt><trkpt lat="37.9193717" lon="15.9805117"><ele>11.0</ele><time>2026-04-04T13:38:39.577Z</time></trkpt><trkpt lat="37.9193917" lon="15.9803017"><ele>11.0</ele><time>2026-04-04T13:38:40.578Z</time></trkpt><trkpt lat="37.9194133" lon="15.9801017"><ele>11.0</ele><time>2026-04-04T13:38:41.578Z</time></trkpt><trkpt lat="37.9194233" lon="15.9799067"><ele>11.0</ele><time>2026-04-04T13:38:42.577Z</time></trkpt><trkpt lat="37.9194367" lon="15.979725"><ele>12.0</ele><time>2026-04-04T13:38:43.577Z</time></trkpt><trkpt lat="37.9194383" lon="15.97955"><ele>13.0</ele><time>2026-04-04T13:38:44.577Z</time></trkpt><trkpt lat="37.919455" lon="15.9793667"><ele>14.0</ele><time>2026-04-04T13:38:45.577Z</time></trkpt><trkpt lat="37.9194783" lon="15.9791683"><ele>15.0</ele><time>2026-04-04T13:38:46.577Z</time></trkpt><trkpt lat="37.9194983" lon="15.9789467"><ele>16.333333333333332</ele><time>2026-04-04T13:38:47.578Z</time></trkpt><trkpt lat="37.91951" lon="15.9786883"><ele>17.666666666666664</ele><time>2026-04-04T13:38:48.577Z</time></trkpt><trkpt lat="37.919545" lon="15.978405"><ele>19.0</ele><time>2026-04-04T13:38:49.578Z</time></trkpt><trkpt lat="37.9195767" lon="15.9781083"><ele>22.0</ele><time>2026-04-04T13:38:50.577Z</time></trkpt><trkpt lat="37.9196133" lon="15.9778017"><ele>25.0</ele><time>2026-04-04T13:38:51.577Z</time></trkpt><trkpt lat="37.9196583" lon="15.9775017"><ele>26.5</ele><time>2026-04-04T13:38:52.578Z</time></trkpt><trkpt lat="37.91972" lon="15.9772083"><ele>28.0</ele><time>2026-04-04T13:38:53.577Z</time></trkpt><trkpt lat="37.9197933" lon="15.976925"><ele>25.666666666666668</ele><time>2026-04-04T13:38:54.577Z</time></trkpt><trkpt lat="37.9198717" lon="15.976665"><ele>23.333333333333336</ele><time>2026-04-04T13:38:55.577Z</time></trkpt><trkpt lat="37.919945" lon="15.976425"><ele>21.0</ele><time>2026-04-04T13:38:56.577Z</time></trkpt><trkpt lat="37.9200217" lon="15.9761933"><ele>32.66666666666667</ele><time>2026-04-04T13:38:57.578Z</time></trkpt><trkpt lat="37.9200817" lon="15.9759533"><ele>44.333333333333336</ele><time>2026-04-04T13:38:58.578Z</time></trkpt><trkpt lat="37.9201233" lon="15.9757033"><ele>56.0</ele><time>2026-04-04T13:38:59.578Z</time></trkpt><trkpt lat="37.92015" lon="15.975425"><ele>57.5</ele><time>2026-04-04T13:39:00.578Z</time></trkpt><trkpt lat="37.9201767" lon="15.9751233"><ele>59.0</ele><time>2026-04-04T13:39:01.578Z</time></trkpt><trkpt lat="37.920195" lon="15.9748033"><ele>56.0</ele><time>2026-04-04T13:39:02.578Z</time></trkpt><trkpt lat="37.9202283" lon="15.9744867"><ele>53.0</ele><time>2026-04-04T13:39:03.578Z</time></trkpt><trkpt lat="37.9202667" lon="15.9741817"><ele>49.5</ele><time>2026-04-04T13:39:04.579Z</time></trkpt><trkpt lat="37.9203067" lon="15.9738817"><ele>46.0</ele><time>2026-04-04T13:39:05.578Z</time></trkpt><trkpt lat="37.9203417" lon="15.9735933"><ele>42.66666666666667</ele><time>2026-04-04T13:39:06.578Z</time></trkpt><trkpt lat="37.9203767" lon="15.9733233"><ele>39.333333333333336</ele><time>2026-04-04T13:39:07.578Z</time></trkpt><trkpt lat="37.92041" lon="15.9730583"><ele>36.0</ele><time>2026-04-04T13:39:08.578Z</time></trkpt><trkpt lat="37.920415" lon="15.9728017"><ele>36.0</ele><time>2026-04-04T13:39:09.578Z</time></trkpt><trkpt lat="37.92041" lon="15.9725567"><ele>36.0</ele><time>2026-04-04T13:39:10.578Z</time></trkpt><trkpt lat="37.9204017" lon="15.97232"><ele>36.0</ele><time>2026-04-04T13:39:11.578Z</time></trkpt><trkpt lat="37.9203767" lon="15.9720817"><ele>34.0</ele><time>2026-04-04T13:39:12.578Z</time></trkpt><trkpt lat="37.92035" lon="15.9718417"><ele>32.0</ele><time>2026-04-04T13:39:13.578Z</time></trkpt><trkpt lat="37.9203317" lon="15.9716033"><ele>30.0</ele><time>2026-04-04T13:39:14.578Z</time></trkpt><trkpt lat="37.9203167" lon="15.9713633"><ele>30.0</ele><time>2026-04-04T13:39:15.578Z</time></trkpt><trkpt lat="37.9202933" lon="15.9711217"><ele>30.0</ele><time>2026-04-04T13:39:16.578Z</time></trkpt><trkpt lat="37.9202683" lon="15.9708817"><ele>30.0</ele><time>2026-04-04T13:39:17.578Z</time></trkpt><trkpt lat="37.9202567" lon="15.97065"><ele>33.666666666666664</ele><time>2026-04-04T13:39:18.578Z</time></trkpt><trkpt lat="37.9202283" lon="15.9704217"><ele>37.33333333333333</ele><time>2026-04-04T13:39:19.578Z</time></trkpt><trkpt lat="37.920205" lon="15.9701817"><ele>41.0</ele><time>2026-04-04T13:39:20.578Z</time></trkpt><trkpt lat="37.9201717" lon="15.96994"><ele>44.666666666666664</ele><time>2026-04-04T13:39:21.578Z</time></trkpt><trkpt lat="37.9201383" lon="15.9696883"><ele>48.33333333333333</ele><time>2026-04-04T13:39:22.578Z</time></trkpt><trkpt lat="37.9200933" lon="15.9694467"><ele>52.0</ele><time>2026-04-04T13:39:23.578Z</time></trkpt><trkpt lat="37.9200583" lon="15.9692017"><ele>40.666666666666664</ele><time>2026-04-04T13:39:24.578Z</time></trkpt><trkpt lat="37.9200233" lon="15.9689567"><ele>29.333333333333332</ele><time>2026-04-04T13:39:25.578Z</time></trkpt><trkpt lat="37.9199983" lon="15.96871"><ele>18.0</ele><time>2026-04-04T13:39:26.578Z</time></trkpt><trkpt lat="37.9199767" lon="15.9684733"><ele>17.333333333333332</ele><time>2026-04-04T13:39:27.578Z</time></trkpt><trkpt lat="37.919945" lon="15.9682533"><ele>16.666666666666664</ele><time>2026-04-04T13:39:28.578Z</time></trkpt><trkpt lat="37.9199183" lon="15.9680333"><ele>16.0</ele><time>2026-04-04T13:39:29.579Z</time></trkpt><trkpt lat="37.9199" lon="15.9678117"><ele>16.0</ele><time>2026-04-04T13:39:30.578Z</time></trkpt><trkpt lat="37.91989" lon="15.967585"><ele>16.0</ele><time>2026-04-04T13:39:31.578Z</time></trkpt><trkpt lat="37.91987" lon="15.9673683"><ele>16.0</ele><time>2026-04-04T13:39:32.579Z</time></trkpt><trkpt lat="37.9198667" lon="15.96714"><ele>17.333333333333332</ele><time>2026-04-04T13:39:33.578Z</time></trkpt><trkpt lat="37.9198567" lon="15.966905"><ele>18.666666666666668</ele><time>2026-04-04T13:39:34.578Z</time></trkpt><trkpt lat="37.9198533" lon="15.96667"><ele>20.0</ele><time>2026-04-04T13:39:35.579Z</time></trkpt><trkpt lat="37.9198567" lon="15.9664367"><ele>22.0</ele><time>2026-04-04T13:39:36.578Z</time></trkpt><trkpt lat="37.9198733" lon="15.9662033"><ele>24.0</ele><time>2026-04-04T13:39:37.578Z</time></trkpt><trkpt lat="37.9198967" lon="15.965975"><ele>26.0</ele><time>2026-04-04T13:39:38.578Z</time></trkpt><trkpt lat="37.91991" lon="15.9657383"><ele>28.0</ele><time>2026-04-04T13:39:39.578Z</time></trkpt><trkpt lat="37.91992" lon="15.9655133"><ele>30.0</ele><time>2026-04-04T13:39:40.578Z</time></trkpt><trkpt lat="37.9199333" lon="15.9652917"><ele>32.0</ele><time>2026-04-04T13:39:41.578Z</time></trkpt><trkpt lat="37.9199567" lon="15.96507"><ele>30.333333333333332</ele><time>2026-04-04T13:39:42.578Z</time></trkpt><trkpt lat="37.919975" lon="15.96486"><ele>28.666666666666664</ele><time>2026-04-04T13:39:43.578Z</time></trkpt><trkpt lat="37.919995" lon="15.964665"><ele>27.0</ele><time>2026-04-04T13:39:44.578Z</time></trkpt><trkpt lat="37.9200167" lon="15.96448"><ele>27.0</ele><time>2026-04-04T13:39:45.578Z</time></trkpt><trkpt lat="37.9200433" lon="15.9642933"><ele>27.0</ele><time>2026-04-04T13:39:46.579Z</time></trkpt><trkpt lat="37.9200833" lon="15.9640967"><ele>27.0</ele><time>2026-04-04T13:39:47.578Z</time></trkpt><trkpt lat="37.9201033" lon="15.963905"><ele>30.333333333333336</ele><time>2026-04-04T13:39:48.579Z</time></trkpt><trkpt lat="37.9201183" lon="15.9637033"><ele>33.66666666666667</ele><time>2026-04-04T13:39:49.578Z</time></trkpt><trkpt lat="37.920135" lon="15.96351"><ele>37.0</ele><time>2026-04-04T13:39:50.578Z</time></trkpt><trkpt lat="37.92017" lon="15.9633367"><ele>37.0</ele><time>2026-04-04T13:39:51.578Z</time></trkpt><trkpt lat="37.9202" lon="15.963115"><ele>37.0</ele><time>2026-04-04T13:39:52.579Z</time></trkpt><trkpt lat="37.9202317" lon="15.9628983"><ele>37.0</ele><time>2026-04-04T13:39:53.578Z</time></trkpt><trkpt lat="37.92026" lon="15.96269"><ele>32.0</ele><time>2026-04-04T13:39:54.579Z</time></trkpt><trkpt lat="37.9202883" lon="15.9624933"><ele>27.0</ele><time>2026-04-04T13:39:55.578Z</time></trkpt><trkpt lat="37.9203067" lon="15.9622983"><ele>22.0</ele><time>2026-04-04T13:39:56.579Z</time></trkpt><trkpt lat="37.92032" lon="15.9621133"><ele>22.0</ele><time>2026-04-04T13:39:57.578Z</time></trkpt><trkpt lat="37.92035" lon="15.9619233"><ele>22.0</ele><time>2026-04-04T13:39:58.579Z</time></trkpt><trkpt lat="37.9203767" lon="15.9617283"><ele>22.0</ele><time>2026-04-04T13:39:59.579Z</time></trkpt><trkpt lat="37.9205233" lon="15.96124"><ele>22.0</ele><time>2026-04-04T13:40:03.579Z</time></trkpt><trkpt lat="37.9206517" lon="15.9612017"><ele>22.0</ele><time>2026-04-04T13:40:04.579Z</time></trkpt><trkpt lat="37.9208133" lon="15.9611583"><ele>22.0</ele><time>2026-04-04T13:40:05.579Z</time></trkpt><trkpt lat="37.92095" lon="15.9610967"><ele>22.0</ele><time>2026-04-04T13:40:06.58Z</time></trkpt><trkpt lat="37.9210683" lon="15.96101"><ele>22.0</ele><time>2026-04-04T13:40:07.579Z</time></trkpt><trkpt lat="37.92119" lon="15.9609033"><ele>22.0</ele><time>2026-04-04T13:40:08.579Z</time></trkpt><trkpt lat="37.9212867" lon="15.9607883"><ele>22.0</ele><time>2026-04-04T13:40:09.579Z</time></trkpt><trkpt lat="37.9213667" lon="15.96068"><ele>22.0</ele><time>2026-04-04T13:40:10.58Z</time></trkpt><trkpt lat="37.9214267" lon="15.9605717"><ele>21.0</ele><time>2026-04-04T13:40:11.58Z</time></trkpt><trkpt lat="37.921465" lon="15.9604667"><ele>20.0</ele><time>2026-04-04T13:40:12.579Z</time></trkpt><trkpt lat="37.9214967" lon="15.960375"><ele>19.0</ele><time>2026-04-04T13:40:13.579Z</time></trkpt><trkpt lat="37.9214783" lon="15.9602433"><ele>18.0</ele><time>2026-04-04T13:40:15.58Z</time></trkpt><trkpt lat="37.9213717" lon="15.9601533"><ele>17.0</ele><time>2026-04-04T13:40:17.579Z</time></trkpt><trkpt lat="37.9213117" lon="15.9601283"><ele>17.0</ele><time>2026-04-04T13:40:18.579Z</time></trkpt><trkpt lat="37.9212467" lon="15.960075"><ele>17.0</ele><time>2026-04-04T13:40:19.58Z</time></trkpt><trkpt lat="37.9211767" lon="15.96"><ele>17.0</ele><time>2026-04-04T13:40:20.579Z</time></trkpt><trkpt lat="37.9211117" lon="15.959925"><ele>17.0</ele><time>2026-04-04T13:40:21.579Z</time></trkpt><trkpt lat="37.92105" lon="15.9598517"><ele>17.0</ele><time>2026-04-04T13:40:22.579Z</time></trkpt><trkpt lat="37.92099" lon="15.95977"><ele>17.0</ele><time>2026-04-04T13:40:23.58Z</time></trkpt><trkpt lat="37.9209383" lon="15.95969"><ele>15.500000000000002</ele><time>2026-04-04T13:40:24.579Z</time></trkpt><trkpt lat="37.920885" lon="15.9596133"><ele>14.0</ele><time>2026-04-04T13:40:25.58Z</time></trkpt><trkpt lat="37.92083" lon="15.9595317"><ele>12.5</ele><time>2026-04-04T13:40:26.579Z</time></trkpt><trkpt lat="37.9207867" lon="15.959385"><ele>11.0</ele><time>2026-04-04T13:40:28.579Z</time></trkpt><trkpt lat="37.9207833" lon="15.9592917"><ele>9.5</ele><time>2026-04-04T13:40:29.58Z</time></trkpt><trkpt lat="37.920795" lon="15.9591933"><ele>8.0</ele><time>2026-04-04T13:40:30.579Z</time></trkpt><trkpt lat="37.92082" lon="15.959105"><ele>7.800000000000001</ele><time>2026-04-04T13:40:31.579Z</time></trkpt><trkpt lat="37.9208617" lon="15.959"><ele>7.6000000000000005</ele><time>2026-04-04T13:40:32.579Z</time></trkpt><trkpt lat="37.920905" lon="15.95888"><ele>7.3999999999999995</ele><time>2026-04-04T13:40:33.579Z</time></trkpt><trkpt lat="37.920955" lon="15.9587517"><ele>7.199999999999999</ele><time>2026-04-04T13:40:34.579Z</time></trkpt><trkpt lat="37.9210067" lon="15.9586183"><ele>7.0</ele><time>2026-04-04T13:40:35.579Z</time></trkpt><trkpt lat="37.921055" lon="15.9584817"><ele>7.25</ele><time>2026-04-04T13:40:36.579Z</time></trkpt><trkpt lat="37.9211033" lon="15.958345"><ele>7.5</ele><time>2026-04-04T13:40:37.579Z</time></trkpt><trkpt lat="37.92116" lon="15.958205"><ele>7.75</ele><time>2026-04-04T13:40:38.58Z</time></trkpt><trkpt lat="37.9212133" lon="15.9580633"><ele>8.0</ele><time>2026-04-04T13:40:39.579Z</time></trkpt><trkpt lat="37.9212633" lon="15.957905"><ele>8.0</ele><time>2026-04-04T13:40:40.58Z</time></trkpt><trkpt lat="37.9213267" lon="15.9577317"><ele>8.0</ele><time>2026-04-04T13:40:41.579Z</time></trkpt><trkpt lat="37.921405" lon="15.9575283"><ele>8.0</ele><time>2026-04-04T13:40:42.579Z</time></trkpt><trkpt lat="37.921485" lon="15.9573083"><ele>7.333333333333333</ele><time>2026-04-04T13:40:43.579Z</time></trkpt><trkpt lat="37.9215667" lon="15.9571"><ele>6.666666666666666</ele><time>2026-04-04T13:40:44.58Z</time></trkpt><trkpt lat="37.9216533" lon="15.9568983"><ele>6.0</ele><time>2026-04-04T13:40:45.579Z</time></trkpt><trkpt lat="37.9217383" lon="15.9567033"><ele>6.666666666666666</ele><time>2026-04-04T13:40:46.58Z</time></trkpt><trkpt lat="37.9218183" lon="15.95651"><ele>7.333333333333333</ele><time>2026-04-04T13:40:47.579Z</time></trkpt><trkpt lat="37.9218883" lon="15.9563333"><ele>8.0</ele><time>2026-04-04T13:40:48.58Z</time></trkpt><trkpt lat="37.921965" lon="15.95615"><ele>8.0</ele><time>2026-04-04T13:40:49.579Z</time></trkpt><trkpt lat="37.92204" lon="15.955955"><ele>8.0</ele><time>2026-04-04T13:40:50.58Z</time></trkpt><trkpt lat="37.92212" lon="15.955765"><ele>8.0</ele><time>2026-04-04T13:40:51.579Z</time></trkpt><trkpt lat="37.9221983" lon="15.9555583"><ele>8.333333333333332</ele><time>2026-04-04T13:40:52.579Z</time></trkpt><trkpt lat="37.9222717" lon="15.9553833"><ele>8.666666666666666</ele><time>2026-04-04T13:40:53.579Z</time></trkpt><trkpt lat="37.9223433" lon="15.9552233"><ele>9.0</ele><time>2026-04-04T13:40:54.579Z</time></trkpt><trkpt lat="37.9224167" lon="15.9550483"><ele>8.666666666666666</ele><time>2026-04-04T13:40:55.58Z</time></trkpt><trkpt lat="37.9225017" lon="15.9548733"><ele>8.333333333333332</ele><time>2026-04-04T13:40:56.579Z</time></trkpt><trkpt lat="37.9225817" lon="15.9547067"><ele>8.0</ele><time>2026-04-04T13:40:57.58Z</time></trkpt><trkpt lat="37.9226617" lon="15.95453"><ele>8.25</ele><time>2026-04-04T13:40:58.58Z</time></trkpt><trkpt lat="37.9227417" lon="15.9543633"><ele>8.5</ele><time>2026-04-04T13:40:59.579Z</time></trkpt><trkpt lat="37.9228233" lon="15.9541967"><ele>8.75</ele><time>2026-04-04T13:41:00.579Z</time></trkpt><trkpt lat="37.9228917" lon="15.9540467"><ele>9.0</ele><time>2026-04-04T13:41:01.579Z</time></trkpt><trkpt lat="37.9229667" lon="15.9539017"><ele>9.0</ele><time>2026-04-04T13:41:02.579Z</time></trkpt><trkpt lat="37.923025" lon="15.9537433"><ele>9.0</ele><time>2026-04-04T13:41:03.579Z</time></trkpt><trkpt lat="37.9230683" lon="15.9535717"><ele>9.0</ele><time>2026-04-04T13:41:04.579Z</time></trkpt><trkpt lat="37.9231083" lon="15.9533933"><ele>9.0</ele><time>2026-04-04T13:41:05.579Z</time></trkpt><trkpt lat="37.92314" lon="15.95321"><ele>8.75</ele><time>2026-04-04T13:41:06.579Z</time></trkpt><trkpt lat="37.9231733" lon="15.9530333"><ele>8.5</ele><time>2026-04-04T13:41:07.579Z</time></trkpt><trkpt lat="37.92321" lon="15.9528633"><ele>8.25</ele><time>2026-04-04T13:41:08.58Z</time></trkpt><trkpt lat="37.9232633" lon="15.9526967"><ele>8.0</ele><time>2026-04-04T13:41:09.579Z</time></trkpt><trkpt lat="37.92331" lon="15.9525183"><ele>8.0</ele><time>2026-04-04T13:41:10.579Z</time></trkpt><trkpt lat="37.92337" lon="15.95234"><ele>8.0</ele><time>2026-04-04T13:41:11.579Z</time></trkpt><trkpt lat="37.9234367" lon="15.9521633"><ele>8.0</ele><time>2026-04-04T13:41:12.579Z</time></trkpt><trkpt lat="37.923505" lon="15.9519733"><ele>8.333333333333332</ele><time>2026-04-04T13:41:13.579Z</time></trkpt><trkpt lat="37.9235833" lon="15.9517867"><ele>8.666666666666666</ele><time>2026-04-04T13:41:14.579Z</time></trkpt><trkpt lat="37.9236583" lon="15.9515867"><ele>9.0</ele><time>2026-04-04T13:41:15.58Z</time></trkpt><trkpt lat="37.923725" lon="15.95138"><ele>9.0</ele><time>2026-04-04T13:41:16.579Z</time></trkpt><trkpt lat="37.92379" lon="15.9511733"><ele>9.0</ele><time>2026-04-04T13:41:17.579Z</time></trkpt><trkpt lat="37.92385" lon="15.9509733"><ele>9.0</ele><time>2026-04-04T13:41:18.579Z</time></trkpt><trkpt lat="37.9239133" lon="15.9507767"><ele>8.333333333333334</ele><time>2026-04-04T13:41:19.579Z</time></trkpt><trkpt lat="37.9239767" lon="15.950595"><ele>7.666666666666667</ele><time>2026-04-04T13:41:20.579Z</time></trkpt><trkpt lat="37.9240367" lon="15.9504033"><ele>7.0</ele><time>2026-04-04T13:41:21.579Z</time></trkpt><trkpt lat="37.9241033" lon="15.9502167"><ele>7.0</ele><time>2026-04-04T13:41:22.579Z</time></trkpt><trkpt lat="37.9241667" lon="15.9500233"><ele>7.0</ele><time>2026-04-04T13:41:23.579Z</time></trkpt><trkpt lat="37.9242383" lon="15.9498183"><ele>7.0</ele><time>2026-04-04T13:41:24.579Z</time></trkpt><trkpt lat="37.9243117" lon="15.949615"><ele>7.333333333333334</ele><time>2026-04-04T13:41:25.579Z</time></trkpt><trkpt lat="37.9243817" lon="15.9494017"><ele>7.666666666666666</ele><time>2026-04-04T13:41:26.579Z</time></trkpt><trkpt lat="37.92442" lon="15.949185"><ele>8.0</ele><time>2026-04-04T13:41:27.579Z</time></trkpt><trkpt lat="37.9244617" lon="15.9489683"><ele>8.333333333333332</ele><time>2026-04-04T13:41:28.579Z</time></trkpt><trkpt lat="37.9244733" lon="15.9487517"><ele>8.666666666666666</ele><time>2026-04-04T13:41:29.579Z</time></trkpt><trkpt lat="37.92449" lon="15.9485283"><ele>9.0</ele><time>2026-04-04T13:41:30.579Z</time></trkpt><trkpt lat="37.9245117" lon="15.9483117"><ele>10.333333333333332</ele><time>2026-04-04T13:41:31.579Z</time></trkpt><trkpt lat="37.9245417" lon="15.9481117"><ele>11.666666666666666</ele><time>2026-04-04T13:41:32.579Z</time></trkpt><trkpt lat="37.9245517" lon="15.9479"><ele>13.0</ele><time>2026-04-04T13:41:33.579Z</time></trkpt><trkpt lat="37.924565" lon="15.9477033"><ele>14.0</ele><time>2026-04-04T13:41:34.579Z</time></trkpt><trkpt lat="37.9245867" lon="15.9475133"><ele>15.0</ele><time>2026-04-04T13:41:35.579Z</time></trkpt><trkpt lat="37.9246183" lon="15.9473267"><ele>16.0</ele><time>2026-04-04T13:41:36.58Z</time></trkpt><trkpt lat="37.9246267" lon="15.94713"><ele>16.0</ele><time>2026-04-04T13:41:37.579Z</time></trkpt><trkpt lat="37.9246433" lon="15.9469433"><ele>16.0</ele><time>2026-04-04T13:41:38.579Z</time></trkpt><trkpt lat="37.924665" lon="15.9467567"><ele>16.0</ele><time>2026-04-04T13:41:39.579Z</time></trkpt><trkpt lat="37.924695" lon="15.94658"><ele>16.0</ele><time>2026-04-04T13:41:40.579Z</time></trkpt><trkpt lat="37.9247133" lon="15.9463983"><ele>15.5</ele><time>2026-04-04T13:41:41.579Z</time></trkpt><trkpt lat="37.9247267" lon="15.9462117"><ele>15.0</ele><time>2026-04-04T13:41:42.579Z</time></trkpt><trkpt lat="37.924745" lon="15.9460333"><ele>14.5</ele><time>2026-04-04T13:41:43.579Z</time></trkpt><trkpt lat="37.92476" lon="15.9458533"><ele>14.0</ele><time>2026-04-04T13:41:44.579Z</time></trkpt><trkpt lat="37.9247717" lon="15.945665"><ele>13.5</ele><time>2026-04-04T13:41:45.579Z</time></trkpt><trkpt lat="37.92479" lon="15.945485"><ele>13.0</ele><time>2026-04-04T13:41:46.579Z</time></trkpt><trkpt lat="37.9248167" lon="15.9453033"><ele>12.5</ele><time>2026-04-04T13:41:47.579Z</time></trkpt><trkpt lat="37.9248267" lon="15.945115"><ele>12.0</ele><time>2026-04-04T13:41:48.579Z</time></trkpt><trkpt lat="37.9248433" lon="15.9449317"><ele>12.0</ele><time>2026-04-04T13:41:49.58Z</time></trkpt><trkpt lat="37.92487" lon="15.94475"><ele>12.0</ele><time>2026-04-04T13:41:50.579Z</time></trkpt><trkpt lat="37.9248967" lon="15.9445683"><ele>12.0</ele><time>2026-04-04T13:41:51.58Z</time></trkpt><trkpt lat="37.9249217" lon="15.944385"><ele>12.0</ele><time>2026-04-04T13:41:52.579Z</time></trkpt><trkpt lat="37.9249583" lon="15.9442133"><ele>11.5</ele><time>2026-04-04T13:41:53.579Z</time></trkpt><trkpt lat="37.92498" lon="15.944035"><ele>11.0</ele><time>2026-04-04T13:41:54.579Z</time></trkpt><trkpt lat="37.9250167" lon="15.9438633"><ele>10.5</ele><time>2026-04-04T13:41:55.579Z</time></trkpt><trkpt lat="37.925065" lon="15.9437017"><ele>10.0</ele><time>2026-04-04T13:41:56.579Z</time></trkpt><trkpt lat="37.9251233" lon="15.9435533"><ele>13.5</ele><time>2026-04-04T13:41:57.579Z</time></trkpt><trkpt lat="37.925185" lon="15.9433967"><ele>17.0</ele><time>2026-04-04T13:41:58.579Z</time></trkpt><trkpt lat="37.9252617" lon="15.9432633"><ele>20.5</ele><time>2026-04-04T13:41:59.58Z</time></trkpt><trkpt lat="37.9253317" lon="15.9431183"><ele>24.0</ele><time>2026-04-04T13:42:00.579Z</time></trkpt><trkpt lat="37.9253917" lon="15.942965"><ele>24.0</ele><time>2026-04-04T13:42:01.579Z</time></trkpt><trkpt lat="37.9254433" lon="15.94281"><ele>24.0</ele><time>2026-04-04T13:42:02.579Z</time></trkpt><trkpt lat="37.925495" lon="15.9426483"><ele>24.0</ele><time>2026-04-04T13:42:03.579Z</time></trkpt><trkpt lat="37.9255517" lon="15.9424783"><ele>24.0</ele><time>2026-04-04T13:42:04.58Z</time></trkpt><trkpt lat="37.9256033" lon="15.9423067"><ele>22.0</ele><time>2026-04-04T13:42:05.579Z</time></trkpt><trkpt lat="37.9256483" lon="15.94215"><ele>20.0</ele><time>2026-04-04T13:42:06.58Z</time></trkpt><trkpt lat="37.925665" lon="15.94198"><ele>18.0</ele><time>2026-04-04T13:42:07.579Z</time></trkpt><trkpt lat="37.9256633" lon="15.941805"><ele>16.0</ele><time>2026-04-04T13:42:08.579Z</time></trkpt><trkpt lat="37.9256483" lon="15.9416417"><ele>14.333333333333332</ele><time>2026-04-04T13:42:09.579Z</time></trkpt><trkpt lat="37.9256167" lon="15.9414683"><ele>12.666666666666666</ele><time>2026-04-04T13:42:10.58Z</time></trkpt><trkpt lat="37.9255667" lon="15.9412783"><ele>11.0</ele><time>2026-04-04T13:42:11.58Z</time></trkpt><trkpt lat="37.92553" lon="15.941085"><ele>11.0</ele><time>2026-04-04T13:42:12.579Z</time></trkpt><trkpt lat="37.9254933" lon="15.94089"><ele>11.0</ele><time>2026-04-04T13:42:13.579Z</time></trkpt><trkpt lat="37.9254633" lon="15.9406967"><ele>11.0</ele><time>2026-04-04T13:42:14.579Z</time></trkpt><trkpt lat="37.925425" lon="15.940515"><ele>14.75</ele><time>2026-04-04T13:42:15.58Z</time></trkpt><trkpt lat="37.9253967" lon="15.940335"><ele>18.5</ele><time>2026-04-04T13:42:16.579Z</time></trkpt><trkpt lat="37.925365" lon="15.9401533"><ele>22.25</ele><time>2026-04-04T13:42:17.579Z</time></trkpt><trkpt lat="37.9253433" lon="15.93997"><ele>26.0</ele><time>2026-04-04T13:42:18.58Z</time></trkpt><trkpt lat="37.9253117" lon="15.9397933"><ele>27.75</ele><time>2026-04-04T13:42:19.58Z</time></trkpt><trkpt lat="37.9252967" lon="15.9396117"><ele>29.5</ele><time>2026-04-04T13:42:20.58Z</time></trkpt><trkpt lat="37.9252817" lon="15.9394233"><ele>31.25</ele><time>2026-04-04T13:42:21.579Z</time></trkpt><trkpt lat="37.9252733" lon="15.9392317"><ele>33.0</ele><time>2026-04-04T13:42:22.579Z</time></trkpt><trkpt lat="37.9252767" lon="15.9390467"><ele>33.0</ele><time>2026-04-04T13:42:23.579Z</time></trkpt><trkpt lat="37.9252983" lon="15.9388583"><ele>33.0</ele><time>2026-04-04T13:42:24.579Z</time></trkpt><trkpt lat="37.9253267" lon="15.9386883"><ele>33.0</ele><time>2026-04-04T13:42:25.579Z</time></trkpt><trkpt lat="37.92536" lon="15.938525"><ele>33.0</ele><time>2026-04-04T13:42:26.58Z</time></trkpt><trkpt lat="37.92539" lon="15.9383617"><ele>30.25</ele><time>2026-04-04T13:42:27.579Z</time></trkpt><trkpt lat="37.92543" lon="15.9382067"><ele>27.5</ele><time>2026-04-04T13:42:28.579Z</time></trkpt><trkpt lat="37.9254817" lon="15.938055"><ele>24.75</ele><time>2026-04-04T13:42:29.579Z</time></trkpt><trkpt lat="37.92553" lon="15.9379117"><ele>22.0</ele><time>2026-04-04T13:42:30.579Z</time></trkpt><trkpt lat="37.9255867" lon="15.9377733"><ele>22.0</ele><time>2026-04-04T13:42:31.579Z</time></trkpt><trkpt lat="37.92566" lon="15.9376617"><ele>22.0</ele><time>2026-04-04T13:42:32.579Z</time></trkpt><trkpt lat="37.9257283" lon="15.9375633"><ele>22.0</ele><time>2026-04-04T13:42:33.579Z</time></trkpt><trkpt lat="37.9258" lon="15.9374917"><ele>22.0</ele><time>2026-04-04T13:42:34.579Z</time></trkpt><trkpt lat="37.9258667" lon="15.93741"><ele>22.0</ele><time>2026-04-04T13:42:35.579Z</time></trkpt><trkpt lat="37.9259433" lon="15.937345"><ele>26.0</ele><time>2026-04-04T13:42:36.579Z</time></trkpt><trkpt lat="37.9260217" lon="15.9373083"><ele>30.0</ele><time>2026-04-04T13:42:37.58Z</time></trkpt><trkpt lat="37.9261083" lon="15.9372833"><ele>34.0</ele><time>2026-04-04T13:42:38.579Z</time></trkpt><trkpt lat="37.9261983" lon="15.9372633"><ele>38.0</ele><time>2026-04-04T13:42:39.579Z</time></trkpt><trkpt lat="37.9262867" lon="15.937225"><ele>42.0</ele><time>2026-04-04T13:42:40.579Z</time></trkpt><trkpt lat="37.926375" lon="15.937175"><ele>42.0</ele><time>2026-04-04T13:42:41.579Z</time></trkpt><trkpt lat="37.9264567" lon="15.9371017"><ele>42.0</ele><time>2026-04-04T13:42:42.579Z</time></trkpt><trkpt lat="37.926535" lon="15.9370267"><ele>42.0</ele><time>2026-04-04T13:42:43.579Z</time></trkpt><trkpt lat="37.92661" lon="15.936955"><ele>42.0</ele><time>2026-04-04T13:42:44.579Z</time></trkpt><trkpt lat="37.9266817" lon="15.93689"><ele>42.0</ele><time>2026-04-04T13:42:45.579Z</time></trkpt><trkpt lat="37.9267467" lon="15.9368217"><ele>42.42857142857143</ele><time>2026-04-04T13:42:46.579Z</time></trkpt><trkpt lat="37.9268017" lon="15.93675"><ele>42.85714285714286</ele><time>2026-04-04T13:42:47.58Z</time></trkpt><trkpt lat="37.9268217" lon="15.9366583"><ele>43.285714285714285</ele><time>2026-04-04T13:42:48.579Z</time></trkpt><trkpt lat="37.92683" lon="15.9365783"><ele>43.714285714285715</ele><time>2026-04-04T13:42:49.579Z</time></trkpt><trkpt lat="37.9268017" lon="15.936505"><ele>44.142857142857146</ele><time>2026-04-04T13:42:50.58Z</time></trkpt><trkpt lat="37.9267467" lon="15.9364533"><ele>44.57142857142857</ele><time>2026-04-04T13:42:51.579Z</time></trkpt><trkpt lat="37.926655" lon="15.9364233"><ele>45.0</ele><time>2026-04-04T13:42:52.579Z</time></trkpt><trkpt lat="37.9265567" lon="15.93644"><ele>40.75</ele><time>2026-04-04T13:42:53.579Z</time></trkpt><trkpt lat="37.9264383" lon="15.9364767"><ele>36.5</ele><time>2026-04-04T13:42:54.579Z</time></trkpt><trkpt lat="37.9263317" lon="15.9365483"><ele>32.25</ele><time>2026-04-04T13:42:55.579Z</time></trkpt><trkpt lat="37.9262317" lon="15.9366267"><ele>28.0</ele><time>2026-04-04T13:42:56.579Z</time></trkpt><trkpt lat="37.9261267" lon="15.9366867"><ele>26.799999999999997</ele><time>2026-04-04T13:42:57.579Z</time></trkpt><trkpt lat="37.9260317" lon="15.9367333"><ele>25.599999999999998</ele><time>2026-04-04T13:42:58.579Z</time></trkpt><trkpt lat="37.9259367" lon="15.9367483"><ele>24.4</ele><time>2026-04-04T13:42:59.579Z</time></trkpt><trkpt lat="37.9258267" lon="15.936745"><ele>23.200000000000003</ele><time>2026-04-04T13:43:00.579Z</time></trkpt><trkpt lat="37.9257267" lon="15.9367283"><ele>22.0</ele><time>2026-04-04T13:43:01.579Z</time></trkpt><trkpt lat="37.9256267" lon="15.9366983"><ele>22.0</ele><time>2026-04-04T13:43:02.579Z</time></trkpt><trkpt lat="37.9255583" lon="15.9366483"><ele>22.0</ele><time>2026-04-04T13:43:03.579Z</time></trkpt><trkpt lat="37.9255017" lon="15.9365767"><ele>22.0</ele><time>2026-04-04T13:43:04.579Z</time></trkpt><trkpt lat="37.9254733" lon="15.93649"><ele>22.0</ele><time>2026-04-04T13:43:05.579Z</time></trkpt><trkpt lat="37.92545" lon="15.9364067"><ele>22.0</ele><time>2026-04-04T13:43:06.579Z</time></trkpt><trkpt lat="37.9254383" lon="15.9363"><ele>22.0</ele><time>2026-04-04T13:43:07.579Z</time></trkpt><trkpt lat="37.9254633" lon="15.9361933"><ele>22.0</ele><time>2026-04-04T13:43:08.58Z</time></trkpt><trkpt lat="37.9255017" lon="15.93611"><ele>22.0</ele><time>2026-04-04T13:43:09.579Z</time></trkpt><trkpt lat="37.9256033" lon="15.93601"><ele>22.0</ele><time>2026-04-04T13:43:11.58Z</time></trkpt><trkpt lat="37.9256917" lon="15.935975"><ele>22.0</ele><time>2026-04-04T13:43:12.58Z</time></trkpt><trkpt lat="37.9258067" lon="15.9359567"><ele>22.0</ele><time>2026-04-04T13:43:13.579Z</time></trkpt><trkpt lat="37.9259317" lon="15.9359483"><ele>23.25</ele><time>2026-04-04T13:43:14.579Z</time></trkpt><trkpt lat="37.9260517" lon="15.9359167"><ele>24.5</ele><time>2026-04-04T13:43:15.579Z</time></trkpt><trkpt lat="37.9261733" lon="15.9358717"><ele>25.75</ele><time>2026-04-04T13:43:16.579Z</time></trkpt><trkpt lat="37.9263067" lon="15.9358067"><ele>27.0</ele><time>2026-04-04T13:43:17.579Z</time></trkpt><trkpt lat="37.9264333" lon="15.9357367"><ele>27.0</ele><time>2026-04-04T13:43:18.579Z</time></trkpt><trkpt lat="37.9265717" lon="15.9356867"><ele>27.0</ele><time>2026-04-04T13:43:19.58Z</time></trkpt><trkpt lat="37.9267033" lon="15.9356383"><ele>27.0</ele><time>2026-04-04T13:43:20.58Z</time></trkpt><trkpt lat="37.9268317" lon="15.935595"><ele>27.0</ele><time>2026-04-04T13:43:21.579Z</time></trkpt><trkpt lat="37.926945" lon="15.9355267"><ele>27.400000000000002</ele><time>2026-04-04T13:43:22.579Z</time></trkpt><trkpt lat="37.927035" lon="15.935435"><ele>27.800000000000004</ele><time>2026-04-04T13:43:23.58Z</time></trkpt><trkpt lat="37.9271117" lon="15.9353283"><ele>28.2</ele><time>2026-04-04T13:43:24.579Z</time></trkpt><trkpt lat="37.9271683" lon="15.9352117"><ele>28.6</ele><time>2026-04-04T13:43:25.579Z</time></trkpt><trkpt lat="37.92722" lon="15.9350917"><ele>29.0</ele><time>2026-04-04T13:43:26.579Z</time></trkpt><trkpt lat="37.9272683" lon="15.9349867"><ele>29.0</ele><time>2026-04-04T13:43:27.579Z</time></trkpt><trkpt lat="37.9273283" lon="15.9349067"><ele>29.0</ele><time>2026-04-04T13:43:28.58Z</time></trkpt><trkpt lat="37.9274183" lon="15.934865"><ele>29.0</ele><time>2026-04-04T13:43:29.579Z</time></trkpt><trkpt lat="37.9275167" lon="15.9348167"><ele>29.0</ele><time>2026-04-04T13:43:30.579Z</time></trkpt><trkpt lat="37.9276133" lon="15.9347417"><ele>29.0</ele><time>2026-04-04T13:43:31.579Z</time></trkpt><trkpt lat="37.9277133" lon="15.93464"><ele>29.5</ele><time>2026-04-04T13:43:32.579Z</time></trkpt><trkpt lat="37.9278133" lon="15.9345217"><ele>30.0</ele><time>2026-04-04T13:43:33.58Z</time></trkpt><trkpt lat="37.927905" lon="15.934395"><ele>30.5</ele><time>2026-04-04T13:43:34.579Z</time></trkpt><trkpt lat="37.92799" lon="15.934255"><ele>31.0</ele><time>2026-04-04T13:43:35.58Z</time></trkpt><trkpt lat="37.9280817" lon="15.9341333"><ele>31.0</ele><time>2026-04-04T13:43:36.579Z</time></trkpt><trkpt lat="37.9281633" lon="15.934015"><ele>31.0</ele><time>2026-04-04T13:43:37.579Z</time></trkpt><trkpt lat="37.9282533" lon="15.9339017"><ele>31.0</ele><time>2026-04-04T13:43:38.58Z</time></trkpt><trkpt lat="37.9283417" lon="15.9337917"><ele>31.0</ele><time>2026-04-04T13:43:39.58Z</time></trkpt><trkpt lat="37.9284317" lon="15.9336833"><ele>30.8</ele><time>2026-04-04T13:43:40.58Z</time></trkpt><trkpt lat="37.92851" lon="15.9335617"><ele>30.6</ele><time>2026-04-04T13:43:41.579Z</time></trkpt><trkpt lat="37.92858" lon="15.9334517"><ele>30.4</ele><time>2026-04-04T13:43:42.579Z</time></trkpt><trkpt lat="37.9286433" lon="15.9333467"><ele>30.2</ele><time>2026-04-04T13:43:43.579Z</time></trkpt><trkpt lat="37.9287017" lon="15.9332367"><ele>30.0</ele><time>2026-04-04T13:43:44.579Z</time></trkpt><trkpt lat="37.92876" lon="15.9331183"><ele>30.0</ele><time>2026-04-04T13:43:45.579Z</time></trkpt><trkpt lat="37.928815" lon="15.933005"><ele>30.0</ele><time>2026-04-04T13:43:46.58Z</time></trkpt><trkpt lat="37.9288667" lon="15.9328917"><ele>30.0</ele><time>2026-04-04T13:43:47.58Z</time></trkpt><trkpt lat="37.928885" lon="15.9327683"><ele>30.0</ele><time>2026-04-04T13:43:48.58Z</time></trkpt><trkpt lat="37.9288983" lon="15.932645"><ele>30.0</ele><time>2026-04-04T13:43:49.579Z</time></trkpt><trkpt lat="37.9288867" lon="15.932515"><ele>28.4</ele><time>2026-04-04T13:43:50.58Z</time></trkpt><trkpt lat="37.928865" lon="15.9323733"><ele>26.8</ele><time>2026-04-04T13:43:51.579Z</time></trkpt><trkpt lat="37.9288517" lon="15.9322383"><ele>25.200000000000003</ele><time>2026-04-04T13:43:52.579Z</time></trkpt><trkpt lat="37.9288467" lon="15.9320983"><ele>23.6</ele><time>2026-04-04T13:43:53.579Z</time></trkpt><trkpt lat="37.928855" lon="15.9319767"><ele>22.0</ele><time>2026-04-04T13:43:54.579Z</time></trkpt><trkpt lat="37.92888" lon="15.9318517"><ele>22.0</ele><time>2026-04-04T13:43:55.579Z</time></trkpt><trkpt lat="37.9289333" lon="15.93173"><ele>22.0</ele><time>2026-04-04T13:43:56.579Z</time></trkpt><trkpt lat="37.9289933" lon="15.931605"><ele>22.0</ele><time>2026-04-04T13:43:57.579Z</time></trkpt><trkpt lat="37.9290633" lon="15.9314717"><ele>22.0</ele><time>2026-04-04T13:43:58.579Z</time></trkpt><trkpt lat="37.9291167" lon="15.9313433"><ele>22.0</ele><time>2026-04-04T13:43:59.579Z</time></trkpt><trkpt lat="37.9291583" lon="15.9312017"><ele>22.0</ele><time>2026-04-04T13:44:00.58Z</time></trkpt><trkpt lat="37.9291983" lon="15.9310733"><ele>22.0</ele><time>2026-04-04T13:44:01.579Z</time></trkpt><trkpt lat="37.9292317" lon="15.93095"><ele>22.0</ele><time>2026-04-04T13:44:02.58Z</time></trkpt><trkpt lat="37.9292817" lon="15.9308417"><ele>22.0</ele><time>2026-04-04T13:44:03.58Z</time></trkpt><trkpt lat="37.929315" lon="15.93074"><ele>20.8</ele><time>2026-04-04T13:44:04.579Z</time></trkpt><trkpt lat="37.9293417" lon="15.9306417"><ele>19.6</ele><time>2026-04-04T13:44:05.58Z</time></trkpt><trkpt lat="37.9293567" lon="15.9305367"><ele>18.400000000000002</ele><time>2026-04-04T13:44:06.579Z</time></trkpt><trkpt lat="37.9293683" lon="15.9304167"><ele>17.200000000000003</ele><time>2026-04-04T13:44:07.579Z</time></trkpt><trkpt lat="37.929385" lon="15.9302967"><ele>16.0</ele><time>2026-04-04T13:44:08.579Z</time></trkpt><trkpt lat="37.9294033" lon="15.9301517"><ele>14.75</ele><time>2026-04-04T13:44:09.579Z</time></trkpt><trkpt lat="37.9294317" lon="15.9300017"><ele>13.5</ele><time>2026-04-04T13:44:10.58Z</time></trkpt><trkpt lat="37.9294667" lon="15.9298317"><ele>12.25</ele><time>2026-04-04T13:44:11.579Z</time></trkpt><trkpt lat="37.929495" lon="15.92965"><ele>11.0</ele><time>2026-04-04T13:44:12.579Z</time></trkpt><trkpt lat="37.9295283" lon="15.92947"><ele>11.0</ele><time>2026-04-04T13:44:13.579Z</time></trkpt><trkpt lat="37.9295633" lon="15.9292867"><ele>11.0</ele><time>2026-04-04T13:44:14.579Z</time></trkpt><trkpt lat="37.9295833" lon="15.9291017"><ele>11.0</ele><time>2026-04-04T13:44:15.58Z</time></trkpt><trkpt lat="37.9296033" lon="15.92892"><ele>11.0</ele><time>2026-04-04T13:44:16.579Z</time></trkpt><trkpt lat="37.9296233" lon="15.9287417"><ele>10.75</ele><time>2026-04-04T13:44:17.579Z</time></trkpt><trkpt lat="37.929645" lon="15.9285683"><ele>10.5</ele><time>2026-04-04T13:44:18.579Z</time></trkpt><trkpt lat="37.929665" lon="15.9284033"><ele>10.25</ele><time>2026-04-04T13:44:19.579Z</time></trkpt><trkpt lat="37.9296917" lon="15.9282417"><ele>10.0</ele><time>2026-04-04T13:44:20.579Z</time></trkpt><trkpt lat="37.9297117" lon="15.928075"><ele>9.75</ele><time>2026-04-04T13:44:21.579Z</time></trkpt><trkpt lat="37.9297367" lon="15.9279167"><ele>9.5</ele><time>2026-04-04T13:44:22.579Z</time></trkpt><trkpt lat="37.929755" lon="15.92776"><ele>9.25</ele><time>2026-04-04T13:44:23.579Z</time></trkpt><trkpt lat="37.9297817" lon="15.9275983"><ele>9.0</ele><time>2026-04-04T13:44:24.58Z</time></trkpt><trkpt lat="37.9298067" lon="15.9274467"><ele>8.5</ele><time>2026-04-04T13:44:25.579Z</time></trkpt><trkpt lat="37.9298317" lon="15.9272967"><ele>8.0</ele><time>2026-04-04T13:44:26.58Z</time></trkpt><trkpt lat="37.9298583" lon="15.927165"><ele>7.5</ele><time>2026-04-04T13:44:27.579Z</time></trkpt><trkpt lat="37.92988" lon="15.927025"><ele>7.0</ele><time>2026-04-04T13:44:28.579Z</time></trkpt><trkpt lat="37.9299033" lon="15.926885"><ele>7.0</ele><time>2026-04-04T13:44:29.58Z</time></trkpt><trkpt lat="37.9299283" lon="15.92674"><ele>6.999999999999999</ele><time>2026-04-04T13:44:30.58Z</time></trkpt><trkpt lat="37.9299483" lon="15.9266117"><ele>6.999999999999999</ele><time>2026-04-04T13:44:31.579Z</time></trkpt><trkpt lat="37.9299667" lon="15.9264817"><ele>7.0</ele><time>2026-04-04T13:44:32.579Z</time></trkpt><trkpt lat="37.9299767" lon="15.92636"><ele>7.0</ele><time>2026-04-04T13:44:33.579Z</time></trkpt><trkpt lat="37.9299967" lon="15.9262467"><ele>6.6</ele><time>2026-04-04T13:44:34.579Z</time></trkpt><trkpt lat="37.930015" lon="15.9261433"><ele>6.199999999999999</ele><time>2026-04-04T13:44:35.579Z</time></trkpt><trkpt lat="37.93003" lon="15.926045"><ele>5.8</ele><time>2026-04-04T13:44:36.579Z</time></trkpt><trkpt lat="37.9300467" lon="15.9259567"><ele>5.4</ele><time>2026-04-04T13:44:37.579Z</time></trkpt><trkpt lat="37.93011" lon="15.925825"><ele>5.0</ele><time>2026-04-04T13:44:39.579Z</time></trkpt><trkpt lat="37.9302083" lon="15.925745"><ele>6.333333333333334</ele><time>2026-04-04T13:44:41.579Z</time></trkpt><trkpt lat="37.9302617" lon="15.92569"><ele>7.666666666666666</ele><time>2026-04-04T13:44:42.579Z</time></trkpt><trkpt lat="37.93031" lon="15.9256167"><ele>9.0</ele><time>2026-04-04T13:44:43.579Z</time></trkpt><trkpt lat="37.9303517" lon="15.9255267"><ele>10.333333333333332</ele><time>2026-04-04T13:44:44.58Z</time></trkpt><trkpt lat="37.9303833" lon="15.9254183"><ele>11.666666666666666</ele><time>2026-04-04T13:44:45.579Z</time></trkpt><trkpt lat="37.9304017" lon="15.9253083"><ele>13.0</ele><time>2026-04-04T13:44:46.579Z</time></trkpt><trkpt lat="37.93042" lon="15.9251967"><ele>12.999999999999998</ele><time>2026-04-04T13:44:47.58Z</time></trkpt><trkpt lat="37.9304317" lon="15.92509"><ele>13.0</ele><time>2026-04-04T13:44:48.579Z</time></trkpt><trkpt lat="37.930455" lon="15.9249767"><ele>13.0</ele><time>2026-04-04T13:44:49.579Z</time></trkpt><trkpt lat="37.930475" lon="15.92487"><ele>13.0</ele><time>2026-04-04T13:44:50.579Z</time></trkpt><trkpt lat="37.930495" lon="15.9247667"><ele>12.999999999999998</ele><time>2026-04-04T13:44:51.579Z</time></trkpt><trkpt lat="37.93052" lon="15.92467"><ele>13.0</ele><time>2026-04-04T13:44:52.579Z</time></trkpt><trkpt lat="37.9305367" lon="15.9245767"><ele>13.600000000000001</ele><time>2026-04-04T13:44:53.579Z</time></trkpt><trkpt lat="37.9305433" lon="15.92449"><ele>14.200000000000001</ele><time>2026-04-04T13:44:54.579Z</time></trkpt><trkpt lat="37.930575" lon="15.92436"><ele>14.8</ele><time>2026-04-04T13:44:56.579Z</time></trkpt><trkpt lat="37.9305917" lon="15.9242317"><ele>15.4</ele><time>2026-04-04T13:44:58.58Z</time></trkpt><trkpt lat="37.9306133" lon="15.9241017"><ele>16.0</ele><time>2026-04-04T13:45:00.579Z</time></trkpt><trkpt lat="37.9306117" lon="15.9239883"><ele>15.999999999999998</ele><time>2026-04-04T13:45:02.58Z</time></trkpt><trkpt lat="37.9306017" lon="15.9238983"><ele>16.0</ele><time>2026-04-04T13:45:05.579Z</time></trkpt><trkpt lat="37.9306033" lon="15.9240183"><ele>16.0</ele><time>2026-04-04T14:05:48.58Z</time></trkpt><trkpt lat="37.9305783" lon="15.9241483"><ele>16.0</ele><time>2026-04-04T14:05:50.579Z</time></trkpt><trkpt lat="37.9305483" lon="15.92422"><ele>15.999999999999998</ele><time>2026-04-04T14:05:52.579Z</time></trkpt><trkpt lat="37.9305417" lon="15.9243117"><ele>16.0</ele><time>2026-04-04T14:05:56.579Z</time></trkpt><trkpt lat="37.9305917" lon="15.9242317"><ele>16.0</ele><time>2026-04-04T14:06:00.579Z</time></trkpt><trkpt lat="37.9306133" lon="15.9240933"><ele>16.0</ele><time>2026-04-04T14:06:02.579Z</time></trkpt><trkpt lat="37.930635" lon="15.92398"><ele>16.0</ele><time>2026-04-04T14:06:04.58Z</time></trkpt><trkpt lat="37.93066" lon="15.92389"><ele>16.0</ele><time>2026-04-04T14:06:07.579Z</time></trkpt><trkpt lat="37.9306683" lon="15.9237633"><ele>16.0</ele><time>2026-04-04T14:06:21.579Z</time></trkpt><trkpt lat="37.930695" lon="15.9236267"><ele>16.0</ele><time>2026-04-04T14:06:22.579Z</time></trkpt><trkpt lat="37.9307033" lon="15.923445"><ele>16.0</ele><time>2026-04-04T14:06:23.579Z</time></trkpt><trkpt lat="37.9307133" lon="15.9232683"><ele>16.0</ele><time>2026-04-04T14:06:24.58Z</time></trkpt><trkpt lat="37.930715" lon="15.923135"><ele>16.0</ele><time>2026-04-04T14:06:25.579Z</time></trkpt><trkpt lat="37.93071" lon="15.9230083"><ele>15.8</ele><time>2026-04-04T14:06:26.579Z</time></trkpt><trkpt lat="37.9307067" lon="15.9228867"><ele>15.600000000000001</ele><time>2026-04-04T14:06:27.579Z</time></trkpt><trkpt lat="37.9307017" lon="15.9227633"><ele>15.4</ele><time>2026-04-04T14:06:28.579Z</time></trkpt><trkpt lat="37.9306867" lon="15.9226467"><ele>15.2</ele><time>2026-04-04T14:06:29.579Z</time></trkpt><trkpt lat="37.93068" lon="15.9225267"><ele>15.0</ele><time>2026-04-04T14:06:30.579Z</time></trkpt><trkpt lat="37.9306717" lon="15.9223933"><ele>15.0</ele><time>2026-04-04T14:06:31.579Z</time></trkpt><trkpt lat="37.9306517" lon="15.9222583"><ele>15.0</ele><time>2026-04-04T14:06:32.579Z</time></trkpt><trkpt lat="37.9306333" lon="15.92212"><ele>15.0</ele><time>2026-04-04T14:06:33.58Z</time></trkpt><trkpt lat="37.9306283" lon="15.9219783"><ele>15.0</ele><time>2026-04-04T14:06:34.579Z</time></trkpt><trkpt lat="37.9306217" lon="15.9218383"><ele>15.0</ele><time>2026-04-04T14:06:35.579Z</time></trkpt><trkpt lat="37.930625" lon="15.9217017"><ele>14.25</ele><time>2026-04-04T14:06:36.579Z</time></trkpt><trkpt lat="37.9306217" lon="15.9215617"><ele>13.5</ele><time>2026-04-04T14:06:37.58Z</time></trkpt><trkpt lat="37.9306183" lon="15.9214133"><ele>12.75</ele><time>2026-04-04T14:06:38.579Z</time></trkpt><trkpt lat="37.9306067" lon="15.9212633"><ele>12.0</ele><time>2026-04-04T14:06:39.579Z</time></trkpt><trkpt lat="37.9306" lon="15.921115"><ele>12.0</ele><time>2026-04-04T14:06:40.579Z</time></trkpt><trkpt lat="37.9305967" lon="15.92097"><ele>12.0</ele><time>2026-04-04T14:06:41.58Z</time></trkpt><trkpt lat="37.93059" lon="15.920835"><ele>12.0</ele><time>2026-04-04T14:06:42.579Z</time></trkpt><trkpt lat="37.930585" lon="15.9207033"><ele>12.0</ele><time>2026-04-04T14:06:43.579Z</time></trkpt><trkpt lat="37.9305817" lon="15.9205667"><ele>12.0</ele><time>2026-04-04T14:06:44.58Z</time></trkpt><trkpt lat="37.9305717" lon="15.9204417"><ele>12.0</ele><time>2026-04-04T14:06:45.579Z</time></trkpt><trkpt lat="37.9305633" lon="15.920315"><ele>12.0</ele><time>2026-04-04T14:06:46.579Z</time></trkpt><trkpt lat="37.93056" lon="15.9201783"><ele>12.0</ele><time>2026-04-04T14:06:47.579Z</time></trkpt><trkpt lat="37.930565" lon="15.9200383"><ele>12.0</ele><time>2026-04-04T14:06:48.579Z</time></trkpt><trkpt lat="37.9305533" lon="15.91989"><ele>12.0</ele><time>2026-04-04T14:06:49.579Z</time></trkpt><trkpt lat="37.9305317" lon="15.9197283"><ele>12.25</ele><time>2026-04-04T14:06:50.579Z</time></trkpt><trkpt lat="37.930515" lon="15.919545"><ele>12.5</ele><time>2026-04-04T14:06:51.579Z</time></trkpt><trkpt lat="37.9305067" lon="15.919365"><ele>12.75</ele><time>2026-04-04T14:06:52.579Z</time></trkpt><trkpt lat="37.9304867" lon="15.9191917"><ele>13.0</ele><time>2026-04-04T14:06:53.579Z</time></trkpt><trkpt lat="37.930475" lon="15.9190383"><ele>13.0</ele><time>2026-04-04T14:06:54.58Z</time></trkpt><trkpt lat="37.93046" lon="15.9188967"><ele>13.0</ele><time>2026-04-04T14:06:55.579Z</time></trkpt><trkpt lat="37.9304633" lon="15.9187633"><ele>13.0</ele><time>2026-04-04T14:06:56.579Z</time></trkpt><trkpt lat="37.9304617" lon="15.9186533"><ele>13.0</ele><time>2026-04-04T14:06:57.58Z</time></trkpt><trkpt lat="37.9304583" lon="15.91855"><ele>13.0</ele><time>2026-04-04T14:06:58.579Z</time></trkpt><trkpt lat="37.9304533" lon="15.9184533"><ele>12.666666666666666</ele><time>2026-04-04T14:06:59.58Z</time></trkpt><trkpt lat="37.9304383" lon="15.9183567"><ele>12.333333333333332</ele><time>2026-04-04T14:07:00.579Z</time></trkpt><trkpt lat="37.93044" lon="15.9182483"><ele>12.0</ele><time>2026-04-04T14:07:01.579Z</time></trkpt><trkpt lat="37.93044" lon="15.918135"><ele>11.666666666666666</ele><time>2026-04-04T14:07:02.579Z</time></trkpt><trkpt lat="37.930435" lon="15.9180267"><ele>11.333333333333332</ele><time>2026-04-04T14:07:03.579Z</time></trkpt><trkpt lat="37.93043" lon="15.9179317"><ele>11.0</ele><time>2026-04-04T14:07:04.579Z</time></trkpt><trkpt lat="37.9304283" lon="15.917845"><ele>11.0</ele><time>2026-04-04T14:07:05.58Z</time></trkpt><trkpt lat="37.9304117" lon="15.9177633"><ele>11.0</ele><time>2026-04-04T14:07:06.58Z</time></trkpt><trkpt lat="37.9304" lon="15.9176667"><ele>11.0</ele><time>2026-04-04T14:07:07.579Z</time></trkpt><trkpt lat="37.93039" lon="15.917555"><ele>11.0</ele><time>2026-04-04T14:07:08.579Z</time></trkpt><trkpt lat="37.9303867" lon="15.9174267"><ele>11.0</ele><time>2026-04-04T14:07:09.579Z</time></trkpt><trkpt lat="37.93038" lon="15.9172817"><ele>11.0</ele><time>2026-04-04T14:07:10.579Z</time></trkpt><trkpt lat="37.9303817" lon="15.917145"><ele>11.0</ele><time>2026-04-04T14:07:11.579Z</time></trkpt><trkpt lat="37.9303717" lon="15.91702"><ele>11.0</ele><time>2026-04-04T14:07:12.579Z</time></trkpt><trkpt lat="37.930365" lon="15.9168983"><ele>11.0</ele><time>2026-04-04T14:07:13.579Z</time></trkpt><trkpt lat="37.93036" lon="15.9167633"><ele>11.0</ele><time>2026-04-04T14:07:14.579Z</time></trkpt><trkpt lat="37.9303483" lon="15.916625"><ele>11.0</ele><time>2026-04-04T14:07:15.579Z</time></trkpt><trkpt lat="37.930335" lon="15.9164833"><ele>11.0</ele><time>2026-04-04T14:07:16.579Z</time></trkpt><trkpt lat="37.93032" lon="15.916345"><ele>11.0</ele><time>2026-04-04T14:07:17.579Z</time></trkpt><trkpt lat="37.930295" lon="15.9161933"><ele>11.0</ele><time>2026-04-04T14:07:18.579Z</time></trkpt><trkpt lat="37.930275" lon="15.9160317"><ele>11.0</ele><time>2026-04-04T14:07:19.579Z</time></trkpt><trkpt lat="37.930255" lon="15.915865"><ele>10.5</ele><time>2026-04-04T14:07:20.579Z</time></trkpt><trkpt lat="37.9302333" lon="15.9156867"><ele>10.0</ele><time>2026-04-04T14:07:21.579Z</time></trkpt><trkpt lat="37.9302133" lon="15.9155017"><ele>9.5</ele><time>2026-04-04T14:07:22.58Z</time></trkpt><trkpt lat="37.930185" lon="15.9153217"><ele>9.0</ele><time>2026-04-04T14:07:23.579Z</time></trkpt><trkpt lat="37.93016" lon="15.9151467"><ele>9.5</ele><time>2026-04-04T14:07:24.579Z</time></trkpt><trkpt lat="37.93012" lon="15.914985"><ele>10.0</ele><time>2026-04-04T14:07:25.579Z</time></trkpt><trkpt lat="37.9301067" lon="15.9148117"><ele>10.5</ele><time>2026-04-04T14:07:26.579Z</time></trkpt><trkpt lat="37.930095" lon="15.9146367"><ele>11.0</ele><time>2026-04-04T14:07:27.579Z</time></trkpt><trkpt lat="37.93008" lon="15.9144517"><ele>11.0</ele><time>2026-04-04T14:07:28.579Z</time></trkpt><trkpt lat="37.9300533" lon="15.9142767"><ele>11.0</ele><time>2026-04-04T14:07:29.579Z</time></trkpt><trkpt lat="37.930025" lon="15.9141033"><ele>11.0</ele><time>2026-04-04T14:07:30.579Z</time></trkpt><trkpt lat="37.9299967" lon="15.9139283"><ele>11.0</ele><time>2026-04-04T14:07:31.58Z</time></trkpt><trkpt lat="37.9299667" lon="15.913745"><ele>11.0</ele><time>2026-04-04T14:07:32.579Z</time></trkpt><trkpt lat="37.9299217" lon="15.91358"><ele>11.0</ele><time>2026-04-04T14:07:33.579Z</time></trkpt><trkpt lat="37.92986" lon="15.9132167"><ele>11.0</ele><time>2026-04-04T14:07:35.579Z</time></trkpt><trkpt lat="37.9298333" lon="15.9130217"><ele>11.333333333333332</ele><time>2026-04-04T14:07:36.58Z</time></trkpt><trkpt lat="37.9298033" lon="15.9128267"><ele>11.666666666666666</ele><time>2026-04-04T14:07:37.579Z</time></trkpt><trkpt lat="37.929755" lon="15.912625"><ele>12.0</ele><time>2026-04-04T14:07:38.579Z</time></trkpt><trkpt lat="37.92972" lon="15.9124183"><ele>12.666666666666668</ele><time>2026-04-04T14:07:39.58Z</time></trkpt><trkpt lat="37.92969" lon="15.9122067"><ele>13.333333333333334</ele><time>2026-04-04T14:07:40.579Z</time></trkpt><trkpt lat="37.9296467" lon="15.9120067"><ele>14.0</ele><time>2026-04-04T14:07:41.579Z</time></trkpt><trkpt lat="37.929615" lon="15.9118083"><ele>13.666666666666668</ele><time>2026-04-04T14:07:42.579Z</time></trkpt><trkpt lat="37.9295783" lon="15.9115967"><ele>13.333333333333332</ele><time>2026-04-04T14:07:43.58Z</time></trkpt><trkpt lat="37.92954" lon="15.911375"><ele>13.0</ele><time>2026-04-04T14:07:44.579Z</time></trkpt><trkpt lat="37.929505" lon="15.911165"><ele>13.0</ele><time>2026-04-04T14:07:45.579Z</time></trkpt><trkpt lat="37.92946" lon="15.9109633"><ele>13.0</ele><time>2026-04-04T14:07:46.579Z</time></trkpt><trkpt lat="37.929425" lon="15.91077"><ele>13.0</ele><time>2026-04-04T14:07:47.579Z</time></trkpt><trkpt lat="37.9293917" lon="15.9105667"><ele>12.75</ele><time>2026-04-04T14:07:48.579Z</time></trkpt><trkpt lat="37.9293783" lon="15.9103883"><ele>12.5</ele><time>2026-04-04T14:07:49.579Z</time></trkpt><trkpt lat="37.9293733" lon="15.9102117"><ele>12.25</ele><time>2026-04-04T14:07:50.579Z</time></trkpt><trkpt lat="37.92935" lon="15.9100383"><ele>12.0</ele><time>2026-04-04T14:07:51.579Z</time></trkpt><trkpt lat="37.9293283" lon="15.909845"><ele>11.25</ele><time>2026-04-04T14:07:52.579Z</time></trkpt><trkpt lat="37.9293133" lon="15.909655"><ele>10.5</ele><time>2026-04-04T14:07:53.579Z</time></trkpt><trkpt lat="37.9293083" lon="15.9094683"><ele>9.75</ele><time>2026-04-04T14:07:54.58Z</time></trkpt><trkpt lat="37.929285" lon="15.9092833"><ele>9.0</ele><time>2026-04-04T14:07:55.579Z</time></trkpt><trkpt lat="37.9292633" lon="15.9090917"><ele>9.0</ele><time>2026-04-04T14:07:56.579Z</time></trkpt><trkpt lat="37.9292517" lon="15.9088933"><ele>9.0</ele><time>2026-04-04T14:07:57.579Z</time></trkpt><trkpt lat="37.9292383" lon="15.90869"><ele>9.0</ele><time>2026-04-04T14:07:58.58Z</time></trkpt><trkpt lat="37.9292267" lon="15.9084767"><ele>9.0</ele><time>2026-04-04T14:07:59.579Z</time></trkpt><trkpt lat="37.9292017" lon="15.9082517"><ele>9.0</ele><time>2026-04-04T14:08:00.579Z</time></trkpt><trkpt lat="37.9291667" lon="15.9080483"><ele>9.0</ele><time>2026-04-04T14:08:01.579Z</time></trkpt><trkpt lat="37.929135" lon="15.9078333"><ele>9.0</ele><time>2026-04-04T14:08:02.579Z</time></trkpt><trkpt lat="37.9291017" lon="15.9076183"><ele>9.0</ele><time>2026-04-04T14:08:03.579Z</time></trkpt><trkpt lat="37.9290717" lon="15.9074167"><ele>9.0</ele><time>2026-04-04T14:08:04.579Z</time></trkpt><trkpt lat="37.92905" lon="15.907215"><ele>9.666666666666666</ele><time>2026-04-04T14:08:05.579Z</time></trkpt><trkpt lat="37.9290233" lon="15.907015"><ele>10.333333333333332</ele><time>2026-04-04T14:08:06.579Z</time></trkpt><trkpt lat="37.929" lon="15.9068133"><ele>11.0</ele><time>2026-04-04T14:08:07.579Z</time></trkpt><trkpt lat="37.928975" lon="15.9066167"><ele>11.0</ele><time>2026-04-04T14:08:08.579Z</time></trkpt><trkpt lat="37.9289417" lon="15.9064217"><ele>11.0</ele><time>2026-04-04T14:08:09.58Z</time></trkpt><trkpt lat="37.9289167" lon="15.9062283"><ele>11.0</ele><time>2026-04-04T14:08:10.579Z</time></trkpt><trkpt lat="37.9288883" lon="15.9060317"><ele>11.0</ele><time>2026-04-04T14:08:11.579Z</time></trkpt><trkpt lat="37.92886" lon="15.9058367"><ele>11.0</ele><time>2026-04-04T14:08:12.579Z</time></trkpt><trkpt lat="37.9288333" lon="15.90565"><ele>11.0</ele><time>2026-04-04T14:08:13.58Z</time></trkpt><trkpt lat="37.9288117" lon="15.9054517"><ele>11.0</ele><time>2026-04-04T14:08:14.579Z</time></trkpt><trkpt lat="37.9287867" lon="15.905245"><ele>11.0</ele><time>2026-04-04T14:08:15.579Z</time></trkpt><trkpt lat="37.9287567" lon="15.9050433"><ele>11.0</ele><time>2026-04-04T14:08:16.579Z</time></trkpt><trkpt lat="37.9287233" lon="15.9048517"><ele>11.5</ele><time>2026-04-04T14:08:17.579Z</time></trkpt><trkpt lat="37.9286817" lon="15.9046717"><ele>12.0</ele><time>2026-04-04T14:08:18.579Z</time></trkpt><trkpt lat="37.9286417" lon="15.904515"><ele>12.5</ele><time>2026-04-04T14:08:19.579Z</time></trkpt><trkpt lat="37.9286" lon="15.9043683"><ele>13.0</ele><time>2026-04-04T14:08:20.579Z</time></trkpt><trkpt lat="37.9285617" lon="15.9042383"><ele>13.600000000000001</ele><time>2026-04-04T14:08:21.579Z</time></trkpt><trkpt lat="37.928525" lon="15.90412"><ele>14.200000000000001</ele><time>2026-04-04T14:08:22.58Z</time></trkpt><trkpt lat="37.928485" lon="15.9040117"><ele>14.8</ele><time>2026-04-04T14:08:23.579Z</time></trkpt><trkpt lat="37.9284483" lon="15.9039067"><ele>15.4</ele><time>2026-04-04T14:08:24.579Z</time></trkpt><trkpt lat="37.9284267" lon="15.90382"><ele>16.0</ele><time>2026-04-04T14:08:25.579Z</time></trkpt><trkpt lat="37.9284117" lon="15.903695"><ele>15.999999999999998</ele><time>2026-04-04T14:08:27.579Z</time></trkpt><trkpt lat="37.9284283" lon="15.9036133"><ele>16.0</ele><time>2026-04-04T14:08:29.579Z</time></trkpt><trkpt lat="37.9284683" lon="15.9035283"><ele>16.0</ele><time>2026-04-04T14:08:31.579Z</time></trkpt><trkpt lat="37.928505" lon="15.903425"><ele>16.0</ele><time>2026-04-04T14:08:33.579Z</time></trkpt><trkpt lat="37.9285067" lon="15.903335"><ele>15.999999999999998</ele><time>2026-04-04T14:08:34.579Z</time></trkpt><trkpt lat="37.9284917" lon="15.9032217"><ele>16.0</ele><time>2026-04-04T14:08:35.58Z</time></trkpt><trkpt lat="37.9284567" lon="15.9030767"><ele>15.666666666666666</ele><time>2026-04-04T14:08:36.579Z</time></trkpt><trkpt lat="37.9284183" lon="15.9029017"><ele>15.333333333333332</ele><time>2026-04-04T14:08:37.58Z</time></trkpt><trkpt lat="37.9283883" lon="15.9027"><ele>15.0</ele><time>2026-04-04T14:08:38.579Z</time></trkpt><trkpt lat="37.9283667" lon="15.9024817"><ele>13.333333333333334</ele><time>2026-04-04T14:08:39.579Z</time></trkpt><trkpt lat="37.928355" lon="15.9022467"><ele>11.666666666666668</ele><time>2026-04-04T14:08:40.579Z</time></trkpt><trkpt lat="37.9283367" lon="15.9020033"><ele>10.0</ele><time>2026-04-04T14:08:41.579Z</time></trkpt><trkpt lat="37.92832" lon="15.9017617"><ele>10.0</ele><time>2026-04-04T14:08:42.579Z</time></trkpt><trkpt lat="37.92831" lon="15.901515"><ele>10.0</ele><time>2026-04-04T14:08:43.579Z</time></trkpt><trkpt lat="37.928295" lon="15.9012667"><ele>10.0</ele><time>2026-04-04T14:08:44.58Z</time></trkpt><trkpt lat="37.9282783" lon="15.9010233"><ele>10.0</ele><time>2026-04-04T14:08:45.58Z</time></trkpt><trkpt lat="37.9282683" lon="15.9007717"><ele>10.0</ele><time>2026-04-04T14:08:46.579Z</time></trkpt><trkpt lat="37.92825" lon="15.9005167"><ele>10.0</ele><time>2026-04-04T14:08:47.579Z</time></trkpt><trkpt lat="37.9282483" lon="15.90026"><ele>10.0</ele><time>2026-04-04T14:08:48.579Z</time></trkpt><trkpt lat="37.9282467" lon="15.9000067"><ele>10.0</ele><time>2026-04-04T14:08:49.579Z</time></trkpt><trkpt lat="37.9282417" lon="15.8997517"><ele>10.0</ele><time>2026-04-04T14:08:50.579Z</time></trkpt><trkpt lat="37.9282383" lon="15.8994933"><ele>10.0</ele><time>2026-04-04T14:08:51.579Z</time></trkpt><trkpt lat="37.928235" lon="15.899245"><ele>10.0</ele><time>2026-04-04T14:08:52.579Z</time></trkpt><trkpt lat="37.9282367" lon="15.8990033"><ele>10.0</ele><time>2026-04-04T14:08:53.579Z</time></trkpt><trkpt lat="37.9282367" lon="15.8987483"><ele>10.0</ele><time>2026-04-04T14:08:54.579Z</time></trkpt><trkpt lat="37.92825" lon="15.8984983"><ele>10.0</ele><time>2026-04-04T14:08:55.579Z</time></trkpt><trkpt lat="37.9282633" lon="15.8982367"><ele>10.0</ele><time>2026-04-04T14:08:56.579Z</time></trkpt><trkpt lat="37.928275" lon="15.8979683"><ele>9.5</ele><time>2026-04-04T14:08:57.579Z</time></trkpt><trkpt lat="37.9282717" lon="15.8976783"><ele>9.0</ele><time>2026-04-04T14:08:58.579Z</time></trkpt><trkpt lat="37.9282717" lon="15.8973817"><ele>8.5</ele><time>2026-04-04T14:08:59.579Z</time></trkpt><trkpt lat="37.92827" lon="15.897085"><ele>8.0</ele><time>2026-04-04T14:09:00.579Z</time></trkpt><trkpt lat="37.9282733" lon="15.8967733"><ele>8.0</ele><time>2026-04-04T14:09:01.579Z</time></trkpt><trkpt lat="37.9282667" lon="15.8964483"><ele>8.0</ele><time>2026-04-04T14:09:02.58Z</time></trkpt><trkpt lat="37.9282767" lon="15.8961217"><ele>8.0</ele><time>2026-04-04T14:09:03.58Z</time></trkpt><trkpt lat="37.928295" lon="15.8958"><ele>8.0</ele><time>2026-04-04T14:09:04.58Z</time></trkpt><trkpt lat="37.9283017" lon="15.8954817"><ele>8.0</ele><time>2026-04-04T14:09:05.579Z</time></trkpt><trkpt lat="37.9283083" lon="15.89516"><ele>8.0</ele><time>2026-04-04T14:09:06.579Z</time></trkpt><trkpt lat="37.928315" lon="15.8948383"><ele>7.5</ele><time>2026-04-04T14:09:07.579Z</time></trkpt><trkpt lat="37.928325" lon="15.8945233"><ele>7.0</ele><time>2026-04-04T14:09:08.58Z</time></trkpt><trkpt lat="37.9283333" lon="15.8942033"><ele>7.0</ele><time>2026-04-04T14:09:09.579Z</time></trkpt><trkpt lat="37.9283417" lon="15.8938817"><ele>7.0</ele><time>2026-04-04T14:09:10.58Z</time></trkpt><trkpt lat="37.928355" lon="15.89356"><ele>7.5</ele><time>2026-04-04T14:09:11.58Z</time></trkpt><trkpt lat="37.928385" lon="15.8932383"><ele>8.0</ele><time>2026-04-04T14:09:12.577Z</time></trkpt><trkpt lat="37.92843" lon="15.8929283"><ele>8.0</ele><time>2026-04-04T14:09:13.58Z</time></trkpt><trkpt lat="37.9284667" lon="15.89262"><ele>8.0</ele><time>2026-04-04T14:09:14.58Z</time></trkpt><trkpt lat="37.928515" lon="15.892305"><ele>8.0</ele><time>2026-04-04T14:09:15.579Z</time></trkpt><trkpt lat="37.9285583" lon="15.8919967"><ele>8.0</ele><time>2026-04-04T14:09:16.58Z</time></trkpt><trkpt lat="37.9286017" lon="15.89169"><ele>8.5</ele><time>2026-04-04T14:09:17.579Z</time></trkpt><trkpt lat="37.9286367" lon="15.8913883"><ele>9.0</ele><time>2026-04-04T14:09:18.579Z</time></trkpt><trkpt lat="37.9286683" lon="15.891085"><ele>9.0</ele><time>2026-04-04T14:09:19.579Z</time></trkpt><trkpt lat="37.9286917" lon="15.8907883"><ele>9.0</ele><time>2026-04-04T14:09:20.579Z</time></trkpt><trkpt lat="37.928715" lon="15.8905017"><ele>9.0</ele><time>2026-04-04T14:09:21.579Z</time></trkpt><trkpt lat="37.9287317" lon="15.8902283"><ele>9.0</ele><time>2026-04-04T14:09:22.579Z</time></trkpt><trkpt lat="37.928755" lon="15.889955"><ele>9.0</ele><time>2026-04-04T14:09:23.58Z</time></trkpt><trkpt lat="37.92877" lon="15.889675"><ele>8.666666666666666</ele><time>2026-04-04T14:09:24.58Z</time></trkpt><trkpt lat="37.928795" lon="15.8894083"><ele>8.333333333333332</ele><time>2026-04-04T14:09:25.58Z</time></trkpt><trkpt lat="37.92881" lon="15.88913"><ele>8.0</ele><time>2026-04-04T14:09:26.579Z</time></trkpt><trkpt lat="37.9288333" lon="15.888845"><ele>7.0</ele><time>2026-04-04T14:09:27.579Z</time></trkpt><trkpt lat="37.9288417" lon="15.8885567"><ele>6.0</ele><time>2026-04-04T14:09:28.579Z</time></trkpt><trkpt lat="37.92886" lon="15.8882617"><ele>6.0</ele><time>2026-04-04T14:09:29.579Z</time></trkpt><trkpt lat="37.92888" lon="15.887965"><ele>6.0</ele><time>2026-04-04T14:09:30.579Z</time></trkpt><trkpt lat="37.9289033" lon="15.8876667"><ele>7.0</ele><time>2026-04-04T14:09:31.579Z</time></trkpt><trkpt lat="37.928925" lon="15.88737"><ele>8.0</ele><time>2026-04-04T14:09:32.579Z</time></trkpt><trkpt lat="37.9289433" lon="15.88708"><ele>8.0</ele><time>2026-04-04T14:09:33.579Z</time></trkpt><trkpt lat="37.928955" lon="15.88678"><ele>8.0</ele><time>2026-04-04T14:09:34.58Z</time></trkpt><trkpt lat="37.9289817" lon="15.88649"><ele>8.5</ele><time>2026-04-04T14:09:35.579Z</time></trkpt><trkpt lat="37.9289933" lon="15.886195"><ele>9.0</ele><time>2026-04-04T14:09:36.579Z</time></trkpt><trkpt lat="37.92901" lon="15.88591"><ele>9.5</ele><time>2026-04-04T14:09:37.58Z</time></trkpt><trkpt lat="37.9290267" lon="15.885625"><ele>10.0</ele><time>2026-04-04T14:09:38.58Z</time></trkpt><trkpt lat="37.929035" lon="15.8853367"><ele>10.0</ele><time>2026-04-04T14:09:39.579Z</time></trkpt><trkpt lat="37.9290383" lon="15.8850483"><ele>10.0</ele><time>2026-04-04T14:09:40.58Z</time></trkpt><trkpt lat="37.92904" lon="15.8847583"><ele>10.0</ele><time>2026-04-04T14:09:41.579Z</time></trkpt><trkpt lat="37.9290333" lon="15.88448"><ele>10.0</ele><time>2026-04-04T14:09:42.58Z</time></trkpt><trkpt lat="37.9290417" lon="15.8842167"><ele>10.0</ele><time>2026-04-04T14:09:43.579Z</time></trkpt><trkpt lat="37.92905" lon="15.8839667"><ele>9.666666666666668</ele><time>2026-04-04T14:09:44.579Z</time></trkpt><trkpt lat="37.929055" lon="15.8837233"><ele>9.333333333333334</ele><time>2026-04-04T14:09:45.579Z</time></trkpt><trkpt lat="37.9290567" lon="15.8834917"><ele>9.0</ele><time>2026-04-04T14:09:46.579Z</time></trkpt><trkpt lat="37.92905" lon="15.883265"><ele>8.666666666666666</ele><time>2026-04-04T14:09:47.58Z</time></trkpt><trkpt lat="37.9290567" lon="15.88305"><ele>8.333333333333332</ele><time>2026-04-04T14:09:48.579Z</time></trkpt><trkpt lat="37.9290583" lon="15.8828483"><ele>8.0</ele><time>2026-04-04T14:09:49.579Z</time></trkpt><trkpt lat="37.92907" lon="15.882665"><ele>7.75</ele><time>2026-04-04T14:09:50.579Z</time></trkpt><trkpt lat="37.9290783" lon="15.8824967"><ele>7.5</ele><time>2026-04-04T14:09:51.579Z</time></trkpt><trkpt lat="37.929085" lon="15.88234"><ele>7.25</ele><time>2026-04-04T14:09:52.579Z</time></trkpt><trkpt lat="37.9290767" lon="15.8821933"><ele>7.0</ele><time>2026-04-04T14:09:53.58Z</time></trkpt><trkpt lat="37.92907" lon="15.8820533"><ele>7.0</ele><time>2026-04-04T14:09:54.579Z</time></trkpt><trkpt lat="37.9290667" lon="15.88192"><ele>6.999999999999999</ele><time>2026-04-04T14:09:55.579Z</time></trkpt><trkpt lat="37.9290683" lon="15.8817917"><ele>6.999999999999999</ele><time>2026-04-04T14:09:56.579Z</time></trkpt><trkpt lat="37.9290767" lon="15.8816617"><ele>7.0</ele><time>2026-04-04T14:09:57.579Z</time></trkpt><trkpt lat="37.929085" lon="15.88153"><ele>7.0</ele><time>2026-04-04T14:09:58.579Z</time></trkpt><trkpt lat="37.9290983" lon="15.881395"><ele>7.0</ele><time>2026-04-04T14:09:59.579Z</time></trkpt><trkpt lat="37.9291083" lon="15.881255"><ele>7.0</ele><time>2026-04-04T14:10:00.579Z</time></trkpt><trkpt lat="37.9291217" lon="15.8811083"><ele>7.0</ele><time>2026-04-04T14:10:01.579Z</time></trkpt><trkpt lat="37.92914" lon="15.88095"><ele>7.0</ele><time>2026-04-04T14:10:02.58Z</time></trkpt><trkpt lat="37.9291633" lon="15.8807833"><ele>7.0</ele><time>2026-04-04T14:10:03.58Z</time></trkpt><trkpt lat="37.9291917" lon="15.8806067"><ele>7.0</ele><time>2026-04-04T14:10:04.579Z</time></trkpt><trkpt lat="37.9292133" lon="15.8804117"><ele>7.0</ele><time>2026-04-04T14:10:05.579Z</time></trkpt><trkpt lat="37.929245" lon="15.880205"><ele>7.666666666666667</ele><time>2026-04-04T14:10:06.579Z</time></trkpt><trkpt lat="37.9292833" lon="15.8799817"><ele>8.333333333333334</ele><time>2026-04-04T14:10:07.579Z</time></trkpt><trkpt lat="37.929315" lon="15.879775"><ele>9.0</ele><time>2026-04-04T14:10:08.579Z</time></trkpt><trkpt lat="37.929355" lon="15.87957"><ele>9.0</ele><time>2026-04-04T14:10:09.579Z</time></trkpt><trkpt lat="37.92937" lon="15.8793817"><ele>9.0</ele><time>2026-04-04T14:10:10.58Z</time></trkpt><trkpt lat="37.9293867" lon="15.8792017"><ele>9.0</ele><time>2026-04-04T14:10:11.58Z</time></trkpt><trkpt lat="37.9294017" lon="15.879055"><ele>9.0</ele><time>2026-04-04T14:10:12.579Z</time></trkpt><trkpt lat="37.92942" lon="15.8789183"><ele>9.0</ele><time>2026-04-04T14:10:13.579Z</time></trkpt><trkpt lat="37.92944" lon="15.8787733"><ele>9.0</ele><time>2026-04-04T14:10:14.579Z</time></trkpt><trkpt lat="37.9294483" lon="15.8786117"><ele>9.0</ele><time>2026-04-04T14:10:15.579Z</time></trkpt><trkpt lat="37.92946" lon="15.8784483"><ele>9.0</ele><time>2026-04-04T14:10:16.579Z</time></trkpt><trkpt lat="37.9294767" lon="15.878295"><ele>9.0</ele><time>2026-04-04T14:10:17.579Z</time></trkpt><trkpt lat="37.9294867" lon="15.8781367"><ele>9.0</ele><time>2026-04-04T14:10:18.579Z</time></trkpt><trkpt lat="37.9294967" lon="15.8779783"><ele>9.0</ele><time>2026-04-04T14:10:19.579Z</time></trkpt><trkpt lat="37.9295133" lon="15.8778233"><ele>9.0</ele><time>2026-04-04T14:10:20.579Z</time></trkpt><trkpt lat="37.9295267" lon="15.877645"><ele>8.666666666666666</ele><time>2026-04-04T14:10:21.579Z</time></trkpt><trkpt lat="37.929535" lon="15.87745"><ele>8.333333333333332</ele><time>2026-04-04T14:10:22.579Z</time></trkpt><trkpt lat="37.9295367" lon="15.8772483"><ele>8.0</ele><time>2026-04-04T14:10:23.579Z</time></trkpt><trkpt lat="37.9295383" lon="15.8770367"><ele>8.0</ele><time>2026-04-04T14:10:24.579Z</time></trkpt><trkpt lat="37.9295533" lon="15.876815"><ele>8.0</ele><time>2026-04-04T14:10:25.579Z</time></trkpt><trkpt lat="37.929575" lon="15.8765667"><ele>8.0</ele><time>2026-04-04T14:10:26.579Z</time></trkpt><trkpt lat="37.9295983" lon="15.8762933"><ele>7.5</ele><time>2026-04-04T14:10:27.579Z</time></trkpt><trkpt lat="37.9296233" lon="15.875985"><ele>7.0</ele><time>2026-04-04T14:10:28.579Z</time></trkpt><trkpt lat="37.9296583" lon="15.8756783"><ele>8.0</ele><time>2026-04-04T14:10:29.58Z</time></trkpt><trkpt lat="37.9296967" lon="15.8753533"><ele>9.0</ele><time>2026-04-04T14:10:30.579Z</time></trkpt><trkpt lat="37.929735" lon="15.8750117"><ele>9.5</ele><time>2026-04-04T14:10:31.579Z</time></trkpt><trkpt lat="37.9297633" lon="15.8746733"><ele>10.0</ele><time>2026-04-04T14:10:32.579Z</time></trkpt><trkpt lat="37.9297717" lon="15.8743383"><ele>10.0</ele><time>2026-04-04T14:10:33.58Z</time></trkpt><trkpt lat="37.9297983" lon="15.874025"><ele>10.0</ele><time>2026-04-04T14:10:34.579Z</time></trkpt><trkpt lat="37.9298283" lon="15.8737233"><ele>11.0</ele><time>2026-04-04T14:10:35.579Z</time></trkpt><trkpt lat="37.9298633" lon="15.873435"><ele>12.0</ele><time>2026-04-04T14:10:36.579Z</time></trkpt><trkpt lat="37.9298633" lon="15.8731333"><ele>12.0</ele><time>2026-04-04T14:10:37.579Z</time></trkpt><trkpt lat="37.9298833" lon="15.8728333"><ele>12.0</ele><time>2026-04-04T14:10:38.579Z</time></trkpt><trkpt lat="37.9299017" lon="15.872535"><ele>12.0</ele><time>2026-04-04T14:10:39.579Z</time></trkpt><trkpt lat="37.9299317" lon="15.8722417"><ele>12.0</ele><time>2026-04-04T14:10:40.579Z</time></trkpt><trkpt lat="37.9299617" lon="15.871955"><ele>12.5</ele><time>2026-04-04T14:10:41.579Z</time></trkpt><trkpt lat="37.9299933" lon="15.87167"><ele>13.0</ele><time>2026-04-04T14:10:42.579Z</time></trkpt><trkpt lat="37.9300217" lon="15.87138"><ele>13.0</ele><time>2026-04-04T14:10:43.579Z</time></trkpt><trkpt lat="37.9300517" lon="15.8710833"><ele>13.0</ele><time>2026-04-04T14:10:44.579Z</time></trkpt><trkpt lat="37.9300733" lon="15.8707933"><ele>14.0</ele><time>2026-04-04T14:10:45.579Z</time></trkpt><trkpt lat="37.93009" lon="15.870505"><ele>15.0</ele><time>2026-04-04T14:10:46.58Z</time></trkpt><trkpt lat="37.9301133" lon="15.87022"><ele>14.666666666666668</ele><time>2026-04-04T14:10:47.579Z</time></trkpt><trkpt lat="37.9301267" lon="15.8699417"><ele>14.333333333333334</ele><time>2026-04-04T14:10:48.579Z</time></trkpt><trkpt lat="37.93013" lon="15.86967"><ele>14.0</ele><time>2026-04-04T14:10:49.579Z</time></trkpt><trkpt lat="37.9301217" lon="15.8694033"><ele>14.666666666666668</ele><time>2026-04-04T14:10:50.579Z</time></trkpt><trkpt lat="37.9301083" lon="15.869135"><ele>15.333333333333332</ele><time>2026-04-04T14:10:51.579Z</time></trkpt><trkpt lat="37.93009" lon="15.868865"><ele>16.0</ele><time>2026-04-04T14:10:52.579Z</time></trkpt><trkpt lat="37.9300617" lon="15.8685817"><ele>17.5</ele><time>2026-04-04T14:10:53.58Z</time></trkpt><trkpt lat="37.9300317" lon="15.868295"><ele>19.0</ele><time>2026-04-04T14:10:54.579Z</time></trkpt><trkpt lat="37.9299867" lon="15.8680033"><ele>19.0</ele><time>2026-04-04T14:10:55.58Z</time></trkpt><trkpt lat="37.929935" lon="15.8677183"><ele>19.0</ele><time>2026-04-04T14:10:56.58Z</time></trkpt><trkpt lat="37.9298767" lon="15.867435"><ele>19.0</ele><time>2026-04-04T14:10:57.579Z</time></trkpt><trkpt lat="37.9298217" lon="15.8671517"><ele>19.0</ele><time>2026-04-04T14:10:58.579Z</time></trkpt><trkpt lat="37.9297567" lon="15.8668583"><ele>18.5</ele><time>2026-04-04T14:10:59.58Z</time></trkpt><trkpt lat="37.9296933" lon="15.8665617"><ele>18.0</ele><time>2026-04-04T14:11:00.58Z</time></trkpt><trkpt lat="37.9296267" lon="15.8662567"><ele>18.0</ele><time>2026-04-04T14:11:01.579Z</time></trkpt><trkpt lat="37.9295567" lon="15.8659483"><ele>18.0</ele><time>2026-04-04T14:11:02.579Z</time></trkpt><trkpt lat="37.92949" lon="15.865645"><ele>18.0</ele><time>2026-04-04T14:11:03.579Z</time></trkpt><trkpt lat="37.92942" lon="15.86534"><ele>18.0</ele><time>2026-04-04T14:11:04.579Z</time></trkpt><trkpt lat="37.9293483" lon="15.865035"><ele>18.0</ele><time>2026-04-04T14:11:05.579Z</time></trkpt><trkpt lat="37.9292867" lon="15.864735"><ele>18.0</ele><time>2026-04-04T14:11:06.579Z</time></trkpt><trkpt lat="37.9292283" lon="15.8644367"><ele>17.0</ele><time>2026-04-04T14:11:07.579Z</time></trkpt><trkpt lat="37.9291683" lon="15.8641417"><ele>16.0</ele><time>2026-04-04T14:11:08.579Z</time></trkpt><trkpt lat="37.9291083" lon="15.8638517"><ele>16.0</ele><time>2026-04-04T14:11:09.58Z</time></trkpt><trkpt lat="37.9290483" lon="15.863555"><ele>16.0</ele><time>2026-04-04T14:11:10.579Z</time></trkpt><trkpt lat="37.9289867" lon="15.863255"><ele>16.0</ele><time>2026-04-04T14:11:11.579Z</time></trkpt><trkpt lat="37.92893" lon="15.86296"><ele>16.0</ele><time>2026-04-04T14:11:12.58Z</time></trkpt><trkpt lat="37.9288683" lon="15.8626633"><ele>16.0</ele><time>2026-04-04T14:11:13.58Z</time></trkpt><trkpt lat="37.9288083" lon="15.8623717"><ele>16.0</ele><time>2026-04-04T14:11:14.58Z</time></trkpt><trkpt lat="37.92874" lon="15.8620767"><ele>14.5</ele><time>2026-04-04T14:11:15.58Z</time></trkpt><trkpt lat="37.9286783" lon="15.86177"><ele>13.0</ele><time>2026-04-04T14:11:16.579Z</time></trkpt><trkpt lat="37.9286233" lon="15.861465"><ele>13.0</ele><time>2026-04-04T14:11:17.579Z</time></trkpt><trkpt lat="37.9285667" lon="15.8611683"><ele>13.0</ele><time>2026-04-04T14:11:18.579Z</time></trkpt><trkpt lat="37.9284967" lon="15.8608667"><ele>13.5</ele><time>2026-04-04T14:11:19.58Z</time></trkpt><trkpt lat="37.9284433" lon="15.8605767"><ele>14.0</ele><time>2026-04-04T14:11:20.58Z</time></trkpt><trkpt lat="37.9283867" lon="15.86028"><ele>14.5</ele><time>2026-04-04T14:11:21.579Z</time></trkpt><trkpt lat="37.9283283" lon="15.859985"><ele>15.0</ele><time>2026-04-04T14:11:22.579Z</time></trkpt><trkpt lat="37.9282683" lon="15.859695"><ele>15.0</ele><time>2026-04-04T14:11:23.579Z</time></trkpt><trkpt lat="37.9282117" lon="15.8594"><ele>15.0</ele><time>2026-04-04T14:11:24.579Z</time></trkpt><trkpt lat="37.9281533" lon="15.859115"><ele>17.0</ele><time>2026-04-04T14:11:25.58Z</time></trkpt><trkpt lat="37.9280967" lon="15.8588233"><ele>19.0</ele><time>2026-04-04T14:11:26.58Z</time></trkpt><trkpt lat="37.9280367" lon="15.8585367"><ele>19.5</ele><time>2026-04-04T14:11:27.58Z</time></trkpt><trkpt lat="37.9279767" lon="15.858235"><ele>20.0</ele><time>2026-04-04T14:11:28.58Z</time></trkpt><trkpt lat="37.9279133" lon="15.85794"><ele>20.0</ele><time>2026-04-04T14:11:29.58Z</time></trkpt><trkpt lat="37.92784" lon="15.8576433"><ele>20.0</ele><time>2026-04-04T14:11:30.58Z</time></trkpt><trkpt lat="37.927775" lon="15.8573533"><ele>20.5</ele><time>2026-04-04T14:11:31.58Z</time></trkpt><trkpt lat="37.9277067" lon="15.85708"><ele>21.0</ele><time>2026-04-04T14:11:32.579Z</time></trkpt><trkpt lat="37.927615" lon="15.85681"><ele>22.5</ele><time>2026-04-04T14:11:33.579Z</time></trkpt><trkpt lat="37.9275117" lon="15.8565533"><ele>24.0</ele><time>2026-04-04T14:11:34.579Z</time></trkpt><trkpt lat="37.927395" lon="15.8562967"><ele>24.0</ele><time>2026-04-04T14:11:35.579Z</time></trkpt><trkpt lat="37.9272717" lon="15.8560567"><ele>24.0</ele><time>2026-04-04T14:11:36.58Z</time></trkpt><trkpt lat="37.9271367" lon="15.8558117"><ele>26.0</ele><time>2026-04-04T14:11:37.579Z</time></trkpt><trkpt lat="37.92698" lon="15.8555817"><ele>28.0</ele><time>2026-04-04T14:11:38.579Z</time></trkpt><trkpt lat="37.92682" lon="15.8553483"><ele>26.0</ele><time>2026-04-04T14:11:39.579Z</time></trkpt><trkpt lat="37.92666" lon="15.85511"><ele>24.0</ele><time>2026-04-04T14:11:40.579Z</time></trkpt><trkpt lat="37.9265017" lon="15.8548583"><ele>24.0</ele><time>2026-04-04T14:11:41.579Z</time></trkpt><trkpt lat="37.9263533" lon="15.8546117"><ele>24.0</ele><time>2026-04-04T14:11:42.579Z</time></trkpt><trkpt lat="37.9262017" lon="15.854365"><ele>25.0</ele><time>2026-04-04T14:11:43.579Z</time></trkpt><trkpt lat="37.92605" lon="15.8541267"><ele>26.0</ele><time>2026-04-04T14:11:44.579Z</time></trkpt><trkpt lat="37.9258983" lon="15.8538767"><ele>25.0</ele><time>2026-04-04T14:11:45.579Z</time></trkpt><trkpt lat="37.9257517" lon="15.85364"><ele>24.0</ele><time>2026-04-04T14:11:46.579Z</time></trkpt><trkpt lat="37.9256017" lon="15.853405"><ele>24.0</ele><time>2026-04-04T14:11:47.579Z</time></trkpt><trkpt lat="37.9254517" lon="15.8531733"><ele>24.0</ele><time>2026-04-04T14:11:48.579Z</time></trkpt><trkpt lat="37.9253083" lon="15.852945"><ele>24.0</ele><time>2026-04-04T14:11:49.58Z</time></trkpt><trkpt lat="37.9251683" lon="15.8527083"><ele>24.0</ele><time>2026-04-04T14:11:50.579Z</time></trkpt><trkpt lat="37.9250233" lon="15.8524783"><ele>21.0</ele><time>2026-04-04T14:11:51.579Z</time></trkpt><trkpt lat="37.9248933" lon="15.8522417"><ele>18.0</ele><time>2026-04-04T14:11:52.58Z</time></trkpt><trkpt lat="37.924775" lon="15.8519917"><ele>21.0</ele><time>2026-04-04T14:11:53.579Z</time></trkpt><trkpt lat="37.9246783" lon="15.8517417"><ele>24.0</ele><time>2026-04-04T14:11:54.579Z</time></trkpt><trkpt lat="37.9245967" lon="15.8514633"><ele>24.0</ele><time>2026-04-04T14:11:55.58Z</time></trkpt><trkpt lat="37.92451" lon="15.85119"><ele>24.0</ele><time>2026-04-04T14:11:56.579Z</time></trkpt><trkpt lat="37.92443" lon="15.8508983"><ele>25.0</ele><time>2026-04-04T14:11:57.579Z</time></trkpt><trkpt lat="37.92436" lon="15.8506033"><ele>26.0</ele><time>2026-04-04T14:11:58.579Z</time></trkpt><trkpt lat="37.9242983" lon="15.850305"><ele>30.0</ele><time>2026-04-04T14:11:59.579Z</time></trkpt><trkpt lat="37.9242383" lon="15.8500017"><ele>34.0</ele><time>2026-04-04T14:12:00.579Z</time></trkpt><trkpt lat="37.92417" lon="15.8496983"><ele>28.0</ele><time>2026-04-04T14:12:01.58Z</time></trkpt><trkpt lat="37.9241117" lon="15.8494"><ele>22.0</ele><time>2026-04-04T14:12:02.579Z</time></trkpt><trkpt lat="37.9240433" lon="15.849085"><ele>22.0</ele><time>2026-04-04T14:12:03.58Z</time></trkpt><trkpt lat="37.9239733" lon="15.8487783"><ele>22.0</ele><time>2026-04-04T14:12:04.579Z</time></trkpt><trkpt lat="37.9239217" lon="15.84847"><ele>24.5</ele><time>2026-04-04T14:12:05.579Z</time></trkpt><trkpt lat="37.9238683" lon="15.8481733"><ele>27.0</ele><time>2026-04-04T14:12:06.579Z</time></trkpt><trkpt lat="37.923825" lon="15.8478867"><ele>29.0</ele><time>2026-04-04T14:12:07.58Z</time></trkpt><trkpt lat="37.9237733" lon="15.8475933"><ele>31.0</ele><time>2026-04-04T14:12:08.579Z</time></trkpt><trkpt lat="37.92372" lon="15.847295"><ele>31.0</ele><time>2026-04-04T14:12:09.58Z</time></trkpt><trkpt lat="37.9236617" lon="15.846985"><ele>31.0</ele><time>2026-04-04T14:12:10.58Z</time></trkpt><trkpt lat="37.92362" lon="15.8466783"><ele>36.5</ele><time>2026-04-04T14:12:11.58Z</time></trkpt><trkpt lat="37.9235867" lon="15.8463733"><ele>42.0</ele><time>2026-04-04T14:12:12.579Z</time></trkpt><trkpt lat="37.92356" lon="15.8460817"><ele>44.5</ele><time>2026-04-04T14:12:13.58Z</time></trkpt><trkpt lat="37.92354" lon="15.8457883"><ele>47.0</ele><time>2026-04-04T14:12:14.579Z</time></trkpt><trkpt lat="37.9235217" lon="15.8454867"><ele>47.0</ele><time>2026-04-04T14:12:15.58Z</time></trkpt><trkpt lat="37.9235033" lon="15.8452017"><ele>47.0</ele><time>2026-04-04T14:12:16.579Z</time></trkpt><trkpt lat="37.92348" lon="15.8449383"><ele>47.0</ele><time>2026-04-04T14:12:17.58Z</time></trkpt><trkpt lat="37.9234633" lon="15.84469"><ele>43.33333333333333</ele><time>2026-04-04T14:12:18.579Z</time></trkpt><trkpt lat="37.9234417" lon="15.8444533"><ele>39.666666666666664</ele><time>2026-04-04T14:12:19.58Z</time></trkpt><trkpt lat="37.9234117" lon="15.8442"><ele>36.0</ele><time>2026-04-04T14:12:20.58Z</time></trkpt><trkpt lat="37.9233833" lon="15.8439433"><ele>29.666666666666668</ele><time>2026-04-04T14:12:21.579Z</time></trkpt><trkpt lat="37.9233417" lon="15.8436917"><ele>23.333333333333336</ele><time>2026-04-04T14:12:22.58Z</time></trkpt><trkpt lat="37.9232967" lon="15.84344"><ele>17.0</ele><time>2026-04-04T14:12:23.579Z</time></trkpt><trkpt lat="37.9232517" lon="15.8431917"><ele>17.0</ele><time>2026-04-04T14:12:24.579Z</time></trkpt><trkpt lat="37.9232067" lon="15.84295"><ele>17.0</ele><time>2026-04-04T14:12:25.579Z</time></trkpt><trkpt lat="37.9231633" lon="15.8427067"><ele>17.0</ele><time>2026-04-04T14:12:26.579Z</time></trkpt><trkpt lat="37.92311" lon="15.8424517"><ele>18.666666666666668</ele><time>2026-04-04T14:12:27.579Z</time></trkpt><trkpt lat="37.9230683" lon="15.8422117"><ele>20.333333333333332</ele><time>2026-04-04T14:12:28.579Z</time></trkpt><trkpt lat="37.9230267" lon="15.8419817"><ele>22.0</ele><time>2026-04-04T14:12:29.579Z</time></trkpt><trkpt lat="37.9229817" lon="15.8417533"><ele>22.333333333333332</ele><time>2026-04-04T14:12:30.58Z</time></trkpt><trkpt lat="37.9229417" lon="15.8415183"><ele>22.666666666666668</ele><time>2026-04-04T14:12:31.579Z</time></trkpt><trkpt lat="37.9229117" lon="15.8412867"><ele>23.0</ele><time>2026-04-04T14:12:32.579Z</time></trkpt><trkpt lat="37.92288" lon="15.8410517"><ele>23.0</ele><time>2026-04-04T14:12:33.58Z</time></trkpt><trkpt lat="37.9228567" lon="15.8408233"><ele>23.0</ele><time>2026-04-04T14:12:34.579Z</time></trkpt><trkpt lat="37.9228433" lon="15.84059"><ele>23.0</ele><time>2026-04-04T14:12:35.579Z</time></trkpt><trkpt lat="37.9228433" lon="15.8403417"><ele>19.666666666666668</ele><time>2026-04-04T14:12:36.579Z</time></trkpt><trkpt lat="37.9228467" lon="15.8400917"><ele>16.333333333333332</ele><time>2026-04-04T14:12:37.579Z</time></trkpt><trkpt lat="37.92285" lon="15.8398367"><ele>13.0</ele><time>2026-04-04T14:12:38.579Z</time></trkpt><trkpt lat="37.9228517" lon="15.8395733"><ele>13.0</ele><time>2026-04-04T14:12:39.579Z</time></trkpt><trkpt lat="37.922855" lon="15.8392933"><ele>13.0</ele><time>2026-04-04T14:12:40.579Z</time></trkpt><trkpt lat="37.9228517" lon="15.8390033"><ele>13.0</ele><time>2026-04-04T14:12:41.579Z</time></trkpt><trkpt lat="37.9228567" lon="15.8387117"><ele>13.0</ele><time>2026-04-04T14:12:42.579Z</time></trkpt><trkpt lat="37.92286" lon="15.8384183"><ele>13.5</ele><time>2026-04-04T14:12:43.58Z</time></trkpt><trkpt lat="37.9228717" lon="15.8381167"><ele>14.0</ele><time>2026-04-04T14:12:44.579Z</time></trkpt><trkpt lat="37.922885" lon="15.8378067"><ele>14.5</ele><time>2026-04-04T14:12:45.579Z</time></trkpt><trkpt lat="37.922905" lon="15.8374883"><ele>15.0</ele><time>2026-04-04T14:12:46.58Z</time></trkpt><trkpt lat="37.9229267" lon="15.8371667"><ele>15.0</ele><time>2026-04-04T14:12:47.58Z</time></trkpt><trkpt lat="37.9229433" lon="15.8368383"><ele>15.0</ele><time>2026-04-04T14:12:48.579Z</time></trkpt><trkpt lat="37.9229567" lon="15.8365033"><ele>17.5</ele><time>2026-04-04T14:12:49.58Z</time></trkpt><trkpt lat="37.922955" lon="15.8361783"><ele>20.0</ele><time>2026-04-04T14:12:50.579Z</time></trkpt><trkpt lat="37.9229567" lon="15.835865"><ele>22.0</ele><time>2026-04-04T14:12:51.579Z</time></trkpt><trkpt lat="37.922955" lon="15.8355633"><ele>24.0</ele><time>2026-04-04T14:12:52.579Z</time></trkpt><trkpt lat="37.9229467" lon="15.8352667"><ele>27.0</ele><time>2026-04-04T14:12:53.579Z</time></trkpt><trkpt lat="37.9229367" lon="15.834975"><ele>30.0</ele><time>2026-04-04T14:12:54.579Z</time></trkpt><trkpt lat="37.92289" lon="15.834685"><ele>30.0</ele><time>2026-04-04T14:12:55.579Z</time></trkpt><trkpt lat="37.92283" lon="15.834395"><ele>30.0</ele><time>2026-04-04T14:12:56.579Z</time></trkpt><trkpt lat="37.922765" lon="15.8341233"><ele>29.666666666666664</ele><time>2026-04-04T14:12:57.579Z</time></trkpt><trkpt lat="37.9226783" lon="15.8338683"><ele>29.333333333333332</ele><time>2026-04-04T14:12:58.58Z</time></trkpt><trkpt lat="37.9226033" lon="15.8336033"><ele>29.0</ele><time>2026-04-04T14:12:59.579Z</time></trkpt><trkpt lat="37.92252" lon="15.83336"><ele>29.0</ele><time>2026-04-04T14:13:00.579Z</time></trkpt><trkpt lat="37.9224417" lon="15.8331283"><ele>29.0</ele><time>2026-04-04T14:13:01.58Z</time></trkpt><trkpt lat="37.9223733" lon="15.8329033"><ele>29.0</ele><time>2026-04-04T14:13:02.579Z</time></trkpt><trkpt lat="37.922315" lon="15.83267"><ele>31.666666666666664</ele><time>2026-04-04T14:13:03.58Z</time></trkpt><trkpt lat="37.922255" lon="15.8324317"><ele>34.333333333333336</ele><time>2026-04-04T14:13:04.579Z</time></trkpt><trkpt lat="37.9222133" lon="15.83218"><ele>37.0</ele><time>2026-04-04T14:13:05.579Z</time></trkpt><trkpt lat="37.9221783" lon="15.8319217"><ele>37.66666666666667</ele><time>2026-04-04T14:13:06.579Z</time></trkpt><trkpt lat="37.9221533" lon="15.8316533"><ele>38.333333333333336</ele><time>2026-04-04T14:13:07.579Z</time></trkpt><trkpt lat="37.9221433" lon="15.831375"><ele>39.0</ele><time>2026-04-04T14:13:08.579Z</time></trkpt><trkpt lat="37.9221383" lon="15.83109"><ele>37.0</ele><time>2026-04-04T14:13:09.579Z</time></trkpt><trkpt lat="37.9221383" lon="15.8307967"><ele>35.0</ele><time>2026-04-04T14:13:10.579Z</time></trkpt><trkpt lat="37.922135" lon="15.830495"><ele>35.0</ele><time>2026-04-04T14:13:11.579Z</time></trkpt><trkpt lat="37.9221233" lon="15.830195"><ele>35.0</ele><time>2026-04-04T14:13:12.58Z</time></trkpt><trkpt lat="37.922115" lon="15.8298983"><ele>34.0</ele><time>2026-04-04T14:13:13.579Z</time></trkpt><trkpt lat="37.92211" lon="15.8296"><ele>33.0</ele><time>2026-04-04T14:13:14.579Z</time></trkpt><trkpt lat="37.9221" lon="15.8293"><ele>31.5</ele><time>2026-04-04T14:13:15.579Z</time></trkpt><trkpt lat="37.9220983" lon="15.8290017"><ele>30.0</ele><time>2026-04-04T14:13:16.579Z</time></trkpt><trkpt lat="37.922095" lon="15.8287033"><ele>28.5</ele><time>2026-04-04T14:13:17.579Z</time></trkpt><trkpt lat="37.9220883" lon="15.8284017"><ele>27.0</ele><time>2026-04-04T14:13:18.579Z</time></trkpt><trkpt lat="37.922075" lon="15.8280983"><ele>27.0</ele><time>2026-04-04T14:13:19.579Z</time></trkpt><trkpt lat="37.9220483" lon="15.827795"><ele>27.0</ele><time>2026-04-04T14:13:20.579Z</time></trkpt><trkpt lat="37.9220133" lon="15.8274967"><ele>30.0</ele><time>2026-04-04T14:13:21.579Z</time></trkpt><trkpt lat="37.921955" lon="15.827205"><ele>33.0</ele><time>2026-04-04T14:13:22.579Z</time></trkpt><trkpt lat="37.92189" lon="15.8269267"><ele>37.5</ele><time>2026-04-04T14:13:23.58Z</time></trkpt><trkpt lat="37.9218167" lon="15.8266567"><ele>42.0</ele><time>2026-04-04T14:13:24.579Z</time></trkpt><trkpt lat="37.9217267" lon="15.8263733"><ele>37.0</ele><time>2026-04-04T14:13:25.58Z</time></trkpt><trkpt lat="37.9216167" lon="15.8261017"><ele>32.0</ele><time>2026-04-04T14:13:26.58Z</time></trkpt><trkpt lat="37.9215017" lon="15.8258283"><ele>32.0</ele><time>2026-04-04T14:13:27.579Z</time></trkpt><trkpt lat="37.921385" lon="15.8255583"><ele>32.0</ele><time>2026-04-04T14:13:28.579Z</time></trkpt><trkpt lat="37.9212633" lon="15.8252883"><ele>38.0</ele><time>2026-04-04T14:13:29.58Z</time></trkpt><trkpt lat="37.9211467" lon="15.825025"><ele>44.0</ele><time>2026-04-04T14:13:30.579Z</time></trkpt><trkpt lat="37.9210317" lon="15.8247583"><ele>44.0</ele><time>2026-04-04T14:13:31.579Z</time></trkpt><trkpt lat="37.920915" lon="15.8245"><ele>44.0</ele><time>2026-04-04T14:13:32.579Z</time></trkpt><trkpt lat="37.920815" lon="15.824245"><ele>32.0</ele><time>2026-04-04T14:13:33.579Z</time></trkpt><trkpt lat="37.9207183" lon="15.8239883"><ele>20.0</ele><time>2026-04-04T14:13:34.579Z</time></trkpt><trkpt lat="37.9206433" lon="15.8237183"><ele>18.5</ele><time>2026-04-04T14:13:35.579Z</time></trkpt><trkpt lat="37.920585" lon="15.8234383"><ele>17.0</ele><time>2026-04-04T14:13:36.579Z</time></trkpt><trkpt lat="37.92055" lon="15.823155"><ele>17.0</ele><time>2026-04-04T14:13:37.579Z</time></trkpt><trkpt lat="37.920515" lon="15.8228617"><ele>17.0</ele><time>2026-04-04T14:13:38.579Z</time></trkpt><trkpt lat="37.9204917" lon="15.8225617"><ele>19.0</ele><time>2026-04-04T14:13:39.58Z</time></trkpt><trkpt lat="37.9204717" lon="15.82227"><ele>21.0</ele><time>2026-04-04T14:13:40.579Z</time></trkpt><trkpt lat="37.9204617" lon="15.8219817"><ele>28.0</ele><time>2026-04-04T14:13:41.58Z</time></trkpt><trkpt lat="37.9204517" lon="15.8216933"><ele>35.0</ele><time>2026-04-04T14:13:42.579Z</time></trkpt><trkpt lat="37.920455" lon="15.8213983"><ele>35.0</ele><time>2026-04-04T14:13:43.579Z</time></trkpt><trkpt lat="37.9204567" lon="15.8210967"><ele>35.0</ele><time>2026-04-04T14:13:44.579Z</time></trkpt><trkpt lat="37.9204667" lon="15.8207967"><ele>37.0</ele><time>2026-04-04T14:13:45.579Z</time></trkpt><trkpt lat="37.9204817" lon="15.82049"><ele>39.0</ele><time>2026-04-04T14:13:46.58Z</time></trkpt><trkpt lat="37.9204983" lon="15.8201833"><ele>37.5</ele><time>2026-04-04T14:13:47.579Z</time></trkpt><trkpt lat="37.9205167" lon="15.8198717"><ele>36.0</ele><time>2026-04-04T14:13:48.579Z</time></trkpt><trkpt lat="37.9205333" lon="15.81956"><ele>34.0</ele><time>2026-04-04T14:13:49.579Z</time></trkpt><trkpt lat="37.9205483" lon="15.8192433"><ele>32.0</ele><time>2026-04-04T14:13:50.579Z</time></trkpt><trkpt lat="37.9205667" lon="15.818925"><ele>32.0</ele><time>2026-04-04T14:13:51.579Z</time></trkpt><trkpt lat="37.9205817" lon="15.8186067"><ele>32.0</ele><time>2026-04-04T14:13:52.579Z</time></trkpt><trkpt lat="37.9205967" lon="15.818285"><ele>26.0</ele><time>2026-04-04T14:13:53.58Z</time></trkpt><trkpt lat="37.9206117" lon="15.8179533"><ele>20.0</ele><time>2026-04-04T14:13:54.579Z</time></trkpt><trkpt lat="37.9206233" lon="15.817625"><ele>19.0</ele><time>2026-04-04T14:13:55.579Z</time></trkpt><trkpt lat="37.9206333" lon="15.8172933"><ele>18.0</ele><time>2026-04-04T14:13:56.579Z</time></trkpt><trkpt lat="37.9206433" lon="15.8169717"><ele>21.0</ele><time>2026-04-04T14:13:57.58Z</time></trkpt><trkpt lat="37.9206617" lon="15.8166433"><ele>24.0</ele><time>2026-04-04T14:13:58.579Z</time></trkpt><trkpt lat="37.9206767" lon="15.8163167"><ele>24.0</ele><time>2026-04-04T14:13:59.579Z</time></trkpt><trkpt lat="37.9206983" lon="15.8159983"><ele>24.0</ele><time>2026-04-04T14:14:00.579Z</time></trkpt><trkpt lat="37.9207133" lon="15.8156833"><ele>19.5</ele><time>2026-04-04T14:14:01.579Z</time></trkpt><trkpt lat="37.9207367" lon="15.8153633"><ele>15.0</ele><time>2026-04-04T14:14:02.58Z</time></trkpt><trkpt lat="37.92075" lon="15.815045"><ele>12.5</ele><time>2026-04-04T14:14:03.58Z</time></trkpt><trkpt lat="37.920765" lon="15.8147267"><ele>10.0</ele><time>2026-04-04T14:14:04.579Z</time></trkpt><trkpt lat="37.920775" lon="15.814395"><ele>10.5</ele><time>2026-04-04T14:14:05.579Z</time></trkpt><trkpt lat="37.9207783" lon="15.8140717"><ele>11.0</ele><time>2026-04-04T14:14:06.579Z</time></trkpt><trkpt lat="37.9207867" lon="15.8137517"><ele>11.0</ele><time>2026-04-04T14:14:07.58Z</time></trkpt><trkpt lat="37.9208" lon="15.8134367"><ele>11.0</ele><time>2026-04-04T14:14:08.58Z</time></trkpt><trkpt lat="37.9208117" lon="15.81313"><ele>11.0</ele><time>2026-04-04T14:14:09.58Z</time></trkpt><trkpt lat="37.9208283" lon="15.8128267"><ele>11.0</ele><time>2026-04-04T14:14:10.579Z</time></trkpt><trkpt lat="37.9208367" lon="15.8125133"><ele>11.5</ele><time>2026-04-04T14:14:11.579Z</time></trkpt><trkpt lat="37.9208367" lon="15.8122067"><ele>12.0</ele><time>2026-04-04T14:14:12.579Z</time></trkpt><trkpt lat="37.920835" lon="15.8119017"><ele>11.0</ele><time>2026-04-04T14:14:13.58Z</time></trkpt><trkpt lat="37.9208317" lon="15.8115883"><ele>10.0</ele><time>2026-04-04T14:14:14.579Z</time></trkpt><trkpt lat="37.92083" lon="15.8112733"><ele>9.5</ele><time>2026-04-04T14:14:15.579Z</time></trkpt><trkpt lat="37.9208267" lon="15.81096"><ele>9.0</ele><time>2026-04-04T14:14:16.579Z</time></trkpt><trkpt lat="37.9208317" lon="15.8106433"><ele>9.0</ele><time>2026-04-04T14:14:17.579Z</time></trkpt><trkpt lat="37.92083" lon="15.8103333"><ele>9.0</ele><time>2026-04-04T14:14:18.579Z</time></trkpt><trkpt lat="37.9208283" lon="15.8100267"><ele>9.5</ele><time>2026-04-04T14:14:19.579Z</time></trkpt><trkpt lat="37.9208267" lon="15.8097117"><ele>10.0</ele><time>2026-04-04T14:14:20.579Z</time></trkpt><trkpt lat="37.9208317" lon="15.8093983"><ele>10.5</ele><time>2026-04-04T14:14:21.579Z</time></trkpt><trkpt lat="37.92084" lon="15.8090883"><ele>11.0</ele><time>2026-04-04T14:14:22.579Z</time></trkpt><trkpt lat="37.9208467" lon="15.8087767"><ele>11.5</ele><time>2026-04-04T14:14:23.579Z</time></trkpt><trkpt lat="37.9208583" lon="15.8084617"><ele>12.0</ele><time>2026-04-04T14:14:24.579Z</time></trkpt><trkpt lat="37.92086" lon="15.8081417"><ele>12.0</ele><time>2026-04-04T14:14:25.579Z</time></trkpt><trkpt lat="37.920865" lon="15.8078267"><ele>12.0</ele><time>2026-04-04T14:14:26.58Z</time></trkpt><trkpt lat="37.9208683" lon="15.80751"><ele>12.5</ele><time>2026-04-04T14:14:27.58Z</time></trkpt><trkpt lat="37.920865" lon="15.807185"><ele>13.0</ele><time>2026-04-04T14:14:28.579Z</time></trkpt><trkpt lat="37.9208733" lon="15.8068617"><ele>12.0</ele><time>2026-04-04T14:14:29.579Z</time></trkpt><trkpt lat="37.9208733" lon="15.8065383"><ele>11.0</ele><time>2026-04-04T14:14:30.579Z</time></trkpt><trkpt lat="37.9208733" lon="15.8062233"><ele>10.5</ele><time>2026-04-04T14:14:31.579Z</time></trkpt><trkpt lat="37.9208767" lon="15.8059167"><ele>10.0</ele><time>2026-04-04T14:14:32.579Z</time></trkpt><trkpt lat="37.920875" lon="15.8056183"><ele>10.0</ele><time>2026-04-04T14:14:33.58Z</time></trkpt><trkpt lat="37.9208667" lon="15.805335"><ele>10.0</ele><time>2026-04-04T14:14:34.58Z</time></trkpt><trkpt lat="37.92086" lon="15.805055"><ele>10.0</ele><time>2026-04-04T14:14:35.579Z</time></trkpt><trkpt lat="37.9208583" lon="15.80478"><ele>9.666666666666668</ele><time>2026-04-04T14:14:36.579Z</time></trkpt><trkpt lat="37.9208567" lon="15.8045083"><ele>9.333333333333334</ele><time>2026-04-04T14:14:37.58Z</time></trkpt><trkpt lat="37.9208483" lon="15.8042467"><ele>9.0</ele><time>2026-04-04T14:14:38.579Z</time></trkpt><trkpt lat="37.9208467" lon="15.8040033"><ele>8.666666666666666</ele><time>2026-04-04T14:14:39.579Z</time></trkpt><trkpt lat="37.92085" lon="15.80379"><ele>8.333333333333332</ele><time>2026-04-04T14:14:40.58Z</time></trkpt><trkpt lat="37.9208533" lon="15.8035983"><ele>8.0</ele><time>2026-04-04T14:14:41.579Z</time></trkpt><trkpt lat="37.9208583" lon="15.8034283"><ele>11.4</ele><time>2026-04-04T14:14:42.579Z</time></trkpt><trkpt lat="37.9209067" lon="15.80329"><ele>14.8</ele><time>2026-04-04T14:14:43.579Z</time></trkpt><trkpt lat="37.9209517" lon="15.8031817"><ele>18.2</ele><time>2026-04-04T14:14:44.579Z</time></trkpt><trkpt lat="37.9209733" lon="15.8030767"><ele>21.6</ele><time>2026-04-04T14:14:45.579Z</time></trkpt><trkpt lat="37.9209633" lon="15.8029667"><ele>25.0</ele><time>2026-04-04T14:14:46.579Z</time></trkpt><trkpt lat="37.9209167" lon="15.8028633"><ele>22.25</ele><time>2026-04-04T14:14:47.579Z</time></trkpt><trkpt lat="37.9208683" lon="15.802735"><ele>19.5</ele><time>2026-04-04T14:14:48.58Z</time></trkpt><trkpt lat="37.920845" lon="15.80258"><ele>16.75</ele><time>2026-04-04T14:14:49.579Z</time></trkpt><trkpt lat="37.920835" lon="15.8024033"><ele>14.0</ele><time>2026-04-04T14:14:50.579Z</time></trkpt><trkpt lat="37.9208317" lon="15.80221"><ele>14.0</ele><time>2026-04-04T14:14:51.579Z</time></trkpt><trkpt lat="37.9208333" lon="15.8019983"><ele>14.0</ele><time>2026-04-04T14:14:52.579Z</time></trkpt><trkpt lat="37.9208317" lon="15.8017867"><ele>14.0</ele><time>2026-04-04T14:14:53.58Z</time></trkpt><trkpt lat="37.9208283" lon="15.8015583"><ele>14.666666666666668</ele><time>2026-04-04T14:14:54.58Z</time></trkpt><trkpt lat="37.9208217" lon="15.8013033"><ele>15.333333333333332</ele><time>2026-04-04T14:14:55.579Z</time></trkpt><trkpt lat="37.9208083" lon="15.801035"><ele>16.0</ele><time>2026-04-04T14:14:56.579Z</time></trkpt><trkpt lat="37.9207967" lon="15.80078"><ele>16.666666666666664</ele><time>2026-04-04T14:14:57.579Z</time></trkpt><trkpt lat="37.9207883" lon="15.8005367"><ele>17.333333333333332</ele><time>2026-04-04T14:14:58.579Z</time></trkpt><trkpt lat="37.9207783" lon="15.8002983"><ele>18.0</ele><time>2026-04-04T14:14:59.579Z</time></trkpt><trkpt lat="37.9207667" lon="15.8000533"><ele>18.0</ele><time>2026-04-04T14:15:00.58Z</time></trkpt><trkpt lat="37.9207667" lon="15.7997983"><ele>18.0</ele><time>2026-04-04T14:15:01.58Z</time></trkpt><trkpt lat="37.9207533" lon="15.7995267"><ele>18.0</ele><time>2026-04-04T14:15:02.58Z</time></trkpt><trkpt lat="37.9207367" lon="15.7992433"><ele>18.0</ele><time>2026-04-04T14:15:03.579Z</time></trkpt><trkpt lat="37.9207183" lon="15.79896"><ele>18.0</ele><time>2026-04-04T14:15:04.579Z</time></trkpt><trkpt lat="37.9207033" lon="15.7986783"><ele>18.0</ele><time>2026-04-04T14:15:05.579Z</time></trkpt><trkpt lat="37.92069" lon="15.7984033"><ele>18.333333333333332</ele><time>2026-04-04T14:15:06.579Z</time></trkpt><trkpt lat="37.9206717" lon="15.7981267"><ele>18.666666666666664</ele><time>2026-04-04T14:15:07.579Z</time></trkpt><trkpt lat="37.92066" lon="15.7978533"><ele>19.0</ele><time>2026-04-04T14:15:08.579Z</time></trkpt><trkpt lat="37.920645" lon="15.7975767"><ele>19.666666666666664</ele><time>2026-04-04T14:15:09.58Z</time></trkpt><trkpt lat="37.9206267" lon="15.797295"><ele>20.333333333333332</ele><time>2026-04-04T14:15:10.579Z</time></trkpt><trkpt lat="37.9206117" lon="15.7970317"><ele>21.0</ele><time>2026-04-04T14:15:11.579Z</time></trkpt><trkpt lat="37.9205983" lon="15.7967667"><ele>22.333333333333336</ele><time>2026-04-04T14:15:12.579Z</time></trkpt><trkpt lat="37.92058" lon="15.79651"><ele>23.666666666666668</ele><time>2026-04-04T14:15:13.579Z</time></trkpt><trkpt lat="37.9205683" lon="15.7962583"><ele>25.0</ele><time>2026-04-04T14:15:14.579Z</time></trkpt><trkpt lat="37.9205517" lon="15.7960067"><ele>26.666666666666668</ele><time>2026-04-04T14:15:15.579Z</time></trkpt><trkpt lat="37.9205417" lon="15.7957617"><ele>28.333333333333336</ele><time>2026-04-04T14:15:16.579Z</time></trkpt><trkpt lat="37.9205367" lon="15.795525"><ele>30.0</ele><time>2026-04-04T14:15:17.579Z</time></trkpt><trkpt lat="37.9205367" lon="15.7952917"><ele>29.666666666666664</ele><time>2026-04-04T14:15:18.58Z</time></trkpt><trkpt lat="37.9205283" lon="15.7950733"><ele>29.333333333333332</ele><time>2026-04-04T14:15:19.579Z</time></trkpt><trkpt lat="37.920525" lon="15.794855"><ele>29.0</ele><time>2026-04-04T14:15:20.579Z</time></trkpt><trkpt lat="37.9205333" lon="15.7946333"><ele>29.0</ele><time>2026-04-04T14:15:21.58Z</time></trkpt><trkpt lat="37.9205467" lon="15.7944083"><ele>29.0</ele><time>2026-04-04T14:15:22.579Z</time></trkpt><trkpt lat="37.9205767" lon="15.7941817"><ele>29.0</ele><time>2026-04-04T14:15:23.579Z</time></trkpt><trkpt lat="37.920625" lon="15.7939583"><ele>29.0</ele><time>2026-04-04T14:15:24.58Z</time></trkpt><trkpt lat="37.9206767" lon="15.79372"><ele>29.0</ele><time>2026-04-04T14:15:25.579Z</time></trkpt><trkpt lat="37.920745" lon="15.7934833"><ele>29.0</ele><time>2026-04-04T14:15:26.579Z</time></trkpt><trkpt lat="37.9208167" lon="15.79325"><ele>28.0</ele><time>2026-04-04T14:15:27.579Z</time></trkpt><trkpt lat="37.9209083" lon="15.7930117"><ele>27.0</ele><time>2026-04-04T14:15:28.579Z</time></trkpt><trkpt lat="37.9210083" lon="15.79277"><ele>26.0</ele><time>2026-04-04T14:15:29.579Z</time></trkpt><trkpt lat="37.9211067" lon="15.7925283"><ele>26.0</ele><time>2026-04-04T14:15:30.579Z</time></trkpt><trkpt lat="37.92121" lon="15.7922683"><ele>26.0</ele><time>2026-04-04T14:15:31.579Z</time></trkpt><trkpt lat="37.9213167" lon="15.7920033"><ele>21.5</ele><time>2026-04-04T14:15:32.579Z</time></trkpt><trkpt lat="37.9214283" lon="15.7917333"><ele>17.0</ele><time>2026-04-04T14:15:33.58Z</time></trkpt><trkpt lat="37.92154" lon="15.7914583"><ele>17.0</ele><time>2026-04-04T14:15:34.579Z</time></trkpt><trkpt lat="37.9216533" lon="15.7911783"><ele>17.0</ele><time>2026-04-04T14:15:35.579Z</time></trkpt><trkpt lat="37.9217633" lon="15.7908983"><ele>18.0</ele><time>2026-04-04T14:15:36.58Z</time></trkpt><trkpt lat="37.9218717" lon="15.7906283"><ele>19.0</ele><time>2026-04-04T14:15:37.58Z</time></trkpt><trkpt lat="37.9219767" lon="15.7903633"><ele>20.0</ele><time>2026-04-04T14:15:38.579Z</time></trkpt><trkpt lat="37.9220867" lon="15.7901033"><ele>21.0</ele><time>2026-04-04T14:15:39.579Z</time></trkpt><trkpt lat="37.92219" lon="15.7898367"><ele>21.0</ele><time>2026-04-04T14:15:40.58Z</time></trkpt><trkpt lat="37.9222933" lon="15.789575"><ele>21.0</ele><time>2026-04-04T14:15:41.579Z</time></trkpt><trkpt lat="37.92239" lon="15.7893217"><ele>21.0</ele><time>2026-04-04T14:15:42.579Z</time></trkpt><trkpt lat="37.9225017" lon="15.78907"><ele>21.0</ele><time>2026-04-04T14:15:43.579Z</time></trkpt><trkpt lat="37.9226033" lon="15.7888167"><ele>22.0</ele><time>2026-04-04T14:15:44.579Z</time></trkpt><trkpt lat="37.9227033" lon="15.7885683"><ele>23.0</ele><time>2026-04-04T14:15:45.579Z</time></trkpt><trkpt lat="37.92281" lon="15.7883217"><ele>24.0</ele><time>2026-04-04T14:15:46.579Z</time></trkpt><trkpt lat="37.9229017" lon="15.7880683"><ele>24.666666666666664</ele><time>2026-04-04T14:15:47.579Z</time></trkpt><trkpt lat="37.9230067" lon="15.787815"><ele>25.333333333333332</ele><time>2026-04-04T14:15:48.579Z</time></trkpt><trkpt lat="37.9231" lon="15.7875583"><ele>26.0</ele><time>2026-04-04T14:15:49.579Z</time></trkpt><trkpt lat="37.9231933" lon="15.78729"><ele>29.5</ele><time>2026-04-04T14:15:50.58Z</time></trkpt><trkpt lat="37.92328" lon="15.78702"><ele>33.0</ele><time>2026-04-04T14:15:51.579Z</time></trkpt><trkpt lat="37.9233917" lon="15.7867667"><ele>45.5</ele><time>2026-04-04T14:15:52.58Z</time></trkpt><trkpt lat="37.9234833" lon="15.78651"><ele>58.0</ele><time>2026-04-04T14:15:53.58Z</time></trkpt><trkpt lat="37.9235733" lon="15.7862383"><ele>57.5</ele><time>2026-04-04T14:15:54.579Z</time></trkpt><trkpt lat="37.9236633" lon="15.78596"><ele>57.0</ele><time>2026-04-04T14:15:55.58Z</time></trkpt><trkpt lat="37.924205" lon="15.7821"><ele>57.0</ele><time>2026-04-04T14:16:12.579Z</time></trkpt><trkpt lat="37.924185" lon="15.7819"><ele>57.0</ele><time>2026-04-04T14:16:13.579Z</time></trkpt><trkpt lat="37.9242583" lon="15.7817717"><ele>57.0</ele><time>2026-04-04T14:16:14.579Z</time></trkpt><trkpt lat="37.9243117" lon="15.7816483"><ele>57.0</ele><time>2026-04-04T14:16:15.579Z</time></trkpt><trkpt lat="37.9243433" lon="15.7815267"><ele>55.666666666666664</ele><time>2026-04-04T14:16:16.579Z</time></trkpt><trkpt lat="37.9243767" lon="15.78143"><ele>54.33333333333333</ele><time>2026-04-04T14:16:17.579Z</time></trkpt><trkpt lat="37.92442" lon="15.7813417"><ele>53.0</ele><time>2026-04-04T14:16:18.579Z</time></trkpt><trkpt lat="37.9244683" lon="15.7812633"><ele>51.666666666666664</ele><time>2026-04-04T14:16:19.579Z</time></trkpt><trkpt lat="37.924505" lon="15.7811867"><ele>50.33333333333333</ele><time>2026-04-04T14:16:20.579Z</time></trkpt><trkpt lat="37.92454" lon="15.7811017"><ele>49.0</ele><time>2026-04-04T14:16:21.579Z</time></trkpt><trkpt lat="37.9245483" lon="15.781005"><ele>46.25</ele><time>2026-04-04T14:16:22.579Z</time></trkpt><trkpt lat="37.9245283" lon="15.780895"><ele>43.5</ele><time>2026-04-04T14:16:23.579Z</time></trkpt><trkpt lat="37.9244983" lon="15.780755"><ele>40.75</ele><time>2026-04-04T14:16:24.579Z</time></trkpt><trkpt lat="37.9244533" lon="15.78056"><ele>38.0</ele><time>2026-04-04T14:16:25.579Z</time></trkpt><trkpt lat="37.9244183" lon="15.780325"><ele>37.33333333333333</ele><time>2026-04-04T14:16:26.579Z</time></trkpt><trkpt lat="37.9243917" lon="15.780085"><ele>36.666666666666664</ele><time>2026-04-04T14:16:27.58Z</time></trkpt><trkpt lat="37.924375" lon="15.77985"><ele>36.0</ele><time>2026-04-04T14:16:28.579Z</time></trkpt><trkpt lat="37.924335" lon="15.7796083"><ele>36.0</ele><time>2026-04-04T14:16:29.58Z</time></trkpt><trkpt lat="37.9242767" lon="15.77936"><ele>36.0</ele><time>2026-04-04T14:16:30.579Z</time></trkpt><trkpt lat="37.9242" lon="15.7791083"><ele>36.0</ele><time>2026-04-04T14:16:31.579Z</time></trkpt><trkpt lat="37.92411" lon="15.77886"><ele>36.5</ele><time>2026-04-04T14:16:32.579Z</time></trkpt><trkpt lat="37.9239917" lon="15.7785983"><ele>37.0</ele><time>2026-04-04T14:16:33.579Z</time></trkpt><trkpt lat="37.9238617" lon="15.7783483"><ele>39.0</ele><time>2026-04-04T14:16:34.579Z</time></trkpt><trkpt lat="37.923735" lon="15.7781017"><ele>41.0</ele><time>2026-04-04T14:16:35.58Z</time></trkpt><trkpt lat="37.9236017" lon="15.777855"><ele>36.5</ele><time>2026-04-04T14:16:36.579Z</time></trkpt><trkpt lat="37.9234633" lon="15.7776067"><ele>32.0</ele><time>2026-04-04T14:16:37.579Z</time></trkpt><trkpt lat="37.9233167" lon="15.7773483"><ele>31.5</ele><time>2026-04-04T14:16:38.579Z</time></trkpt><trkpt lat="37.9231817" lon="15.7770867"><ele>31.0</ele><time>2026-04-04T14:16:39.579Z</time></trkpt><trkpt lat="37.923045" lon="15.7768283"><ele>30.5</ele><time>2026-04-04T14:16:40.579Z</time></trkpt><trkpt lat="37.9229133" lon="15.776575"><ele>30.0</ele><time>2026-04-04T14:16:41.579Z</time></trkpt><trkpt lat="37.9227917" lon="15.7763133"><ele>30.0</ele><time>2026-04-04T14:16:42.579Z</time></trkpt><trkpt lat="37.9226783" lon="15.7760417"><ele>30.0</ele><time>2026-04-04T14:16:43.579Z</time></trkpt><trkpt lat="37.9225817" lon="15.7757567"><ele>30.5</ele><time>2026-04-04T14:16:44.579Z</time></trkpt><trkpt lat="37.9225067" lon="15.77547"><ele>31.0</ele><time>2026-04-04T14:16:45.579Z</time></trkpt><trkpt lat="37.9224517" lon="15.7751883"><ele>33.5</ele><time>2026-04-04T14:16:46.579Z</time></trkpt><trkpt lat="37.92242" lon="15.7748967"><ele>36.0</ele><time>2026-04-04T14:16:47.579Z</time></trkpt><trkpt lat="37.922405" lon="15.7746083"><ele>34.0</ele><time>2026-04-04T14:16:48.579Z</time></trkpt><trkpt lat="37.9224017" lon="15.7743067"><ele>32.0</ele><time>2026-04-04T14:16:49.579Z</time></trkpt><trkpt lat="37.9224183" lon="15.774005"><ele>32.0</ele><time>2026-04-04T14:16:50.579Z</time></trkpt><trkpt lat="37.922445" lon="15.7737033"><ele>32.0</ele><time>2026-04-04T14:16:51.58Z</time></trkpt><trkpt lat="37.9224833" lon="15.7733983"><ele>31.0</ele><time>2026-04-04T14:16:52.58Z</time></trkpt><trkpt lat="37.9225117" lon="15.7730967"><ele>30.0</ele><time>2026-04-04T14:16:53.579Z</time></trkpt><trkpt lat="37.9225283" lon="15.7727967"><ele>29.5</ele><time>2026-04-04T14:16:54.579Z</time></trkpt><trkpt lat="37.9225483" lon="15.7724983"><ele>29.0</ele><time>2026-04-04T14:16:55.579Z</time></trkpt><trkpt lat="37.9225567" lon="15.7721883"><ele>29.0</ele><time>2026-04-04T14:16:56.579Z</time></trkpt><trkpt lat="37.9225483" lon="15.7718783"><ele>29.0</ele><time>2026-04-04T14:16:57.579Z</time></trkpt><trkpt lat="37.9225333" lon="15.7715567"><ele>27.0</ele><time>2026-04-04T14:16:58.579Z</time></trkpt><trkpt lat="37.9225133" lon="15.7712383"><ele>25.0</ele><time>2026-04-04T14:16:59.58Z</time></trkpt><trkpt lat="37.9224983" lon="15.7709117"><ele>23.0</ele><time>2026-04-04T14:17:00.58Z</time></trkpt><trkpt lat="37.922485" lon="15.7705833"><ele>21.0</ele><time>2026-04-04T14:17:01.579Z</time></trkpt><trkpt lat="37.9224667" lon="15.770275"><ele>21.5</ele><time>2026-04-04T14:17:02.58Z</time></trkpt><trkpt lat="37.9224483" lon="15.7699567"><ele>22.0</ele><time>2026-04-04T14:17:03.579Z</time></trkpt><trkpt lat="37.922435" lon="15.7696367"><ele>24.5</ele><time>2026-04-04T14:17:04.58Z</time></trkpt><trkpt lat="37.922415" lon="15.7693183"><ele>27.0</ele><time>2026-04-04T14:17:05.579Z</time></trkpt><trkpt lat="37.9223883" lon="15.7690033"><ele>27.0</ele><time>2026-04-04T14:17:06.58Z</time></trkpt><trkpt lat="37.922365" lon="15.7686983"><ele>27.0</ele><time>2026-04-04T14:17:07.579Z</time></trkpt><trkpt lat="37.9223533" lon="15.7684"><ele>31.0</ele><time>2026-04-04T14:17:08.579Z</time></trkpt><trkpt lat="37.9223517" lon="15.7681033"><ele>35.0</ele><time>2026-04-04T14:17:09.579Z</time></trkpt><trkpt lat="37.922365" lon="15.7678117"><ele>34.0</ele><time>2026-04-04T14:17:10.579Z</time></trkpt><trkpt lat="37.9223983" lon="15.7675133"><ele>33.0</ele><time>2026-04-04T14:17:11.579Z</time></trkpt><trkpt lat="37.9224433" lon="15.7672217"><ele>33.0</ele><time>2026-04-04T14:17:12.579Z</time></trkpt><trkpt lat="37.92251" lon="15.7669417"><ele>33.0</ele><time>2026-04-04T14:17:13.58Z</time></trkpt><trkpt lat="37.92258" lon="15.7666633"><ele>36.5</ele><time>2026-04-04T14:17:14.58Z</time></trkpt><trkpt lat="37.9226567" lon="15.7663833"><ele>40.0</ele><time>2026-04-04T14:17:15.579Z</time></trkpt><trkpt lat="37.922725" lon="15.76611"><ele>38.66666666666667</ele><time>2026-04-04T14:17:16.579Z</time></trkpt><trkpt lat="37.9227967" lon="15.7658483"><ele>37.333333333333336</ele><time>2026-04-04T14:17:17.579Z</time></trkpt><trkpt lat="37.9228667" lon="15.7656017"><ele>36.0</ele><time>2026-04-04T14:17:18.579Z</time></trkpt><trkpt lat="37.9229333" lon="15.7653567"><ele>35.0</ele><time>2026-04-04T14:17:19.579Z</time></trkpt><trkpt lat="37.9229917" lon="15.7651183"><ele>34.0</ele><time>2026-04-04T14:17:20.579Z</time></trkpt><trkpt lat="37.9230583" lon="15.7648967"><ele>33.0</ele><time>2026-04-04T14:17:21.579Z</time></trkpt><trkpt lat="37.9231267" lon="15.7646883"><ele>33.0</ele><time>2026-04-04T14:17:22.58Z</time></trkpt><trkpt lat="37.92318" lon="15.7644783"><ele>33.0</ele><time>2026-04-04T14:17:23.58Z</time></trkpt><trkpt lat="37.9232433" lon="15.764275"><ele>33.0</ele><time>2026-04-04T14:17:24.579Z</time></trkpt><trkpt lat="37.9233017" lon="15.7640767"><ele>32.666666666666664</ele><time>2026-04-04T14:17:25.579Z</time></trkpt><trkpt lat="37.9233583" lon="15.7638817"><ele>32.33333333333333</ele><time>2026-04-04T14:17:26.58Z</time></trkpt><trkpt lat="37.9234167" lon="15.7636833"><ele>32.0</ele><time>2026-04-04T14:17:27.58Z</time></trkpt><trkpt lat="37.9234817" lon="15.76349"><ele>34.666666666666664</ele><time>2026-04-04T14:17:28.579Z</time></trkpt><trkpt lat="37.92355" lon="15.7633"><ele>37.333333333333336</ele><time>2026-04-04T14:17:29.58Z</time></trkpt><trkpt lat="37.9236183" lon="15.76312"><ele>40.0</ele><time>2026-04-04T14:17:30.579Z</time></trkpt><trkpt lat="37.923705" lon="15.76295"><ele>40.0</ele><time>2026-04-04T14:17:31.58Z</time></trkpt><trkpt lat="37.9237917" lon="15.7627667"><ele>40.0</ele><time>2026-04-04T14:17:32.58Z</time></trkpt><trkpt lat="37.9238883" lon="15.7625917"><ele>40.0</ele><time>2026-04-04T14:17:33.579Z</time></trkpt><trkpt lat="37.9239783" lon="15.7624167"><ele>37.333333333333336</ele><time>2026-04-04T14:17:34.579Z</time></trkpt><trkpt lat="37.92407" lon="15.7622367"><ele>34.666666666666664</ele><time>2026-04-04T14:17:35.579Z</time></trkpt><trkpt lat="37.9241717" lon="15.7620583"><ele>32.0</ele><time>2026-04-04T14:17:36.579Z</time></trkpt><trkpt lat="37.9242733" lon="15.761885"><ele>30.0</ele><time>2026-04-04T14:17:37.579Z</time></trkpt><trkpt lat="37.92438" lon="15.76168"><ele>28.0</ele><time>2026-04-04T14:17:38.579Z</time></trkpt><trkpt lat="37.924485" lon="15.7614733"><ele>26.0</ele><time>2026-04-04T14:17:39.579Z</time></trkpt><trkpt lat="37.924595" lon="15.76126"><ele>26.0</ele><time>2026-04-04T14:17:40.58Z</time></trkpt><trkpt lat="37.9247067" lon="15.7610367"><ele>26.0</ele><time>2026-04-04T14:17:41.58Z</time></trkpt><trkpt lat="37.924835" lon="15.7608133"><ele>26.0</ele><time>2026-04-04T14:17:42.579Z</time></trkpt><trkpt lat="37.9249583" lon="15.760585"><ele>27.666666666666664</ele><time>2026-04-04T14:17:43.579Z</time></trkpt><trkpt lat="37.9250883" lon="15.7603483"><ele>29.333333333333336</ele><time>2026-04-04T14:17:44.579Z</time></trkpt><trkpt lat="37.92521" lon="15.7601233"><ele>31.0</ele><time>2026-04-04T14:17:45.579Z</time></trkpt><trkpt lat="37.9253283" lon="15.7599067"><ele>31.333333333333336</ele><time>2026-04-04T14:17:46.579Z</time></trkpt><trkpt lat="37.9254383" lon="15.7596933"><ele>31.666666666666664</ele><time>2026-04-04T14:17:47.579Z</time></trkpt><trkpt lat="37.92556" lon="15.7594833"><ele>32.0</ele><time>2026-04-04T14:17:48.58Z</time></trkpt><trkpt lat="37.925675" lon="15.7592667"><ele>32.0</ele><time>2026-04-04T14:17:49.58Z</time></trkpt><trkpt lat="37.9257883" lon="15.7590617"><ele>32.0</ele><time>2026-04-04T14:17:50.579Z</time></trkpt><trkpt lat="37.9259" lon="15.758865"><ele>32.0</ele><time>2026-04-04T14:17:51.579Z</time></trkpt><trkpt lat="37.9260067" lon="15.7586667"><ele>33.0</ele><time>2026-04-04T14:17:52.579Z</time></trkpt><trkpt lat="37.9261183" lon="15.7584567"><ele>34.0</ele><time>2026-04-04T14:17:53.579Z</time></trkpt><trkpt lat="37.9262267" lon="15.7582367"><ele>35.0</ele><time>2026-04-04T14:17:54.58Z</time></trkpt><trkpt lat="37.9263467" lon="15.7580117"><ele>35.0</ele><time>2026-04-04T14:17:55.579Z</time></trkpt><trkpt lat="37.9264617" lon="15.7577917"><ele>35.0</ele><time>2026-04-04T14:17:56.579Z</time></trkpt><trkpt lat="37.92658" lon="15.75757"><ele>35.0</ele><time>2026-04-04T14:17:57.58Z</time></trkpt><trkpt lat="37.9266933" lon="15.75734"><ele>35.33333333333333</ele><time>2026-04-04T14:17:58.579Z</time></trkpt><trkpt lat="37.926815" lon="15.7571217"><ele>35.666666666666664</ele><time>2026-04-04T14:17:59.579Z</time></trkpt><trkpt lat="37.92693" lon="15.7569017"><ele>36.0</ele><time>2026-04-04T14:18:00.58Z</time></trkpt><trkpt lat="37.9270483" lon="15.7566933"><ele>35.333333333333336</ele><time>2026-04-04T14:18:01.579Z</time></trkpt><trkpt lat="37.9271617" lon="15.7564783"><ele>34.66666666666667</ele><time>2026-04-04T14:18:02.579Z</time></trkpt><trkpt lat="37.92727" lon="15.75627"><ele>34.0</ele><time>2026-04-04T14:18:03.579Z</time></trkpt><trkpt lat="37.927375" lon="15.7560517"><ele>34.0</ele><time>2026-04-04T14:18:04.579Z</time></trkpt><trkpt lat="37.9274783" lon="15.7558233"><ele>34.0</ele><time>2026-04-04T14:18:05.579Z</time></trkpt><trkpt lat="37.9275817" lon="15.75559"><ele>34.0</ele><time>2026-04-04T14:18:06.579Z</time></trkpt><trkpt lat="37.9276833" lon="15.755345"><ele>34.66666666666667</ele><time>2026-04-04T14:18:07.58Z</time></trkpt><trkpt lat="37.92778" lon="15.7550967"><ele>35.333333333333336</ele><time>2026-04-04T14:18:08.579Z</time></trkpt><trkpt lat="37.9278783" lon="15.7548533"><ele>36.0</ele><time>2026-04-04T14:18:09.579Z</time></trkpt><trkpt lat="37.9279867" lon="15.7546083"><ele>35.333333333333336</ele><time>2026-04-04T14:18:10.579Z</time></trkpt><trkpt lat="37.928085" lon="15.75436"><ele>34.66666666666667</ele><time>2026-04-04T14:18:11.579Z</time></trkpt><trkpt lat="37.928185" lon="15.7541"><ele>34.0</ele><time>2026-04-04T14:18:12.579Z</time></trkpt><trkpt lat="37.9282867" lon="15.7538533"><ele>34.0</ele><time>2026-04-04T14:18:13.58Z</time></trkpt><trkpt lat="37.92839" lon="15.753585"><ele>34.0</ele><time>2026-04-04T14:18:14.579Z</time></trkpt><trkpt lat="37.928505" lon="15.7533317"><ele>37.5</ele><time>2026-04-04T14:18:15.579Z</time></trkpt><trkpt lat="37.9286267" lon="15.7530783"><ele>41.0</ele><time>2026-04-04T14:18:16.579Z</time></trkpt><trkpt lat="37.9287483" lon="15.7528167"><ele>38.5</ele><time>2026-04-04T14:18:17.579Z</time></trkpt><trkpt lat="37.92887" lon="15.7525367"><ele>36.0</ele><time>2026-04-04T14:18:18.579Z</time></trkpt><trkpt lat="37.9289983" lon="15.75225"><ele>36.0</ele><time>2026-04-04T14:18:19.579Z</time></trkpt><trkpt lat="37.9291267" lon="15.75195"><ele>36.0</ele><time>2026-04-04T14:18:20.58Z</time></trkpt><trkpt lat="37.92924" lon="15.7516467"><ele>35.0</ele><time>2026-04-04T14:18:21.579Z</time></trkpt><trkpt lat="37.9293617" lon="15.75135"><ele>34.0</ele><time>2026-04-04T14:18:22.579Z</time></trkpt><trkpt lat="37.9294917" lon="15.751065"><ele>33.0</ele><time>2026-04-04T14:18:23.579Z</time></trkpt><trkpt lat="37.9296067" lon="15.7507717"><ele>32.0</ele><time>2026-04-04T14:18:24.579Z</time></trkpt><trkpt lat="37.9297083" lon="15.7504783"><ele>31.5</ele><time>2026-04-04T14:18:25.579Z</time></trkpt><trkpt lat="37.9297967" lon="15.75018"><ele>31.0</ele><time>2026-04-04T14:18:26.579Z</time></trkpt><trkpt lat="37.929875" lon="15.749885"><ele>31.0</ele><time>2026-04-04T14:18:27.58Z</time></trkpt><trkpt lat="37.9299417" lon="15.7495883"><ele>31.0</ele><time>2026-04-04T14:18:28.579Z</time></trkpt><trkpt lat="37.9300183" lon="15.7492933"><ele>33.0</ele><time>2026-04-04T14:18:29.579Z</time></trkpt><trkpt lat="37.930085" lon="15.7489983"><ele>35.0</ele><time>2026-04-04T14:18:30.579Z</time></trkpt><trkpt lat="37.930155" lon="15.7487083"><ele>34.5</ele><time>2026-04-04T14:18:31.579Z</time></trkpt><trkpt lat="37.930215" lon="15.748405"><ele>34.0</ele><time>2026-04-04T14:18:32.579Z</time></trkpt><trkpt lat="37.9302867" lon="15.7481033"><ele>34.0</ele><time>2026-04-04T14:18:33.58Z</time></trkpt><trkpt lat="37.9303567" lon="15.7478033"><ele>34.0</ele><time>2026-04-04T14:18:34.58Z</time></trkpt><trkpt lat="37.9304283" lon="15.7474933"><ele>32.5</ele><time>2026-04-04T14:18:35.579Z</time></trkpt><trkpt lat="37.9304967" lon="15.7471917"><ele>31.0</ele><time>2026-04-04T14:18:36.579Z</time></trkpt><trkpt lat="37.9305617" lon="15.7468933"><ele>30.5</ele><time>2026-04-04T14:18:37.579Z</time></trkpt><trkpt lat="37.9306283" lon="15.7465883"><ele>30.0</ele><time>2026-04-04T14:18:38.579Z</time></trkpt><trkpt lat="37.9306967" lon="15.7463"><ele>30.0</ele><time>2026-04-04T14:18:39.58Z</time></trkpt><trkpt lat="37.9307667" lon="15.7460167"><ele>30.0</ele><time>2026-04-04T14:18:40.579Z</time></trkpt><trkpt lat="37.9308367" lon="15.7457283"><ele>30.5</ele><time>2026-04-04T14:18:41.58Z</time></trkpt><trkpt lat="37.9309067" lon="15.7454417"><ele>31.0</ele><time>2026-04-04T14:18:42.579Z</time></trkpt><trkpt lat="37.9309733" lon="15.7451533"><ele>29.0</ele><time>2026-04-04T14:18:43.579Z</time></trkpt><trkpt lat="37.9310383" lon="15.7448633"><ele>27.0</ele><time>2026-04-04T14:18:44.58Z</time></trkpt><trkpt lat="37.9311033" lon="15.7445617"><ele>27.0</ele><time>2026-04-04T14:18:45.58Z</time></trkpt><trkpt lat="37.9311683" lon="15.744265"><ele>27.0</ele><time>2026-04-04T14:18:46.581Z</time></trkpt><trkpt lat="37.9312367" lon="15.743975"><ele>27.0</ele><time>2026-04-04T14:18:47.581Z</time></trkpt><trkpt lat="37.9313067" lon="15.743675"><ele>27.0</ele><time>2026-04-04T14:18:48.58Z</time></trkpt><trkpt lat="37.931375" lon="15.7433667"><ele>28.5</ele><time>2026-04-04T14:18:49.58Z</time></trkpt><trkpt lat="37.9314367" lon="15.7430467"><ele>30.0</ele><time>2026-04-04T14:18:50.58Z</time></trkpt><trkpt lat="37.9315133" lon="15.7427133"><ele>30.5</ele><time>2026-04-04T14:18:51.58Z</time></trkpt><trkpt lat="37.9315933" lon="15.7423683"><ele>31.0</ele><time>2026-04-04T14:18:52.58Z</time></trkpt><trkpt lat="37.9316733" lon="15.742015"><ele>32.5</ele><time>2026-04-04T14:18:53.581Z</time></trkpt><trkpt lat="37.931755" lon="15.74167"><ele>34.0</ele><time>2026-04-04T14:18:54.58Z</time></trkpt><trkpt lat="37.9318383" lon="15.7413183"><ele>33.0</ele><time>2026-04-04T14:18:55.58Z</time></trkpt><trkpt lat="37.9319183" lon="15.7409817"><ele>32.0</ele><time>2026-04-04T14:18:56.58Z</time></trkpt><trkpt lat="37.931995" lon="15.7406583"><ele>32.0</ele><time>2026-04-04T14:18:57.58Z</time></trkpt><trkpt lat="37.932075" lon="15.7403433"><ele>32.0</ele><time>2026-04-04T14:18:58.58Z</time></trkpt><trkpt lat="37.9321533" lon="15.7400217"><ele>31.5</ele><time>2026-04-04T14:18:59.581Z</time></trkpt><trkpt lat="37.9322283" lon="15.7397033"><ele>31.0</ele><time>2026-04-04T14:19:00.58Z</time></trkpt><trkpt lat="37.9323017" lon="15.7393867"><ele>31.0</ele><time>2026-04-04T14:19:01.58Z</time></trkpt><trkpt lat="37.9323783" lon="15.73907"><ele>31.0</ele><time>2026-04-04T14:19:02.58Z</time></trkpt><trkpt lat="37.93246" lon="15.7387517"><ele>30.0</ele><time>2026-04-04T14:19:03.58Z</time></trkpt><trkpt lat="37.9325367" lon="15.738425"><ele>29.0</ele><time>2026-04-04T14:19:04.58Z</time></trkpt><trkpt lat="37.93261" lon="15.738105"><ele>33.5</ele><time>2026-04-04T14:19:05.58Z</time></trkpt><trkpt lat="37.9326867" lon="15.737785"><ele>38.0</ele><time>2026-04-04T14:19:06.58Z</time></trkpt><trkpt lat="37.9327617" lon="15.7374717"><ele>38.5</ele><time>2026-04-04T14:19:07.58Z</time></trkpt><trkpt lat="37.93284" lon="15.7371583"><ele>39.0</ele><time>2026-04-04T14:19:08.581Z</time></trkpt><trkpt lat="37.9329117" lon="15.73683"><ele>39.0</ele><time>2026-04-04T14:19:09.58Z</time></trkpt><trkpt lat="37.9329933" lon="15.7365067"><ele>39.0</ele><time>2026-04-04T14:19:10.581Z</time></trkpt><trkpt lat="37.9330617" lon="15.7361867"><ele>36.0</ele><time>2026-04-04T14:19:11.581Z</time></trkpt><trkpt lat="37.93313" lon="15.73587"><ele>33.0</ele><time>2026-04-04T14:19:12.58Z</time></trkpt><trkpt lat="37.933195" lon="15.7355633"><ele>33.0</ele><time>2026-04-04T14:19:13.58Z</time></trkpt><trkpt lat="37.933265" lon="15.735255"><ele>33.0</ele><time>2026-04-04T14:19:14.58Z</time></trkpt><trkpt lat="37.9333367" lon="15.7349483"><ele>35.5</ele><time>2026-04-04T14:19:15.58Z</time></trkpt><trkpt lat="37.9334133" lon="15.7346367"><ele>38.0</ele><time>2026-04-04T14:19:16.58Z</time></trkpt><trkpt lat="37.9334833" lon="15.73434"><ele>38.0</ele><time>2026-04-04T14:19:17.581Z</time></trkpt><trkpt lat="37.9335583" lon="15.7340383"><ele>38.0</ele><time>2026-04-04T14:19:18.58Z</time></trkpt><trkpt lat="37.9336283" lon="15.73373"><ele>34.0</ele><time>2026-04-04T14:19:19.58Z</time></trkpt><trkpt lat="37.9337" lon="15.7334233"><ele>30.0</ele><time>2026-04-04T14:19:20.581Z</time></trkpt><trkpt lat="37.9337717" lon="15.7331117"><ele>30.0</ele><time>2026-04-04T14:19:21.581Z</time></trkpt><trkpt lat="37.9338483" lon="15.73279"><ele>30.0</ele><time>2026-04-04T14:19:22.58Z</time></trkpt><trkpt lat="37.9339183" lon="15.732475"><ele>28.5</ele><time>2026-04-04T14:19:23.58Z</time></trkpt><trkpt lat="37.933985" lon="15.7321533"><ele>27.0</ele><time>2026-04-04T14:19:24.58Z</time></trkpt><trkpt lat="37.934055" lon="15.7318383"><ele>25.5</ele><time>2026-04-04T14:19:25.58Z</time></trkpt><trkpt lat="37.9341267" lon="15.731525"><ele>24.0</ele><time>2026-04-04T14:19:26.58Z</time></trkpt><trkpt lat="37.9341983" lon="15.7312183"><ele>23.5</ele><time>2026-04-04T14:19:27.58Z</time></trkpt><trkpt lat="37.9342683" lon="15.7309233"><ele>23.0</ele><time>2026-04-04T14:19:28.58Z</time></trkpt><trkpt lat="37.9343383" lon="15.7306333"><ele>23.0</ele><time>2026-04-04T14:19:29.58Z</time></trkpt><trkpt lat="37.9344083" lon="15.7303433"><ele>23.0</ele><time>2026-04-04T14:19:30.58Z</time></trkpt><trkpt lat="37.9344817" lon="15.7300533"><ele>21.0</ele><time>2026-04-04T14:19:31.581Z</time></trkpt><trkpt lat="37.934565" lon="15.7297717"><ele>19.0</ele><time>2026-04-04T14:19:32.58Z</time></trkpt><trkpt lat="37.9346517" lon="15.7295033"><ele>18.0</ele><time>2026-04-04T14:19:33.58Z</time></trkpt><trkpt lat="37.9347467" lon="15.7292233"><ele>17.0</ele><time>2026-04-04T14:19:34.581Z</time></trkpt><trkpt lat="37.9348533" lon="15.7289367"><ele>17.0</ele><time>2026-04-04T14:19:35.58Z</time></trkpt><trkpt lat="37.9349667" lon="15.7286517"><ele>17.0</ele><time>2026-04-04T14:19:36.58Z</time></trkpt><trkpt lat="37.93509" lon="15.7283733"><ele>16.5</ele><time>2026-04-04T14:19:37.58Z</time></trkpt><trkpt lat="37.93522" lon="15.7280917"><ele>16.0</ele><time>2026-04-04T14:19:38.58Z</time></trkpt><trkpt lat="37.9353383" lon="15.7278017"><ele>15.0</ele><time>2026-04-04T14:19:39.581Z</time></trkpt><trkpt lat="37.9354583" lon="15.727505"><ele>14.0</ele><time>2026-04-04T14:19:40.58Z</time></trkpt><trkpt lat="37.9355867" lon="15.72722"><ele>14.0</ele><time>2026-04-04T14:19:41.58Z</time></trkpt><trkpt lat="37.9357067" lon="15.7269217"><ele>14.0</ele><time>2026-04-04T14:19:42.581Z</time></trkpt><trkpt lat="37.9358283" lon="15.7266367"><ele>12.5</ele><time>2026-04-04T14:19:43.581Z</time></trkpt><trkpt lat="37.93595" lon="15.726345"><ele>11.0</ele><time>2026-04-04T14:19:44.58Z</time></trkpt><trkpt lat="37.9360617" lon="15.7260617"><ele>12.0</ele><time>2026-04-04T14:19:45.58Z</time></trkpt><trkpt lat="37.9361767" lon="15.7257867"><ele>13.0</ele><time>2026-04-04T14:19:46.58Z</time></trkpt><trkpt lat="37.936295" lon="15.72552"><ele>13.0</ele><time>2026-04-04T14:19:47.58Z</time></trkpt><trkpt lat="37.93641" lon="15.7252433"><ele>13.0</ele><time>2026-04-04T14:19:48.58Z</time></trkpt><trkpt lat="37.9365183" lon="15.7249733"><ele>12.666666666666666</ele><time>2026-04-04T14:19:49.58Z</time></trkpt><trkpt lat="37.936625" lon="15.7247233"><ele>12.333333333333332</ele><time>2026-04-04T14:19:50.58Z</time></trkpt><trkpt lat="37.9367317" lon="15.7244717"><ele>12.0</ele><time>2026-04-04T14:19:51.581Z</time></trkpt><trkpt lat="37.9368317" lon="15.7242333"><ele>11.666666666666666</ele><time>2026-04-04T14:19:52.58Z</time></trkpt><trkpt lat="37.9369333" lon="15.7240167"><ele>11.333333333333332</ele><time>2026-04-04T14:19:53.58Z</time></trkpt><trkpt lat="37.9370267" lon="15.7238"><ele>11.0</ele><time>2026-04-04T14:19:54.58Z</time></trkpt><trkpt lat="37.9371033" lon="15.7235933"><ele>10.333333333333332</ele><time>2026-04-04T14:19:55.58Z</time></trkpt><trkpt lat="37.9371817" lon="15.7233883"><ele>9.666666666666666</ele><time>2026-04-04T14:19:56.581Z</time></trkpt><trkpt lat="37.9372533" lon="15.7231883"><ele>9.0</ele><time>2026-04-04T14:19:57.581Z</time></trkpt><trkpt lat="37.9373167" lon="15.7229733"><ele>9.0</ele><time>2026-04-04T14:19:58.581Z</time></trkpt><trkpt lat="37.9373633" lon="15.7227483"><ele>9.0</ele><time>2026-04-04T14:19:59.58Z</time></trkpt><trkpt lat="37.937405" lon="15.7225117"><ele>9.0</ele><time>2026-04-04T14:20:00.58Z</time></trkpt><trkpt lat="37.9374483" lon="15.7222583"><ele>8.333333333333334</ele><time>2026-04-04T14:20:01.58Z</time></trkpt><trkpt lat="37.9374833" lon="15.722"><ele>7.666666666666667</ele><time>2026-04-04T14:20:02.58Z</time></trkpt><trkpt lat="37.9375117" lon="15.7217"><ele>7.0</ele><time>2026-04-04T14:20:03.58Z</time></trkpt><trkpt lat="37.9375433" lon="15.7213967"><ele>8.5</ele><time>2026-04-04T14:20:04.58Z</time></trkpt><trkpt lat="37.9375817" lon="15.7210633"><ele>10.0</ele><time>2026-04-04T14:20:05.58Z</time></trkpt><trkpt lat="37.9376217" lon="15.7207283"><ele>10.0</ele><time>2026-04-04T14:20:06.58Z</time></trkpt><trkpt lat="37.937665" lon="15.7203917"><ele>10.0</ele><time>2026-04-04T14:20:07.58Z</time></trkpt><trkpt lat="37.9377067" lon="15.72006"><ele>8.5</ele><time>2026-04-04T14:20:08.58Z</time></trkpt><trkpt lat="37.9377467" lon="15.71973"><ele>7.0</ele><time>2026-04-04T14:20:09.58Z</time></trkpt><trkpt lat="37.9377883" lon="15.7193983"><ele>7.0</ele><time>2026-04-04T14:20:10.58Z</time></trkpt><trkpt lat="37.937825" lon="15.7190583"><ele>7.0</ele><time>2026-04-04T14:20:11.58Z</time></trkpt><trkpt lat="37.9378683" lon="15.7187017"><ele>6.0</ele><time>2026-04-04T14:20:12.58Z</time></trkpt><trkpt lat="37.937905" lon="15.7183467"><ele>5.0</ele><time>2026-04-04T14:20:13.58Z</time></trkpt><trkpt lat="37.9379467" lon="15.7179967"><ele>5.5</ele><time>2026-04-04T14:20:14.581Z</time></trkpt><trkpt lat="37.937985" lon="15.7176667"><ele>6.0</ele><time>2026-04-04T14:20:15.581Z</time></trkpt><trkpt lat="37.9380233" lon="15.7173433"><ele>6.0</ele><time>2026-04-04T14:20:16.58Z</time></trkpt><trkpt lat="37.93806" lon="15.7170283"><ele>6.0</ele><time>2026-04-04T14:20:17.58Z</time></trkpt><trkpt lat="37.9381" lon="15.7167217"><ele>7.5</ele><time>2026-04-04T14:20:18.58Z</time></trkpt><trkpt lat="37.93815" lon="15.7164117"><ele>9.0</ele><time>2026-04-04T14:20:19.58Z</time></trkpt><trkpt lat="37.93822" lon="15.7160983"><ele>9.5</ele><time>2026-04-04T14:20:20.58Z</time></trkpt><trkpt lat="37.9382933" lon="15.7157983"><ele>10.0</ele><time>2026-04-04T14:20:21.58Z</time></trkpt><trkpt lat="37.9383733" lon="15.7155067"><ele>10.5</ele><time>2026-04-04T14:20:22.58Z</time></trkpt><trkpt lat="37.93847" lon="15.7152267"><ele>11.0</ele><time>2026-04-04T14:20:23.58Z</time></trkpt><trkpt lat="37.9385617" lon="15.714945"><ele>11.0</ele><time>2026-04-04T14:20:24.58Z</time></trkpt><trkpt lat="37.938655" lon="15.7146567"><ele>11.0</ele><time>2026-04-04T14:20:25.58Z</time></trkpt><trkpt lat="37.9387433" lon="15.71437"><ele>12.0</ele><time>2026-04-04T14:20:26.58Z</time></trkpt><trkpt lat="37.9388383" lon="15.7140667"><ele>13.0</ele><time>2026-04-04T14:20:27.58Z</time></trkpt><trkpt lat="37.9389317" lon="15.7137667"><ele>14.0</ele><time>2026-04-04T14:20:28.58Z</time></trkpt><trkpt lat="37.9390283" lon="15.7134533"><ele>15.0</ele><time>2026-04-04T14:20:29.581Z</time></trkpt><trkpt lat="37.9391283" lon="15.7131417"><ele>16.0</ele><time>2026-04-04T14:20:30.58Z</time></trkpt><trkpt lat="37.9392267" lon="15.71283"><ele>17.0</ele><time>2026-04-04T14:20:31.58Z</time></trkpt><trkpt lat="37.9393317" lon="15.7125133"><ele>17.0</ele><time>2026-04-04T14:20:32.58Z</time></trkpt><trkpt lat="37.93944" lon="15.71218"><ele>17.0</ele><time>2026-04-04T14:20:33.58Z</time></trkpt><trkpt lat="37.9395433" lon="15.7118533"><ele>15.0</ele><time>2026-04-04T14:20:34.58Z</time></trkpt><trkpt lat="37.9396433" lon="15.7115333"><ele>13.0</ele><time>2026-04-04T14:20:35.581Z</time></trkpt><trkpt lat="37.9397417" lon="15.71122"><ele>12.5</ele><time>2026-04-04T14:20:36.581Z</time></trkpt><trkpt lat="37.9398333" lon="15.71092"><ele>12.0</ele><time>2026-04-04T14:20:37.58Z</time></trkpt><trkpt lat="37.93992" lon="15.710625"><ele>12.0</ele><time>2026-04-04T14:20:38.581Z</time></trkpt><trkpt lat="37.9400117" lon="15.7103467"><ele>12.0</ele><time>2026-04-04T14:20:39.58Z</time></trkpt><trkpt lat="37.9400967" lon="15.7100733"><ele>12.666666666666668</ele><time>2026-04-04T14:20:40.58Z</time></trkpt><trkpt lat="37.9401783" lon="15.70981"><ele>13.333333333333334</ele><time>2026-04-04T14:20:41.58Z</time></trkpt><trkpt lat="37.9402667" lon="15.7095533"><ele>14.0</ele><time>2026-04-04T14:20:42.58Z</time></trkpt><trkpt lat="37.9403583" lon="15.7092933"><ele>12.666666666666668</ele><time>2026-04-04T14:20:43.581Z</time></trkpt><trkpt lat="37.9404617" lon="15.7090467"><ele>11.333333333333334</ele><time>2026-04-04T14:20:44.581Z</time></trkpt><trkpt lat="37.9405767" lon="15.7088117"><ele>10.0</ele><time>2026-04-04T14:20:45.58Z</time></trkpt><trkpt lat="37.940705" lon="15.70859"><ele>10.333333333333334</ele><time>2026-04-04T14:20:46.58Z</time></trkpt><trkpt lat="37.9408433" lon="15.7083717"><ele>10.666666666666666</ele><time>2026-04-04T14:20:47.58Z</time></trkpt><trkpt lat="37.9409983" lon="15.70816"><ele>11.0</ele><time>2026-04-04T14:20:48.58Z</time></trkpt><trkpt lat="37.941165" lon="15.7079517"><ele>11.0</ele><time>2026-04-04T14:20:49.58Z</time></trkpt><trkpt lat="37.9413333" lon="15.70775"><ele>11.0</ele><time>2026-04-04T14:20:50.58Z</time></trkpt><trkpt lat="37.9415083" lon="15.7075367"><ele>11.5</ele><time>2026-04-04T14:20:51.58Z</time></trkpt><trkpt lat="37.94169" lon="15.7073283"><ele>12.0</ele><time>2026-04-04T14:20:52.58Z</time></trkpt><trkpt lat="37.9418733" lon="15.70711"><ele>12.0</ele><time>2026-04-04T14:20:53.58Z</time></trkpt><trkpt lat="37.9420583" lon="15.7068833"><ele>12.0</ele><time>2026-04-04T14:20:54.58Z</time></trkpt><trkpt lat="37.9422483" lon="15.7066483"><ele>12.0</ele><time>2026-04-04T14:20:55.58Z</time></trkpt><trkpt lat="37.9424233" lon="15.70644"><ele>12.0</ele><time>2026-04-04T14:20:56.581Z</time></trkpt><trkpt lat="37.9425933" lon="15.7062283"><ele>11.5</ele><time>2026-04-04T14:20:57.58Z</time></trkpt><trkpt lat="37.942765" lon="15.7060067"><ele>11.0</ele><time>2026-04-04T14:20:58.58Z</time></trkpt><trkpt lat="37.94294" lon="15.7057917"><ele>11.0</ele><time>2026-04-04T14:20:59.58Z</time></trkpt><trkpt lat="37.94311" lon="15.7055933"><ele>11.0</ele><time>2026-04-04T14:21:00.58Z</time></trkpt><trkpt lat="37.9432683" lon="15.705395"><ele>12.0</ele><time>2026-04-04T14:21:01.58Z</time></trkpt><trkpt lat="37.9434267" lon="15.70519"><ele>13.0</ele><time>2026-04-04T14:21:02.58Z</time></trkpt><trkpt lat="37.9435783" lon="15.7049933"><ele>14.0</ele><time>2026-04-04T14:21:03.58Z</time></trkpt><trkpt lat="37.94372" lon="15.704815"><ele>14.0</ele><time>2026-04-04T14:21:04.58Z</time></trkpt><trkpt lat="37.9438383" lon="15.7046517"><ele>14.0</ele><time>2026-04-04T14:21:05.58Z</time></trkpt><trkpt lat="37.94396" lon="15.704525"><ele>14.0</ele><time>2026-04-04T14:21:06.58Z</time></trkpt><trkpt lat="37.9440617" lon="15.704435"><ele>14.333333333333334</ele><time>2026-04-04T14:21:07.58Z</time></trkpt><trkpt lat="37.9441517" lon="15.7043717"><ele>14.666666666666668</ele><time>2026-04-04T14:21:08.58Z</time></trkpt><trkpt lat="37.94423" lon="15.7043217"><ele>15.0</ele><time>2026-04-04T14:21:09.58Z</time></trkpt><trkpt lat="37.9443083" lon="15.70429"><ele>15.333333333333332</ele><time>2026-04-04T14:21:10.58Z</time></trkpt><trkpt lat="37.9443833" lon="15.7042717"><ele>15.666666666666666</ele><time>2026-04-04T14:21:11.58Z</time></trkpt><trkpt lat="37.944445" lon="15.7042283"><ele>16.0</ele><time>2026-04-04T14:21:12.58Z</time></trkpt><trkpt lat="37.9445017" lon="15.7041533"><ele>16.0</ele><time>2026-04-04T14:21:13.58Z</time></trkpt><trkpt lat="37.9445467" lon="15.7040567"><ele>16.0</ele><time>2026-04-04T14:21:14.58Z</time></trkpt><trkpt lat="37.9445733" lon="15.7039433"><ele>16.0</ele><time>2026-04-04T14:21:15.58Z</time></trkpt><trkpt lat="37.944605" lon="15.7037983"><ele>16.0</ele><time>2026-04-04T14:21:16.58Z</time></trkpt><trkpt lat="37.94465" lon="15.70364"><ele>16.0</ele><time>2026-04-04T14:21:17.581Z</time></trkpt><trkpt lat="37.94473" lon="15.70347"><ele>16.0</ele><time>2026-04-04T14:21:18.58Z</time></trkpt><trkpt lat="37.944845" lon="15.7033"><ele>16.0</ele><time>2026-04-04T14:21:19.58Z</time></trkpt><trkpt lat="37.9449683" lon="15.7031433"><ele>16.0</ele><time>2026-04-04T14:21:20.58Z</time></trkpt><trkpt lat="37.9451033" lon="15.7029733"><ele>16.0</ele><time>2026-04-04T14:21:21.58Z</time></trkpt><trkpt lat="37.9452383" lon="15.7027867"><ele>16.0</ele><time>2026-04-04T14:21:22.58Z</time></trkpt><trkpt lat="37.945385" lon="15.702605"><ele>16.0</ele><time>2026-04-04T14:21:23.58Z</time></trkpt><trkpt lat="37.9455283" lon="15.7023967"><ele>16.0</ele><time>2026-04-04T14:21:24.581Z</time></trkpt><trkpt lat="37.9456833" lon="15.7022"><ele>16.0</ele><time>2026-04-04T14:21:25.58Z</time></trkpt><trkpt lat="37.9458367" lon="15.702005"><ele>16.0</ele><time>2026-04-04T14:21:26.58Z</time></trkpt><trkpt lat="37.9459933" lon="15.7018033"><ele>15.5</ele><time>2026-04-04T14:21:27.58Z</time></trkpt><trkpt lat="37.9461467" lon="15.70159"><ele>15.0</ele><time>2026-04-04T14:21:28.58Z</time></trkpt><trkpt lat="37.946305" lon="15.7013817"><ele>15.0</ele><time>2026-04-04T14:21:29.58Z</time></trkpt><trkpt lat="37.94646" lon="15.70118"><ele>15.0</ele><time>2026-04-04T14:21:30.581Z</time></trkpt><trkpt lat="37.9466317" lon="15.7009617"><ele>15.0</ele><time>2026-04-04T14:21:31.58Z</time></trkpt><trkpt lat="37.946805" lon="15.70075"><ele>15.0</ele><time>2026-04-04T14:21:32.58Z</time></trkpt><trkpt lat="37.9469667" lon="15.700535"><ele>15.0</ele><time>2026-04-04T14:21:33.58Z</time></trkpt><trkpt lat="37.9471383" lon="15.700315"><ele>15.0</ele><time>2026-04-04T14:21:34.58Z</time></trkpt><trkpt lat="37.9472933" lon="15.7000967"><ele>12.5</ele><time>2026-04-04T14:21:35.58Z</time></trkpt><trkpt lat="37.9474567" lon="15.6998917"><ele>10.0</ele><time>2026-04-04T14:21:36.581Z</time></trkpt><trkpt lat="37.9476133" lon="15.6996817"><ele>10.0</ele><time>2026-04-04T14:21:37.58Z</time></trkpt><trkpt lat="37.947775" lon="15.699465"><ele>10.0</ele><time>2026-04-04T14:21:38.58Z</time></trkpt><trkpt lat="37.94793" lon="15.6992667"><ele>10.0</ele><time>2026-04-04T14:21:39.58Z</time></trkpt><trkpt lat="37.9480883" lon="15.6990683"><ele>10.0</ele><time>2026-04-04T14:21:40.58Z</time></trkpt><trkpt lat="37.9482467" lon="15.698865"><ele>10.0</ele><time>2026-04-04T14:21:41.58Z</time></trkpt><trkpt lat="37.94841" lon="15.6986617"><ele>9.5</ele><time>2026-04-04T14:21:42.58Z</time></trkpt><trkpt lat="37.9485783" lon="15.6984483"><ele>9.0</ele><time>2026-04-04T14:21:43.58Z</time></trkpt><trkpt lat="37.9487483" lon="15.6982333"><ele>9.0</ele><time>2026-04-04T14:21:44.581Z</time></trkpt><trkpt lat="37.9489167" lon="15.6980267"><ele>9.0</ele><time>2026-04-04T14:21:45.58Z</time></trkpt><trkpt lat="37.949085" lon="15.6978167"><ele>9.0</ele><time>2026-04-04T14:21:46.58Z</time></trkpt><trkpt lat="37.949255" lon="15.6975883"><ele>9.0</ele><time>2026-04-04T14:21:47.58Z</time></trkpt><trkpt lat="37.949425" lon="15.6973683"><ele>9.0</ele><time>2026-04-04T14:21:48.58Z</time></trkpt><trkpt lat="37.94959" lon="15.697155"><ele>9.0</ele><time>2026-04-04T14:21:49.581Z</time></trkpt><trkpt lat="37.9497517" lon="15.6969567"><ele>9.0</ele><time>2026-04-04T14:21:50.58Z</time></trkpt><trkpt lat="37.9499133" lon="15.6967517"><ele>9.0</ele><time>2026-04-04T14:21:51.58Z</time></trkpt><trkpt lat="37.95006" lon="15.6965183"><ele>9.5</ele><time>2026-04-04T14:21:52.58Z</time></trkpt><trkpt lat="37.950205" lon="15.696285"><ele>10.0</ele><time>2026-04-04T14:21:53.58Z</time></trkpt><trkpt lat="37.95033" lon="15.6960283"><ele>10.0</ele><time>2026-04-04T14:21:54.58Z</time></trkpt><trkpt lat="37.9504433" lon="15.6957683"><ele>10.0</ele><time>2026-04-04T14:21:55.58Z</time></trkpt><trkpt lat="37.9505483" lon="15.6955067"><ele>8.5</ele><time>2026-04-04T14:21:56.58Z</time></trkpt><trkpt lat="37.950655" lon="15.6952183"><ele>7.0</ele><time>2026-04-04T14:21:57.58Z</time></trkpt><trkpt lat="37.950745" lon="15.6949317"><ele>7.0</ele><time>2026-04-04T14:21:58.58Z</time></trkpt><trkpt lat="37.9508383" lon="15.6946267"><ele>7.0</ele><time>2026-04-04T14:21:59.581Z</time></trkpt><trkpt lat="37.950935" lon="15.6943333"><ele>7.5</ele><time>2026-04-04T14:22:00.58Z</time></trkpt><trkpt lat="37.951045" lon="15.6940283"><ele>8.0</ele><time>2026-04-04T14:22:01.58Z</time></trkpt><trkpt lat="37.9511433" lon="15.693735"><ele>8.5</ele><time>2026-04-04T14:22:02.581Z</time></trkpt><trkpt lat="37.9512483" lon="15.69343"><ele>9.0</ele><time>2026-04-04T14:22:03.58Z</time></trkpt><trkpt lat="37.9513483" lon="15.6931233"><ele>9.0</ele><time>2026-04-04T14:22:04.58Z</time></trkpt><trkpt lat="37.9514517" lon="15.692825"><ele>9.0</ele><time>2026-04-04T14:22:05.581Z</time></trkpt><trkpt lat="37.9515583" lon="15.692525"><ele>10.0</ele><time>2026-04-04T14:22:06.58Z</time></trkpt><trkpt lat="37.9516617" lon="15.6922217"><ele>11.0</ele><time>2026-04-04T14:22:07.581Z</time></trkpt><trkpt lat="37.9517767" lon="15.6919117"><ele>13.5</ele><time>2026-04-04T14:22:08.58Z</time></trkpt><trkpt lat="37.9518817" lon="15.6915917"><ele>16.0</ele><time>2026-04-04T14:22:09.581Z</time></trkpt><trkpt lat="37.95198" lon="15.6912917"><ele>13.5</ele><time>2026-04-04T14:22:10.58Z</time></trkpt><trkpt lat="37.9520767" lon="15.690985"><ele>11.0</ele><time>2026-04-04T14:22:11.581Z</time></trkpt><trkpt lat="37.9521683" lon="15.6906933"><ele>11.0</ele><time>2026-04-04T14:22:12.58Z</time></trkpt><trkpt lat="37.9522517" lon="15.6904217"><ele>11.0</ele><time>2026-04-04T14:22:13.581Z</time></trkpt><trkpt lat="37.9523317" lon="15.6901667"><ele>11.0</ele><time>2026-04-04T14:22:14.581Z</time></trkpt><trkpt lat="37.952395" lon="15.68992"><ele>11.0</ele><time>2026-04-04T14:22:15.58Z</time></trkpt><trkpt lat="37.9524417" lon="15.6896683"><ele>11.0</ele><time>2026-04-04T14:22:16.58Z</time></trkpt><trkpt lat="37.952465" lon="15.68942"><ele>11.0</ele><time>2026-04-04T14:22:17.58Z</time></trkpt><trkpt lat="37.9524767" lon="15.689155"><ele>11.666666666666666</ele><time>2026-04-04T14:22:18.58Z</time></trkpt><trkpt lat="37.9524717" lon="15.6888783"><ele>12.333333333333332</ele><time>2026-04-04T14:22:19.581Z</time></trkpt><trkpt lat="37.9524683" lon="15.6885867"><ele>13.0</ele><time>2026-04-04T14:22:20.58Z</time></trkpt><trkpt lat="37.9524667" lon="15.6882883"><ele>16.0</ele><time>2026-04-04T14:22:21.58Z</time></trkpt><trkpt lat="37.952455" lon="15.6879733"><ele>19.0</ele><time>2026-04-04T14:22:22.58Z</time></trkpt><trkpt lat="37.9524483" lon="15.6876333"><ele>20.5</ele><time>2026-04-04T14:22:23.581Z</time></trkpt><trkpt lat="37.9524333" lon="15.6873"><ele>22.0</ele><time>2026-04-04T14:22:24.581Z</time></trkpt><trkpt lat="37.9524183" lon="15.686975"><ele>27.0</ele><time>2026-04-04T14:22:25.58Z</time></trkpt><trkpt lat="37.9524033" lon="15.6866417"><ele>32.0</ele><time>2026-04-04T14:22:26.58Z</time></trkpt><trkpt lat="37.9523933" lon="15.6863"><ele>39.5</ele><time>2026-04-04T14:22:27.58Z</time></trkpt><trkpt lat="37.95237" lon="15.6859517"><ele>47.0</ele><time>2026-04-04T14:22:28.581Z</time></trkpt><trkpt lat="37.9523483" lon="15.6856117"><ele>47.0</ele><time>2026-04-04T14:22:29.58Z</time></trkpt><trkpt lat="37.9523283" lon="15.685275"><ele>47.0</ele><time>2026-04-04T14:22:30.58Z</time></trkpt><trkpt lat="37.9523083" lon="15.6849367"><ele>45.5</ele><time>2026-04-04T14:22:31.58Z</time></trkpt><trkpt lat="37.9522867" lon="15.6845983"><ele>44.0</ele><time>2026-04-04T14:22:32.58Z</time></trkpt><trkpt lat="37.9522667" lon="15.6842617"><ele>40.0</ele><time>2026-04-04T14:22:33.58Z</time></trkpt><trkpt lat="37.9523083" lon="15.684185"><ele>36.0</ele><time>2026-04-04T14:22:34.58Z</time></trkpt><trkpt lat="37.9524133" lon="15.6840083"><ele>32.0</ele><time>2026-04-04T14:22:35.58Z</time></trkpt><trkpt lat="37.95252" lon="15.683775"><ele>37.33333333333333</ele><time>2026-04-04T14:22:36.581Z</time></trkpt><trkpt lat="37.95262" lon="15.6835767"><ele>42.666666666666664</ele><time>2026-04-04T14:22:37.58Z</time></trkpt><trkpt lat="37.9527283" lon="15.68338"><ele>48.0</ele><time>2026-04-04T14:22:38.58Z</time></trkpt><trkpt lat="37.9528383" lon="15.6831617"><ele>48.0</ele><time>2026-04-04T14:22:39.58Z</time></trkpt><trkpt lat="37.95294" lon="15.6829567"><ele>48.0</ele><time>2026-04-04T14:22:40.58Z</time></trkpt><trkpt lat="37.9530433" lon="15.6827833"><ele>48.0</ele><time>2026-04-04T14:22:41.58Z</time></trkpt><trkpt lat="37.95314" lon="15.6825933"><ele>45.0</ele><time>2026-04-04T14:22:42.58Z</time></trkpt><trkpt lat="37.9532383" lon="15.6824017"><ele>42.0</ele><time>2026-04-04T14:22:43.58Z</time></trkpt><trkpt lat="37.9533317" lon="15.6822117"><ele>39.0</ele><time>2026-04-04T14:22:44.58Z</time></trkpt><trkpt lat="37.95342" lon="15.6820467"><ele>45.25</ele><time>2026-04-04T14:22:45.58Z</time></trkpt><trkpt lat="37.953495" lon="15.681895"><ele>51.5</ele><time>2026-04-04T14:22:46.58Z</time></trkpt><trkpt lat="37.9535617" lon="15.6817633"><ele>57.75</ele><time>2026-04-04T14:22:47.58Z</time></trkpt><trkpt lat="37.9536167" lon="15.68163"><ele>64.0</ele><time>2026-04-04T14:22:48.58Z</time></trkpt><trkpt lat="37.9536617" lon="15.6814967"><ele>64.0</ele><time>2026-04-04T14:22:49.58Z</time></trkpt><trkpt lat="37.95368" lon="15.68135"><ele>64.0</ele><time>2026-04-04T14:22:50.58Z</time></trkpt><trkpt lat="37.9536867" lon="15.6811967"><ele>64.0</ele><time>2026-04-04T14:22:51.581Z</time></trkpt><trkpt lat="37.9536783" lon="15.68105"><ele>64.0</ele><time>2026-04-04T14:22:52.58Z</time></trkpt><trkpt lat="37.953655" lon="15.6809"><ele>65.25</ele><time>2026-04-04T14:22:53.58Z</time></trkpt><trkpt lat="37.95364" lon="15.68075"><ele>66.5</ele><time>2026-04-04T14:22:54.58Z</time></trkpt><trkpt lat="37.9536433" lon="15.6806033"><ele>67.75</ele><time>2026-04-04T14:22:55.58Z</time></trkpt><trkpt lat="37.9536567" lon="15.680455"><ele>69.0</ele><time>2026-04-04T14:22:56.581Z</time></trkpt><trkpt lat="37.9536833" lon="15.68029"><ele>68.5</ele><time>2026-04-04T14:22:57.58Z</time></trkpt><trkpt lat="37.9537117" lon="15.68014"><ele>68.0</ele><time>2026-04-04T14:22:58.581Z</time></trkpt><trkpt lat="37.9537433" lon="15.6799817"><ele>67.5</ele><time>2026-04-04T14:22:59.58Z</time></trkpt><trkpt lat="37.9537783" lon="15.679815"><ele>67.0</ele><time>2026-04-04T14:23:00.58Z</time></trkpt><trkpt lat="37.9538367" lon="15.6796533"><ele>67.0</ele><time>2026-04-04T14:23:01.58Z</time></trkpt><trkpt lat="37.953895" lon="15.6794883"><ele>67.0</ele><time>2026-04-04T14:23:02.58Z</time></trkpt><trkpt lat="37.953955" lon="15.679325"><ele>67.0</ele><time>2026-04-04T14:23:03.58Z</time></trkpt><trkpt lat="37.954015" lon="15.679165"><ele>67.0</ele><time>2026-04-04T14:23:04.58Z</time></trkpt><trkpt lat="37.9540783" lon="15.6790133"><ele>70.75</ele><time>2026-04-04T14:23:05.58Z</time></trkpt><trkpt lat="37.9541483" lon="15.6788817"><ele>74.5</ele><time>2026-04-04T14:23:06.58Z</time></trkpt><trkpt lat="37.9542233" lon="15.6787517"><ele>78.25</ele><time>2026-04-04T14:23:07.58Z</time></trkpt><trkpt lat="37.954315" lon="15.6786183"><ele>82.0</ele><time>2026-04-04T14:23:08.58Z</time></trkpt><trkpt lat="37.9544067" lon="15.6784933"><ele>73.25</ele><time>2026-04-04T14:23:09.58Z</time></trkpt><trkpt lat="37.9545033" lon="15.678375"><ele>64.5</ele><time>2026-04-04T14:23:10.58Z</time></trkpt><trkpt lat="37.9546067" lon="15.67827"><ele>55.75</ele><time>2026-04-04T14:23:11.581Z</time></trkpt><trkpt lat="37.95471" lon="15.6781617"><ele>47.0</ele><time>2026-04-04T14:23:12.58Z</time></trkpt><trkpt lat="37.95481" lon="15.6780583"><ele>47.0</ele><time>2026-04-04T14:23:13.58Z</time></trkpt><trkpt lat="37.9549033" lon="15.6779567"><ele>47.0</ele><time>2026-04-04T14:23:14.58Z</time></trkpt><trkpt lat="37.9549933" lon="15.677865"><ele>47.0</ele><time>2026-04-04T14:23:15.581Z</time></trkpt><trkpt lat="37.9550883" lon="15.6777917"><ele>47.0</ele><time>2026-04-04T14:23:16.58Z</time></trkpt><trkpt lat="37.9552017" lon="15.6777383"><ele>42.0</ele><time>2026-04-04T14:23:17.58Z</time></trkpt><trkpt lat="37.9553167" lon="15.6777"><ele>37.0</ele><time>2026-04-04T14:23:18.58Z</time></trkpt><trkpt lat="37.9554317" lon="15.6776717"><ele>32.0</ele><time>2026-04-04T14:23:19.58Z</time></trkpt><trkpt lat="37.955555" lon="15.6776633"><ele>27.0</ele><time>2026-04-04T14:23:20.58Z</time></trkpt><trkpt lat="37.9556933" lon="15.6776467"><ele>27.0</ele><time>2026-04-04T14:23:21.581Z</time></trkpt><trkpt lat="37.9558267" lon="15.67758"><ele>27.0</ele><time>2026-04-04T14:23:22.581Z</time></trkpt><trkpt lat="37.9559633" lon="15.6774967"><ele>27.0</ele><time>2026-04-04T14:23:23.58Z</time></trkpt><trkpt lat="37.9561067" lon="15.6774033"><ele>27.0</ele><time>2026-04-04T14:23:24.58Z</time></trkpt><trkpt lat="37.9562617" lon="15.6772983"><ele>27.0</ele><time>2026-04-04T14:23:25.58Z</time></trkpt><trkpt lat="37.9564367" lon="15.6771883"><ele>27.0</ele><time>2026-04-04T14:23:26.58Z</time></trkpt><trkpt lat="37.9566083" lon="15.6770567"><ele>24.666666666666668</ele><time>2026-04-04T14:23:27.58Z</time></trkpt><trkpt lat="37.9567867" lon="15.6769233"><ele>22.333333333333336</ele><time>2026-04-04T14:23:28.581Z</time></trkpt><trkpt lat="37.9569567" lon="15.6767883"><ele>20.0</ele><time>2026-04-04T14:23:29.58Z</time></trkpt><trkpt lat="37.95712" lon="15.67666"><ele>20.0</ele><time>2026-04-04T14:23:30.581Z</time></trkpt><trkpt lat="37.9572833" lon="15.676535"><ele>20.0</ele><time>2026-04-04T14:23:31.581Z</time></trkpt><trkpt lat="37.957445" lon="15.6764083"><ele>20.0</ele><time>2026-04-04T14:23:32.58Z</time></trkpt><trkpt lat="37.9576117" lon="15.6762633"><ele>19.333333333333336</ele><time>2026-04-04T14:23:33.58Z</time></trkpt><trkpt lat="37.9577867" lon="15.676105"><ele>18.666666666666668</ele><time>2026-04-04T14:23:34.581Z</time></trkpt><trkpt lat="37.9579833" lon="15.675945"><ele>18.0</ele><time>2026-04-04T14:23:35.58Z</time></trkpt><trkpt lat="37.9581933" lon="15.6757867"><ele>21.0</ele><time>2026-04-04T14:23:36.58Z</time></trkpt><trkpt lat="37.9583917" lon="15.675625"><ele>24.0</ele><time>2026-04-04T14:23:37.58Z</time></trkpt><trkpt lat="37.9585933" lon="15.6754667"><ele>24.0</ele><time>2026-04-04T14:23:38.58Z</time></trkpt><trkpt lat="37.9588017" lon="15.67531"><ele>24.0</ele><time>2026-04-04T14:23:39.58Z</time></trkpt><trkpt lat="37.9590133" lon="15.6751583"><ele>22.5</ele><time>2026-04-04T14:23:40.58Z</time></trkpt><trkpt lat="37.9592133" lon="15.675005"><ele>21.0</ele><time>2026-04-04T14:23:41.581Z</time></trkpt><trkpt lat="37.9594133" lon="15.67485"><ele>21.0</ele><time>2026-04-04T14:23:42.58Z</time></trkpt><trkpt lat="37.95962" lon="15.6746983"><ele>21.0</ele><time>2026-04-04T14:23:43.58Z</time></trkpt><trkpt lat="37.95983" lon="15.6745483"><ele>19.0</ele><time>2026-04-04T14:23:44.58Z</time></trkpt><trkpt lat="37.9600383" lon="15.6744"><ele>17.0</ele><time>2026-04-04T14:23:45.58Z</time></trkpt><trkpt lat="37.9602517" lon="15.67426"><ele>17.0</ele><time>2026-04-04T14:23:46.58Z</time></trkpt><trkpt lat="37.9604667" lon="15.6741133"><ele>17.0</ele><time>2026-04-04T14:23:47.58Z</time></trkpt><trkpt lat="37.9606833" lon="15.67397"><ele>19.0</ele><time>2026-04-04T14:23:48.58Z</time></trkpt><trkpt lat="37.960895" lon="15.6738383"><ele>21.0</ele><time>2026-04-04T14:23:49.581Z</time></trkpt><trkpt lat="37.96111" lon="15.6737367"><ele>18.0</ele><time>2026-04-04T14:23:50.58Z</time></trkpt><trkpt lat="37.9613333" lon="15.6735967"><ele>15.0</ele><time>2026-04-04T14:23:51.58Z</time></trkpt><trkpt lat="37.9615583" lon="15.6734533"><ele>15.0</ele><time>2026-04-04T14:23:52.58Z</time></trkpt><trkpt lat="37.9617967" lon="15.673315"><ele>15.0</ele><time>2026-04-04T14:23:53.58Z</time></trkpt><trkpt lat="37.962045" lon="15.6731617"><ele>15.0</ele><time>2026-04-04T14:23:54.58Z</time></trkpt><trkpt lat="37.9622933" lon="15.6730283"><ele>15.0</ele><time>2026-04-04T14:23:55.58Z</time></trkpt><trkpt lat="37.9625317" lon="15.6728683"><ele>14.0</ele><time>2026-04-04T14:23:56.58Z</time></trkpt><trkpt lat="37.96277" lon="15.672715"><ele>13.0</ele><time>2026-04-04T14:23:57.58Z</time></trkpt><trkpt lat="37.96301" lon="15.6725683"><ele>13.0</ele><time>2026-04-04T14:23:58.581Z</time></trkpt><trkpt lat="37.9632467" lon="15.6724183"><ele>13.0</ele><time>2026-04-04T14:23:59.58Z</time></trkpt><trkpt lat="37.963475" lon="15.6722717"><ele>13.5</ele><time>2026-04-04T14:24:00.58Z</time></trkpt><trkpt lat="37.9636933" lon="15.6721267"><ele>14.0</ele><time>2026-04-04T14:24:01.581Z</time></trkpt><trkpt lat="37.96391" lon="15.67197"><ele>14.5</ele><time>2026-04-04T14:24:02.581Z</time></trkpt><trkpt lat="37.9641183" lon="15.6718217"><ele>15.0</ele><time>2026-04-04T14:24:03.58Z</time></trkpt><trkpt lat="37.9643217" lon="15.67167"><ele>15.0</ele><time>2026-04-04T14:24:04.581Z</time></trkpt><trkpt lat="37.9645267" lon="15.671525"><ele>15.0</ele><time>2026-04-04T14:24:05.581Z</time></trkpt><trkpt lat="37.9647267" lon="15.6713783"><ele>15.0</ele><time>2026-04-04T14:24:06.58Z</time></trkpt><trkpt lat="37.9649333" lon="15.6712317"><ele>15.0</ele><time>2026-04-04T14:24:07.58Z</time></trkpt><trkpt lat="37.965125" lon="15.6710817"><ele>14.0</ele><time>2026-04-04T14:24:08.58Z</time></trkpt><trkpt lat="37.96532" lon="15.6709633"><ele>13.0</ele><time>2026-04-04T14:24:09.58Z</time></trkpt><trkpt lat="37.9655217" lon="15.6708283"><ele>12.0</ele><time>2026-04-04T14:24:10.58Z</time></trkpt><trkpt lat="37.96573" lon="15.6706883"><ele>14.0</ele><time>2026-04-04T14:24:11.581Z</time></trkpt><trkpt lat="37.96593" lon="15.6705517"><ele>16.0</ele><time>2026-04-04T14:24:12.58Z</time></trkpt><trkpt lat="37.96614" lon="15.6704133"><ele>16.0</ele><time>2026-04-04T14:24:13.581Z</time></trkpt><trkpt lat="37.96634" lon="15.6702833"><ele>16.0</ele><time>2026-04-04T14:24:14.58Z</time></trkpt><trkpt lat="37.9665383" lon="15.670145"><ele>17.0</ele><time>2026-04-04T14:24:15.58Z</time></trkpt><trkpt lat="37.96673" lon="15.670005"><ele>18.0</ele><time>2026-04-04T14:24:16.58Z</time></trkpt><trkpt lat="37.96692" lon="15.6698633"><ele>19.0</ele><time>2026-04-04T14:24:17.58Z</time></trkpt><trkpt lat="37.9671017" lon="15.6697333"><ele>19.0</ele><time>2026-04-04T14:24:18.58Z</time></trkpt><trkpt lat="37.96727" lon="15.6696183"><ele>19.0</ele><time>2026-04-04T14:24:19.58Z</time></trkpt><trkpt lat="37.9674283" lon="15.6695067"><ele>19.0</ele><time>2026-04-04T14:24:20.58Z</time></trkpt><trkpt lat="37.9675833" lon="15.66937"><ele>18.666666666666664</ele><time>2026-04-04T14:24:21.58Z</time></trkpt><trkpt lat="37.967725" lon="15.6692333"><ele>18.333333333333332</ele><time>2026-04-04T14:24:22.581Z</time></trkpt><trkpt lat="37.9678583" lon="15.66911"><ele>18.0</ele><time>2026-04-04T14:24:23.58Z</time></trkpt><trkpt lat="37.9679817" lon="15.6689933"><ele>18.0</ele><time>2026-04-04T14:24:24.58Z</time></trkpt><trkpt lat="37.9681017" lon="15.6688767"><ele>18.0</ele><time>2026-04-04T14:24:25.58Z</time></trkpt><trkpt lat="37.96821" lon="15.6687683"><ele>18.0</ele><time>2026-04-04T14:24:26.58Z</time></trkpt><trkpt lat="37.9683167" lon="15.6686617"><ele>18.0</ele><time>2026-04-04T14:24:27.58Z</time></trkpt><trkpt lat="37.96842" lon="15.6685483"><ele>18.0</ele><time>2026-04-04T14:24:28.58Z</time></trkpt><trkpt lat="37.9685183" lon="15.6684283"><ele>18.0</ele><time>2026-04-04T14:24:29.58Z</time></trkpt><trkpt lat="37.96862" lon="15.6683083"><ele>18.0</ele><time>2026-04-04T14:24:30.581Z</time></trkpt><trkpt lat="37.9687217" lon="15.6681867"><ele>18.0</ele><time>2026-04-04T14:24:31.581Z</time></trkpt><trkpt lat="37.9688283" lon="15.6680667"><ele>18.0</ele><time>2026-04-04T14:24:32.58Z</time></trkpt><trkpt lat="37.9689383" lon="15.6679483"><ele>18.0</ele><time>2026-04-04T14:24:33.58Z</time></trkpt><trkpt lat="37.96905" lon="15.6678333"><ele>18.0</ele><time>2026-04-04T14:24:34.58Z</time></trkpt><trkpt lat="37.9691567" lon="15.6677117"><ele>18.0</ele><time>2026-04-04T14:24:35.58Z</time></trkpt><trkpt lat="37.9692567" lon="15.6675833"><ele>17.0</ele><time>2026-04-04T14:24:36.58Z</time></trkpt><trkpt lat="37.9693633" lon="15.667455"><ele>16.0</ele><time>2026-04-04T14:24:37.58Z</time></trkpt><trkpt lat="37.969485" lon="15.667315"><ele>15.0</ele><time>2026-04-04T14:24:38.58Z</time></trkpt><trkpt lat="37.9696117" lon="15.6671767"><ele>15.0</ele><time>2026-04-04T14:24:39.58Z</time></trkpt><trkpt lat="37.9697367" lon="15.6670333"><ele>15.0</ele><time>2026-04-04T14:24:40.58Z</time></trkpt><trkpt lat="37.9698617" lon="15.6668917"><ele>15.0</ele><time>2026-04-04T14:24:41.58Z</time></trkpt><trkpt lat="37.9699867" lon="15.6667383"><ele>16.0</ele><time>2026-04-04T14:24:42.581Z</time></trkpt><trkpt lat="37.9701217" lon="15.6665767"><ele>17.0</ele><time>2026-04-04T14:24:43.581Z</time></trkpt><trkpt lat="37.9702583" lon="15.666415"><ele>18.0</ele><time>2026-04-04T14:24:44.581Z</time></trkpt><trkpt lat="37.9704" lon="15.66624"><ele>16.666666666666668</ele><time>2026-04-04T14:24:45.58Z</time></trkpt><trkpt lat="37.970545" lon="15.6660667"><ele>15.333333333333334</ele><time>2026-04-04T14:24:46.58Z</time></trkpt><trkpt lat="37.9706933" lon="15.665885"><ele>14.0</ele><time>2026-04-04T14:24:47.581Z</time></trkpt><trkpt lat="37.9708533" lon="15.6657033"><ele>14.0</ele><time>2026-04-04T14:24:48.58Z</time></trkpt><trkpt lat="37.971015" lon="15.6655217"><ele>14.0</ele><time>2026-04-04T14:24:49.58Z</time></trkpt><trkpt lat="37.9711833" lon="15.66534"><ele>14.0</ele><time>2026-04-04T14:24:50.58Z</time></trkpt><trkpt lat="37.9713667" lon="15.66513"><ele>14.0</ele><time>2026-04-04T14:24:51.58Z</time></trkpt><trkpt lat="37.971565" lon="15.664925"><ele>14.0</ele><time>2026-04-04T14:24:52.58Z</time></trkpt><trkpt lat="37.9717633" lon="15.6647183"><ele>15.0</ele><time>2026-04-04T14:24:53.58Z</time></trkpt><trkpt lat="37.9719567" lon="15.6644967"><ele>16.0</ele><time>2026-04-04T14:24:54.58Z</time></trkpt><trkpt lat="37.972145" lon="15.6642833"><ele>15.666666666666666</ele><time>2026-04-04T14:24:55.58Z</time></trkpt><trkpt lat="37.97231" lon="15.6640817"><ele>15.333333333333332</ele><time>2026-04-04T14:24:56.58Z</time></trkpt><trkpt lat="37.9724767" lon="15.6639"><ele>15.0</ele><time>2026-04-04T14:24:57.58Z</time></trkpt><trkpt lat="37.97264" lon="15.663725"><ele>14.666666666666668</ele><time>2026-04-04T14:24:58.581Z</time></trkpt><trkpt lat="37.9727933" lon="15.6635567"><ele>14.333333333333334</ele><time>2026-04-04T14:24:59.58Z</time></trkpt><trkpt lat="37.9729517" lon="15.663395"><ele>14.0</ele><time>2026-04-04T14:25:00.58Z</time></trkpt><trkpt lat="37.9730967" lon="15.6632367"><ele>14.0</ele><time>2026-04-04T14:25:01.58Z</time></trkpt><trkpt lat="37.9732467" lon="15.6630917"><ele>14.0</ele><time>2026-04-04T14:25:02.58Z</time></trkpt><trkpt lat="37.9733867" lon="15.662965"><ele>14.0</ele><time>2026-04-04T14:25:03.58Z</time></trkpt><trkpt lat="37.9735217" lon="15.6628567"><ele>13.333333333333334</ele><time>2026-04-04T14:25:04.58Z</time></trkpt><trkpt lat="37.973665" lon="15.6627633"><ele>12.666666666666668</ele><time>2026-04-04T14:25:05.581Z</time></trkpt><trkpt lat="37.973805" lon="15.6626867"><ele>12.0</ele><time>2026-04-04T14:25:06.58Z</time></trkpt><trkpt lat="37.973945" lon="15.6626267"><ele>12.0</ele><time>2026-04-04T14:25:07.58Z</time></trkpt><trkpt lat="37.9740783" lon="15.66257"><ele>12.0</ele><time>2026-04-04T14:25:08.58Z</time></trkpt><trkpt lat="37.9742167" lon="15.6625283"><ele>12.0</ele><time>2026-04-04T14:25:09.58Z</time></trkpt><trkpt lat="37.9743533" lon="15.6624933"><ele>12.0</ele><time>2026-04-04T14:25:10.58Z</time></trkpt><trkpt lat="37.9744817" lon="15.6624667"><ele>12.6</ele><time>2026-04-04T14:25:11.58Z</time></trkpt><trkpt lat="37.9745967" lon="15.662445"><ele>13.2</ele><time>2026-04-04T14:25:12.58Z</time></trkpt><trkpt lat="37.9747083" lon="15.662425"><ele>13.8</ele><time>2026-04-04T14:25:13.58Z</time></trkpt><trkpt lat="37.974805" lon="15.6624067"><ele>14.4</ele><time>2026-04-04T14:25:14.58Z</time></trkpt><trkpt lat="37.9748933" lon="15.6623883"><ele>15.0</ele><time>2026-04-04T14:25:15.58Z</time></trkpt><trkpt lat="37.9749733" lon="15.662385"><ele>15.0</ele><time>2026-04-04T14:25:16.58Z</time></trkpt><trkpt lat="37.9750417" lon="15.6623833"><ele>15.0</ele><time>2026-04-04T14:25:17.58Z</time></trkpt><trkpt lat="37.9751333" lon="15.6623617"><ele>15.0</ele><time>2026-04-04T14:25:19.58Z</time></trkpt><trkpt lat="37.9752317" lon="15.6624017"><ele>15.0</ele><time>2026-04-04T14:25:22.58Z</time></trkpt><trkpt lat="37.9753533" lon="15.6624367"><ele>15.0</ele><time>2026-04-04T14:25:24.58Z</time></trkpt><trkpt lat="37.9754317" lon="15.66242"><ele>15.0</ele><time>2026-04-04T14:25:25.581Z</time></trkpt><trkpt lat="37.975515" lon="15.662385"><ele>15.0</ele><time>2026-04-04T14:25:26.58Z</time></trkpt><trkpt lat="37.975615" lon="15.66233"><ele>15.0</ele><time>2026-04-04T14:25:27.58Z</time></trkpt><trkpt lat="37.9757133" lon="15.66228"><ele>15.0</ele><time>2026-04-04T14:25:28.581Z</time></trkpt><trkpt lat="37.97582" lon="15.66223"><ele>15.0</ele><time>2026-04-04T14:25:29.581Z</time></trkpt><trkpt lat="37.975935" lon="15.6621633"><ele>15.0</ele><time>2026-04-04T14:25:30.58Z</time></trkpt><trkpt lat="37.9760683" lon="15.6620867"><ele>15.0</ele><time>2026-04-04T14:25:31.58Z</time></trkpt><trkpt lat="37.9762033" lon="15.661995"><ele>15.0</ele><time>2026-04-04T14:25:32.58Z</time></trkpt><trkpt lat="37.9763483" lon="15.6619"><ele>14.666666666666668</ele><time>2026-04-04T14:25:33.58Z</time></trkpt><trkpt lat="37.97651" lon="15.66179"><ele>14.333333333333334</ele><time>2026-04-04T14:25:34.581Z</time></trkpt><trkpt lat="37.9766667" lon="15.6616883"><ele>14.0</ele><time>2026-04-04T14:25:35.58Z</time></trkpt><trkpt lat="37.9768117" lon="15.6616017"><ele>14.0</ele><time>2026-04-04T14:25:36.58Z</time></trkpt><trkpt lat="37.9769633" lon="15.6615033"><ele>14.0</ele><time>2026-04-04T14:25:37.58Z</time></trkpt><trkpt lat="37.977115" lon="15.66138"><ele>14.0</ele><time>2026-04-04T14:25:38.58Z</time></trkpt><trkpt lat="37.97727" lon="15.661265"><ele>14.0</ele><time>2026-04-04T14:25:39.58Z</time></trkpt><trkpt lat="37.977435" lon="15.661155"><ele>14.0</ele><time>2026-04-04T14:25:40.58Z</time></trkpt><trkpt lat="37.9775967" lon="15.66105"><ele>14.0</ele><time>2026-04-04T14:25:41.581Z</time></trkpt><trkpt lat="37.9777583" lon="15.660945"><ele>13.666666666666668</ele><time>2026-04-04T14:25:42.58Z</time></trkpt><trkpt lat="37.977935" lon="15.6608383"><ele>13.333333333333332</ele><time>2026-04-04T14:25:43.58Z</time></trkpt><trkpt lat="37.9781017" lon="15.66073"><ele>13.0</ele><time>2026-04-04T14:25:44.58Z</time></trkpt><trkpt lat="37.9782583" lon="15.6606183"><ele>13.0</ele><time>2026-04-04T14:25:45.58Z</time></trkpt><trkpt lat="37.9784183" lon="15.6605033"><ele>13.0</ele><time>2026-04-04T14:25:46.58Z</time></trkpt><trkpt lat="37.9785767" lon="15.660395"><ele>13.0</ele><time>2026-04-04T14:25:47.58Z</time></trkpt><trkpt lat="37.9787367" lon="15.66029"><ele>13.0</ele><time>2026-04-04T14:25:48.581Z</time></trkpt><trkpt lat="37.9788867" lon="15.660185"><ele>13.0</ele><time>2026-04-04T14:25:49.581Z</time></trkpt><trkpt lat="37.9790467" lon="15.660065"><ele>13.0</ele><time>2026-04-04T14:25:50.58Z</time></trkpt><trkpt lat="37.979205" lon="15.6599367"><ele>12.666666666666666</ele><time>2026-04-04T14:25:51.58Z</time></trkpt><trkpt lat="37.9793417" lon="15.6597983"><ele>12.333333333333332</ele><time>2026-04-04T14:25:52.58Z</time></trkpt><trkpt lat="37.979485" lon="15.659645"><ele>12.0</ele><time>2026-04-04T14:25:53.58Z</time></trkpt><trkpt lat="37.979625" lon="15.659475"><ele>11.333333333333334</ele><time>2026-04-04T14:25:54.58Z</time></trkpt><trkpt lat="37.97975" lon="15.6592933"><ele>10.666666666666668</ele><time>2026-04-04T14:25:55.58Z</time></trkpt><trkpt lat="37.97987" lon="15.6591033"><ele>10.0</ele><time>2026-04-04T14:25:56.58Z</time></trkpt><trkpt lat="37.9799883" lon="15.6589"><ele>11.333333333333334</ele><time>2026-04-04T14:25:57.58Z</time></trkpt><trkpt lat="37.9801083" lon="15.6587067"><ele>12.666666666666668</ele><time>2026-04-04T14:25:58.58Z</time></trkpt><trkpt lat="37.9802183" lon="15.6585283"><ele>14.0</ele><time>2026-04-04T14:25:59.58Z</time></trkpt><trkpt lat="37.9803283" lon="15.6583633"><ele>14.0</ele><time>2026-04-04T14:26:00.58Z</time></trkpt><trkpt lat="37.9804283" lon="15.6582183"><ele>14.0</ele><time>2026-04-04T14:26:01.58Z</time></trkpt><trkpt lat="37.9805333" lon="15.658075"><ele>14.0</ele><time>2026-04-04T14:26:02.58Z</time></trkpt><trkpt lat="37.98064" lon="15.6579417"><ele>14.0</ele><time>2026-04-04T14:26:03.58Z</time></trkpt><trkpt lat="37.98074" lon="15.65782"><ele>14.0</ele><time>2026-04-04T14:26:04.58Z</time></trkpt><trkpt lat="37.9808433" lon="15.65771"><ele>14.0</ele><time>2026-04-04T14:26:05.58Z</time></trkpt><trkpt lat="37.9809467" lon="15.6575883"><ele>14.0</ele><time>2026-04-04T14:26:06.58Z</time></trkpt><trkpt lat="37.981055" lon="15.6574683"><ele>14.333333333333334</ele><time>2026-04-04T14:26:07.58Z</time></trkpt><trkpt lat="37.9811717" lon="15.6573367"><ele>14.666666666666668</ele><time>2026-04-04T14:26:08.581Z</time></trkpt><trkpt lat="37.9812883" lon="15.6572017"><ele>15.0</ele><time>2026-04-04T14:26:09.58Z</time></trkpt><trkpt lat="37.9814" lon="15.6570967"><ele>15.0</ele><time>2026-04-04T14:26:10.58Z</time></trkpt><trkpt lat="37.981495" lon="15.657"><ele>15.0</ele><time>2026-04-04T14:26:11.581Z</time></trkpt><trkpt lat="37.9815883" lon="15.65691"><ele>15.0</ele><time>2026-04-04T14:26:12.58Z</time></trkpt><trkpt lat="37.9816767" lon="15.6568283"><ele>15.0</ele><time>2026-04-04T14:26:13.58Z</time></trkpt><trkpt lat="37.9817483" lon="15.6567467"><ele>15.0</ele><time>2026-04-04T14:26:14.58Z</time></trkpt><trkpt lat="37.9818217" lon="15.6566717"><ele>15.166666666666666</ele><time>2026-04-04T14:26:15.58Z</time></trkpt><trkpt lat="37.9818883" lon="15.656615"><ele>15.333333333333332</ele><time>2026-04-04T14:26:16.58Z</time></trkpt><trkpt lat="37.981965" lon="15.6565733"><ele>15.5</ele><time>2026-04-04T14:26:17.58Z</time></trkpt><trkpt lat="37.9820417" lon="15.6565333"><ele>15.666666666666666</ele><time>2026-04-04T14:26:18.58Z</time></trkpt><trkpt lat="37.9821217" lon="15.6565167"><ele>15.833333333333332</ele><time>2026-04-04T14:26:19.58Z</time></trkpt><trkpt lat="37.9822083" lon="15.6565017"><ele>16.0</ele><time>2026-04-04T14:26:20.581Z</time></trkpt><trkpt lat="37.98228" lon="15.656485"><ele>16.0</ele><time>2026-04-04T14:26:21.58Z</time></trkpt><trkpt lat="37.982345" lon="15.6564617"><ele>15.999999999999998</ele><time>2026-04-04T14:26:22.58Z</time></trkpt><trkpt lat="37.982405" lon="15.6564217"><ele>16.0</ele><time>2026-04-04T14:26:23.58Z</time></trkpt><trkpt lat="37.9824533" lon="15.6563583"><ele>16.0</ele><time>2026-04-04T14:26:24.58Z</time></trkpt><trkpt lat="37.9824767" lon="15.6562717"><ele>15.999999999999998</ele><time>2026-04-04T14:26:25.58Z</time></trkpt><trkpt lat="37.98249" lon="15.6561783"><ele>16.0</ele><time>2026-04-04T14:26:26.58Z</time></trkpt><trkpt lat="37.9825167" lon="15.6560783"><ele>16.0</ele><time>2026-04-04T14:26:27.58Z</time></trkpt><trkpt lat="37.9825667" lon="15.6559733"><ele>16.0</ele><time>2026-04-04T14:26:28.58Z</time></trkpt><trkpt lat="37.9826317" lon="15.6558733"><ele>16.0</ele><time>2026-04-04T14:26:29.58Z</time></trkpt><trkpt lat="37.9827033" lon="15.6557633"><ele>16.0</ele><time>2026-04-04T14:26:30.58Z</time></trkpt><trkpt lat="37.9827917" lon="15.6556483"><ele>16.0</ele><time>2026-04-04T14:26:31.581Z</time></trkpt><trkpt lat="37.9829033" lon="15.6555217"><ele>16.0</ele><time>2026-04-04T14:26:32.581Z</time></trkpt><trkpt lat="37.98303" lon="15.6553883"><ele>16.0</ele><time>2026-04-04T14:26:33.58Z</time></trkpt><trkpt lat="37.9831617" lon="15.655245"><ele>16.0</ele><time>2026-04-04T14:26:34.58Z</time></trkpt><trkpt lat="37.9833133" lon="15.6551083"><ele>16.333333333333332</ele><time>2026-04-04T14:26:35.58Z</time></trkpt><trkpt lat="37.98348" lon="15.65497"><ele>16.666666666666668</ele><time>2026-04-04T14:26:36.581Z</time></trkpt><trkpt lat="37.9836467" lon="15.654835"><ele>17.0</ele><time>2026-04-04T14:26:37.58Z</time></trkpt><trkpt lat="37.9838217" lon="15.6547083"><ele>17.0</ele><time>2026-04-04T14:26:38.58Z</time></trkpt><trkpt lat="37.9840017" lon="15.654585"><ele>17.0</ele><time>2026-04-04T14:26:39.58Z</time></trkpt><trkpt lat="37.98419" lon="15.6544667"><ele>17.0</ele><time>2026-04-04T14:26:40.58Z</time></trkpt><trkpt lat="37.9843683" lon="15.6543733"><ele>16.0</ele><time>2026-04-04T14:26:41.58Z</time></trkpt><trkpt lat="37.9845533" lon="15.6542517"><ele>15.0</ele><time>2026-04-04T14:26:42.58Z</time></trkpt><trkpt lat="37.98474" lon="15.6541317"><ele>14.0</ele><time>2026-04-04T14:26:43.581Z</time></trkpt><trkpt lat="37.9849233" lon="15.654"><ele>14.0</ele><time>2026-04-04T14:26:44.58Z</time></trkpt><trkpt lat="37.98509" lon="15.65385"><ele>14.0</ele><time>2026-04-04T14:26:45.58Z</time></trkpt><trkpt lat="37.9852583" lon="15.65369"><ele>14.0</ele><time>2026-04-04T14:26:46.58Z</time></trkpt><trkpt lat="37.9854233" lon="15.6535317"><ele>14.0</ele><time>2026-04-04T14:26:47.58Z</time></trkpt><trkpt lat="37.9855717" lon="15.6533733"><ele>14.0</ele><time>2026-04-04T14:26:48.58Z</time></trkpt><trkpt lat="37.9857217" lon="15.6532167"><ele>14.0</ele><time>2026-04-04T14:26:49.58Z</time></trkpt><trkpt lat="37.9858667" lon="15.6530717"><ele>14.0</ele><time>2026-04-04T14:26:50.58Z</time></trkpt><trkpt lat="37.98601" lon="15.6529283"><ele>14.0</ele><time>2026-04-04T14:26:51.58Z</time></trkpt><trkpt lat="37.9861517" lon="15.6527967"><ele>14.0</ele><time>2026-04-04T14:26:52.58Z</time></trkpt><trkpt lat="37.986285" lon="15.6526833"><ele>14.0</ele><time>2026-04-04T14:26:53.58Z</time></trkpt><trkpt lat="37.9864283" lon="15.65257"><ele>14.0</ele><time>2026-04-04T14:26:54.58Z</time></trkpt><trkpt lat="37.9865617" lon="15.65245"><ele>14.0</ele><time>2026-04-04T14:26:55.58Z</time></trkpt><trkpt lat="37.9866967" lon="15.6523483"><ele>15.333333333333334</ele><time>2026-04-04T14:26:56.58Z</time></trkpt><trkpt lat="37.98685" lon="15.65224"><ele>16.666666666666668</ele><time>2026-04-04T14:26:57.58Z</time></trkpt><trkpt lat="37.987005" lon="15.6521383"><ele>18.0</ele><time>2026-04-04T14:26:58.58Z</time></trkpt><trkpt lat="37.9871617" lon="15.652035"><ele>18.666666666666668</ele><time>2026-04-04T14:26:59.58Z</time></trkpt><trkpt lat="37.9873233" lon="15.651915"><ele>19.333333333333336</ele><time>2026-04-04T14:27:00.58Z</time></trkpt><trkpt lat="37.9874917" lon="15.65179"><ele>20.0</ele><time>2026-04-04T14:27:01.58Z</time></trkpt><trkpt lat="37.9876683" lon="15.651655"><ele>20.0</ele><time>2026-04-04T14:27:02.581Z</time></trkpt><trkpt lat="37.987865" lon="15.6515117"><ele>20.0</ele><time>2026-04-04T14:27:03.58Z</time></trkpt><trkpt lat="37.9880617" lon="15.6513733"><ele>20.0</ele><time>2026-04-04T14:27:04.58Z</time></trkpt><trkpt lat="37.9882717" lon="15.6512217"><ele>20.0</ele><time>2026-04-04T14:27:05.58Z</time></trkpt><trkpt lat="37.9884867" lon="15.6510683"><ele>18.5</ele><time>2026-04-04T14:27:06.58Z</time></trkpt><trkpt lat="37.9886933" lon="15.6509367"><ele>17.0</ele><time>2026-04-04T14:27:07.58Z</time></trkpt><trkpt lat="37.98891" lon="15.650795"><ele>17.0</ele><time>2026-04-04T14:27:08.581Z</time></trkpt><trkpt lat="37.9891267" lon="15.6506617"><ele>17.0</ele><time>2026-04-04T14:27:09.58Z</time></trkpt><trkpt lat="37.9893417" lon="15.6505217"><ele>17.5</ele><time>2026-04-04T14:27:10.58Z</time></trkpt><trkpt lat="37.989565" lon="15.6503683"><ele>18.0</ele><time>2026-04-04T14:27:11.58Z</time></trkpt><trkpt lat="37.9897833" lon="15.6502317"><ele>18.0</ele><time>2026-04-04T14:27:12.58Z</time></trkpt><trkpt lat="37.99" lon="15.6500933"><ele>18.0</ele><time>2026-04-04T14:27:13.58Z</time></trkpt><trkpt lat="37.9902267" lon="15.64995"><ele>22.0</ele><time>2026-04-04T14:27:14.58Z</time></trkpt><trkpt lat="37.99045" lon="15.6497983"><ele>26.0</ele><time>2026-04-04T14:27:15.58Z</time></trkpt><trkpt lat="37.99067" lon="15.6496333"><ele>26.0</ele><time>2026-04-04T14:27:16.58Z</time></trkpt><trkpt lat="37.9908867" lon="15.6494733"><ele>26.0</ele><time>2026-04-04T14:27:17.581Z</time></trkpt><trkpt lat="37.991095" lon="15.649315"><ele>26.0</ele><time>2026-04-04T14:27:18.58Z</time></trkpt><trkpt lat="37.9913083" lon="15.6491633"><ele>26.0</ele><time>2026-04-04T14:27:19.581Z</time></trkpt><trkpt lat="37.9915217" lon="15.6490167"><ele>29.0</ele><time>2026-04-04T14:27:20.58Z</time></trkpt><trkpt lat="37.991745" lon="15.64887"><ele>32.0</ele><time>2026-04-04T14:27:21.58Z</time></trkpt><trkpt lat="37.991965" lon="15.6487133"><ele>28.0</ele><time>2026-04-04T14:27:22.58Z</time></trkpt><trkpt lat="37.99218" lon="15.6485667"><ele>24.0</ele><time>2026-04-04T14:27:23.58Z</time></trkpt><trkpt lat="37.9923933" lon="15.6484283"><ele>25.5</ele><time>2026-04-04T14:27:24.581Z</time></trkpt><trkpt lat="37.9926067" lon="15.6482783"><ele>27.0</ele><time>2026-04-04T14:27:25.58Z</time></trkpt><trkpt lat="37.992815" lon="15.648125"><ele>27.0</ele><time>2026-04-04T14:27:26.58Z</time></trkpt><trkpt lat="37.99304" lon="15.647965"><ele>27.0</ele><time>2026-04-04T14:27:27.58Z</time></trkpt><trkpt lat="37.99326" lon="15.6478033"><ele>24.5</ele><time>2026-04-04T14:27:28.58Z</time></trkpt><trkpt lat="37.993475" lon="15.6476467"><ele>22.0</ele><time>2026-04-04T14:27:29.58Z</time></trkpt><trkpt lat="37.99369" lon="15.6474867"><ele>22.0</ele><time>2026-04-04T14:27:30.58Z</time></trkpt><trkpt lat="37.993915" lon="15.6473333"><ele>22.0</ele><time>2026-04-04T14:27:31.58Z</time></trkpt><trkpt lat="37.994145" lon="15.6471817"><ele>22.5</ele><time>2026-04-04T14:27:32.58Z</time></trkpt><trkpt lat="37.9943783" lon="15.647035"><ele>23.0</ele><time>2026-04-04T14:27:33.58Z</time></trkpt><trkpt lat="37.9946133" lon="15.6468833"><ele>21.5</ele><time>2026-04-04T14:27:34.581Z</time></trkpt><trkpt lat="37.9948417" lon="15.6467217"><ele>20.0</ele><time>2026-04-04T14:27:35.58Z</time></trkpt><trkpt lat="37.99508" lon="15.6465467"><ele>20.0</ele><time>2026-04-04T14:27:36.58Z</time></trkpt><trkpt lat="37.9953283" lon="15.6463683"><ele>20.0</ele><time>2026-04-04T14:27:37.581Z</time></trkpt><trkpt lat="37.995575" lon="15.6461933"><ele>19.5</ele><time>2026-04-04T14:27:38.58Z</time></trkpt><trkpt lat="37.995825" lon="15.646025"><ele>19.0</ele><time>2026-04-04T14:27:39.58Z</time></trkpt><trkpt lat="37.9960717" lon="15.6458533"><ele>19.0</ele><time>2026-04-04T14:27:40.58Z</time></trkpt><trkpt lat="37.9963233" lon="15.6456767"><ele>19.0</ele><time>2026-04-04T14:27:41.581Z</time></trkpt><trkpt lat="37.996575" lon="15.64549"><ele>19.0</ele><time>2026-04-04T14:27:42.58Z</time></trkpt><trkpt lat="37.9968283" lon="15.645325"><ele>19.0</ele><time>2026-04-04T14:27:43.581Z</time></trkpt><trkpt lat="37.99709" lon="15.645155"><ele>19.0</ele><time>2026-04-04T14:27:44.58Z</time></trkpt><trkpt lat="37.99737" lon="15.6449617"><ele>19.0</ele><time>2026-04-04T14:27:45.58Z</time></trkpt><trkpt lat="37.997645" lon="15.64477"><ele>17.5</ele><time>2026-04-04T14:27:46.581Z</time></trkpt><trkpt lat="37.99791" lon="15.6445867"><ele>16.0</ele><time>2026-04-04T14:27:47.58Z</time></trkpt><trkpt lat="37.9981683" lon="15.6444017"><ele>20.0</ele><time>2026-04-04T14:27:48.58Z</time></trkpt><trkpt lat="37.9984117" lon="15.6442333"><ele>24.0</ele><time>2026-04-04T14:27:49.58Z</time></trkpt><trkpt lat="37.9986367" lon="15.6440783"><ele>24.0</ele><time>2026-04-04T14:27:50.58Z</time></trkpt><trkpt lat="37.9988417" lon="15.6439383"><ele>24.0</ele><time>2026-04-04T14:27:51.58Z</time></trkpt><trkpt lat="37.9990433" lon="15.6438033"><ele>25.666666666666664</ele><time>2026-04-04T14:27:52.58Z</time></trkpt><trkpt lat="37.9992467" lon="15.6436783"><ele>27.333333333333332</ele><time>2026-04-04T14:27:53.58Z</time></trkpt><trkpt lat="37.99944" lon="15.6435683"><ele>29.0</ele><time>2026-04-04T14:27:54.58Z</time></trkpt><trkpt lat="37.9996233" lon="15.64348"><ele>25.666666666666664</ele><time>2026-04-04T14:27:55.58Z</time></trkpt><trkpt lat="37.9998133" lon="15.6433817"><ele>22.333333333333332</ele><time>2026-04-04T14:27:56.58Z</time></trkpt><trkpt lat="37.999995" lon="15.6432967"><ele>19.0</ele><time>2026-04-04T14:27:57.58Z</time></trkpt><trkpt lat="38.000175" lon="15.643225"><ele>19.0</ele><time>2026-04-04T14:27:58.58Z</time></trkpt><trkpt lat="38.00036" lon="15.64315"><ele>19.0</ele><time>2026-04-04T14:27:59.581Z</time></trkpt><trkpt lat="38.0005433" lon="15.6430767"><ele>19.0</ele><time>2026-04-04T14:28:00.581Z</time></trkpt><trkpt lat="38.000725" lon="15.6430167"><ele>19.666666666666664</ele><time>2026-04-04T14:28:01.58Z</time></trkpt><trkpt lat="38.00091" lon="15.6429517"><ele>20.333333333333332</ele><time>2026-04-04T14:28:02.58Z</time></trkpt><trkpt lat="38.0010967" lon="15.6428833"><ele>21.0</ele><time>2026-04-04T14:28:03.58Z</time></trkpt><trkpt lat="38.0012817" lon="15.6428167"><ele>20.666666666666668</ele><time>2026-04-04T14:28:04.581Z</time></trkpt><trkpt lat="38.0014733" lon="15.642745"><ele>20.333333333333336</ele><time>2026-04-04T14:28:05.581Z</time></trkpt><trkpt lat="38.0016617" lon="15.6426783"><ele>20.0</ele><time>2026-04-04T14:28:06.58Z</time></trkpt><trkpt lat="38.0018617" lon="15.6426033"><ele>20.0</ele><time>2026-04-04T14:28:07.58Z</time></trkpt><trkpt lat="38.0020783" lon="15.64252"><ele>20.0</ele><time>2026-04-04T14:28:08.58Z</time></trkpt><trkpt lat="38.0022983" lon="15.642455"><ele>22.0</ele><time>2026-04-04T14:28:09.58Z</time></trkpt><trkpt lat="38.00254" lon="15.6423733"><ele>24.0</ele><time>2026-04-04T14:28:10.581Z</time></trkpt><trkpt lat="38.0027967" lon="15.64229"><ele>24.0</ele><time>2026-04-04T14:28:11.58Z</time></trkpt><trkpt lat="38.0030633" lon="15.6422017"><ele>24.0</ele><time>2026-04-04T14:28:12.58Z</time></trkpt><trkpt lat="38.0033267" lon="15.64212"><ele>23.5</ele><time>2026-04-04T14:28:13.58Z</time></trkpt><trkpt lat="38.0035883" lon="15.642025"><ele>23.0</ele><time>2026-04-04T14:28:14.58Z</time></trkpt><trkpt lat="38.00384" lon="15.6419433"><ele>23.0</ele><time>2026-04-04T14:28:15.58Z</time></trkpt><trkpt lat="38.0040967" lon="15.6418667"><ele>23.0</ele><time>2026-04-04T14:28:16.58Z</time></trkpt><trkpt lat="38.0043667" lon="15.6417817"><ele>24.5</ele><time>2026-04-04T14:28:17.58Z</time></trkpt><trkpt lat="38.004625" lon="15.6416917"><ele>26.0</ele><time>2026-04-04T14:28:18.58Z</time></trkpt><trkpt lat="38.0048817" lon="15.6415983"><ele>26.0</ele><time>2026-04-04T14:28:19.58Z</time></trkpt><trkpt lat="38.0051233" lon="15.6415217"><ele>26.0</ele><time>2026-04-04T14:28:20.58Z</time></trkpt><trkpt lat="38.005375" lon="15.6414317"><ele>26.0</ele><time>2026-04-04T14:28:21.58Z</time></trkpt><trkpt lat="38.0056183" lon="15.641335"><ele>26.0</ele><time>2026-04-04T14:28:22.581Z</time></trkpt><trkpt lat="38.0058633" lon="15.641245"><ele>28.0</ele><time>2026-04-04T14:28:23.58Z</time></trkpt><trkpt lat="38.006105" lon="15.6411583"><ele>30.0</ele><time>2026-04-04T14:28:24.58Z</time></trkpt><trkpt lat="38.0063467" lon="15.6410783"><ele>25.5</ele><time>2026-04-04T14:28:25.58Z</time></trkpt><trkpt lat="38.00658" lon="15.6409967"><ele>21.0</ele><time>2026-04-04T14:28:26.58Z</time></trkpt><trkpt lat="38.0068083" lon="15.640915"><ele>21.0</ele><time>2026-04-04T14:28:27.58Z</time></trkpt><trkpt lat="38.00704" lon="15.6408333"><ele>21.0</ele><time>2026-04-04T14:28:28.58Z</time></trkpt><trkpt lat="38.0072767" lon="15.6407583"><ele>22.5</ele><time>2026-04-04T14:28:29.58Z</time></trkpt><trkpt lat="38.0075133" lon="15.640695"><ele>24.0</ele><time>2026-04-04T14:28:30.58Z</time></trkpt><trkpt lat="38.0077533" lon="15.6406133"><ele>24.0</ele><time>2026-04-04T14:28:31.58Z</time></trkpt><trkpt lat="38.007995" lon="15.6405333"><ele>24.0</ele><time>2026-04-04T14:28:32.58Z</time></trkpt><trkpt lat="38.008235" lon="15.6404367"><ele>27.5</ele><time>2026-04-04T14:28:33.58Z</time></trkpt><trkpt lat="38.0084783" lon="15.6403533"><ele>31.0</ele><time>2026-04-04T14:28:34.58Z</time></trkpt><trkpt lat="38.0087183" lon="15.6402783"><ele>27.5</ele><time>2026-04-04T14:28:35.58Z</time></trkpt><trkpt lat="38.0089617" lon="15.6401933"><ele>24.0</ele><time>2026-04-04T14:28:36.58Z</time></trkpt><trkpt lat="38.009205" lon="15.6401133"><ele>24.0</ele><time>2026-04-04T14:28:37.581Z</time></trkpt><trkpt lat="38.0094517" lon="15.6400333"><ele>24.0</ele><time>2026-04-04T14:28:38.581Z</time></trkpt><trkpt lat="38.00971" lon="15.6399533"><ele>24.0</ele><time>2026-04-04T14:28:39.58Z</time></trkpt><trkpt lat="38.009975" lon="15.639875"><ele>24.0</ele><time>2026-04-04T14:28:40.58Z</time></trkpt><trkpt lat="38.01025" lon="15.6397833"><ele>26.0</ele><time>2026-04-04T14:28:41.58Z</time></trkpt><trkpt lat="38.0105217" lon="15.6397017"><ele>28.0</ele><time>2026-04-04T14:28:42.58Z</time></trkpt><trkpt lat="38.01079" lon="15.63961"><ele>28.5</ele><time>2026-04-04T14:28:43.58Z</time></trkpt><trkpt lat="38.011055" lon="15.6395083"><ele>29.0</ele><time>2026-04-04T14:28:44.58Z</time></trkpt><trkpt lat="38.0113183" lon="15.6394133"><ele>24.0</ele><time>2026-04-04T14:28:45.58Z</time></trkpt><trkpt lat="38.01158" lon="15.63931"><ele>19.0</ele><time>2026-04-04T14:28:46.58Z</time></trkpt><trkpt lat="38.0118517" lon="15.6392083"><ele>18.5</ele><time>2026-04-04T14:28:47.58Z</time></trkpt><trkpt lat="38.0121133" lon="15.6391183"><ele>18.0</ele><time>2026-04-04T14:28:48.581Z</time></trkpt><trkpt lat="38.0123733" lon="15.6390233"><ele>17.0</ele><time>2026-04-04T14:28:49.58Z</time></trkpt><trkpt lat="38.012625" lon="15.638945"><ele>16.0</ele><time>2026-04-04T14:28:50.58Z</time></trkpt><trkpt lat="38.0128767" lon="15.6388567"><ele>16.0</ele><time>2026-04-04T14:28:51.58Z</time></trkpt><trkpt lat="38.013115" lon="15.6387683"><ele>16.0</ele><time>2026-04-04T14:28:52.58Z</time></trkpt><trkpt lat="38.0133433" lon="15.6386867"><ele>16.0</ele><time>2026-04-04T14:28:53.58Z</time></trkpt><trkpt lat="38.01355" lon="15.6386183"><ele>16.0</ele><time>2026-04-04T14:28:54.581Z</time></trkpt><trkpt lat="38.0137383" lon="15.6385583"><ele>16.0</ele><time>2026-04-04T14:28:55.58Z</time></trkpt><trkpt lat="38.013915" lon="15.63851"><ele>16.0</ele><time>2026-04-04T14:28:56.58Z</time></trkpt><trkpt lat="38.014085" lon="15.6384683"><ele>16.0</ele><time>2026-04-04T14:28:57.58Z</time></trkpt><trkpt lat="38.0142567" lon="15.6384233"><ele>16.0</ele><time>2026-04-04T14:28:58.581Z</time></trkpt><trkpt lat="38.0144267" lon="15.6383833"><ele>16.75</ele><time>2026-04-04T14:28:59.58Z</time></trkpt><trkpt lat="38.0145817" lon="15.6383383"><ele>17.5</ele><time>2026-04-04T14:29:00.581Z</time></trkpt><trkpt lat="38.0147333" lon="15.6383017"><ele>18.25</ele><time>2026-04-04T14:29:01.58Z</time></trkpt><trkpt lat="38.0148667" lon="15.6382867"><ele>19.0</ele><time>2026-04-04T14:29:02.581Z</time></trkpt><trkpt lat="38.01498" lon="15.6382933"><ele>18.599999999999998</ele><time>2026-04-04T14:29:03.58Z</time></trkpt><trkpt lat="38.0150767" lon="15.638325"><ele>18.2</ele><time>2026-04-04T14:29:04.58Z</time></trkpt><trkpt lat="38.015165" lon="15.6383617"><ele>17.799999999999997</ele><time>2026-04-04T14:29:05.58Z</time></trkpt><trkpt lat="38.0152533" lon="15.63841"><ele>17.4</ele><time>2026-04-04T14:29:06.58Z</time></trkpt><trkpt lat="38.0153533" lon="15.6384267"><ele>17.0</ele><time>2026-04-04T14:29:07.58Z</time></trkpt><trkpt lat="38.01547" lon="15.63846"><ele>17.0</ele><time>2026-04-04T14:29:08.58Z</time></trkpt><trkpt lat="38.0156067" lon="15.6385433"><ele>17.0</ele><time>2026-04-04T14:29:09.58Z</time></trkpt><trkpt lat="38.0157767" lon="15.6386767"><ele>17.0</ele><time>2026-04-04T14:29:10.58Z</time></trkpt><trkpt lat="38.01596" lon="15.6388583"><ele>17.5</ele><time>2026-04-04T14:29:11.58Z</time></trkpt><trkpt lat="38.0161417" lon="15.6390517"><ele>18.0</ele><time>2026-04-04T14:29:12.58Z</time></trkpt><trkpt lat="38.0163067" lon="15.6392667"><ele>24.5</ele><time>2026-04-04T14:29:13.581Z</time></trkpt><trkpt lat="38.0164517" lon="15.639495"><ele>31.0</ele><time>2026-04-04T14:29:14.581Z</time></trkpt><trkpt lat="38.0165767" lon="15.6397333"><ele>25.666666666666668</ele><time>2026-04-04T14:29:15.58Z</time></trkpt><trkpt lat="38.01668" lon="15.6399783"><ele>20.333333333333336</ele><time>2026-04-04T14:29:16.58Z</time></trkpt><trkpt lat="38.0167767" lon="15.6402333"><ele>15.0</ele><time>2026-04-04T14:29:17.58Z</time></trkpt><trkpt lat="38.0168667" lon="15.640505"><ele>15.0</ele><time>2026-04-04T14:29:18.58Z</time></trkpt><trkpt lat="38.0169617" lon="15.64079"><ele>15.0</ele><time>2026-04-04T14:29:19.58Z</time></trkpt><trkpt lat="38.017065" lon="15.6410883"><ele>16.0</ele><time>2026-04-04T14:29:20.581Z</time></trkpt><trkpt lat="38.01717" lon="15.64139"><ele>17.0</ele><time>2026-04-04T14:29:21.58Z</time></trkpt><trkpt lat="38.0172733" lon="15.6416817"><ele>20.0</ele><time>2026-04-04T14:29:22.581Z</time></trkpt><trkpt lat="38.0173767" lon="15.6419717"><ele>23.0</ele><time>2026-04-04T14:29:23.58Z</time></trkpt><trkpt lat="38.017475" lon="15.64226"><ele>19.0</ele><time>2026-04-04T14:29:24.581Z</time></trkpt><trkpt lat="38.0175767" lon="15.64255"><ele>15.0</ele><time>2026-04-04T14:29:25.58Z</time></trkpt><trkpt lat="38.017685" lon="15.6428433"><ele>15.0</ele><time>2026-04-04T14:29:26.581Z</time></trkpt><trkpt lat="38.017785" lon="15.6431417"><ele>15.0</ele><time>2026-04-04T14:29:27.58Z</time></trkpt><trkpt lat="38.0178867" lon="15.6434467"><ele>18.0</ele><time>2026-04-04T14:29:28.581Z</time></trkpt><trkpt lat="38.0179933" lon="15.6437333"><ele>21.0</ele><time>2026-04-04T14:29:29.581Z</time></trkpt><trkpt lat="38.018095" lon="15.6440183"><ele>21.0</ele><time>2026-04-04T14:29:30.581Z</time></trkpt><trkpt lat="38.01819" lon="15.6442967"><ele>21.0</ele><time>2026-04-04T14:29:31.58Z</time></trkpt><trkpt lat="38.0182833" lon="15.6445567"><ele>21.333333333333332</ele><time>2026-04-04T14:29:32.581Z</time></trkpt><trkpt lat="38.018365" lon="15.6448117"><ele>21.666666666666664</ele><time>2026-04-04T14:29:33.58Z</time></trkpt><trkpt lat="38.0184533" lon="15.6450517"><ele>22.0</ele><time>2026-04-04T14:29:34.58Z</time></trkpt><trkpt lat="38.018545" lon="15.6452867"><ele>21.666666666666664</ele><time>2026-04-04T14:29:35.58Z</time></trkpt><trkpt lat="38.0186433" lon="15.6455017"><ele>21.333333333333332</ele><time>2026-04-04T14:29:36.581Z</time></trkpt><trkpt lat="38.0187483" lon="15.6457183"><ele>21.0</ele><time>2026-04-04T14:29:37.581Z</time></trkpt><trkpt lat="38.0188617" lon="15.6459333"><ele>21.333333333333332</ele><time>2026-04-04T14:29:38.58Z</time></trkpt><trkpt lat="38.018985" lon="15.646135"><ele>21.666666666666664</ele><time>2026-04-04T14:29:39.58Z</time></trkpt><trkpt lat="38.019115" lon="15.64634"><ele>22.0</ele><time>2026-04-04T14:29:40.58Z</time></trkpt><trkpt lat="38.0192483" lon="15.6465617"><ele>20.0</ele><time>2026-04-04T14:29:41.58Z</time></trkpt><trkpt lat="38.0193833" lon="15.6467833"><ele>18.0</ele><time>2026-04-04T14:29:42.58Z</time></trkpt><trkpt lat="38.0195283" lon="15.647025"><ele>18.0</ele><time>2026-04-04T14:29:43.58Z</time></trkpt><trkpt lat="38.019675" lon="15.6472567"><ele>18.0</ele><time>2026-04-04T14:29:44.58Z</time></trkpt><trkpt lat="38.0198217" lon="15.6474817"><ele>18.0</ele><time>2026-04-04T14:29:45.58Z</time></trkpt><trkpt lat="38.0199483" lon="15.6476917"><ele>18.0</ele><time>2026-04-04T14:29:46.58Z</time></trkpt><trkpt lat="38.02007" lon="15.647875"><ele>18.0</ele><time>2026-04-04T14:29:47.58Z</time></trkpt><trkpt lat="38.0201883" lon="15.64805"><ele>18.333333333333332</ele><time>2026-04-04T14:29:48.58Z</time></trkpt><trkpt lat="38.020295" lon="15.648205"><ele>18.666666666666664</ele><time>2026-04-04T14:29:49.58Z</time></trkpt><trkpt lat="38.0203917" lon="15.6483567"><ele>19.0</ele><time>2026-04-04T14:29:50.58Z</time></trkpt><trkpt lat="38.0204867" lon="15.6484983"><ele>20.0</ele><time>2026-04-04T14:29:51.58Z</time></trkpt><trkpt lat="38.0205733" lon="15.6486417"><ele>21.0</ele><time>2026-04-04T14:29:52.58Z</time></trkpt><trkpt lat="38.0206517" lon="15.64878"><ele>22.0</ele><time>2026-04-04T14:29:53.581Z</time></trkpt><trkpt lat="38.0207267" lon="15.6489"><ele>23.0</ele><time>2026-04-04T14:29:54.58Z</time></trkpt><trkpt lat="38.020795" lon="15.64901"><ele>22.833333333333336</ele><time>2026-04-04T14:29:55.58Z</time></trkpt><trkpt lat="38.02085" lon="15.6491117"><ele>22.666666666666668</ele><time>2026-04-04T14:29:56.58Z</time></trkpt><trkpt lat="38.02089" lon="15.6491917"><ele>22.5</ele><time>2026-04-04T14:29:57.58Z</time></trkpt><trkpt lat="38.02094" lon="15.649255"><ele>22.333333333333332</ele><time>2026-04-04T14:29:59.58Z</time></trkpt><trkpt lat="38.0209667" lon="15.6493333"><ele>22.166666666666664</ele><time>2026-04-04T14:30:05.58Z</time></trkpt><trkpt lat="38.021" lon="15.6494517"><ele>22.0</ele><time>2026-04-04T14:30:07.58Z</time></trkpt><trkpt lat="38.0210483" lon="15.6495417"><ele>22.0</ele><time>2026-04-04T14:30:08.581Z</time></trkpt><trkpt lat="38.0211183" lon="15.6496283"><ele>22.0</ele><time>2026-04-04T14:30:09.58Z</time></trkpt><trkpt lat="38.0212067" lon="15.649725"><ele>22.0</ele><time>2026-04-04T14:30:10.581Z</time></trkpt><trkpt lat="38.021305" lon="15.6498433"><ele>22.0</ele><time>2026-04-04T14:30:11.581Z</time></trkpt><trkpt lat="38.0214033" lon="15.6499717"><ele>22.0</ele><time>2026-04-04T14:30:12.58Z</time></trkpt><trkpt lat="38.0215017" lon="15.6501183"><ele>22.0</ele><time>2026-04-04T14:30:13.58Z</time></trkpt><trkpt lat="38.0216" lon="15.6502683"><ele>22.0</ele><time>2026-04-04T14:30:14.58Z</time></trkpt><trkpt lat="38.021705" lon="15.6504317"><ele>23.0</ele><time>2026-04-04T14:30:15.58Z</time></trkpt><trkpt lat="38.0218167" lon="15.6506033"><ele>24.0</ele><time>2026-04-04T14:30:16.581Z</time></trkpt><trkpt lat="38.02193" lon="15.6507933"><ele>25.0</ele><time>2026-04-04T14:30:17.581Z</time></trkpt><trkpt lat="38.0220483" lon="15.6509917"><ele>25.0</ele><time>2026-04-04T14:30:18.58Z</time></trkpt><trkpt lat="38.0221717" lon="15.6511917"><ele>25.0</ele><time>2026-04-04T14:30:19.58Z</time></trkpt><trkpt lat="38.0223" lon="15.651395"><ele>25.0</ele><time>2026-04-04T14:30:20.58Z</time></trkpt><trkpt lat="38.0224367" lon="15.6516067"><ele>23.0</ele><time>2026-04-04T14:30:21.58Z</time></trkpt><trkpt lat="38.022575" lon="15.6518183"><ele>21.0</ele><time>2026-04-04T14:30:22.581Z</time></trkpt><trkpt lat="38.0227133" lon="15.6520367"><ele>19.0</ele><time>2026-04-04T14:30:23.58Z</time></trkpt><trkpt lat="38.0228517" lon="15.6522533"><ele>19.0</ele><time>2026-04-04T14:30:24.58Z</time></trkpt><trkpt lat="38.0229917" lon="15.6524683"><ele>19.0</ele><time>2026-04-04T14:30:25.58Z</time></trkpt><trkpt lat="38.0231267" lon="15.6526817"><ele>19.0</ele><time>2026-04-04T14:30:26.58Z</time></trkpt><trkpt lat="38.0232667" lon="15.6528933"><ele>18.0</ele><time>2026-04-04T14:30:27.58Z</time></trkpt><trkpt lat="38.0233983" lon="15.6531"><ele>17.0</ele><time>2026-04-04T14:30:28.58Z</time></trkpt><trkpt lat="38.023515" lon="15.65329"><ele>16.0</ele><time>2026-04-04T14:30:29.58Z</time></trkpt><trkpt lat="38.023625" lon="15.6534583"><ele>16.0</ele><time>2026-04-04T14:30:30.58Z</time></trkpt><trkpt lat="38.023735" lon="15.6536217"><ele>16.0</ele><time>2026-04-04T14:30:31.58Z</time></trkpt><trkpt lat="38.0238433" lon="15.65378"><ele>16.0</ele><time>2026-04-04T14:30:32.58Z</time></trkpt><trkpt lat="38.0239567" lon="15.6539333"><ele>16.333333333333332</ele><time>2026-04-04T14:30:33.58Z</time></trkpt><trkpt lat="38.0240733" lon="15.654085"><ele>16.666666666666668</ele><time>2026-04-04T14:30:34.58Z</time></trkpt><trkpt lat="38.0242033" lon="15.6542267"><ele>17.0</ele><time>2026-04-04T14:30:35.58Z</time></trkpt><trkpt lat="38.024345" lon="15.6543533"><ele>16.333333333333336</ele><time>2026-04-04T14:30:36.58Z</time></trkpt><trkpt lat="38.0244983" lon="15.6544683"><ele>15.666666666666668</ele><time>2026-04-04T14:30:37.581Z</time></trkpt><trkpt lat="38.0246717" lon="15.6545667"><ele>15.0</ele><time>2026-04-04T14:30:38.58Z</time></trkpt><trkpt lat="38.0248617" lon="15.6546617"><ele>14.0</ele><time>2026-04-04T14:30:39.581Z</time></trkpt><trkpt lat="38.0250733" lon="15.654735"><ele>13.0</ele><time>2026-04-04T14:30:40.58Z</time></trkpt><trkpt lat="38.0253067" lon="15.654815"><ele>13.0</ele><time>2026-04-04T14:30:41.58Z</time></trkpt><trkpt lat="38.02555" lon="15.6548983"><ele>13.0</ele><time>2026-04-04T14:30:42.581Z</time></trkpt><trkpt lat="38.02579" lon="15.654985"><ele>13.0</ele><time>2026-04-04T14:30:43.581Z</time></trkpt><trkpt lat="38.0260267" lon="15.6550683"><ele>13.0</ele><time>2026-04-04T14:30:44.58Z</time></trkpt><trkpt lat="38.0262633" lon="15.6551567"><ele>13.0</ele><time>2026-04-04T14:30:45.58Z</time></trkpt><trkpt lat="38.0265083" lon="15.65525"><ele>13.0</ele><time>2026-04-04T14:30:46.58Z</time></trkpt><trkpt lat="38.0267567" lon="15.6553517"><ele>14.5</ele><time>2026-04-04T14:30:47.58Z</time></trkpt><trkpt lat="38.0269933" lon="15.6554517"><ele>16.0</ele><time>2026-04-04T14:30:48.58Z</time></trkpt><trkpt lat="38.0272267" lon="15.6555483"><ele>16.0</ele><time>2026-04-04T14:30:49.58Z</time></trkpt><trkpt lat="38.0274533" lon="15.6556283"><ele>16.0</ele><time>2026-04-04T14:30:50.58Z</time></trkpt><trkpt lat="38.027675" lon="15.6557117"><ele>15.5</ele><time>2026-04-04T14:30:51.581Z</time></trkpt><trkpt lat="38.0278983" lon="15.6557917"><ele>15.0</ele><time>2026-04-04T14:30:52.58Z</time></trkpt><trkpt lat="38.0281183" lon="15.6558767"><ele>15.333333333333332</ele><time>2026-04-04T14:30:53.58Z</time></trkpt><trkpt lat="38.0283317" lon="15.6559567"><ele>15.666666666666666</ele><time>2026-04-04T14:30:54.58Z</time></trkpt><trkpt lat="38.0285433" lon="15.65604"><ele>16.0</ele><time>2026-04-04T14:30:55.58Z</time></trkpt><trkpt lat="38.028755" lon="15.6561233"><ele>16.0</ele><time>2026-04-04T14:30:56.58Z</time></trkpt><trkpt lat="38.0289617" lon="15.6562067"><ele>16.0</ele><time>2026-04-04T14:30:57.58Z</time></trkpt><trkpt lat="38.0291683" lon="15.656285"><ele>16.0</ele><time>2026-04-04T14:30:58.58Z</time></trkpt><trkpt lat="38.029365" lon="15.656365"><ele>15.333333333333332</ele><time>2026-04-04T14:30:59.58Z</time></trkpt><trkpt lat="38.02956" lon="15.65644"><ele>14.666666666666668</ele><time>2026-04-04T14:31:00.58Z</time></trkpt><trkpt lat="38.0297533" lon="15.6565167"><ele>14.0</ele><time>2026-04-04T14:31:01.58Z</time></trkpt><trkpt lat="38.029945" lon="15.6565983"><ele>13.0</ele><time>2026-04-04T14:31:02.581Z</time></trkpt><trkpt lat="38.0301233" lon="15.65667"><ele>12.0</ele><time>2026-04-04T14:31:03.58Z</time></trkpt><trkpt lat="38.0302983" lon="15.6567383"><ele>11.0</ele><time>2026-04-04T14:31:04.58Z</time></trkpt><trkpt lat="38.0304733" lon="15.6568033"><ele>11.0</ele><time>2026-04-04T14:31:05.581Z</time></trkpt><trkpt lat="38.0306533" lon="15.6568683"><ele>11.0</ele><time>2026-04-04T14:31:06.58Z</time></trkpt><trkpt lat="38.0308283" lon="15.656935"><ele>11.0</ele><time>2026-04-04T14:31:07.58Z</time></trkpt><trkpt lat="38.0310067" lon="15.6570033"><ele>12.333333333333332</ele><time>2026-04-04T14:31:08.58Z</time></trkpt><trkpt lat="38.0311783" lon="15.6570717"><ele>13.666666666666666</ele><time>2026-04-04T14:31:09.58Z</time></trkpt><trkpt lat="38.031355" lon="15.6571383"><ele>15.0</ele><time>2026-04-04T14:31:10.58Z</time></trkpt><trkpt lat="38.03154" lon="15.657205"><ele>14.666666666666668</ele><time>2026-04-04T14:31:11.581Z</time></trkpt><trkpt lat="38.0317183" lon="15.657285"><ele>14.333333333333334</ele><time>2026-04-04T14:31:12.58Z</time></trkpt><trkpt lat="38.0318917" lon="15.6573567"><ele>14.0</ele><time>2026-04-04T14:31:13.58Z</time></trkpt><trkpt lat="38.0320633" lon="15.657425"><ele>14.0</ele><time>2026-04-04T14:31:14.581Z</time></trkpt><trkpt lat="38.0322317" lon="15.6574917"><ele>14.0</ele><time>2026-04-04T14:31:15.58Z</time></trkpt><trkpt lat="38.032395" lon="15.6575617"><ele>14.0</ele><time>2026-04-04T14:31:16.58Z</time></trkpt><trkpt lat="38.0325817" lon="15.6576233"><ele>14.0</ele><time>2026-04-04T14:31:17.58Z</time></trkpt><trkpt lat="38.032775" lon="15.657695"><ele>14.0</ele><time>2026-04-04T14:31:18.581Z</time></trkpt><trkpt lat="38.0329683" lon="15.657765"><ele>14.0</ele><time>2026-04-04T14:31:19.58Z</time></trkpt><trkpt lat="38.0331567" lon="15.657845"><ele>13.0</ele><time>2026-04-04T14:31:20.58Z</time></trkpt><trkpt lat="38.0333283" lon="15.65791"><ele>12.0</ele><time>2026-04-04T14:31:21.58Z</time></trkpt><trkpt lat="38.033495" lon="15.65798"><ele>11.0</ele><time>2026-04-04T14:31:22.58Z</time></trkpt><trkpt lat="38.0336517" lon="15.6580467"><ele>11.0</ele><time>2026-04-04T14:31:23.58Z</time></trkpt><trkpt lat="38.0338" lon="15.65811"><ele>11.0</ele><time>2026-04-04T14:31:24.58Z</time></trkpt><trkpt lat="38.033955" lon="15.658175"><ele>11.0</ele><time>2026-04-04T14:31:25.58Z</time></trkpt><trkpt lat="38.0341033" lon="15.65824"><ele>11.25</ele><time>2026-04-04T14:31:26.58Z</time></trkpt><trkpt lat="38.0342483" lon="15.658305"><ele>11.5</ele><time>2026-04-04T14:31:27.58Z</time></trkpt><trkpt lat="38.03439" lon="15.6583533"><ele>11.75</ele><time>2026-04-04T14:31:28.58Z</time></trkpt><trkpt lat="38.0345283" lon="15.6584067"><ele>12.0</ele><time>2026-04-04T14:31:29.58Z</time></trkpt><trkpt lat="38.0346667" lon="15.6584567"><ele>12.0</ele><time>2026-04-04T14:31:30.58Z</time></trkpt><trkpt lat="38.034805" lon="15.6585133"><ele>12.0</ele><time>2026-04-04T14:31:31.58Z</time></trkpt><trkpt lat="38.0349533" lon="15.6585767"><ele>12.0</ele><time>2026-04-04T14:31:32.581Z</time></trkpt><trkpt lat="38.03511" lon="15.6586333"><ele>12.333333333333332</ele><time>2026-04-04T14:31:33.58Z</time></trkpt><trkpt lat="38.0352717" lon="15.65869"><ele>12.666666666666666</ele><time>2026-04-04T14:31:34.58Z</time></trkpt><trkpt lat="38.0354467" lon="15.6587533"><ele>13.0</ele><time>2026-04-04T14:31:35.58Z</time></trkpt><trkpt lat="38.0356317" lon="15.6588183"><ele>12.333333333333332</ele><time>2026-04-04T14:31:36.58Z</time></trkpt><trkpt lat="38.0358283" lon="15.6589017"><ele>11.666666666666666</ele><time>2026-04-04T14:31:37.58Z</time></trkpt><trkpt lat="38.036035" lon="15.6589867"><ele>11.0</ele><time>2026-04-04T14:31:38.58Z</time></trkpt><trkpt lat="38.0362517" lon="15.6590767"><ele>11.0</ele><time>2026-04-04T14:31:39.58Z</time></trkpt><trkpt lat="38.0364717" lon="15.6591683"><ele>11.0</ele><time>2026-04-04T14:31:40.58Z</time></trkpt><trkpt lat="38.0367017" lon="15.659265"><ele>11.0</ele><time>2026-04-04T14:31:41.58Z</time></trkpt><trkpt lat="38.03693" lon="15.65936"><ele>11.0</ele><time>2026-04-04T14:31:42.581Z</time></trkpt><trkpt lat="38.0371667" lon="15.65945"><ele>12.0</ele><time>2026-04-04T14:31:43.58Z</time></trkpt><trkpt lat="38.0374" lon="15.6595333"><ele>13.0</ele><time>2026-04-04T14:31:44.58Z</time></trkpt><trkpt lat="38.0376217" lon="15.6596017"><ele>13.666666666666666</ele><time>2026-04-04T14:31:45.581Z</time></trkpt><trkpt lat="38.0378383" lon="15.6596717"><ele>14.333333333333332</ele><time>2026-04-04T14:31:46.581Z</time></trkpt><trkpt lat="38.0380517" lon="15.6597083"><ele>15.0</ele><time>2026-04-04T14:31:47.58Z</time></trkpt><trkpt lat="38.0382667" lon="15.6597317"><ele>16.0</ele><time>2026-04-04T14:31:48.58Z</time></trkpt><trkpt lat="38.0384867" lon="15.6597267"><ele>17.0</ele><time>2026-04-04T14:31:49.581Z</time></trkpt><trkpt lat="38.038705" lon="15.6597"><ele>18.0</ele><time>2026-04-04T14:31:50.58Z</time></trkpt><trkpt lat="38.038925" lon="15.6596617"><ele>18.0</ele><time>2026-04-04T14:31:51.58Z</time></trkpt><trkpt lat="38.03913" lon="15.6596033"><ele>18.0</ele><time>2026-04-04T14:31:52.58Z</time></trkpt><trkpt lat="38.0393317" lon="15.6595483"><ele>18.0</ele><time>2026-04-04T14:31:53.58Z</time></trkpt><trkpt lat="38.0395267" lon="15.6594767"><ele>16.666666666666668</ele><time>2026-04-04T14:31:54.58Z</time></trkpt><trkpt lat="38.039725" lon="15.6594"><ele>15.333333333333334</ele><time>2026-04-04T14:31:55.58Z</time></trkpt><trkpt lat="38.03992" lon="15.659305"><ele>14.0</ele><time>2026-04-04T14:31:56.58Z</time></trkpt><trkpt lat="38.0401217" lon="15.6591933"><ele>14.0</ele><time>2026-04-04T14:31:57.58Z</time></trkpt><trkpt lat="38.040315" lon="15.6590833"><ele>14.0</ele><time>2026-04-04T14:31:58.58Z</time></trkpt><trkpt lat="38.0405133" lon="15.6589733"><ele>14.0</ele><time>2026-04-04T14:31:59.58Z</time></trkpt><trkpt lat="38.0407117" lon="15.6588667"><ele>14.0</ele><time>2026-04-04T14:32:00.58Z</time></trkpt><trkpt lat="38.0408967" lon="15.658765"><ele>14.0</ele><time>2026-04-04T14:32:01.58Z</time></trkpt><trkpt lat="38.0410717" lon="15.6586683"><ele>14.0</ele><time>2026-04-04T14:32:02.581Z</time></trkpt><trkpt lat="38.04124" lon="15.6585817"><ele>13.0</ele><time>2026-04-04T14:32:03.58Z</time></trkpt><trkpt lat="38.0413983" lon="15.6584917"><ele>12.0</ele><time>2026-04-04T14:32:04.581Z</time></trkpt><trkpt lat="38.0415617" lon="15.6584017"><ele>11.0</ele><time>2026-04-04T14:32:05.581Z</time></trkpt><trkpt lat="38.0417317" lon="15.6583067"><ele>11.0</ele><time>2026-04-04T14:32:06.58Z</time></trkpt><trkpt lat="38.0419017" lon="15.6582183"><ele>11.0</ele><time>2026-04-04T14:32:07.58Z</time></trkpt><trkpt lat="38.04208" lon="15.6581183"><ele>11.0</ele><time>2026-04-04T14:32:08.58Z</time></trkpt><trkpt lat="38.0422583" lon="15.6580233"><ele>11.0</ele><time>2026-04-04T14:32:09.581Z</time></trkpt><trkpt lat="38.042435" lon="15.6579233"><ele>11.0</ele><time>2026-04-04T14:32:10.58Z</time></trkpt><trkpt lat="38.04262" lon="15.6578267"><ele>11.0</ele><time>2026-04-04T14:32:11.581Z</time></trkpt><trkpt lat="38.0428033" lon="15.6577167"><ele>10.333333333333332</ele><time>2026-04-04T14:32:12.58Z</time></trkpt><trkpt lat="38.0430067" lon="15.657595"><ele>9.666666666666666</ele><time>2026-04-04T14:32:13.58Z</time></trkpt><trkpt lat="38.043205" lon="15.6574867"><ele>9.0</ele><time>2026-04-04T14:32:14.58Z</time></trkpt><trkpt lat="38.0434017" lon="15.6573733"><ele>10.333333333333332</ele><time>2026-04-04T14:32:15.58Z</time></trkpt><trkpt lat="38.0435983" lon="15.6572633"><ele>11.666666666666666</ele><time>2026-04-04T14:32:16.58Z</time></trkpt><trkpt lat="38.0438033" lon="15.6571533"><ele>13.0</ele><time>2026-04-04T14:32:17.58Z</time></trkpt><trkpt lat="38.0439983" lon="15.6570517"><ele>12.666666666666666</ele><time>2026-04-04T14:32:18.58Z</time></trkpt><trkpt lat="38.04419" lon="15.6569517"><ele>12.333333333333332</ele><time>2026-04-04T14:32:19.58Z</time></trkpt><trkpt lat="38.044375" lon="15.6568567"><ele>12.0</ele><time>2026-04-04T14:32:20.58Z</time></trkpt><trkpt lat="38.0445483" lon="15.65677"><ele>12.0</ele><time>2026-04-04T14:32:21.58Z</time></trkpt><trkpt lat="38.0447083" lon="15.6566967"><ele>12.0</ele><time>2026-04-04T14:32:22.58Z</time></trkpt><trkpt lat="38.0448617" lon="15.6566117"><ele>12.0</ele><time>2026-04-04T14:32:23.58Z</time></trkpt><trkpt lat="38.0450133" lon="15.6565333"><ele>12.666666666666668</ele><time>2026-04-04T14:32:24.58Z</time></trkpt><trkpt lat="38.04516" lon="15.6564483"><ele>13.333333333333334</ele><time>2026-04-04T14:32:25.58Z</time></trkpt><trkpt lat="38.0453083" lon="15.6563767"><ele>14.0</ele><time>2026-04-04T14:32:26.58Z</time></trkpt><trkpt lat="38.0454583" lon="15.6563083"><ele>14.0</ele><time>2026-04-04T14:32:27.581Z</time></trkpt><trkpt lat="38.0456133" lon="15.6562483"><ele>14.0</ele><time>2026-04-04T14:32:28.581Z</time></trkpt><trkpt lat="38.045785" lon="15.6561983"><ele>14.0</ele><time>2026-04-04T14:32:29.58Z</time></trkpt><trkpt lat="38.0459767" lon="15.6561583"><ele>14.0</ele><time>2026-04-04T14:32:30.58Z</time></trkpt><trkpt lat="38.0461867" lon="15.6561217"><ele>14.0</ele><time>2026-04-04T14:32:31.581Z</time></trkpt><trkpt lat="38.0463933" lon="15.656065"><ele>14.0</ele><time>2026-04-04T14:32:32.58Z</time></trkpt><trkpt lat="38.0465983" lon="15.6560133"><ele>14.666666666666668</ele><time>2026-04-04T14:32:33.58Z</time></trkpt><trkpt lat="38.0468083" lon="15.6559767"><ele>15.333333333333332</ele><time>2026-04-04T14:32:34.58Z</time></trkpt><trkpt lat="38.0470233" lon="15.655945"><ele>16.0</ele><time>2026-04-04T14:32:35.58Z</time></trkpt><trkpt lat="38.047245" lon="15.6558917"><ele>17.0</ele><time>2026-04-04T14:32:36.58Z</time></trkpt><trkpt lat="38.0474733" lon="15.655845"><ele>18.0</ele><time>2026-04-04T14:32:37.58Z</time></trkpt><trkpt lat="38.0477017" lon="15.6558033"><ele>18.0</ele><time>2026-04-04T14:32:38.58Z</time></trkpt><trkpt lat="38.0479183" lon="15.6557767"><ele>18.0</ele><time>2026-04-04T14:32:39.58Z</time></trkpt><trkpt lat="38.0481317" lon="15.65574"><ele>18.0</ele><time>2026-04-04T14:32:40.58Z</time></trkpt><trkpt lat="38.0483483" lon="15.6557133"><ele>18.5</ele><time>2026-04-04T14:32:41.58Z</time></trkpt><trkpt lat="38.048575" lon="15.6557017"><ele>19.0</ele><time>2026-04-04T14:32:42.58Z</time></trkpt><trkpt lat="38.0488033" lon="15.6557117"><ele>19.0</ele><time>2026-04-04T14:32:43.581Z</time></trkpt><trkpt lat="38.0490367" lon="15.6557367"><ele>19.0</ele><time>2026-04-04T14:32:44.58Z</time></trkpt><trkpt lat="38.0492633" lon="15.6557717"><ele>20.5</ele><time>2026-04-04T14:32:45.58Z</time></trkpt><trkpt lat="38.049495" lon="15.655815"><ele>22.0</ele><time>2026-04-04T14:32:46.581Z</time></trkpt><trkpt lat="38.0497367" lon="15.65588"><ele>23.5</ele><time>2026-04-04T14:32:47.58Z</time></trkpt><trkpt lat="38.049985" lon="15.6559583"><ele>25.0</ele><time>2026-04-04T14:32:48.581Z</time></trkpt><trkpt lat="38.0502433" lon="15.65605"><ele>26.5</ele><time>2026-04-04T14:32:49.58Z</time></trkpt><trkpt lat="38.0505033" lon="15.6561683"><ele>28.0</ele><time>2026-04-04T14:32:50.58Z</time></trkpt><trkpt lat="38.0507617" lon="15.6562933"><ele>28.5</ele><time>2026-04-04T14:32:51.58Z</time></trkpt><trkpt lat="38.0510083" lon="15.656425"><ele>29.0</ele><time>2026-04-04T14:32:52.58Z</time></trkpt><trkpt lat="38.05125" lon="15.65658"><ele>29.0</ele><time>2026-04-04T14:32:53.58Z</time></trkpt><trkpt lat="38.0514817" lon="15.6567383"><ele>29.0</ele><time>2026-04-04T14:32:54.581Z</time></trkpt><trkpt lat="38.0517117" lon="15.6569083"><ele>30.5</ele><time>2026-04-04T14:32:55.58Z</time></trkpt><trkpt lat="38.0519383" lon="15.6570717"><ele>32.0</ele><time>2026-04-04T14:32:56.58Z</time></trkpt><trkpt lat="38.052155" lon="15.65723"><ele>32.0</ele><time>2026-04-04T14:32:57.58Z</time></trkpt><trkpt lat="38.0523767" lon="15.6573833"><ele>32.0</ele><time>2026-04-04T14:32:58.58Z</time></trkpt><trkpt lat="38.052605" lon="15.6575417"><ele>31.5</ele><time>2026-04-04T14:32:59.58Z</time></trkpt><trkpt lat="38.0528317" lon="15.6576867"><ele>31.0</ele><time>2026-04-04T14:33:00.58Z</time></trkpt><trkpt lat="38.0530683" lon="15.65783"><ele>32.5</ele><time>2026-04-04T14:33:01.58Z</time></trkpt><trkpt lat="38.0533083" lon="15.6579633"><ele>34.0</ele><time>2026-04-04T14:33:02.581Z</time></trkpt><trkpt lat="38.0535283" lon="15.6580883"><ele>34.0</ele><time>2026-04-04T14:33:03.581Z</time></trkpt><trkpt lat="38.0537583" lon="15.65821"><ele>34.0</ele><time>2026-04-04T14:33:04.58Z</time></trkpt><trkpt lat="38.0539983" lon="15.6583017"><ele>34.5</ele><time>2026-04-04T14:33:05.58Z</time></trkpt><trkpt lat="38.0542067" lon="15.658475"><ele>35.0</ele><time>2026-04-04T14:33:06.58Z</time></trkpt><trkpt lat="38.05444" lon="15.6586167"><ele>36.0</ele><time>2026-04-04T14:33:07.58Z</time></trkpt><trkpt lat="38.0546783" lon="15.65874"><ele>37.0</ele><time>2026-04-04T14:33:08.58Z</time></trkpt><trkpt lat="38.05491" lon="15.6588667"><ele>35.5</ele><time>2026-04-04T14:33:09.58Z</time></trkpt><trkpt lat="38.055135" lon="15.6590067"><ele>34.0</ele><time>2026-04-04T14:33:10.58Z</time></trkpt><trkpt lat="38.05537" lon="15.6591433"><ele>34.0</ele><time>2026-04-04T14:33:11.58Z</time></trkpt><trkpt lat="38.0556117" lon="15.6592833"><ele>34.0</ele><time>2026-04-04T14:33:12.58Z</time></trkpt><trkpt lat="38.0558567" lon="15.6594183"><ele>36.0</ele><time>2026-04-04T14:33:13.58Z</time></trkpt><trkpt lat="38.0561133" lon="15.6595633"><ele>38.0</ele><time>2026-04-04T14:33:14.58Z</time></trkpt><trkpt lat="38.0563733" lon="15.6597117"><ele>36.5</ele><time>2026-04-04T14:33:15.58Z</time></trkpt><trkpt lat="38.0566333" lon="15.6598633"><ele>35.0</ele><time>2026-04-04T14:33:16.58Z</time></trkpt><trkpt lat="38.0569033" lon="15.660025"><ele>35.0</ele><time>2026-04-04T14:33:17.58Z</time></trkpt><trkpt lat="38.057185" lon="15.660165"><ele>35.0</ele><time>2026-04-04T14:33:18.58Z</time></trkpt><trkpt lat="38.0574717" lon="15.660305"><ele>36.5</ele><time>2026-04-04T14:33:19.58Z</time></trkpt><trkpt lat="38.0577567" lon="15.6604567"><ele>38.0</ele><time>2026-04-04T14:33:20.58Z</time></trkpt><trkpt lat="38.0580383" lon="15.6606067"><ele>37.0</ele><time>2026-04-04T14:33:21.58Z</time></trkpt><trkpt lat="38.0583433" lon="15.6606933"><ele>36.0</ele><time>2026-04-04T14:33:22.58Z</time></trkpt><trkpt lat="38.0586533" lon="15.6609767"><ele>36.0</ele><time>2026-04-04T14:33:23.58Z</time></trkpt><trkpt lat="38.0589467" lon="15.6611067"><ele>36.0</ele><time>2026-04-04T14:33:24.58Z</time></trkpt><trkpt lat="38.0592317" lon="15.66124"><ele>39.5</ele><time>2026-04-04T14:33:25.58Z</time></trkpt><trkpt lat="38.05951" lon="15.6613633"><ele>43.0</ele><time>2026-04-04T14:33:26.58Z</time></trkpt><trkpt lat="38.0597917" lon="15.6614633"><ele>43.0</ele><time>2026-04-04T14:33:27.58Z</time></trkpt><trkpt lat="38.0600867" lon="15.66155"><ele>43.0</ele><time>2026-04-04T14:33:28.58Z</time></trkpt><trkpt lat="38.060335" lon="15.661655"><ele>43.0</ele><time>2026-04-04T14:33:29.581Z</time></trkpt><trkpt lat="38.0605683" lon="15.6617967"><ele>43.0</ele><time>2026-04-04T14:33:30.58Z</time></trkpt><trkpt lat="38.0608267" lon="15.661925"><ele>46.0</ele><time>2026-04-04T14:33:31.58Z</time></trkpt><trkpt lat="38.0610917" lon="15.6620133"><ele>49.0</ele><time>2026-04-04T14:33:32.581Z</time></trkpt><trkpt lat="38.0613533" lon="15.66211"><ele>49.0</ele><time>2026-04-04T14:33:33.58Z</time></trkpt><trkpt lat="38.0616" lon="15.6621983"><ele>49.0</ele><time>2026-04-04T14:33:34.58Z</time></trkpt><trkpt lat="38.0618383" lon="15.6622817"><ele>46.5</ele><time>2026-04-04T14:33:35.581Z</time></trkpt><trkpt lat="38.0620717" lon="15.6623383"><ele>44.0</ele><time>2026-04-04T14:33:36.58Z</time></trkpt><trkpt lat="38.0623083" lon="15.6623883"><ele>43.0</ele><time>2026-04-04T14:33:37.58Z</time></trkpt><trkpt lat="38.0625383" lon="15.6624167"><ele>42.0</ele><time>2026-04-04T14:33:38.58Z</time></trkpt><trkpt lat="38.06277" lon="15.662445"><ele>42.0</ele><time>2026-04-04T14:33:39.58Z</time></trkpt><trkpt lat="38.0630083" lon="15.662465"><ele>42.0</ele><time>2026-04-04T14:33:40.58Z</time></trkpt><trkpt lat="38.0632467" lon="15.6624883"><ele>40.0</ele><time>2026-04-04T14:33:41.58Z</time></trkpt><trkpt lat="38.06348" lon="15.66252"><ele>38.0</ele><time>2026-04-04T14:33:42.581Z</time></trkpt><trkpt lat="38.0637117" lon="15.6625383"><ele>38.0</ele><time>2026-04-04T14:33:43.58Z</time></trkpt><trkpt lat="38.0639483" lon="15.6625583"><ele>38.0</ele><time>2026-04-04T14:33:44.58Z</time></trkpt><trkpt lat="38.0641817" lon="15.662585"><ele>39.5</ele><time>2026-04-04T14:33:45.581Z</time></trkpt><trkpt lat="38.0644283" lon="15.6626083"><ele>41.0</ele><time>2026-04-04T14:33:46.581Z</time></trkpt><trkpt lat="38.064675" lon="15.662645"><ele>41.0</ele><time>2026-04-04T14:33:47.58Z</time></trkpt><trkpt lat="38.0649267" lon="15.6626817"><ele>41.0</ele><time>2026-04-04T14:33:48.58Z</time></trkpt><trkpt lat="38.065175" lon="15.6627183"><ele>40.5</ele><time>2026-04-04T14:33:49.58Z</time></trkpt><trkpt lat="38.0654233" lon="15.6627517"><ele>40.0</ele><time>2026-04-04T14:33:50.58Z</time></trkpt><trkpt lat="38.06567" lon="15.6627783"><ele>41.5</ele><time>2026-04-04T14:33:51.58Z</time></trkpt><trkpt lat="38.0659233" lon="15.6627983"><ele>43.0</ele><time>2026-04-04T14:33:52.58Z</time></trkpt><trkpt lat="38.06618" lon="15.6628217"><ele>43.0</ele><time>2026-04-04T14:33:53.58Z</time></trkpt><trkpt lat="38.0664233" lon="15.6628383"><ele>43.0</ele><time>2026-04-04T14:33:54.58Z</time></trkpt><trkpt lat="38.0666567" lon="15.662865"><ele>42.66666666666667</ele><time>2026-04-04T14:33:55.58Z</time></trkpt><trkpt lat="38.0668717" lon="15.6628983"><ele>42.333333333333336</ele><time>2026-04-04T14:33:56.58Z</time></trkpt><trkpt lat="38.06707" lon="15.6629333"><ele>42.0</ele><time>2026-04-04T14:33:57.58Z</time></trkpt><trkpt lat="38.0672733" lon="15.6629667"><ele>41.666666666666664</ele><time>2026-04-04T14:33:58.58Z</time></trkpt><trkpt lat="38.0674867" lon="15.66299"><ele>41.33333333333333</ele><time>2026-04-04T14:33:59.58Z</time></trkpt><trkpt lat="38.0677033" lon="15.6630183"><ele>41.0</ele><time>2026-04-04T14:34:00.58Z</time></trkpt><trkpt lat="38.067925" lon="15.66304"><ele>41.0</ele><time>2026-04-04T14:34:01.58Z</time></trkpt><trkpt lat="38.06814" lon="15.6630667"><ele>41.0</ele><time>2026-04-04T14:34:02.58Z</time></trkpt><trkpt lat="38.0683617" lon="15.6630917"><ele>41.0</ele><time>2026-04-04T14:34:03.581Z</time></trkpt><trkpt lat="38.06858" lon="15.6631183"><ele>40.0</ele><time>2026-04-04T14:34:04.581Z</time></trkpt><trkpt lat="38.0687967" lon="15.6631417"><ele>39.0</ele><time>2026-04-04T14:34:05.58Z</time></trkpt><trkpt lat="38.069005" lon="15.6631633"><ele>38.0</ele><time>2026-04-04T14:34:06.58Z</time></trkpt><trkpt lat="38.0691983" lon="15.663185"><ele>37.666666666666664</ele><time>2026-04-04T14:34:07.58Z</time></trkpt><trkpt lat="38.0693867" lon="15.6631967"><ele>37.333333333333336</ele><time>2026-04-04T14:34:08.58Z</time></trkpt><trkpt lat="38.0695733" lon="15.6632117"><ele>37.0</ele><time>2026-04-04T14:34:09.58Z</time></trkpt><trkpt lat="38.0697583" lon="15.663225"><ele>37.0</ele><time>2026-04-04T14:34:10.58Z</time></trkpt><trkpt lat="38.0699417" lon="15.6632333"><ele>37.0</ele><time>2026-04-04T14:34:11.58Z</time></trkpt><trkpt lat="38.0701183" lon="15.6632417"><ele>37.0</ele><time>2026-04-04T14:34:12.58Z</time></trkpt><trkpt lat="38.0703033" lon="15.663245"><ele>36.66666666666667</ele><time>2026-04-04T14:34:13.58Z</time></trkpt><trkpt lat="38.0704967" lon="15.6632467"><ele>36.333333333333336</ele><time>2026-04-04T14:34:14.58Z</time></trkpt><trkpt lat="38.0707" lon="15.66325"><ele>36.0</ele><time>2026-04-04T14:34:15.58Z</time></trkpt><trkpt lat="38.0709133" lon="15.6632417"><ele>36.0</ele><time>2026-04-04T14:34:16.58Z</time></trkpt><trkpt lat="38.0711367" lon="15.6632417"><ele>36.0</ele><time>2026-04-04T14:34:17.58Z</time></trkpt><trkpt lat="38.0713583" lon="15.6632317"><ele>36.0</ele><time>2026-04-04T14:34:18.58Z</time></trkpt><trkpt lat="38.07158" lon="15.6632317"><ele>34.5</ele><time>2026-04-04T14:34:19.58Z</time></trkpt><trkpt lat="38.0718067" lon="15.66324"><ele>33.0</ele><time>2026-04-04T14:34:20.58Z</time></trkpt><trkpt lat="38.07203" lon="15.663255"><ele>33.0</ele><time>2026-04-04T14:34:21.58Z</time></trkpt><trkpt lat="38.0722667" lon="15.66328"><ele>33.0</ele><time>2026-04-04T14:34:22.581Z</time></trkpt><trkpt lat="38.0725117" lon="15.6633217"><ele>33.0</ele><time>2026-04-04T14:34:23.58Z</time></trkpt><trkpt lat="38.0727533" lon="15.6633683"><ele>33.0</ele><time>2026-04-04T14:34:24.58Z</time></trkpt><trkpt lat="38.073" lon="15.6634367"><ele>33.0</ele><time>2026-04-04T14:34:25.58Z</time></trkpt><trkpt lat="38.0732517" lon="15.663515"><ele>33.0</ele><time>2026-04-04T14:34:26.58Z</time></trkpt><trkpt lat="38.0735017" lon="15.6636017"><ele>34.5</ele><time>2026-04-04T14:34:27.58Z</time></trkpt><trkpt lat="38.0737483" lon="15.6636933"><ele>36.0</ele><time>2026-04-04T14:34:28.58Z</time></trkpt><trkpt lat="38.074005" lon="15.6637817"><ele>36.0</ele><time>2026-04-04T14:34:29.581Z</time></trkpt><trkpt lat="38.0742567" lon="15.663875"><ele>36.0</ele><time>2026-04-04T14:34:30.58Z</time></trkpt><trkpt lat="38.074515" lon="15.6639583"><ele>36.0</ele><time>2026-04-04T14:34:31.58Z</time></trkpt><trkpt lat="38.07477" lon="15.6640517"><ele>36.0</ele><time>2026-04-04T14:34:32.581Z</time></trkpt><trkpt lat="38.07504" lon="15.66415"><ele>39.0</ele><time>2026-04-04T14:34:33.58Z</time></trkpt><trkpt lat="38.07532" lon="15.66424"><ele>42.0</ele><time>2026-04-04T14:34:34.58Z</time></trkpt><trkpt lat="38.0756183" lon="15.66432"><ele>44.0</ele><time>2026-04-04T14:34:35.58Z</time></trkpt><trkpt lat="38.0759217" lon="15.6643917"><ele>46.0</ele><time>2026-04-04T14:34:36.58Z</time></trkpt><trkpt lat="38.0762467" lon="15.6644567"><ele>46.0</ele><time>2026-04-04T14:34:37.581Z</time></trkpt><trkpt lat="38.07658" lon="15.6645067"><ele>46.0</ele><time>2026-04-04T14:34:38.58Z</time></trkpt><trkpt lat="38.0769233" lon="15.6645317"><ele>48.0</ele><time>2026-04-04T14:34:39.58Z</time></trkpt><trkpt lat="38.0772767" lon="15.6645433"><ele>50.0</ele><time>2026-04-04T14:34:40.58Z</time></trkpt><trkpt lat="38.0776383" lon="15.66454"><ele>54.5</ele><time>2026-04-04T14:34:41.58Z</time></trkpt><trkpt lat="38.0779967" lon="15.6645317"><ele>59.0</ele><time>2026-04-04T14:34:42.581Z</time></trkpt><trkpt lat="38.0783633" lon="15.6645183"><ele>61.5</ele><time>2026-04-04T14:34:43.58Z</time></trkpt><trkpt lat="38.078725" lon="15.6645"><ele>64.0</ele><time>2026-04-04T14:34:44.58Z</time></trkpt><trkpt lat="38.07906" lon="15.6644867"><ele>63.0</ele><time>2026-04-04T14:34:45.58Z</time></trkpt><trkpt lat="38.07938" lon="15.6644783"><ele>62.0</ele><time>2026-04-04T14:34:46.58Z</time></trkpt><trkpt lat="38.0796833" lon="15.66447"><ele>62.5</ele><time>2026-04-04T14:34:47.581Z</time></trkpt><trkpt lat="38.080005" lon="15.6644567"><ele>63.0</ele><time>2026-04-04T14:34:48.581Z</time></trkpt><trkpt lat="38.0803333" lon="15.664445"><ele>64.0</ele><time>2026-04-04T14:34:49.58Z</time></trkpt><trkpt lat="38.08067" lon="15.66443"><ele>65.0</ele><time>2026-04-04T14:34:50.58Z</time></trkpt><trkpt lat="38.0809967" lon="15.664415"><ele>67.0</ele><time>2026-04-04T14:34:51.58Z</time></trkpt><trkpt lat="38.08133" lon="15.6643983"><ele>69.0</ele><time>2026-04-04T14:34:52.58Z</time></trkpt><trkpt lat="38.0816717" lon="15.6643883"><ele>69.5</ele><time>2026-04-04T14:34:53.581Z</time></trkpt><trkpt lat="38.0820167" lon="15.664375"><ele>70.0</ele><time>2026-04-04T14:34:54.58Z</time></trkpt><trkpt lat="38.0823533" lon="15.664365"><ele>70.5</ele><time>2026-04-04T14:34:55.58Z</time></trkpt><trkpt lat="38.0827033" lon="15.664345"><ele>71.0</ele><time>2026-04-04T14:34:56.58Z</time></trkpt><trkpt lat="38.083055" lon="15.6643317"><ele>73.0</ele><time>2026-04-04T14:34:57.58Z</time></trkpt><trkpt lat="38.0833983" lon="15.664315"><ele>75.0</ele><time>2026-04-04T14:34:58.58Z</time></trkpt><trkpt lat="38.083725" lon="15.6643017"><ele>75.0</ele><time>2026-04-04T14:34:59.581Z</time></trkpt><trkpt lat="38.0840267" lon="15.6643"><ele>75.0</ele><time>2026-04-04T14:35:00.58Z</time></trkpt><trkpt lat="38.0843117" lon="15.6642783"><ele>76.5</ele><time>2026-04-04T14:35:01.58Z</time></trkpt><trkpt lat="38.0845833" lon="15.6642383"><ele>78.0</ele><time>2026-04-04T14:35:02.58Z</time></trkpt><trkpt lat="38.08484" lon="15.6641733"><ele>79.5</ele><time>2026-04-04T14:35:03.581Z</time></trkpt><trkpt lat="38.085105" lon="15.664085"><ele>81.0</ele><time>2026-04-04T14:35:04.58Z</time></trkpt><trkpt lat="38.0853433" lon="15.6639933"><ele>81.0</ele><time>2026-04-04T14:35:05.581Z</time></trkpt><trkpt lat="38.0855983" lon="15.6638617"><ele>81.0</ele><time>2026-04-04T14:35:06.581Z</time></trkpt><trkpt lat="38.085875" lon="15.663715"><ele>76.5</ele><time>2026-04-04T14:35:07.58Z</time></trkpt><trkpt lat="38.0861583" lon="15.663545"><ele>72.0</ele><time>2026-04-04T14:35:08.58Z</time></trkpt><trkpt lat="38.086415" lon="15.663375"><ele>71.5</ele><time>2026-04-04T14:35:09.58Z</time></trkpt><trkpt lat="38.0866833" lon="15.6631933"><ele>71.0</ele><time>2026-04-04T14:35:10.581Z</time></trkpt><trkpt lat="38.0869633" lon="15.66301"><ele>71.0</ele><time>2026-04-04T14:35:11.58Z</time></trkpt><trkpt lat="38.0872567" lon="15.6628267"><ele>71.0</ele><time>2026-04-04T14:35:12.58Z</time></trkpt><trkpt lat="38.08756" lon="15.6626383"><ele>70.5</ele><time>2026-04-04T14:35:13.58Z</time></trkpt><trkpt lat="38.0878783" lon="15.662435"><ele>70.0</ele><time>2026-04-04T14:35:14.581Z</time></trkpt><trkpt lat="38.0881883" lon="15.6622383"><ele>71.0</ele><time>2026-04-04T14:35:15.58Z</time></trkpt><trkpt lat="38.0884917" lon="15.6620417"><ele>72.0</ele><time>2026-04-04T14:35:16.58Z</time></trkpt><trkpt lat="38.0887733" lon="15.66186"><ele>72.0</ele><time>2026-04-04T14:35:17.58Z</time></trkpt><trkpt lat="38.0890417" lon="15.6616867"><ele>72.0</ele><time>2026-04-04T14:35:18.58Z</time></trkpt><trkpt lat="38.0893067" lon="15.6615233"><ele>75.0</ele><time>2026-04-04T14:35:19.58Z</time></trkpt><trkpt lat="38.0895883" lon="15.661345"><ele>78.0</ele><time>2026-04-04T14:35:20.58Z</time></trkpt><trkpt lat="38.08988" lon="15.6611617"><ele>78.0</ele><time>2026-04-04T14:35:21.58Z</time></trkpt><trkpt lat="38.09018" lon="15.6609667"><ele>78.0</ele><time>2026-04-04T14:35:22.58Z</time></trkpt><trkpt lat="38.09049" lon="15.6607717"><ele>80.5</ele><time>2026-04-04T14:35:23.58Z</time></trkpt><trkpt lat="38.0908033" lon="15.6605733"><ele>83.0</ele><time>2026-04-04T14:35:24.58Z</time></trkpt><trkpt lat="38.0911267" lon="15.66037"><ele>83.0</ele><time>2026-04-04T14:35:25.58Z</time></trkpt><trkpt lat="38.0914533" lon="15.660185"><ele>83.0</ele><time>2026-04-04T14:35:26.58Z</time></trkpt><trkpt lat="38.0917883" lon="15.6600117"><ele>89.0</ele><time>2026-04-04T14:35:27.581Z</time></trkpt><trkpt lat="38.0921233" lon="15.659855"><ele>95.0</ele><time>2026-04-04T14:35:28.581Z</time></trkpt><trkpt lat="38.0924617" lon="15.6597217"><ele>96.5</ele><time>2026-04-04T14:35:29.581Z</time></trkpt><trkpt lat="38.0928067" lon="15.6596017"><ele>98.0</ele><time>2026-04-04T14:35:30.58Z</time></trkpt><trkpt lat="38.0931617" lon="15.659485"><ele>98.5</ele><time>2026-04-04T14:35:31.581Z</time></trkpt><trkpt lat="38.0935183" lon="15.659365"><ele>99.0</ele><time>2026-04-04T14:35:32.58Z</time></trkpt><trkpt lat="38.0938517" lon="15.6592633"><ele>99.5</ele><time>2026-04-04T14:35:33.58Z</time></trkpt><trkpt lat="38.0941633" lon="15.65916"><ele>100.0</ele><time>2026-04-04T14:35:34.58Z</time></trkpt><trkpt lat="38.0944667" lon="15.6590733"><ele>100.0</ele><time>2026-04-04T14:35:35.581Z</time></trkpt><trkpt lat="38.0947683" lon="15.65901"><ele>100.0</ele><time>2026-04-04T14:35:36.581Z</time></trkpt><trkpt lat="38.0950817" lon="15.6589767"><ele>101.0</ele><time>2026-04-04T14:35:37.58Z</time></trkpt><trkpt lat="38.0954133" lon="15.6589667"><ele>102.0</ele><time>2026-04-04T14:35:38.58Z</time></trkpt><trkpt lat="38.0957433" lon="15.658985"><ele>100.5</ele><time>2026-04-04T14:35:39.58Z</time></trkpt><trkpt lat="38.09607" lon="15.6590383"><ele>99.0</ele><time>2026-04-04T14:35:40.58Z</time></trkpt><trkpt lat="38.09641" lon="15.65912"><ele>97.5</ele><time>2026-04-04T14:35:41.58Z</time></trkpt><trkpt lat="38.0967467" lon="15.6592067"><ele>96.0</ele><time>2026-04-04T14:35:42.58Z</time></trkpt><trkpt lat="38.0970783" lon="15.6592883"><ele>96.0</ele><time>2026-04-04T14:35:43.58Z</time></trkpt><trkpt lat="38.0973983" lon="15.65938"><ele>96.0</ele><time>2026-04-04T14:35:44.58Z</time></trkpt><trkpt lat="38.097705" lon="15.6594617"><ele>97.5</ele><time>2026-04-04T14:35:45.58Z</time></trkpt><trkpt lat="38.098" lon="15.6595267"><ele>99.0</ele><time>2026-04-04T14:35:46.58Z</time></trkpt><trkpt lat="38.098285" lon="15.6595783"><ele>93.0</ele><time>2026-04-04T14:35:47.58Z</time></trkpt><trkpt lat="38.0985617" lon="15.659615"><ele>87.0</ele><time>2026-04-04T14:35:48.58Z</time></trkpt><trkpt lat="38.09884" lon="15.6596333"><ele>83.5</ele><time>2026-04-04T14:35:49.58Z</time></trkpt><trkpt lat="38.0991167" lon="15.6596417"><ele>80.0</ele><time>2026-04-04T14:35:50.581Z</time></trkpt><trkpt lat="38.0993983" lon="15.6596417"><ele>80.0</ele><time>2026-04-04T14:35:51.581Z</time></trkpt><trkpt lat="38.0996833" lon="15.659635"><ele>80.0</ele><time>2026-04-04T14:35:52.58Z</time></trkpt><trkpt lat="38.0999783" lon="15.65963"><ele>75.0</ele><time>2026-04-04T14:35:53.58Z</time></trkpt><trkpt lat="38.100275" lon="15.65963"><ele>70.0</ele><time>2026-04-04T14:35:54.58Z</time></trkpt><trkpt lat="38.1005667" lon="15.6596267"><ele>68.0</ele><time>2026-04-04T14:35:55.581Z</time></trkpt><trkpt lat="38.100865" lon="15.6596217"><ele>66.0</ele><time>2026-04-04T14:35:56.58Z</time></trkpt><trkpt lat="38.1011667" lon="15.6596233"><ele>66.0</ele><time>2026-04-04T14:35:57.58Z</time></trkpt><trkpt lat="38.1014783" lon="15.659625"><ele>66.0</ele><time>2026-04-04T14:35:58.58Z</time></trkpt><trkpt lat="38.10179" lon="15.6596183"><ele>65.5</ele><time>2026-04-04T14:35:59.58Z</time></trkpt><trkpt lat="38.1021017" lon="15.6596167"><ele>65.0</ele><time>2026-04-04T14:36:00.58Z</time></trkpt><trkpt lat="38.10243" lon="15.65962"><ele>64.0</ele><time>2026-04-04T14:36:01.58Z</time></trkpt><trkpt lat="38.1027567" lon="15.6596233"><ele>63.0</ele><time>2026-04-04T14:36:02.58Z</time></trkpt><trkpt lat="38.103065" lon="15.6596333"><ele>64.5</ele><time>2026-04-04T14:36:03.58Z</time></trkpt><trkpt lat="38.1033683" lon="15.6596367"><ele>66.0</ele><time>2026-04-04T14:36:04.581Z</time></trkpt><trkpt lat="38.1036633" lon="15.6596467"><ele>66.0</ele><time>2026-04-04T14:36:05.58Z</time></trkpt><trkpt lat="38.1039517" lon="15.65965"><ele>66.0</ele><time>2026-04-04T14:36:06.581Z</time></trkpt><trkpt lat="38.10423" lon="15.6596467"><ele>70.0</ele><time>2026-04-04T14:36:07.58Z</time></trkpt><trkpt lat="38.1045" lon="15.6596517"><ele>74.0</ele><time>2026-04-04T14:36:08.58Z</time></trkpt><trkpt lat="38.1047667" lon="15.659665"><ele>79.5</ele><time>2026-04-04T14:36:09.58Z</time></trkpt><trkpt lat="38.1050467" lon="15.6596867"><ele>85.0</ele><time>2026-04-04T14:36:10.58Z</time></trkpt><trkpt lat="38.105335" lon="15.6597483"><ele>85.0</ele><time>2026-04-04T14:36:11.58Z</time></trkpt><trkpt lat="38.1056417" lon="15.6598333"><ele>85.0</ele><time>2026-04-04T14:36:12.58Z</time></trkpt><trkpt lat="38.1059583" lon="15.6599283"><ele>93.5</ele><time>2026-04-04T14:36:13.58Z</time></trkpt><trkpt lat="38.106285" lon="15.6600233"><ele>102.0</ele><time>2026-04-04T14:36:14.58Z</time></trkpt><trkpt lat="38.1066083" lon="15.6601233"><ele>110.0</ele><time>2026-04-04T14:36:15.581Z</time></trkpt><trkpt lat="38.1069317" lon="15.6602217"><ele>118.0</ele><time>2026-04-04T14:36:16.581Z</time></trkpt><trkpt lat="38.107255" lon="15.6603217"><ele>115.0</ele><time>2026-04-04T14:36:17.58Z</time></trkpt><trkpt lat="38.10758" lon="15.6604217"><ele>112.0</ele><time>2026-04-04T14:36:18.58Z</time></trkpt><trkpt lat="38.10978" lon="15.6610667"><ele>113.5</ele><time>2026-04-04T14:36:25.579Z</time></trkpt><trkpt lat="38.110035" lon="15.6611483"><ele>115.0</ele><time>2026-04-04T14:36:26.58Z</time></trkpt><trkpt lat="38.1102817" lon="15.6612217"><ele>115.0</ele><time>2026-04-04T14:36:27.58Z</time></trkpt><trkpt lat="38.1105233" lon="15.6613"><ele>115.0</ele><time>2026-04-04T14:36:28.579Z</time></trkpt><trkpt lat="38.1107617" lon="15.6613817"><ele>112.5</ele><time>2026-04-04T14:36:29.579Z</time></trkpt><trkpt lat="38.1110033" lon="15.66145"><ele>110.0</ele><time>2026-04-04T14:36:30.579Z</time></trkpt><trkpt lat="38.1112367" lon="15.6615117"><ele>110.0</ele><time>2026-04-04T14:36:31.58Z</time></trkpt><trkpt lat="38.1114583" lon="15.66158"><ele>110.0</ele><time>2026-04-04T14:36:32.58Z</time></trkpt><trkpt lat="38.1116817" lon="15.6616433"><ele>107.5</ele><time>2026-04-04T14:36:33.579Z</time></trkpt><trkpt lat="38.1119" lon="15.66171"><ele>105.0</ele><time>2026-04-04T14:36:34.579Z</time></trkpt><trkpt lat="38.1121183" lon="15.661785"><ele>105.0</ele><time>2026-04-04T14:36:35.58Z</time></trkpt><trkpt lat="38.11234" lon="15.661855"><ele>105.0</ele><time>2026-04-04T14:36:36.58Z</time></trkpt><trkpt lat="38.1125633" lon="15.6619233"><ele>100.0</ele><time>2026-04-04T14:36:37.579Z</time></trkpt><trkpt lat="38.1127833" lon="15.6619867"><ele>95.0</ele><time>2026-04-04T14:36:38.58Z</time></trkpt><trkpt lat="38.1130133" lon="15.6620467"><ele>95.0</ele><time>2026-04-04T14:36:39.579Z</time></trkpt><trkpt lat="38.1132383" lon="15.6621067"><ele>95.0</ele><time>2026-04-04T14:36:40.58Z</time></trkpt><trkpt lat="38.11347" lon="15.6621683"><ele>94.5</ele><time>2026-04-04T14:36:41.579Z</time></trkpt><trkpt lat="38.1137033" lon="15.66223"><ele>94.0</ele><time>2026-04-04T14:36:42.579Z</time></trkpt><trkpt lat="38.113935" lon="15.66228"><ele>93.5</ele><time>2026-04-04T14:36:43.579Z</time></trkpt><trkpt lat="38.1141733" lon="15.6623183"><ele>93.0</ele><time>2026-04-04T14:36:44.579Z</time></trkpt><trkpt lat="38.11444" lon="15.662375"><ele>93.0</ele><time>2026-04-04T14:36:45.579Z</time></trkpt><trkpt lat="38.1147167" lon="15.66243"><ele>93.0</ele><time>2026-04-04T14:36:46.579Z</time></trkpt><trkpt lat="38.1150083" lon="15.6624967"><ele>88.5</ele><time>2026-04-04T14:36:47.579Z</time></trkpt><trkpt lat="38.1153083" lon="15.6625583"><ele>84.0</ele><time>2026-04-04T14:36:48.579Z</time></trkpt><trkpt lat="38.1156083" lon="15.66262"><ele>85.5</ele><time>2026-04-04T14:36:49.579Z</time></trkpt><trkpt lat="38.1159217" lon="15.6626917"><ele>87.0</ele><time>2026-04-04T14:36:50.58Z</time></trkpt><trkpt lat="38.1162367" lon="15.6627433"><ele>87.0</ele><time>2026-04-04T14:36:51.579Z</time></trkpt><trkpt lat="38.1165683" lon="15.6627667"><ele>87.0</ele><time>2026-04-04T14:36:52.579Z</time></trkpt><trkpt lat="38.1168983" lon="15.6627667"><ele>87.0</ele><time>2026-04-04T14:36:53.579Z</time></trkpt><trkpt lat="38.1172133" lon="15.6627533"><ele>87.0</ele><time>2026-04-04T14:36:54.579Z</time></trkpt><trkpt lat="38.1175133" lon="15.6627267"><ele>86.0</ele><time>2026-04-04T14:36:55.579Z</time></trkpt><trkpt lat="38.1178033" lon="15.6626983"><ele>85.0</ele><time>2026-04-04T14:36:56.579Z</time></trkpt><trkpt lat="38.1180833" lon="15.6626767"><ele>86.0</ele><time>2026-04-04T14:36:57.579Z</time></trkpt><trkpt lat="38.1183583" lon="15.6626583"><ele>87.0</ele><time>2026-04-04T14:36:58.579Z</time></trkpt><trkpt lat="38.118625" lon="15.66265"><ele>87.0</ele><time>2026-04-04T14:36:59.58Z</time></trkpt><trkpt lat="38.118885" lon="15.662655"><ele>87.0</ele><time>2026-04-04T14:37:00.579Z</time></trkpt><trkpt lat="38.11914" lon="15.6626833"><ele>86.0</ele><time>2026-04-04T14:37:01.579Z</time></trkpt><trkpt lat="38.11939" lon="15.6627233"><ele>85.0</ele><time>2026-04-04T14:37:02.579Z</time></trkpt><trkpt lat="38.119635" lon="15.6627767"><ele>87.5</ele><time>2026-04-04T14:37:03.579Z</time></trkpt><trkpt lat="38.1198717" lon="15.662845"><ele>90.0</ele><time>2026-04-04T14:37:04.579Z</time></trkpt><trkpt lat="38.12011" lon="15.66293"><ele>92.5</ele><time>2026-04-04T14:37:05.579Z</time></trkpt><trkpt lat="38.1203467" lon="15.663025"><ele>95.0</ele><time>2026-04-04T14:37:06.579Z</time></trkpt><trkpt lat="38.1205767" lon="15.6631367"><ele>95.5</ele><time>2026-04-04T14:37:07.579Z</time></trkpt><trkpt lat="38.120805" lon="15.6632517"><ele>96.0</ele><time>2026-04-04T14:37:08.579Z</time></trkpt><trkpt lat="38.1210317" lon="15.66337"><ele>96.0</ele><time>2026-04-04T14:37:09.58Z</time></trkpt><trkpt lat="38.1212667" lon="15.663495"><ele>96.0</ele><time>2026-04-04T14:37:10.579Z</time></trkpt><trkpt lat="38.1215067" lon="15.6636233"><ele>86.0</ele><time>2026-04-04T14:37:11.58Z</time></trkpt><trkpt lat="38.1217633" lon="15.6637417"><ele>76.0</ele><time>2026-04-04T14:37:12.579Z</time></trkpt><trkpt lat="38.1220333" lon="15.6638467"><ele>76.0</ele><time>2026-04-04T14:37:13.579Z</time></trkpt><trkpt lat="38.1223333" lon="15.6639217"><ele>76.0</ele><time>2026-04-04T14:37:14.579Z</time></trkpt><trkpt lat="38.1226383" lon="15.6639517"><ele>68.5</ele><time>2026-04-04T14:37:15.579Z</time></trkpt><trkpt lat="38.1229417" lon="15.66395"><ele>61.0</ele><time>2026-04-04T14:37:16.579Z</time></trkpt><trkpt lat="38.1232383" lon="15.6639067"><ele>61.0</ele><time>2026-04-04T14:37:17.58Z</time></trkpt><trkpt lat="38.1235317" lon="15.663835"><ele>61.0</ele><time>2026-04-04T14:37:18.579Z</time></trkpt><trkpt lat="38.1238283" lon="15.663725"><ele>67.5</ele><time>2026-04-04T14:37:19.58Z</time></trkpt><trkpt lat="38.12411" lon="15.663585"><ele>74.0</ele><time>2026-04-04T14:37:20.579Z</time></trkpt><trkpt lat="38.1243817" lon="15.66342"><ele>74.0</ele><time>2026-04-04T14:37:21.579Z</time></trkpt><trkpt lat="38.124635" lon="15.6632133"><ele>74.0</ele><time>2026-04-04T14:37:22.579Z</time></trkpt><trkpt lat="38.1248783" lon="15.66297"><ele>74.0</ele><time>2026-04-04T14:37:23.579Z</time></trkpt><trkpt lat="38.1251033" lon="15.66268"><ele>74.0</ele><time>2026-04-04T14:37:24.579Z</time></trkpt><trkpt lat="38.12532" lon="15.66236"><ele>74.0</ele><time>2026-04-04T14:37:25.579Z</time></trkpt><trkpt lat="38.1255233" lon="15.662015"><ele>74.0</ele><time>2026-04-04T14:37:26.579Z</time></trkpt><trkpt lat="38.12573" lon="15.6616483"><ele>73.0</ele><time>2026-04-04T14:37:27.579Z</time></trkpt><trkpt lat="38.1259583" lon="15.6613133"><ele>72.0</ele><time>2026-04-04T14:37:28.579Z</time></trkpt><trkpt lat="38.1262183" lon="15.6610017"><ele>72.0</ele><time>2026-04-04T14:37:29.579Z</time></trkpt><trkpt lat="38.1264967" lon="15.660725"><ele>72.0</ele><time>2026-04-04T14:37:30.579Z</time></trkpt><trkpt lat="38.1267933" lon="15.6604883"><ele>70.5</ele><time>2026-04-04T14:37:31.579Z</time></trkpt><trkpt lat="38.1271117" lon="15.6602633"><ele>69.0</ele><time>2026-04-04T14:37:32.579Z</time></trkpt><trkpt lat="38.127445" lon="15.660055"><ele>75.5</ele><time>2026-04-04T14:37:33.579Z</time></trkpt><trkpt lat="38.1277867" lon="15.6598567"><ele>82.0</ele><time>2026-04-04T14:37:34.579Z</time></trkpt><trkpt lat="38.12812" lon="15.65966"><ele>85.0</ele><time>2026-04-04T14:37:35.579Z</time></trkpt><trkpt lat="38.12843" lon="15.659465"><ele>88.0</ele><time>2026-04-04T14:37:36.579Z</time></trkpt><trkpt lat="38.128735" lon="15.6592767"><ele>84.5</ele><time>2026-04-04T14:37:37.579Z</time></trkpt><trkpt lat="38.12902" lon="15.6590983"><ele>81.0</ele><time>2026-04-04T14:37:38.58Z</time></trkpt><trkpt lat="38.12928" lon="15.6589217"><ele>81.0</ele><time>2026-04-04T14:37:39.579Z</time></trkpt><trkpt lat="38.1295283" lon="15.6587383"><ele>81.0</ele><time>2026-04-04T14:37:40.579Z</time></trkpt><trkpt lat="38.129785" lon="15.6585667"><ele>77.0</ele><time>2026-04-04T14:37:41.58Z</time></trkpt><trkpt lat="38.13003" lon="15.658415"><ele>73.0</ele><time>2026-04-04T14:37:42.579Z</time></trkpt><trkpt lat="38.1302567" lon="15.6582717"><ele>73.0</ele><time>2026-04-04T14:37:43.579Z</time></trkpt><trkpt lat="38.1304883" lon="15.6581367"><ele>73.0</ele><time>2026-04-04T14:37:44.579Z</time></trkpt><trkpt lat="38.1307117" lon="15.6580183"><ele>74.0</ele><time>2026-04-04T14:37:45.579Z</time></trkpt><trkpt lat="38.1309367" lon="15.657935"><ele>75.0</ele><time>2026-04-04T14:37:46.58Z</time></trkpt><trkpt lat="38.1311633" lon="15.65788"><ele>75.0</ele><time>2026-04-04T14:37:47.579Z</time></trkpt><trkpt lat="38.1313833" lon="15.6578633"><ele>75.0</ele><time>2026-04-04T14:37:48.579Z</time></trkpt><trkpt lat="38.131605" lon="15.657865"><ele>75.0</ele><time>2026-04-04T14:37:49.58Z</time></trkpt><trkpt lat="38.131835" lon="15.6578667"><ele>74.5</ele><time>2026-04-04T14:37:50.579Z</time></trkpt><trkpt lat="38.1320683" lon="15.6578867"><ele>74.0</ele><time>2026-04-04T14:37:51.579Z</time></trkpt><trkpt lat="38.1323017" lon="15.6578983"><ele>71.33333333333334</ele><time>2026-04-04T14:37:52.579Z</time></trkpt><trkpt lat="38.1325133" lon="15.6579033"><ele>68.66666666666667</ele><time>2026-04-04T14:37:53.579Z</time></trkpt><trkpt lat="38.1327217" lon="15.6579083"><ele>66.0</ele><time>2026-04-04T14:37:54.579Z</time></trkpt><trkpt lat="38.13294" lon="15.6579433"><ele>66.0</ele><time>2026-04-04T14:37:55.579Z</time></trkpt><trkpt lat="38.13317" lon="15.6580183"><ele>66.0</ele><time>2026-04-04T14:37:56.579Z</time></trkpt><trkpt lat="38.1334083" lon="15.6581317"><ele>63.0</ele><time>2026-04-04T14:37:57.579Z</time></trkpt><trkpt lat="38.13366" lon="15.6582583"><ele>60.0</ele><time>2026-04-04T14:37:58.579Z</time></trkpt><trkpt lat="38.13392" lon="15.6583983"><ele>51.5</ele><time>2026-04-04T14:37:59.579Z</time></trkpt><trkpt lat="38.1341833" lon="15.6585533"><ele>43.0</ele><time>2026-04-04T14:38:00.579Z</time></trkpt><trkpt lat="38.1344667" lon="15.6587117"><ele>43.0</ele><time>2026-04-04T14:38:01.579Z</time></trkpt><trkpt lat="38.1347633" lon="15.6588683"><ele>43.0</ele><time>2026-04-04T14:38:02.579Z</time></trkpt><trkpt lat="38.1350683" lon="15.6590367"><ele>46.5</ele><time>2026-04-04T14:38:03.579Z</time></trkpt><trkpt lat="38.13537" lon="15.6591983"><ele>50.0</ele><time>2026-04-04T14:38:04.579Z</time></trkpt><trkpt lat="38.135675" lon="15.6593517"><ele>73.5</ele><time>2026-04-04T14:38:05.579Z</time></trkpt><trkpt lat="38.13599" lon="15.659515"><ele>97.0</ele><time>2026-04-04T14:38:06.58Z</time></trkpt><trkpt lat="38.1362983" lon="15.6596633"><ele>82.5</ele><time>2026-04-04T14:38:07.58Z</time></trkpt><trkpt lat="38.1366417" lon="15.6598483"><ele>68.0</ele><time>2026-04-04T14:38:08.579Z</time></trkpt><trkpt lat="38.1369783" lon="15.660015"><ele>68.0</ele><time>2026-04-04T14:38:09.579Z</time></trkpt><trkpt lat="38.1373183" lon="15.6601917"><ele>68.0</ele><time>2026-04-04T14:38:10.579Z</time></trkpt><trkpt lat="38.1376283" lon="15.6603667"><ele>73.5</ele><time>2026-04-04T14:38:11.58Z</time></trkpt><trkpt lat="38.1379133" lon="15.66052"><ele>79.0</ele><time>2026-04-04T14:38:12.579Z</time></trkpt><trkpt lat="38.1381767" lon="15.6606533"><ele>72.5</ele><time>2026-04-04T14:38:13.579Z</time></trkpt><trkpt lat="38.13842" lon="15.66079"><ele>66.0</ele><time>2026-04-04T14:38:14.579Z</time></trkpt><trkpt lat="38.1386583" lon="15.66092"><ele>66.0</ele><time>2026-04-04T14:38:15.579Z</time></trkpt><trkpt lat="38.1389017" lon="15.661045"><ele>66.0</ele><time>2026-04-04T14:38:16.579Z</time></trkpt><trkpt lat="38.1391367" lon="15.661175"><ele>68.0</ele><time>2026-04-04T14:38:17.579Z</time></trkpt><trkpt lat="38.13939" lon="15.66131"><ele>70.0</ele><time>2026-04-04T14:38:18.579Z</time></trkpt><trkpt lat="38.1396617" lon="15.6614617"><ele>72.0</ele><time>2026-04-04T14:38:19.579Z</time></trkpt><trkpt lat="38.1399433" lon="15.661625"><ele>74.0</ele><time>2026-04-04T14:38:20.579Z</time></trkpt><trkpt lat="38.1402417" lon="15.6617867"><ele>74.5</ele><time>2026-04-04T14:38:21.579Z</time></trkpt><trkpt lat="38.1405467" lon="15.66195"><ele>75.0</ele><time>2026-04-04T14:38:22.579Z</time></trkpt><trkpt lat="38.140855" lon="15.6621283"><ele>75.0</ele><time>2026-04-04T14:38:23.579Z</time></trkpt><trkpt lat="38.1411483" lon="15.6623383"><ele>75.0</ele><time>2026-04-04T14:38:24.579Z</time></trkpt><trkpt lat="38.14144" lon="15.662575"><ele>79.5</ele><time>2026-04-04T14:38:25.579Z</time></trkpt><trkpt lat="38.1417283" lon="15.662825"><ele>84.0</ele><time>2026-04-04T14:38:26.579Z</time></trkpt><trkpt lat="38.1420033" lon="15.6631117"><ele>84.0</ele><time>2026-04-04T14:38:27.58Z</time></trkpt><trkpt lat="38.1422667" lon="15.66341"><ele>84.0</ele><time>2026-04-04T14:38:28.579Z</time></trkpt><trkpt lat="38.14252" lon="15.6637283"><ele>82.0</ele><time>2026-04-04T14:38:29.58Z</time></trkpt><trkpt lat="38.1427633" lon="15.6640583"><ele>80.0</ele><time>2026-04-04T14:38:30.579Z</time></trkpt><trkpt lat="38.1429967" lon="15.664405"><ele>72.5</ele><time>2026-04-04T14:38:31.579Z</time></trkpt><trkpt lat="38.1432167" lon="15.66477"><ele>65.0</ele><time>2026-04-04T14:38:32.579Z</time></trkpt><trkpt lat="38.14343" lon="15.6651383"><ele>62.5</ele><time>2026-04-04T14:38:33.579Z</time></trkpt><trkpt lat="38.1436417" lon="15.6655067"><ele>60.0</ele><time>2026-04-04T14:38:34.579Z</time></trkpt><trkpt lat="38.1438417" lon="15.66587"><ele>58.0</ele><time>2026-04-04T14:38:35.58Z</time></trkpt><trkpt lat="38.1440467" lon="15.6662183"><ele>56.0</ele><time>2026-04-04T14:38:36.58Z</time></trkpt><trkpt lat="38.1442567" lon="15.66653"><ele>61.5</ele><time>2026-04-04T14:38:37.579Z</time></trkpt><trkpt lat="38.1444783" lon="15.6667983"><ele>67.0</ele><time>2026-04-04T14:38:38.58Z</time></trkpt><trkpt lat="38.1447167" lon="15.6670417"><ele>77.5</ele><time>2026-04-04T14:38:39.579Z</time></trkpt><trkpt lat="38.1449683" lon="15.6672617"><ele>88.0</ele><time>2026-04-04T14:38:40.579Z</time></trkpt><trkpt lat="38.1452367" lon="15.6674483"><ele>88.0</ele><time>2026-04-04T14:38:41.579Z</time></trkpt><trkpt lat="38.145515" lon="15.6676017"><ele>88.0</ele><time>2026-04-04T14:38:42.579Z</time></trkpt><trkpt lat="38.1458167" lon="15.6677317"><ele>101.0</ele><time>2026-04-04T14:38:43.579Z</time></trkpt><trkpt lat="38.1461083" lon="15.667875"><ele>114.0</ele><time>2026-04-04T14:38:44.579Z</time></trkpt><trkpt lat="38.14639" lon="15.6680117"><ele>111.5</ele><time>2026-04-04T14:38:45.579Z</time></trkpt><trkpt lat="38.1466783" lon="15.668145"><ele>109.0</ele><time>2026-04-04T14:38:46.579Z</time></trkpt><trkpt lat="38.1469667" lon="15.6682767"><ele>109.0</ele><time>2026-04-04T14:38:47.579Z</time></trkpt><trkpt lat="38.1472583" lon="15.6683667"><ele>109.0</ele><time>2026-04-04T14:38:48.579Z</time></trkpt><trkpt lat="38.147715" lon="15.6681983"><ele>103.5</ele><time>2026-04-04T14:38:49.579Z</time></trkpt><trkpt lat="38.1481133" lon="15.6681583"><ele>98.0</ele><time>2026-04-04T14:38:50.579Z</time></trkpt><trkpt lat="38.1485" lon="15.66818"><ele>94.5</ele><time>2026-04-04T14:38:51.579Z</time></trkpt><trkpt lat="38.148885" lon="15.6682067"><ele>91.0</ele><time>2026-04-04T14:38:52.579Z</time></trkpt><trkpt lat="38.1492717" lon="15.6682367"><ele>88.0</ele><time>2026-04-04T14:38:53.58Z</time></trkpt><trkpt lat="38.1496567" lon="15.6682867"><ele>85.0</ele><time>2026-04-04T14:38:54.58Z</time></trkpt><trkpt lat="38.150035" lon="15.6683283"><ele>81.0</ele><time>2026-04-04T14:38:55.579Z</time></trkpt><trkpt lat="38.1504233" lon="15.6683583"><ele>77.0</ele><time>2026-04-04T14:38:56.579Z</time></trkpt><trkpt lat="38.1508167" lon="15.6683833"><ele>77.0</ele><time>2026-04-04T14:38:57.579Z</time></trkpt><trkpt lat="38.1512033" lon="15.6683767"><ele>77.0</ele><time>2026-04-04T14:38:58.579Z</time></trkpt><trkpt lat="38.1515967" lon="15.6683383"><ele>77.0</ele><time>2026-04-04T14:38:59.58Z</time></trkpt><trkpt lat="38.1519967" lon="15.6682667"><ele>77.0</ele><time>2026-04-04T14:39:00.58Z</time></trkpt><trkpt lat="38.1523867" lon="15.6681717"><ele>77.5</ele><time>2026-04-04T14:39:01.579Z</time></trkpt><trkpt lat="38.1527767" lon="15.668055"><ele>78.0</ele><time>2026-04-04T14:39:02.579Z</time></trkpt><trkpt lat="38.15316" lon="15.66793"><ele>78.0</ele><time>2026-04-04T14:39:03.579Z</time></trkpt><trkpt lat="38.1535483" lon="15.6677883"><ele>78.0</ele><time>2026-04-04T14:39:04.579Z</time></trkpt><trkpt lat="38.15394" lon="15.6676467"><ele>70.5</ele><time>2026-04-04T14:39:05.579Z</time></trkpt><trkpt lat="38.1543367" lon="15.6675183"><ele>63.0</ele><time>2026-04-04T14:39:06.579Z</time></trkpt><trkpt lat="38.15474" lon="15.6673933"><ele>64.0</ele><time>2026-04-04T14:39:07.58Z</time></trkpt><trkpt lat="38.1551483" lon="15.6672617"><ele>65.0</ele><time>2026-04-04T14:39:08.579Z</time></trkpt><trkpt lat="38.1555633" lon="15.66713"><ele>63.0</ele><time>2026-04-04T14:39:09.579Z</time></trkpt><trkpt lat="38.155955" lon="15.667"><ele>61.0</ele><time>2026-04-04T14:39:10.579Z</time></trkpt><trkpt lat="38.1563267" lon="15.6668767"><ele>59.5</ele><time>2026-04-04T14:39:11.579Z</time></trkpt><trkpt lat="38.156685" lon="15.6667517"><ele>58.0</ele><time>2026-04-04T14:39:12.579Z</time></trkpt><trkpt lat="38.1570233" lon="15.6666267"><ele>58.0</ele><time>2026-04-04T14:39:13.579Z</time></trkpt><trkpt lat="38.157345" lon="15.6664917"><ele>58.0</ele><time>2026-04-04T14:39:14.579Z</time></trkpt><trkpt lat="38.15765" lon="15.6663483"><ele>58.5</ele><time>2026-04-04T14:39:15.58Z</time></trkpt><trkpt lat="38.15793" lon="15.666195"><ele>59.0</ele><time>2026-04-04T14:39:16.579Z</time></trkpt><trkpt lat="38.1581983" lon="15.6660267"><ele>57.0</ele><time>2026-04-04T14:39:17.58Z</time></trkpt><trkpt lat="38.1584467" lon="15.66584"><ele>55.0</ele><time>2026-04-04T14:39:18.579Z</time></trkpt><trkpt lat="38.1586867" lon="15.6656367"><ele>55.0</ele><time>2026-04-04T14:39:19.579Z</time></trkpt><trkpt lat="38.1589417" lon="15.6654117"><ele>55.0</ele><time>2026-04-04T14:39:20.579Z</time></trkpt><trkpt lat="38.1592117" lon="15.66516"><ele>53.5</ele><time>2026-04-04T14:39:21.579Z</time></trkpt><trkpt lat="38.15948" lon="15.6649017"><ele>52.0</ele><time>2026-04-04T14:39:22.579Z</time></trkpt><trkpt lat="38.1597433" lon="15.6646417"><ele>53.0</ele><time>2026-04-04T14:39:23.579Z</time></trkpt><trkpt lat="38.1600217" lon="15.6643817"><ele>54.0</ele><time>2026-04-04T14:39:24.579Z</time></trkpt><trkpt lat="38.1602983" lon="15.664115"><ele>54.0</ele><time>2026-04-04T14:39:25.579Z</time></trkpt><trkpt lat="38.1605667" lon="15.663865"><ele>54.0</ele><time>2026-04-04T14:39:26.579Z</time></trkpt><trkpt lat="38.1608267" lon="15.6636033"><ele>52.5</ele><time>2026-04-04T14:39:27.579Z</time></trkpt><trkpt lat="38.1610783" lon="15.6633517"><ele>51.0</ele><time>2026-04-04T14:39:28.579Z</time></trkpt><trkpt lat="38.161335" lon="15.663095"><ele>52.5</ele><time>2026-04-04T14:39:29.579Z</time></trkpt><trkpt lat="38.1616117" lon="15.6628183"><ele>54.0</ele><time>2026-04-04T14:39:30.579Z</time></trkpt><trkpt lat="38.1619033" lon="15.6625467"><ele>52.5</ele><time>2026-04-04T14:39:31.579Z</time></trkpt><trkpt lat="38.1621983" lon="15.66227"><ele>51.0</ele><time>2026-04-04T14:39:32.58Z</time></trkpt><trkpt lat="38.1625067" lon="15.6619817"><ele>47.0</ele><time>2026-04-04T14:39:33.579Z</time></trkpt><trkpt lat="38.1628233" lon="15.66168"><ele>43.0</ele><time>2026-04-04T14:39:34.579Z</time></trkpt><trkpt lat="38.1631583" lon="15.6613667"><ele>40.5</ele><time>2026-04-04T14:39:35.58Z</time></trkpt><trkpt lat="38.1634933" lon="15.661045"><ele>38.0</ele><time>2026-04-04T14:39:36.579Z</time></trkpt><trkpt lat="38.16382" lon="15.660725"><ele>38.5</ele><time>2026-04-04T14:39:37.58Z</time></trkpt><trkpt lat="38.164155" lon="15.6604067"><ele>39.0</ele><time>2026-04-04T14:39:38.579Z</time></trkpt><trkpt lat="38.164485" lon="15.6600967"><ele>36.0</ele><time>2026-04-04T14:39:39.579Z</time></trkpt><trkpt lat="38.1647967" lon="15.6597867"><ele>33.0</ele><time>2026-04-04T14:39:40.579Z</time></trkpt><trkpt lat="38.1650983" lon="15.6594933"><ele>31.0</ele><time>2026-04-04T14:39:41.58Z</time></trkpt><trkpt lat="38.1653917" lon="15.6592083"><ele>29.0</ele><time>2026-04-04T14:39:42.579Z</time></trkpt><trkpt lat="38.1656867" lon="15.6589367"><ele>29.0</ele><time>2026-04-04T14:39:43.579Z</time></trkpt><trkpt lat="38.1659683" lon="15.65867"><ele>29.0</ele><time>2026-04-04T14:39:44.579Z</time></trkpt><trkpt lat="38.1662517" lon="15.6584033"><ele>30.0</ele><time>2026-04-04T14:39:45.58Z</time></trkpt><trkpt lat="38.16653" lon="15.65813"><ele>31.0</ele><time>2026-04-04T14:39:46.579Z</time></trkpt><trkpt lat="38.1668117" lon="15.6578617"><ele>31.0</ele><time>2026-04-04T14:39:47.58Z</time></trkpt><trkpt lat="38.1671" lon="15.657595"><ele>31.0</ele><time>2026-04-04T14:39:48.579Z</time></trkpt><trkpt lat="38.1673867" lon="15.6573317"><ele>31.0</ele><time>2026-04-04T14:39:49.579Z</time></trkpt><trkpt lat="38.1676717" lon="15.6570783"><ele>31.0</ele><time>2026-04-04T14:39:50.579Z</time></trkpt><trkpt lat="38.1679567" lon="15.6568517"><ele>31.5</ele><time>2026-04-04T14:39:51.579Z</time></trkpt><trkpt lat="38.1682467" lon="15.656635"><ele>32.0</ele><time>2026-04-04T14:39:52.579Z</time></trkpt><trkpt lat="38.1685517" lon="15.6564367"><ele>32.0</ele><time>2026-04-04T14:39:53.579Z</time></trkpt><trkpt lat="38.1688717" lon="15.6562467"><ele>32.0</ele><time>2026-04-04T14:39:54.579Z</time></trkpt><trkpt lat="38.1691767" lon="15.65607"><ele>31.5</ele><time>2026-04-04T14:39:55.579Z</time></trkpt><trkpt lat="38.1694567" lon="15.6559133"><ele>31.0</ele><time>2026-04-04T14:39:56.579Z</time></trkpt><trkpt lat="38.16972" lon="15.6557733"><ele>33.0</ele><time>2026-04-04T14:39:57.579Z</time></trkpt><trkpt lat="38.16998" lon="15.6556383"><ele>35.0</ele><time>2026-04-04T14:39:58.579Z</time></trkpt><trkpt lat="38.1702417" lon="15.6554917"><ele>35.0</ele><time>2026-04-04T14:39:59.579Z</time></trkpt><trkpt lat="38.1705067" lon="15.6553417"><ele>35.0</ele><time>2026-04-04T14:40:00.579Z</time></trkpt><trkpt lat="38.1707667" lon="15.65521"><ele>33.5</ele><time>2026-04-04T14:40:01.58Z</time></trkpt><trkpt lat="38.1710333" lon="15.65509"><ele>32.0</ele><time>2026-04-04T14:40:02.579Z</time></trkpt><trkpt lat="38.17131" lon="15.6549767"><ele>33.0</ele><time>2026-04-04T14:40:03.579Z</time></trkpt><trkpt lat="38.1715933" lon="15.6548833"><ele>34.0</ele><time>2026-04-04T14:40:04.579Z</time></trkpt><trkpt lat="38.1718483" lon="15.6548"><ele>34.0</ele><time>2026-04-04T14:40:05.579Z</time></trkpt><trkpt lat="38.1720633" lon="15.65471"><ele>34.0</ele><time>2026-04-04T14:40:06.579Z</time></trkpt><trkpt lat="38.1722367" lon="15.65464"><ele>34.0</ele><time>2026-04-04T14:40:07.581Z</time></trkpt><trkpt lat="38.1723817" lon="15.65459"><ele>34.25</ele><time>2026-04-04T14:40:08.58Z</time></trkpt><trkpt lat="38.1724933" lon="15.6545867"><ele>34.5</ele><time>2026-04-04T14:40:09.58Z</time></trkpt><trkpt lat="38.1725967" lon="15.6546367"><ele>34.75</ele><time>2026-04-04T14:40:10.58Z</time></trkpt><trkpt lat="38.1726917" lon="15.6547483"><ele>35.0</ele><time>2026-04-04T14:40:11.58Z</time></trkpt><trkpt lat="38.1727633" lon="15.6548983"><ele>35.0</ele><time>2026-04-04T14:40:12.58Z</time></trkpt><trkpt lat="38.172835" lon="15.6550533"><ele>35.0</ele><time>2026-04-04T14:40:13.581Z</time></trkpt><trkpt lat="38.1729433" lon="15.6551583"><ele>35.0</ele><time>2026-04-04T14:40:14.58Z</time></trkpt><trkpt lat="38.1730867" lon="15.65519"><ele>35.0</ele><time>2026-04-04T14:40:15.58Z</time></trkpt><trkpt lat="38.173245" lon="15.6551567"><ele>34.666666666666664</ele><time>2026-04-04T14:40:16.58Z</time></trkpt><trkpt lat="38.17343" lon="15.655055"><ele>34.333333333333336</ele><time>2026-04-04T14:40:17.58Z</time></trkpt><trkpt lat="38.173645" lon="15.6549233"><ele>34.0</ele><time>2026-04-04T14:40:18.58Z</time></trkpt><trkpt lat="38.17386" lon="15.6547817"><ele>34.66666666666667</ele><time>2026-04-04T14:40:19.58Z</time></trkpt><trkpt lat="38.1740317" lon="15.6546517"><ele>35.333333333333336</ele><time>2026-04-04T14:40:20.58Z</time></trkpt><trkpt lat="38.1741717" lon="15.654505"><ele>36.0</ele><time>2026-04-04T14:40:21.58Z</time></trkpt><trkpt lat="38.1742683" lon="15.6543367"><ele>36.666666666666664</ele><time>2026-04-04T14:40:22.58Z</time></trkpt><trkpt lat="38.1743267" lon="15.654155"><ele>37.33333333333333</ele><time>2026-04-04T14:40:23.58Z</time></trkpt><trkpt lat="38.17434" lon="15.653965"><ele>38.0</ele><time>2026-04-04T14:40:24.581Z</time></trkpt><trkpt lat="38.174315" lon="15.6537767"><ele>37.0</ele><time>2026-04-04T14:40:25.58Z</time></trkpt><trkpt lat="38.1742817" lon="15.6535883"><ele>36.0</ele><time>2026-04-04T14:40:26.58Z</time></trkpt><trkpt lat="38.1742067" lon="15.6534117"><ele>35.0</ele><time>2026-04-04T14:40:27.58Z</time></trkpt><trkpt lat="38.1741067" lon="15.6532733"><ele>33.666666666666664</ele><time>2026-04-04T14:40:28.58Z</time></trkpt><trkpt lat="38.1739783" lon="15.65316"><ele>32.333333333333336</ele><time>2026-04-04T14:40:29.58Z</time></trkpt><trkpt lat="38.1738333" lon="15.65308"><ele>31.0</ele><time>2026-04-04T14:40:30.58Z</time></trkpt><trkpt lat="38.1736883" lon="15.653035"><ele>31.0</ele><time>2026-04-04T14:40:31.58Z</time></trkpt><trkpt lat="38.1735283" lon="15.65303"><ele>31.0</ele><time>2026-04-04T14:40:32.581Z</time></trkpt><trkpt lat="38.1733417" lon="15.65308"><ele>31.0</ele><time>2026-04-04T14:40:33.58Z</time></trkpt><trkpt lat="38.17311" lon="15.65315"><ele>31.0</ele><time>2026-04-04T14:40:34.581Z</time></trkpt><trkpt lat="38.1728617" lon="15.6532117"><ele>31.0</ele><time>2026-04-04T14:40:35.58Z</time></trkpt><trkpt lat="38.1726317" lon="15.653265"><ele>31.0</ele><time>2026-04-04T14:40:36.58Z</time></trkpt><trkpt lat="38.17243" lon="15.6532867"><ele>31.0</ele><time>2026-04-04T14:40:37.58Z</time></trkpt><trkpt lat="38.172255" lon="15.6532683"><ele>31.0</ele><time>2026-04-04T14:40:38.58Z</time></trkpt><trkpt lat="38.1721" lon="15.6532133"><ele>30.5</ele><time>2026-04-04T14:40:39.58Z</time></trkpt><trkpt lat="38.17198" lon="15.65313"><ele>30.0</ele><time>2026-04-04T14:40:40.58Z</time></trkpt><trkpt lat="38.17188" lon="15.6530133"><ele>29.5</ele><time>2026-04-04T14:40:41.58Z</time></trkpt><trkpt lat="38.171795" lon="15.652855"><ele>29.0</ele><time>2026-04-04T14:40:42.58Z</time></trkpt><trkpt lat="38.1717317" lon="15.6526383"><ele>28.666666666666664</ele><time>2026-04-04T14:40:43.58Z</time></trkpt><trkpt lat="38.171655" lon="15.65239"><ele>28.333333333333336</ele><time>2026-04-04T14:40:44.58Z</time></trkpt><trkpt lat="38.1715517" lon="15.6521633"><ele>28.0</ele><time>2026-04-04T14:40:45.58Z</time></trkpt><trkpt lat="38.17145" lon="15.6519883"><ele>27.25</ele><time>2026-04-04T14:40:46.58Z</time></trkpt><trkpt lat="38.1713633" lon="15.6518533"><ele>26.5</ele><time>2026-04-04T14:40:47.58Z</time></trkpt><trkpt lat="38.1712817" lon="15.65174"><ele>25.75</ele><time>2026-04-04T14:40:48.58Z</time></trkpt><trkpt lat="38.1712067" lon="15.6516333"><ele>25.0</ele><time>2026-04-04T14:40:49.581Z</time></trkpt><trkpt lat="38.17112" lon="15.6515133"><ele>25.0</ele><time>2026-04-04T14:40:50.58Z</time></trkpt><trkpt lat="38.1710267" lon="15.651375"><ele>25.0</ele><time>2026-04-04T14:40:51.581Z</time></trkpt><trkpt lat="38.17093" lon="15.6512717"><ele>25.0</ele><time>2026-04-04T14:40:52.58Z</time></trkpt><trkpt lat="38.170825" lon="15.6512117"><ele>25.0</ele><time>2026-04-04T14:40:53.58Z</time></trkpt><trkpt lat="38.170715" lon="15.6511983"><ele>24.6</ele><time>2026-04-04T14:40:54.581Z</time></trkpt><trkpt lat="38.17061" lon="15.6512383"><ele>24.2</ele><time>2026-04-04T14:40:55.58Z</time></trkpt><trkpt lat="38.1705183" lon="15.6513267"><ele>23.799999999999997</ele><time>2026-04-04T14:40:56.58Z</time></trkpt><trkpt lat="38.170465" lon="15.6514283"><ele>23.4</ele><time>2026-04-04T14:40:57.58Z</time></trkpt><trkpt lat="38.1704483" lon="15.6515533"><ele>23.0</ele><time>2026-04-04T14:40:58.58Z</time></trkpt><trkpt lat="38.1704667" lon="15.651695"><ele>23.0</ele><time>2026-04-04T14:40:59.58Z</time></trkpt><trkpt lat="38.1705183" lon="15.6518583"><ele>23.0</ele><time>2026-04-04T14:41:00.581Z</time></trkpt><trkpt lat="38.1705967" lon="15.652055"><ele>23.0</ele><time>2026-04-04T14:41:01.58Z</time></trkpt><trkpt lat="38.170655" lon="15.65225"><ele>23.5</ele><time>2026-04-04T14:41:02.58Z</time></trkpt><trkpt lat="38.170675" lon="15.65244"><ele>24.0</ele><time>2026-04-04T14:41:03.58Z</time></trkpt><trkpt lat="38.170675" lon="15.652615"><ele>24.5</ele><time>2026-04-04T14:41:04.58Z</time></trkpt><trkpt lat="38.17067" lon="15.652775"><ele>25.0</ele><time>2026-04-04T14:41:05.58Z</time></trkpt><trkpt lat="38.1706767" lon="15.6529483"><ele>26.0</ele><time>2026-04-04T14:41:06.581Z</time></trkpt><trkpt lat="38.1706967" lon="15.6531283"><ele>27.0</ele><time>2026-04-04T14:41:07.58Z</time></trkpt><trkpt lat="38.1707333" lon="15.6533217"><ele>28.0</ele><time>2026-04-04T14:41:08.58Z</time></trkpt><trkpt lat="38.170775" lon="15.6535133"><ele>28.25</ele><time>2026-04-04T14:41:09.58Z</time></trkpt><trkpt lat="38.1708183" lon="15.6536883"><ele>28.5</ele><time>2026-04-04T14:41:10.58Z</time></trkpt><trkpt lat="38.17086" lon="15.6538583"><ele>28.75</ele><time>2026-04-04T14:41:11.58Z</time></trkpt><trkpt lat="38.17088" lon="15.6540083"><ele>29.0</ele><time>2026-04-04T14:41:12.58Z</time></trkpt><trkpt lat="38.1709033" lon="15.654145"><ele>29.0</ele><time>2026-04-04T14:41:13.58Z</time></trkpt><trkpt lat="38.170935" lon="15.6542783"><ele>29.0</ele><time>2026-04-04T14:41:14.58Z</time></trkpt><trkpt lat="38.17097" lon="15.6544217"><ele>29.0</ele><time>2026-04-04T14:41:15.581Z</time></trkpt><trkpt lat="38.1709967" lon="15.6545567"><ele>29.0</ele><time>2026-04-04T14:41:16.581Z</time></trkpt><trkpt lat="38.17099" lon="15.6546717"><ele>29.0</ele><time>2026-04-04T14:41:17.58Z</time></trkpt><trkpt lat="38.1709617" lon="15.654755"><ele>29.499999999999996</ele><time>2026-04-04T14:41:18.58Z</time></trkpt><trkpt lat="38.1709133" lon="15.6548267"><ele>30.0</ele><time>2026-04-04T14:41:19.581Z</time></trkpt><trkpt lat="38.1708467" lon="15.6548733"><ele>30.5</ele><time>2026-04-04T14:41:20.581Z</time></trkpt><trkpt lat="38.170775" lon="15.6549"><ele>31.0</ele><time>2026-04-04T14:41:21.58Z</time></trkpt><trkpt lat="38.17069" lon="15.6549017"><ele>31.499999999999996</ele><time>2026-04-04T14:41:22.58Z</time></trkpt><trkpt lat="38.1705983" lon="15.654895"><ele>32.0</ele><time>2026-04-04T14:41:23.58Z</time></trkpt><trkpt lat="38.1705" lon="15.6548917"><ele>32.0</ele><time>2026-04-04T14:41:24.58Z</time></trkpt><trkpt lat="38.1703933" lon="15.6549"><ele>32.0</ele><time>2026-04-04T14:41:25.58Z</time></trkpt><trkpt lat="38.1702967" lon="15.65491"><ele>32.0</ele><time>2026-04-04T14:41:26.58Z</time></trkpt><trkpt lat="38.170195" lon="15.6549283"><ele>32.0</ele><time>2026-04-04T14:41:27.58Z</time></trkpt><trkpt lat="38.1700983" lon="15.65497"><ele>32.0</ele><time>2026-04-04T14:41:28.581Z</time></trkpt><trkpt lat="38.1700083" lon="15.6550167"><ele>32.0</ele><time>2026-04-04T14:41:29.581Z</time></trkpt><trkpt lat="38.1698983" lon="15.6550517"><ele>32.0</ele><time>2026-04-04T14:41:30.581Z</time></trkpt><trkpt lat="38.16977" lon="15.65509"><ele>32.0</ele><time>2026-04-04T14:41:31.581Z</time></trkpt><trkpt lat="38.169645" lon="15.6551283"><ele>32.0</ele><time>2026-04-04T14:41:32.58Z</time></trkpt><trkpt lat="38.1695517" lon="15.6551733"><ele>31.8</ele><time>2026-04-04T14:41:33.58Z</time></trkpt><trkpt lat="38.1694867" lon="15.6552067"><ele>31.6</ele><time>2026-04-04T14:41:34.581Z</time></trkpt><trkpt lat="38.1694533" lon="15.6552967"><ele>31.400000000000002</ele><time>2026-04-04T14:41:38.58Z</time></trkpt><trkpt lat="38.1694933" lon="15.6554883"><ele>31.200000000000003</ele><time>2026-04-04T14:41:40.58Z</time></trkpt><trkpt lat="38.1695517" lon="15.6556333"><ele>31.0</ele><time>2026-04-04T14:41:41.581Z</time></trkpt><trkpt lat="38.1695967" lon="15.6557667"><ele>31.0</ele><time>2026-04-04T14:41:42.58Z</time></trkpt><trkpt lat="38.16964" lon="15.655895"><ele>31.0</ele><time>2026-04-04T14:41:43.58Z</time></trkpt><trkpt lat="38.16969" lon="15.6560217"><ele>31.0</ele><time>2026-04-04T14:41:44.58Z</time></trkpt><trkpt lat="38.1697433" lon="15.656135"><ele>31.0</ele><time>2026-04-04T14:41:45.581Z</time></trkpt><trkpt lat="38.1697917" lon="15.6562467"><ele>31.0</ele><time>2026-04-04T14:41:46.58Z</time></trkpt><trkpt lat="38.1698417" lon="15.656355"><ele>32.5</ele><time>2026-04-04T14:41:47.58Z</time></trkpt><trkpt lat="38.16989" lon="15.6564667"><ele>34.0</ele><time>2026-04-04T14:41:48.58Z</time></trkpt><trkpt lat="38.1699583" lon="15.6566217"><ele>35.5</ele><time>2026-04-04T14:41:49.58Z</time></trkpt><trkpt lat="38.1700267" lon="15.6568"><ele>37.0</ele><time>2026-04-04T14:41:50.58Z</time></trkpt><trkpt lat="38.1700733" lon="15.6569483"><ele>37.333333333333336</ele><time>2026-04-04T14:41:51.58Z</time></trkpt><trkpt lat="38.1701167" lon="15.6570667"><ele>37.66666666666667</ele><time>2026-04-04T14:41:52.58Z</time></trkpt><trkpt lat="38.170145" lon="15.6571833"><ele>38.0</ele><time>2026-04-04T14:41:53.58Z</time></trkpt><trkpt lat="38.1701483" lon="15.6572867"><ele>38.333333333333336</ele><time>2026-04-04T14:41:54.58Z</time></trkpt><trkpt lat="38.1701367" lon="15.65739"><ele>38.666666666666664</ele><time>2026-04-04T14:41:55.58Z</time></trkpt><trkpt lat="38.170115" lon="15.6574967"><ele>39.0</ele><time>2026-04-04T14:41:56.581Z</time></trkpt><trkpt lat="38.1701" lon="15.6576233"><ele>39.0</ele><time>2026-04-04T14:41:57.58Z</time></trkpt><trkpt lat="38.1700883" lon="15.6577717"><ele>39.0</ele><time>2026-04-04T14:41:58.58Z</time></trkpt><trkpt lat="38.1700833" lon="15.657915"><ele>39.0</ele><time>2026-04-04T14:41:59.58Z</time></trkpt><trkpt lat="38.1700817" lon="15.658015"><ele>39.0</ele><time>2026-04-04T14:42:00.58Z</time></trkpt><trkpt lat="38.1701" lon="15.6581033"><ele>39.0</ele><time>2026-04-04T14:42:01.581Z</time></trkpt><trkpt lat="38.1701433" lon="15.6582033"><ele>39.333333333333336</ele><time>2026-04-04T14:42:02.58Z</time></trkpt><trkpt lat="38.1702267" lon="15.658355"><ele>39.66666666666667</ele><time>2026-04-04T14:42:03.58Z</time></trkpt><trkpt lat="38.1703267" lon="15.6585333"><ele>40.0</ele><time>2026-04-04T14:42:04.58Z</time></trkpt><trkpt lat="38.1704233" lon="15.6587183"><ele>41.333333333333336</ele><time>2026-04-04T14:42:05.58Z</time></trkpt><trkpt lat="38.1705167" lon="15.658905"><ele>42.666666666666664</ele><time>2026-04-04T14:42:06.581Z</time></trkpt><trkpt lat="38.1706133" lon="15.65908"><ele>44.0</ele><time>2026-04-04T14:42:07.58Z</time></trkpt><trkpt lat="38.1706867" lon="15.6592433"><ele>44.2</ele><time>2026-04-04T14:42:08.58Z</time></trkpt><trkpt lat="38.170735" lon="15.6593883"><ele>44.400000000000006</ele><time>2026-04-04T14:42:09.58Z</time></trkpt><trkpt lat="38.1707767" lon="15.6595167"><ele>44.6</ele><time>2026-04-04T14:42:10.581Z</time></trkpt><trkpt lat="38.170815" lon="15.6596367"><ele>44.8</ele><time>2026-04-04T14:42:11.58Z</time></trkpt><trkpt lat="38.1708517" lon="15.65975"><ele>45.0</ele><time>2026-04-04T14:42:12.58Z</time></trkpt><trkpt lat="38.1709017" lon="15.659875"><ele>46.75</ele><time>2026-04-04T14:42:13.58Z</time></trkpt><trkpt lat="38.1709367" lon="15.660015"><ele>48.5</ele><time>2026-04-04T14:42:14.58Z</time></trkpt><trkpt lat="38.1709867" lon="15.6601733"><ele>50.25</ele><time>2026-04-04T14:42:15.58Z</time></trkpt><trkpt lat="38.171045" lon="15.660365"><ele>52.0</ele><time>2026-04-04T14:42:16.58Z</time></trkpt><trkpt lat="38.1711117" lon="15.6605567"><ele>53.0</ele><time>2026-04-04T14:42:17.58Z</time></trkpt><trkpt lat="38.17116" lon="15.66074"><ele>54.0</ele><time>2026-04-04T14:42:18.581Z</time></trkpt><trkpt lat="38.1712117" lon="15.66091"><ele>55.0</ele><time>2026-04-04T14:42:19.58Z</time></trkpt><trkpt lat="38.17125" lon="15.6610633"><ele>56.0</ele><time>2026-04-04T14:42:20.581Z</time></trkpt><trkpt lat="38.1712833" lon="15.6611883"><ele>56.0</ele><time>2026-04-04T14:42:21.58Z</time></trkpt><trkpt lat="38.1713117" lon="15.6612967"><ele>55.99999999999999</ele><time>2026-04-04T14:42:22.58Z</time></trkpt><trkpt lat="38.1713267" lon="15.6614"><ele>55.99999999999999</ele><time>2026-04-04T14:42:23.581Z</time></trkpt><trkpt lat="38.1713383" lon="15.6615017"><ele>56.0</ele><time>2026-04-04T14:42:24.58Z</time></trkpt><trkpt lat="38.1713583" lon="15.661615"><ele>56.0</ele><time>2026-04-04T14:42:25.58Z</time></trkpt><trkpt lat="38.1713633" lon="15.6617667"><ele>57.0</ele><time>2026-04-04T14:42:26.58Z</time></trkpt><trkpt lat="38.171365" lon="15.6619633"><ele>58.0</ele><time>2026-04-04T14:42:27.581Z</time></trkpt><trkpt lat="38.1713667" lon="15.6621917"><ele>59.0</ele><time>2026-04-04T14:42:28.581Z</time></trkpt><trkpt lat="38.17138" lon="15.6624"><ele>59.0</ele><time>2026-04-04T14:42:29.58Z</time></trkpt><trkpt lat="38.171385" lon="15.662555"><ele>59.00000000000001</ele><time>2026-04-04T14:42:30.58Z</time></trkpt><trkpt lat="38.1713983" lon="15.66266"><ele>59.00000000000001</ele><time>2026-04-04T14:42:31.58Z</time></trkpt><trkpt lat="38.1714317" lon="15.662815"><ele>59.0</ele><time>2026-04-04T14:42:33.58Z</time></trkpt><trkpt lat="38.171455" lon="15.6629533"><ele>59.0</ele><time>2026-04-04T14:42:35.58Z</time></trkpt><trkpt lat="38.1714617" lon="15.6630883"><ele>59.6</ele><time>2026-04-04T14:42:37.58Z</time></trkpt><trkpt lat="38.1715117" lon="15.6631967"><ele>60.2</ele><time>2026-04-04T14:42:39.58Z</time></trkpt><trkpt lat="38.171565" lon="15.6632767"><ele>60.800000000000004</ele><time>2026-04-04T14:42:40.58Z</time></trkpt><trkpt lat="38.1716383" lon="15.6633917"><ele>61.400000000000006</ele><time>2026-04-04T14:42:41.58Z</time></trkpt><trkpt lat="38.17173" lon="15.6635317"><ele>62.0</ele><time>2026-04-04T14:42:42.58Z</time></trkpt><trkpt lat="38.171835" lon="15.663695"><ele>64.0</ele><time>2026-04-04T14:42:43.58Z</time></trkpt><trkpt lat="38.1719533" lon="15.663855"><ele>66.0</ele><time>2026-04-04T14:42:44.58Z</time></trkpt><trkpt lat="38.1720733" lon="15.663985"><ele>68.0</ele><time>2026-04-04T14:42:45.581Z</time></trkpt><trkpt lat="38.1721633" lon="15.6641117"><ele>68.0</ele><time>2026-04-04T14:42:46.58Z</time></trkpt><trkpt lat="38.1722417" lon="15.664205"><ele>68.0</ele><time>2026-04-04T14:42:47.58Z</time></trkpt><trkpt lat="38.172305" lon="15.6642783"><ele>68.0</ele><time>2026-04-04T14:42:48.58Z</time></trkpt><trkpt lat="38.1723567" lon="15.6643433"><ele>68.0</ele><time>2026-04-04T14:42:49.58Z</time></trkpt><trkpt lat="38.17241" lon="15.6644033"><ele>68.0</ele><time>2026-04-04T14:42:50.58Z</time></trkpt><trkpt lat="38.1724733" lon="15.6644583"><ele>68.0</ele><time>2026-04-04T14:42:51.58Z</time></trkpt><trkpt lat="38.17254" lon="15.6645167"><ele>68.5</ele><time>2026-04-04T14:42:52.58Z</time></trkpt><trkpt lat="38.1726017" lon="15.664575"><ele>69.0</ele><time>2026-04-04T14:42:53.581Z</time></trkpt><trkpt lat="38.172665" lon="15.6646317"><ele>69.5</ele><time>2026-04-04T14:42:54.58Z</time></trkpt><trkpt lat="38.1727267" lon="15.66469"><ele>70.0</ele><time>2026-04-04T14:42:55.58Z</time></trkpt><trkpt lat="38.1728067" lon="15.6647433"><ele>70.5</ele><time>2026-04-04T14:42:56.58Z</time></trkpt><trkpt lat="38.17291" lon="15.6648267"><ele>71.0</ele><time>2026-04-04T14:42:57.58Z</time></trkpt><trkpt lat="38.1730517" lon="15.664935"><ele>71.0</ele><time>2026-04-04T14:42:58.581Z</time></trkpt><trkpt lat="38.1731883" lon="15.6650917"><ele>71.0</ele><time>2026-04-04T14:42:59.58Z</time></trkpt><trkpt lat="38.1733133" lon="15.665235"><ele>71.0</ele><time>2026-04-04T14:43:00.581Z</time></trkpt><trkpt lat="38.1734217" lon="15.6653333"><ele>71.5</ele><time>2026-04-04T14:43:01.58Z</time></trkpt><trkpt lat="38.17351" lon="15.6654017"><ele>72.0</ele><time>2026-04-04T14:43:02.58Z</time></trkpt><trkpt lat="38.1735567" lon="15.66546"><ele>72.5</ele><time>2026-04-04T14:43:03.581Z</time></trkpt><trkpt lat="38.173555" lon="15.665565"><ele>73.0</ele><time>2026-04-04T14:43:05.58Z</time></trkpt><trkpt lat="38.173485" lon="15.6656133"><ele>73.5</ele><time>2026-04-04T14:43:06.58Z</time></trkpt><trkpt lat="38.173405" lon="15.6656433"><ele>74.0</ele><time>2026-04-04T14:43:07.58Z</time></trkpt><trkpt lat="38.173325" lon="15.6656417"><ele>74.0</ele><time>2026-04-04T14:43:08.581Z</time></trkpt><trkpt lat="38.1732483" lon="15.6655867"><ele>74.0</ele><time>2026-04-04T14:43:09.58Z</time></trkpt><trkpt lat="38.1731717" lon="15.6655667"><ele>74.0</ele><time>2026-04-04T14:43:10.581Z</time></trkpt><trkpt lat="38.173095" lon="15.6655867"><ele>74.0</ele><time>2026-04-04T14:43:11.58Z</time></trkpt><trkpt lat="38.173025" lon="15.6656567"><ele>74.0</ele><time>2026-04-04T14:43:12.581Z</time></trkpt><trkpt lat="38.1729617" lon="15.6657767"><ele>74.0</ele><time>2026-04-04T14:43:13.581Z</time></trkpt><trkpt lat="38.1728917" lon="15.6659483"><ele>75.33333333333334</ele><time>2026-04-04T14:43:14.58Z</time></trkpt><trkpt lat="38.1728367" lon="15.6661917"><ele>76.66666666666667</ele><time>2026-04-04T14:43:15.58Z</time></trkpt><trkpt lat="38.17279" lon="15.6664917"><ele>78.0</ele><time>2026-04-04T14:43:16.581Z</time></trkpt><trkpt lat="38.172765" lon="15.6667633"><ele>78.66666666666667</ele><time>2026-04-04T14:43:17.58Z</time></trkpt><trkpt lat="38.1727817" lon="15.6669983"><ele>79.33333333333334</ele><time>2026-04-04T14:43:18.58Z</time></trkpt><trkpt lat="38.1727833" lon="15.6672033"><ele>80.0</ele><time>2026-04-04T14:43:19.58Z</time></trkpt><trkpt lat="38.1727733" lon="15.6673683"><ele>80.0</ele><time>2026-04-04T14:43:20.58Z</time></trkpt><trkpt lat="38.17277" lon="15.6674867"><ele>80.0</ele><time>2026-04-04T14:43:21.581Z</time></trkpt><trkpt lat="38.1727817" lon="15.6675833"><ele>80.0</ele><time>2026-04-04T14:43:22.58Z</time></trkpt><trkpt lat="38.172825" lon="15.6676533"><ele>80.0</ele><time>2026-04-04T14:43:23.58Z</time></trkpt><trkpt lat="38.1728967" lon="15.6677033"><ele>80.0</ele><time>2026-04-04T14:43:24.58Z</time></trkpt><trkpt lat="38.1730017" lon="15.6677267"><ele>80.0</ele><time>2026-04-04T14:43:25.58Z</time></trkpt><trkpt lat="38.173145" lon="15.667725"><ele>80.4</ele><time>2026-04-04T14:43:26.581Z</time></trkpt><trkpt lat="38.1732733" lon="15.66774"><ele>80.8</ele><time>2026-04-04T14:43:27.58Z</time></trkpt><trkpt lat="38.173375" lon="15.6677567"><ele>81.19999999999999</ele><time>2026-04-04T14:43:28.58Z</time></trkpt><trkpt lat="38.1734633" lon="15.6677667"><ele>81.6</ele><time>2026-04-04T14:43:29.58Z</time></trkpt><trkpt lat="38.1735467" lon="15.66778"><ele>82.0</ele><time>2026-04-04T14:43:30.58Z</time></trkpt><trkpt lat="38.1736383" lon="15.6678117"><ele>82.66666666666666</ele><time>2026-04-04T14:43:31.58Z</time></trkpt><trkpt lat="38.173735" lon="15.6678633"><ele>83.33333333333333</ele><time>2026-04-04T14:43:32.58Z</time></trkpt><trkpt lat="38.17381" lon="15.6679217"><ele>84.0</ele><time>2026-04-04T14:43:33.58Z</time></trkpt><trkpt lat="38.173845" lon="15.66799"><ele>84.66666666666667</ele><time>2026-04-04T14:43:34.58Z</time></trkpt><trkpt lat="38.1738567" lon="15.6680817"><ele>85.33333333333334</ele><time>2026-04-04T14:43:35.58Z</time></trkpt><trkpt lat="38.1738533" lon="15.6682033"><ele>86.0</ele><time>2026-04-04T14:43:36.58Z</time></trkpt><trkpt lat="38.173835" lon="15.66836"><ele>86.0</ele><time>2026-04-04T14:43:37.58Z</time></trkpt><trkpt lat="38.1738167" lon="15.6685717"><ele>86.0</ele><time>2026-04-04T14:43:38.58Z</time></trkpt><trkpt lat="38.1737817" lon="15.6687883"><ele>86.0</ele><time>2026-04-04T14:43:39.58Z</time></trkpt><trkpt lat="38.1737533" lon="15.6689967"><ele>87.0</ele><time>2026-04-04T14:43:40.58Z</time></trkpt><trkpt lat="38.1737467" lon="15.6691467"><ele>88.0</ele><time>2026-04-04T14:43:41.581Z</time></trkpt><trkpt lat="38.1737767" lon="15.669245"><ele>89.0</ele><time>2026-04-04T14:43:42.581Z</time></trkpt><trkpt lat="38.1738417" lon="15.6693183"><ele>90.0</ele><time>2026-04-04T14:43:43.58Z</time></trkpt><trkpt lat="38.1739267" lon="15.6693833"><ele>91.0</ele><time>2026-04-04T14:43:44.58Z</time></trkpt><trkpt lat="38.1740017" lon="15.66943"><ele>91.66666666666666</ele><time>2026-04-04T14:43:45.58Z</time></trkpt><trkpt lat="38.1740517" lon="15.66948"><ele>92.33333333333333</ele><time>2026-04-04T14:43:46.581Z</time></trkpt><trkpt lat="38.174065" lon="15.6696333"><ele>93.0</ele><time>2026-04-04T14:43:48.58Z</time></trkpt><trkpt lat="38.1740467" lon="15.669715"><ele>93.66666666666667</ele><time>2026-04-04T14:43:49.58Z</time></trkpt><trkpt lat="38.174025" lon="15.6697917"><ele>94.33333333333334</ele><time>2026-04-04T14:43:50.581Z</time></trkpt><trkpt lat="38.174005" lon="15.6699167"><ele>95.0</ele><time>2026-04-04T14:43:52.58Z</time></trkpt><trkpt lat="38.17398" lon="15.6700533"><ele>95.0</ele><time>2026-04-04T14:43:54.58Z</time></trkpt><trkpt lat="38.173945" lon="15.670185"><ele>95.0</ele><time>2026-04-04T14:43:56.58Z</time></trkpt><trkpt lat="38.1739167" lon="15.670285"><ele>95.0</ele><time>2026-04-04T14:43:58.581Z</time></trkpt><trkpt lat="38.173885" lon="15.6704583"><ele>95.0</ele><time>2026-04-04T14:44:00.58Z</time></trkpt><trkpt lat="38.17386" lon="15.6705483"><ele>95.0</ele><time>2026-04-04T14:44:01.58Z</time></trkpt><trkpt lat="38.1738483" lon="15.67063"><ele>96.0</ele><time>2026-04-04T14:44:02.58Z</time></trkpt><trkpt lat="38.1738517" lon="15.6707167"><ele>97.0</ele><time>2026-04-04T14:44:04.58Z</time></trkpt><trkpt lat="38.1739283" lon="15.6707467"><ele>98.0</ele><time>2026-04-04T14:44:43.58Z</time></trkpt><trkpt lat="38.1740183" lon="15.6707583"><ele>99.0</ele><time>2026-04-04T14:44:45.581Z</time></trkpt><trkpt lat="38.1740967" lon="15.6707767"><ele>99.99999999999999</ele><time>2026-04-04T14:44:47.58Z</time></trkpt><trkpt lat="38.1741617" lon="15.6708067"><ele>101.0</ele><time>2026-04-04T14:44:49.58Z</time></trkpt><trkpt lat="38.1742233" lon="15.6708433"><ele>100.99999999999999</ele><time>2026-04-04T14:44:53.58Z</time></trkpt><trkpt lat="38.174305" lon="15.6707967"><ele>101.0</ele><time>2026-04-04T14:47:00.58Z</time></trkpt><trkpt lat="38.17421" lon="15.6708533"><ele>101.0</ele><time>2026-04-04T14:48:34.58Z</time></trkpt><trkpt lat="38.1741301" lon="15.670825"><ele>101.0</ele><time>2026-04-04T14:49:01.58Z</time></trkpt><trkpt lat="38.1740633" lon="15.6708176"><ele>100.99999999999999</ele><time>2026-04-04T14:49:28.58Z</time></trkpt><trkpt lat="38.1739805" lon="15.6708376"><ele>101.0</ele><time>2026-04-04T14:49:32.58Z</time></trkpt><trkpt lat="38.1739881" lon="15.6707572"><ele>100.99999999999999</ele><time>2026-04-04T14:49:36.58Z</time></trkpt><trkpt lat="38.1739392" lon="15.6708496"><ele>101.0</ele><time>2026-04-04T14:49:53.58Z</time></trkpt><trkpt lat="38.1739254" lon="15.6709524"><ele>101.0</ele><time>2026-04-04T14:52:05.581Z</time></trkpt><trkpt lat="38.1740037" lon="15.6709629"><ele>101.0</ele><time>2026-04-04T14:52:12.582Z</time></trkpt><trkpt lat="38.1740585" lon="15.6709046"><ele>100.99999999999999</ele><time>2026-04-04T14:52:17.581Z</time></trkpt><trkpt lat="38.1740536" lon="15.6708203"><ele>101.0</ele><time>2026-04-04T14:52:19.581Z</time></trkpt><trkpt lat="38.1740622" lon="15.67074"><ele>103.0</ele><time>2026-04-04T14:52:22.56Z</time></trkpt><trkpt lat="38.1739674" lon="15.6707401"><ele>101.0</ele><time>2026-04-04T14:52:26.581Z</time></trkpt><trkpt lat="38.1739674" lon="15.6707401"><ele>101.0</ele><time>2026-04-04T14:52:26.581Z</time></trkpt></trkseg></trk></gpx>